<?xml version="1.0" encoding="UTF-8"?>
<gpx xmlns="http://www.topografix.com/GPX/1/1"
     creator="GpsDump 4.92"
     version="1.1"
     xmlns:xsi="http://www.w3.org/2001/XMLSchema-instance"
     xsi:schemaLocation="http://www.topografix.com/GPX/1/1 http://www.topografix.com/GPX/1/1/gpx.xsd">
  <metadata>
    <link href="http://www.gethome.no/stein.sorensen/">
      <text>GPS dump for www.flightlog.org</text>
    </link>
    <time>2016-07-13T07:02:03Z</time>
    <bounds minlat="41.032817" minlon="-4.633850" maxlat="41.437750" maxlon="-4.177333"/>
  </metadata>
  <trk>
    <name>Track 001</name>
    <trkseg>
      <trkpt lat="41.435917" lon="-4.625183">
        <ele>858.0</ele>
        <time>2016-07-12T14:29:26Z</time>
      </trkpt>
      <trkpt lat="41.435933" lon="-4.625167">
        <ele>858.0</ele>
        <time>2016-07-12T14:29:27Z</time>
      </trkpt>
      <trkpt lat="41.435933" lon="-4.625150">
        <ele>857.0</ele>
        <time>2016-07-12T14:29:28Z</time>
      </trkpt>
      <trkpt lat="41.435967" lon="-4.625133">
        <ele>856.0</ele>
        <time>2016-07-12T14:29:29Z</time>
      </trkpt>
      <trkpt lat="41.436000" lon="-4.625100">
        <ele>854.0</ele>
        <time>2016-07-12T14:29:30Z</time>
      </trkpt>
      <trkpt lat="41.436033" lon="-4.625033">
        <ele>853.0</ele>
        <time>2016-07-12T14:29:31Z</time>
      </trkpt>
      <trkpt lat="41.436050" lon="-4.624967">
        <ele>854.0</ele>
        <time>2016-07-12T14:29:32Z</time>
      </trkpt>
      <trkpt lat="41.436067" lon="-4.624883">
        <ele>855.0</ele>
        <time>2016-07-12T14:29:33Z</time>
      </trkpt>
      <trkpt lat="41.436067" lon="-4.624817">
        <ele>857.0</ele>
        <time>2016-07-12T14:29:34Z</time>
      </trkpt>
      <trkpt lat="41.436050" lon="-4.624767">
        <ele>857.0</ele>
        <time>2016-07-12T14:29:35Z</time>
      </trkpt>
      <trkpt lat="41.436050" lon="-4.624700">
        <ele>858.0</ele>
        <time>2016-07-12T14:29:36Z</time>
      </trkpt>
      <trkpt lat="41.436050" lon="-4.624617">
        <ele>859.0</ele>
        <time>2016-07-12T14:29:37Z</time>
      </trkpt>
      <trkpt lat="41.436050" lon="-4.624533">
        <ele>859.0</ele>
        <time>2016-07-12T14:29:38Z</time>
      </trkpt>
      <trkpt lat="41.436050" lon="-4.624467">
        <ele>860.0</ele>
        <time>2016-07-12T14:29:39Z</time>
      </trkpt>
      <trkpt lat="41.436067" lon="-4.624417">
        <ele>860.0</ele>
        <time>2016-07-12T14:29:40Z</time>
      </trkpt>
      <trkpt lat="41.436083" lon="-4.624383">
        <ele>859.0</ele>
        <time>2016-07-12T14:29:41Z</time>
      </trkpt>
      <trkpt lat="41.436117" lon="-4.624350">
        <ele>858.0</ele>
        <time>2016-07-12T14:29:42Z</time>
      </trkpt>
      <trkpt lat="41.436133" lon="-4.624300">
        <ele>859.0</ele>
        <time>2016-07-12T14:29:43Z</time>
      </trkpt>
      <trkpt lat="41.436150" lon="-4.624233">
        <ele>860.0</ele>
        <time>2016-07-12T14:29:44Z</time>
      </trkpt>
      <trkpt lat="41.436167" lon="-4.624183">
        <ele>861.0</ele>
        <time>2016-07-12T14:29:45Z</time>
      </trkpt>
      <trkpt lat="41.436183" lon="-4.624167">
        <ele>861.0</ele>
        <time>2016-07-12T14:29:46Z</time>
      </trkpt>
      <trkpt lat="41.436217" lon="-4.624167">
        <ele>862.0</ele>
        <time>2016-07-12T14:29:47Z</time>
      </trkpt>
      <trkpt lat="41.436250" lon="-4.624167">
        <ele>864.0</ele>
        <time>2016-07-12T14:29:48Z</time>
      </trkpt>
      <trkpt lat="41.436283" lon="-4.624150">
        <ele>866.0</ele>
        <time>2016-07-12T14:29:49Z</time>
      </trkpt>
      <trkpt lat="41.436317" lon="-4.624150">
        <ele>868.0</ele>
        <time>2016-07-12T14:29:50Z</time>
      </trkpt>
      <trkpt lat="41.436350" lon="-4.624150">
        <ele>869.0</ele>
        <time>2016-07-12T14:29:51Z</time>
      </trkpt>
      <trkpt lat="41.436383" lon="-4.624150">
        <ele>872.0</ele>
        <time>2016-07-12T14:29:52Z</time>
      </trkpt>
      <trkpt lat="41.436400" lon="-4.624167">
        <ele>873.0</ele>
        <time>2016-07-12T14:29:53Z</time>
      </trkpt>
      <trkpt lat="41.436417" lon="-4.624167">
        <ele>874.0</ele>
        <time>2016-07-12T14:29:54Z</time>
      </trkpt>
      <trkpt lat="41.436450" lon="-4.624167">
        <ele>873.0</ele>
        <time>2016-07-12T14:29:55Z</time>
      </trkpt>
      <trkpt lat="41.436500" lon="-4.624167">
        <ele>873.0</ele>
        <time>2016-07-12T14:29:56Z</time>
      </trkpt>
      <trkpt lat="41.436567" lon="-4.624150">
        <ele>875.0</ele>
        <time>2016-07-12T14:29:57Z</time>
      </trkpt>
      <trkpt lat="41.436617" lon="-4.624150">
        <ele>878.0</ele>
        <time>2016-07-12T14:29:58Z</time>
      </trkpt>
      <trkpt lat="41.436667" lon="-4.624150">
        <ele>881.0</ele>
        <time>2016-07-12T14:29:59Z</time>
      </trkpt>
      <trkpt lat="41.436717" lon="-4.624133">
        <ele>884.0</ele>
        <time>2016-07-12T14:30:00Z</time>
      </trkpt>
      <trkpt lat="41.436750" lon="-4.624100">
        <ele>887.0</ele>
        <time>2016-07-12T14:30:01Z</time>
      </trkpt>
      <trkpt lat="41.436800" lon="-4.624083">
        <ele>890.0</ele>
        <time>2016-07-12T14:30:02Z</time>
      </trkpt>
      <trkpt lat="41.436867" lon="-4.624067">
        <ele>893.0</ele>
        <time>2016-07-12T14:30:03Z</time>
      </trkpt>
      <trkpt lat="41.436917" lon="-4.624067">
        <ele>897.0</ele>
        <time>2016-07-12T14:30:04Z</time>
      </trkpt>
      <trkpt lat="41.436950" lon="-4.624050">
        <ele>901.0</ele>
        <time>2016-07-12T14:30:05Z</time>
      </trkpt>
      <trkpt lat="41.436983" lon="-4.624050">
        <ele>903.0</ele>
        <time>2016-07-12T14:30:06Z</time>
      </trkpt>
      <trkpt lat="41.437017" lon="-4.624017">
        <ele>904.0</ele>
        <time>2016-07-12T14:30:07Z</time>
      </trkpt>
      <trkpt lat="41.437067" lon="-4.623967">
        <ele>904.0</ele>
        <time>2016-07-12T14:30:08Z</time>
      </trkpt>
      <trkpt lat="41.437100" lon="-4.623883">
        <ele>905.0</ele>
        <time>2016-07-12T14:30:09Z</time>
      </trkpt>
      <trkpt lat="41.437117" lon="-4.623767">
        <ele>906.0</ele>
        <time>2016-07-12T14:30:10Z</time>
      </trkpt>
      <trkpt lat="41.437083" lon="-4.623650">
        <ele>907.0</ele>
        <time>2016-07-12T14:30:11Z</time>
      </trkpt>
      <trkpt lat="41.437017" lon="-4.623517">
        <ele>908.0</ele>
        <time>2016-07-12T14:30:12Z</time>
      </trkpt>
      <trkpt lat="41.436900" lon="-4.623450">
        <ele>909.0</ele>
        <time>2016-07-12T14:30:13Z</time>
      </trkpt>
      <trkpt lat="41.436767" lon="-4.623467">
        <ele>910.0</ele>
        <time>2016-07-12T14:30:14Z</time>
      </trkpt>
      <trkpt lat="41.436667" lon="-4.623550">
        <ele>913.0</ele>
        <time>2016-07-12T14:30:15Z</time>
      </trkpt>
      <trkpt lat="41.436617" lon="-4.623683">
        <ele>915.0</ele>
        <time>2016-07-12T14:30:16Z</time>
      </trkpt>
      <trkpt lat="41.436633" lon="-4.623783">
        <ele>918.0</ele>
        <time>2016-07-12T14:30:17Z</time>
      </trkpt>
      <trkpt lat="41.436650" lon="-4.623850">
        <ele>923.0</ele>
        <time>2016-07-12T14:30:18Z</time>
      </trkpt>
      <trkpt lat="41.436683" lon="-4.623883">
        <ele>927.0</ele>
        <time>2016-07-12T14:30:19Z</time>
      </trkpt>
      <trkpt lat="41.436700" lon="-4.623900">
        <ele>929.0</ele>
        <time>2016-07-12T14:30:20Z</time>
      </trkpt>
      <trkpt lat="41.436717" lon="-4.623917">
        <ele>929.0</ele>
        <time>2016-07-12T14:30:21Z</time>
      </trkpt>
      <trkpt lat="41.436733" lon="-4.623950">
        <ele>928.0</ele>
        <time>2016-07-12T14:30:22Z</time>
      </trkpt>
      <trkpt lat="41.436767" lon="-4.623967">
        <ele>926.0</ele>
        <time>2016-07-12T14:30:23Z</time>
      </trkpt>
      <trkpt lat="41.436800" lon="-4.623917">
        <ele>925.0</ele>
        <time>2016-07-12T14:30:24Z</time>
      </trkpt>
      <trkpt lat="41.436817" lon="-4.623833">
        <ele>921.0</ele>
        <time>2016-07-12T14:30:25Z</time>
      </trkpt>
      <trkpt lat="41.436817" lon="-4.623700">
        <ele>919.0</ele>
        <time>2016-07-12T14:30:26Z</time>
      </trkpt>
      <trkpt lat="41.436767" lon="-4.623550">
        <ele>918.0</ele>
        <time>2016-07-12T14:30:27Z</time>
      </trkpt>
      <trkpt lat="41.436683" lon="-4.623450">
        <ele>918.0</ele>
        <time>2016-07-12T14:30:28Z</time>
      </trkpt>
      <trkpt lat="41.436600" lon="-4.623383">
        <ele>918.0</ele>
        <time>2016-07-12T14:30:29Z</time>
      </trkpt>
      <trkpt lat="41.436500" lon="-4.623333">
        <ele>918.0</ele>
        <time>2016-07-12T14:30:30Z</time>
      </trkpt>
      <trkpt lat="41.436400" lon="-4.623283">
        <ele>917.0</ele>
        <time>2016-07-12T14:30:31Z</time>
      </trkpt>
      <trkpt lat="41.436283" lon="-4.623250">
        <ele>916.0</ele>
        <time>2016-07-12T14:30:32Z</time>
      </trkpt>
      <trkpt lat="41.436150" lon="-4.623250">
        <ele>917.0</ele>
        <time>2016-07-12T14:30:33Z</time>
      </trkpt>
      <trkpt lat="41.436050" lon="-4.623317">
        <ele>917.0</ele>
        <time>2016-07-12T14:30:34Z</time>
      </trkpt>
      <trkpt lat="41.435983" lon="-4.623400">
        <ele>918.0</ele>
        <time>2016-07-12T14:30:35Z</time>
      </trkpt>
      <trkpt lat="41.435950" lon="-4.623500">
        <ele>920.0</ele>
        <time>2016-07-12T14:30:36Z</time>
      </trkpt>
      <trkpt lat="41.435950" lon="-4.623600">
        <ele>923.0</ele>
        <time>2016-07-12T14:30:37Z</time>
      </trkpt>
      <trkpt lat="41.435933" lon="-4.623683">
        <ele>926.0</ele>
        <time>2016-07-12T14:30:38Z</time>
      </trkpt>
      <trkpt lat="41.435950" lon="-4.623767">
        <ele>929.0</ele>
        <time>2016-07-12T14:30:39Z</time>
      </trkpt>
      <trkpt lat="41.435967" lon="-4.623833">
        <ele>931.0</ele>
        <time>2016-07-12T14:30:40Z</time>
      </trkpt>
      <trkpt lat="41.435967" lon="-4.623883">
        <ele>934.0</ele>
        <time>2016-07-12T14:30:41Z</time>
      </trkpt>
      <trkpt lat="41.435967" lon="-4.623917">
        <ele>935.0</ele>
        <time>2016-07-12T14:30:42Z</time>
      </trkpt>
      <trkpt lat="41.435983" lon="-4.623967">
        <ele>934.0</ele>
        <time>2016-07-12T14:30:43Z</time>
      </trkpt>
      <trkpt lat="41.436000" lon="-4.624033">
        <ele>931.0</ele>
        <time>2016-07-12T14:30:44Z</time>
      </trkpt>
      <trkpt lat="41.436033" lon="-4.624100">
        <ele>929.0</ele>
        <time>2016-07-12T14:30:45Z</time>
      </trkpt>
      <trkpt lat="41.436067" lon="-4.624150">
        <ele>927.0</ele>
        <time>2016-07-12T14:30:46Z</time>
      </trkpt>
      <trkpt lat="41.436083" lon="-4.624200">
        <ele>926.0</ele>
        <time>2016-07-12T14:30:47Z</time>
      </trkpt>
      <trkpt lat="41.436117" lon="-4.624250">
        <ele>924.0</ele>
        <time>2016-07-12T14:30:48Z</time>
      </trkpt>
      <trkpt lat="41.436150" lon="-4.624300">
        <ele>923.0</ele>
        <time>2016-07-12T14:30:49Z</time>
      </trkpt>
      <trkpt lat="41.436200" lon="-4.624350">
        <ele>923.0</ele>
        <time>2016-07-12T14:30:50Z</time>
      </trkpt>
      <trkpt lat="41.436233" lon="-4.624400">
        <ele>924.0</ele>
        <time>2016-07-12T14:30:51Z</time>
      </trkpt>
      <trkpt lat="41.436267" lon="-4.624433">
        <ele>926.0</ele>
        <time>2016-07-12T14:30:52Z</time>
      </trkpt>
      <trkpt lat="41.436283" lon="-4.624467">
        <ele>926.0</ele>
        <time>2016-07-12T14:30:53Z</time>
      </trkpt>
      <trkpt lat="41.436300" lon="-4.624500">
        <ele>926.0</ele>
        <time>2016-07-12T14:30:54Z</time>
      </trkpt>
      <trkpt lat="41.436333" lon="-4.624517">
        <ele>925.0</ele>
        <time>2016-07-12T14:30:55Z</time>
      </trkpt>
      <trkpt lat="41.436383" lon="-4.624533">
        <ele>925.0</ele>
        <time>2016-07-12T14:30:56Z</time>
      </trkpt>
      <trkpt lat="41.436433" lon="-4.624550">
        <ele>927.0</ele>
        <time>2016-07-12T14:30:57Z</time>
      </trkpt>
      <trkpt lat="41.436467" lon="-4.624550">
        <ele>930.0</ele>
        <time>2016-07-12T14:30:58Z</time>
      </trkpt>
      <trkpt lat="41.436483" lon="-4.624550">
        <ele>933.0</ele>
        <time>2016-07-12T14:30:59Z</time>
      </trkpt>
      <trkpt lat="41.436517" lon="-4.624550">
        <ele>934.0</ele>
        <time>2016-07-12T14:31:00Z</time>
      </trkpt>
      <trkpt lat="41.436550" lon="-4.624550">
        <ele>935.0</ele>
        <time>2016-07-12T14:31:01Z</time>
      </trkpt>
      <trkpt lat="41.436583" lon="-4.624550">
        <ele>936.0</ele>
        <time>2016-07-12T14:31:02Z</time>
      </trkpt>
      <trkpt lat="41.436633" lon="-4.624550">
        <ele>938.0</ele>
        <time>2016-07-12T14:31:03Z</time>
      </trkpt>
      <trkpt lat="41.436683" lon="-4.624567">
        <ele>941.0</ele>
        <time>2016-07-12T14:31:04Z</time>
      </trkpt>
      <trkpt lat="41.436717" lon="-4.624567">
        <ele>945.0</ele>
        <time>2016-07-12T14:31:05Z</time>
      </trkpt>
      <trkpt lat="41.436750" lon="-4.624567">
        <ele>950.0</ele>
        <time>2016-07-12T14:31:06Z</time>
      </trkpt>
      <trkpt lat="41.436767" lon="-4.624550">
        <ele>953.0</ele>
        <time>2016-07-12T14:31:07Z</time>
      </trkpt>
      <trkpt lat="41.436783" lon="-4.624550">
        <ele>956.0</ele>
        <time>2016-07-12T14:31:08Z</time>
      </trkpt>
      <trkpt lat="41.436817" lon="-4.624550">
        <ele>957.0</ele>
        <time>2016-07-12T14:31:09Z</time>
      </trkpt>
      <trkpt lat="41.436850" lon="-4.624550">
        <ele>959.0</ele>
        <time>2016-07-12T14:31:10Z</time>
      </trkpt>
      <trkpt lat="41.436883" lon="-4.624567">
        <ele>960.0</ele>
        <time>2016-07-12T14:31:11Z</time>
      </trkpt>
      <trkpt lat="41.436917" lon="-4.624567">
        <ele>962.0</ele>
        <time>2016-07-12T14:31:12Z</time>
      </trkpt>
      <trkpt lat="41.436950" lon="-4.624550">
        <ele>963.0</ele>
        <time>2016-07-12T14:31:13Z</time>
      </trkpt>
      <trkpt lat="41.436967" lon="-4.624550">
        <ele>965.0</ele>
        <time>2016-07-12T14:31:14Z</time>
      </trkpt>
      <trkpt lat="41.437017" lon="-4.624550">
        <ele>966.0</ele>
        <time>2016-07-12T14:31:15Z</time>
      </trkpt>
      <trkpt lat="41.437067" lon="-4.624533">
        <ele>967.0</ele>
        <time>2016-07-12T14:31:16Z</time>
      </trkpt>
      <trkpt lat="41.437100" lon="-4.624517">
        <ele>970.0</ele>
        <time>2016-07-12T14:31:17Z</time>
      </trkpt>
      <trkpt lat="41.437150" lon="-4.624483">
        <ele>972.0</ele>
        <time>2016-07-12T14:31:18Z</time>
      </trkpt>
      <trkpt lat="41.437183" lon="-4.624433">
        <ele>975.0</ele>
        <time>2016-07-12T14:31:19Z</time>
      </trkpt>
      <trkpt lat="41.437217" lon="-4.624400">
        <ele>977.0</ele>
        <time>2016-07-12T14:31:20Z</time>
      </trkpt>
      <trkpt lat="41.437250" lon="-4.624383">
        <ele>980.0</ele>
        <time>2016-07-12T14:31:21Z</time>
      </trkpt>
      <trkpt lat="41.437300" lon="-4.624350">
        <ele>983.0</ele>
        <time>2016-07-12T14:31:22Z</time>
      </trkpt>
      <trkpt lat="41.437317" lon="-4.624300">
        <ele>988.0</ele>
        <time>2016-07-12T14:31:23Z</time>
      </trkpt>
      <trkpt lat="41.437333" lon="-4.624250">
        <ele>992.0</ele>
        <time>2016-07-12T14:31:24Z</time>
      </trkpt>
      <trkpt lat="41.437350" lon="-4.624183">
        <ele>995.0</ele>
        <time>2016-07-12T14:31:25Z</time>
      </trkpt>
      <trkpt lat="41.437350" lon="-4.624117">
        <ele>998.0</ele>
        <time>2016-07-12T14:31:26Z</time>
      </trkpt>
      <trkpt lat="41.437367" lon="-4.624033">
        <ele>999.0</ele>
        <time>2016-07-12T14:31:27Z</time>
      </trkpt>
      <trkpt lat="41.437350" lon="-4.623950">
        <ele>1000.0</ele>
        <time>2016-07-12T14:31:28Z</time>
      </trkpt>
      <trkpt lat="41.437333" lon="-4.623817">
        <ele>1000.0</ele>
        <time>2016-07-12T14:31:29Z</time>
      </trkpt>
      <trkpt lat="41.437267" lon="-4.623683">
        <ele>1000.0</ele>
        <time>2016-07-12T14:31:30Z</time>
      </trkpt>
      <trkpt lat="41.437183" lon="-4.623533">
        <ele>1000.0</ele>
        <time>2016-07-12T14:31:31Z</time>
      </trkpt>
      <trkpt lat="41.437050" lon="-4.623433">
        <ele>1001.0</ele>
        <time>2016-07-12T14:31:32Z</time>
      </trkpt>
      <trkpt lat="41.436917" lon="-4.623417">
        <ele>1003.0</ele>
        <time>2016-07-12T14:31:33Z</time>
      </trkpt>
      <trkpt lat="41.436800" lon="-4.623467">
        <ele>1004.0</ele>
        <time>2016-07-12T14:31:34Z</time>
      </trkpt>
      <trkpt lat="41.436750" lon="-4.623567">
        <ele>1005.0</ele>
        <time>2016-07-12T14:31:35Z</time>
      </trkpt>
      <trkpt lat="41.436733" lon="-4.623650">
        <ele>1008.0</ele>
        <time>2016-07-12T14:31:36Z</time>
      </trkpt>
      <trkpt lat="41.436733" lon="-4.623717">
        <ele>1014.0</ele>
        <time>2016-07-12T14:31:37Z</time>
      </trkpt>
      <trkpt lat="41.436733" lon="-4.623733">
        <ele>1020.0</ele>
        <time>2016-07-12T14:31:38Z</time>
      </trkpt>
      <trkpt lat="41.436717" lon="-4.623750">
        <ele>1024.0</ele>
        <time>2016-07-12T14:31:39Z</time>
      </trkpt>
      <trkpt lat="41.436700" lon="-4.623783">
        <ele>1026.0</ele>
        <time>2016-07-12T14:31:40Z</time>
      </trkpt>
      <trkpt lat="41.436717" lon="-4.623817">
        <ele>1027.0</ele>
        <time>2016-07-12T14:31:41Z</time>
      </trkpt>
      <trkpt lat="41.436733" lon="-4.623833">
        <ele>1028.0</ele>
        <time>2016-07-12T14:31:42Z</time>
      </trkpt>
      <trkpt lat="41.436767" lon="-4.623817">
        <ele>1030.0</ele>
        <time>2016-07-12T14:31:43Z</time>
      </trkpt>
      <trkpt lat="41.436800" lon="-4.623800">
        <ele>1032.0</ele>
        <time>2016-07-12T14:31:44Z</time>
      </trkpt>
      <trkpt lat="41.436817" lon="-4.623800">
        <ele>1034.0</ele>
        <time>2016-07-12T14:31:45Z</time>
      </trkpt>
      <trkpt lat="41.436833" lon="-4.623817">
        <ele>1035.0</ele>
        <time>2016-07-12T14:31:46Z</time>
      </trkpt>
      <trkpt lat="41.436867" lon="-4.623817">
        <ele>1035.0</ele>
        <time>2016-07-12T14:31:47Z</time>
      </trkpt>
      <trkpt lat="41.436917" lon="-4.623817">
        <ele>1036.0</ele>
        <time>2016-07-12T14:31:48Z</time>
      </trkpt>
      <trkpt lat="41.436967" lon="-4.623817">
        <ele>1036.0</ele>
        <time>2016-07-12T14:31:49Z</time>
      </trkpt>
      <trkpt lat="41.437017" lon="-4.623850">
        <ele>1038.0</ele>
        <time>2016-07-12T14:31:50Z</time>
      </trkpt>
      <trkpt lat="41.437050" lon="-4.623883">
        <ele>1043.0</ele>
        <time>2016-07-12T14:31:51Z</time>
      </trkpt>
      <trkpt lat="41.437067" lon="-4.623900">
        <ele>1048.0</ele>
        <time>2016-07-12T14:31:52Z</time>
      </trkpt>
      <trkpt lat="41.437083" lon="-4.623883">
        <ele>1051.0</ele>
        <time>2016-07-12T14:31:53Z</time>
      </trkpt>
      <trkpt lat="41.437083" lon="-4.623867">
        <ele>1053.0</ele>
        <time>2016-07-12T14:31:54Z</time>
      </trkpt>
      <trkpt lat="41.437100" lon="-4.623850">
        <ele>1053.0</ele>
        <time>2016-07-12T14:31:55Z</time>
      </trkpt>
      <trkpt lat="41.437133" lon="-4.623850">
        <ele>1053.0</ele>
        <time>2016-07-12T14:31:56Z</time>
      </trkpt>
      <trkpt lat="41.437167" lon="-4.623867">
        <ele>1052.0</ele>
        <time>2016-07-12T14:31:57Z</time>
      </trkpt>
      <trkpt lat="41.437217" lon="-4.623883">
        <ele>1051.0</ele>
        <time>2016-07-12T14:31:58Z</time>
      </trkpt>
      <trkpt lat="41.437250" lon="-4.623917">
        <ele>1052.0</ele>
        <time>2016-07-12T14:31:59Z</time>
      </trkpt>
      <trkpt lat="41.437267" lon="-4.623933">
        <ele>1052.0</ele>
        <time>2016-07-12T14:32:00Z</time>
      </trkpt>
      <trkpt lat="41.437283" lon="-4.623967">
        <ele>1053.0</ele>
        <time>2016-07-12T14:32:01Z</time>
      </trkpt>
      <trkpt lat="41.437300" lon="-4.623967">
        <ele>1052.0</ele>
        <time>2016-07-12T14:32:02Z</time>
      </trkpt>
      <trkpt lat="41.437333" lon="-4.623983">
        <ele>1050.0</ele>
        <time>2016-07-12T14:32:03Z</time>
      </trkpt>
      <trkpt lat="41.437400" lon="-4.623967">
        <ele>1049.0</ele>
        <time>2016-07-12T14:32:04Z</time>
      </trkpt>
      <trkpt lat="41.437450" lon="-4.623967">
        <ele>1050.0</ele>
        <time>2016-07-12T14:32:05Z</time>
      </trkpt>
      <trkpt lat="41.437483" lon="-4.623950">
        <ele>1053.0</ele>
        <time>2016-07-12T14:32:06Z</time>
      </trkpt>
      <trkpt lat="41.437517" lon="-4.623950">
        <ele>1054.0</ele>
        <time>2016-07-12T14:32:07Z</time>
      </trkpt>
      <trkpt lat="41.437550" lon="-4.623950">
        <ele>1053.0</ele>
        <time>2016-07-12T14:32:08Z</time>
      </trkpt>
      <trkpt lat="41.437583" lon="-4.623950">
        <ele>1051.0</ele>
        <time>2016-07-12T14:32:09Z</time>
      </trkpt>
      <trkpt lat="41.437633" lon="-4.623950">
        <ele>1050.0</ele>
        <time>2016-07-12T14:32:10Z</time>
      </trkpt>
      <trkpt lat="41.437667" lon="-4.623917">
        <ele>1049.0</ele>
        <time>2016-07-12T14:32:11Z</time>
      </trkpt>
      <trkpt lat="41.437700" lon="-4.623867">
        <ele>1049.0</ele>
        <time>2016-07-12T14:32:12Z</time>
      </trkpt>
      <trkpt lat="41.437717" lon="-4.623817">
        <ele>1049.0</ele>
        <time>2016-07-12T14:32:13Z</time>
      </trkpt>
      <trkpt lat="41.437733" lon="-4.623767">
        <ele>1048.0</ele>
        <time>2016-07-12T14:32:14Z</time>
      </trkpt>
      <trkpt lat="41.437750" lon="-4.623700">
        <ele>1047.0</ele>
        <time>2016-07-12T14:32:15Z</time>
      </trkpt>
      <trkpt lat="41.437750" lon="-4.623600">
        <ele>1045.0</ele>
        <time>2016-07-12T14:32:16Z</time>
      </trkpt>
      <trkpt lat="41.437750" lon="-4.623483">
        <ele>1043.0</ele>
        <time>2016-07-12T14:32:17Z</time>
      </trkpt>
      <trkpt lat="41.437717" lon="-4.623350">
        <ele>1042.0</ele>
        <time>2016-07-12T14:32:18Z</time>
      </trkpt>
      <trkpt lat="41.437650" lon="-4.623200">
        <ele>1040.0</ele>
        <time>2016-07-12T14:32:19Z</time>
      </trkpt>
      <trkpt lat="41.437567" lon="-4.623083">
        <ele>1039.0</ele>
        <time>2016-07-12T14:32:20Z</time>
      </trkpt>
      <trkpt lat="41.437450" lon="-4.622983">
        <ele>1038.0</ele>
        <time>2016-07-12T14:32:21Z</time>
      </trkpt>
      <trkpt lat="41.437317" lon="-4.622933">
        <ele>1036.0</ele>
        <time>2016-07-12T14:32:22Z</time>
      </trkpt>
      <trkpt lat="41.437183" lon="-4.622883">
        <ele>1035.0</ele>
        <time>2016-07-12T14:32:23Z</time>
      </trkpt>
      <trkpt lat="41.437067" lon="-4.622883">
        <ele>1033.0</ele>
        <time>2016-07-12T14:32:24Z</time>
      </trkpt>
      <trkpt lat="41.436933" lon="-4.622917">
        <ele>1031.0</ele>
        <time>2016-07-12T14:32:25Z</time>
      </trkpt>
      <trkpt lat="41.436833" lon="-4.622983">
        <ele>1030.0</ele>
        <time>2016-07-12T14:32:26Z</time>
      </trkpt>
      <trkpt lat="41.436750" lon="-4.623067">
        <ele>1028.0</ele>
        <time>2016-07-12T14:32:27Z</time>
      </trkpt>
      <trkpt lat="41.436667" lon="-4.623167">
        <ele>1028.0</ele>
        <time>2016-07-12T14:32:28Z</time>
      </trkpt>
      <trkpt lat="41.436600" lon="-4.623233">
        <ele>1028.0</ele>
        <time>2016-07-12T14:32:29Z</time>
      </trkpt>
      <trkpt lat="41.436533" lon="-4.623317">
        <ele>1028.0</ele>
        <time>2016-07-12T14:32:30Z</time>
      </trkpt>
      <trkpt lat="41.436467" lon="-4.623400">
        <ele>1027.0</ele>
        <time>2016-07-12T14:32:31Z</time>
      </trkpt>
      <trkpt lat="41.436433" lon="-4.623500">
        <ele>1025.0</ele>
        <time>2016-07-12T14:32:32Z</time>
      </trkpt>
      <trkpt lat="41.436400" lon="-4.623600">
        <ele>1024.0</ele>
        <time>2016-07-12T14:32:33Z</time>
      </trkpt>
      <trkpt lat="41.436383" lon="-4.623700">
        <ele>1025.0</ele>
        <time>2016-07-12T14:32:34Z</time>
      </trkpt>
      <trkpt lat="41.436383" lon="-4.623800">
        <ele>1027.0</ele>
        <time>2016-07-12T14:32:35Z</time>
      </trkpt>
      <trkpt lat="41.436383" lon="-4.623867">
        <ele>1029.0</ele>
        <time>2016-07-12T14:32:36Z</time>
      </trkpt>
      <trkpt lat="41.436367" lon="-4.623917">
        <ele>1033.0</ele>
        <time>2016-07-12T14:32:37Z</time>
      </trkpt>
      <trkpt lat="41.436367" lon="-4.623983">
        <ele>1036.0</ele>
        <time>2016-07-12T14:32:38Z</time>
      </trkpt>
      <trkpt lat="41.436350" lon="-4.624033">
        <ele>1039.0</ele>
        <time>2016-07-12T14:32:39Z</time>
      </trkpt>
      <trkpt lat="41.436350" lon="-4.624083">
        <ele>1043.0</ele>
        <time>2016-07-12T14:32:40Z</time>
      </trkpt>
      <trkpt lat="41.436350" lon="-4.624117">
        <ele>1045.0</ele>
        <time>2016-07-12T14:32:41Z</time>
      </trkpt>
      <trkpt lat="41.436350" lon="-4.624150">
        <ele>1047.0</ele>
        <time>2016-07-12T14:32:42Z</time>
      </trkpt>
      <trkpt lat="41.436333" lon="-4.624217">
        <ele>1048.0</ele>
        <time>2016-07-12T14:32:43Z</time>
      </trkpt>
      <trkpt lat="41.436333" lon="-4.624300">
        <ele>1048.0</ele>
        <time>2016-07-12T14:32:44Z</time>
      </trkpt>
      <trkpt lat="41.436350" lon="-4.624367">
        <ele>1050.0</ele>
        <time>2016-07-12T14:32:45Z</time>
      </trkpt>
      <trkpt lat="41.436383" lon="-4.624417">
        <ele>1053.0</ele>
        <time>2016-07-12T14:32:46Z</time>
      </trkpt>
      <trkpt lat="41.436417" lon="-4.624417">
        <ele>1056.0</ele>
        <time>2016-07-12T14:32:47Z</time>
      </trkpt>
      <trkpt lat="41.436450" lon="-4.624400">
        <ele>1059.0</ele>
        <time>2016-07-12T14:32:48Z</time>
      </trkpt>
      <trkpt lat="41.436467" lon="-4.624400">
        <ele>1062.0</ele>
        <time>2016-07-12T14:32:49Z</time>
      </trkpt>
      <trkpt lat="41.436500" lon="-4.624417">
        <ele>1063.0</ele>
        <time>2016-07-12T14:32:50Z</time>
      </trkpt>
      <trkpt lat="41.436533" lon="-4.624433">
        <ele>1064.0</ele>
        <time>2016-07-12T14:32:51Z</time>
      </trkpt>
      <trkpt lat="41.436567" lon="-4.624450">
        <ele>1065.0</ele>
        <time>2016-07-12T14:32:52Z</time>
      </trkpt>
      <trkpt lat="41.436600" lon="-4.624467">
        <ele>1067.0</ele>
        <time>2016-07-12T14:32:53Z</time>
      </trkpt>
      <trkpt lat="41.436633" lon="-4.624467">
        <ele>1069.0</ele>
        <time>2016-07-12T14:32:54Z</time>
      </trkpt>
      <trkpt lat="41.436667" lon="-4.624450">
        <ele>1070.0</ele>
        <time>2016-07-12T14:32:55Z</time>
      </trkpt>
      <trkpt lat="41.436700" lon="-4.624417">
        <ele>1071.0</ele>
        <time>2016-07-12T14:32:56Z</time>
      </trkpt>
      <trkpt lat="41.436750" lon="-4.624383">
        <ele>1072.0</ele>
        <time>2016-07-12T14:32:57Z</time>
      </trkpt>
      <trkpt lat="41.436783" lon="-4.624317">
        <ele>1072.0</ele>
        <time>2016-07-12T14:32:58Z</time>
      </trkpt>
      <trkpt lat="41.436817" lon="-4.624233">
        <ele>1071.0</ele>
        <time>2016-07-12T14:32:59Z</time>
      </trkpt>
      <trkpt lat="41.436817" lon="-4.624100">
        <ele>1069.0</ele>
        <time>2016-07-12T14:33:00Z</time>
      </trkpt>
      <trkpt lat="41.436783" lon="-4.623967">
        <ele>1067.0</ele>
        <time>2016-07-12T14:33:01Z</time>
      </trkpt>
      <trkpt lat="41.436717" lon="-4.623817">
        <ele>1066.0</ele>
        <time>2016-07-12T14:33:02Z</time>
      </trkpt>
      <trkpt lat="41.436617" lon="-4.623717">
        <ele>1064.0</ele>
        <time>2016-07-12T14:33:03Z</time>
      </trkpt>
      <trkpt lat="41.436500" lon="-4.623667">
        <ele>1062.0</ele>
        <time>2016-07-12T14:33:04Z</time>
      </trkpt>
      <trkpt lat="41.436383" lon="-4.623667">
        <ele>1060.0</ele>
        <time>2016-07-12T14:33:05Z</time>
      </trkpt>
      <trkpt lat="41.436283" lon="-4.623717">
        <ele>1060.0</ele>
        <time>2016-07-12T14:33:06Z</time>
      </trkpt>
      <trkpt lat="41.436217" lon="-4.623783">
        <ele>1063.0</ele>
        <time>2016-07-12T14:33:07Z</time>
      </trkpt>
      <trkpt lat="41.436150" lon="-4.623817">
        <ele>1066.0</ele>
        <time>2016-07-12T14:33:08Z</time>
      </trkpt>
      <trkpt lat="41.436100" lon="-4.623833">
        <ele>1068.0</ele>
        <time>2016-07-12T14:33:09Z</time>
      </trkpt>
      <trkpt lat="41.436050" lon="-4.623850">
        <ele>1068.0</ele>
        <time>2016-07-12T14:33:10Z</time>
      </trkpt>
      <trkpt lat="41.436017" lon="-4.623900">
        <ele>1068.0</ele>
        <time>2016-07-12T14:33:11Z</time>
      </trkpt>
      <trkpt lat="41.435983" lon="-4.623983">
        <ele>1068.0</ele>
        <time>2016-07-12T14:33:12Z</time>
      </trkpt>
      <trkpt lat="41.435950" lon="-4.624050">
        <ele>1069.0</ele>
        <time>2016-07-12T14:33:13Z</time>
      </trkpt>
      <trkpt lat="41.435917" lon="-4.624133">
        <ele>1070.0</ele>
        <time>2016-07-12T14:33:14Z</time>
      </trkpt>
      <trkpt lat="41.435900" lon="-4.624217">
        <ele>1072.0</ele>
        <time>2016-07-12T14:33:15Z</time>
      </trkpt>
      <trkpt lat="41.435900" lon="-4.624283">
        <ele>1074.0</ele>
        <time>2016-07-12T14:33:16Z</time>
      </trkpt>
      <trkpt lat="41.435917" lon="-4.624350">
        <ele>1074.0</ele>
        <time>2016-07-12T14:33:17Z</time>
      </trkpt>
      <trkpt lat="41.435933" lon="-4.624400">
        <ele>1075.0</ele>
        <time>2016-07-12T14:33:18Z</time>
      </trkpt>
      <trkpt lat="41.435917" lon="-4.624467">
        <ele>1076.0</ele>
        <time>2016-07-12T14:33:19Z</time>
      </trkpt>
      <trkpt lat="41.435917" lon="-4.624533">
        <ele>1075.0</ele>
        <time>2016-07-12T14:33:20Z</time>
      </trkpt>
      <trkpt lat="41.435917" lon="-4.624600">
        <ele>1075.0</ele>
        <time>2016-07-12T14:33:21Z</time>
      </trkpt>
      <trkpt lat="41.435933" lon="-4.624650">
        <ele>1075.0</ele>
        <time>2016-07-12T14:33:22Z</time>
      </trkpt>
      <trkpt lat="41.435950" lon="-4.624667">
        <ele>1075.0</ele>
        <time>2016-07-12T14:33:23Z</time>
      </trkpt>
      <trkpt lat="41.435967" lon="-4.624683">
        <ele>1077.0</ele>
        <time>2016-07-12T14:33:24Z</time>
      </trkpt>
      <trkpt lat="41.435983" lon="-4.624700">
        <ele>1079.0</ele>
        <time>2016-07-12T14:33:25Z</time>
      </trkpt>
      <trkpt lat="41.436000" lon="-4.624700">
        <ele>1080.0</ele>
        <time>2016-07-12T14:33:26Z</time>
      </trkpt>
      <trkpt lat="41.436000" lon="-4.624700">
        <ele>1080.0</ele>
        <time>2016-07-12T14:33:27Z</time>
      </trkpt>
      <trkpt lat="41.436000" lon="-4.624733">
        <ele>1079.0</ele>
        <time>2016-07-12T14:33:28Z</time>
      </trkpt>
      <trkpt lat="41.436017" lon="-4.624767">
        <ele>1079.0</ele>
        <time>2016-07-12T14:33:29Z</time>
      </trkpt>
      <trkpt lat="41.436033" lon="-4.624800">
        <ele>1078.0</ele>
        <time>2016-07-12T14:33:30Z</time>
      </trkpt>
      <trkpt lat="41.436067" lon="-4.624817">
        <ele>1079.0</ele>
        <time>2016-07-12T14:33:31Z</time>
      </trkpt>
      <trkpt lat="41.436100" lon="-4.624783">
        <ele>1079.0</ele>
        <time>2016-07-12T14:33:32Z</time>
      </trkpt>
      <trkpt lat="41.436117" lon="-4.624700">
        <ele>1078.0</ele>
        <time>2016-07-12T14:33:33Z</time>
      </trkpt>
      <trkpt lat="41.436133" lon="-4.624617">
        <ele>1077.0</ele>
        <time>2016-07-12T14:33:34Z</time>
      </trkpt>
      <trkpt lat="41.436167" lon="-4.624567">
        <ele>1076.0</ele>
        <time>2016-07-12T14:33:35Z</time>
      </trkpt>
      <trkpt lat="41.436200" lon="-4.624517">
        <ele>1077.0</ele>
        <time>2016-07-12T14:33:36Z</time>
      </trkpt>
      <trkpt lat="41.436250" lon="-4.624483">
        <ele>1078.0</ele>
        <time>2016-07-12T14:33:37Z</time>
      </trkpt>
      <trkpt lat="41.436283" lon="-4.624450">
        <ele>1079.0</ele>
        <time>2016-07-12T14:33:38Z</time>
      </trkpt>
      <trkpt lat="41.436317" lon="-4.624433">
        <ele>1081.0</ele>
        <time>2016-07-12T14:33:39Z</time>
      </trkpt>
      <trkpt lat="41.436350" lon="-4.624400">
        <ele>1082.0</ele>
        <time>2016-07-12T14:33:40Z</time>
      </trkpt>
      <trkpt lat="41.436400" lon="-4.624383">
        <ele>1083.0</ele>
        <time>2016-07-12T14:33:41Z</time>
      </trkpt>
      <trkpt lat="41.436450" lon="-4.624367">
        <ele>1083.0</ele>
        <time>2016-07-12T14:33:42Z</time>
      </trkpt>
      <trkpt lat="41.436500" lon="-4.624333">
        <ele>1081.0</ele>
        <time>2016-07-12T14:33:43Z</time>
      </trkpt>
      <trkpt lat="41.436533" lon="-4.624300">
        <ele>1080.0</ele>
        <time>2016-07-12T14:33:44Z</time>
      </trkpt>
      <trkpt lat="41.436583" lon="-4.624267">
        <ele>1077.0</ele>
        <time>2016-07-12T14:33:45Z</time>
      </trkpt>
      <trkpt lat="41.436650" lon="-4.624250">
        <ele>1075.0</ele>
        <time>2016-07-12T14:33:46Z</time>
      </trkpt>
      <trkpt lat="41.436700" lon="-4.624233">
        <ele>1074.0</ele>
        <time>2016-07-12T14:33:47Z</time>
      </trkpt>
      <trkpt lat="41.436767" lon="-4.624217">
        <ele>1073.0</ele>
        <time>2016-07-12T14:33:48Z</time>
      </trkpt>
      <trkpt lat="41.436817" lon="-4.624200">
        <ele>1072.0</ele>
        <time>2016-07-12T14:33:49Z</time>
      </trkpt>
      <trkpt lat="41.436850" lon="-4.624183">
        <ele>1071.0</ele>
        <time>2016-07-12T14:33:50Z</time>
      </trkpt>
      <trkpt lat="41.436917" lon="-4.624150">
        <ele>1069.0</ele>
        <time>2016-07-12T14:33:51Z</time>
      </trkpt>
      <trkpt lat="41.436967" lon="-4.624100">
        <ele>1067.0</ele>
        <time>2016-07-12T14:33:52Z</time>
      </trkpt>
      <trkpt lat="41.437033" lon="-4.624083">
        <ele>1065.0</ele>
        <time>2016-07-12T14:33:53Z</time>
      </trkpt>
      <trkpt lat="41.437083" lon="-4.624067">
        <ele>1063.0</ele>
        <time>2016-07-12T14:33:54Z</time>
      </trkpt>
      <trkpt lat="41.437150" lon="-4.624050">
        <ele>1062.0</ele>
        <time>2016-07-12T14:33:55Z</time>
      </trkpt>
      <trkpt lat="41.437200" lon="-4.624017">
        <ele>1062.0</ele>
        <time>2016-07-12T14:33:56Z</time>
      </trkpt>
      <trkpt lat="41.437250" lon="-4.623967">
        <ele>1062.0</ele>
        <time>2016-07-12T14:33:57Z</time>
      </trkpt>
      <trkpt lat="41.437300" lon="-4.623917">
        <ele>1060.0</ele>
        <time>2016-07-12T14:33:58Z</time>
      </trkpt>
      <trkpt lat="41.437367" lon="-4.623883">
        <ele>1058.0</ele>
        <time>2016-07-12T14:33:59Z</time>
      </trkpt>
      <trkpt lat="41.437433" lon="-4.623867">
        <ele>1056.0</ele>
        <time>2016-07-12T14:34:00Z</time>
      </trkpt>
      <trkpt lat="41.437483" lon="-4.623900">
        <ele>1054.0</ele>
        <time>2016-07-12T14:34:01Z</time>
      </trkpt>
      <trkpt lat="41.437500" lon="-4.623967">
        <ele>1053.0</ele>
        <time>2016-07-12T14:34:02Z</time>
      </trkpt>
      <trkpt lat="41.437500" lon="-4.624033">
        <ele>1054.0</ele>
        <time>2016-07-12T14:34:03Z</time>
      </trkpt>
      <trkpt lat="41.437483" lon="-4.624100">
        <ele>1053.0</ele>
        <time>2016-07-12T14:34:04Z</time>
      </trkpt>
      <trkpt lat="41.437450" lon="-4.624150">
        <ele>1052.0</ele>
        <time>2016-07-12T14:34:05Z</time>
      </trkpt>
      <trkpt lat="41.437433" lon="-4.624217">
        <ele>1050.0</ele>
        <time>2016-07-12T14:34:06Z</time>
      </trkpt>
      <trkpt lat="41.437417" lon="-4.624300">
        <ele>1047.0</ele>
        <time>2016-07-12T14:34:07Z</time>
      </trkpt>
      <trkpt lat="41.437367" lon="-4.624383">
        <ele>1045.0</ele>
        <time>2016-07-12T14:34:08Z</time>
      </trkpt>
      <trkpt lat="41.437317" lon="-4.624467">
        <ele>1044.0</ele>
        <time>2016-07-12T14:34:09Z</time>
      </trkpt>
      <trkpt lat="41.437250" lon="-4.624500">
        <ele>1044.0</ele>
        <time>2016-07-12T14:34:10Z</time>
      </trkpt>
      <trkpt lat="41.437183" lon="-4.624533">
        <ele>1043.0</ele>
        <time>2016-07-12T14:34:11Z</time>
      </trkpt>
      <trkpt lat="41.437100" lon="-4.624567">
        <ele>1041.0</ele>
        <time>2016-07-12T14:34:12Z</time>
      </trkpt>
      <trkpt lat="41.437017" lon="-4.624583">
        <ele>1039.0</ele>
        <time>2016-07-12T14:34:13Z</time>
      </trkpt>
      <trkpt lat="41.436933" lon="-4.624617">
        <ele>1036.0</ele>
        <time>2016-07-12T14:34:14Z</time>
      </trkpt>
      <trkpt lat="41.436833" lon="-4.624650">
        <ele>1034.0</ele>
        <time>2016-07-12T14:34:15Z</time>
      </trkpt>
      <trkpt lat="41.436750" lon="-4.624683">
        <ele>1034.0</ele>
        <time>2016-07-12T14:34:16Z</time>
      </trkpt>
      <trkpt lat="41.436667" lon="-4.624683">
        <ele>1034.0</ele>
        <time>2016-07-12T14:34:17Z</time>
      </trkpt>
      <trkpt lat="41.436583" lon="-4.624700">
        <ele>1032.0</ele>
        <time>2016-07-12T14:34:18Z</time>
      </trkpt>
      <trkpt lat="41.436500" lon="-4.624700">
        <ele>1030.0</ele>
        <time>2016-07-12T14:34:19Z</time>
      </trkpt>
      <trkpt lat="41.436383" lon="-4.624717">
        <ele>1027.0</ele>
        <time>2016-07-12T14:34:20Z</time>
      </trkpt>
      <trkpt lat="41.436283" lon="-4.624717">
        <ele>1026.0</ele>
        <time>2016-07-12T14:34:21Z</time>
      </trkpt>
      <trkpt lat="41.436150" lon="-4.624683">
        <ele>1026.0</ele>
        <time>2016-07-12T14:34:22Z</time>
      </trkpt>
      <trkpt lat="41.436050" lon="-4.624633">
        <ele>1025.0</ele>
        <time>2016-07-12T14:34:23Z</time>
      </trkpt>
      <trkpt lat="41.435950" lon="-4.624567">
        <ele>1025.0</ele>
        <time>2016-07-12T14:34:24Z</time>
      </trkpt>
      <trkpt lat="41.435850" lon="-4.624500">
        <ele>1024.0</ele>
        <time>2016-07-12T14:34:25Z</time>
      </trkpt>
      <trkpt lat="41.435750" lon="-4.624433">
        <ele>1023.0</ele>
        <time>2016-07-12T14:34:26Z</time>
      </trkpt>
      <trkpt lat="41.435667" lon="-4.624333">
        <ele>1022.0</ele>
        <time>2016-07-12T14:34:27Z</time>
      </trkpt>
      <trkpt lat="41.435567" lon="-4.624233">
        <ele>1022.0</ele>
        <time>2016-07-12T14:34:28Z</time>
      </trkpt>
      <trkpt lat="41.435500" lon="-4.624117">
        <ele>1023.0</ele>
        <time>2016-07-12T14:34:29Z</time>
      </trkpt>
      <trkpt lat="41.435433" lon="-4.624017">
        <ele>1024.0</ele>
        <time>2016-07-12T14:34:30Z</time>
      </trkpt>
      <trkpt lat="41.435367" lon="-4.623917">
        <ele>1024.0</ele>
        <time>2016-07-12T14:34:31Z</time>
      </trkpt>
      <trkpt lat="41.435317" lon="-4.623800">
        <ele>1023.0</ele>
        <time>2016-07-12T14:34:32Z</time>
      </trkpt>
      <trkpt lat="41.435267" lon="-4.623683">
        <ele>1023.0</ele>
        <time>2016-07-12T14:34:33Z</time>
      </trkpt>
      <trkpt lat="41.435233" lon="-4.623550">
        <ele>1023.0</ele>
        <time>2016-07-12T14:34:34Z</time>
      </trkpt>
      <trkpt lat="41.435217" lon="-4.623433">
        <ele>1025.0</ele>
        <time>2016-07-12T14:34:35Z</time>
      </trkpt>
      <trkpt lat="41.435183" lon="-4.623317">
        <ele>1027.0</ele>
        <time>2016-07-12T14:34:36Z</time>
      </trkpt>
      <trkpt lat="41.435167" lon="-4.623200">
        <ele>1028.0</ele>
        <time>2016-07-12T14:34:37Z</time>
      </trkpt>
      <trkpt lat="41.435133" lon="-4.623083">
        <ele>1029.0</ele>
        <time>2016-07-12T14:34:38Z</time>
      </trkpt>
      <trkpt lat="41.435100" lon="-4.622950">
        <ele>1031.0</ele>
        <time>2016-07-12T14:34:39Z</time>
      </trkpt>
      <trkpt lat="41.435083" lon="-4.622833">
        <ele>1032.0</ele>
        <time>2016-07-12T14:34:40Z</time>
      </trkpt>
      <trkpt lat="41.435083" lon="-4.622717">
        <ele>1032.0</ele>
        <time>2016-07-12T14:34:41Z</time>
      </trkpt>
      <trkpt lat="41.435083" lon="-4.622600">
        <ele>1032.0</ele>
        <time>2016-07-12T14:34:42Z</time>
      </trkpt>
      <trkpt lat="41.435067" lon="-4.622450">
        <ele>1031.0</ele>
        <time>2016-07-12T14:34:43Z</time>
      </trkpt>
      <trkpt lat="41.435033" lon="-4.622300">
        <ele>1030.0</ele>
        <time>2016-07-12T14:34:44Z</time>
      </trkpt>
      <trkpt lat="41.434967" lon="-4.622167">
        <ele>1029.0</ele>
        <time>2016-07-12T14:34:45Z</time>
      </trkpt>
      <trkpt lat="41.434883" lon="-4.622050">
        <ele>1028.0</ele>
        <time>2016-07-12T14:34:46Z</time>
      </trkpt>
      <trkpt lat="41.434783" lon="-4.621967">
        <ele>1025.0</ele>
        <time>2016-07-12T14:34:47Z</time>
      </trkpt>
      <trkpt lat="41.434667" lon="-4.621933">
        <ele>1022.0</ele>
        <time>2016-07-12T14:34:48Z</time>
      </trkpt>
      <trkpt lat="41.434550" lon="-4.621933">
        <ele>1019.0</ele>
        <time>2016-07-12T14:34:49Z</time>
      </trkpt>
      <trkpt lat="41.434433" lon="-4.621983">
        <ele>1017.0</ele>
        <time>2016-07-12T14:34:50Z</time>
      </trkpt>
      <trkpt lat="41.434367" lon="-4.622050">
        <ele>1017.0</ele>
        <time>2016-07-12T14:34:51Z</time>
      </trkpt>
      <trkpt lat="41.434317" lon="-4.622100">
        <ele>1019.0</ele>
        <time>2016-07-12T14:34:52Z</time>
      </trkpt>
      <trkpt lat="41.434267" lon="-4.622133">
        <ele>1021.0</ele>
        <time>2016-07-12T14:34:53Z</time>
      </trkpt>
      <trkpt lat="41.434217" lon="-4.622167">
        <ele>1022.0</ele>
        <time>2016-07-12T14:34:54Z</time>
      </trkpt>
      <trkpt lat="41.434150" lon="-4.622217">
        <ele>1023.0</ele>
        <time>2016-07-12T14:34:55Z</time>
      </trkpt>
      <trkpt lat="41.434083" lon="-4.622267">
        <ele>1023.0</ele>
        <time>2016-07-12T14:34:56Z</time>
      </trkpt>
      <trkpt lat="41.434033" lon="-4.622317">
        <ele>1024.0</ele>
        <time>2016-07-12T14:34:57Z</time>
      </trkpt>
      <trkpt lat="41.434017" lon="-4.622383">
        <ele>1024.0</ele>
        <time>2016-07-12T14:34:58Z</time>
      </trkpt>
      <trkpt lat="41.434033" lon="-4.622450">
        <ele>1024.0</ele>
        <time>2016-07-12T14:34:59Z</time>
      </trkpt>
      <trkpt lat="41.434050" lon="-4.622500">
        <ele>1024.0</ele>
        <time>2016-07-12T14:35:00Z</time>
      </trkpt>
      <trkpt lat="41.434067" lon="-4.622567">
        <ele>1025.0</ele>
        <time>2016-07-12T14:35:01Z</time>
      </trkpt>
      <trkpt lat="41.434083" lon="-4.622617">
        <ele>1026.0</ele>
        <time>2016-07-12T14:35:02Z</time>
      </trkpt>
      <trkpt lat="41.434100" lon="-4.622650">
        <ele>1027.0</ele>
        <time>2016-07-12T14:35:03Z</time>
      </trkpt>
      <trkpt lat="41.434100" lon="-4.622700">
        <ele>1027.0</ele>
        <time>2016-07-12T14:35:04Z</time>
      </trkpt>
      <trkpt lat="41.434117" lon="-4.622750">
        <ele>1027.0</ele>
        <time>2016-07-12T14:35:05Z</time>
      </trkpt>
      <trkpt lat="41.434150" lon="-4.622783">
        <ele>1026.0</ele>
        <time>2016-07-12T14:35:06Z</time>
      </trkpt>
      <trkpt lat="41.434183" lon="-4.622800">
        <ele>1027.0</ele>
        <time>2016-07-12T14:35:07Z</time>
      </trkpt>
      <trkpt lat="41.434217" lon="-4.622833">
        <ele>1027.0</ele>
        <time>2016-07-12T14:35:08Z</time>
      </trkpt>
      <trkpt lat="41.434250" lon="-4.622850">
        <ele>1026.0</ele>
        <time>2016-07-12T14:35:09Z</time>
      </trkpt>
      <trkpt lat="41.434267" lon="-4.622900">
        <ele>1025.0</ele>
        <time>2016-07-12T14:35:10Z</time>
      </trkpt>
      <trkpt lat="41.434283" lon="-4.622933">
        <ele>1024.0</ele>
        <time>2016-07-12T14:35:11Z</time>
      </trkpt>
      <trkpt lat="41.434300" lon="-4.623000">
        <ele>1022.0</ele>
        <time>2016-07-12T14:35:12Z</time>
      </trkpt>
      <trkpt lat="41.434317" lon="-4.623033">
        <ele>1020.0</ele>
        <time>2016-07-12T14:35:13Z</time>
      </trkpt>
      <trkpt lat="41.434350" lon="-4.623067">
        <ele>1019.0</ele>
        <time>2016-07-12T14:35:14Z</time>
      </trkpt>
      <trkpt lat="41.434383" lon="-4.623083">
        <ele>1019.0</ele>
        <time>2016-07-12T14:35:15Z</time>
      </trkpt>
      <trkpt lat="41.434417" lon="-4.623083">
        <ele>1017.0</ele>
        <time>2016-07-12T14:35:16Z</time>
      </trkpt>
      <trkpt lat="41.434450" lon="-4.623083">
        <ele>1015.0</ele>
        <time>2016-07-12T14:35:17Z</time>
      </trkpt>
      <trkpt lat="41.434500" lon="-4.623117">
        <ele>1012.0</ele>
        <time>2016-07-12T14:35:18Z</time>
      </trkpt>
      <trkpt lat="41.434533" lon="-4.623133">
        <ele>1010.0</ele>
        <time>2016-07-12T14:35:19Z</time>
      </trkpt>
      <trkpt lat="41.434583" lon="-4.623167">
        <ele>1010.0</ele>
        <time>2016-07-12T14:35:20Z</time>
      </trkpt>
      <trkpt lat="41.434600" lon="-4.623167">
        <ele>1011.0</ele>
        <time>2016-07-12T14:35:21Z</time>
      </trkpt>
      <trkpt lat="41.434617" lon="-4.623150">
        <ele>1010.0</ele>
        <time>2016-07-12T14:35:22Z</time>
      </trkpt>
      <trkpt lat="41.434617" lon="-4.623133">
        <ele>1008.0</ele>
        <time>2016-07-12T14:35:23Z</time>
      </trkpt>
      <trkpt lat="41.434633" lon="-4.623133">
        <ele>1004.0</ele>
        <time>2016-07-12T14:35:24Z</time>
      </trkpt>
      <trkpt lat="41.434683" lon="-4.623133">
        <ele>1001.0</ele>
        <time>2016-07-12T14:35:25Z</time>
      </trkpt>
      <trkpt lat="41.434750" lon="-4.623150">
        <ele>998.0</ele>
        <time>2016-07-12T14:35:26Z</time>
      </trkpt>
      <trkpt lat="41.434817" lon="-4.623167">
        <ele>998.0</ele>
        <time>2016-07-12T14:35:27Z</time>
      </trkpt>
      <trkpt lat="41.434867" lon="-4.623167">
        <ele>999.0</ele>
        <time>2016-07-12T14:35:28Z</time>
      </trkpt>
      <trkpt lat="41.434900" lon="-4.623200">
        <ele>1000.0</ele>
        <time>2016-07-12T14:35:29Z</time>
      </trkpt>
      <trkpt lat="41.434917" lon="-4.623233">
        <ele>1001.0</ele>
        <time>2016-07-12T14:35:30Z</time>
      </trkpt>
      <trkpt lat="41.434950" lon="-4.623250">
        <ele>1000.0</ele>
        <time>2016-07-12T14:35:31Z</time>
      </trkpt>
      <trkpt lat="41.435000" lon="-4.623283">
        <ele>1000.0</ele>
        <time>2016-07-12T14:35:32Z</time>
      </trkpt>
      <trkpt lat="41.435033" lon="-4.623317">
        <ele>1000.0</ele>
        <time>2016-07-12T14:35:33Z</time>
      </trkpt>
      <trkpt lat="41.435083" lon="-4.623367">
        <ele>1001.0</ele>
        <time>2016-07-12T14:35:34Z</time>
      </trkpt>
      <trkpt lat="41.435133" lon="-4.623400">
        <ele>1002.0</ele>
        <time>2016-07-12T14:35:35Z</time>
      </trkpt>
      <trkpt lat="41.435167" lon="-4.623417">
        <ele>1003.0</ele>
        <time>2016-07-12T14:35:36Z</time>
      </trkpt>
      <trkpt lat="41.435200" lon="-4.623450">
        <ele>1005.0</ele>
        <time>2016-07-12T14:35:37Z</time>
      </trkpt>
      <trkpt lat="41.435250" lon="-4.623483">
        <ele>1006.0</ele>
        <time>2016-07-12T14:35:38Z</time>
      </trkpt>
      <trkpt lat="41.435283" lon="-4.623517">
        <ele>1007.0</ele>
        <time>2016-07-12T14:35:39Z</time>
      </trkpt>
      <trkpt lat="41.435317" lon="-4.623550">
        <ele>1008.0</ele>
        <time>2016-07-12T14:35:40Z</time>
      </trkpt>
      <trkpt lat="41.435350" lon="-4.623567">
        <ele>1008.0</ele>
        <time>2016-07-12T14:35:41Z</time>
      </trkpt>
      <trkpt lat="41.435400" lon="-4.623583">
        <ele>1008.0</ele>
        <time>2016-07-12T14:35:42Z</time>
      </trkpt>
      <trkpt lat="41.435450" lon="-4.623600">
        <ele>1009.0</ele>
        <time>2016-07-12T14:35:43Z</time>
      </trkpt>
      <trkpt lat="41.435500" lon="-4.623617">
        <ele>1010.0</ele>
        <time>2016-07-12T14:35:44Z</time>
      </trkpt>
      <trkpt lat="41.435533" lon="-4.623633">
        <ele>1011.0</ele>
        <time>2016-07-12T14:35:45Z</time>
      </trkpt>
      <trkpt lat="41.435583" lon="-4.623667">
        <ele>1012.0</ele>
        <time>2016-07-12T14:35:46Z</time>
      </trkpt>
      <trkpt lat="41.435633" lon="-4.623683">
        <ele>1013.0</ele>
        <time>2016-07-12T14:35:47Z</time>
      </trkpt>
      <trkpt lat="41.435683" lon="-4.623700">
        <ele>1014.0</ele>
        <time>2016-07-12T14:35:48Z</time>
      </trkpt>
      <trkpt lat="41.435733" lon="-4.623700">
        <ele>1014.0</ele>
        <time>2016-07-12T14:35:49Z</time>
      </trkpt>
      <trkpt lat="41.435783" lon="-4.623717">
        <ele>1015.0</ele>
        <time>2016-07-12T14:35:50Z</time>
      </trkpt>
      <trkpt lat="41.435850" lon="-4.623750">
        <ele>1015.0</ele>
        <time>2016-07-12T14:35:51Z</time>
      </trkpt>
      <trkpt lat="41.435917" lon="-4.623783">
        <ele>1016.0</ele>
        <time>2016-07-12T14:35:52Z</time>
      </trkpt>
      <trkpt lat="41.435983" lon="-4.623800">
        <ele>1018.0</ele>
        <time>2016-07-12T14:35:53Z</time>
      </trkpt>
      <trkpt lat="41.436017" lon="-4.623800">
        <ele>1020.0</ele>
        <time>2016-07-12T14:35:54Z</time>
      </trkpt>
      <trkpt lat="41.436050" lon="-4.623800">
        <ele>1022.0</ele>
        <time>2016-07-12T14:35:55Z</time>
      </trkpt>
      <trkpt lat="41.436083" lon="-4.623800">
        <ele>1022.0</ele>
        <time>2016-07-12T14:35:56Z</time>
      </trkpt>
      <trkpt lat="41.436117" lon="-4.623800">
        <ele>1020.0</ele>
        <time>2016-07-12T14:35:57Z</time>
      </trkpt>
      <trkpt lat="41.436167" lon="-4.623817">
        <ele>1019.0</ele>
        <time>2016-07-12T14:35:58Z</time>
      </trkpt>
      <trkpt lat="41.436217" lon="-4.623833">
        <ele>1017.0</ele>
        <time>2016-07-12T14:35:59Z</time>
      </trkpt>
      <trkpt lat="41.436283" lon="-4.623833">
        <ele>1017.0</ele>
        <time>2016-07-12T14:36:00Z</time>
      </trkpt>
      <trkpt lat="41.436333" lon="-4.623833">
        <ele>1016.0</ele>
        <time>2016-07-12T14:36:01Z</time>
      </trkpt>
      <trkpt lat="41.436383" lon="-4.623833">
        <ele>1014.0</ele>
        <time>2016-07-12T14:36:02Z</time>
      </trkpt>
      <trkpt lat="41.436450" lon="-4.623850">
        <ele>1012.0</ele>
        <time>2016-07-12T14:36:03Z</time>
      </trkpt>
      <trkpt lat="41.436517" lon="-4.623850">
        <ele>1011.0</ele>
        <time>2016-07-12T14:36:04Z</time>
      </trkpt>
      <trkpt lat="41.436567" lon="-4.623867">
        <ele>1008.0</ele>
        <time>2016-07-12T14:36:05Z</time>
      </trkpt>
      <trkpt lat="41.436617" lon="-4.623867">
        <ele>1005.0</ele>
        <time>2016-07-12T14:36:06Z</time>
      </trkpt>
      <trkpt lat="41.436667" lon="-4.623833">
        <ele>1001.0</ele>
        <time>2016-07-12T14:36:07Z</time>
      </trkpt>
      <trkpt lat="41.436700" lon="-4.623767">
        <ele>998.0</ele>
        <time>2016-07-12T14:36:08Z</time>
      </trkpt>
      <trkpt lat="41.436733" lon="-4.623667">
        <ele>994.0</ele>
        <time>2016-07-12T14:36:09Z</time>
      </trkpt>
      <trkpt lat="41.436750" lon="-4.623550">
        <ele>989.0</ele>
        <time>2016-07-12T14:36:10Z</time>
      </trkpt>
      <trkpt lat="41.436750" lon="-4.623433">
        <ele>987.0</ele>
        <time>2016-07-12T14:36:11Z</time>
      </trkpt>
      <trkpt lat="41.436783" lon="-4.623317">
        <ele>986.0</ele>
        <time>2016-07-12T14:36:12Z</time>
      </trkpt>
      <trkpt lat="41.436783" lon="-4.623233">
        <ele>984.0</ele>
        <time>2016-07-12T14:36:13Z</time>
      </trkpt>
      <trkpt lat="41.436783" lon="-4.623150">
        <ele>981.0</ele>
        <time>2016-07-12T14:36:14Z</time>
      </trkpt>
      <trkpt lat="41.436750" lon="-4.623050">
        <ele>976.0</ele>
        <time>2016-07-12T14:36:15Z</time>
      </trkpt>
      <trkpt lat="41.436700" lon="-4.622950">
        <ele>970.0</ele>
        <time>2016-07-12T14:36:16Z</time>
      </trkpt>
      <trkpt lat="41.436633" lon="-4.622850">
        <ele>965.0</ele>
        <time>2016-07-12T14:36:17Z</time>
      </trkpt>
      <trkpt lat="41.436533" lon="-4.622767">
        <ele>961.0</ele>
        <time>2016-07-12T14:36:18Z</time>
      </trkpt>
      <trkpt lat="41.436433" lon="-4.622733">
        <ele>957.0</ele>
        <time>2016-07-12T14:36:19Z</time>
      </trkpt>
      <trkpt lat="41.436333" lon="-4.622750">
        <ele>954.0</ele>
        <time>2016-07-12T14:36:20Z</time>
      </trkpt>
      <trkpt lat="41.436233" lon="-4.622800">
        <ele>950.0</ele>
        <time>2016-07-12T14:36:21Z</time>
      </trkpt>
      <trkpt lat="41.436150" lon="-4.622867">
        <ele>947.0</ele>
        <time>2016-07-12T14:36:22Z</time>
      </trkpt>
      <trkpt lat="41.436067" lon="-4.622933">
        <ele>944.0</ele>
        <time>2016-07-12T14:36:23Z</time>
      </trkpt>
      <trkpt lat="41.435983" lon="-4.623017">
        <ele>941.0</ele>
        <time>2016-07-12T14:36:24Z</time>
      </trkpt>
      <trkpt lat="41.435917" lon="-4.623100">
        <ele>938.0</ele>
        <time>2016-07-12T14:36:25Z</time>
      </trkpt>
      <trkpt lat="41.435867" lon="-4.623200">
        <ele>936.0</ele>
        <time>2016-07-12T14:36:26Z</time>
      </trkpt>
      <trkpt lat="41.435817" lon="-4.623300">
        <ele>934.0</ele>
        <time>2016-07-12T14:36:27Z</time>
      </trkpt>
      <trkpt lat="41.435767" lon="-4.623400">
        <ele>932.0</ele>
        <time>2016-07-12T14:36:28Z</time>
      </trkpt>
      <trkpt lat="41.435750" lon="-4.623500">
        <ele>932.0</ele>
        <time>2016-07-12T14:36:29Z</time>
      </trkpt>
      <trkpt lat="41.435717" lon="-4.623567">
        <ele>931.0</ele>
        <time>2016-07-12T14:36:30Z</time>
      </trkpt>
      <trkpt lat="41.435700" lon="-4.623633">
        <ele>929.0</ele>
        <time>2016-07-12T14:36:31Z</time>
      </trkpt>
      <trkpt lat="41.435683" lon="-4.623700">
        <ele>927.0</ele>
        <time>2016-07-12T14:36:32Z</time>
      </trkpt>
      <trkpt lat="41.435667" lon="-4.623767">
        <ele>924.0</ele>
        <time>2016-07-12T14:36:33Z</time>
      </trkpt>
      <trkpt lat="41.435650" lon="-4.623867">
        <ele>921.0</ele>
        <time>2016-07-12T14:36:34Z</time>
      </trkpt>
      <trkpt lat="41.435633" lon="-4.623967">
        <ele>919.0</ele>
        <time>2016-07-12T14:36:35Z</time>
      </trkpt>
      <trkpt lat="41.435650" lon="-4.624033">
        <ele>918.0</ele>
        <time>2016-07-12T14:36:36Z</time>
      </trkpt>
      <trkpt lat="41.435683" lon="-4.624083">
        <ele>919.0</ele>
        <time>2016-07-12T14:36:37Z</time>
      </trkpt>
      <trkpt lat="41.435700" lon="-4.624117">
        <ele>918.0</ele>
        <time>2016-07-12T14:36:38Z</time>
      </trkpt>
      <trkpt lat="41.435717" lon="-4.624150">
        <ele>915.0</ele>
        <time>2016-07-12T14:36:39Z</time>
      </trkpt>
      <trkpt lat="41.435733" lon="-4.624233">
        <ele>911.0</ele>
        <time>2016-07-12T14:36:40Z</time>
      </trkpt>
      <trkpt lat="41.435733" lon="-4.624333">
        <ele>907.0</ele>
        <time>2016-07-12T14:36:41Z</time>
      </trkpt>
      <trkpt lat="41.435750" lon="-4.624450">
        <ele>903.0</ele>
        <time>2016-07-12T14:36:42Z</time>
      </trkpt>
      <trkpt lat="41.435750" lon="-4.624567">
        <ele>902.0</ele>
        <time>2016-07-12T14:36:43Z</time>
      </trkpt>
      <trkpt lat="41.435717" lon="-4.624700">
        <ele>901.0</ele>
        <time>2016-07-12T14:36:44Z</time>
      </trkpt>
      <trkpt lat="41.435683" lon="-4.624817">
        <ele>900.0</ele>
        <time>2016-07-12T14:36:45Z</time>
      </trkpt>
      <trkpt lat="41.435650" lon="-4.624933">
        <ele>900.0</ele>
        <time>2016-07-12T14:36:46Z</time>
      </trkpt>
      <trkpt lat="41.435633" lon="-4.625050">
        <ele>900.0</ele>
        <time>2016-07-12T14:36:47Z</time>
      </trkpt>
      <trkpt lat="41.435633" lon="-4.625167">
        <ele>900.0</ele>
        <time>2016-07-12T14:36:48Z</time>
      </trkpt>
      <trkpt lat="41.435617" lon="-4.625283">
        <ele>899.0</ele>
        <time>2016-07-12T14:36:49Z</time>
      </trkpt>
      <trkpt lat="41.435600" lon="-4.625383">
        <ele>899.0</ele>
        <time>2016-07-12T14:36:50Z</time>
      </trkpt>
      <trkpt lat="41.435583" lon="-4.625500">
        <ele>897.0</ele>
        <time>2016-07-12T14:36:51Z</time>
      </trkpt>
      <trkpt lat="41.435567" lon="-4.625617">
        <ele>895.0</ele>
        <time>2016-07-12T14:36:52Z</time>
      </trkpt>
      <trkpt lat="41.435550" lon="-4.625750">
        <ele>894.0</ele>
        <time>2016-07-12T14:36:53Z</time>
      </trkpt>
      <trkpt lat="41.435533" lon="-4.625883">
        <ele>895.0</ele>
        <time>2016-07-12T14:36:54Z</time>
      </trkpt>
      <trkpt lat="41.435517" lon="-4.626000">
        <ele>896.0</ele>
        <time>2016-07-12T14:36:55Z</time>
      </trkpt>
      <trkpt lat="41.435483" lon="-4.626100">
        <ele>897.0</ele>
        <time>2016-07-12T14:36:56Z</time>
      </trkpt>
      <trkpt lat="41.435467" lon="-4.626200">
        <ele>899.0</ele>
        <time>2016-07-12T14:36:57Z</time>
      </trkpt>
      <trkpt lat="41.435450" lon="-4.626300">
        <ele>898.0</ele>
        <time>2016-07-12T14:36:58Z</time>
      </trkpt>
      <trkpt lat="41.435467" lon="-4.626367">
        <ele>898.0</ele>
        <time>2016-07-12T14:36:59Z</time>
      </trkpt>
      <trkpt lat="41.435483" lon="-4.626467">
        <ele>897.0</ele>
        <time>2016-07-12T14:37:00Z</time>
      </trkpt>
      <trkpt lat="41.435500" lon="-4.626550">
        <ele>896.0</ele>
        <time>2016-07-12T14:37:01Z</time>
      </trkpt>
      <trkpt lat="41.435517" lon="-4.626633">
        <ele>897.0</ele>
        <time>2016-07-12T14:37:02Z</time>
      </trkpt>
      <trkpt lat="41.435533" lon="-4.626700">
        <ele>898.0</ele>
        <time>2016-07-12T14:37:03Z</time>
      </trkpt>
      <trkpt lat="41.435550" lon="-4.626783">
        <ele>898.0</ele>
        <time>2016-07-12T14:37:04Z</time>
      </trkpt>
      <trkpt lat="41.435583" lon="-4.626833">
        <ele>897.0</ele>
        <time>2016-07-12T14:37:05Z</time>
      </trkpt>
      <trkpt lat="41.435600" lon="-4.626900">
        <ele>897.0</ele>
        <time>2016-07-12T14:37:06Z</time>
      </trkpt>
      <trkpt lat="41.435633" lon="-4.626950">
        <ele>895.0</ele>
        <time>2016-07-12T14:37:07Z</time>
      </trkpt>
      <trkpt lat="41.435667" lon="-4.627033">
        <ele>894.0</ele>
        <time>2016-07-12T14:37:08Z</time>
      </trkpt>
      <trkpt lat="41.435683" lon="-4.627117">
        <ele>893.0</ele>
        <time>2016-07-12T14:37:09Z</time>
      </trkpt>
      <trkpt lat="41.435717" lon="-4.627217">
        <ele>892.0</ele>
        <time>2016-07-12T14:37:10Z</time>
      </trkpt>
      <trkpt lat="41.435733" lon="-4.627317">
        <ele>894.0</ele>
        <time>2016-07-12T14:37:11Z</time>
      </trkpt>
      <trkpt lat="41.435733" lon="-4.627400">
        <ele>895.0</ele>
        <time>2016-07-12T14:37:12Z</time>
      </trkpt>
      <trkpt lat="41.435733" lon="-4.627483">
        <ele>896.0</ele>
        <time>2016-07-12T14:37:13Z</time>
      </trkpt>
      <trkpt lat="41.435733" lon="-4.627567">
        <ele>896.0</ele>
        <time>2016-07-12T14:37:14Z</time>
      </trkpt>
      <trkpt lat="41.435750" lon="-4.627650">
        <ele>894.0</ele>
        <time>2016-07-12T14:37:15Z</time>
      </trkpt>
      <trkpt lat="41.435783" lon="-4.627750">
        <ele>891.0</ele>
        <time>2016-07-12T14:37:16Z</time>
      </trkpt>
      <trkpt lat="41.435800" lon="-4.627867">
        <ele>890.0</ele>
        <time>2016-07-12T14:37:17Z</time>
      </trkpt>
      <trkpt lat="41.435800" lon="-4.627983">
        <ele>890.0</ele>
        <time>2016-07-12T14:37:18Z</time>
      </trkpt>
      <trkpt lat="41.435800" lon="-4.628100">
        <ele>890.0</ele>
        <time>2016-07-12T14:37:19Z</time>
      </trkpt>
      <trkpt lat="41.435800" lon="-4.628217">
        <ele>890.0</ele>
        <time>2016-07-12T14:37:20Z</time>
      </trkpt>
      <trkpt lat="41.435800" lon="-4.628317">
        <ele>889.0</ele>
        <time>2016-07-12T14:37:21Z</time>
      </trkpt>
      <trkpt lat="41.435817" lon="-4.628400">
        <ele>889.0</ele>
        <time>2016-07-12T14:37:22Z</time>
      </trkpt>
      <trkpt lat="41.435817" lon="-4.628500">
        <ele>889.0</ele>
        <time>2016-07-12T14:37:23Z</time>
      </trkpt>
      <trkpt lat="41.435800" lon="-4.628617">
        <ele>888.0</ele>
        <time>2016-07-12T14:37:24Z</time>
      </trkpt>
      <trkpt lat="41.435783" lon="-4.628733">
        <ele>889.0</ele>
        <time>2016-07-12T14:37:25Z</time>
      </trkpt>
      <trkpt lat="41.435767" lon="-4.628850">
        <ele>890.0</ele>
        <time>2016-07-12T14:37:26Z</time>
      </trkpt>
      <trkpt lat="41.435750" lon="-4.628967">
        <ele>890.0</ele>
        <time>2016-07-12T14:37:27Z</time>
      </trkpt>
      <trkpt lat="41.435733" lon="-4.629083">
        <ele>891.0</ele>
        <time>2016-07-12T14:37:28Z</time>
      </trkpt>
      <trkpt lat="41.435717" lon="-4.629200">
        <ele>891.0</ele>
        <time>2016-07-12T14:37:29Z</time>
      </trkpt>
      <trkpt lat="41.435717" lon="-4.629283">
        <ele>891.0</ele>
        <time>2016-07-12T14:37:30Z</time>
      </trkpt>
      <trkpt lat="41.435700" lon="-4.629383">
        <ele>890.0</ele>
        <time>2016-07-12T14:37:31Z</time>
      </trkpt>
      <trkpt lat="41.435700" lon="-4.629500">
        <ele>890.0</ele>
        <time>2016-07-12T14:37:32Z</time>
      </trkpt>
      <trkpt lat="41.435700" lon="-4.629600">
        <ele>891.0</ele>
        <time>2016-07-12T14:37:33Z</time>
      </trkpt>
      <trkpt lat="41.435700" lon="-4.629683">
        <ele>893.0</ele>
        <time>2016-07-12T14:37:34Z</time>
      </trkpt>
      <trkpt lat="41.435700" lon="-4.629750">
        <ele>894.0</ele>
        <time>2016-07-12T14:37:35Z</time>
      </trkpt>
      <trkpt lat="41.435717" lon="-4.629833">
        <ele>895.0</ele>
        <time>2016-07-12T14:37:36Z</time>
      </trkpt>
      <trkpt lat="41.435733" lon="-4.629883">
        <ele>895.0</ele>
        <time>2016-07-12T14:37:37Z</time>
      </trkpt>
      <trkpt lat="41.435750" lon="-4.629950">
        <ele>894.0</ele>
        <time>2016-07-12T14:37:38Z</time>
      </trkpt>
      <trkpt lat="41.435783" lon="-4.630000">
        <ele>893.0</ele>
        <time>2016-07-12T14:37:39Z</time>
      </trkpt>
      <trkpt lat="41.435817" lon="-4.630033">
        <ele>891.0</ele>
        <time>2016-07-12T14:37:40Z</time>
      </trkpt>
      <trkpt lat="41.435883" lon="-4.630033">
        <ele>888.0</ele>
        <time>2016-07-12T14:37:41Z</time>
      </trkpt>
      <trkpt lat="41.435950" lon="-4.629983">
        <ele>885.0</ele>
        <time>2016-07-12T14:37:42Z</time>
      </trkpt>
      <trkpt lat="41.435983" lon="-4.629850">
        <ele>884.0</ele>
        <time>2016-07-12T14:37:43Z</time>
      </trkpt>
      <trkpt lat="41.436000" lon="-4.629733">
        <ele>888.0</ele>
        <time>2016-07-12T14:37:44Z</time>
      </trkpt>
      <trkpt lat="41.436000" lon="-4.629650">
        <ele>893.0</ele>
        <time>2016-07-12T14:37:45Z</time>
      </trkpt>
      <trkpt lat="41.436017" lon="-4.629600">
        <ele>897.0</ele>
        <time>2016-07-12T14:37:46Z</time>
      </trkpt>
      <trkpt lat="41.436033" lon="-4.629583">
        <ele>898.0</ele>
        <time>2016-07-12T14:37:47Z</time>
      </trkpt>
      <trkpt lat="41.436033" lon="-4.629533">
        <ele>898.0</ele>
        <time>2016-07-12T14:37:48Z</time>
      </trkpt>
      <trkpt lat="41.436050" lon="-4.629433">
        <ele>897.0</ele>
        <time>2016-07-12T14:37:49Z</time>
      </trkpt>
      <trkpt lat="41.436083" lon="-4.629317">
        <ele>898.0</ele>
        <time>2016-07-12T14:37:50Z</time>
      </trkpt>
      <trkpt lat="41.436100" lon="-4.629233">
        <ele>901.0</ele>
        <time>2016-07-12T14:37:51Z</time>
      </trkpt>
      <trkpt lat="41.436117" lon="-4.629150">
        <ele>904.0</ele>
        <time>2016-07-12T14:37:52Z</time>
      </trkpt>
      <trkpt lat="41.436133" lon="-4.629100">
        <ele>906.0</ele>
        <time>2016-07-12T14:37:53Z</time>
      </trkpt>
      <trkpt lat="41.436133" lon="-4.629050">
        <ele>907.0</ele>
        <time>2016-07-12T14:37:54Z</time>
      </trkpt>
      <trkpt lat="41.436150" lon="-4.628983">
        <ele>908.0</ele>
        <time>2016-07-12T14:37:55Z</time>
      </trkpt>
      <trkpt lat="41.436183" lon="-4.628933">
        <ele>909.0</ele>
        <time>2016-07-12T14:37:56Z</time>
      </trkpt>
      <trkpt lat="41.436200" lon="-4.628867">
        <ele>909.0</ele>
        <time>2016-07-12T14:37:57Z</time>
      </trkpt>
      <trkpt lat="41.436217" lon="-4.628783">
        <ele>910.0</ele>
        <time>2016-07-12T14:37:58Z</time>
      </trkpt>
      <trkpt lat="41.436217" lon="-4.628683">
        <ele>911.0</ele>
        <time>2016-07-12T14:37:59Z</time>
      </trkpt>
      <trkpt lat="41.436217" lon="-4.628583">
        <ele>914.0</ele>
        <time>2016-07-12T14:38:00Z</time>
      </trkpt>
      <trkpt lat="41.436200" lon="-4.628500">
        <ele>917.0</ele>
        <time>2016-07-12T14:38:01Z</time>
      </trkpt>
      <trkpt lat="41.436217" lon="-4.628433">
        <ele>919.0</ele>
        <time>2016-07-12T14:38:02Z</time>
      </trkpt>
      <trkpt lat="41.436217" lon="-4.628367">
        <ele>921.0</ele>
        <time>2016-07-12T14:38:03Z</time>
      </trkpt>
      <trkpt lat="41.436233" lon="-4.628317">
        <ele>922.0</ele>
        <time>2016-07-12T14:38:04Z</time>
      </trkpt>
      <trkpt lat="41.436233" lon="-4.628233">
        <ele>922.0</ele>
        <time>2016-07-12T14:38:05Z</time>
      </trkpt>
      <trkpt lat="41.436217" lon="-4.628167">
        <ele>923.0</ele>
        <time>2016-07-12T14:38:06Z</time>
      </trkpt>
      <trkpt lat="41.436200" lon="-4.628083">
        <ele>923.0</ele>
        <time>2016-07-12T14:38:07Z</time>
      </trkpt>
      <trkpt lat="41.436200" lon="-4.628017">
        <ele>923.0</ele>
        <time>2016-07-12T14:38:08Z</time>
      </trkpt>
      <trkpt lat="41.436200" lon="-4.627933">
        <ele>922.0</ele>
        <time>2016-07-12T14:38:09Z</time>
      </trkpt>
      <trkpt lat="41.436200" lon="-4.627850">
        <ele>922.0</ele>
        <time>2016-07-12T14:38:10Z</time>
      </trkpt>
      <trkpt lat="41.436183" lon="-4.627767">
        <ele>921.0</ele>
        <time>2016-07-12T14:38:11Z</time>
      </trkpt>
      <trkpt lat="41.436167" lon="-4.627700">
        <ele>921.0</ele>
        <time>2016-07-12T14:38:12Z</time>
      </trkpt>
      <trkpt lat="41.436133" lon="-4.627617">
        <ele>921.0</ele>
        <time>2016-07-12T14:38:13Z</time>
      </trkpt>
      <trkpt lat="41.436117" lon="-4.627550">
        <ele>920.0</ele>
        <time>2016-07-12T14:38:14Z</time>
      </trkpt>
      <trkpt lat="41.436100" lon="-4.627483">
        <ele>920.0</ele>
        <time>2016-07-12T14:38:15Z</time>
      </trkpt>
      <trkpt lat="41.436067" lon="-4.627400">
        <ele>919.0</ele>
        <time>2016-07-12T14:38:16Z</time>
      </trkpt>
      <trkpt lat="41.436017" lon="-4.627333">
        <ele>919.0</ele>
        <time>2016-07-12T14:38:17Z</time>
      </trkpt>
      <trkpt lat="41.435933" lon="-4.627283">
        <ele>918.0</ele>
        <time>2016-07-12T14:38:18Z</time>
      </trkpt>
      <trkpt lat="41.435817" lon="-4.627267">
        <ele>916.0</ele>
        <time>2016-07-12T14:38:19Z</time>
      </trkpt>
      <trkpt lat="41.435700" lon="-4.627300">
        <ele>915.0</ele>
        <time>2016-07-12T14:38:20Z</time>
      </trkpt>
      <trkpt lat="41.435600" lon="-4.627400">
        <ele>913.0</ele>
        <time>2016-07-12T14:38:21Z</time>
      </trkpt>
      <trkpt lat="41.435550" lon="-4.627533">
        <ele>911.0</ele>
        <time>2016-07-12T14:38:22Z</time>
      </trkpt>
      <trkpt lat="41.435550" lon="-4.627667">
        <ele>910.0</ele>
        <time>2016-07-12T14:38:23Z</time>
      </trkpt>
      <trkpt lat="41.435583" lon="-4.627767">
        <ele>910.0</ele>
        <time>2016-07-12T14:38:24Z</time>
      </trkpt>
      <trkpt lat="41.435600" lon="-4.627833">
        <ele>911.0</ele>
        <time>2016-07-12T14:38:25Z</time>
      </trkpt>
      <trkpt lat="41.435617" lon="-4.627917">
        <ele>911.0</ele>
        <time>2016-07-12T14:38:26Z</time>
      </trkpt>
      <trkpt lat="41.435633" lon="-4.627983">
        <ele>910.0</ele>
        <time>2016-07-12T14:38:27Z</time>
      </trkpt>
      <trkpt lat="41.435650" lon="-4.628083">
        <ele>909.0</ele>
        <time>2016-07-12T14:38:28Z</time>
      </trkpt>
      <trkpt lat="41.435667" lon="-4.628183">
        <ele>907.0</ele>
        <time>2016-07-12T14:38:29Z</time>
      </trkpt>
      <trkpt lat="41.435700" lon="-4.628267">
        <ele>907.0</ele>
        <time>2016-07-12T14:38:30Z</time>
      </trkpt>
      <trkpt lat="41.435700" lon="-4.628367">
        <ele>906.0</ele>
        <time>2016-07-12T14:38:31Z</time>
      </trkpt>
      <trkpt lat="41.435717" lon="-4.628450">
        <ele>906.0</ele>
        <time>2016-07-12T14:38:32Z</time>
      </trkpt>
      <trkpt lat="41.435733" lon="-4.628550">
        <ele>906.0</ele>
        <time>2016-07-12T14:38:33Z</time>
      </trkpt>
      <trkpt lat="41.435767" lon="-4.628633">
        <ele>907.0</ele>
        <time>2016-07-12T14:38:34Z</time>
      </trkpt>
      <trkpt lat="41.435800" lon="-4.628717">
        <ele>908.0</ele>
        <time>2016-07-12T14:38:35Z</time>
      </trkpt>
      <trkpt lat="41.435817" lon="-4.628817">
        <ele>909.0</ele>
        <time>2016-07-12T14:38:36Z</time>
      </trkpt>
      <trkpt lat="41.435833" lon="-4.628917">
        <ele>909.0</ele>
        <time>2016-07-12T14:38:37Z</time>
      </trkpt>
      <trkpt lat="41.435833" lon="-4.629017">
        <ele>909.0</ele>
        <time>2016-07-12T14:38:38Z</time>
      </trkpt>
      <trkpt lat="41.435833" lon="-4.629133">
        <ele>909.0</ele>
        <time>2016-07-12T14:38:39Z</time>
      </trkpt>
      <trkpt lat="41.435850" lon="-4.629250">
        <ele>910.0</ele>
        <time>2016-07-12T14:38:40Z</time>
      </trkpt>
      <trkpt lat="41.435850" lon="-4.629367">
        <ele>911.0</ele>
        <time>2016-07-12T14:38:41Z</time>
      </trkpt>
      <trkpt lat="41.435833" lon="-4.629467">
        <ele>912.0</ele>
        <time>2016-07-12T14:38:42Z</time>
      </trkpt>
      <trkpt lat="41.435833" lon="-4.629583">
        <ele>914.0</ele>
        <time>2016-07-12T14:38:43Z</time>
      </trkpt>
      <trkpt lat="41.435833" lon="-4.629700">
        <ele>916.0</ele>
        <time>2016-07-12T14:38:44Z</time>
      </trkpt>
      <trkpt lat="41.435850" lon="-4.629800">
        <ele>916.0</ele>
        <time>2016-07-12T14:38:45Z</time>
      </trkpt>
      <trkpt lat="41.435867" lon="-4.629900">
        <ele>917.0</ele>
        <time>2016-07-12T14:38:46Z</time>
      </trkpt>
      <trkpt lat="41.435867" lon="-4.629983">
        <ele>917.0</ele>
        <time>2016-07-12T14:38:47Z</time>
      </trkpt>
      <trkpt lat="41.435883" lon="-4.630083">
        <ele>917.0</ele>
        <time>2016-07-12T14:38:48Z</time>
      </trkpt>
      <trkpt lat="41.435900" lon="-4.630200">
        <ele>916.0</ele>
        <time>2016-07-12T14:38:49Z</time>
      </trkpt>
      <trkpt lat="41.435900" lon="-4.630317">
        <ele>916.0</ele>
        <time>2016-07-12T14:38:50Z</time>
      </trkpt>
      <trkpt lat="41.435917" lon="-4.630433">
        <ele>917.0</ele>
        <time>2016-07-12T14:38:51Z</time>
      </trkpt>
      <trkpt lat="41.435917" lon="-4.630533">
        <ele>918.0</ele>
        <time>2016-07-12T14:38:52Z</time>
      </trkpt>
      <trkpt lat="41.435933" lon="-4.630633">
        <ele>919.0</ele>
        <time>2016-07-12T14:38:53Z</time>
      </trkpt>
      <trkpt lat="41.435933" lon="-4.630717">
        <ele>920.0</ele>
        <time>2016-07-12T14:38:54Z</time>
      </trkpt>
      <trkpt lat="41.435933" lon="-4.630800">
        <ele>921.0</ele>
        <time>2016-07-12T14:38:55Z</time>
      </trkpt>
      <trkpt lat="41.435950" lon="-4.630883">
        <ele>921.0</ele>
        <time>2016-07-12T14:38:56Z</time>
      </trkpt>
      <trkpt lat="41.435950" lon="-4.630967">
        <ele>921.0</ele>
        <time>2016-07-12T14:38:57Z</time>
      </trkpt>
      <trkpt lat="41.435950" lon="-4.631050">
        <ele>921.0</ele>
        <time>2016-07-12T14:38:58Z</time>
      </trkpt>
      <trkpt lat="41.435967" lon="-4.631133">
        <ele>922.0</ele>
        <time>2016-07-12T14:38:59Z</time>
      </trkpt>
      <trkpt lat="41.435983" lon="-4.631233">
        <ele>923.0</ele>
        <time>2016-07-12T14:39:00Z</time>
      </trkpt>
      <trkpt lat="41.435983" lon="-4.631333">
        <ele>925.0</ele>
        <time>2016-07-12T14:39:01Z</time>
      </trkpt>
      <trkpt lat="41.435983" lon="-4.631417">
        <ele>927.0</ele>
        <time>2016-07-12T14:39:02Z</time>
      </trkpt>
      <trkpt lat="41.435983" lon="-4.631500">
        <ele>929.0</ele>
        <time>2016-07-12T14:39:03Z</time>
      </trkpt>
      <trkpt lat="41.435967" lon="-4.631567">
        <ele>930.0</ele>
        <time>2016-07-12T14:39:04Z</time>
      </trkpt>
      <trkpt lat="41.435983" lon="-4.631650">
        <ele>931.0</ele>
        <time>2016-07-12T14:39:05Z</time>
      </trkpt>
      <trkpt lat="41.436000" lon="-4.631750">
        <ele>934.0</ele>
        <time>2016-07-12T14:39:06Z</time>
      </trkpt>
      <trkpt lat="41.436000" lon="-4.631833">
        <ele>937.0</ele>
        <time>2016-07-12T14:39:07Z</time>
      </trkpt>
      <trkpt lat="41.436000" lon="-4.631917">
        <ele>941.0</ele>
        <time>2016-07-12T14:39:08Z</time>
      </trkpt>
      <trkpt lat="41.436000" lon="-4.631983">
        <ele>944.0</ele>
        <time>2016-07-12T14:39:09Z</time>
      </trkpt>
      <trkpt lat="41.436017" lon="-4.632050">
        <ele>946.0</ele>
        <time>2016-07-12T14:39:10Z</time>
      </trkpt>
      <trkpt lat="41.436050" lon="-4.632100">
        <ele>948.0</ele>
        <time>2016-07-12T14:39:11Z</time>
      </trkpt>
      <trkpt lat="41.436100" lon="-4.632133">
        <ele>951.0</ele>
        <time>2016-07-12T14:39:12Z</time>
      </trkpt>
      <trkpt lat="41.436150" lon="-4.632133">
        <ele>954.0</ele>
        <time>2016-07-12T14:39:13Z</time>
      </trkpt>
      <trkpt lat="41.436167" lon="-4.632133">
        <ele>957.0</ele>
        <time>2016-07-12T14:39:14Z</time>
      </trkpt>
      <trkpt lat="41.436200" lon="-4.632117">
        <ele>959.0</ele>
        <time>2016-07-12T14:39:15Z</time>
      </trkpt>
      <trkpt lat="41.436250" lon="-4.632117">
        <ele>960.0</ele>
        <time>2016-07-12T14:39:16Z</time>
      </trkpt>
      <trkpt lat="41.436300" lon="-4.632083">
        <ele>961.0</ele>
        <time>2016-07-12T14:39:17Z</time>
      </trkpt>
      <trkpt lat="41.436350" lon="-4.632033">
        <ele>963.0</ele>
        <time>2016-07-12T14:39:18Z</time>
      </trkpt>
      <trkpt lat="41.436367" lon="-4.631950">
        <ele>967.0</ele>
        <time>2016-07-12T14:39:19Z</time>
      </trkpt>
      <trkpt lat="41.436367" lon="-4.631850">
        <ele>970.0</ele>
        <time>2016-07-12T14:39:20Z</time>
      </trkpt>
      <trkpt lat="41.436333" lon="-4.631750">
        <ele>973.0</ele>
        <time>2016-07-12T14:39:21Z</time>
      </trkpt>
      <trkpt lat="41.436283" lon="-4.631667">
        <ele>976.0</ele>
        <time>2016-07-12T14:39:22Z</time>
      </trkpt>
      <trkpt lat="41.436233" lon="-4.631567">
        <ele>978.0</ele>
        <time>2016-07-12T14:39:23Z</time>
      </trkpt>
      <trkpt lat="41.436167" lon="-4.631450">
        <ele>981.0</ele>
        <time>2016-07-12T14:39:24Z</time>
      </trkpt>
      <trkpt lat="41.436100" lon="-4.631367">
        <ele>984.0</ele>
        <time>2016-07-12T14:39:25Z</time>
      </trkpt>
      <trkpt lat="41.436000" lon="-4.631300">
        <ele>986.0</ele>
        <time>2016-07-12T14:39:26Z</time>
      </trkpt>
      <trkpt lat="41.435900" lon="-4.631250">
        <ele>988.0</ele>
        <time>2016-07-12T14:39:27Z</time>
      </trkpt>
      <trkpt lat="41.435800" lon="-4.631250">
        <ele>990.0</ele>
        <time>2016-07-12T14:39:28Z</time>
      </trkpt>
      <trkpt lat="41.435700" lon="-4.631283">
        <ele>992.0</ele>
        <time>2016-07-12T14:39:29Z</time>
      </trkpt>
      <trkpt lat="41.435617" lon="-4.631333">
        <ele>995.0</ele>
        <time>2016-07-12T14:39:30Z</time>
      </trkpt>
      <trkpt lat="41.435567" lon="-4.631400">
        <ele>999.0</ele>
        <time>2016-07-12T14:39:31Z</time>
      </trkpt>
      <trkpt lat="41.435550" lon="-4.631467">
        <ele>1002.0</ele>
        <time>2016-07-12T14:39:32Z</time>
      </trkpt>
      <trkpt lat="41.435583" lon="-4.631517">
        <ele>1005.0</ele>
        <time>2016-07-12T14:39:33Z</time>
      </trkpt>
      <trkpt lat="41.435617" lon="-4.631550">
        <ele>1007.0</ele>
        <time>2016-07-12T14:39:34Z</time>
      </trkpt>
      <trkpt lat="41.435667" lon="-4.631533">
        <ele>1010.0</ele>
        <time>2016-07-12T14:39:35Z</time>
      </trkpt>
      <trkpt lat="41.435700" lon="-4.631500">
        <ele>1013.0</ele>
        <time>2016-07-12T14:39:36Z</time>
      </trkpt>
      <trkpt lat="41.435733" lon="-4.631450">
        <ele>1016.0</ele>
        <time>2016-07-12T14:39:37Z</time>
      </trkpt>
      <trkpt lat="41.435783" lon="-4.631400">
        <ele>1019.0</ele>
        <time>2016-07-12T14:39:38Z</time>
      </trkpt>
      <trkpt lat="41.435817" lon="-4.631333">
        <ele>1022.0</ele>
        <time>2016-07-12T14:39:39Z</time>
      </trkpt>
      <trkpt lat="41.435850" lon="-4.631250">
        <ele>1025.0</ele>
        <time>2016-07-12T14:39:40Z</time>
      </trkpt>
      <trkpt lat="41.435867" lon="-4.631167">
        <ele>1028.0</ele>
        <time>2016-07-12T14:39:41Z</time>
      </trkpt>
      <trkpt lat="41.435883" lon="-4.631083">
        <ele>1031.0</ele>
        <time>2016-07-12T14:39:42Z</time>
      </trkpt>
      <trkpt lat="41.435867" lon="-4.630967">
        <ele>1033.0</ele>
        <time>2016-07-12T14:39:43Z</time>
      </trkpt>
      <trkpt lat="41.435833" lon="-4.630850">
        <ele>1034.0</ele>
        <time>2016-07-12T14:39:44Z</time>
      </trkpt>
      <trkpt lat="41.435783" lon="-4.630733">
        <ele>1036.0</ele>
        <time>2016-07-12T14:39:45Z</time>
      </trkpt>
      <trkpt lat="41.435700" lon="-4.630633">
        <ele>1038.0</ele>
        <time>2016-07-12T14:39:46Z</time>
      </trkpt>
      <trkpt lat="41.435600" lon="-4.630583">
        <ele>1041.0</ele>
        <time>2016-07-12T14:39:47Z</time>
      </trkpt>
      <trkpt lat="41.435500" lon="-4.630550">
        <ele>1043.0</ele>
        <time>2016-07-12T14:39:48Z</time>
      </trkpt>
      <trkpt lat="41.435400" lon="-4.630533">
        <ele>1045.0</ele>
        <time>2016-07-12T14:39:49Z</time>
      </trkpt>
      <trkpt lat="41.435317" lon="-4.630567">
        <ele>1047.0</ele>
        <time>2016-07-12T14:39:50Z</time>
      </trkpt>
      <trkpt lat="41.435217" lon="-4.630600">
        <ele>1048.0</ele>
        <time>2016-07-12T14:39:51Z</time>
      </trkpt>
      <trkpt lat="41.435133" lon="-4.630667">
        <ele>1049.0</ele>
        <time>2016-07-12T14:39:52Z</time>
      </trkpt>
      <trkpt lat="41.435083" lon="-4.630750">
        <ele>1051.0</ele>
        <time>2016-07-12T14:39:53Z</time>
      </trkpt>
      <trkpt lat="41.435033" lon="-4.630850">
        <ele>1052.0</ele>
        <time>2016-07-12T14:39:54Z</time>
      </trkpt>
      <trkpt lat="41.435033" lon="-4.630950">
        <ele>1054.0</ele>
        <time>2016-07-12T14:39:55Z</time>
      </trkpt>
      <trkpt lat="41.435067" lon="-4.631033">
        <ele>1057.0</ele>
        <time>2016-07-12T14:39:56Z</time>
      </trkpt>
      <trkpt lat="41.435117" lon="-4.631100">
        <ele>1060.0</ele>
        <time>2016-07-12T14:39:57Z</time>
      </trkpt>
      <trkpt lat="41.435150" lon="-4.631150">
        <ele>1063.0</ele>
        <time>2016-07-12T14:39:58Z</time>
      </trkpt>
      <trkpt lat="41.435200" lon="-4.631183">
        <ele>1067.0</ele>
        <time>2016-07-12T14:39:59Z</time>
      </trkpt>
      <trkpt lat="41.435233" lon="-4.631217">
        <ele>1070.0</ele>
        <time>2016-07-12T14:40:00Z</time>
      </trkpt>
      <trkpt lat="41.435283" lon="-4.631233">
        <ele>1072.0</ele>
        <time>2016-07-12T14:40:01Z</time>
      </trkpt>
      <trkpt lat="41.435317" lon="-4.631267">
        <ele>1074.0</ele>
        <time>2016-07-12T14:40:02Z</time>
      </trkpt>
      <trkpt lat="41.435367" lon="-4.631300">
        <ele>1077.0</ele>
        <time>2016-07-12T14:40:03Z</time>
      </trkpt>
      <trkpt lat="41.435400" lon="-4.631350">
        <ele>1081.0</ele>
        <time>2016-07-12T14:40:04Z</time>
      </trkpt>
      <trkpt lat="41.435433" lon="-4.631367">
        <ele>1084.0</ele>
        <time>2016-07-12T14:40:05Z</time>
      </trkpt>
      <trkpt lat="41.435483" lon="-4.631350">
        <ele>1086.0</ele>
        <time>2016-07-12T14:40:06Z</time>
      </trkpt>
      <trkpt lat="41.435517" lon="-4.631300">
        <ele>1087.0</ele>
        <time>2016-07-12T14:40:07Z</time>
      </trkpt>
      <trkpt lat="41.435533" lon="-4.631217">
        <ele>1089.0</ele>
        <time>2016-07-12T14:40:08Z</time>
      </trkpt>
      <trkpt lat="41.435550" lon="-4.631133">
        <ele>1090.0</ele>
        <time>2016-07-12T14:40:09Z</time>
      </trkpt>
      <trkpt lat="41.435550" lon="-4.631017">
        <ele>1089.0</ele>
        <time>2016-07-12T14:40:10Z</time>
      </trkpt>
      <trkpt lat="41.435550" lon="-4.630900">
        <ele>1089.0</ele>
        <time>2016-07-12T14:40:11Z</time>
      </trkpt>
      <trkpt lat="41.435500" lon="-4.630750">
        <ele>1089.0</ele>
        <time>2016-07-12T14:40:12Z</time>
      </trkpt>
      <trkpt lat="41.435433" lon="-4.630617">
        <ele>1089.0</ele>
        <time>2016-07-12T14:40:13Z</time>
      </trkpt>
      <trkpt lat="41.435333" lon="-4.630533">
        <ele>1091.0</ele>
        <time>2016-07-12T14:40:14Z</time>
      </trkpt>
      <trkpt lat="41.435217" lon="-4.630500">
        <ele>1092.0</ele>
        <time>2016-07-12T14:40:15Z</time>
      </trkpt>
      <trkpt lat="41.435117" lon="-4.630500">
        <ele>1094.0</ele>
        <time>2016-07-12T14:40:16Z</time>
      </trkpt>
      <trkpt lat="41.435017" lon="-4.630533">
        <ele>1096.0</ele>
        <time>2016-07-12T14:40:17Z</time>
      </trkpt>
      <trkpt lat="41.434917" lon="-4.630567">
        <ele>1099.0</ele>
        <time>2016-07-12T14:40:18Z</time>
      </trkpt>
      <trkpt lat="41.434833" lon="-4.630600">
        <ele>1102.0</ele>
        <time>2016-07-12T14:40:19Z</time>
      </trkpt>
      <trkpt lat="41.434750" lon="-4.630650">
        <ele>1105.0</ele>
        <time>2016-07-12T14:40:20Z</time>
      </trkpt>
      <trkpt lat="41.434683" lon="-4.630733">
        <ele>1106.0</ele>
        <time>2016-07-12T14:40:21Z</time>
      </trkpt>
      <trkpt lat="41.434617" lon="-4.630817">
        <ele>1108.0</ele>
        <time>2016-07-12T14:40:22Z</time>
      </trkpt>
      <trkpt lat="41.434567" lon="-4.630917">
        <ele>1111.0</ele>
        <time>2016-07-12T14:40:23Z</time>
      </trkpt>
      <trkpt lat="41.434533" lon="-4.631017">
        <ele>1114.0</ele>
        <time>2016-07-12T14:40:24Z</time>
      </trkpt>
      <trkpt lat="41.434517" lon="-4.631117">
        <ele>1118.0</ele>
        <time>2016-07-12T14:40:25Z</time>
      </trkpt>
      <trkpt lat="41.434517" lon="-4.631183">
        <ele>1122.0</ele>
        <time>2016-07-12T14:40:26Z</time>
      </trkpt>
      <trkpt lat="41.434517" lon="-4.631250">
        <ele>1125.0</ele>
        <time>2016-07-12T14:40:27Z</time>
      </trkpt>
      <trkpt lat="41.434533" lon="-4.631333">
        <ele>1127.0</ele>
        <time>2016-07-12T14:40:28Z</time>
      </trkpt>
      <trkpt lat="41.434567" lon="-4.631383">
        <ele>1128.0</ele>
        <time>2016-07-12T14:40:29Z</time>
      </trkpt>
      <trkpt lat="41.434617" lon="-4.631400">
        <ele>1130.0</ele>
        <time>2016-07-12T14:40:30Z</time>
      </trkpt>
      <trkpt lat="41.434683" lon="-4.631350">
        <ele>1131.0</ele>
        <time>2016-07-12T14:40:31Z</time>
      </trkpt>
      <trkpt lat="41.434700" lon="-4.631250">
        <ele>1132.0</ele>
        <time>2016-07-12T14:40:32Z</time>
      </trkpt>
      <trkpt lat="41.434683" lon="-4.631133">
        <ele>1133.0</ele>
        <time>2016-07-12T14:40:33Z</time>
      </trkpt>
      <trkpt lat="41.434633" lon="-4.631017">
        <ele>1134.0</ele>
        <time>2016-07-12T14:40:34Z</time>
      </trkpt>
      <trkpt lat="41.434550" lon="-4.630900">
        <ele>1134.0</ele>
        <time>2016-07-12T14:40:35Z</time>
      </trkpt>
      <trkpt lat="41.434450" lon="-4.630817">
        <ele>1136.0</ele>
        <time>2016-07-12T14:40:36Z</time>
      </trkpt>
      <trkpt lat="41.434333" lon="-4.630767">
        <ele>1140.0</ele>
        <time>2016-07-12T14:40:37Z</time>
      </trkpt>
      <trkpt lat="41.434233" lon="-4.630750">
        <ele>1143.0</ele>
        <time>2016-07-12T14:40:38Z</time>
      </trkpt>
      <trkpt lat="41.434133" lon="-4.630767">
        <ele>1146.0</ele>
        <time>2016-07-12T14:40:39Z</time>
      </trkpt>
      <trkpt lat="41.434033" lon="-4.630783">
        <ele>1149.0</ele>
        <time>2016-07-12T14:40:40Z</time>
      </trkpt>
      <trkpt lat="41.433917" lon="-4.630817">
        <ele>1151.0</ele>
        <time>2016-07-12T14:40:41Z</time>
      </trkpt>
      <trkpt lat="41.433817" lon="-4.630867">
        <ele>1154.0</ele>
        <time>2016-07-12T14:40:42Z</time>
      </trkpt>
      <trkpt lat="41.433717" lon="-4.630917">
        <ele>1158.0</ele>
        <time>2016-07-12T14:40:43Z</time>
      </trkpt>
      <trkpt lat="41.433617" lon="-4.630983">
        <ele>1163.0</ele>
        <time>2016-07-12T14:40:44Z</time>
      </trkpt>
      <trkpt lat="41.433550" lon="-4.631050">
        <ele>1167.0</ele>
        <time>2016-07-12T14:40:45Z</time>
      </trkpt>
      <trkpt lat="41.433483" lon="-4.631133">
        <ele>1172.0</ele>
        <time>2016-07-12T14:40:46Z</time>
      </trkpt>
      <trkpt lat="41.433417" lon="-4.631200">
        <ele>1177.0</ele>
        <time>2016-07-12T14:40:47Z</time>
      </trkpt>
      <trkpt lat="41.433350" lon="-4.631267">
        <ele>1180.0</ele>
        <time>2016-07-12T14:40:48Z</time>
      </trkpt>
      <trkpt lat="41.433283" lon="-4.631350">
        <ele>1183.0</ele>
        <time>2016-07-12T14:40:49Z</time>
      </trkpt>
      <trkpt lat="41.433250" lon="-4.631433">
        <ele>1185.0</ele>
        <time>2016-07-12T14:40:50Z</time>
      </trkpt>
      <trkpt lat="41.433217" lon="-4.631533">
        <ele>1187.0</ele>
        <time>2016-07-12T14:40:51Z</time>
      </trkpt>
      <trkpt lat="41.433233" lon="-4.631600">
        <ele>1188.0</ele>
        <time>2016-07-12T14:40:52Z</time>
      </trkpt>
      <trkpt lat="41.433267" lon="-4.631650">
        <ele>1189.0</ele>
        <time>2016-07-12T14:40:53Z</time>
      </trkpt>
      <trkpt lat="41.433333" lon="-4.631667">
        <ele>1190.0</ele>
        <time>2016-07-12T14:40:54Z</time>
      </trkpt>
      <trkpt lat="41.433400" lon="-4.631617">
        <ele>1191.0</ele>
        <time>2016-07-12T14:40:55Z</time>
      </trkpt>
      <trkpt lat="41.433433" lon="-4.631533">
        <ele>1194.0</ele>
        <time>2016-07-12T14:40:56Z</time>
      </trkpt>
      <trkpt lat="41.433450" lon="-4.631450">
        <ele>1197.0</ele>
        <time>2016-07-12T14:40:57Z</time>
      </trkpt>
      <trkpt lat="41.433450" lon="-4.631350">
        <ele>1201.0</ele>
        <time>2016-07-12T14:40:58Z</time>
      </trkpt>
      <trkpt lat="41.433433" lon="-4.631250">
        <ele>1206.0</ele>
        <time>2016-07-12T14:40:59Z</time>
      </trkpt>
      <trkpt lat="41.433417" lon="-4.631167">
        <ele>1210.0</ele>
        <time>2016-07-12T14:41:00Z</time>
      </trkpt>
      <trkpt lat="41.433383" lon="-4.631067">
        <ele>1213.0</ele>
        <time>2016-07-12T14:41:01Z</time>
      </trkpt>
      <trkpt lat="41.433333" lon="-4.630967">
        <ele>1216.0</ele>
        <time>2016-07-12T14:41:02Z</time>
      </trkpt>
      <trkpt lat="41.433267" lon="-4.630867">
        <ele>1218.0</ele>
        <time>2016-07-12T14:41:03Z</time>
      </trkpt>
      <trkpt lat="41.433167" lon="-4.630800">
        <ele>1220.0</ele>
        <time>2016-07-12T14:41:04Z</time>
      </trkpt>
      <trkpt lat="41.433050" lon="-4.630767">
        <ele>1223.0</ele>
        <time>2016-07-12T14:41:05Z</time>
      </trkpt>
      <trkpt lat="41.432917" lon="-4.630800">
        <ele>1224.0</ele>
        <time>2016-07-12T14:41:06Z</time>
      </trkpt>
      <trkpt lat="41.432800" lon="-4.630867">
        <ele>1227.0</ele>
        <time>2016-07-12T14:41:07Z</time>
      </trkpt>
      <trkpt lat="41.432700" lon="-4.630950">
        <ele>1233.0</ele>
        <time>2016-07-12T14:41:08Z</time>
      </trkpt>
      <trkpt lat="41.432617" lon="-4.631033">
        <ele>1239.0</ele>
        <time>2016-07-12T14:41:09Z</time>
      </trkpt>
      <trkpt lat="41.432583" lon="-4.631117">
        <ele>1245.0</ele>
        <time>2016-07-12T14:41:10Z</time>
      </trkpt>
      <trkpt lat="41.432533" lon="-4.631167">
        <ele>1249.0</ele>
        <time>2016-07-12T14:41:11Z</time>
      </trkpt>
      <trkpt lat="41.432500" lon="-4.631233">
        <ele>1250.0</ele>
        <time>2016-07-12T14:41:12Z</time>
      </trkpt>
      <trkpt lat="41.432450" lon="-4.631300">
        <ele>1251.0</ele>
        <time>2016-07-12T14:41:13Z</time>
      </trkpt>
      <trkpt lat="41.432417" lon="-4.631400">
        <ele>1252.0</ele>
        <time>2016-07-12T14:41:14Z</time>
      </trkpt>
      <trkpt lat="41.432417" lon="-4.631500">
        <ele>1253.0</ele>
        <time>2016-07-12T14:41:15Z</time>
      </trkpt>
      <trkpt lat="41.432433" lon="-4.631583">
        <ele>1256.0</ele>
        <time>2016-07-12T14:41:16Z</time>
      </trkpt>
      <trkpt lat="41.432483" lon="-4.631617">
        <ele>1259.0</ele>
        <time>2016-07-12T14:41:17Z</time>
      </trkpt>
      <trkpt lat="41.432517" lon="-4.631650">
        <ele>1263.0</ele>
        <time>2016-07-12T14:41:18Z</time>
      </trkpt>
      <trkpt lat="41.432550" lon="-4.631667">
        <ele>1266.0</ele>
        <time>2016-07-12T14:41:19Z</time>
      </trkpt>
      <trkpt lat="41.432600" lon="-4.631683">
        <ele>1268.0</ele>
        <time>2016-07-12T14:41:20Z</time>
      </trkpt>
      <trkpt lat="41.432633" lon="-4.631667">
        <ele>1270.0</ele>
        <time>2016-07-12T14:41:21Z</time>
      </trkpt>
      <trkpt lat="41.432667" lon="-4.631617">
        <ele>1271.0</ele>
        <time>2016-07-12T14:41:22Z</time>
      </trkpt>
      <trkpt lat="41.432700" lon="-4.631533">
        <ele>1274.0</ele>
        <time>2016-07-12T14:41:23Z</time>
      </trkpt>
      <trkpt lat="41.432717" lon="-4.631433">
        <ele>1277.0</ele>
        <time>2016-07-12T14:41:24Z</time>
      </trkpt>
      <trkpt lat="41.432717" lon="-4.631333">
        <ele>1280.0</ele>
        <time>2016-07-12T14:41:25Z</time>
      </trkpt>
      <trkpt lat="41.432700" lon="-4.631217">
        <ele>1283.0</ele>
        <time>2016-07-12T14:41:26Z</time>
      </trkpt>
      <trkpt lat="41.432683" lon="-4.631117">
        <ele>1285.0</ele>
        <time>2016-07-12T14:41:27Z</time>
      </trkpt>
      <trkpt lat="41.432650" lon="-4.630983">
        <ele>1288.0</ele>
        <time>2016-07-12T14:41:28Z</time>
      </trkpt>
      <trkpt lat="41.432600" lon="-4.630867">
        <ele>1292.0</ele>
        <time>2016-07-12T14:41:29Z</time>
      </trkpt>
      <trkpt lat="41.432550" lon="-4.630733">
        <ele>1295.0</ele>
        <time>2016-07-12T14:41:30Z</time>
      </trkpt>
      <trkpt lat="41.432500" lon="-4.630617">
        <ele>1300.0</ele>
        <time>2016-07-12T14:41:31Z</time>
      </trkpt>
      <trkpt lat="41.432450" lon="-4.630517">
        <ele>1304.0</ele>
        <time>2016-07-12T14:41:32Z</time>
      </trkpt>
      <trkpt lat="41.432400" lon="-4.630433">
        <ele>1308.0</ele>
        <time>2016-07-12T14:41:33Z</time>
      </trkpt>
      <trkpt lat="41.432333" lon="-4.630350">
        <ele>1311.0</ele>
        <time>2016-07-12T14:41:34Z</time>
      </trkpt>
      <trkpt lat="41.432233" lon="-4.630300">
        <ele>1313.0</ele>
        <time>2016-07-12T14:41:35Z</time>
      </trkpt>
      <trkpt lat="41.432117" lon="-4.630267">
        <ele>1314.0</ele>
        <time>2016-07-12T14:41:36Z</time>
      </trkpt>
      <trkpt lat="41.432000" lon="-4.630283">
        <ele>1317.0</ele>
        <time>2016-07-12T14:41:37Z</time>
      </trkpt>
      <trkpt lat="41.431900" lon="-4.630333">
        <ele>1320.0</ele>
        <time>2016-07-12T14:41:38Z</time>
      </trkpt>
      <trkpt lat="41.431817" lon="-4.630417">
        <ele>1324.0</ele>
        <time>2016-07-12T14:41:39Z</time>
      </trkpt>
      <trkpt lat="41.431767" lon="-4.630517">
        <ele>1327.0</ele>
        <time>2016-07-12T14:41:40Z</time>
      </trkpt>
      <trkpt lat="41.431733" lon="-4.630633">
        <ele>1330.0</ele>
        <time>2016-07-12T14:41:41Z</time>
      </trkpt>
      <trkpt lat="41.431733" lon="-4.630767">
        <ele>1333.0</ele>
        <time>2016-07-12T14:41:42Z</time>
      </trkpt>
      <trkpt lat="41.431750" lon="-4.630867">
        <ele>1335.0</ele>
        <time>2016-07-12T14:41:43Z</time>
      </trkpt>
      <trkpt lat="41.431783" lon="-4.630950">
        <ele>1337.0</ele>
        <time>2016-07-12T14:41:44Z</time>
      </trkpt>
      <trkpt lat="41.431850" lon="-4.631000">
        <ele>1340.0</ele>
        <time>2016-07-12T14:41:45Z</time>
      </trkpt>
      <trkpt lat="41.431900" lon="-4.631017">
        <ele>1344.0</ele>
        <time>2016-07-12T14:41:46Z</time>
      </trkpt>
      <trkpt lat="41.431967" lon="-4.630967">
        <ele>1348.0</ele>
        <time>2016-07-12T14:41:47Z</time>
      </trkpt>
      <trkpt lat="41.432017" lon="-4.630900">
        <ele>1352.0</ele>
        <time>2016-07-12T14:41:48Z</time>
      </trkpt>
      <trkpt lat="41.432050" lon="-4.630800">
        <ele>1356.0</ele>
        <time>2016-07-12T14:41:49Z</time>
      </trkpt>
      <trkpt lat="41.432067" lon="-4.630700">
        <ele>1360.0</ele>
        <time>2016-07-12T14:41:50Z</time>
      </trkpt>
      <trkpt lat="41.432083" lon="-4.630600">
        <ele>1363.0</ele>
        <time>2016-07-12T14:41:51Z</time>
      </trkpt>
      <trkpt lat="41.432083" lon="-4.630500">
        <ele>1366.0</ele>
        <time>2016-07-12T14:41:52Z</time>
      </trkpt>
      <trkpt lat="41.432067" lon="-4.630400">
        <ele>1369.0</ele>
        <time>2016-07-12T14:41:53Z</time>
      </trkpt>
      <trkpt lat="41.432033" lon="-4.630283">
        <ele>1371.0</ele>
        <time>2016-07-12T14:41:54Z</time>
      </trkpt>
      <trkpt lat="41.431967" lon="-4.630167">
        <ele>1374.0</ele>
        <time>2016-07-12T14:41:55Z</time>
      </trkpt>
      <trkpt lat="41.431883" lon="-4.630100">
        <ele>1378.0</ele>
        <time>2016-07-12T14:41:56Z</time>
      </trkpt>
      <trkpt lat="41.431783" lon="-4.630050">
        <ele>1380.0</ele>
        <time>2016-07-12T14:41:57Z</time>
      </trkpt>
      <trkpt lat="41.431700" lon="-4.630000">
        <ele>1382.0</ele>
        <time>2016-07-12T14:41:58Z</time>
      </trkpt>
      <trkpt lat="41.431583" lon="-4.629967">
        <ele>1383.0</ele>
        <time>2016-07-12T14:41:59Z</time>
      </trkpt>
      <trkpt lat="41.431483" lon="-4.629950">
        <ele>1384.0</ele>
        <time>2016-07-12T14:42:00Z</time>
      </trkpt>
      <trkpt lat="41.431367" lon="-4.630000">
        <ele>1387.0</ele>
        <time>2016-07-12T14:42:01Z</time>
      </trkpt>
      <trkpt lat="41.431300" lon="-4.630083">
        <ele>1389.0</ele>
        <time>2016-07-12T14:42:02Z</time>
      </trkpt>
      <trkpt lat="41.431250" lon="-4.630200">
        <ele>1392.0</ele>
        <time>2016-07-12T14:42:03Z</time>
      </trkpt>
      <trkpt lat="41.431233" lon="-4.630317">
        <ele>1395.0</ele>
        <time>2016-07-12T14:42:04Z</time>
      </trkpt>
      <trkpt lat="41.431233" lon="-4.630433">
        <ele>1399.0</ele>
        <time>2016-07-12T14:42:05Z</time>
      </trkpt>
      <trkpt lat="41.431233" lon="-4.630533">
        <ele>1403.0</ele>
        <time>2016-07-12T14:42:06Z</time>
      </trkpt>
      <trkpt lat="41.431233" lon="-4.630633">
        <ele>1406.0</ele>
        <time>2016-07-12T14:42:07Z</time>
      </trkpt>
      <trkpt lat="41.431217" lon="-4.630733">
        <ele>1408.0</ele>
        <time>2016-07-12T14:42:08Z</time>
      </trkpt>
      <trkpt lat="41.431250" lon="-4.630817">
        <ele>1410.0</ele>
        <time>2016-07-12T14:42:09Z</time>
      </trkpt>
      <trkpt lat="41.431300" lon="-4.630883">
        <ele>1411.0</ele>
        <time>2016-07-12T14:42:10Z</time>
      </trkpt>
      <trkpt lat="41.431367" lon="-4.630900">
        <ele>1412.0</ele>
        <time>2016-07-12T14:42:11Z</time>
      </trkpt>
      <trkpt lat="41.431450" lon="-4.630917">
        <ele>1417.0</ele>
        <time>2016-07-12T14:42:12Z</time>
      </trkpt>
      <trkpt lat="41.431500" lon="-4.630900">
        <ele>1421.0</ele>
        <time>2016-07-12T14:42:13Z</time>
      </trkpt>
      <trkpt lat="41.431533" lon="-4.630867">
        <ele>1426.0</ele>
        <time>2016-07-12T14:42:14Z</time>
      </trkpt>
      <trkpt lat="41.431567" lon="-4.630817">
        <ele>1429.0</ele>
        <time>2016-07-12T14:42:15Z</time>
      </trkpt>
      <trkpt lat="41.431600" lon="-4.630750">
        <ele>1432.0</ele>
        <time>2016-07-12T14:42:16Z</time>
      </trkpt>
      <trkpt lat="41.431617" lon="-4.630667">
        <ele>1434.0</ele>
        <time>2016-07-12T14:42:17Z</time>
      </trkpt>
      <trkpt lat="41.431617" lon="-4.630567">
        <ele>1436.0</ele>
        <time>2016-07-12T14:42:18Z</time>
      </trkpt>
      <trkpt lat="41.431633" lon="-4.630467">
        <ele>1438.0</ele>
        <time>2016-07-12T14:42:19Z</time>
      </trkpt>
      <trkpt lat="41.431633" lon="-4.630350">
        <ele>1440.0</ele>
        <time>2016-07-12T14:42:20Z</time>
      </trkpt>
      <trkpt lat="41.431650" lon="-4.630233">
        <ele>1441.0</ele>
        <time>2016-07-12T14:42:21Z</time>
      </trkpt>
      <trkpt lat="41.431650" lon="-4.630117">
        <ele>1442.0</ele>
        <time>2016-07-12T14:42:22Z</time>
      </trkpt>
      <trkpt lat="41.431633" lon="-4.629983">
        <ele>1444.0</ele>
        <time>2016-07-12T14:42:23Z</time>
      </trkpt>
      <trkpt lat="41.431583" lon="-4.629850">
        <ele>1444.0</ele>
        <time>2016-07-12T14:42:24Z</time>
      </trkpt>
      <trkpt lat="41.431500" lon="-4.629717">
        <ele>1445.0</ele>
        <time>2016-07-12T14:42:25Z</time>
      </trkpt>
      <trkpt lat="41.431400" lon="-4.629600">
        <ele>1446.0</ele>
        <time>2016-07-12T14:42:26Z</time>
      </trkpt>
      <trkpt lat="41.431300" lon="-4.629517">
        <ele>1448.0</ele>
        <time>2016-07-12T14:42:27Z</time>
      </trkpt>
      <trkpt lat="41.431183" lon="-4.629483">
        <ele>1451.0</ele>
        <time>2016-07-12T14:42:28Z</time>
      </trkpt>
      <trkpt lat="41.431067" lon="-4.629467">
        <ele>1453.0</ele>
        <time>2016-07-12T14:42:29Z</time>
      </trkpt>
      <trkpt lat="41.430950" lon="-4.629500">
        <ele>1454.0</ele>
        <time>2016-07-12T14:42:30Z</time>
      </trkpt>
      <trkpt lat="41.430850" lon="-4.629517">
        <ele>1455.0</ele>
        <time>2016-07-12T14:42:31Z</time>
      </trkpt>
      <trkpt lat="41.430750" lon="-4.629550">
        <ele>1457.0</ele>
        <time>2016-07-12T14:42:32Z</time>
      </trkpt>
      <trkpt lat="41.430650" lon="-4.629617">
        <ele>1458.0</ele>
        <time>2016-07-12T14:42:33Z</time>
      </trkpt>
      <trkpt lat="41.430567" lon="-4.629700">
        <ele>1458.0</ele>
        <time>2016-07-12T14:42:34Z</time>
      </trkpt>
      <trkpt lat="41.430517" lon="-4.629833">
        <ele>1459.0</ele>
        <time>2016-07-12T14:42:35Z</time>
      </trkpt>
      <trkpt lat="41.430467" lon="-4.629950">
        <ele>1460.0</ele>
        <time>2016-07-12T14:42:36Z</time>
      </trkpt>
      <trkpt lat="41.430450" lon="-4.630083">
        <ele>1462.0</ele>
        <time>2016-07-12T14:42:37Z</time>
      </trkpt>
      <trkpt lat="41.430433" lon="-4.630183">
        <ele>1465.0</ele>
        <time>2016-07-12T14:42:38Z</time>
      </trkpt>
      <trkpt lat="41.430417" lon="-4.630300">
        <ele>1467.0</ele>
        <time>2016-07-12T14:42:39Z</time>
      </trkpt>
      <trkpt lat="41.430417" lon="-4.630400">
        <ele>1470.0</ele>
        <time>2016-07-12T14:42:40Z</time>
      </trkpt>
      <trkpt lat="41.430417" lon="-4.630517">
        <ele>1473.0</ele>
        <time>2016-07-12T14:42:41Z</time>
      </trkpt>
      <trkpt lat="41.430417" lon="-4.630617">
        <ele>1478.0</ele>
        <time>2016-07-12T14:42:42Z</time>
      </trkpt>
      <trkpt lat="41.430417" lon="-4.630700">
        <ele>1483.0</ele>
        <time>2016-07-12T14:42:43Z</time>
      </trkpt>
      <trkpt lat="41.430433" lon="-4.630767">
        <ele>1487.0</ele>
        <time>2016-07-12T14:42:44Z</time>
      </trkpt>
      <trkpt lat="41.430433" lon="-4.630850">
        <ele>1491.0</ele>
        <time>2016-07-12T14:42:45Z</time>
      </trkpt>
      <trkpt lat="41.430450" lon="-4.630900">
        <ele>1493.0</ele>
        <time>2016-07-12T14:42:46Z</time>
      </trkpt>
      <trkpt lat="41.430483" lon="-4.630950">
        <ele>1495.0</ele>
        <time>2016-07-12T14:42:47Z</time>
      </trkpt>
      <trkpt lat="41.430550" lon="-4.630967">
        <ele>1496.0</ele>
        <time>2016-07-12T14:42:48Z</time>
      </trkpt>
      <trkpt lat="41.430617" lon="-4.630933">
        <ele>1498.0</ele>
        <time>2016-07-12T14:42:49Z</time>
      </trkpt>
      <trkpt lat="41.430667" lon="-4.630883">
        <ele>1501.0</ele>
        <time>2016-07-12T14:42:50Z</time>
      </trkpt>
      <trkpt lat="41.430700" lon="-4.630800">
        <ele>1505.0</ele>
        <time>2016-07-12T14:42:51Z</time>
      </trkpt>
      <trkpt lat="41.430700" lon="-4.630717">
        <ele>1508.0</ele>
        <time>2016-07-12T14:42:52Z</time>
      </trkpt>
      <trkpt lat="41.430683" lon="-4.630650">
        <ele>1510.0</ele>
        <time>2016-07-12T14:42:53Z</time>
      </trkpt>
      <trkpt lat="41.430683" lon="-4.630550">
        <ele>1511.0</ele>
        <time>2016-07-12T14:42:54Z</time>
      </trkpt>
      <trkpt lat="41.430700" lon="-4.630450">
        <ele>1511.0</ele>
        <time>2016-07-12T14:42:55Z</time>
      </trkpt>
      <trkpt lat="41.430667" lon="-4.630333">
        <ele>1511.0</ele>
        <time>2016-07-12T14:42:56Z</time>
      </trkpt>
      <trkpt lat="41.430617" lon="-4.630217">
        <ele>1512.0</ele>
        <time>2016-07-12T14:42:57Z</time>
      </trkpt>
      <trkpt lat="41.430533" lon="-4.630133">
        <ele>1514.0</ele>
        <time>2016-07-12T14:42:58Z</time>
      </trkpt>
      <trkpt lat="41.430433" lon="-4.630067">
        <ele>1516.0</ele>
        <time>2016-07-12T14:42:59Z</time>
      </trkpt>
      <trkpt lat="41.430333" lon="-4.630017">
        <ele>1518.0</ele>
        <time>2016-07-12T14:43:00Z</time>
      </trkpt>
      <trkpt lat="41.430250" lon="-4.629950">
        <ele>1520.0</ele>
        <time>2016-07-12T14:43:01Z</time>
      </trkpt>
      <trkpt lat="41.430133" lon="-4.629917">
        <ele>1521.0</ele>
        <time>2016-07-12T14:43:02Z</time>
      </trkpt>
      <trkpt lat="41.430017" lon="-4.629883">
        <ele>1522.0</ele>
        <time>2016-07-12T14:43:03Z</time>
      </trkpt>
      <trkpt lat="41.429900" lon="-4.629900">
        <ele>1523.0</ele>
        <time>2016-07-12T14:43:04Z</time>
      </trkpt>
      <trkpt lat="41.429783" lon="-4.629950">
        <ele>1525.0</ele>
        <time>2016-07-12T14:43:05Z</time>
      </trkpt>
      <trkpt lat="41.429683" lon="-4.630033">
        <ele>1528.0</ele>
        <time>2016-07-12T14:43:06Z</time>
      </trkpt>
      <trkpt lat="41.429617" lon="-4.630133">
        <ele>1531.0</ele>
        <time>2016-07-12T14:43:07Z</time>
      </trkpt>
      <trkpt lat="41.429550" lon="-4.630233">
        <ele>1535.0</ele>
        <time>2016-07-12T14:43:08Z</time>
      </trkpt>
      <trkpt lat="41.429517" lon="-4.630350">
        <ele>1540.0</ele>
        <time>2016-07-12T14:43:09Z</time>
      </trkpt>
      <trkpt lat="41.429483" lon="-4.630467">
        <ele>1546.0</ele>
        <time>2016-07-12T14:43:10Z</time>
      </trkpt>
      <trkpt lat="41.429450" lon="-4.630567">
        <ele>1551.0</ele>
        <time>2016-07-12T14:43:11Z</time>
      </trkpt>
      <trkpt lat="41.429400" lon="-4.630667">
        <ele>1554.0</ele>
        <time>2016-07-12T14:43:12Z</time>
      </trkpt>
      <trkpt lat="41.429333" lon="-4.630750">
        <ele>1558.0</ele>
        <time>2016-07-12T14:43:13Z</time>
      </trkpt>
      <trkpt lat="41.429267" lon="-4.630850">
        <ele>1561.0</ele>
        <time>2016-07-12T14:43:14Z</time>
      </trkpt>
      <trkpt lat="41.429233" lon="-4.630950">
        <ele>1565.0</ele>
        <time>2016-07-12T14:43:15Z</time>
      </trkpt>
      <trkpt lat="41.429217" lon="-4.631067">
        <ele>1569.0</ele>
        <time>2016-07-12T14:43:16Z</time>
      </trkpt>
      <trkpt lat="41.429250" lon="-4.631183">
        <ele>1573.0</ele>
        <time>2016-07-12T14:43:17Z</time>
      </trkpt>
      <trkpt lat="41.429283" lon="-4.631267">
        <ele>1577.0</ele>
        <time>2016-07-12T14:43:18Z</time>
      </trkpt>
      <trkpt lat="41.429317" lon="-4.631317">
        <ele>1582.0</ele>
        <time>2016-07-12T14:43:19Z</time>
      </trkpt>
      <trkpt lat="41.429333" lon="-4.631333">
        <ele>1584.0</ele>
        <time>2016-07-12T14:43:20Z</time>
      </trkpt>
      <trkpt lat="41.429383" lon="-4.631333">
        <ele>1586.0</ele>
        <time>2016-07-12T14:43:21Z</time>
      </trkpt>
      <trkpt lat="41.429433" lon="-4.631317">
        <ele>1588.0</ele>
        <time>2016-07-12T14:43:22Z</time>
      </trkpt>
      <trkpt lat="41.429483" lon="-4.631250">
        <ele>1590.0</ele>
        <time>2016-07-12T14:43:23Z</time>
      </trkpt>
      <trkpt lat="41.429517" lon="-4.631150">
        <ele>1590.0</ele>
        <time>2016-07-12T14:43:24Z</time>
      </trkpt>
      <trkpt lat="41.429467" lon="-4.631017">
        <ele>1591.0</ele>
        <time>2016-07-12T14:43:25Z</time>
      </trkpt>
      <trkpt lat="41.429383" lon="-4.630900">
        <ele>1591.0</ele>
        <time>2016-07-12T14:43:26Z</time>
      </trkpt>
      <trkpt lat="41.429300" lon="-4.630783">
        <ele>1595.0</ele>
        <time>2016-07-12T14:43:27Z</time>
      </trkpt>
      <trkpt lat="41.429233" lon="-4.630683">
        <ele>1600.0</ele>
        <time>2016-07-12T14:43:28Z</time>
      </trkpt>
      <trkpt lat="41.429200" lon="-4.630600">
        <ele>1605.0</ele>
        <time>2016-07-12T14:43:29Z</time>
      </trkpt>
      <trkpt lat="41.429150" lon="-4.630533">
        <ele>1609.0</ele>
        <time>2016-07-12T14:43:30Z</time>
      </trkpt>
      <trkpt lat="41.429083" lon="-4.630450">
        <ele>1611.0</ele>
        <time>2016-07-12T14:43:31Z</time>
      </trkpt>
      <trkpt lat="41.429000" lon="-4.630383">
        <ele>1613.0</ele>
        <time>2016-07-12T14:43:32Z</time>
      </trkpt>
      <trkpt lat="41.428883" lon="-4.630317">
        <ele>1615.0</ele>
        <time>2016-07-12T14:43:33Z</time>
      </trkpt>
      <trkpt lat="41.428767" lon="-4.630300">
        <ele>1619.0</ele>
        <time>2016-07-12T14:43:34Z</time>
      </trkpt>
      <trkpt lat="41.428667" lon="-4.630350">
        <ele>1624.0</ele>
        <time>2016-07-12T14:43:35Z</time>
      </trkpt>
      <trkpt lat="41.428567" lon="-4.630417">
        <ele>1630.0</ele>
        <time>2016-07-12T14:43:36Z</time>
      </trkpt>
      <trkpt lat="41.428483" lon="-4.630467">
        <ele>1634.0</ele>
        <time>2016-07-12T14:43:37Z</time>
      </trkpt>
      <trkpt lat="41.428400" lon="-4.630533">
        <ele>1639.0</ele>
        <time>2016-07-12T14:43:38Z</time>
      </trkpt>
      <trkpt lat="41.428317" lon="-4.630600">
        <ele>1643.0</ele>
        <time>2016-07-12T14:43:39Z</time>
      </trkpt>
      <trkpt lat="41.428233" lon="-4.630683">
        <ele>1647.0</ele>
        <time>2016-07-12T14:43:40Z</time>
      </trkpt>
      <trkpt lat="41.428167" lon="-4.630800">
        <ele>1651.0</ele>
        <time>2016-07-12T14:43:41Z</time>
      </trkpt>
      <trkpt lat="41.428117" lon="-4.630933">
        <ele>1656.0</ele>
        <time>2016-07-12T14:43:42Z</time>
      </trkpt>
      <trkpt lat="41.428100" lon="-4.631050">
        <ele>1661.0</ele>
        <time>2016-07-12T14:43:43Z</time>
      </trkpt>
      <trkpt lat="41.428100" lon="-4.631150">
        <ele>1666.0</ele>
        <time>2016-07-12T14:43:44Z</time>
      </trkpt>
      <trkpt lat="41.428100" lon="-4.631267">
        <ele>1671.0</ele>
        <time>2016-07-12T14:43:45Z</time>
      </trkpt>
      <trkpt lat="41.428117" lon="-4.631367">
        <ele>1675.0</ele>
        <time>2016-07-12T14:43:46Z</time>
      </trkpt>
      <trkpt lat="41.428133" lon="-4.631483">
        <ele>1680.0</ele>
        <time>2016-07-12T14:43:47Z</time>
      </trkpt>
      <trkpt lat="41.428150" lon="-4.631567">
        <ele>1684.0</ele>
        <time>2016-07-12T14:43:48Z</time>
      </trkpt>
      <trkpt lat="41.428200" lon="-4.631650">
        <ele>1689.0</ele>
        <time>2016-07-12T14:43:49Z</time>
      </trkpt>
      <trkpt lat="41.428233" lon="-4.631683">
        <ele>1693.0</ele>
        <time>2016-07-12T14:43:50Z</time>
      </trkpt>
      <trkpt lat="41.428300" lon="-4.631717">
        <ele>1697.0</ele>
        <time>2016-07-12T14:43:51Z</time>
      </trkpt>
      <trkpt lat="41.428350" lon="-4.631717">
        <ele>1700.0</ele>
        <time>2016-07-12T14:43:52Z</time>
      </trkpt>
      <trkpt lat="41.428400" lon="-4.631683">
        <ele>1704.0</ele>
        <time>2016-07-12T14:43:53Z</time>
      </trkpt>
      <trkpt lat="41.428417" lon="-4.631617">
        <ele>1706.0</ele>
        <time>2016-07-12T14:43:54Z</time>
      </trkpt>
      <trkpt lat="41.428400" lon="-4.631517">
        <ele>1708.0</ele>
        <time>2016-07-12T14:43:55Z</time>
      </trkpt>
      <trkpt lat="41.428350" lon="-4.631417">
        <ele>1711.0</ele>
        <time>2016-07-12T14:43:56Z</time>
      </trkpt>
      <trkpt lat="41.428267" lon="-4.631350">
        <ele>1715.0</ele>
        <time>2016-07-12T14:43:57Z</time>
      </trkpt>
      <trkpt lat="41.428183" lon="-4.631317">
        <ele>1720.0</ele>
        <time>2016-07-12T14:43:58Z</time>
      </trkpt>
      <trkpt lat="41.428100" lon="-4.631317">
        <ele>1725.0</ele>
        <time>2016-07-12T14:43:59Z</time>
      </trkpt>
      <trkpt lat="41.428000" lon="-4.631317">
        <ele>1729.0</ele>
        <time>2016-07-12T14:44:00Z</time>
      </trkpt>
      <trkpt lat="41.427900" lon="-4.631317">
        <ele>1733.0</ele>
        <time>2016-07-12T14:44:01Z</time>
      </trkpt>
      <trkpt lat="41.427800" lon="-4.631350">
        <ele>1737.0</ele>
        <time>2016-07-12T14:44:02Z</time>
      </trkpt>
      <trkpt lat="41.427700" lon="-4.631417">
        <ele>1740.0</ele>
        <time>2016-07-12T14:44:03Z</time>
      </trkpt>
      <trkpt lat="41.427600" lon="-4.631483">
        <ele>1745.0</ele>
        <time>2016-07-12T14:44:04Z</time>
      </trkpt>
      <trkpt lat="41.427500" lon="-4.631567">
        <ele>1749.0</ele>
        <time>2016-07-12T14:44:05Z</time>
      </trkpt>
      <trkpt lat="41.427417" lon="-4.631667">
        <ele>1754.0</ele>
        <time>2016-07-12T14:44:06Z</time>
      </trkpt>
      <trkpt lat="41.427317" lon="-4.631750">
        <ele>1759.0</ele>
        <time>2016-07-12T14:44:07Z</time>
      </trkpt>
      <trkpt lat="41.427250" lon="-4.631850">
        <ele>1764.0</ele>
        <time>2016-07-12T14:44:08Z</time>
      </trkpt>
      <trkpt lat="41.427183" lon="-4.631967">
        <ele>1768.0</ele>
        <time>2016-07-12T14:44:09Z</time>
      </trkpt>
      <trkpt lat="41.427133" lon="-4.632100">
        <ele>1771.0</ele>
        <time>2016-07-12T14:44:10Z</time>
      </trkpt>
      <trkpt lat="41.427100" lon="-4.632250">
        <ele>1773.0</ele>
        <time>2016-07-12T14:44:11Z</time>
      </trkpt>
      <trkpt lat="41.427117" lon="-4.632383">
        <ele>1776.0</ele>
        <time>2016-07-12T14:44:12Z</time>
      </trkpt>
      <trkpt lat="41.427150" lon="-4.632500">
        <ele>1778.0</ele>
        <time>2016-07-12T14:44:13Z</time>
      </trkpt>
      <trkpt lat="41.427200" lon="-4.632550">
        <ele>1782.0</ele>
        <time>2016-07-12T14:44:14Z</time>
      </trkpt>
      <trkpt lat="41.427233" lon="-4.632567">
        <ele>1785.0</ele>
        <time>2016-07-12T14:44:15Z</time>
      </trkpt>
      <trkpt lat="41.427283" lon="-4.632583">
        <ele>1789.0</ele>
        <time>2016-07-12T14:44:16Z</time>
      </trkpt>
      <trkpt lat="41.427333" lon="-4.632583">
        <ele>1792.0</ele>
        <time>2016-07-12T14:44:17Z</time>
      </trkpt>
      <trkpt lat="41.427383" lon="-4.632583">
        <ele>1795.0</ele>
        <time>2016-07-12T14:44:18Z</time>
      </trkpt>
      <trkpt lat="41.427417" lon="-4.632567">
        <ele>1797.0</ele>
        <time>2016-07-12T14:44:19Z</time>
      </trkpt>
      <trkpt lat="41.427450" lon="-4.632500">
        <ele>1798.0</ele>
        <time>2016-07-12T14:44:20Z</time>
      </trkpt>
      <trkpt lat="41.427467" lon="-4.632433">
        <ele>1800.0</ele>
        <time>2016-07-12T14:44:21Z</time>
      </trkpt>
      <trkpt lat="41.427450" lon="-4.632333">
        <ele>1802.0</ele>
        <time>2016-07-12T14:44:22Z</time>
      </trkpt>
      <trkpt lat="41.427400" lon="-4.632250">
        <ele>1804.0</ele>
        <time>2016-07-12T14:44:23Z</time>
      </trkpt>
      <trkpt lat="41.427350" lon="-4.632167">
        <ele>1808.0</ele>
        <time>2016-07-12T14:44:24Z</time>
      </trkpt>
      <trkpt lat="41.427300" lon="-4.632100">
        <ele>1812.0</ele>
        <time>2016-07-12T14:44:25Z</time>
      </trkpt>
      <trkpt lat="41.427250" lon="-4.632033">
        <ele>1816.0</ele>
        <time>2016-07-12T14:44:26Z</time>
      </trkpt>
      <trkpt lat="41.427217" lon="-4.631967">
        <ele>1820.0</ele>
        <time>2016-07-12T14:44:27Z</time>
      </trkpt>
      <trkpt lat="41.427150" lon="-4.631917">
        <ele>1823.0</ele>
        <time>2016-07-12T14:44:28Z</time>
      </trkpt>
      <trkpt lat="41.427083" lon="-4.631850">
        <ele>1826.0</ele>
        <time>2016-07-12T14:44:29Z</time>
      </trkpt>
      <trkpt lat="41.427017" lon="-4.631817">
        <ele>1830.0</ele>
        <time>2016-07-12T14:44:30Z</time>
      </trkpt>
      <trkpt lat="41.426917" lon="-4.631817">
        <ele>1834.0</ele>
        <time>2016-07-12T14:44:31Z</time>
      </trkpt>
      <trkpt lat="41.426833" lon="-4.631833">
        <ele>1837.0</ele>
        <time>2016-07-12T14:44:32Z</time>
      </trkpt>
      <trkpt lat="41.426733" lon="-4.631883">
        <ele>1839.0</ele>
        <time>2016-07-12T14:44:33Z</time>
      </trkpt>
      <trkpt lat="41.426633" lon="-4.631950">
        <ele>1842.0</ele>
        <time>2016-07-12T14:44:34Z</time>
      </trkpt>
      <trkpt lat="41.426533" lon="-4.632067">
        <ele>1846.0</ele>
        <time>2016-07-12T14:44:35Z</time>
      </trkpt>
      <trkpt lat="41.426450" lon="-4.632183">
        <ele>1850.0</ele>
        <time>2016-07-12T14:44:36Z</time>
      </trkpt>
      <trkpt lat="41.426400" lon="-4.632300">
        <ele>1853.0</ele>
        <time>2016-07-12T14:44:37Z</time>
      </trkpt>
      <trkpt lat="41.426350" lon="-4.632417">
        <ele>1856.0</ele>
        <time>2016-07-12T14:44:38Z</time>
      </trkpt>
      <trkpt lat="41.426300" lon="-4.632533">
        <ele>1858.0</ele>
        <time>2016-07-12T14:44:39Z</time>
      </trkpt>
      <trkpt lat="41.426267" lon="-4.632650">
        <ele>1859.0</ele>
        <time>2016-07-12T14:44:40Z</time>
      </trkpt>
      <trkpt lat="41.426233" lon="-4.632767">
        <ele>1859.0</ele>
        <time>2016-07-12T14:44:41Z</time>
      </trkpt>
      <trkpt lat="41.426200" lon="-4.632900">
        <ele>1860.0</ele>
        <time>2016-07-12T14:44:42Z</time>
      </trkpt>
      <trkpt lat="41.426217" lon="-4.633017">
        <ele>1861.0</ele>
        <time>2016-07-12T14:44:43Z</time>
      </trkpt>
      <trkpt lat="41.426267" lon="-4.633117">
        <ele>1861.0</ele>
        <time>2016-07-12T14:44:44Z</time>
      </trkpt>
      <trkpt lat="41.426333" lon="-4.633183">
        <ele>1862.0</ele>
        <time>2016-07-12T14:44:45Z</time>
      </trkpt>
      <trkpt lat="41.426417" lon="-4.633217">
        <ele>1863.0</ele>
        <time>2016-07-12T14:44:46Z</time>
      </trkpt>
      <trkpt lat="41.426483" lon="-4.633217">
        <ele>1864.0</ele>
        <time>2016-07-12T14:44:47Z</time>
      </trkpt>
      <trkpt lat="41.426550" lon="-4.633200">
        <ele>1864.0</ele>
        <time>2016-07-12T14:44:48Z</time>
      </trkpt>
      <trkpt lat="41.426600" lon="-4.633150">
        <ele>1861.0</ele>
        <time>2016-07-12T14:44:49Z</time>
      </trkpt>
      <trkpt lat="41.426650" lon="-4.633083">
        <ele>1857.0</ele>
        <time>2016-07-12T14:44:50Z</time>
      </trkpt>
      <trkpt lat="41.426717" lon="-4.632983">
        <ele>1855.0</ele>
        <time>2016-07-12T14:44:51Z</time>
      </trkpt>
      <trkpt lat="41.426767" lon="-4.632883">
        <ele>1854.0</ele>
        <time>2016-07-12T14:44:52Z</time>
      </trkpt>
      <trkpt lat="41.426817" lon="-4.632783">
        <ele>1857.0</ele>
        <time>2016-07-12T14:44:53Z</time>
      </trkpt>
      <trkpt lat="41.426833" lon="-4.632700">
        <ele>1859.0</ele>
        <time>2016-07-12T14:44:54Z</time>
      </trkpt>
      <trkpt lat="41.426850" lon="-4.632617">
        <ele>1859.0</ele>
        <time>2016-07-12T14:44:55Z</time>
      </trkpt>
      <trkpt lat="41.426883" lon="-4.632517">
        <ele>1858.0</ele>
        <time>2016-07-12T14:44:56Z</time>
      </trkpt>
      <trkpt lat="41.426933" lon="-4.632417">
        <ele>1858.0</ele>
        <time>2016-07-12T14:44:57Z</time>
      </trkpt>
      <trkpt lat="41.426983" lon="-4.632333">
        <ele>1858.0</ele>
        <time>2016-07-12T14:44:58Z</time>
      </trkpt>
      <trkpt lat="41.427017" lon="-4.632233">
        <ele>1859.0</ele>
        <time>2016-07-12T14:44:59Z</time>
      </trkpt>
      <trkpt lat="41.427050" lon="-4.632117">
        <ele>1860.0</ele>
        <time>2016-07-12T14:45:00Z</time>
      </trkpt>
      <trkpt lat="41.427050" lon="-4.632000">
        <ele>1862.0</ele>
        <time>2016-07-12T14:45:01Z</time>
      </trkpt>
      <trkpt lat="41.427050" lon="-4.631883">
        <ele>1866.0</ele>
        <time>2016-07-12T14:45:02Z</time>
      </trkpt>
      <trkpt lat="41.427033" lon="-4.631783">
        <ele>1868.0</ele>
        <time>2016-07-12T14:45:03Z</time>
      </trkpt>
      <trkpt lat="41.427017" lon="-4.631717">
        <ele>1871.0</ele>
        <time>2016-07-12T14:45:04Z</time>
      </trkpt>
      <trkpt lat="41.427017" lon="-4.631633">
        <ele>1873.0</ele>
        <time>2016-07-12T14:45:05Z</time>
      </trkpt>
      <trkpt lat="41.427000" lon="-4.631550">
        <ele>1874.0</ele>
        <time>2016-07-12T14:45:06Z</time>
      </trkpt>
      <trkpt lat="41.426967" lon="-4.631450">
        <ele>1875.0</ele>
        <time>2016-07-12T14:45:07Z</time>
      </trkpt>
      <trkpt lat="41.426917" lon="-4.631367">
        <ele>1875.0</ele>
        <time>2016-07-12T14:45:08Z</time>
      </trkpt>
      <trkpt lat="41.426833" lon="-4.631267">
        <ele>1876.0</ele>
        <time>2016-07-12T14:45:09Z</time>
      </trkpt>
      <trkpt lat="41.426750" lon="-4.631183">
        <ele>1877.0</ele>
        <time>2016-07-12T14:45:10Z</time>
      </trkpt>
      <trkpt lat="41.426683" lon="-4.631100">
        <ele>1878.0</ele>
        <time>2016-07-12T14:45:11Z</time>
      </trkpt>
      <trkpt lat="41.426617" lon="-4.631033">
        <ele>1880.0</ele>
        <time>2016-07-12T14:45:12Z</time>
      </trkpt>
      <trkpt lat="41.426550" lon="-4.630967">
        <ele>1880.0</ele>
        <time>2016-07-12T14:45:13Z</time>
      </trkpt>
      <trkpt lat="41.426450" lon="-4.630917">
        <ele>1881.0</ele>
        <time>2016-07-12T14:45:14Z</time>
      </trkpt>
      <trkpt lat="41.426350" lon="-4.630883">
        <ele>1882.0</ele>
        <time>2016-07-12T14:45:15Z</time>
      </trkpt>
      <trkpt lat="41.426233" lon="-4.630867">
        <ele>1883.0</ele>
        <time>2016-07-12T14:45:16Z</time>
      </trkpt>
      <trkpt lat="41.426117" lon="-4.630883">
        <ele>1885.0</ele>
        <time>2016-07-12T14:45:17Z</time>
      </trkpt>
      <trkpt lat="41.426000" lon="-4.630900">
        <ele>1887.0</ele>
        <time>2016-07-12T14:45:18Z</time>
      </trkpt>
      <trkpt lat="41.425900" lon="-4.630933">
        <ele>1888.0</ele>
        <time>2016-07-12T14:45:19Z</time>
      </trkpt>
      <trkpt lat="41.425783" lon="-4.630967">
        <ele>1889.0</ele>
        <time>2016-07-12T14:45:20Z</time>
      </trkpt>
      <trkpt lat="41.425683" lon="-4.631033">
        <ele>1891.0</ele>
        <time>2016-07-12T14:45:21Z</time>
      </trkpt>
      <trkpt lat="41.425567" lon="-4.631117">
        <ele>1893.0</ele>
        <time>2016-07-12T14:45:22Z</time>
      </trkpt>
      <trkpt lat="41.425450" lon="-4.631183">
        <ele>1897.0</ele>
        <time>2016-07-12T14:45:23Z</time>
      </trkpt>
      <trkpt lat="41.425367" lon="-4.631267">
        <ele>1901.0</ele>
        <time>2016-07-12T14:45:24Z</time>
      </trkpt>
      <trkpt lat="41.425267" lon="-4.631333">
        <ele>1905.0</ele>
        <time>2016-07-12T14:45:25Z</time>
      </trkpt>
      <trkpt lat="41.425200" lon="-4.631417">
        <ele>1908.0</ele>
        <time>2016-07-12T14:45:26Z</time>
      </trkpt>
      <trkpt lat="41.425133" lon="-4.631517">
        <ele>1910.0</ele>
        <time>2016-07-12T14:45:27Z</time>
      </trkpt>
      <trkpt lat="41.425083" lon="-4.631650">
        <ele>1911.0</ele>
        <time>2016-07-12T14:45:28Z</time>
      </trkpt>
      <trkpt lat="41.425067" lon="-4.631783">
        <ele>1912.0</ele>
        <time>2016-07-12T14:45:29Z</time>
      </trkpt>
      <trkpt lat="41.425050" lon="-4.631917">
        <ele>1915.0</ele>
        <time>2016-07-12T14:45:30Z</time>
      </trkpt>
      <trkpt lat="41.425050" lon="-4.632050">
        <ele>1918.0</ele>
        <time>2016-07-12T14:45:31Z</time>
      </trkpt>
      <trkpt lat="41.425050" lon="-4.632150">
        <ele>1922.0</ele>
        <time>2016-07-12T14:45:32Z</time>
      </trkpt>
      <trkpt lat="41.425050" lon="-4.632250">
        <ele>1925.0</ele>
        <time>2016-07-12T14:45:33Z</time>
      </trkpt>
      <trkpt lat="41.425033" lon="-4.632317">
        <ele>1928.0</ele>
        <time>2016-07-12T14:45:34Z</time>
      </trkpt>
      <trkpt lat="41.425017" lon="-4.632400">
        <ele>1930.0</ele>
        <time>2016-07-12T14:45:35Z</time>
      </trkpt>
      <trkpt lat="41.425033" lon="-4.632467">
        <ele>1930.0</ele>
        <time>2016-07-12T14:45:36Z</time>
      </trkpt>
      <trkpt lat="41.425050" lon="-4.632550">
        <ele>1930.0</ele>
        <time>2016-07-12T14:45:37Z</time>
      </trkpt>
      <trkpt lat="41.425067" lon="-4.632650">
        <ele>1930.0</ele>
        <time>2016-07-12T14:45:38Z</time>
      </trkpt>
      <trkpt lat="41.425117" lon="-4.632733">
        <ele>1930.0</ele>
        <time>2016-07-12T14:45:39Z</time>
      </trkpt>
      <trkpt lat="41.425167" lon="-4.632833">
        <ele>1931.0</ele>
        <time>2016-07-12T14:45:40Z</time>
      </trkpt>
      <trkpt lat="41.425217" lon="-4.632917">
        <ele>1932.0</ele>
        <time>2016-07-12T14:45:41Z</time>
      </trkpt>
      <trkpt lat="41.425267" lon="-4.633000">
        <ele>1932.0</ele>
        <time>2016-07-12T14:45:42Z</time>
      </trkpt>
      <trkpt lat="41.425300" lon="-4.633083">
        <ele>1934.0</ele>
        <time>2016-07-12T14:45:43Z</time>
      </trkpt>
      <trkpt lat="41.425300" lon="-4.633183">
        <ele>1935.0</ele>
        <time>2016-07-12T14:45:44Z</time>
      </trkpt>
      <trkpt lat="41.425283" lon="-4.633250">
        <ele>1937.0</ele>
        <time>2016-07-12T14:45:45Z</time>
      </trkpt>
      <trkpt lat="41.425267" lon="-4.633317">
        <ele>1938.0</ele>
        <time>2016-07-12T14:45:46Z</time>
      </trkpt>
      <trkpt lat="41.425250" lon="-4.633383">
        <ele>1939.0</ele>
        <time>2016-07-12T14:45:47Z</time>
      </trkpt>
      <trkpt lat="41.425250" lon="-4.633467">
        <ele>1940.0</ele>
        <time>2016-07-12T14:45:48Z</time>
      </trkpt>
      <trkpt lat="41.425217" lon="-4.633550">
        <ele>1939.0</ele>
        <time>2016-07-12T14:45:49Z</time>
      </trkpt>
      <trkpt lat="41.425183" lon="-4.633650">
        <ele>1939.0</ele>
        <time>2016-07-12T14:45:50Z</time>
      </trkpt>
      <trkpt lat="41.425117" lon="-4.633733">
        <ele>1939.0</ele>
        <time>2016-07-12T14:45:51Z</time>
      </trkpt>
      <trkpt lat="41.425050" lon="-4.633783">
        <ele>1938.0</ele>
        <time>2016-07-12T14:45:52Z</time>
      </trkpt>
      <trkpt lat="41.424950" lon="-4.633833">
        <ele>1936.0</ele>
        <time>2016-07-12T14:45:53Z</time>
      </trkpt>
      <trkpt lat="41.424850" lon="-4.633850">
        <ele>1934.0</ele>
        <time>2016-07-12T14:45:54Z</time>
      </trkpt>
      <trkpt lat="41.424750" lon="-4.633850">
        <ele>1933.0</ele>
        <time>2016-07-12T14:45:55Z</time>
      </trkpt>
      <trkpt lat="41.424633" lon="-4.633817">
        <ele>1932.0</ele>
        <time>2016-07-12T14:45:56Z</time>
      </trkpt>
      <trkpt lat="41.424533" lon="-4.633767">
        <ele>1931.0</ele>
        <time>2016-07-12T14:45:57Z</time>
      </trkpt>
      <trkpt lat="41.424417" lon="-4.633700">
        <ele>1930.0</ele>
        <time>2016-07-12T14:45:58Z</time>
      </trkpt>
      <trkpt lat="41.424317" lon="-4.633633">
        <ele>1928.0</ele>
        <time>2016-07-12T14:45:59Z</time>
      </trkpt>
      <trkpt lat="41.424233" lon="-4.633550">
        <ele>1927.0</ele>
        <time>2016-07-12T14:46:00Z</time>
      </trkpt>
      <trkpt lat="41.424133" lon="-4.633450">
        <ele>1925.0</ele>
        <time>2016-07-12T14:46:01Z</time>
      </trkpt>
      <trkpt lat="41.424050" lon="-4.633333">
        <ele>1923.0</ele>
        <time>2016-07-12T14:46:02Z</time>
      </trkpt>
      <trkpt lat="41.423967" lon="-4.633233">
        <ele>1922.0</ele>
        <time>2016-07-12T14:46:03Z</time>
      </trkpt>
      <trkpt lat="41.423883" lon="-4.633117">
        <ele>1921.0</ele>
        <time>2016-07-12T14:46:04Z</time>
      </trkpt>
      <trkpt lat="41.423800" lon="-4.633017">
        <ele>1919.0</ele>
        <time>2016-07-12T14:46:05Z</time>
      </trkpt>
      <trkpt lat="41.423717" lon="-4.632917">
        <ele>1919.0</ele>
        <time>2016-07-12T14:46:06Z</time>
      </trkpt>
      <trkpt lat="41.423650" lon="-4.632800">
        <ele>1918.0</ele>
        <time>2016-07-12T14:46:07Z</time>
      </trkpt>
      <trkpt lat="41.423583" lon="-4.632683">
        <ele>1916.0</ele>
        <time>2016-07-12T14:46:08Z</time>
      </trkpt>
      <trkpt lat="41.423517" lon="-4.632583">
        <ele>1915.0</ele>
        <time>2016-07-12T14:46:09Z</time>
      </trkpt>
      <trkpt lat="41.423467" lon="-4.632467">
        <ele>1914.0</ele>
        <time>2016-07-12T14:46:10Z</time>
      </trkpt>
      <trkpt lat="41.423417" lon="-4.632367">
        <ele>1912.0</ele>
        <time>2016-07-12T14:46:11Z</time>
      </trkpt>
      <trkpt lat="41.423367" lon="-4.632250">
        <ele>1910.0</ele>
        <time>2016-07-12T14:46:12Z</time>
      </trkpt>
      <trkpt lat="41.423317" lon="-4.632117">
        <ele>1907.0</ele>
        <time>2016-07-12T14:46:13Z</time>
      </trkpt>
      <trkpt lat="41.423283" lon="-4.631983">
        <ele>1906.0</ele>
        <time>2016-07-12T14:46:14Z</time>
      </trkpt>
      <trkpt lat="41.423233" lon="-4.631850">
        <ele>1908.0</ele>
        <time>2016-07-12T14:46:15Z</time>
      </trkpt>
      <trkpt lat="41.423183" lon="-4.631750">
        <ele>1911.0</ele>
        <time>2016-07-12T14:46:16Z</time>
      </trkpt>
      <trkpt lat="41.423117" lon="-4.631683">
        <ele>1912.0</ele>
        <time>2016-07-12T14:46:17Z</time>
      </trkpt>
      <trkpt lat="41.423050" lon="-4.631617">
        <ele>1913.0</ele>
        <time>2016-07-12T14:46:18Z</time>
      </trkpt>
      <trkpt lat="41.422967" lon="-4.631550">
        <ele>1912.0</ele>
        <time>2016-07-12T14:46:19Z</time>
      </trkpt>
      <trkpt lat="41.422883" lon="-4.631450">
        <ele>1911.0</ele>
        <time>2016-07-12T14:46:20Z</time>
      </trkpt>
      <trkpt lat="41.422800" lon="-4.631333">
        <ele>1912.0</ele>
        <time>2016-07-12T14:46:21Z</time>
      </trkpt>
      <trkpt lat="41.422733" lon="-4.631217">
        <ele>1913.0</ele>
        <time>2016-07-12T14:46:22Z</time>
      </trkpt>
      <trkpt lat="41.422683" lon="-4.631117">
        <ele>1915.0</ele>
        <time>2016-07-12T14:46:23Z</time>
      </trkpt>
      <trkpt lat="41.422650" lon="-4.631033">
        <ele>1918.0</ele>
        <time>2016-07-12T14:46:24Z</time>
      </trkpt>
      <trkpt lat="41.422600" lon="-4.630967">
        <ele>1921.0</ele>
        <time>2016-07-12T14:46:25Z</time>
      </trkpt>
      <trkpt lat="41.422533" lon="-4.630883">
        <ele>1923.0</ele>
        <time>2016-07-12T14:46:26Z</time>
      </trkpt>
      <trkpt lat="41.422467" lon="-4.630800">
        <ele>1925.0</ele>
        <time>2016-07-12T14:46:27Z</time>
      </trkpt>
      <trkpt lat="41.422383" lon="-4.630700">
        <ele>1927.0</ele>
        <time>2016-07-12T14:46:28Z</time>
      </trkpt>
      <trkpt lat="41.422317" lon="-4.630583">
        <ele>1931.0</ele>
        <time>2016-07-12T14:46:29Z</time>
      </trkpt>
      <trkpt lat="41.422233" lon="-4.630483">
        <ele>1935.0</ele>
        <time>2016-07-12T14:46:30Z</time>
      </trkpt>
      <trkpt lat="41.422150" lon="-4.630383">
        <ele>1939.0</ele>
        <time>2016-07-12T14:46:31Z</time>
      </trkpt>
      <trkpt lat="41.422083" lon="-4.630300">
        <ele>1942.0</ele>
        <time>2016-07-12T14:46:32Z</time>
      </trkpt>
      <trkpt lat="41.422017" lon="-4.630217">
        <ele>1944.0</ele>
        <time>2016-07-12T14:46:33Z</time>
      </trkpt>
      <trkpt lat="41.421933" lon="-4.630117">
        <ele>1945.0</ele>
        <time>2016-07-12T14:46:34Z</time>
      </trkpt>
      <trkpt lat="41.421867" lon="-4.630000">
        <ele>1948.0</ele>
        <time>2016-07-12T14:46:35Z</time>
      </trkpt>
      <trkpt lat="41.421800" lon="-4.629900">
        <ele>1951.0</ele>
        <time>2016-07-12T14:46:36Z</time>
      </trkpt>
      <trkpt lat="41.421733" lon="-4.629800">
        <ele>1954.0</ele>
        <time>2016-07-12T14:46:37Z</time>
      </trkpt>
      <trkpt lat="41.421650" lon="-4.629717">
        <ele>1957.0</ele>
        <time>2016-07-12T14:46:38Z</time>
      </trkpt>
      <trkpt lat="41.421567" lon="-4.629633">
        <ele>1960.0</ele>
        <time>2016-07-12T14:46:39Z</time>
      </trkpt>
      <trkpt lat="41.421483" lon="-4.629567">
        <ele>1962.0</ele>
        <time>2016-07-12T14:46:40Z</time>
      </trkpt>
      <trkpt lat="41.421400" lon="-4.629500">
        <ele>1966.0</ele>
        <time>2016-07-12T14:46:41Z</time>
      </trkpt>
      <trkpt lat="41.421300" lon="-4.629450">
        <ele>1969.0</ele>
        <time>2016-07-12T14:46:42Z</time>
      </trkpt>
      <trkpt lat="41.421200" lon="-4.629417">
        <ele>1972.0</ele>
        <time>2016-07-12T14:46:43Z</time>
      </trkpt>
      <trkpt lat="41.421083" lon="-4.629433">
        <ele>1974.0</ele>
        <time>2016-07-12T14:46:44Z</time>
      </trkpt>
      <trkpt lat="41.420967" lon="-4.629467">
        <ele>1976.0</ele>
        <time>2016-07-12T14:46:45Z</time>
      </trkpt>
      <trkpt lat="41.420867" lon="-4.629517">
        <ele>1980.0</ele>
        <time>2016-07-12T14:46:46Z</time>
      </trkpt>
      <trkpt lat="41.420783" lon="-4.629567">
        <ele>1985.0</ele>
        <time>2016-07-12T14:46:47Z</time>
      </trkpt>
      <trkpt lat="41.420717" lon="-4.629633">
        <ele>1988.0</ele>
        <time>2016-07-12T14:46:48Z</time>
      </trkpt>
      <trkpt lat="41.420683" lon="-4.629700">
        <ele>1990.0</ele>
        <time>2016-07-12T14:46:49Z</time>
      </trkpt>
      <trkpt lat="41.420683" lon="-4.629783">
        <ele>1992.0</ele>
        <time>2016-07-12T14:46:50Z</time>
      </trkpt>
      <trkpt lat="41.420683" lon="-4.629867">
        <ele>1993.0</ele>
        <time>2016-07-12T14:46:51Z</time>
      </trkpt>
      <trkpt lat="41.420700" lon="-4.629950">
        <ele>1995.0</ele>
        <time>2016-07-12T14:46:52Z</time>
      </trkpt>
      <trkpt lat="41.420733" lon="-4.630000">
        <ele>1997.0</ele>
        <time>2016-07-12T14:46:53Z</time>
      </trkpt>
      <trkpt lat="41.420800" lon="-4.630033">
        <ele>1998.0</ele>
        <time>2016-07-12T14:46:54Z</time>
      </trkpt>
      <trkpt lat="41.420883" lon="-4.630033">
        <ele>2000.0</ele>
        <time>2016-07-12T14:46:55Z</time>
      </trkpt>
      <trkpt lat="41.420933" lon="-4.630000">
        <ele>2005.0</ele>
        <time>2016-07-12T14:46:56Z</time>
      </trkpt>
      <trkpt lat="41.420967" lon="-4.629967">
        <ele>2009.0</ele>
        <time>2016-07-12T14:46:57Z</time>
      </trkpt>
      <trkpt lat="41.420983" lon="-4.629917">
        <ele>2013.0</ele>
        <time>2016-07-12T14:46:58Z</time>
      </trkpt>
      <trkpt lat="41.421000" lon="-4.629850">
        <ele>2015.0</ele>
        <time>2016-07-12T14:46:59Z</time>
      </trkpt>
      <trkpt lat="41.421033" lon="-4.629800">
        <ele>2016.0</ele>
        <time>2016-07-12T14:47:00Z</time>
      </trkpt>
      <trkpt lat="41.421083" lon="-4.629750">
        <ele>2017.0</ele>
        <time>2016-07-12T14:47:01Z</time>
      </trkpt>
      <trkpt lat="41.421117" lon="-4.629683">
        <ele>2019.0</ele>
        <time>2016-07-12T14:47:02Z</time>
      </trkpt>
      <trkpt lat="41.421133" lon="-4.629600">
        <ele>2022.0</ele>
        <time>2016-07-12T14:47:03Z</time>
      </trkpt>
      <trkpt lat="41.421133" lon="-4.629500">
        <ele>2024.0</ele>
        <time>2016-07-12T14:47:04Z</time>
      </trkpt>
      <trkpt lat="41.421117" lon="-4.629383">
        <ele>2026.0</ele>
        <time>2016-07-12T14:47:05Z</time>
      </trkpt>
      <trkpt lat="41.421083" lon="-4.629283">
        <ele>2027.0</ele>
        <time>2016-07-12T14:47:06Z</time>
      </trkpt>
      <trkpt lat="41.421050" lon="-4.629183">
        <ele>2029.0</ele>
        <time>2016-07-12T14:47:07Z</time>
      </trkpt>
      <trkpt lat="41.421017" lon="-4.629083">
        <ele>2031.0</ele>
        <time>2016-07-12T14:47:08Z</time>
      </trkpt>
      <trkpt lat="41.420950" lon="-4.628983">
        <ele>2032.0</ele>
        <time>2016-07-12T14:47:09Z</time>
      </trkpt>
      <trkpt lat="41.420867" lon="-4.628883">
        <ele>2034.0</ele>
        <time>2016-07-12T14:47:10Z</time>
      </trkpt>
      <trkpt lat="41.420783" lon="-4.628800">
        <ele>2036.0</ele>
        <time>2016-07-12T14:47:11Z</time>
      </trkpt>
      <trkpt lat="41.420700" lon="-4.628717">
        <ele>2039.0</ele>
        <time>2016-07-12T14:47:12Z</time>
      </trkpt>
      <trkpt lat="41.420600" lon="-4.628650">
        <ele>2041.0</ele>
        <time>2016-07-12T14:47:13Z</time>
      </trkpt>
      <trkpt lat="41.420500" lon="-4.628583">
        <ele>2042.0</ele>
        <time>2016-07-12T14:47:14Z</time>
      </trkpt>
      <trkpt lat="41.420383" lon="-4.628533">
        <ele>2044.0</ele>
        <time>2016-07-12T14:47:15Z</time>
      </trkpt>
      <trkpt lat="41.420267" lon="-4.628500">
        <ele>2047.0</ele>
        <time>2016-07-12T14:47:16Z</time>
      </trkpt>
      <trkpt lat="41.420150" lon="-4.628483">
        <ele>2051.0</ele>
        <time>2016-07-12T14:47:17Z</time>
      </trkpt>
      <trkpt lat="41.420050" lon="-4.628467">
        <ele>2055.0</ele>
        <time>2016-07-12T14:47:18Z</time>
      </trkpt>
      <trkpt lat="41.419950" lon="-4.628433">
        <ele>2059.0</ele>
        <time>2016-07-12T14:47:19Z</time>
      </trkpt>
      <trkpt lat="41.419850" lon="-4.628417">
        <ele>2062.0</ele>
        <time>2016-07-12T14:47:20Z</time>
      </trkpt>
      <trkpt lat="41.419750" lon="-4.628417">
        <ele>2065.0</ele>
        <time>2016-07-12T14:47:21Z</time>
      </trkpt>
      <trkpt lat="41.419650" lon="-4.628433">
        <ele>2067.0</ele>
        <time>2016-07-12T14:47:22Z</time>
      </trkpt>
      <trkpt lat="41.419533" lon="-4.628450">
        <ele>2070.0</ele>
        <time>2016-07-12T14:47:23Z</time>
      </trkpt>
      <trkpt lat="41.419433" lon="-4.628467">
        <ele>2073.0</ele>
        <time>2016-07-12T14:47:24Z</time>
      </trkpt>
      <trkpt lat="41.419333" lon="-4.628500">
        <ele>2078.0</ele>
        <time>2016-07-12T14:47:25Z</time>
      </trkpt>
      <trkpt lat="41.419267" lon="-4.628567">
        <ele>2081.0</ele>
        <time>2016-07-12T14:47:26Z</time>
      </trkpt>
      <trkpt lat="41.419217" lon="-4.628667">
        <ele>2082.0</ele>
        <time>2016-07-12T14:47:27Z</time>
      </trkpt>
      <trkpt lat="41.419183" lon="-4.628767">
        <ele>2084.0</ele>
        <time>2016-07-12T14:47:28Z</time>
      </trkpt>
      <trkpt lat="41.419167" lon="-4.628883">
        <ele>2087.0</ele>
        <time>2016-07-12T14:47:29Z</time>
      </trkpt>
      <trkpt lat="41.419133" lon="-4.628983">
        <ele>2089.0</ele>
        <time>2016-07-12T14:47:30Z</time>
      </trkpt>
      <trkpt lat="41.419117" lon="-4.629083">
        <ele>2092.0</ele>
        <time>2016-07-12T14:47:31Z</time>
      </trkpt>
      <trkpt lat="41.419117" lon="-4.629167">
        <ele>2093.0</ele>
        <time>2016-07-12T14:47:32Z</time>
      </trkpt>
      <trkpt lat="41.419150" lon="-4.629217">
        <ele>2093.0</ele>
        <time>2016-07-12T14:47:33Z</time>
      </trkpt>
      <trkpt lat="41.419200" lon="-4.629250">
        <ele>2095.0</ele>
        <time>2016-07-12T14:47:34Z</time>
      </trkpt>
      <trkpt lat="41.419250" lon="-4.629267">
        <ele>2097.0</ele>
        <time>2016-07-12T14:47:35Z</time>
      </trkpt>
      <trkpt lat="41.419317" lon="-4.629267">
        <ele>2100.0</ele>
        <time>2016-07-12T14:47:36Z</time>
      </trkpt>
      <trkpt lat="41.419367" lon="-4.629267">
        <ele>2103.0</ele>
        <time>2016-07-12T14:47:37Z</time>
      </trkpt>
      <trkpt lat="41.419433" lon="-4.629267">
        <ele>2105.0</ele>
        <time>2016-07-12T14:47:38Z</time>
      </trkpt>
      <trkpt lat="41.419483" lon="-4.629233">
        <ele>2108.0</ele>
        <time>2016-07-12T14:47:39Z</time>
      </trkpt>
      <trkpt lat="41.419533" lon="-4.629183">
        <ele>2110.0</ele>
        <time>2016-07-12T14:47:40Z</time>
      </trkpt>
      <trkpt lat="41.419567" lon="-4.629083">
        <ele>2110.0</ele>
        <time>2016-07-12T14:47:41Z</time>
      </trkpt>
      <trkpt lat="41.419567" lon="-4.628967">
        <ele>2111.0</ele>
        <time>2016-07-12T14:47:42Z</time>
      </trkpt>
      <trkpt lat="41.419550" lon="-4.628833">
        <ele>2114.0</ele>
        <time>2016-07-12T14:47:43Z</time>
      </trkpt>
      <trkpt lat="41.419517" lon="-4.628717">
        <ele>2117.0</ele>
        <time>2016-07-12T14:47:44Z</time>
      </trkpt>
      <trkpt lat="41.419467" lon="-4.628617">
        <ele>2120.0</ele>
        <time>2016-07-12T14:47:45Z</time>
      </trkpt>
      <trkpt lat="41.419417" lon="-4.628517">
        <ele>2122.0</ele>
        <time>2016-07-12T14:47:46Z</time>
      </trkpt>
      <trkpt lat="41.419367" lon="-4.628417">
        <ele>2123.0</ele>
        <time>2016-07-12T14:47:47Z</time>
      </trkpt>
      <trkpt lat="41.419300" lon="-4.628300">
        <ele>2125.0</ele>
        <time>2016-07-12T14:47:48Z</time>
      </trkpt>
      <trkpt lat="41.419233" lon="-4.628217">
        <ele>2128.0</ele>
        <time>2016-07-12T14:47:49Z</time>
      </trkpt>
      <trkpt lat="41.419133" lon="-4.628150">
        <ele>2131.0</ele>
        <time>2016-07-12T14:47:50Z</time>
      </trkpt>
      <trkpt lat="41.419050" lon="-4.628117">
        <ele>2133.0</ele>
        <time>2016-07-12T14:47:51Z</time>
      </trkpt>
      <trkpt lat="41.418950" lon="-4.628100">
        <ele>2134.0</ele>
        <time>2016-07-12T14:47:52Z</time>
      </trkpt>
      <trkpt lat="41.418850" lon="-4.628100">
        <ele>2136.0</ele>
        <time>2016-07-12T14:47:53Z</time>
      </trkpt>
      <trkpt lat="41.418750" lon="-4.628133">
        <ele>2137.0</ele>
        <time>2016-07-12T14:47:54Z</time>
      </trkpt>
      <trkpt lat="41.418650" lon="-4.628217">
        <ele>2139.0</ele>
        <time>2016-07-12T14:47:55Z</time>
      </trkpt>
      <trkpt lat="41.418583" lon="-4.628350">
        <ele>2141.0</ele>
        <time>2016-07-12T14:47:56Z</time>
      </trkpt>
      <trkpt lat="41.418550" lon="-4.628450">
        <ele>2145.0</ele>
        <time>2016-07-12T14:47:57Z</time>
      </trkpt>
      <trkpt lat="41.418533" lon="-4.628550">
        <ele>2149.0</ele>
        <time>2016-07-12T14:47:58Z</time>
      </trkpt>
      <trkpt lat="41.418500" lon="-4.628633">
        <ele>2153.0</ele>
        <time>2016-07-12T14:47:59Z</time>
      </trkpt>
      <trkpt lat="41.418467" lon="-4.628717">
        <ele>2155.0</ele>
        <time>2016-07-12T14:48:00Z</time>
      </trkpt>
      <trkpt lat="41.418450" lon="-4.628800">
        <ele>2157.0</ele>
        <time>2016-07-12T14:48:01Z</time>
      </trkpt>
      <trkpt lat="41.418450" lon="-4.628883">
        <ele>2157.0</ele>
        <time>2016-07-12T14:48:02Z</time>
      </trkpt>
      <trkpt lat="41.418467" lon="-4.628967">
        <ele>2157.0</ele>
        <time>2016-07-12T14:48:03Z</time>
      </trkpt>
      <trkpt lat="41.418533" lon="-4.629033">
        <ele>2159.0</ele>
        <time>2016-07-12T14:48:04Z</time>
      </trkpt>
      <trkpt lat="41.418583" lon="-4.629083">
        <ele>2163.0</ele>
        <time>2016-07-12T14:48:05Z</time>
      </trkpt>
      <trkpt lat="41.418617" lon="-4.629100">
        <ele>2167.0</ele>
        <time>2016-07-12T14:48:06Z</time>
      </trkpt>
      <trkpt lat="41.418633" lon="-4.629117">
        <ele>2171.0</ele>
        <time>2016-07-12T14:48:07Z</time>
      </trkpt>
      <trkpt lat="41.418667" lon="-4.629117">
        <ele>2172.0</ele>
        <time>2016-07-12T14:48:08Z</time>
      </trkpt>
      <trkpt lat="41.418717" lon="-4.629133">
        <ele>2173.0</ele>
        <time>2016-07-12T14:48:09Z</time>
      </trkpt>
      <trkpt lat="41.418783" lon="-4.629117">
        <ele>2174.0</ele>
        <time>2016-07-12T14:48:10Z</time>
      </trkpt>
      <trkpt lat="41.418833" lon="-4.629083">
        <ele>2175.0</ele>
        <time>2016-07-12T14:48:11Z</time>
      </trkpt>
      <trkpt lat="41.418867" lon="-4.629000">
        <ele>2177.0</ele>
        <time>2016-07-12T14:48:12Z</time>
      </trkpt>
      <trkpt lat="41.418883" lon="-4.628883">
        <ele>2178.0</ele>
        <time>2016-07-12T14:48:13Z</time>
      </trkpt>
      <trkpt lat="41.418850" lon="-4.628750">
        <ele>2179.0</ele>
        <time>2016-07-12T14:48:14Z</time>
      </trkpt>
      <trkpt lat="41.418800" lon="-4.628633">
        <ele>2182.0</ele>
        <time>2016-07-12T14:48:15Z</time>
      </trkpt>
      <trkpt lat="41.418750" lon="-4.628533">
        <ele>2184.0</ele>
        <time>2016-07-12T14:48:16Z</time>
      </trkpt>
      <trkpt lat="41.418667" lon="-4.628450">
        <ele>2185.0</ele>
        <time>2016-07-12T14:48:17Z</time>
      </trkpt>
      <trkpt lat="41.418583" lon="-4.628367">
        <ele>2185.0</ele>
        <time>2016-07-12T14:48:18Z</time>
      </trkpt>
      <trkpt lat="41.418483" lon="-4.628283">
        <ele>2186.0</ele>
        <time>2016-07-12T14:48:19Z</time>
      </trkpt>
      <trkpt lat="41.418383" lon="-4.628217">
        <ele>2187.0</ele>
        <time>2016-07-12T14:48:20Z</time>
      </trkpt>
      <trkpt lat="41.418267" lon="-4.628200">
        <ele>2189.0</ele>
        <time>2016-07-12T14:48:21Z</time>
      </trkpt>
      <trkpt lat="41.418150" lon="-4.628200">
        <ele>2190.0</ele>
        <time>2016-07-12T14:48:22Z</time>
      </trkpt>
      <trkpt lat="41.418033" lon="-4.628233">
        <ele>2192.0</ele>
        <time>2016-07-12T14:48:23Z</time>
      </trkpt>
      <trkpt lat="41.417933" lon="-4.628283">
        <ele>2193.0</ele>
        <time>2016-07-12T14:48:24Z</time>
      </trkpt>
      <trkpt lat="41.417833" lon="-4.628367">
        <ele>2194.0</ele>
        <time>2016-07-12T14:48:25Z</time>
      </trkpt>
      <trkpt lat="41.417767" lon="-4.628467">
        <ele>2194.0</ele>
        <time>2016-07-12T14:48:26Z</time>
      </trkpt>
      <trkpt lat="41.417733" lon="-4.628583">
        <ele>2196.0</ele>
        <time>2016-07-12T14:48:27Z</time>
      </trkpt>
      <trkpt lat="41.417700" lon="-4.628717">
        <ele>2197.0</ele>
        <time>2016-07-12T14:48:28Z</time>
      </trkpt>
      <trkpt lat="41.417700" lon="-4.628833">
        <ele>2199.0</ele>
        <time>2016-07-12T14:48:29Z</time>
      </trkpt>
      <trkpt lat="41.417683" lon="-4.628950">
        <ele>2202.0</ele>
        <time>2016-07-12T14:48:30Z</time>
      </trkpt>
      <trkpt lat="41.417667" lon="-4.629050">
        <ele>2206.0</ele>
        <time>2016-07-12T14:48:31Z</time>
      </trkpt>
      <trkpt lat="41.417650" lon="-4.629133">
        <ele>2208.0</ele>
        <time>2016-07-12T14:48:32Z</time>
      </trkpt>
      <trkpt lat="41.417650" lon="-4.629200">
        <ele>2210.0</ele>
        <time>2016-07-12T14:48:33Z</time>
      </trkpt>
      <trkpt lat="41.417667" lon="-4.629283">
        <ele>2210.0</ele>
        <time>2016-07-12T14:48:34Z</time>
      </trkpt>
      <trkpt lat="41.417700" lon="-4.629367">
        <ele>2210.0</ele>
        <time>2016-07-12T14:48:35Z</time>
      </trkpt>
      <trkpt lat="41.417750" lon="-4.629433">
        <ele>2211.0</ele>
        <time>2016-07-12T14:48:36Z</time>
      </trkpt>
      <trkpt lat="41.417800" lon="-4.629500">
        <ele>2213.0</ele>
        <time>2016-07-12T14:48:37Z</time>
      </trkpt>
      <trkpt lat="41.417833" lon="-4.629533">
        <ele>2216.0</ele>
        <time>2016-07-12T14:48:38Z</time>
      </trkpt>
      <trkpt lat="41.417883" lon="-4.629533">
        <ele>2218.0</ele>
        <time>2016-07-12T14:48:39Z</time>
      </trkpt>
      <trkpt lat="41.417933" lon="-4.629550">
        <ele>2218.0</ele>
        <time>2016-07-12T14:48:40Z</time>
      </trkpt>
      <trkpt lat="41.417983" lon="-4.629567">
        <ele>2219.0</ele>
        <time>2016-07-12T14:48:41Z</time>
      </trkpt>
      <trkpt lat="41.418050" lon="-4.629550">
        <ele>2220.0</ele>
        <time>2016-07-12T14:48:42Z</time>
      </trkpt>
      <trkpt lat="41.418100" lon="-4.629517">
        <ele>2221.0</ele>
        <time>2016-07-12T14:48:43Z</time>
      </trkpt>
      <trkpt lat="41.418150" lon="-4.629450">
        <ele>2223.0</ele>
        <time>2016-07-12T14:48:44Z</time>
      </trkpt>
      <trkpt lat="41.418167" lon="-4.629367">
        <ele>2224.0</ele>
        <time>2016-07-12T14:48:45Z</time>
      </trkpt>
      <trkpt lat="41.418183" lon="-4.629267">
        <ele>2225.0</ele>
        <time>2016-07-12T14:48:46Z</time>
      </trkpt>
      <trkpt lat="41.418183" lon="-4.629150">
        <ele>2225.0</ele>
        <time>2016-07-12T14:48:47Z</time>
      </trkpt>
      <trkpt lat="41.418167" lon="-4.629050">
        <ele>2226.0</ele>
        <time>2016-07-12T14:48:48Z</time>
      </trkpt>
      <trkpt lat="41.418117" lon="-4.628933">
        <ele>2226.0</ele>
        <time>2016-07-12T14:48:49Z</time>
      </trkpt>
      <trkpt lat="41.418050" lon="-4.628833">
        <ele>2226.0</ele>
        <time>2016-07-12T14:48:50Z</time>
      </trkpt>
      <trkpt lat="41.417933" lon="-4.628767">
        <ele>2226.0</ele>
        <time>2016-07-12T14:48:51Z</time>
      </trkpt>
      <trkpt lat="41.417817" lon="-4.628733">
        <ele>2226.0</ele>
        <time>2016-07-12T14:48:52Z</time>
      </trkpt>
      <trkpt lat="41.417700" lon="-4.628750">
        <ele>2227.0</ele>
        <time>2016-07-12T14:48:53Z</time>
      </trkpt>
      <trkpt lat="41.417583" lon="-4.628800">
        <ele>2228.0</ele>
        <time>2016-07-12T14:48:54Z</time>
      </trkpt>
      <trkpt lat="41.417483" lon="-4.628867">
        <ele>2230.0</ele>
        <time>2016-07-12T14:48:55Z</time>
      </trkpt>
      <trkpt lat="41.417417" lon="-4.628950">
        <ele>2232.0</ele>
        <time>2016-07-12T14:48:56Z</time>
      </trkpt>
      <trkpt lat="41.417333" lon="-4.629050">
        <ele>2234.0</ele>
        <time>2016-07-12T14:48:57Z</time>
      </trkpt>
      <trkpt lat="41.417267" lon="-4.629133">
        <ele>2236.0</ele>
        <time>2016-07-12T14:48:58Z</time>
      </trkpt>
      <trkpt lat="41.417200" lon="-4.629233">
        <ele>2238.0</ele>
        <time>2016-07-12T14:48:59Z</time>
      </trkpt>
      <trkpt lat="41.417150" lon="-4.629317">
        <ele>2240.0</ele>
        <time>2016-07-12T14:49:00Z</time>
      </trkpt>
      <trkpt lat="41.417100" lon="-4.629417">
        <ele>2240.0</ele>
        <time>2016-07-12T14:49:01Z</time>
      </trkpt>
      <trkpt lat="41.417067" lon="-4.629517">
        <ele>2241.0</ele>
        <time>2016-07-12T14:49:02Z</time>
      </trkpt>
      <trkpt lat="41.417050" lon="-4.629633">
        <ele>2241.0</ele>
        <time>2016-07-12T14:49:03Z</time>
      </trkpt>
      <trkpt lat="41.417033" lon="-4.629733">
        <ele>2242.0</ele>
        <time>2016-07-12T14:49:04Z</time>
      </trkpt>
      <trkpt lat="41.417050" lon="-4.629833">
        <ele>2241.0</ele>
        <time>2016-07-12T14:49:05Z</time>
      </trkpt>
      <trkpt lat="41.417050" lon="-4.629917">
        <ele>2241.0</ele>
        <time>2016-07-12T14:49:06Z</time>
      </trkpt>
      <trkpt lat="41.417067" lon="-4.630017">
        <ele>2241.0</ele>
        <time>2016-07-12T14:49:07Z</time>
      </trkpt>
      <trkpt lat="41.417067" lon="-4.630100">
        <ele>2242.0</ele>
        <time>2016-07-12T14:49:08Z</time>
      </trkpt>
      <trkpt lat="41.417100" lon="-4.630167">
        <ele>2243.0</ele>
        <time>2016-07-12T14:49:09Z</time>
      </trkpt>
      <trkpt lat="41.417117" lon="-4.630233">
        <ele>2242.0</ele>
        <time>2016-07-12T14:49:10Z</time>
      </trkpt>
      <trkpt lat="41.417150" lon="-4.630300">
        <ele>2242.0</ele>
        <time>2016-07-12T14:49:11Z</time>
      </trkpt>
      <trkpt lat="41.417183" lon="-4.630367">
        <ele>2241.0</ele>
        <time>2016-07-12T14:49:12Z</time>
      </trkpt>
      <trkpt lat="41.417217" lon="-4.630433">
        <ele>2241.0</ele>
        <time>2016-07-12T14:49:13Z</time>
      </trkpt>
      <trkpt lat="41.417250" lon="-4.630450">
        <ele>2242.0</ele>
        <time>2016-07-12T14:49:14Z</time>
      </trkpt>
      <trkpt lat="41.417283" lon="-4.630433">
        <ele>2240.0</ele>
        <time>2016-07-12T14:49:15Z</time>
      </trkpt>
      <trkpt lat="41.417333" lon="-4.630383">
        <ele>2238.0</ele>
        <time>2016-07-12T14:49:16Z</time>
      </trkpt>
      <trkpt lat="41.417367" lon="-4.630300">
        <ele>2237.0</ele>
        <time>2016-07-12T14:49:17Z</time>
      </trkpt>
      <trkpt lat="41.417400" lon="-4.630217">
        <ele>2237.0</ele>
        <time>2016-07-12T14:49:18Z</time>
      </trkpt>
      <trkpt lat="41.417417" lon="-4.630117">
        <ele>2236.0</ele>
        <time>2016-07-12T14:49:19Z</time>
      </trkpt>
      <trkpt lat="41.417450" lon="-4.630017">
        <ele>2237.0</ele>
        <time>2016-07-12T14:49:20Z</time>
      </trkpt>
      <trkpt lat="41.417483" lon="-4.629917">
        <ele>2237.0</ele>
        <time>2016-07-12T14:49:21Z</time>
      </trkpt>
      <trkpt lat="41.417517" lon="-4.629833">
        <ele>2237.0</ele>
        <time>2016-07-12T14:49:22Z</time>
      </trkpt>
      <trkpt lat="41.417550" lon="-4.629733">
        <ele>2238.0</ele>
        <time>2016-07-12T14:49:23Z</time>
      </trkpt>
      <trkpt lat="41.417567" lon="-4.629617">
        <ele>2239.0</ele>
        <time>2016-07-12T14:49:24Z</time>
      </trkpt>
      <trkpt lat="41.417583" lon="-4.629517">
        <ele>2240.0</ele>
        <time>2016-07-12T14:49:25Z</time>
      </trkpt>
      <trkpt lat="41.417600" lon="-4.629433">
        <ele>2239.0</ele>
        <time>2016-07-12T14:49:26Z</time>
      </trkpt>
      <trkpt lat="41.417633" lon="-4.629333">
        <ele>2238.0</ele>
        <time>2016-07-12T14:49:27Z</time>
      </trkpt>
      <trkpt lat="41.417667" lon="-4.629217">
        <ele>2237.0</ele>
        <time>2016-07-12T14:49:28Z</time>
      </trkpt>
      <trkpt lat="41.417700" lon="-4.629100">
        <ele>2236.0</ele>
        <time>2016-07-12T14:49:29Z</time>
      </trkpt>
      <trkpt lat="41.417733" lon="-4.628967">
        <ele>2236.0</ele>
        <time>2016-07-12T14:49:30Z</time>
      </trkpt>
      <trkpt lat="41.417733" lon="-4.628833">
        <ele>2236.0</ele>
        <time>2016-07-12T14:49:31Z</time>
      </trkpt>
      <trkpt lat="41.417733" lon="-4.628717">
        <ele>2236.0</ele>
        <time>2016-07-12T14:49:32Z</time>
      </trkpt>
      <trkpt lat="41.417733" lon="-4.628583">
        <ele>2235.0</ele>
        <time>2016-07-12T14:49:33Z</time>
      </trkpt>
      <trkpt lat="41.417733" lon="-4.628450">
        <ele>2234.0</ele>
        <time>2016-07-12T14:49:34Z</time>
      </trkpt>
      <trkpt lat="41.417733" lon="-4.628333">
        <ele>2233.0</ele>
        <time>2016-07-12T14:49:35Z</time>
      </trkpt>
      <trkpt lat="41.417733" lon="-4.628200">
        <ele>2234.0</ele>
        <time>2016-07-12T14:49:36Z</time>
      </trkpt>
      <trkpt lat="41.417733" lon="-4.628067">
        <ele>2234.0</ele>
        <time>2016-07-12T14:49:37Z</time>
      </trkpt>
      <trkpt lat="41.417717" lon="-4.627950">
        <ele>2233.0</ele>
        <time>2016-07-12T14:49:38Z</time>
      </trkpt>
      <trkpt lat="41.417717" lon="-4.627817">
        <ele>2233.0</ele>
        <time>2016-07-12T14:49:39Z</time>
      </trkpt>
      <trkpt lat="41.417700" lon="-4.627667">
        <ele>2233.0</ele>
        <time>2016-07-12T14:49:40Z</time>
      </trkpt>
      <trkpt lat="41.417667" lon="-4.627533">
        <ele>2233.0</ele>
        <time>2016-07-12T14:49:41Z</time>
      </trkpt>
      <trkpt lat="41.417617" lon="-4.627383">
        <ele>2234.0</ele>
        <time>2016-07-12T14:49:42Z</time>
      </trkpt>
      <trkpt lat="41.417567" lon="-4.627267">
        <ele>2235.0</ele>
        <time>2016-07-12T14:49:43Z</time>
      </trkpt>
      <trkpt lat="41.417517" lon="-4.627133">
        <ele>2236.0</ele>
        <time>2016-07-12T14:49:44Z</time>
      </trkpt>
      <trkpt lat="41.417483" lon="-4.627017">
        <ele>2236.0</ele>
        <time>2016-07-12T14:49:45Z</time>
      </trkpt>
      <trkpt lat="41.417450" lon="-4.626867">
        <ele>2236.0</ele>
        <time>2016-07-12T14:49:46Z</time>
      </trkpt>
      <trkpt lat="41.417417" lon="-4.626717">
        <ele>2238.0</ele>
        <time>2016-07-12T14:49:47Z</time>
      </trkpt>
      <trkpt lat="41.417383" lon="-4.626583">
        <ele>2241.0</ele>
        <time>2016-07-12T14:49:48Z</time>
      </trkpt>
      <trkpt lat="41.417333" lon="-4.626483">
        <ele>2245.0</ele>
        <time>2016-07-12T14:49:49Z</time>
      </trkpt>
      <trkpt lat="41.417300" lon="-4.626383">
        <ele>2248.0</ele>
        <time>2016-07-12T14:49:50Z</time>
      </trkpt>
      <trkpt lat="41.417250" lon="-4.626267">
        <ele>2250.0</ele>
        <time>2016-07-12T14:49:51Z</time>
      </trkpt>
      <trkpt lat="41.417217" lon="-4.626150">
        <ele>2250.0</ele>
        <time>2016-07-12T14:49:52Z</time>
      </trkpt>
      <trkpt lat="41.417167" lon="-4.626017">
        <ele>2252.0</ele>
        <time>2016-07-12T14:49:53Z</time>
      </trkpt>
      <trkpt lat="41.417100" lon="-4.625900">
        <ele>2253.0</ele>
        <time>2016-07-12T14:49:54Z</time>
      </trkpt>
      <trkpt lat="41.417033" lon="-4.625783">
        <ele>2255.0</ele>
        <time>2016-07-12T14:49:55Z</time>
      </trkpt>
      <trkpt lat="41.416950" lon="-4.625683">
        <ele>2257.0</ele>
        <time>2016-07-12T14:49:56Z</time>
      </trkpt>
      <trkpt lat="41.416883" lon="-4.625600">
        <ele>2258.0</ele>
        <time>2016-07-12T14:49:57Z</time>
      </trkpt>
      <trkpt lat="41.416800" lon="-4.625517">
        <ele>2258.0</ele>
        <time>2016-07-12T14:49:58Z</time>
      </trkpt>
      <trkpt lat="41.416700" lon="-4.625433">
        <ele>2259.0</ele>
        <time>2016-07-12T14:49:59Z</time>
      </trkpt>
      <trkpt lat="41.416583" lon="-4.625367">
        <ele>2261.0</ele>
        <time>2016-07-12T14:50:00Z</time>
      </trkpt>
      <trkpt lat="41.416467" lon="-4.625317">
        <ele>2263.0</ele>
        <time>2016-07-12T14:50:01Z</time>
      </trkpt>
      <trkpt lat="41.416367" lon="-4.625250">
        <ele>2265.0</ele>
        <time>2016-07-12T14:50:02Z</time>
      </trkpt>
      <trkpt lat="41.416267" lon="-4.625167">
        <ele>2267.0</ele>
        <time>2016-07-12T14:50:03Z</time>
      </trkpt>
      <trkpt lat="41.416150" lon="-4.625083">
        <ele>2269.0</ele>
        <time>2016-07-12T14:50:04Z</time>
      </trkpt>
      <trkpt lat="41.416050" lon="-4.625017">
        <ele>2271.0</ele>
        <time>2016-07-12T14:50:05Z</time>
      </trkpt>
      <trkpt lat="41.415917" lon="-4.624967">
        <ele>2272.0</ele>
        <time>2016-07-12T14:50:06Z</time>
      </trkpt>
      <trkpt lat="41.415800" lon="-4.624917">
        <ele>2275.0</ele>
        <time>2016-07-12T14:50:07Z</time>
      </trkpt>
      <trkpt lat="41.415683" lon="-4.624883">
        <ele>2277.0</ele>
        <time>2016-07-12T14:50:08Z</time>
      </trkpt>
      <trkpt lat="41.415567" lon="-4.624833">
        <ele>2279.0</ele>
        <time>2016-07-12T14:50:09Z</time>
      </trkpt>
      <trkpt lat="41.415450" lon="-4.624783">
        <ele>2282.0</ele>
        <time>2016-07-12T14:50:10Z</time>
      </trkpt>
      <trkpt lat="41.415350" lon="-4.624717">
        <ele>2283.0</ele>
        <time>2016-07-12T14:50:11Z</time>
      </trkpt>
      <trkpt lat="41.415233" lon="-4.624650">
        <ele>2285.0</ele>
        <time>2016-07-12T14:50:12Z</time>
      </trkpt>
      <trkpt lat="41.415117" lon="-4.624600">
        <ele>2287.0</ele>
        <time>2016-07-12T14:50:13Z</time>
      </trkpt>
      <trkpt lat="41.414983" lon="-4.624600">
        <ele>2288.0</ele>
        <time>2016-07-12T14:50:14Z</time>
      </trkpt>
      <trkpt lat="41.414883" lon="-4.624650">
        <ele>2289.0</ele>
        <time>2016-07-12T14:50:15Z</time>
      </trkpt>
      <trkpt lat="41.414800" lon="-4.624717">
        <ele>2289.0</ele>
        <time>2016-07-12T14:50:16Z</time>
      </trkpt>
      <trkpt lat="41.414733" lon="-4.624800">
        <ele>2290.0</ele>
        <time>2016-07-12T14:50:17Z</time>
      </trkpt>
      <trkpt lat="41.414683" lon="-4.624867">
        <ele>2291.0</ele>
        <time>2016-07-12T14:50:18Z</time>
      </trkpt>
      <trkpt lat="41.414633" lon="-4.624950">
        <ele>2293.0</ele>
        <time>2016-07-12T14:50:19Z</time>
      </trkpt>
      <trkpt lat="41.414583" lon="-4.625050">
        <ele>2294.0</ele>
        <time>2016-07-12T14:50:20Z</time>
      </trkpt>
      <trkpt lat="41.414550" lon="-4.625150">
        <ele>2295.0</ele>
        <time>2016-07-12T14:50:21Z</time>
      </trkpt>
      <trkpt lat="41.414550" lon="-4.625267">
        <ele>2297.0</ele>
        <time>2016-07-12T14:50:22Z</time>
      </trkpt>
      <trkpt lat="41.414550" lon="-4.625333">
        <ele>2300.0</ele>
        <time>2016-07-12T14:50:23Z</time>
      </trkpt>
      <trkpt lat="41.414583" lon="-4.625400">
        <ele>2303.0</ele>
        <time>2016-07-12T14:50:24Z</time>
      </trkpt>
      <trkpt lat="41.414617" lon="-4.625450">
        <ele>2305.0</ele>
        <time>2016-07-12T14:50:25Z</time>
      </trkpt>
      <trkpt lat="41.414650" lon="-4.625483">
        <ele>2308.0</ele>
        <time>2016-07-12T14:50:26Z</time>
      </trkpt>
      <trkpt lat="41.414700" lon="-4.625500">
        <ele>2310.0</ele>
        <time>2016-07-12T14:50:27Z</time>
      </trkpt>
      <trkpt lat="41.414750" lon="-4.625500">
        <ele>2311.0</ele>
        <time>2016-07-12T14:50:28Z</time>
      </trkpt>
      <trkpt lat="41.414800" lon="-4.625483">
        <ele>2313.0</ele>
        <time>2016-07-12T14:50:29Z</time>
      </trkpt>
      <trkpt lat="41.414867" lon="-4.625450">
        <ele>2316.0</ele>
        <time>2016-07-12T14:50:30Z</time>
      </trkpt>
      <trkpt lat="41.414917" lon="-4.625400">
        <ele>2320.0</ele>
        <time>2016-07-12T14:50:31Z</time>
      </trkpt>
      <trkpt lat="41.414950" lon="-4.625333">
        <ele>2322.0</ele>
        <time>2016-07-12T14:50:32Z</time>
      </trkpt>
      <trkpt lat="41.415000" lon="-4.625267">
        <ele>2324.0</ele>
        <time>2016-07-12T14:50:33Z</time>
      </trkpt>
      <trkpt lat="41.415050" lon="-4.625167">
        <ele>2326.0</ele>
        <time>2016-07-12T14:50:34Z</time>
      </trkpt>
      <trkpt lat="41.415100" lon="-4.625050">
        <ele>2328.0</ele>
        <time>2016-07-12T14:50:35Z</time>
      </trkpt>
      <trkpt lat="41.415117" lon="-4.624917">
        <ele>2330.0</ele>
        <time>2016-07-12T14:50:36Z</time>
      </trkpt>
      <trkpt lat="41.415117" lon="-4.624783">
        <ele>2332.0</ele>
        <time>2016-07-12T14:50:37Z</time>
      </trkpt>
      <trkpt lat="41.415117" lon="-4.624633">
        <ele>2335.0</ele>
        <time>2016-07-12T14:50:38Z</time>
      </trkpt>
      <trkpt lat="41.415100" lon="-4.624500">
        <ele>2337.0</ele>
        <time>2016-07-12T14:50:39Z</time>
      </trkpt>
      <trkpt lat="41.415050" lon="-4.624383">
        <ele>2339.0</ele>
        <time>2016-07-12T14:50:40Z</time>
      </trkpt>
      <trkpt lat="41.415000" lon="-4.624267">
        <ele>2341.0</ele>
        <time>2016-07-12T14:50:41Z</time>
      </trkpt>
      <trkpt lat="41.414950" lon="-4.624167">
        <ele>2342.0</ele>
        <time>2016-07-12T14:50:42Z</time>
      </trkpt>
      <trkpt lat="41.414867" lon="-4.624067">
        <ele>2342.0</ele>
        <time>2016-07-12T14:50:43Z</time>
      </trkpt>
      <trkpt lat="41.414783" lon="-4.623983">
        <ele>2342.0</ele>
        <time>2016-07-12T14:50:44Z</time>
      </trkpt>
      <trkpt lat="41.414667" lon="-4.623917">
        <ele>2342.0</ele>
        <time>2016-07-12T14:50:45Z</time>
      </trkpt>
      <trkpt lat="41.414550" lon="-4.623900">
        <ele>2342.0</ele>
        <time>2016-07-12T14:50:46Z</time>
      </trkpt>
      <trkpt lat="41.414433" lon="-4.623933">
        <ele>2342.0</ele>
        <time>2016-07-12T14:50:47Z</time>
      </trkpt>
      <trkpt lat="41.414333" lon="-4.623983">
        <ele>2342.0</ele>
        <time>2016-07-12T14:50:48Z</time>
      </trkpt>
      <trkpt lat="41.414233" lon="-4.624050">
        <ele>2343.0</ele>
        <time>2016-07-12T14:50:49Z</time>
      </trkpt>
      <trkpt lat="41.414167" lon="-4.624133">
        <ele>2345.0</ele>
        <time>2016-07-12T14:50:50Z</time>
      </trkpt>
      <trkpt lat="41.414100" lon="-4.624217">
        <ele>2345.0</ele>
        <time>2016-07-12T14:50:51Z</time>
      </trkpt>
      <trkpt lat="41.414033" lon="-4.624317">
        <ele>2346.0</ele>
        <time>2016-07-12T14:50:52Z</time>
      </trkpt>
      <trkpt lat="41.414000" lon="-4.624417">
        <ele>2347.0</ele>
        <time>2016-07-12T14:50:53Z</time>
      </trkpt>
      <trkpt lat="41.414000" lon="-4.624517">
        <ele>2349.0</ele>
        <time>2016-07-12T14:50:54Z</time>
      </trkpt>
      <trkpt lat="41.414000" lon="-4.624600">
        <ele>2350.0</ele>
        <time>2016-07-12T14:50:55Z</time>
      </trkpt>
      <trkpt lat="41.414000" lon="-4.624683">
        <ele>2352.0</ele>
        <time>2016-07-12T14:50:56Z</time>
      </trkpt>
      <trkpt lat="41.414017" lon="-4.624767">
        <ele>2355.0</ele>
        <time>2016-07-12T14:50:57Z</time>
      </trkpt>
      <trkpt lat="41.414017" lon="-4.624867">
        <ele>2358.0</ele>
        <time>2016-07-12T14:50:58Z</time>
      </trkpt>
      <trkpt lat="41.414017" lon="-4.624933">
        <ele>2360.0</ele>
        <time>2016-07-12T14:50:59Z</time>
      </trkpt>
      <trkpt lat="41.414017" lon="-4.625017">
        <ele>2362.0</ele>
        <time>2016-07-12T14:51:00Z</time>
      </trkpt>
      <trkpt lat="41.414017" lon="-4.625100">
        <ele>2364.0</ele>
        <time>2016-07-12T14:51:01Z</time>
      </trkpt>
      <trkpt lat="41.414033" lon="-4.625200">
        <ele>2365.0</ele>
        <time>2016-07-12T14:51:02Z</time>
      </trkpt>
      <trkpt lat="41.414067" lon="-4.625283">
        <ele>2367.0</ele>
        <time>2016-07-12T14:51:03Z</time>
      </trkpt>
      <trkpt lat="41.414083" lon="-4.625350">
        <ele>2370.0</ele>
        <time>2016-07-12T14:51:04Z</time>
      </trkpt>
      <trkpt lat="41.414117" lon="-4.625400">
        <ele>2372.0</ele>
        <time>2016-07-12T14:51:05Z</time>
      </trkpt>
      <trkpt lat="41.414133" lon="-4.625450">
        <ele>2374.0</ele>
        <time>2016-07-12T14:51:06Z</time>
      </trkpt>
      <trkpt lat="41.414150" lon="-4.625517">
        <ele>2374.0</ele>
        <time>2016-07-12T14:51:07Z</time>
      </trkpt>
      <trkpt lat="41.414167" lon="-4.625583">
        <ele>2374.0</ele>
        <time>2016-07-12T14:51:08Z</time>
      </trkpt>
      <trkpt lat="41.414200" lon="-4.625650">
        <ele>2373.0</ele>
        <time>2016-07-12T14:51:09Z</time>
      </trkpt>
      <trkpt lat="41.414250" lon="-4.625667">
        <ele>2373.0</ele>
        <time>2016-07-12T14:51:10Z</time>
      </trkpt>
      <trkpt lat="41.414300" lon="-4.625633">
        <ele>2372.0</ele>
        <time>2016-07-12T14:51:11Z</time>
      </trkpt>
      <trkpt lat="41.414350" lon="-4.625567">
        <ele>2372.0</ele>
        <time>2016-07-12T14:51:12Z</time>
      </trkpt>
      <trkpt lat="41.414383" lon="-4.625483">
        <ele>2373.0</ele>
        <time>2016-07-12T14:51:13Z</time>
      </trkpt>
      <trkpt lat="41.414383" lon="-4.625383">
        <ele>2373.0</ele>
        <time>2016-07-12T14:51:14Z</time>
      </trkpt>
      <trkpt lat="41.414383" lon="-4.625267">
        <ele>2371.0</ele>
        <time>2016-07-12T14:51:15Z</time>
      </trkpt>
      <trkpt lat="41.414367" lon="-4.625133">
        <ele>2370.0</ele>
        <time>2016-07-12T14:51:16Z</time>
      </trkpt>
      <trkpt lat="41.414333" lon="-4.624967">
        <ele>2370.0</ele>
        <time>2016-07-12T14:51:17Z</time>
      </trkpt>
      <trkpt lat="41.414317" lon="-4.624817">
        <ele>2372.0</ele>
        <time>2016-07-12T14:51:18Z</time>
      </trkpt>
      <trkpt lat="41.414300" lon="-4.624667">
        <ele>2374.0</ele>
        <time>2016-07-12T14:51:19Z</time>
      </trkpt>
      <trkpt lat="41.414267" lon="-4.624517">
        <ele>2377.0</ele>
        <time>2016-07-12T14:51:20Z</time>
      </trkpt>
      <trkpt lat="41.414217" lon="-4.624383">
        <ele>2379.0</ele>
        <time>2016-07-12T14:51:21Z</time>
      </trkpt>
      <trkpt lat="41.414167" lon="-4.624250">
        <ele>2380.0</ele>
        <time>2016-07-12T14:51:22Z</time>
      </trkpt>
      <trkpt lat="41.414100" lon="-4.624100">
        <ele>2382.0</ele>
        <time>2016-07-12T14:51:23Z</time>
      </trkpt>
      <trkpt lat="41.414067" lon="-4.623950">
        <ele>2383.0</ele>
        <time>2016-07-12T14:51:24Z</time>
      </trkpt>
      <trkpt lat="41.414017" lon="-4.623817">
        <ele>2385.0</ele>
        <time>2016-07-12T14:51:25Z</time>
      </trkpt>
      <trkpt lat="41.413950" lon="-4.623683">
        <ele>2387.0</ele>
        <time>2016-07-12T14:51:26Z</time>
      </trkpt>
      <trkpt lat="41.413883" lon="-4.623583">
        <ele>2387.0</ele>
        <time>2016-07-12T14:51:27Z</time>
      </trkpt>
      <trkpt lat="41.413817" lon="-4.623467">
        <ele>2387.0</ele>
        <time>2016-07-12T14:51:28Z</time>
      </trkpt>
      <trkpt lat="41.413733" lon="-4.623367">
        <ele>2388.0</ele>
        <time>2016-07-12T14:51:29Z</time>
      </trkpt>
      <trkpt lat="41.413633" lon="-4.623283">
        <ele>2388.0</ele>
        <time>2016-07-12T14:51:30Z</time>
      </trkpt>
      <trkpt lat="41.413533" lon="-4.623217">
        <ele>2389.0</ele>
        <time>2016-07-12T14:51:31Z</time>
      </trkpt>
      <trkpt lat="41.413433" lon="-4.623167">
        <ele>2390.0</ele>
        <time>2016-07-12T14:51:32Z</time>
      </trkpt>
      <trkpt lat="41.413333" lon="-4.623117">
        <ele>2391.0</ele>
        <time>2016-07-12T14:51:33Z</time>
      </trkpt>
      <trkpt lat="41.413233" lon="-4.623100">
        <ele>2391.0</ele>
        <time>2016-07-12T14:51:34Z</time>
      </trkpt>
      <trkpt lat="41.413117" lon="-4.623083">
        <ele>2390.0</ele>
        <time>2016-07-12T14:51:35Z</time>
      </trkpt>
      <trkpt lat="41.413017" lon="-4.623083">
        <ele>2390.0</ele>
        <time>2016-07-12T14:51:36Z</time>
      </trkpt>
      <trkpt lat="41.412900" lon="-4.623117">
        <ele>2390.0</ele>
        <time>2016-07-12T14:51:37Z</time>
      </trkpt>
      <trkpt lat="41.412800" lon="-4.623167">
        <ele>2390.0</ele>
        <time>2016-07-12T14:51:38Z</time>
      </trkpt>
      <trkpt lat="41.412700" lon="-4.623250">
        <ele>2390.0</ele>
        <time>2016-07-12T14:51:39Z</time>
      </trkpt>
      <trkpt lat="41.412633" lon="-4.623350">
        <ele>2390.0</ele>
        <time>2016-07-12T14:51:40Z</time>
      </trkpt>
      <trkpt lat="41.412567" lon="-4.623450">
        <ele>2390.0</ele>
        <time>2016-07-12T14:51:41Z</time>
      </trkpt>
      <trkpt lat="41.412533" lon="-4.623550">
        <ele>2393.0</ele>
        <time>2016-07-12T14:51:42Z</time>
      </trkpt>
      <trkpt lat="41.412500" lon="-4.623633">
        <ele>2396.0</ele>
        <time>2016-07-12T14:51:43Z</time>
      </trkpt>
      <trkpt lat="41.412483" lon="-4.623700">
        <ele>2398.0</ele>
        <time>2016-07-12T14:51:44Z</time>
      </trkpt>
      <trkpt lat="41.412450" lon="-4.623783">
        <ele>2399.0</ele>
        <time>2016-07-12T14:51:45Z</time>
      </trkpt>
      <trkpt lat="41.412433" lon="-4.623867">
        <ele>2399.0</ele>
        <time>2016-07-12T14:51:46Z</time>
      </trkpt>
      <trkpt lat="41.412400" lon="-4.623950">
        <ele>2399.0</ele>
        <time>2016-07-12T14:51:47Z</time>
      </trkpt>
      <trkpt lat="41.412367" lon="-4.624050">
        <ele>2400.0</ele>
        <time>2016-07-12T14:51:48Z</time>
      </trkpt>
      <trkpt lat="41.412350" lon="-4.624150">
        <ele>2402.0</ele>
        <time>2016-07-12T14:51:49Z</time>
      </trkpt>
      <trkpt lat="41.412317" lon="-4.624250">
        <ele>2404.0</ele>
        <time>2016-07-12T14:51:50Z</time>
      </trkpt>
      <trkpt lat="41.412300" lon="-4.624333">
        <ele>2405.0</ele>
        <time>2016-07-12T14:51:51Z</time>
      </trkpt>
      <trkpt lat="41.412283" lon="-4.624400">
        <ele>2405.0</ele>
        <time>2016-07-12T14:51:52Z</time>
      </trkpt>
      <trkpt lat="41.412267" lon="-4.624483">
        <ele>2404.0</ele>
        <time>2016-07-12T14:51:53Z</time>
      </trkpt>
      <trkpt lat="41.412267" lon="-4.624567">
        <ele>2404.0</ele>
        <time>2016-07-12T14:51:54Z</time>
      </trkpt>
      <trkpt lat="41.412250" lon="-4.624650">
        <ele>2405.0</ele>
        <time>2016-07-12T14:51:55Z</time>
      </trkpt>
      <trkpt lat="41.412233" lon="-4.624717">
        <ele>2405.0</ele>
        <time>2016-07-12T14:51:56Z</time>
      </trkpt>
      <trkpt lat="41.412250" lon="-4.624783">
        <ele>2404.0</ele>
        <time>2016-07-12T14:51:57Z</time>
      </trkpt>
      <trkpt lat="41.412267" lon="-4.624850">
        <ele>2402.0</ele>
        <time>2016-07-12T14:51:58Z</time>
      </trkpt>
      <trkpt lat="41.412283" lon="-4.624933">
        <ele>2399.0</ele>
        <time>2016-07-12T14:51:59Z</time>
      </trkpt>
      <trkpt lat="41.412300" lon="-4.625033">
        <ele>2397.0</ele>
        <time>2016-07-12T14:52:00Z</time>
      </trkpt>
      <trkpt lat="41.412317" lon="-4.625117">
        <ele>2397.0</ele>
        <time>2016-07-12T14:52:01Z</time>
      </trkpt>
      <trkpt lat="41.412317" lon="-4.625183">
        <ele>2397.0</ele>
        <time>2016-07-12T14:52:02Z</time>
      </trkpt>
      <trkpt lat="41.412350" lon="-4.625233">
        <ele>2396.0</ele>
        <time>2016-07-12T14:52:03Z</time>
      </trkpt>
      <trkpt lat="41.412367" lon="-4.625267">
        <ele>2395.0</ele>
        <time>2016-07-12T14:52:04Z</time>
      </trkpt>
      <trkpt lat="41.412400" lon="-4.625333">
        <ele>2393.0</ele>
        <time>2016-07-12T14:52:05Z</time>
      </trkpt>
      <trkpt lat="41.412433" lon="-4.625400">
        <ele>2391.0</ele>
        <time>2016-07-12T14:52:06Z</time>
      </trkpt>
      <trkpt lat="41.412450" lon="-4.625483">
        <ele>2389.0</ele>
        <time>2016-07-12T14:52:07Z</time>
      </trkpt>
      <trkpt lat="41.412483" lon="-4.625550">
        <ele>2389.0</ele>
        <time>2016-07-12T14:52:08Z</time>
      </trkpt>
      <trkpt lat="41.412533" lon="-4.625583">
        <ele>2388.0</ele>
        <time>2016-07-12T14:52:09Z</time>
      </trkpt>
      <trkpt lat="41.412583" lon="-4.625567">
        <ele>2388.0</ele>
        <time>2016-07-12T14:52:10Z</time>
      </trkpt>
      <trkpt lat="41.412633" lon="-4.625550">
        <ele>2387.0</ele>
        <time>2016-07-12T14:52:11Z</time>
      </trkpt>
      <trkpt lat="41.412683" lon="-4.625500">
        <ele>2386.0</ele>
        <time>2016-07-12T14:52:12Z</time>
      </trkpt>
      <trkpt lat="41.412717" lon="-4.625450">
        <ele>2386.0</ele>
        <time>2016-07-12T14:52:13Z</time>
      </trkpt>
      <trkpt lat="41.412750" lon="-4.625350">
        <ele>2385.0</ele>
        <time>2016-07-12T14:52:14Z</time>
      </trkpt>
      <trkpt lat="41.412767" lon="-4.625217">
        <ele>2383.0</ele>
        <time>2016-07-12T14:52:15Z</time>
      </trkpt>
      <trkpt lat="41.412767" lon="-4.625083">
        <ele>2382.0</ele>
        <time>2016-07-12T14:52:16Z</time>
      </trkpt>
      <trkpt lat="41.412733" lon="-4.624917">
        <ele>2381.0</ele>
        <time>2016-07-12T14:52:17Z</time>
      </trkpt>
      <trkpt lat="41.412683" lon="-4.624733">
        <ele>2380.0</ele>
        <time>2016-07-12T14:52:18Z</time>
      </trkpt>
      <trkpt lat="41.412633" lon="-4.624583">
        <ele>2381.0</ele>
        <time>2016-07-12T14:52:19Z</time>
      </trkpt>
      <trkpt lat="41.412583" lon="-4.624433">
        <ele>2382.0</ele>
        <time>2016-07-12T14:52:20Z</time>
      </trkpt>
      <trkpt lat="41.412517" lon="-4.624317">
        <ele>2382.0</ele>
        <time>2016-07-12T14:52:21Z</time>
      </trkpt>
      <trkpt lat="41.412450" lon="-4.624183">
        <ele>2381.0</ele>
        <time>2016-07-12T14:52:22Z</time>
      </trkpt>
      <trkpt lat="41.412367" lon="-4.624033">
        <ele>2379.0</ele>
        <time>2016-07-12T14:52:23Z</time>
      </trkpt>
      <trkpt lat="41.412283" lon="-4.623883">
        <ele>2377.0</ele>
        <time>2016-07-12T14:52:24Z</time>
      </trkpt>
      <trkpt lat="41.412167" lon="-4.623750">
        <ele>2376.0</ele>
        <time>2016-07-12T14:52:25Z</time>
      </trkpt>
      <trkpt lat="41.412050" lon="-4.623633">
        <ele>2377.0</ele>
        <time>2016-07-12T14:52:26Z</time>
      </trkpt>
      <trkpt lat="41.411933" lon="-4.623533">
        <ele>2377.0</ele>
        <time>2016-07-12T14:52:27Z</time>
      </trkpt>
      <trkpt lat="41.411833" lon="-4.623450">
        <ele>2377.0</ele>
        <time>2016-07-12T14:52:28Z</time>
      </trkpt>
      <trkpt lat="41.411717" lon="-4.623350">
        <ele>2377.0</ele>
        <time>2016-07-12T14:52:29Z</time>
      </trkpt>
      <trkpt lat="41.411600" lon="-4.623250">
        <ele>2377.0</ele>
        <time>2016-07-12T14:52:30Z</time>
      </trkpt>
      <trkpt lat="41.411483" lon="-4.623183">
        <ele>2378.0</ele>
        <time>2016-07-12T14:52:31Z</time>
      </trkpt>
      <trkpt lat="41.411350" lon="-4.623100">
        <ele>2379.0</ele>
        <time>2016-07-12T14:52:32Z</time>
      </trkpt>
      <trkpt lat="41.411233" lon="-4.623050">
        <ele>2379.0</ele>
        <time>2016-07-12T14:52:33Z</time>
      </trkpt>
      <trkpt lat="41.411117" lon="-4.622983">
        <ele>2378.0</ele>
        <time>2016-07-12T14:52:34Z</time>
      </trkpt>
      <trkpt lat="41.411000" lon="-4.622950">
        <ele>2378.0</ele>
        <time>2016-07-12T14:52:35Z</time>
      </trkpt>
      <trkpt lat="41.410867" lon="-4.622917">
        <ele>2378.0</ele>
        <time>2016-07-12T14:52:36Z</time>
      </trkpt>
      <trkpt lat="41.410733" lon="-4.622900">
        <ele>2378.0</ele>
        <time>2016-07-12T14:52:37Z</time>
      </trkpt>
      <trkpt lat="41.410617" lon="-4.622883">
        <ele>2378.0</ele>
        <time>2016-07-12T14:52:38Z</time>
      </trkpt>
      <trkpt lat="41.410500" lon="-4.622867">
        <ele>2378.0</ele>
        <time>2016-07-12T14:52:39Z</time>
      </trkpt>
      <trkpt lat="41.410383" lon="-4.622850">
        <ele>2376.0</ele>
        <time>2016-07-12T14:52:40Z</time>
      </trkpt>
      <trkpt lat="41.410267" lon="-4.622817">
        <ele>2375.0</ele>
        <time>2016-07-12T14:52:41Z</time>
      </trkpt>
      <trkpt lat="41.410133" lon="-4.622817">
        <ele>2373.0</ele>
        <time>2016-07-12T14:52:42Z</time>
      </trkpt>
      <trkpt lat="41.409983" lon="-4.622833">
        <ele>2373.0</ele>
        <time>2016-07-12T14:52:43Z</time>
      </trkpt>
      <trkpt lat="41.409867" lon="-4.622867">
        <ele>2374.0</ele>
        <time>2016-07-12T14:52:44Z</time>
      </trkpt>
      <trkpt lat="41.409750" lon="-4.622900">
        <ele>2375.0</ele>
        <time>2016-07-12T14:52:45Z</time>
      </trkpt>
      <trkpt lat="41.409633" lon="-4.622917">
        <ele>2376.0</ele>
        <time>2016-07-12T14:52:46Z</time>
      </trkpt>
      <trkpt lat="41.409517" lon="-4.622933">
        <ele>2375.0</ele>
        <time>2016-07-12T14:52:47Z</time>
      </trkpt>
      <trkpt lat="41.409400" lon="-4.622983">
        <ele>2375.0</ele>
        <time>2016-07-12T14:52:48Z</time>
      </trkpt>
      <trkpt lat="41.409300" lon="-4.623050">
        <ele>2374.0</ele>
        <time>2016-07-12T14:52:49Z</time>
      </trkpt>
      <trkpt lat="41.409200" lon="-4.623133">
        <ele>2373.0</ele>
        <time>2016-07-12T14:52:50Z</time>
      </trkpt>
      <trkpt lat="41.409100" lon="-4.623217">
        <ele>2373.0</ele>
        <time>2016-07-12T14:52:51Z</time>
      </trkpt>
      <trkpt lat="41.409000" lon="-4.623300">
        <ele>2374.0</ele>
        <time>2016-07-12T14:52:52Z</time>
      </trkpt>
      <trkpt lat="41.408900" lon="-4.623383">
        <ele>2375.0</ele>
        <time>2016-07-12T14:52:53Z</time>
      </trkpt>
      <trkpt lat="41.408817" lon="-4.623467">
        <ele>2376.0</ele>
        <time>2016-07-12T14:52:54Z</time>
      </trkpt>
      <trkpt lat="41.408733" lon="-4.623550">
        <ele>2376.0</ele>
        <time>2016-07-12T14:52:55Z</time>
      </trkpt>
      <trkpt lat="41.408650" lon="-4.623633">
        <ele>2377.0</ele>
        <time>2016-07-12T14:52:56Z</time>
      </trkpt>
      <trkpt lat="41.408567" lon="-4.623733">
        <ele>2377.0</ele>
        <time>2016-07-12T14:52:57Z</time>
      </trkpt>
      <trkpt lat="41.408483" lon="-4.623800">
        <ele>2377.0</ele>
        <time>2016-07-12T14:52:58Z</time>
      </trkpt>
      <trkpt lat="41.408383" lon="-4.623883">
        <ele>2377.0</ele>
        <time>2016-07-12T14:52:59Z</time>
      </trkpt>
      <trkpt lat="41.408317" lon="-4.623983">
        <ele>2377.0</ele>
        <time>2016-07-12T14:53:00Z</time>
      </trkpt>
      <trkpt lat="41.408250" lon="-4.624083">
        <ele>2377.0</ele>
        <time>2016-07-12T14:53:01Z</time>
      </trkpt>
      <trkpt lat="41.408183" lon="-4.624183">
        <ele>2376.0</ele>
        <time>2016-07-12T14:53:02Z</time>
      </trkpt>
      <trkpt lat="41.408117" lon="-4.624283">
        <ele>2376.0</ele>
        <time>2016-07-12T14:53:03Z</time>
      </trkpt>
      <trkpt lat="41.408033" lon="-4.624367">
        <ele>2376.0</ele>
        <time>2016-07-12T14:53:04Z</time>
      </trkpt>
      <trkpt lat="41.407950" lon="-4.624450">
        <ele>2375.0</ele>
        <time>2016-07-12T14:53:05Z</time>
      </trkpt>
      <trkpt lat="41.407883" lon="-4.624533">
        <ele>2374.0</ele>
        <time>2016-07-12T14:53:06Z</time>
      </trkpt>
      <trkpt lat="41.407817" lon="-4.624633">
        <ele>2373.0</ele>
        <time>2016-07-12T14:53:07Z</time>
      </trkpt>
      <trkpt lat="41.407750" lon="-4.624733">
        <ele>2370.0</ele>
        <time>2016-07-12T14:53:08Z</time>
      </trkpt>
      <trkpt lat="41.407683" lon="-4.624850">
        <ele>2367.0</ele>
        <time>2016-07-12T14:53:09Z</time>
      </trkpt>
      <trkpt lat="41.407600" lon="-4.624950">
        <ele>2366.0</ele>
        <time>2016-07-12T14:53:10Z</time>
      </trkpt>
      <trkpt lat="41.407500" lon="-4.625017">
        <ele>2366.0</ele>
        <time>2016-07-12T14:53:11Z</time>
      </trkpt>
      <trkpt lat="41.407400" lon="-4.625083">
        <ele>2366.0</ele>
        <time>2016-07-12T14:53:12Z</time>
      </trkpt>
      <trkpt lat="41.407300" lon="-4.625133">
        <ele>2366.0</ele>
        <time>2016-07-12T14:53:13Z</time>
      </trkpt>
      <trkpt lat="41.407217" lon="-4.625183">
        <ele>2366.0</ele>
        <time>2016-07-12T14:53:14Z</time>
      </trkpt>
      <trkpt lat="41.407100" lon="-4.625233">
        <ele>2364.0</ele>
        <time>2016-07-12T14:53:15Z</time>
      </trkpt>
      <trkpt lat="41.406983" lon="-4.625300">
        <ele>2363.0</ele>
        <time>2016-07-12T14:53:16Z</time>
      </trkpt>
      <trkpt lat="41.406883" lon="-4.625350">
        <ele>2364.0</ele>
        <time>2016-07-12T14:53:17Z</time>
      </trkpt>
      <trkpt lat="41.406767" lon="-4.625400">
        <ele>2364.0</ele>
        <time>2016-07-12T14:53:18Z</time>
      </trkpt>
      <trkpt lat="41.406650" lon="-4.625450">
        <ele>2365.0</ele>
        <time>2016-07-12T14:53:19Z</time>
      </trkpt>
      <trkpt lat="41.406533" lon="-4.625483">
        <ele>2365.0</ele>
        <time>2016-07-12T14:53:20Z</time>
      </trkpt>
      <trkpt lat="41.406417" lon="-4.625500">
        <ele>2365.0</ele>
        <time>2016-07-12T14:53:21Z</time>
      </trkpt>
      <trkpt lat="41.406283" lon="-4.625533">
        <ele>2364.0</ele>
        <time>2016-07-12T14:53:22Z</time>
      </trkpt>
      <trkpt lat="41.406167" lon="-4.625550">
        <ele>2364.0</ele>
        <time>2016-07-12T14:53:23Z</time>
      </trkpt>
      <trkpt lat="41.406033" lon="-4.625567">
        <ele>2364.0</ele>
        <time>2016-07-12T14:53:24Z</time>
      </trkpt>
      <trkpt lat="41.405917" lon="-4.625567">
        <ele>2365.0</ele>
        <time>2016-07-12T14:53:25Z</time>
      </trkpt>
      <trkpt lat="41.405800" lon="-4.625583">
        <ele>2365.0</ele>
        <time>2016-07-12T14:53:26Z</time>
      </trkpt>
      <trkpt lat="41.405683" lon="-4.625600">
        <ele>2365.0</ele>
        <time>2016-07-12T14:53:27Z</time>
      </trkpt>
      <trkpt lat="41.405583" lon="-4.625617">
        <ele>2365.0</ele>
        <time>2016-07-12T14:53:28Z</time>
      </trkpt>
      <trkpt lat="41.405467" lon="-4.625650">
        <ele>2365.0</ele>
        <time>2016-07-12T14:53:29Z</time>
      </trkpt>
      <trkpt lat="41.405333" lon="-4.625700">
        <ele>2365.0</ele>
        <time>2016-07-12T14:53:30Z</time>
      </trkpt>
      <trkpt lat="41.405217" lon="-4.625733">
        <ele>2366.0</ele>
        <time>2016-07-12T14:53:31Z</time>
      </trkpt>
      <trkpt lat="41.405083" lon="-4.625767">
        <ele>2366.0</ele>
        <time>2016-07-12T14:53:32Z</time>
      </trkpt>
      <trkpt lat="41.404950" lon="-4.625800">
        <ele>2367.0</ele>
        <time>2016-07-12T14:53:33Z</time>
      </trkpt>
      <trkpt lat="41.404817" lon="-4.625833">
        <ele>2370.0</ele>
        <time>2016-07-12T14:53:34Z</time>
      </trkpt>
      <trkpt lat="41.404700" lon="-4.625850">
        <ele>2373.0</ele>
        <time>2016-07-12T14:53:35Z</time>
      </trkpt>
      <trkpt lat="41.404583" lon="-4.625867">
        <ele>2375.0</ele>
        <time>2016-07-12T14:53:36Z</time>
      </trkpt>
      <trkpt lat="41.404483" lon="-4.625883">
        <ele>2376.0</ele>
        <time>2016-07-12T14:53:37Z</time>
      </trkpt>
      <trkpt lat="41.404367" lon="-4.625883">
        <ele>2374.0</ele>
        <time>2016-07-12T14:53:38Z</time>
      </trkpt>
      <trkpt lat="41.404250" lon="-4.625917">
        <ele>2372.0</ele>
        <time>2016-07-12T14:53:39Z</time>
      </trkpt>
      <trkpt lat="41.404117" lon="-4.625967">
        <ele>2372.0</ele>
        <time>2016-07-12T14:53:40Z</time>
      </trkpt>
      <trkpt lat="41.404000" lon="-4.626000">
        <ele>2373.0</ele>
        <time>2016-07-12T14:53:41Z</time>
      </trkpt>
      <trkpt lat="41.403883" lon="-4.626033">
        <ele>2374.0</ele>
        <time>2016-07-12T14:53:42Z</time>
      </trkpt>
      <trkpt lat="41.403783" lon="-4.626050">
        <ele>2376.0</ele>
        <time>2016-07-12T14:53:43Z</time>
      </trkpt>
      <trkpt lat="41.403683" lon="-4.626083">
        <ele>2376.0</ele>
        <time>2016-07-12T14:53:44Z</time>
      </trkpt>
      <trkpt lat="41.403583" lon="-4.626117">
        <ele>2375.0</ele>
        <time>2016-07-12T14:53:45Z</time>
      </trkpt>
      <trkpt lat="41.403517" lon="-4.626183">
        <ele>2373.0</ele>
        <time>2016-07-12T14:53:46Z</time>
      </trkpt>
      <trkpt lat="41.403450" lon="-4.626267">
        <ele>2371.0</ele>
        <time>2016-07-12T14:53:47Z</time>
      </trkpt>
      <trkpt lat="41.403433" lon="-4.626350">
        <ele>2370.0</ele>
        <time>2016-07-12T14:53:48Z</time>
      </trkpt>
      <trkpt lat="41.403433" lon="-4.626417">
        <ele>2369.0</ele>
        <time>2016-07-12T14:53:49Z</time>
      </trkpt>
      <trkpt lat="41.403450" lon="-4.626450">
        <ele>2369.0</ele>
        <time>2016-07-12T14:53:50Z</time>
      </trkpt>
      <trkpt lat="41.403483" lon="-4.626450">
        <ele>2368.0</ele>
        <time>2016-07-12T14:53:51Z</time>
      </trkpt>
      <trkpt lat="41.403533" lon="-4.626450">
        <ele>2367.0</ele>
        <time>2016-07-12T14:53:52Z</time>
      </trkpt>
      <trkpt lat="41.403567" lon="-4.626483">
        <ele>2365.0</ele>
        <time>2016-07-12T14:53:53Z</time>
      </trkpt>
      <trkpt lat="41.403617" lon="-4.626517">
        <ele>2363.0</ele>
        <time>2016-07-12T14:53:54Z</time>
      </trkpt>
      <trkpt lat="41.403667" lon="-4.626550">
        <ele>2363.0</ele>
        <time>2016-07-12T14:53:55Z</time>
      </trkpt>
      <trkpt lat="41.403717" lon="-4.626567">
        <ele>2364.0</ele>
        <time>2016-07-12T14:53:56Z</time>
      </trkpt>
      <trkpt lat="41.403767" lon="-4.626517">
        <ele>2364.0</ele>
        <time>2016-07-12T14:53:57Z</time>
      </trkpt>
      <trkpt lat="41.403817" lon="-4.626450">
        <ele>2365.0</ele>
        <time>2016-07-12T14:53:58Z</time>
      </trkpt>
      <trkpt lat="41.403850" lon="-4.626367">
        <ele>2367.0</ele>
        <time>2016-07-12T14:53:59Z</time>
      </trkpt>
      <trkpt lat="41.403867" lon="-4.626283">
        <ele>2368.0</ele>
        <time>2016-07-12T14:54:00Z</time>
      </trkpt>
      <trkpt lat="41.403883" lon="-4.626183">
        <ele>2368.0</ele>
        <time>2016-07-12T14:54:01Z</time>
      </trkpt>
      <trkpt lat="41.403917" lon="-4.626100">
        <ele>2368.0</ele>
        <time>2016-07-12T14:54:02Z</time>
      </trkpt>
      <trkpt lat="41.403933" lon="-4.625983">
        <ele>2368.0</ele>
        <time>2016-07-12T14:54:03Z</time>
      </trkpt>
      <trkpt lat="41.403967" lon="-4.625867">
        <ele>2369.0</ele>
        <time>2016-07-12T14:54:04Z</time>
      </trkpt>
      <trkpt lat="41.403983" lon="-4.625767">
        <ele>2371.0</ele>
        <time>2016-07-12T14:54:05Z</time>
      </trkpt>
      <trkpt lat="41.404017" lon="-4.625667">
        <ele>2372.0</ele>
        <time>2016-07-12T14:54:06Z</time>
      </trkpt>
      <trkpt lat="41.404033" lon="-4.625567">
        <ele>2373.0</ele>
        <time>2016-07-12T14:54:07Z</time>
      </trkpt>
      <trkpt lat="41.404067" lon="-4.625483">
        <ele>2373.0</ele>
        <time>2016-07-12T14:54:08Z</time>
      </trkpt>
      <trkpt lat="41.404083" lon="-4.625383">
        <ele>2373.0</ele>
        <time>2016-07-12T14:54:09Z</time>
      </trkpt>
      <trkpt lat="41.404100" lon="-4.625267">
        <ele>2372.0</ele>
        <time>2016-07-12T14:54:10Z</time>
      </trkpt>
      <trkpt lat="41.404117" lon="-4.625167">
        <ele>2372.0</ele>
        <time>2016-07-12T14:54:11Z</time>
      </trkpt>
      <trkpt lat="41.404133" lon="-4.625050">
        <ele>2371.0</ele>
        <time>2016-07-12T14:54:12Z</time>
      </trkpt>
      <trkpt lat="41.404133" lon="-4.624933">
        <ele>2370.0</ele>
        <time>2016-07-12T14:54:13Z</time>
      </trkpt>
      <trkpt lat="41.404150" lon="-4.624817">
        <ele>2369.0</ele>
        <time>2016-07-12T14:54:14Z</time>
      </trkpt>
      <trkpt lat="41.404167" lon="-4.624700">
        <ele>2367.0</ele>
        <time>2016-07-12T14:54:15Z</time>
      </trkpt>
      <trkpt lat="41.404167" lon="-4.624567">
        <ele>2366.0</ele>
        <time>2016-07-12T14:54:16Z</time>
      </trkpt>
      <trkpt lat="41.404150" lon="-4.624433">
        <ele>2365.0</ele>
        <time>2016-07-12T14:54:17Z</time>
      </trkpt>
      <trkpt lat="41.404117" lon="-4.624283">
        <ele>2365.0</ele>
        <time>2016-07-12T14:54:18Z</time>
      </trkpt>
      <trkpt lat="41.404083" lon="-4.624150">
        <ele>2363.0</ele>
        <time>2016-07-12T14:54:19Z</time>
      </trkpt>
      <trkpt lat="41.404033" lon="-4.624000">
        <ele>2362.0</ele>
        <time>2016-07-12T14:54:20Z</time>
      </trkpt>
      <trkpt lat="41.403983" lon="-4.623850">
        <ele>2361.0</ele>
        <time>2016-07-12T14:54:21Z</time>
      </trkpt>
      <trkpt lat="41.403917" lon="-4.623717">
        <ele>2361.0</ele>
        <time>2016-07-12T14:54:22Z</time>
      </trkpt>
      <trkpt lat="41.403850" lon="-4.623583">
        <ele>2360.0</ele>
        <time>2016-07-12T14:54:23Z</time>
      </trkpt>
      <trkpt lat="41.403783" lon="-4.623450">
        <ele>2360.0</ele>
        <time>2016-07-12T14:54:24Z</time>
      </trkpt>
      <trkpt lat="41.403700" lon="-4.623317">
        <ele>2359.0</ele>
        <time>2016-07-12T14:54:25Z</time>
      </trkpt>
      <trkpt lat="41.403600" lon="-4.623183">
        <ele>2357.0</ele>
        <time>2016-07-12T14:54:26Z</time>
      </trkpt>
      <trkpt lat="41.403500" lon="-4.623050">
        <ele>2356.0</ele>
        <time>2016-07-12T14:54:27Z</time>
      </trkpt>
      <trkpt lat="41.403400" lon="-4.622917">
        <ele>2357.0</ele>
        <time>2016-07-12T14:54:28Z</time>
      </trkpt>
      <trkpt lat="41.403283" lon="-4.622800">
        <ele>2358.0</ele>
        <time>2016-07-12T14:54:29Z</time>
      </trkpt>
      <trkpt lat="41.403150" lon="-4.622700">
        <ele>2359.0</ele>
        <time>2016-07-12T14:54:30Z</time>
      </trkpt>
      <trkpt lat="41.403033" lon="-4.622600">
        <ele>2360.0</ele>
        <time>2016-07-12T14:54:31Z</time>
      </trkpt>
      <trkpt lat="41.402900" lon="-4.622517">
        <ele>2362.0</ele>
        <time>2016-07-12T14:54:32Z</time>
      </trkpt>
      <trkpt lat="41.402783" lon="-4.622400">
        <ele>2363.0</ele>
        <time>2016-07-12T14:54:33Z</time>
      </trkpt>
      <trkpt lat="41.402683" lon="-4.622300">
        <ele>2364.0</ele>
        <time>2016-07-12T14:54:34Z</time>
      </trkpt>
      <trkpt lat="41.402583" lon="-4.622200">
        <ele>2364.0</ele>
        <time>2016-07-12T14:54:35Z</time>
      </trkpt>
      <trkpt lat="41.402483" lon="-4.622100">
        <ele>2363.0</ele>
        <time>2016-07-12T14:54:36Z</time>
      </trkpt>
      <trkpt lat="41.402367" lon="-4.622017">
        <ele>2362.0</ele>
        <time>2016-07-12T14:54:37Z</time>
      </trkpt>
      <trkpt lat="41.402250" lon="-4.621917">
        <ele>2362.0</ele>
        <time>2016-07-12T14:54:38Z</time>
      </trkpt>
      <trkpt lat="41.402133" lon="-4.621817">
        <ele>2362.0</ele>
        <time>2016-07-12T14:54:39Z</time>
      </trkpt>
      <trkpt lat="41.402033" lon="-4.621700">
        <ele>2361.0</ele>
        <time>2016-07-12T14:54:40Z</time>
      </trkpt>
      <trkpt lat="41.401933" lon="-4.621600">
        <ele>2360.0</ele>
        <time>2016-07-12T14:54:41Z</time>
      </trkpt>
      <trkpt lat="41.401817" lon="-4.621483">
        <ele>2359.0</ele>
        <time>2016-07-12T14:54:42Z</time>
      </trkpt>
      <trkpt lat="41.401700" lon="-4.621400">
        <ele>2359.0</ele>
        <time>2016-07-12T14:54:43Z</time>
      </trkpt>
      <trkpt lat="41.401583" lon="-4.621350">
        <ele>2361.0</ele>
        <time>2016-07-12T14:54:44Z</time>
      </trkpt>
      <trkpt lat="41.401483" lon="-4.621317">
        <ele>2361.0</ele>
        <time>2016-07-12T14:54:45Z</time>
      </trkpt>
      <trkpt lat="41.401383" lon="-4.621300">
        <ele>2362.0</ele>
        <time>2016-07-12T14:54:46Z</time>
      </trkpt>
      <trkpt lat="41.401283" lon="-4.621250">
        <ele>2362.0</ele>
        <time>2016-07-12T14:54:47Z</time>
      </trkpt>
      <trkpt lat="41.401183" lon="-4.621183">
        <ele>2361.0</ele>
        <time>2016-07-12T14:54:48Z</time>
      </trkpt>
      <trkpt lat="41.401083" lon="-4.621117">
        <ele>2360.0</ele>
        <time>2016-07-12T14:54:49Z</time>
      </trkpt>
      <trkpt lat="41.400967" lon="-4.621083">
        <ele>2359.0</ele>
        <time>2016-07-12T14:54:50Z</time>
      </trkpt>
      <trkpt lat="41.400867" lon="-4.621050">
        <ele>2359.0</ele>
        <time>2016-07-12T14:54:51Z</time>
      </trkpt>
      <trkpt lat="41.400767" lon="-4.621033">
        <ele>2358.0</ele>
        <time>2016-07-12T14:54:52Z</time>
      </trkpt>
      <trkpt lat="41.400667" lon="-4.621017">
        <ele>2358.0</ele>
        <time>2016-07-12T14:54:53Z</time>
      </trkpt>
      <trkpt lat="41.400550" lon="-4.620967">
        <ele>2357.0</ele>
        <time>2016-07-12T14:54:54Z</time>
      </trkpt>
      <trkpt lat="41.400433" lon="-4.620933">
        <ele>2355.0</ele>
        <time>2016-07-12T14:54:55Z</time>
      </trkpt>
      <trkpt lat="41.400317" lon="-4.620917">
        <ele>2354.0</ele>
        <time>2016-07-12T14:54:56Z</time>
      </trkpt>
      <trkpt lat="41.400217" lon="-4.620917">
        <ele>2353.0</ele>
        <time>2016-07-12T14:54:57Z</time>
      </trkpt>
      <trkpt lat="41.400100" lon="-4.620917">
        <ele>2352.0</ele>
        <time>2016-07-12T14:54:58Z</time>
      </trkpt>
      <trkpt lat="41.399983" lon="-4.620933">
        <ele>2353.0</ele>
        <time>2016-07-12T14:54:59Z</time>
      </trkpt>
      <trkpt lat="41.399883" lon="-4.620917">
        <ele>2352.0</ele>
        <time>2016-07-12T14:55:00Z</time>
      </trkpt>
      <trkpt lat="41.399783" lon="-4.620917">
        <ele>2351.0</ele>
        <time>2016-07-12T14:55:01Z</time>
      </trkpt>
      <trkpt lat="41.399683" lon="-4.620900">
        <ele>2349.0</ele>
        <time>2016-07-12T14:55:02Z</time>
      </trkpt>
      <trkpt lat="41.399583" lon="-4.620917">
        <ele>2347.0</ele>
        <time>2016-07-12T14:55:03Z</time>
      </trkpt>
      <trkpt lat="41.399467" lon="-4.620933">
        <ele>2345.0</ele>
        <time>2016-07-12T14:55:04Z</time>
      </trkpt>
      <trkpt lat="41.399367" lon="-4.620950">
        <ele>2345.0</ele>
        <time>2016-07-12T14:55:05Z</time>
      </trkpt>
      <trkpt lat="41.399267" lon="-4.620967">
        <ele>2345.0</ele>
        <time>2016-07-12T14:55:06Z</time>
      </trkpt>
      <trkpt lat="41.399167" lon="-4.620967">
        <ele>2345.0</ele>
        <time>2016-07-12T14:55:07Z</time>
      </trkpt>
      <trkpt lat="41.399067" lon="-4.620967">
        <ele>2345.0</ele>
        <time>2016-07-12T14:55:08Z</time>
      </trkpt>
      <trkpt lat="41.398967" lon="-4.620967">
        <ele>2343.0</ele>
        <time>2016-07-12T14:55:09Z</time>
      </trkpt>
      <trkpt lat="41.398850" lon="-4.620967">
        <ele>2341.0</ele>
        <time>2016-07-12T14:55:10Z</time>
      </trkpt>
      <trkpt lat="41.398733" lon="-4.620983">
        <ele>2338.0</ele>
        <time>2016-07-12T14:55:11Z</time>
      </trkpt>
      <trkpt lat="41.398600" lon="-4.620967">
        <ele>2336.0</ele>
        <time>2016-07-12T14:55:12Z</time>
      </trkpt>
      <trkpt lat="41.398483" lon="-4.620967">
        <ele>2336.0</ele>
        <time>2016-07-12T14:55:13Z</time>
      </trkpt>
      <trkpt lat="41.398383" lon="-4.620967">
        <ele>2336.0</ele>
        <time>2016-07-12T14:55:14Z</time>
      </trkpt>
      <trkpt lat="41.398283" lon="-4.620967">
        <ele>2335.0</ele>
        <time>2016-07-12T14:55:15Z</time>
      </trkpt>
      <trkpt lat="41.398183" lon="-4.620967">
        <ele>2333.0</ele>
        <time>2016-07-12T14:55:16Z</time>
      </trkpt>
      <trkpt lat="41.398083" lon="-4.620983">
        <ele>2331.0</ele>
        <time>2016-07-12T14:55:17Z</time>
      </trkpt>
      <trkpt lat="41.397967" lon="-4.620983">
        <ele>2329.0</ele>
        <time>2016-07-12T14:55:18Z</time>
      </trkpt>
      <trkpt lat="41.397850" lon="-4.620983">
        <ele>2327.0</ele>
        <time>2016-07-12T14:55:19Z</time>
      </trkpt>
      <trkpt lat="41.397717" lon="-4.620983">
        <ele>2326.0</ele>
        <time>2016-07-12T14:55:20Z</time>
      </trkpt>
      <trkpt lat="41.397600" lon="-4.620967">
        <ele>2326.0</ele>
        <time>2016-07-12T14:55:21Z</time>
      </trkpt>
      <trkpt lat="41.397500" lon="-4.620967">
        <ele>2325.0</ele>
        <time>2016-07-12T14:55:22Z</time>
      </trkpt>
      <trkpt lat="41.397400" lon="-4.620967">
        <ele>2324.0</ele>
        <time>2016-07-12T14:55:23Z</time>
      </trkpt>
      <trkpt lat="41.397283" lon="-4.620983">
        <ele>2323.0</ele>
        <time>2016-07-12T14:55:24Z</time>
      </trkpt>
      <trkpt lat="41.397167" lon="-4.620983">
        <ele>2322.0</ele>
        <time>2016-07-12T14:55:25Z</time>
      </trkpt>
      <trkpt lat="41.397050" lon="-4.621000">
        <ele>2322.0</ele>
        <time>2016-07-12T14:55:26Z</time>
      </trkpt>
      <trkpt lat="41.396933" lon="-4.621000">
        <ele>2322.0</ele>
        <time>2016-07-12T14:55:27Z</time>
      </trkpt>
      <trkpt lat="41.396833" lon="-4.621000">
        <ele>2322.0</ele>
        <time>2016-07-12T14:55:28Z</time>
      </trkpt>
      <trkpt lat="41.396733" lon="-4.621017">
        <ele>2322.0</ele>
        <time>2016-07-12T14:55:29Z</time>
      </trkpt>
      <trkpt lat="41.396633" lon="-4.621033">
        <ele>2321.0</ele>
        <time>2016-07-12T14:55:30Z</time>
      </trkpt>
      <trkpt lat="41.396533" lon="-4.621050">
        <ele>2320.0</ele>
        <time>2016-07-12T14:55:31Z</time>
      </trkpt>
      <trkpt lat="41.396433" lon="-4.621067">
        <ele>2319.0</ele>
        <time>2016-07-12T14:55:32Z</time>
      </trkpt>
      <trkpt lat="41.396317" lon="-4.621050">
        <ele>2318.0</ele>
        <time>2016-07-12T14:55:33Z</time>
      </trkpt>
      <trkpt lat="41.396200" lon="-4.621017">
        <ele>2318.0</ele>
        <time>2016-07-12T14:55:34Z</time>
      </trkpt>
      <trkpt lat="41.396083" lon="-4.620983">
        <ele>2317.0</ele>
        <time>2016-07-12T14:55:35Z</time>
      </trkpt>
      <trkpt lat="41.395983" lon="-4.620950">
        <ele>2316.0</ele>
        <time>2016-07-12T14:55:36Z</time>
      </trkpt>
      <trkpt lat="41.395867" lon="-4.620917">
        <ele>2314.0</ele>
        <time>2016-07-12T14:55:37Z</time>
      </trkpt>
      <trkpt lat="41.395750" lon="-4.620900">
        <ele>2313.0</ele>
        <time>2016-07-12T14:55:38Z</time>
      </trkpt>
      <trkpt lat="41.395650" lon="-4.620867">
        <ele>2312.0</ele>
        <time>2016-07-12T14:55:39Z</time>
      </trkpt>
      <trkpt lat="41.395533" lon="-4.620833">
        <ele>2311.0</ele>
        <time>2016-07-12T14:55:40Z</time>
      </trkpt>
      <trkpt lat="41.395433" lon="-4.620783">
        <ele>2310.0</ele>
        <time>2016-07-12T14:55:41Z</time>
      </trkpt>
      <trkpt lat="41.395317" lon="-4.620750">
        <ele>2309.0</ele>
        <time>2016-07-12T14:55:42Z</time>
      </trkpt>
      <trkpt lat="41.395217" lon="-4.620700">
        <ele>2309.0</ele>
        <time>2016-07-12T14:55:43Z</time>
      </trkpt>
      <trkpt lat="41.395100" lon="-4.620667">
        <ele>2308.0</ele>
        <time>2016-07-12T14:55:44Z</time>
      </trkpt>
      <trkpt lat="41.395000" lon="-4.620633">
        <ele>2307.0</ele>
        <time>2016-07-12T14:55:45Z</time>
      </trkpt>
      <trkpt lat="41.394900" lon="-4.620600">
        <ele>2306.0</ele>
        <time>2016-07-12T14:55:46Z</time>
      </trkpt>
      <trkpt lat="41.394783" lon="-4.620550">
        <ele>2306.0</ele>
        <time>2016-07-12T14:55:47Z</time>
      </trkpt>
      <trkpt lat="41.394683" lon="-4.620500">
        <ele>2305.0</ele>
        <time>2016-07-12T14:55:48Z</time>
      </trkpt>
      <trkpt lat="41.394583" lon="-4.620450">
        <ele>2305.0</ele>
        <time>2016-07-12T14:55:49Z</time>
      </trkpt>
      <trkpt lat="41.394483" lon="-4.620400">
        <ele>2304.0</ele>
        <time>2016-07-12T14:55:50Z</time>
      </trkpt>
      <trkpt lat="41.394383" lon="-4.620350">
        <ele>2304.0</ele>
        <time>2016-07-12T14:55:51Z</time>
      </trkpt>
      <trkpt lat="41.394283" lon="-4.620283">
        <ele>2303.0</ele>
        <time>2016-07-12T14:55:52Z</time>
      </trkpt>
      <trkpt lat="41.394183" lon="-4.620233">
        <ele>2302.0</ele>
        <time>2016-07-12T14:55:53Z</time>
      </trkpt>
      <trkpt lat="41.394067" lon="-4.620167">
        <ele>2301.0</ele>
        <time>2016-07-12T14:55:54Z</time>
      </trkpt>
      <trkpt lat="41.393967" lon="-4.620083">
        <ele>2300.0</ele>
        <time>2016-07-12T14:55:55Z</time>
      </trkpt>
      <trkpt lat="41.393850" lon="-4.620017">
        <ele>2299.0</ele>
        <time>2016-07-12T14:55:56Z</time>
      </trkpt>
      <trkpt lat="41.393750" lon="-4.619933">
        <ele>2298.0</ele>
        <time>2016-07-12T14:55:57Z</time>
      </trkpt>
      <trkpt lat="41.393633" lon="-4.619867">
        <ele>2297.0</ele>
        <time>2016-07-12T14:55:58Z</time>
      </trkpt>
      <trkpt lat="41.393533" lon="-4.619783">
        <ele>2296.0</ele>
        <time>2016-07-12T14:55:59Z</time>
      </trkpt>
      <trkpt lat="41.393417" lon="-4.619717">
        <ele>2296.0</ele>
        <time>2016-07-12T14:56:00Z</time>
      </trkpt>
      <trkpt lat="41.393317" lon="-4.619633">
        <ele>2295.0</ele>
        <time>2016-07-12T14:56:01Z</time>
      </trkpt>
      <trkpt lat="41.393217" lon="-4.619550">
        <ele>2293.0</ele>
        <time>2016-07-12T14:56:02Z</time>
      </trkpt>
      <trkpt lat="41.393100" lon="-4.619483">
        <ele>2292.0</ele>
        <time>2016-07-12T14:56:03Z</time>
      </trkpt>
      <trkpt lat="41.392983" lon="-4.619417">
        <ele>2291.0</ele>
        <time>2016-07-12T14:56:04Z</time>
      </trkpt>
      <trkpt lat="41.392883" lon="-4.619333">
        <ele>2290.0</ele>
        <time>2016-07-12T14:56:05Z</time>
      </trkpt>
      <trkpt lat="41.392767" lon="-4.619267">
        <ele>2289.0</ele>
        <time>2016-07-12T14:56:06Z</time>
      </trkpt>
      <trkpt lat="41.392650" lon="-4.619200">
        <ele>2289.0</ele>
        <time>2016-07-12T14:56:07Z</time>
      </trkpt>
      <trkpt lat="41.392550" lon="-4.619117">
        <ele>2288.0</ele>
        <time>2016-07-12T14:56:08Z</time>
      </trkpt>
      <trkpt lat="41.392433" lon="-4.619050">
        <ele>2287.0</ele>
        <time>2016-07-12T14:56:09Z</time>
      </trkpt>
      <trkpt lat="41.392317" lon="-4.619000">
        <ele>2286.0</ele>
        <time>2016-07-12T14:56:10Z</time>
      </trkpt>
      <trkpt lat="41.392200" lon="-4.618950">
        <ele>2286.0</ele>
        <time>2016-07-12T14:56:11Z</time>
      </trkpt>
      <trkpt lat="41.392100" lon="-4.618900">
        <ele>2286.0</ele>
        <time>2016-07-12T14:56:12Z</time>
      </trkpt>
      <trkpt lat="41.392000" lon="-4.618833">
        <ele>2286.0</ele>
        <time>2016-07-12T14:56:13Z</time>
      </trkpt>
      <trkpt lat="41.391900" lon="-4.618783">
        <ele>2287.0</ele>
        <time>2016-07-12T14:56:14Z</time>
      </trkpt>
      <trkpt lat="41.391783" lon="-4.618733">
        <ele>2287.0</ele>
        <time>2016-07-12T14:56:15Z</time>
      </trkpt>
      <trkpt lat="41.391667" lon="-4.618667">
        <ele>2287.0</ele>
        <time>2016-07-12T14:56:16Z</time>
      </trkpt>
      <trkpt lat="41.391550" lon="-4.618617">
        <ele>2289.0</ele>
        <time>2016-07-12T14:56:17Z</time>
      </trkpt>
      <trkpt lat="41.391433" lon="-4.618583">
        <ele>2290.0</ele>
        <time>2016-07-12T14:56:18Z</time>
      </trkpt>
      <trkpt lat="41.391317" lon="-4.618533">
        <ele>2291.0</ele>
        <time>2016-07-12T14:56:19Z</time>
      </trkpt>
      <trkpt lat="41.391217" lon="-4.618483">
        <ele>2293.0</ele>
        <time>2016-07-12T14:56:20Z</time>
      </trkpt>
      <trkpt lat="41.391100" lon="-4.618433">
        <ele>2294.0</ele>
        <time>2016-07-12T14:56:21Z</time>
      </trkpt>
      <trkpt lat="41.391000" lon="-4.618383">
        <ele>2295.0</ele>
        <time>2016-07-12T14:56:22Z</time>
      </trkpt>
      <trkpt lat="41.390883" lon="-4.618333">
        <ele>2296.0</ele>
        <time>2016-07-12T14:56:23Z</time>
      </trkpt>
      <trkpt lat="41.390767" lon="-4.618283">
        <ele>2296.0</ele>
        <time>2016-07-12T14:56:24Z</time>
      </trkpt>
      <trkpt lat="41.390650" lon="-4.618250">
        <ele>2297.0</ele>
        <time>2016-07-12T14:56:25Z</time>
      </trkpt>
      <trkpt lat="41.390550" lon="-4.618217">
        <ele>2297.0</ele>
        <time>2016-07-12T14:56:26Z</time>
      </trkpt>
      <trkpt lat="41.390450" lon="-4.618200">
        <ele>2296.0</ele>
        <time>2016-07-12T14:56:27Z</time>
      </trkpt>
      <trkpt lat="41.390350" lon="-4.618183">
        <ele>2296.0</ele>
        <time>2016-07-12T14:56:28Z</time>
      </trkpt>
      <trkpt lat="41.390267" lon="-4.618183">
        <ele>2294.0</ele>
        <time>2016-07-12T14:56:29Z</time>
      </trkpt>
      <trkpt lat="41.390167" lon="-4.618200">
        <ele>2292.0</ele>
        <time>2016-07-12T14:56:30Z</time>
      </trkpt>
      <trkpt lat="41.390083" lon="-4.618233">
        <ele>2290.0</ele>
        <time>2016-07-12T14:56:31Z</time>
      </trkpt>
      <trkpt lat="41.389983" lon="-4.618250">
        <ele>2288.0</ele>
        <time>2016-07-12T14:56:32Z</time>
      </trkpt>
      <trkpt lat="41.389900" lon="-4.618283">
        <ele>2288.0</ele>
        <time>2016-07-12T14:56:33Z</time>
      </trkpt>
      <trkpt lat="41.389833" lon="-4.618317">
        <ele>2287.0</ele>
        <time>2016-07-12T14:56:34Z</time>
      </trkpt>
      <trkpt lat="41.389783" lon="-4.618383">
        <ele>2285.0</ele>
        <time>2016-07-12T14:56:35Z</time>
      </trkpt>
      <trkpt lat="41.389750" lon="-4.618450">
        <ele>2284.0</ele>
        <time>2016-07-12T14:56:36Z</time>
      </trkpt>
      <trkpt lat="41.389733" lon="-4.618517">
        <ele>2282.0</ele>
        <time>2016-07-12T14:56:37Z</time>
      </trkpt>
      <trkpt lat="41.389733" lon="-4.618583">
        <ele>2281.0</ele>
        <time>2016-07-12T14:56:38Z</time>
      </trkpt>
      <trkpt lat="41.389750" lon="-4.618633">
        <ele>2279.0</ele>
        <time>2016-07-12T14:56:39Z</time>
      </trkpt>
      <trkpt lat="41.389800" lon="-4.618650">
        <ele>2277.0</ele>
        <time>2016-07-12T14:56:40Z</time>
      </trkpt>
      <trkpt lat="41.389883" lon="-4.618617">
        <ele>2275.0</ele>
        <time>2016-07-12T14:56:41Z</time>
      </trkpt>
      <trkpt lat="41.389950" lon="-4.618567">
        <ele>2274.0</ele>
        <time>2016-07-12T14:56:42Z</time>
      </trkpt>
      <trkpt lat="41.390017" lon="-4.618483">
        <ele>2273.0</ele>
        <time>2016-07-12T14:56:43Z</time>
      </trkpt>
      <trkpt lat="41.390083" lon="-4.618400">
        <ele>2271.0</ele>
        <time>2016-07-12T14:56:44Z</time>
      </trkpt>
      <trkpt lat="41.390150" lon="-4.618333">
        <ele>2270.0</ele>
        <time>2016-07-12T14:56:45Z</time>
      </trkpt>
      <trkpt lat="41.390217" lon="-4.618267">
        <ele>2269.0</ele>
        <time>2016-07-12T14:56:46Z</time>
      </trkpt>
      <trkpt lat="41.390283" lon="-4.618183">
        <ele>2269.0</ele>
        <time>2016-07-12T14:56:47Z</time>
      </trkpt>
      <trkpt lat="41.390333" lon="-4.618083">
        <ele>2269.0</ele>
        <time>2016-07-12T14:56:48Z</time>
      </trkpt>
      <trkpt lat="41.390383" lon="-4.617967">
        <ele>2269.0</ele>
        <time>2016-07-12T14:56:49Z</time>
      </trkpt>
      <trkpt lat="41.390433" lon="-4.617867">
        <ele>2267.0</ele>
        <time>2016-07-12T14:56:50Z</time>
      </trkpt>
      <trkpt lat="41.390500" lon="-4.617767">
        <ele>2266.0</ele>
        <time>2016-07-12T14:56:51Z</time>
      </trkpt>
      <trkpt lat="41.390550" lon="-4.617650">
        <ele>2266.0</ele>
        <time>2016-07-12T14:56:52Z</time>
      </trkpt>
      <trkpt lat="41.390600" lon="-4.617533">
        <ele>2266.0</ele>
        <time>2016-07-12T14:56:53Z</time>
      </trkpt>
      <trkpt lat="41.390650" lon="-4.617383">
        <ele>2266.0</ele>
        <time>2016-07-12T14:56:54Z</time>
      </trkpt>
      <trkpt lat="41.390683" lon="-4.617250">
        <ele>2266.0</ele>
        <time>2016-07-12T14:56:55Z</time>
      </trkpt>
      <trkpt lat="41.390733" lon="-4.617117">
        <ele>2266.0</ele>
        <time>2016-07-12T14:56:56Z</time>
      </trkpt>
      <trkpt lat="41.390783" lon="-4.616983">
        <ele>2266.0</ele>
        <time>2016-07-12T14:56:57Z</time>
      </trkpt>
      <trkpt lat="41.390800" lon="-4.616833">
        <ele>2267.0</ele>
        <time>2016-07-12T14:56:58Z</time>
      </trkpt>
      <trkpt lat="41.390817" lon="-4.616667">
        <ele>2267.0</ele>
        <time>2016-07-12T14:56:59Z</time>
      </trkpt>
      <trkpt lat="41.390800" lon="-4.616517">
        <ele>2267.0</ele>
        <time>2016-07-12T14:57:00Z</time>
      </trkpt>
      <trkpt lat="41.390783" lon="-4.616350">
        <ele>2267.0</ele>
        <time>2016-07-12T14:57:01Z</time>
      </trkpt>
      <trkpt lat="41.390750" lon="-4.616183">
        <ele>2266.0</ele>
        <time>2016-07-12T14:57:02Z</time>
      </trkpt>
      <trkpt lat="41.390700" lon="-4.616017">
        <ele>2266.0</ele>
        <time>2016-07-12T14:57:03Z</time>
      </trkpt>
      <trkpt lat="41.390667" lon="-4.615867">
        <ele>2266.0</ele>
        <time>2016-07-12T14:57:04Z</time>
      </trkpt>
      <trkpt lat="41.390600" lon="-4.615717">
        <ele>2266.0</ele>
        <time>2016-07-12T14:57:05Z</time>
      </trkpt>
      <trkpt lat="41.390533" lon="-4.615583">
        <ele>2266.0</ele>
        <time>2016-07-12T14:57:06Z</time>
      </trkpt>
      <trkpt lat="41.390450" lon="-4.615450">
        <ele>2266.0</ele>
        <time>2016-07-12T14:57:07Z</time>
      </trkpt>
      <trkpt lat="41.390367" lon="-4.615350">
        <ele>2266.0</ele>
        <time>2016-07-12T14:57:08Z</time>
      </trkpt>
      <trkpt lat="41.390283" lon="-4.615250">
        <ele>2266.0</ele>
        <time>2016-07-12T14:57:09Z</time>
      </trkpt>
      <trkpt lat="41.390217" lon="-4.615167">
        <ele>2266.0</ele>
        <time>2016-07-12T14:57:10Z</time>
      </trkpt>
      <trkpt lat="41.390133" lon="-4.615083">
        <ele>2266.0</ele>
        <time>2016-07-12T14:57:11Z</time>
      </trkpt>
      <trkpt lat="41.390033" lon="-4.615000">
        <ele>2264.0</ele>
        <time>2016-07-12T14:57:12Z</time>
      </trkpt>
      <trkpt lat="41.389950" lon="-4.614933">
        <ele>2263.0</ele>
        <time>2016-07-12T14:57:13Z</time>
      </trkpt>
      <trkpt lat="41.389850" lon="-4.614850">
        <ele>2262.0</ele>
        <time>2016-07-12T14:57:14Z</time>
      </trkpt>
      <trkpt lat="41.389767" lon="-4.614783">
        <ele>2261.0</ele>
        <time>2016-07-12T14:57:15Z</time>
      </trkpt>
      <trkpt lat="41.389683" lon="-4.614683">
        <ele>2260.0</ele>
        <time>2016-07-12T14:57:16Z</time>
      </trkpt>
      <trkpt lat="41.389600" lon="-4.614600">
        <ele>2258.0</ele>
        <time>2016-07-12T14:57:17Z</time>
      </trkpt>
      <trkpt lat="41.389500" lon="-4.614500">
        <ele>2257.0</ele>
        <time>2016-07-12T14:57:18Z</time>
      </trkpt>
      <trkpt lat="41.389400" lon="-4.614400">
        <ele>2256.0</ele>
        <time>2016-07-12T14:57:19Z</time>
      </trkpt>
      <trkpt lat="41.389317" lon="-4.614300">
        <ele>2256.0</ele>
        <time>2016-07-12T14:57:20Z</time>
      </trkpt>
      <trkpt lat="41.389217" lon="-4.614200">
        <ele>2255.0</ele>
        <time>2016-07-12T14:57:21Z</time>
      </trkpt>
      <trkpt lat="41.389133" lon="-4.614100">
        <ele>2255.0</ele>
        <time>2016-07-12T14:57:22Z</time>
      </trkpt>
      <trkpt lat="41.389050" lon="-4.614000">
        <ele>2254.0</ele>
        <time>2016-07-12T14:57:23Z</time>
      </trkpt>
      <trkpt lat="41.388950" lon="-4.613917">
        <ele>2251.0</ele>
        <time>2016-07-12T14:57:24Z</time>
      </trkpt>
      <trkpt lat="41.388833" lon="-4.613817">
        <ele>2249.0</ele>
        <time>2016-07-12T14:57:25Z</time>
      </trkpt>
      <trkpt lat="41.388733" lon="-4.613700">
        <ele>2247.0</ele>
        <time>2016-07-12T14:57:26Z</time>
      </trkpt>
      <trkpt lat="41.388633" lon="-4.613600">
        <ele>2247.0</ele>
        <time>2016-07-12T14:57:27Z</time>
      </trkpt>
      <trkpt lat="41.388533" lon="-4.613500">
        <ele>2248.0</ele>
        <time>2016-07-12T14:57:28Z</time>
      </trkpt>
      <trkpt lat="41.388450" lon="-4.613417">
        <ele>2247.0</ele>
        <time>2016-07-12T14:57:29Z</time>
      </trkpt>
      <trkpt lat="41.388350" lon="-4.613350">
        <ele>2245.0</ele>
        <time>2016-07-12T14:57:30Z</time>
      </trkpt>
      <trkpt lat="41.388267" lon="-4.613250">
        <ele>2242.0</ele>
        <time>2016-07-12T14:57:31Z</time>
      </trkpt>
      <trkpt lat="41.388150" lon="-4.613167">
        <ele>2239.0</ele>
        <time>2016-07-12T14:57:32Z</time>
      </trkpt>
      <trkpt lat="41.388050" lon="-4.613067">
        <ele>2237.0</ele>
        <time>2016-07-12T14:57:33Z</time>
      </trkpt>
      <trkpt lat="41.387950" lon="-4.612983">
        <ele>2236.0</ele>
        <time>2016-07-12T14:57:34Z</time>
      </trkpt>
      <trkpt lat="41.387867" lon="-4.612917">
        <ele>2234.0</ele>
        <time>2016-07-12T14:57:35Z</time>
      </trkpt>
      <trkpt lat="41.387767" lon="-4.612850">
        <ele>2232.0</ele>
        <time>2016-07-12T14:57:36Z</time>
      </trkpt>
      <trkpt lat="41.387683" lon="-4.612800">
        <ele>2228.0</ele>
        <time>2016-07-12T14:57:37Z</time>
      </trkpt>
      <trkpt lat="41.387567" lon="-4.612733">
        <ele>2225.0</ele>
        <time>2016-07-12T14:57:38Z</time>
      </trkpt>
      <trkpt lat="41.387467" lon="-4.612650">
        <ele>2222.0</ele>
        <time>2016-07-12T14:57:39Z</time>
      </trkpt>
      <trkpt lat="41.387367" lon="-4.612583">
        <ele>2221.0</ele>
        <time>2016-07-12T14:57:40Z</time>
      </trkpt>
      <trkpt lat="41.387283" lon="-4.612550">
        <ele>2219.0</ele>
        <time>2016-07-12T14:57:41Z</time>
      </trkpt>
      <trkpt lat="41.387183" lon="-4.612500">
        <ele>2217.0</ele>
        <time>2016-07-12T14:57:42Z</time>
      </trkpt>
      <trkpt lat="41.387083" lon="-4.612467">
        <ele>2214.0</ele>
        <time>2016-07-12T14:57:43Z</time>
      </trkpt>
      <trkpt lat="41.386983" lon="-4.612433">
        <ele>2211.0</ele>
        <time>2016-07-12T14:57:44Z</time>
      </trkpt>
      <trkpt lat="41.386883" lon="-4.612367">
        <ele>2209.0</ele>
        <time>2016-07-12T14:57:45Z</time>
      </trkpt>
      <trkpt lat="41.386783" lon="-4.612333">
        <ele>2207.0</ele>
        <time>2016-07-12T14:57:46Z</time>
      </trkpt>
      <trkpt lat="41.386683" lon="-4.612300">
        <ele>2205.0</ele>
        <time>2016-07-12T14:57:47Z</time>
      </trkpt>
      <trkpt lat="41.386583" lon="-4.612300">
        <ele>2203.0</ele>
        <time>2016-07-12T14:57:48Z</time>
      </trkpt>
      <trkpt lat="41.386467" lon="-4.612283">
        <ele>2202.0</ele>
        <time>2016-07-12T14:57:49Z</time>
      </trkpt>
      <trkpt lat="41.386383" lon="-4.612267">
        <ele>2201.0</ele>
        <time>2016-07-12T14:57:50Z</time>
      </trkpt>
      <trkpt lat="41.386283" lon="-4.612217">
        <ele>2200.0</ele>
        <time>2016-07-12T14:57:51Z</time>
      </trkpt>
      <trkpt lat="41.386200" lon="-4.612183">
        <ele>2197.0</ele>
        <time>2016-07-12T14:57:52Z</time>
      </trkpt>
      <trkpt lat="41.386100" lon="-4.612167">
        <ele>2194.0</ele>
        <time>2016-07-12T14:57:53Z</time>
      </trkpt>
      <trkpt lat="41.386000" lon="-4.612167">
        <ele>2191.0</ele>
        <time>2016-07-12T14:57:54Z</time>
      </trkpt>
      <trkpt lat="41.385900" lon="-4.612183">
        <ele>2189.0</ele>
        <time>2016-07-12T14:57:55Z</time>
      </trkpt>
      <trkpt lat="41.385783" lon="-4.612167">
        <ele>2187.0</ele>
        <time>2016-07-12T14:57:56Z</time>
      </trkpt>
      <trkpt lat="41.385683" lon="-4.612167">
        <ele>2185.0</ele>
        <time>2016-07-12T14:57:57Z</time>
      </trkpt>
      <trkpt lat="41.385567" lon="-4.612150">
        <ele>2184.0</ele>
        <time>2016-07-12T14:57:58Z</time>
      </trkpt>
      <trkpt lat="41.385467" lon="-4.612150">
        <ele>2182.0</ele>
        <time>2016-07-12T14:57:59Z</time>
      </trkpt>
      <trkpt lat="41.385383" lon="-4.612167">
        <ele>2179.0</ele>
        <time>2016-07-12T14:58:00Z</time>
      </trkpt>
      <trkpt lat="41.385283" lon="-4.612183">
        <ele>2176.0</ele>
        <time>2016-07-12T14:58:01Z</time>
      </trkpt>
      <trkpt lat="41.385167" lon="-4.612167">
        <ele>2172.0</ele>
        <time>2016-07-12T14:58:02Z</time>
      </trkpt>
      <trkpt lat="41.385050" lon="-4.612133">
        <ele>2169.0</ele>
        <time>2016-07-12T14:58:03Z</time>
      </trkpt>
      <trkpt lat="41.384933" lon="-4.612100">
        <ele>2165.0</ele>
        <time>2016-07-12T14:58:04Z</time>
      </trkpt>
      <trkpt lat="41.384817" lon="-4.612067">
        <ele>2163.0</ele>
        <time>2016-07-12T14:58:05Z</time>
      </trkpt>
      <trkpt lat="41.384717" lon="-4.612050">
        <ele>2161.0</ele>
        <time>2016-07-12T14:58:06Z</time>
      </trkpt>
      <trkpt lat="41.384600" lon="-4.612033">
        <ele>2158.0</ele>
        <time>2016-07-12T14:58:07Z</time>
      </trkpt>
      <trkpt lat="41.384483" lon="-4.612017">
        <ele>2155.0</ele>
        <time>2016-07-12T14:58:08Z</time>
      </trkpt>
      <trkpt lat="41.384367" lon="-4.611983">
        <ele>2152.0</ele>
        <time>2016-07-12T14:58:09Z</time>
      </trkpt>
      <trkpt lat="41.384233" lon="-4.611983">
        <ele>2150.0</ele>
        <time>2016-07-12T14:58:10Z</time>
      </trkpt>
      <trkpt lat="41.384083" lon="-4.611950">
        <ele>2149.0</ele>
        <time>2016-07-12T14:58:11Z</time>
      </trkpt>
      <trkpt lat="41.383950" lon="-4.611917">
        <ele>2150.0</ele>
        <time>2016-07-12T14:58:12Z</time>
      </trkpt>
      <trkpt lat="41.383817" lon="-4.611883">
        <ele>2152.0</ele>
        <time>2016-07-12T14:58:13Z</time>
      </trkpt>
      <trkpt lat="41.383683" lon="-4.611850">
        <ele>2155.0</ele>
        <time>2016-07-12T14:58:14Z</time>
      </trkpt>
      <trkpt lat="41.383567" lon="-4.611817">
        <ele>2158.0</ele>
        <time>2016-07-12T14:58:15Z</time>
      </trkpt>
      <trkpt lat="41.383467" lon="-4.611767">
        <ele>2161.0</ele>
        <time>2016-07-12T14:58:16Z</time>
      </trkpt>
      <trkpt lat="41.383367" lon="-4.611717">
        <ele>2163.0</ele>
        <time>2016-07-12T14:58:17Z</time>
      </trkpt>
      <trkpt lat="41.383267" lon="-4.611667">
        <ele>2165.0</ele>
        <time>2016-07-12T14:58:18Z</time>
      </trkpt>
      <trkpt lat="41.383150" lon="-4.611633">
        <ele>2167.0</ele>
        <time>2016-07-12T14:58:19Z</time>
      </trkpt>
      <trkpt lat="41.383050" lon="-4.611633">
        <ele>2170.0</ele>
        <time>2016-07-12T14:58:20Z</time>
      </trkpt>
      <trkpt lat="41.382950" lon="-4.611650">
        <ele>2175.0</ele>
        <time>2016-07-12T14:58:21Z</time>
      </trkpt>
      <trkpt lat="41.382867" lon="-4.611650">
        <ele>2181.0</ele>
        <time>2016-07-12T14:58:22Z</time>
      </trkpt>
      <trkpt lat="41.382783" lon="-4.611667">
        <ele>2187.0</ele>
        <time>2016-07-12T14:58:23Z</time>
      </trkpt>
      <trkpt lat="41.382717" lon="-4.611683">
        <ele>2191.0</ele>
        <time>2016-07-12T14:58:24Z</time>
      </trkpt>
      <trkpt lat="41.382667" lon="-4.611750">
        <ele>2194.0</ele>
        <time>2016-07-12T14:58:25Z</time>
      </trkpt>
      <trkpt lat="41.382633" lon="-4.611833">
        <ele>2196.0</ele>
        <time>2016-07-12T14:58:26Z</time>
      </trkpt>
      <trkpt lat="41.382667" lon="-4.611917">
        <ele>2199.0</ele>
        <time>2016-07-12T14:58:27Z</time>
      </trkpt>
      <trkpt lat="41.382717" lon="-4.611983">
        <ele>2202.0</ele>
        <time>2016-07-12T14:58:28Z</time>
      </trkpt>
      <trkpt lat="41.382800" lon="-4.611967">
        <ele>2205.0</ele>
        <time>2016-07-12T14:58:29Z</time>
      </trkpt>
      <trkpt lat="41.382883" lon="-4.611900">
        <ele>2208.0</ele>
        <time>2016-07-12T14:58:30Z</time>
      </trkpt>
      <trkpt lat="41.382933" lon="-4.611783">
        <ele>2211.0</ele>
        <time>2016-07-12T14:58:31Z</time>
      </trkpt>
      <trkpt lat="41.382967" lon="-4.611650">
        <ele>2214.0</ele>
        <time>2016-07-12T14:58:32Z</time>
      </trkpt>
      <trkpt lat="41.382983" lon="-4.611517">
        <ele>2218.0</ele>
        <time>2016-07-12T14:58:33Z</time>
      </trkpt>
      <trkpt lat="41.382967" lon="-4.611383">
        <ele>2221.0</ele>
        <time>2016-07-12T14:58:34Z</time>
      </trkpt>
      <trkpt lat="41.382950" lon="-4.611233">
        <ele>2225.0</ele>
        <time>2016-07-12T14:58:35Z</time>
      </trkpt>
      <trkpt lat="41.382917" lon="-4.611100">
        <ele>2228.0</ele>
        <time>2016-07-12T14:58:36Z</time>
      </trkpt>
      <trkpt lat="41.382883" lon="-4.610950">
        <ele>2232.0</ele>
        <time>2016-07-12T14:58:37Z</time>
      </trkpt>
      <trkpt lat="41.382817" lon="-4.610833">
        <ele>2236.0</ele>
        <time>2016-07-12T14:58:38Z</time>
      </trkpt>
      <trkpt lat="41.382767" lon="-4.610700">
        <ele>2240.0</ele>
        <time>2016-07-12T14:58:39Z</time>
      </trkpt>
      <trkpt lat="41.382700" lon="-4.610583">
        <ele>2243.0</ele>
        <time>2016-07-12T14:58:40Z</time>
      </trkpt>
      <trkpt lat="41.382633" lon="-4.610450">
        <ele>2246.0</ele>
        <time>2016-07-12T14:58:41Z</time>
      </trkpt>
      <trkpt lat="41.382567" lon="-4.610350">
        <ele>2249.0</ele>
        <time>2016-07-12T14:58:42Z</time>
      </trkpt>
      <trkpt lat="41.382467" lon="-4.610267">
        <ele>2252.0</ele>
        <time>2016-07-12T14:58:43Z</time>
      </trkpt>
      <trkpt lat="41.382367" lon="-4.610250">
        <ele>2254.0</ele>
        <time>2016-07-12T14:58:44Z</time>
      </trkpt>
      <trkpt lat="41.382267" lon="-4.610250">
        <ele>2256.0</ele>
        <time>2016-07-12T14:58:45Z</time>
      </trkpt>
      <trkpt lat="41.382167" lon="-4.610267">
        <ele>2258.0</ele>
        <time>2016-07-12T14:58:46Z</time>
      </trkpt>
      <trkpt lat="41.382083" lon="-4.610317">
        <ele>2259.0</ele>
        <time>2016-07-12T14:58:47Z</time>
      </trkpt>
      <trkpt lat="41.382017" lon="-4.610400">
        <ele>2260.0</ele>
        <time>2016-07-12T14:58:48Z</time>
      </trkpt>
      <trkpt lat="41.382000" lon="-4.610517">
        <ele>2260.0</ele>
        <time>2016-07-12T14:58:49Z</time>
      </trkpt>
      <trkpt lat="41.382033" lon="-4.610633">
        <ele>2260.0</ele>
        <time>2016-07-12T14:58:50Z</time>
      </trkpt>
      <trkpt lat="41.382117" lon="-4.610700">
        <ele>2263.0</ele>
        <time>2016-07-12T14:58:51Z</time>
      </trkpt>
      <trkpt lat="41.382200" lon="-4.610700">
        <ele>2267.0</ele>
        <time>2016-07-12T14:58:52Z</time>
      </trkpt>
      <trkpt lat="41.382283" lon="-4.610650">
        <ele>2271.0</ele>
        <time>2016-07-12T14:58:53Z</time>
      </trkpt>
      <trkpt lat="41.382333" lon="-4.610617">
        <ele>2276.0</ele>
        <time>2016-07-12T14:58:54Z</time>
      </trkpt>
      <trkpt lat="41.382400" lon="-4.610600">
        <ele>2279.0</ele>
        <time>2016-07-12T14:58:55Z</time>
      </trkpt>
      <trkpt lat="41.382450" lon="-4.610583">
        <ele>2283.0</ele>
        <time>2016-07-12T14:58:56Z</time>
      </trkpt>
      <trkpt lat="41.382517" lon="-4.610550">
        <ele>2285.0</ele>
        <time>2016-07-12T14:58:57Z</time>
      </trkpt>
      <trkpt lat="41.382567" lon="-4.610467">
        <ele>2287.0</ele>
        <time>2016-07-12T14:58:58Z</time>
      </trkpt>
      <trkpt lat="41.382617" lon="-4.610350">
        <ele>2289.0</ele>
        <time>2016-07-12T14:58:59Z</time>
      </trkpt>
      <trkpt lat="41.382633" lon="-4.610217">
        <ele>2292.0</ele>
        <time>2016-07-12T14:59:00Z</time>
      </trkpt>
      <trkpt lat="41.382633" lon="-4.610100">
        <ele>2296.0</ele>
        <time>2016-07-12T14:59:01Z</time>
      </trkpt>
      <trkpt lat="41.382633" lon="-4.609967">
        <ele>2299.0</ele>
        <time>2016-07-12T14:59:02Z</time>
      </trkpt>
      <trkpt lat="41.382633" lon="-4.609867">
        <ele>2302.0</ele>
        <time>2016-07-12T14:59:03Z</time>
      </trkpt>
      <trkpt lat="41.382617" lon="-4.609750">
        <ele>2303.0</ele>
        <time>2016-07-12T14:59:04Z</time>
      </trkpt>
      <trkpt lat="41.382583" lon="-4.609633">
        <ele>2304.0</ele>
        <time>2016-07-12T14:59:05Z</time>
      </trkpt>
      <trkpt lat="41.382550" lon="-4.609500">
        <ele>2304.0</ele>
        <time>2016-07-12T14:59:06Z</time>
      </trkpt>
      <trkpt lat="41.382467" lon="-4.609383">
        <ele>2304.0</ele>
        <time>2016-07-12T14:59:07Z</time>
      </trkpt>
      <trkpt lat="41.382383" lon="-4.609283">
        <ele>2306.0</ele>
        <time>2016-07-12T14:59:08Z</time>
      </trkpt>
      <trkpt lat="41.382283" lon="-4.609250">
        <ele>2308.0</ele>
        <time>2016-07-12T14:59:09Z</time>
      </trkpt>
      <trkpt lat="41.382183" lon="-4.609283">
        <ele>2311.0</ele>
        <time>2016-07-12T14:59:10Z</time>
      </trkpt>
      <trkpt lat="41.382117" lon="-4.609350">
        <ele>2313.0</ele>
        <time>2016-07-12T14:59:11Z</time>
      </trkpt>
      <trkpt lat="41.382033" lon="-4.609417">
        <ele>2316.0</ele>
        <time>2016-07-12T14:59:12Z</time>
      </trkpt>
      <trkpt lat="41.381967" lon="-4.609467">
        <ele>2319.0</ele>
        <time>2016-07-12T14:59:13Z</time>
      </trkpt>
      <trkpt lat="41.381883" lon="-4.609517">
        <ele>2319.0</ele>
        <time>2016-07-12T14:59:14Z</time>
      </trkpt>
      <trkpt lat="41.381817" lon="-4.609583">
        <ele>2320.0</ele>
        <time>2016-07-12T14:59:15Z</time>
      </trkpt>
      <trkpt lat="41.381750" lon="-4.609650">
        <ele>2320.0</ele>
        <time>2016-07-12T14:59:16Z</time>
      </trkpt>
      <trkpt lat="41.381700" lon="-4.609750">
        <ele>2321.0</ele>
        <time>2016-07-12T14:59:17Z</time>
      </trkpt>
      <trkpt lat="41.381683" lon="-4.609850">
        <ele>2323.0</ele>
        <time>2016-07-12T14:59:18Z</time>
      </trkpt>
      <trkpt lat="41.381683" lon="-4.609967">
        <ele>2325.0</ele>
        <time>2016-07-12T14:59:19Z</time>
      </trkpt>
      <trkpt lat="41.381700" lon="-4.610067">
        <ele>2327.0</ele>
        <time>2016-07-12T14:59:20Z</time>
      </trkpt>
      <trkpt lat="41.381717" lon="-4.610167">
        <ele>2328.0</ele>
        <time>2016-07-12T14:59:21Z</time>
      </trkpt>
      <trkpt lat="41.381717" lon="-4.610267">
        <ele>2330.0</ele>
        <time>2016-07-12T14:59:22Z</time>
      </trkpt>
      <trkpt lat="41.381733" lon="-4.610367">
        <ele>2332.0</ele>
        <time>2016-07-12T14:59:23Z</time>
      </trkpt>
      <trkpt lat="41.381750" lon="-4.610467">
        <ele>2334.0</ele>
        <time>2016-07-12T14:59:24Z</time>
      </trkpt>
      <trkpt lat="41.381800" lon="-4.610533">
        <ele>2336.0</ele>
        <time>2016-07-12T14:59:25Z</time>
      </trkpt>
      <trkpt lat="41.381867" lon="-4.610567">
        <ele>2337.0</ele>
        <time>2016-07-12T14:59:26Z</time>
      </trkpt>
      <trkpt lat="41.381950" lon="-4.610533">
        <ele>2338.0</ele>
        <time>2016-07-12T14:59:27Z</time>
      </trkpt>
      <trkpt lat="41.382000" lon="-4.610467">
        <ele>2340.0</ele>
        <time>2016-07-12T14:59:28Z</time>
      </trkpt>
      <trkpt lat="41.382033" lon="-4.610367">
        <ele>2342.0</ele>
        <time>2016-07-12T14:59:29Z</time>
      </trkpt>
      <trkpt lat="41.382050" lon="-4.610267">
        <ele>2343.0</ele>
        <time>2016-07-12T14:59:30Z</time>
      </trkpt>
      <trkpt lat="41.382067" lon="-4.610167">
        <ele>2345.0</ele>
        <time>2016-07-12T14:59:31Z</time>
      </trkpt>
      <trkpt lat="41.382083" lon="-4.610050">
        <ele>2345.0</ele>
        <time>2016-07-12T14:59:32Z</time>
      </trkpt>
      <trkpt lat="41.382083" lon="-4.609917">
        <ele>2346.0</ele>
        <time>2016-07-12T14:59:33Z</time>
      </trkpt>
      <trkpt lat="41.382067" lon="-4.609783">
        <ele>2347.0</ele>
        <time>2016-07-12T14:59:34Z</time>
      </trkpt>
      <trkpt lat="41.382050" lon="-4.609667">
        <ele>2349.0</ele>
        <time>2016-07-12T14:59:35Z</time>
      </trkpt>
      <trkpt lat="41.381983" lon="-4.609550">
        <ele>2350.0</ele>
        <time>2016-07-12T14:59:36Z</time>
      </trkpt>
      <trkpt lat="41.381933" lon="-4.609450">
        <ele>2352.0</ele>
        <time>2016-07-12T14:59:37Z</time>
      </trkpt>
      <trkpt lat="41.381867" lon="-4.609367">
        <ele>2354.0</ele>
        <time>2016-07-12T14:59:38Z</time>
      </trkpt>
      <trkpt lat="41.381833" lon="-4.609283">
        <ele>2356.0</ele>
        <time>2016-07-12T14:59:39Z</time>
      </trkpt>
      <trkpt lat="41.381800" lon="-4.609200">
        <ele>2357.0</ele>
        <time>2016-07-12T14:59:40Z</time>
      </trkpt>
      <trkpt lat="41.381750" lon="-4.609117">
        <ele>2357.0</ele>
        <time>2016-07-12T14:59:41Z</time>
      </trkpt>
      <trkpt lat="41.381683" lon="-4.609067">
        <ele>2356.0</ele>
        <time>2016-07-12T14:59:42Z</time>
      </trkpt>
      <trkpt lat="41.381600" lon="-4.609050">
        <ele>2356.0</ele>
        <time>2016-07-12T14:59:43Z</time>
      </trkpt>
      <trkpt lat="41.381533" lon="-4.609050">
        <ele>2356.0</ele>
        <time>2016-07-12T14:59:44Z</time>
      </trkpt>
      <trkpt lat="41.381450" lon="-4.609083">
        <ele>2356.0</ele>
        <time>2016-07-12T14:59:45Z</time>
      </trkpt>
      <trkpt lat="41.381367" lon="-4.609117">
        <ele>2357.0</ele>
        <time>2016-07-12T14:59:46Z</time>
      </trkpt>
      <trkpt lat="41.381300" lon="-4.609183">
        <ele>2357.0</ele>
        <time>2016-07-12T14:59:47Z</time>
      </trkpt>
      <trkpt lat="41.381233" lon="-4.609267">
        <ele>2358.0</ele>
        <time>2016-07-12T14:59:48Z</time>
      </trkpt>
      <trkpt lat="41.381150" lon="-4.609333">
        <ele>2359.0</ele>
        <time>2016-07-12T14:59:49Z</time>
      </trkpt>
      <trkpt lat="41.381067" lon="-4.609400">
        <ele>2361.0</ele>
        <time>2016-07-12T14:59:50Z</time>
      </trkpt>
      <trkpt lat="41.381000" lon="-4.609467">
        <ele>2363.0</ele>
        <time>2016-07-12T14:59:51Z</time>
      </trkpt>
      <trkpt lat="41.380933" lon="-4.609533">
        <ele>2364.0</ele>
        <time>2016-07-12T14:59:52Z</time>
      </trkpt>
      <trkpt lat="41.380867" lon="-4.609600">
        <ele>2364.0</ele>
        <time>2016-07-12T14:59:53Z</time>
      </trkpt>
      <trkpt lat="41.380800" lon="-4.609683">
        <ele>2364.0</ele>
        <time>2016-07-12T14:59:54Z</time>
      </trkpt>
      <trkpt lat="41.380750" lon="-4.609750">
        <ele>2365.0</ele>
        <time>2016-07-12T14:59:55Z</time>
      </trkpt>
      <trkpt lat="41.380683" lon="-4.609833">
        <ele>2365.0</ele>
        <time>2016-07-12T14:59:56Z</time>
      </trkpt>
      <trkpt lat="41.380633" lon="-4.609933">
        <ele>2366.0</ele>
        <time>2016-07-12T14:59:57Z</time>
      </trkpt>
      <trkpt lat="41.380600" lon="-4.610017">
        <ele>2367.0</ele>
        <time>2016-07-12T14:59:58Z</time>
      </trkpt>
      <trkpt lat="41.380567" lon="-4.610117">
        <ele>2367.0</ele>
        <time>2016-07-12T14:59:59Z</time>
      </trkpt>
      <trkpt lat="41.380550" lon="-4.610233">
        <ele>2367.0</ele>
        <time>2016-07-12T15:00:00Z</time>
      </trkpt>
      <trkpt lat="41.380533" lon="-4.610317">
        <ele>2367.0</ele>
        <time>2016-07-12T15:00:01Z</time>
      </trkpt>
      <trkpt lat="41.380517" lon="-4.610400">
        <ele>2367.0</ele>
        <time>2016-07-12T15:00:02Z</time>
      </trkpt>
      <trkpt lat="41.380533" lon="-4.610483">
        <ele>2366.0</ele>
        <time>2016-07-12T15:00:03Z</time>
      </trkpt>
      <trkpt lat="41.380550" lon="-4.610567">
        <ele>2363.0</ele>
        <time>2016-07-12T15:00:04Z</time>
      </trkpt>
      <trkpt lat="41.380600" lon="-4.610633">
        <ele>2361.0</ele>
        <time>2016-07-12T15:00:05Z</time>
      </trkpt>
      <trkpt lat="41.380633" lon="-4.610700">
        <ele>2359.0</ele>
        <time>2016-07-12T15:00:06Z</time>
      </trkpt>
      <trkpt lat="41.380683" lon="-4.610733">
        <ele>2357.0</ele>
        <time>2016-07-12T15:00:07Z</time>
      </trkpt>
      <trkpt lat="41.380717" lon="-4.610750">
        <ele>2354.0</ele>
        <time>2016-07-12T15:00:08Z</time>
      </trkpt>
      <trkpt lat="41.380767" lon="-4.610767">
        <ele>2351.0</ele>
        <time>2016-07-12T15:00:09Z</time>
      </trkpt>
      <trkpt lat="41.380817" lon="-4.610767">
        <ele>2348.0</ele>
        <time>2016-07-12T15:00:10Z</time>
      </trkpt>
      <trkpt lat="41.380867" lon="-4.610750">
        <ele>2347.0</ele>
        <time>2016-07-12T15:00:11Z</time>
      </trkpt>
      <trkpt lat="41.380917" lon="-4.610700">
        <ele>2345.0</ele>
        <time>2016-07-12T15:00:12Z</time>
      </trkpt>
      <trkpt lat="41.380967" lon="-4.610650">
        <ele>2342.0</ele>
        <time>2016-07-12T15:00:13Z</time>
      </trkpt>
      <trkpt lat="41.381017" lon="-4.610550">
        <ele>2339.0</ele>
        <time>2016-07-12T15:00:14Z</time>
      </trkpt>
      <trkpt lat="41.381083" lon="-4.610450">
        <ele>2335.0</ele>
        <time>2016-07-12T15:00:15Z</time>
      </trkpt>
      <trkpt lat="41.381133" lon="-4.610300">
        <ele>2332.0</ele>
        <time>2016-07-12T15:00:16Z</time>
      </trkpt>
      <trkpt lat="41.381167" lon="-4.610133">
        <ele>2330.0</ele>
        <time>2016-07-12T15:00:17Z</time>
      </trkpt>
      <trkpt lat="41.381167" lon="-4.609967">
        <ele>2328.0</ele>
        <time>2016-07-12T15:00:18Z</time>
      </trkpt>
      <trkpt lat="41.381167" lon="-4.609783">
        <ele>2328.0</ele>
        <time>2016-07-12T15:00:19Z</time>
      </trkpt>
      <trkpt lat="41.381150" lon="-4.609617">
        <ele>2328.0</ele>
        <time>2016-07-12T15:00:20Z</time>
      </trkpt>
      <trkpt lat="41.381117" lon="-4.609483">
        <ele>2328.0</ele>
        <time>2016-07-12T15:00:21Z</time>
      </trkpt>
      <trkpt lat="41.381100" lon="-4.609367">
        <ele>2326.0</ele>
        <time>2016-07-12T15:00:22Z</time>
      </trkpt>
      <trkpt lat="41.381083" lon="-4.609233">
        <ele>2322.0</ele>
        <time>2016-07-12T15:00:23Z</time>
      </trkpt>
      <trkpt lat="41.381033" lon="-4.609100">
        <ele>2317.0</ele>
        <time>2016-07-12T15:00:24Z</time>
      </trkpt>
      <trkpt lat="41.381000" lon="-4.608917">
        <ele>2313.0</ele>
        <time>2016-07-12T15:00:25Z</time>
      </trkpt>
      <trkpt lat="41.380967" lon="-4.608717">
        <ele>2311.0</ele>
        <time>2016-07-12T15:00:26Z</time>
      </trkpt>
      <trkpt lat="41.380950" lon="-4.608517">
        <ele>2312.0</ele>
        <time>2016-07-12T15:00:27Z</time>
      </trkpt>
      <trkpt lat="41.380917" lon="-4.608367">
        <ele>2316.0</ele>
        <time>2016-07-12T15:00:28Z</time>
      </trkpt>
      <trkpt lat="41.380900" lon="-4.608233">
        <ele>2319.0</ele>
        <time>2016-07-12T15:00:29Z</time>
      </trkpt>
      <trkpt lat="41.380867" lon="-4.608117">
        <ele>2320.0</ele>
        <time>2016-07-12T15:00:30Z</time>
      </trkpt>
      <trkpt lat="41.380833" lon="-4.608000">
        <ele>2319.0</ele>
        <time>2016-07-12T15:00:31Z</time>
      </trkpt>
      <trkpt lat="41.380800" lon="-4.607850">
        <ele>2318.0</ele>
        <time>2016-07-12T15:00:32Z</time>
      </trkpt>
      <trkpt lat="41.380767" lon="-4.607683">
        <ele>2316.0</ele>
        <time>2016-07-12T15:00:33Z</time>
      </trkpt>
      <trkpt lat="41.380733" lon="-4.607517">
        <ele>2316.0</ele>
        <time>2016-07-12T15:00:34Z</time>
      </trkpt>
      <trkpt lat="41.380700" lon="-4.607367">
        <ele>2316.0</ele>
        <time>2016-07-12T15:00:35Z</time>
      </trkpt>
      <trkpt lat="41.380667" lon="-4.607233">
        <ele>2316.0</ele>
        <time>2016-07-12T15:00:36Z</time>
      </trkpt>
      <trkpt lat="41.380617" lon="-4.607100">
        <ele>2315.0</ele>
        <time>2016-07-12T15:00:37Z</time>
      </trkpt>
      <trkpt lat="41.380583" lon="-4.606950">
        <ele>2314.0</ele>
        <time>2016-07-12T15:00:38Z</time>
      </trkpt>
      <trkpt lat="41.380533" lon="-4.606783">
        <ele>2313.0</ele>
        <time>2016-07-12T15:00:39Z</time>
      </trkpt>
      <trkpt lat="41.380483" lon="-4.606617">
        <ele>2314.0</ele>
        <time>2016-07-12T15:00:40Z</time>
      </trkpt>
      <trkpt lat="41.380433" lon="-4.606483">
        <ele>2315.0</ele>
        <time>2016-07-12T15:00:41Z</time>
      </trkpt>
      <trkpt lat="41.380383" lon="-4.606350">
        <ele>2316.0</ele>
        <time>2016-07-12T15:00:42Z</time>
      </trkpt>
      <trkpt lat="41.380333" lon="-4.606217">
        <ele>2316.0</ele>
        <time>2016-07-12T15:00:43Z</time>
      </trkpt>
      <trkpt lat="41.380267" lon="-4.606083">
        <ele>2315.0</ele>
        <time>2016-07-12T15:00:44Z</time>
      </trkpt>
      <trkpt lat="41.380217" lon="-4.605917">
        <ele>2315.0</ele>
        <time>2016-07-12T15:00:45Z</time>
      </trkpt>
      <trkpt lat="41.380183" lon="-4.605750">
        <ele>2316.0</ele>
        <time>2016-07-12T15:00:46Z</time>
      </trkpt>
      <trkpt lat="41.380167" lon="-4.605600">
        <ele>2317.0</ele>
        <time>2016-07-12T15:00:47Z</time>
      </trkpt>
      <trkpt lat="41.380150" lon="-4.605433">
        <ele>2318.0</ele>
        <time>2016-07-12T15:00:48Z</time>
      </trkpt>
      <trkpt lat="41.380117" lon="-4.605300">
        <ele>2319.0</ele>
        <time>2016-07-12T15:00:49Z</time>
      </trkpt>
      <trkpt lat="41.380083" lon="-4.605167">
        <ele>2320.0</ele>
        <time>2016-07-12T15:00:50Z</time>
      </trkpt>
      <trkpt lat="41.380033" lon="-4.605017">
        <ele>2320.0</ele>
        <time>2016-07-12T15:00:51Z</time>
      </trkpt>
      <trkpt lat="41.379983" lon="-4.604883">
        <ele>2320.0</ele>
        <time>2016-07-12T15:00:52Z</time>
      </trkpt>
      <trkpt lat="41.379933" lon="-4.604750">
        <ele>2320.0</ele>
        <time>2016-07-12T15:00:53Z</time>
      </trkpt>
      <trkpt lat="41.379883" lon="-4.604617">
        <ele>2320.0</ele>
        <time>2016-07-12T15:00:54Z</time>
      </trkpt>
      <trkpt lat="41.379833" lon="-4.604483">
        <ele>2320.0</ele>
        <time>2016-07-12T15:00:55Z</time>
      </trkpt>
      <trkpt lat="41.379783" lon="-4.604367">
        <ele>2320.0</ele>
        <time>2016-07-12T15:00:56Z</time>
      </trkpt>
      <trkpt lat="41.379717" lon="-4.604233">
        <ele>2319.0</ele>
        <time>2016-07-12T15:00:57Z</time>
      </trkpt>
      <trkpt lat="41.379667" lon="-4.604100">
        <ele>2319.0</ele>
        <time>2016-07-12T15:00:58Z</time>
      </trkpt>
      <trkpt lat="41.379600" lon="-4.603967">
        <ele>2319.0</ele>
        <time>2016-07-12T15:00:59Z</time>
      </trkpt>
      <trkpt lat="41.379533" lon="-4.603833">
        <ele>2320.0</ele>
        <time>2016-07-12T15:01:00Z</time>
      </trkpt>
      <trkpt lat="41.379467" lon="-4.603700">
        <ele>2322.0</ele>
        <time>2016-07-12T15:01:01Z</time>
      </trkpt>
      <trkpt lat="41.379400" lon="-4.603567">
        <ele>2322.0</ele>
        <time>2016-07-12T15:01:02Z</time>
      </trkpt>
      <trkpt lat="41.379333" lon="-4.603433">
        <ele>2323.0</ele>
        <time>2016-07-12T15:01:03Z</time>
      </trkpt>
      <trkpt lat="41.379283" lon="-4.603300">
        <ele>2322.0</ele>
        <time>2016-07-12T15:01:04Z</time>
      </trkpt>
      <trkpt lat="41.379200" lon="-4.603183">
        <ele>2322.0</ele>
        <time>2016-07-12T15:01:05Z</time>
      </trkpt>
      <trkpt lat="41.379133" lon="-4.603050">
        <ele>2322.0</ele>
        <time>2016-07-12T15:01:06Z</time>
      </trkpt>
      <trkpt lat="41.379050" lon="-4.602900">
        <ele>2322.0</ele>
        <time>2016-07-12T15:01:07Z</time>
      </trkpt>
      <trkpt lat="41.378967" lon="-4.602767">
        <ele>2322.0</ele>
        <time>2016-07-12T15:01:08Z</time>
      </trkpt>
      <trkpt lat="41.378883" lon="-4.602633">
        <ele>2323.0</ele>
        <time>2016-07-12T15:01:09Z</time>
      </trkpt>
      <trkpt lat="41.378800" lon="-4.602517">
        <ele>2323.0</ele>
        <time>2016-07-12T15:01:10Z</time>
      </trkpt>
      <trkpt lat="41.378700" lon="-4.602400">
        <ele>2323.0</ele>
        <time>2016-07-12T15:01:11Z</time>
      </trkpt>
      <trkpt lat="41.378600" lon="-4.602283">
        <ele>2321.0</ele>
        <time>2016-07-12T15:01:12Z</time>
      </trkpt>
      <trkpt lat="41.378500" lon="-4.602167">
        <ele>2320.0</ele>
        <time>2016-07-12T15:01:13Z</time>
      </trkpt>
      <trkpt lat="41.378383" lon="-4.602083">
        <ele>2318.0</ele>
        <time>2016-07-12T15:01:14Z</time>
      </trkpt>
      <trkpt lat="41.378267" lon="-4.602033">
        <ele>2317.0</ele>
        <time>2016-07-12T15:01:15Z</time>
      </trkpt>
      <trkpt lat="41.378133" lon="-4.602017">
        <ele>2315.0</ele>
        <time>2016-07-12T15:01:16Z</time>
      </trkpt>
      <trkpt lat="41.378017" lon="-4.602033">
        <ele>2313.0</ele>
        <time>2016-07-12T15:01:17Z</time>
      </trkpt>
      <trkpt lat="41.377917" lon="-4.602083">
        <ele>2311.0</ele>
        <time>2016-07-12T15:01:18Z</time>
      </trkpt>
      <trkpt lat="41.377850" lon="-4.602150">
        <ele>2311.0</ele>
        <time>2016-07-12T15:01:19Z</time>
      </trkpt>
      <trkpt lat="41.377800" lon="-4.602217">
        <ele>2314.0</ele>
        <time>2016-07-12T15:01:20Z</time>
      </trkpt>
      <trkpt lat="41.377750" lon="-4.602283">
        <ele>2316.0</ele>
        <time>2016-07-12T15:01:21Z</time>
      </trkpt>
      <trkpt lat="41.377717" lon="-4.602333">
        <ele>2317.0</ele>
        <time>2016-07-12T15:01:22Z</time>
      </trkpt>
      <trkpt lat="41.377683" lon="-4.602400">
        <ele>2317.0</ele>
        <time>2016-07-12T15:01:23Z</time>
      </trkpt>
      <trkpt lat="41.377633" lon="-4.602483">
        <ele>2317.0</ele>
        <time>2016-07-12T15:01:24Z</time>
      </trkpt>
      <trkpt lat="41.377600" lon="-4.602567">
        <ele>2319.0</ele>
        <time>2016-07-12T15:01:25Z</time>
      </trkpt>
      <trkpt lat="41.377567" lon="-4.602650">
        <ele>2322.0</ele>
        <time>2016-07-12T15:01:26Z</time>
      </trkpt>
      <trkpt lat="41.377550" lon="-4.602717">
        <ele>2325.0</ele>
        <time>2016-07-12T15:01:27Z</time>
      </trkpt>
      <trkpt lat="41.377517" lon="-4.602783">
        <ele>2327.0</ele>
        <time>2016-07-12T15:01:28Z</time>
      </trkpt>
      <trkpt lat="41.377500" lon="-4.602850">
        <ele>2329.0</ele>
        <time>2016-07-12T15:01:29Z</time>
      </trkpt>
      <trkpt lat="41.377483" lon="-4.602900">
        <ele>2331.0</ele>
        <time>2016-07-12T15:01:30Z</time>
      </trkpt>
      <trkpt lat="41.377483" lon="-4.602950">
        <ele>2333.0</ele>
        <time>2016-07-12T15:01:31Z</time>
      </trkpt>
      <trkpt lat="41.377450" lon="-4.603000">
        <ele>2335.0</ele>
        <time>2016-07-12T15:01:32Z</time>
      </trkpt>
      <trkpt lat="41.377433" lon="-4.603050">
        <ele>2338.0</ele>
        <time>2016-07-12T15:01:33Z</time>
      </trkpt>
      <trkpt lat="41.377433" lon="-4.603100">
        <ele>2340.0</ele>
        <time>2016-07-12T15:01:34Z</time>
      </trkpt>
      <trkpt lat="41.377433" lon="-4.603133">
        <ele>2341.0</ele>
        <time>2016-07-12T15:01:35Z</time>
      </trkpt>
      <trkpt lat="41.377433" lon="-4.603167">
        <ele>2343.0</ele>
        <time>2016-07-12T15:01:36Z</time>
      </trkpt>
      <trkpt lat="41.377450" lon="-4.603200">
        <ele>2345.0</ele>
        <time>2016-07-12T15:01:37Z</time>
      </trkpt>
      <trkpt lat="41.377467" lon="-4.603250">
        <ele>2346.0</ele>
        <time>2016-07-12T15:01:38Z</time>
      </trkpt>
      <trkpt lat="41.377483" lon="-4.603283">
        <ele>2347.0</ele>
        <time>2016-07-12T15:01:39Z</time>
      </trkpt>
      <trkpt lat="41.377483" lon="-4.603300">
        <ele>2348.0</ele>
        <time>2016-07-12T15:01:40Z</time>
      </trkpt>
      <trkpt lat="41.377517" lon="-4.603317">
        <ele>2348.0</ele>
        <time>2016-07-12T15:01:41Z</time>
      </trkpt>
      <trkpt lat="41.377550" lon="-4.603300">
        <ele>2348.0</ele>
        <time>2016-07-12T15:01:42Z</time>
      </trkpt>
      <trkpt lat="41.377600" lon="-4.603250">
        <ele>2348.0</ele>
        <time>2016-07-12T15:01:43Z</time>
      </trkpt>
      <trkpt lat="41.377667" lon="-4.603183">
        <ele>2349.0</ele>
        <time>2016-07-12T15:01:44Z</time>
      </trkpt>
      <trkpt lat="41.377700" lon="-4.603067">
        <ele>2350.0</ele>
        <time>2016-07-12T15:01:45Z</time>
      </trkpt>
      <trkpt lat="41.377733" lon="-4.602933">
        <ele>2350.0</ele>
        <time>2016-07-12T15:01:46Z</time>
      </trkpt>
      <trkpt lat="41.377733" lon="-4.602767">
        <ele>2351.0</ele>
        <time>2016-07-12T15:01:47Z</time>
      </trkpt>
      <trkpt lat="41.377733" lon="-4.602600">
        <ele>2351.0</ele>
        <time>2016-07-12T15:01:48Z</time>
      </trkpt>
      <trkpt lat="41.377700" lon="-4.602433">
        <ele>2351.0</ele>
        <time>2016-07-12T15:01:49Z</time>
      </trkpt>
      <trkpt lat="41.377650" lon="-4.602267">
        <ele>2352.0</ele>
        <time>2016-07-12T15:01:50Z</time>
      </trkpt>
      <trkpt lat="41.377600" lon="-4.602083">
        <ele>2354.0</ele>
        <time>2016-07-12T15:01:51Z</time>
      </trkpt>
      <trkpt lat="41.377550" lon="-4.601917">
        <ele>2356.0</ele>
        <time>2016-07-12T15:01:52Z</time>
      </trkpt>
      <trkpt lat="41.377483" lon="-4.601750">
        <ele>2359.0</ele>
        <time>2016-07-12T15:01:53Z</time>
      </trkpt>
      <trkpt lat="41.377417" lon="-4.601600">
        <ele>2362.0</ele>
        <time>2016-07-12T15:01:54Z</time>
      </trkpt>
      <trkpt lat="41.377317" lon="-4.601483">
        <ele>2364.0</ele>
        <time>2016-07-12T15:01:55Z</time>
      </trkpt>
      <trkpt lat="41.377217" lon="-4.601383">
        <ele>2366.0</ele>
        <time>2016-07-12T15:01:56Z</time>
      </trkpt>
      <trkpt lat="41.377117" lon="-4.601317">
        <ele>2368.0</ele>
        <time>2016-07-12T15:01:57Z</time>
      </trkpt>
      <trkpt lat="41.377000" lon="-4.601300">
        <ele>2368.0</ele>
        <time>2016-07-12T15:01:58Z</time>
      </trkpt>
      <trkpt lat="41.376900" lon="-4.601333">
        <ele>2369.0</ele>
        <time>2016-07-12T15:01:59Z</time>
      </trkpt>
      <trkpt lat="41.376817" lon="-4.601400">
        <ele>2371.0</ele>
        <time>2016-07-12T15:02:00Z</time>
      </trkpt>
      <trkpt lat="41.376767" lon="-4.601467">
        <ele>2373.0</ele>
        <time>2016-07-12T15:02:01Z</time>
      </trkpt>
      <trkpt lat="41.376767" lon="-4.601517">
        <ele>2375.0</ele>
        <time>2016-07-12T15:02:02Z</time>
      </trkpt>
      <trkpt lat="41.376800" lon="-4.601550">
        <ele>2378.0</ele>
        <time>2016-07-12T15:02:03Z</time>
      </trkpt>
      <trkpt lat="41.376850" lon="-4.601533">
        <ele>2379.0</ele>
        <time>2016-07-12T15:02:04Z</time>
      </trkpt>
      <trkpt lat="41.376900" lon="-4.601467">
        <ele>2381.0</ele>
        <time>2016-07-12T15:02:05Z</time>
      </trkpt>
      <trkpt lat="41.376950" lon="-4.601367">
        <ele>2383.0</ele>
        <time>2016-07-12T15:02:06Z</time>
      </trkpt>
      <trkpt lat="41.376983" lon="-4.601250">
        <ele>2385.0</ele>
        <time>2016-07-12T15:02:07Z</time>
      </trkpt>
      <trkpt lat="41.377000" lon="-4.601083">
        <ele>2386.0</ele>
        <time>2016-07-12T15:02:08Z</time>
      </trkpt>
      <trkpt lat="41.376983" lon="-4.600917">
        <ele>2388.0</ele>
        <time>2016-07-12T15:02:09Z</time>
      </trkpt>
      <trkpt lat="41.376933" lon="-4.600767">
        <ele>2390.0</ele>
        <time>2016-07-12T15:02:10Z</time>
      </trkpt>
      <trkpt lat="41.376833" lon="-4.600633">
        <ele>2392.0</ele>
        <time>2016-07-12T15:02:11Z</time>
      </trkpt>
      <trkpt lat="41.376733" lon="-4.600533">
        <ele>2395.0</ele>
        <time>2016-07-12T15:02:12Z</time>
      </trkpt>
      <trkpt lat="41.376633" lon="-4.600450">
        <ele>2397.0</ele>
        <time>2016-07-12T15:02:13Z</time>
      </trkpt>
      <trkpt lat="41.376517" lon="-4.600400">
        <ele>2399.0</ele>
        <time>2016-07-12T15:02:14Z</time>
      </trkpt>
      <trkpt lat="41.376383" lon="-4.600383">
        <ele>2400.0</ele>
        <time>2016-07-12T15:02:15Z</time>
      </trkpt>
      <trkpt lat="41.376283" lon="-4.600400">
        <ele>2402.0</ele>
        <time>2016-07-12T15:02:16Z</time>
      </trkpt>
      <trkpt lat="41.376183" lon="-4.600433">
        <ele>2404.0</ele>
        <time>2016-07-12T15:02:17Z</time>
      </trkpt>
      <trkpt lat="41.376117" lon="-4.600500">
        <ele>2405.0</ele>
        <time>2016-07-12T15:02:18Z</time>
      </trkpt>
      <trkpt lat="41.376067" lon="-4.600550">
        <ele>2407.0</ele>
        <time>2016-07-12T15:02:19Z</time>
      </trkpt>
      <trkpt lat="41.376033" lon="-4.600617">
        <ele>2409.0</ele>
        <time>2016-07-12T15:02:20Z</time>
      </trkpt>
      <trkpt lat="41.376033" lon="-4.600667">
        <ele>2410.0</ele>
        <time>2016-07-12T15:02:21Z</time>
      </trkpt>
      <trkpt lat="41.376067" lon="-4.600700">
        <ele>2412.0</ele>
        <time>2016-07-12T15:02:22Z</time>
      </trkpt>
      <trkpt lat="41.376117" lon="-4.600717">
        <ele>2413.0</ele>
        <time>2016-07-12T15:02:23Z</time>
      </trkpt>
      <trkpt lat="41.376167" lon="-4.600683">
        <ele>2414.0</ele>
        <time>2016-07-12T15:02:24Z</time>
      </trkpt>
      <trkpt lat="41.376217" lon="-4.600617">
        <ele>2416.0</ele>
        <time>2016-07-12T15:02:25Z</time>
      </trkpt>
      <trkpt lat="41.376267" lon="-4.600500">
        <ele>2417.0</ele>
        <time>2016-07-12T15:02:26Z</time>
      </trkpt>
      <trkpt lat="41.376300" lon="-4.600367">
        <ele>2418.0</ele>
        <time>2016-07-12T15:02:27Z</time>
      </trkpt>
      <trkpt lat="41.376317" lon="-4.600217">
        <ele>2418.0</ele>
        <time>2016-07-12T15:02:28Z</time>
      </trkpt>
      <trkpt lat="41.376283" lon="-4.600050">
        <ele>2419.0</ele>
        <time>2016-07-12T15:02:29Z</time>
      </trkpt>
      <trkpt lat="41.376233" lon="-4.599883">
        <ele>2419.0</ele>
        <time>2016-07-12T15:02:30Z</time>
      </trkpt>
      <trkpt lat="41.376150" lon="-4.599717">
        <ele>2420.0</ele>
        <time>2016-07-12T15:02:31Z</time>
      </trkpt>
      <trkpt lat="41.376050" lon="-4.599600">
        <ele>2423.0</ele>
        <time>2016-07-12T15:02:32Z</time>
      </trkpt>
      <trkpt lat="41.375950" lon="-4.599517">
        <ele>2425.0</ele>
        <time>2016-07-12T15:02:33Z</time>
      </trkpt>
      <trkpt lat="41.375833" lon="-4.599450">
        <ele>2427.0</ele>
        <time>2016-07-12T15:02:34Z</time>
      </trkpt>
      <trkpt lat="41.375717" lon="-4.599400">
        <ele>2429.0</ele>
        <time>2016-07-12T15:02:35Z</time>
      </trkpt>
      <trkpt lat="41.375600" lon="-4.599350">
        <ele>2430.0</ele>
        <time>2016-07-12T15:02:36Z</time>
      </trkpt>
      <trkpt lat="41.375483" lon="-4.599317">
        <ele>2431.0</ele>
        <time>2016-07-12T15:02:37Z</time>
      </trkpt>
      <trkpt lat="41.375367" lon="-4.599300">
        <ele>2432.0</ele>
        <time>2016-07-12T15:02:38Z</time>
      </trkpt>
      <trkpt lat="41.375250" lon="-4.599317">
        <ele>2433.0</ele>
        <time>2016-07-12T15:02:39Z</time>
      </trkpt>
      <trkpt lat="41.375150" lon="-4.599367">
        <ele>2434.0</ele>
        <time>2016-07-12T15:02:40Z</time>
      </trkpt>
      <trkpt lat="41.375083" lon="-4.599417">
        <ele>2436.0</ele>
        <time>2016-07-12T15:02:41Z</time>
      </trkpt>
      <trkpt lat="41.375033" lon="-4.599483">
        <ele>2437.0</ele>
        <time>2016-07-12T15:02:42Z</time>
      </trkpt>
      <trkpt lat="41.374983" lon="-4.599533">
        <ele>2439.0</ele>
        <time>2016-07-12T15:02:43Z</time>
      </trkpt>
      <trkpt lat="41.374950" lon="-4.599600">
        <ele>2440.0</ele>
        <time>2016-07-12T15:02:44Z</time>
      </trkpt>
      <trkpt lat="41.374950" lon="-4.599633">
        <ele>2441.0</ele>
        <time>2016-07-12T15:02:45Z</time>
      </trkpt>
      <trkpt lat="41.374967" lon="-4.599683">
        <ele>2441.0</ele>
        <time>2016-07-12T15:02:46Z</time>
      </trkpt>
      <trkpt lat="41.375000" lon="-4.599717">
        <ele>2440.0</ele>
        <time>2016-07-12T15:02:47Z</time>
      </trkpt>
      <trkpt lat="41.375050" lon="-4.599717">
        <ele>2440.0</ele>
        <time>2016-07-12T15:02:48Z</time>
      </trkpt>
      <trkpt lat="41.375100" lon="-4.599683">
        <ele>2441.0</ele>
        <time>2016-07-12T15:02:49Z</time>
      </trkpt>
      <trkpt lat="41.375150" lon="-4.599633">
        <ele>2441.0</ele>
        <time>2016-07-12T15:02:50Z</time>
      </trkpt>
      <trkpt lat="41.375183" lon="-4.599533">
        <ele>2442.0</ele>
        <time>2016-07-12T15:02:51Z</time>
      </trkpt>
      <trkpt lat="41.375217" lon="-4.599417">
        <ele>2442.0</ele>
        <time>2016-07-12T15:02:52Z</time>
      </trkpt>
      <trkpt lat="41.375250" lon="-4.599283">
        <ele>2443.0</ele>
        <time>2016-07-12T15:02:53Z</time>
      </trkpt>
      <trkpt lat="41.375250" lon="-4.599133">
        <ele>2444.0</ele>
        <time>2016-07-12T15:02:54Z</time>
      </trkpt>
      <trkpt lat="41.375233" lon="-4.599000">
        <ele>2446.0</ele>
        <time>2016-07-12T15:02:55Z</time>
      </trkpt>
      <trkpt lat="41.375217" lon="-4.598867">
        <ele>2447.0</ele>
        <time>2016-07-12T15:02:56Z</time>
      </trkpt>
      <trkpt lat="41.375200" lon="-4.598717">
        <ele>2447.0</ele>
        <time>2016-07-12T15:02:57Z</time>
      </trkpt>
      <trkpt lat="41.375183" lon="-4.598567">
        <ele>2448.0</ele>
        <time>2016-07-12T15:02:58Z</time>
      </trkpt>
      <trkpt lat="41.375150" lon="-4.598417">
        <ele>2449.0</ele>
        <time>2016-07-12T15:02:59Z</time>
      </trkpt>
      <trkpt lat="41.375100" lon="-4.598267">
        <ele>2450.0</ele>
        <time>2016-07-12T15:03:00Z</time>
      </trkpt>
      <trkpt lat="41.375000" lon="-4.598133">
        <ele>2451.0</ele>
        <time>2016-07-12T15:03:01Z</time>
      </trkpt>
      <trkpt lat="41.374900" lon="-4.598000">
        <ele>2451.0</ele>
        <time>2016-07-12T15:03:02Z</time>
      </trkpt>
      <trkpt lat="41.374800" lon="-4.597883">
        <ele>2453.0</ele>
        <time>2016-07-12T15:03:03Z</time>
      </trkpt>
      <trkpt lat="41.374667" lon="-4.597767">
        <ele>2456.0</ele>
        <time>2016-07-12T15:03:04Z</time>
      </trkpt>
      <trkpt lat="41.374550" lon="-4.597683">
        <ele>2458.0</ele>
        <time>2016-07-12T15:03:05Z</time>
      </trkpt>
      <trkpt lat="41.374433" lon="-4.597600">
        <ele>2460.0</ele>
        <time>2016-07-12T15:03:06Z</time>
      </trkpt>
      <trkpt lat="41.374317" lon="-4.597533">
        <ele>2462.0</ele>
        <time>2016-07-12T15:03:07Z</time>
      </trkpt>
      <trkpt lat="41.374183" lon="-4.597483">
        <ele>2464.0</ele>
        <time>2016-07-12T15:03:08Z</time>
      </trkpt>
      <trkpt lat="41.374083" lon="-4.597467">
        <ele>2465.0</ele>
        <time>2016-07-12T15:03:09Z</time>
      </trkpt>
      <trkpt lat="41.373967" lon="-4.597483">
        <ele>2464.0</ele>
        <time>2016-07-12T15:03:10Z</time>
      </trkpt>
      <trkpt lat="41.373867" lon="-4.597517">
        <ele>2464.0</ele>
        <time>2016-07-12T15:03:11Z</time>
      </trkpt>
      <trkpt lat="41.373783" lon="-4.597567">
        <ele>2465.0</ele>
        <time>2016-07-12T15:03:12Z</time>
      </trkpt>
      <trkpt lat="41.373733" lon="-4.597633">
        <ele>2467.0</ele>
        <time>2016-07-12T15:03:13Z</time>
      </trkpt>
      <trkpt lat="41.373700" lon="-4.597700">
        <ele>2468.0</ele>
        <time>2016-07-12T15:03:14Z</time>
      </trkpt>
      <trkpt lat="41.373683" lon="-4.597750">
        <ele>2469.0</ele>
        <time>2016-07-12T15:03:15Z</time>
      </trkpt>
      <trkpt lat="41.373700" lon="-4.597783">
        <ele>2469.0</ele>
        <time>2016-07-12T15:03:16Z</time>
      </trkpt>
      <trkpt lat="41.373750" lon="-4.597800">
        <ele>2469.0</ele>
        <time>2016-07-12T15:03:17Z</time>
      </trkpt>
      <trkpt lat="41.373800" lon="-4.597783">
        <ele>2469.0</ele>
        <time>2016-07-12T15:03:18Z</time>
      </trkpt>
      <trkpt lat="41.373850" lon="-4.597733">
        <ele>2470.0</ele>
        <time>2016-07-12T15:03:19Z</time>
      </trkpt>
      <trkpt lat="41.373900" lon="-4.597667">
        <ele>2470.0</ele>
        <time>2016-07-12T15:03:20Z</time>
      </trkpt>
      <trkpt lat="41.373933" lon="-4.597567">
        <ele>2471.0</ele>
        <time>2016-07-12T15:03:21Z</time>
      </trkpt>
      <trkpt lat="41.373967" lon="-4.597467">
        <ele>2471.0</ele>
        <time>2016-07-12T15:03:22Z</time>
      </trkpt>
      <trkpt lat="41.373983" lon="-4.597333">
        <ele>2471.0</ele>
        <time>2016-07-12T15:03:23Z</time>
      </trkpt>
      <trkpt lat="41.374000" lon="-4.597183">
        <ele>2471.0</ele>
        <time>2016-07-12T15:03:24Z</time>
      </trkpt>
      <trkpt lat="41.374000" lon="-4.597017">
        <ele>2472.0</ele>
        <time>2016-07-12T15:03:25Z</time>
      </trkpt>
      <trkpt lat="41.373983" lon="-4.596850">
        <ele>2473.0</ele>
        <time>2016-07-12T15:03:26Z</time>
      </trkpt>
      <trkpt lat="41.373967" lon="-4.596667">
        <ele>2474.0</ele>
        <time>2016-07-12T15:03:27Z</time>
      </trkpt>
      <trkpt lat="41.373917" lon="-4.596500">
        <ele>2477.0</ele>
        <time>2016-07-12T15:03:28Z</time>
      </trkpt>
      <trkpt lat="41.373867" lon="-4.596350">
        <ele>2479.0</ele>
        <time>2016-07-12T15:03:29Z</time>
      </trkpt>
      <trkpt lat="41.373817" lon="-4.596200">
        <ele>2480.0</ele>
        <time>2016-07-12T15:03:30Z</time>
      </trkpt>
      <trkpt lat="41.373767" lon="-4.596033">
        <ele>2481.0</ele>
        <time>2016-07-12T15:03:31Z</time>
      </trkpt>
      <trkpt lat="41.373683" lon="-4.595883">
        <ele>2482.0</ele>
        <time>2016-07-12T15:03:32Z</time>
      </trkpt>
      <trkpt lat="41.373600" lon="-4.595733">
        <ele>2484.0</ele>
        <time>2016-07-12T15:03:33Z</time>
      </trkpt>
      <trkpt lat="41.373517" lon="-4.595617">
        <ele>2485.0</ele>
        <time>2016-07-12T15:03:34Z</time>
      </trkpt>
      <trkpt lat="41.373417" lon="-4.595517">
        <ele>2487.0</ele>
        <time>2016-07-12T15:03:35Z</time>
      </trkpt>
      <trkpt lat="41.373317" lon="-4.595433">
        <ele>2487.0</ele>
        <time>2016-07-12T15:03:36Z</time>
      </trkpt>
      <trkpt lat="41.373200" lon="-4.595333">
        <ele>2486.0</ele>
        <time>2016-07-12T15:03:37Z</time>
      </trkpt>
      <trkpt lat="41.373083" lon="-4.595250">
        <ele>2484.0</ele>
        <time>2016-07-12T15:03:38Z</time>
      </trkpt>
      <trkpt lat="41.372967" lon="-4.595183">
        <ele>2484.0</ele>
        <time>2016-07-12T15:03:39Z</time>
      </trkpt>
      <trkpt lat="41.372850" lon="-4.595150">
        <ele>2482.0</ele>
        <time>2016-07-12T15:03:40Z</time>
      </trkpt>
      <trkpt lat="41.372750" lon="-4.595183">
        <ele>2481.0</ele>
        <time>2016-07-12T15:03:41Z</time>
      </trkpt>
      <trkpt lat="41.372667" lon="-4.595250">
        <ele>2479.0</ele>
        <time>2016-07-12T15:03:42Z</time>
      </trkpt>
      <trkpt lat="41.372600" lon="-4.595317">
        <ele>2479.0</ele>
        <time>2016-07-12T15:03:43Z</time>
      </trkpt>
      <trkpt lat="41.372567" lon="-4.595383">
        <ele>2479.0</ele>
        <time>2016-07-12T15:03:44Z</time>
      </trkpt>
      <trkpt lat="41.372550" lon="-4.595450">
        <ele>2480.0</ele>
        <time>2016-07-12T15:03:45Z</time>
      </trkpt>
      <trkpt lat="41.372533" lon="-4.595500">
        <ele>2481.0</ele>
        <time>2016-07-12T15:03:46Z</time>
      </trkpt>
      <trkpt lat="41.372517" lon="-4.595567">
        <ele>2480.0</ele>
        <time>2016-07-12T15:03:47Z</time>
      </trkpt>
      <trkpt lat="41.372500" lon="-4.595617">
        <ele>2480.0</ele>
        <time>2016-07-12T15:03:48Z</time>
      </trkpt>
      <trkpt lat="41.372517" lon="-4.595683">
        <ele>2480.0</ele>
        <time>2016-07-12T15:03:49Z</time>
      </trkpt>
      <trkpt lat="41.372517" lon="-4.595750">
        <ele>2482.0</ele>
        <time>2016-07-12T15:03:50Z</time>
      </trkpt>
      <trkpt lat="41.372533" lon="-4.595783">
        <ele>2484.0</ele>
        <time>2016-07-12T15:03:51Z</time>
      </trkpt>
      <trkpt lat="41.372567" lon="-4.595800">
        <ele>2485.0</ele>
        <time>2016-07-12T15:03:52Z</time>
      </trkpt>
      <trkpt lat="41.372583" lon="-4.595817">
        <ele>2486.0</ele>
        <time>2016-07-12T15:03:53Z</time>
      </trkpt>
      <trkpt lat="41.372600" lon="-4.595833">
        <ele>2486.0</ele>
        <time>2016-07-12T15:03:54Z</time>
      </trkpt>
      <trkpt lat="41.372650" lon="-4.595850">
        <ele>2485.0</ele>
        <time>2016-07-12T15:03:55Z</time>
      </trkpt>
      <trkpt lat="41.372700" lon="-4.595850">
        <ele>2485.0</ele>
        <time>2016-07-12T15:03:56Z</time>
      </trkpt>
      <trkpt lat="41.372767" lon="-4.595817">
        <ele>2486.0</ele>
        <time>2016-07-12T15:03:57Z</time>
      </trkpt>
      <trkpt lat="41.372817" lon="-4.595767">
        <ele>2488.0</ele>
        <time>2016-07-12T15:03:58Z</time>
      </trkpt>
      <trkpt lat="41.372867" lon="-4.595700">
        <ele>2489.0</ele>
        <time>2016-07-12T15:03:59Z</time>
      </trkpt>
      <trkpt lat="41.372917" lon="-4.595617">
        <ele>2490.0</ele>
        <time>2016-07-12T15:04:00Z</time>
      </trkpt>
      <trkpt lat="41.372967" lon="-4.595517">
        <ele>2489.0</ele>
        <time>2016-07-12T15:04:01Z</time>
      </trkpt>
      <trkpt lat="41.373017" lon="-4.595400">
        <ele>2489.0</ele>
        <time>2016-07-12T15:04:02Z</time>
      </trkpt>
      <trkpt lat="41.373067" lon="-4.595250">
        <ele>2489.0</ele>
        <time>2016-07-12T15:04:03Z</time>
      </trkpt>
      <trkpt lat="41.373100" lon="-4.595083">
        <ele>2490.0</ele>
        <time>2016-07-12T15:04:04Z</time>
      </trkpt>
      <trkpt lat="41.373100" lon="-4.594900">
        <ele>2491.0</ele>
        <time>2016-07-12T15:04:05Z</time>
      </trkpt>
      <trkpt lat="41.373117" lon="-4.594717">
        <ele>2492.0</ele>
        <time>2016-07-12T15:04:06Z</time>
      </trkpt>
      <trkpt lat="41.373117" lon="-4.594533">
        <ele>2494.0</ele>
        <time>2016-07-12T15:04:07Z</time>
      </trkpt>
      <trkpt lat="41.373100" lon="-4.594367">
        <ele>2496.0</ele>
        <time>2016-07-12T15:04:08Z</time>
      </trkpt>
      <trkpt lat="41.373100" lon="-4.594200">
        <ele>2497.0</ele>
        <time>2016-07-12T15:04:09Z</time>
      </trkpt>
      <trkpt lat="41.373083" lon="-4.594033">
        <ele>2498.0</ele>
        <time>2016-07-12T15:04:10Z</time>
      </trkpt>
      <trkpt lat="41.373050" lon="-4.593867">
        <ele>2499.0</ele>
        <time>2016-07-12T15:04:11Z</time>
      </trkpt>
      <trkpt lat="41.372983" lon="-4.593700">
        <ele>2500.0</ele>
        <time>2016-07-12T15:04:12Z</time>
      </trkpt>
      <trkpt lat="41.372900" lon="-4.593533">
        <ele>2500.0</ele>
        <time>2016-07-12T15:04:13Z</time>
      </trkpt>
      <trkpt lat="41.372800" lon="-4.593400">
        <ele>2501.0</ele>
        <time>2016-07-12T15:04:14Z</time>
      </trkpt>
      <trkpt lat="41.372683" lon="-4.593300">
        <ele>2501.0</ele>
        <time>2016-07-12T15:04:15Z</time>
      </trkpt>
      <trkpt lat="41.372583" lon="-4.593217">
        <ele>2501.0</ele>
        <time>2016-07-12T15:04:16Z</time>
      </trkpt>
      <trkpt lat="41.372467" lon="-4.593183">
        <ele>2501.0</ele>
        <time>2016-07-12T15:04:17Z</time>
      </trkpt>
      <trkpt lat="41.372367" lon="-4.593167">
        <ele>2501.0</ele>
        <time>2016-07-12T15:04:18Z</time>
      </trkpt>
      <trkpt lat="41.372283" lon="-4.593183">
        <ele>2501.0</ele>
        <time>2016-07-12T15:04:19Z</time>
      </trkpt>
      <trkpt lat="41.372217" lon="-4.593200">
        <ele>2502.0</ele>
        <time>2016-07-12T15:04:20Z</time>
      </trkpt>
      <trkpt lat="41.372183" lon="-4.593250">
        <ele>2501.0</ele>
        <time>2016-07-12T15:04:21Z</time>
      </trkpt>
      <trkpt lat="41.372167" lon="-4.593300">
        <ele>2501.0</ele>
        <time>2016-07-12T15:04:22Z</time>
      </trkpt>
      <trkpt lat="41.372167" lon="-4.593350">
        <ele>2501.0</ele>
        <time>2016-07-12T15:04:23Z</time>
      </trkpt>
      <trkpt lat="41.372183" lon="-4.593400">
        <ele>2501.0</ele>
        <time>2016-07-12T15:04:24Z</time>
      </trkpt>
      <trkpt lat="41.372217" lon="-4.593433">
        <ele>2502.0</ele>
        <time>2016-07-12T15:04:25Z</time>
      </trkpt>
      <trkpt lat="41.372250" lon="-4.593450">
        <ele>2503.0</ele>
        <time>2016-07-12T15:04:26Z</time>
      </trkpt>
      <trkpt lat="41.372267" lon="-4.593467">
        <ele>2503.0</ele>
        <time>2016-07-12T15:04:27Z</time>
      </trkpt>
      <trkpt lat="41.372283" lon="-4.593517">
        <ele>2503.0</ele>
        <time>2016-07-12T15:04:28Z</time>
      </trkpt>
      <trkpt lat="41.372300" lon="-4.593567">
        <ele>2503.0</ele>
        <time>2016-07-12T15:04:29Z</time>
      </trkpt>
      <trkpt lat="41.372367" lon="-4.593583">
        <ele>2504.0</ele>
        <time>2016-07-12T15:04:30Z</time>
      </trkpt>
      <trkpt lat="41.372433" lon="-4.593550">
        <ele>2506.0</ele>
        <time>2016-07-12T15:04:31Z</time>
      </trkpt>
      <trkpt lat="41.372483" lon="-4.593500">
        <ele>2507.0</ele>
        <time>2016-07-12T15:04:32Z</time>
      </trkpt>
      <trkpt lat="41.372533" lon="-4.593450">
        <ele>2509.0</ele>
        <time>2016-07-12T15:04:33Z</time>
      </trkpt>
      <trkpt lat="41.372583" lon="-4.593417">
        <ele>2509.0</ele>
        <time>2016-07-12T15:04:34Z</time>
      </trkpt>
      <trkpt lat="41.372633" lon="-4.593383">
        <ele>2508.0</ele>
        <time>2016-07-12T15:04:35Z</time>
      </trkpt>
      <trkpt lat="41.372683" lon="-4.593350">
        <ele>2505.0</ele>
        <time>2016-07-12T15:04:36Z</time>
      </trkpt>
      <trkpt lat="41.372750" lon="-4.593267">
        <ele>2502.0</ele>
        <time>2016-07-12T15:04:37Z</time>
      </trkpt>
      <trkpt lat="41.372833" lon="-4.593150">
        <ele>2499.0</ele>
        <time>2016-07-12T15:04:38Z</time>
      </trkpt>
      <trkpt lat="41.372867" lon="-4.592983">
        <ele>2498.0</ele>
        <time>2016-07-12T15:04:39Z</time>
      </trkpt>
      <trkpt lat="41.372900" lon="-4.592817">
        <ele>2498.0</ele>
        <time>2016-07-12T15:04:40Z</time>
      </trkpt>
      <trkpt lat="41.372900" lon="-4.592650">
        <ele>2499.0</ele>
        <time>2016-07-12T15:04:41Z</time>
      </trkpt>
      <trkpt lat="41.372917" lon="-4.592500">
        <ele>2498.0</ele>
        <time>2016-07-12T15:04:42Z</time>
      </trkpt>
      <trkpt lat="41.372917" lon="-4.592333">
        <ele>2496.0</ele>
        <time>2016-07-12T15:04:43Z</time>
      </trkpt>
      <trkpt lat="41.372933" lon="-4.592150">
        <ele>2494.0</ele>
        <time>2016-07-12T15:04:44Z</time>
      </trkpt>
      <trkpt lat="41.372950" lon="-4.591950">
        <ele>2492.0</ele>
        <time>2016-07-12T15:04:45Z</time>
      </trkpt>
      <trkpt lat="41.372933" lon="-4.591750">
        <ele>2491.0</ele>
        <time>2016-07-12T15:04:46Z</time>
      </trkpt>
      <trkpt lat="41.372900" lon="-4.591567">
        <ele>2492.0</ele>
        <time>2016-07-12T15:04:47Z</time>
      </trkpt>
      <trkpt lat="41.372867" lon="-4.591417">
        <ele>2493.0</ele>
        <time>2016-07-12T15:04:48Z</time>
      </trkpt>
      <trkpt lat="41.372817" lon="-4.591283">
        <ele>2493.0</ele>
        <time>2016-07-12T15:04:49Z</time>
      </trkpt>
      <trkpt lat="41.372767" lon="-4.591150">
        <ele>2491.0</ele>
        <time>2016-07-12T15:04:50Z</time>
      </trkpt>
      <trkpt lat="41.372733" lon="-4.590983">
        <ele>2488.0</ele>
        <time>2016-07-12T15:04:51Z</time>
      </trkpt>
      <trkpt lat="41.372683" lon="-4.590817">
        <ele>2484.0</ele>
        <time>2016-07-12T15:04:52Z</time>
      </trkpt>
      <trkpt lat="41.372633" lon="-4.590633">
        <ele>2481.0</ele>
        <time>2016-07-12T15:04:53Z</time>
      </trkpt>
      <trkpt lat="41.372583" lon="-4.590467">
        <ele>2480.0</ele>
        <time>2016-07-12T15:04:54Z</time>
      </trkpt>
      <trkpt lat="41.372517" lon="-4.590317">
        <ele>2478.0</ele>
        <time>2016-07-12T15:04:55Z</time>
      </trkpt>
      <trkpt lat="41.372433" lon="-4.590167">
        <ele>2475.0</ele>
        <time>2016-07-12T15:04:56Z</time>
      </trkpt>
      <trkpt lat="41.372367" lon="-4.590033">
        <ele>2472.0</ele>
        <time>2016-07-12T15:04:57Z</time>
      </trkpt>
      <trkpt lat="41.372300" lon="-4.589883">
        <ele>2469.0</ele>
        <time>2016-07-12T15:04:58Z</time>
      </trkpt>
      <trkpt lat="41.372217" lon="-4.589717">
        <ele>2465.0</ele>
        <time>2016-07-12T15:04:59Z</time>
      </trkpt>
      <trkpt lat="41.372150" lon="-4.589533">
        <ele>2462.0</ele>
        <time>2016-07-12T15:05:00Z</time>
      </trkpt>
      <trkpt lat="41.372067" lon="-4.589350">
        <ele>2461.0</ele>
        <time>2016-07-12T15:05:01Z</time>
      </trkpt>
      <trkpt lat="41.372017" lon="-4.589183">
        <ele>2459.0</ele>
        <time>2016-07-12T15:05:02Z</time>
      </trkpt>
      <trkpt lat="41.371950" lon="-4.589017">
        <ele>2458.0</ele>
        <time>2016-07-12T15:05:03Z</time>
      </trkpt>
      <trkpt lat="41.371867" lon="-4.588867">
        <ele>2456.0</ele>
        <time>2016-07-12T15:05:04Z</time>
      </trkpt>
      <trkpt lat="41.371800" lon="-4.588717">
        <ele>2452.0</ele>
        <time>2016-07-12T15:05:05Z</time>
      </trkpt>
      <trkpt lat="41.371717" lon="-4.588550">
        <ele>2449.0</ele>
        <time>2016-07-12T15:05:06Z</time>
      </trkpt>
      <trkpt lat="41.371633" lon="-4.588367">
        <ele>2446.0</ele>
        <time>2016-07-12T15:05:07Z</time>
      </trkpt>
      <trkpt lat="41.371567" lon="-4.588183">
        <ele>2444.0</ele>
        <time>2016-07-12T15:05:08Z</time>
      </trkpt>
      <trkpt lat="41.371500" lon="-4.588017">
        <ele>2444.0</ele>
        <time>2016-07-12T15:05:09Z</time>
      </trkpt>
      <trkpt lat="41.371433" lon="-4.587867">
        <ele>2442.0</ele>
        <time>2016-07-12T15:05:10Z</time>
      </trkpt>
      <trkpt lat="41.371367" lon="-4.587717">
        <ele>2441.0</ele>
        <time>2016-07-12T15:05:11Z</time>
      </trkpt>
      <trkpt lat="41.371317" lon="-4.587550">
        <ele>2438.0</ele>
        <time>2016-07-12T15:05:12Z</time>
      </trkpt>
      <trkpt lat="41.371250" lon="-4.587383">
        <ele>2434.0</ele>
        <time>2016-07-12T15:05:13Z</time>
      </trkpt>
      <trkpt lat="41.371183" lon="-4.587217">
        <ele>2431.0</ele>
        <time>2016-07-12T15:05:14Z</time>
      </trkpt>
      <trkpt lat="41.371117" lon="-4.587033">
        <ele>2428.0</ele>
        <time>2016-07-12T15:05:15Z</time>
      </trkpt>
      <trkpt lat="41.371067" lon="-4.586850">
        <ele>2426.0</ele>
        <time>2016-07-12T15:05:16Z</time>
      </trkpt>
      <trkpt lat="41.371000" lon="-4.586683">
        <ele>2424.0</ele>
        <time>2016-07-12T15:05:17Z</time>
      </trkpt>
      <trkpt lat="41.370950" lon="-4.586500">
        <ele>2421.0</ele>
        <time>2016-07-12T15:05:18Z</time>
      </trkpt>
      <trkpt lat="41.370883" lon="-4.586317">
        <ele>2418.0</ele>
        <time>2016-07-12T15:05:19Z</time>
      </trkpt>
      <trkpt lat="41.370800" lon="-4.586150">
        <ele>2414.0</ele>
        <time>2016-07-12T15:05:20Z</time>
      </trkpt>
      <trkpt lat="41.370733" lon="-4.585983">
        <ele>2411.0</ele>
        <time>2016-07-12T15:05:21Z</time>
      </trkpt>
      <trkpt lat="41.370667" lon="-4.585800">
        <ele>2407.0</ele>
        <time>2016-07-12T15:05:22Z</time>
      </trkpt>
      <trkpt lat="41.370600" lon="-4.585617">
        <ele>2404.0</ele>
        <time>2016-07-12T15:05:23Z</time>
      </trkpt>
      <trkpt lat="41.370500" lon="-4.585450">
        <ele>2402.0</ele>
        <time>2016-07-12T15:05:24Z</time>
      </trkpt>
      <trkpt lat="41.370417" lon="-4.585267">
        <ele>2400.0</ele>
        <time>2016-07-12T15:05:25Z</time>
      </trkpt>
      <trkpt lat="41.370333" lon="-4.585100">
        <ele>2399.0</ele>
        <time>2016-07-12T15:05:26Z</time>
      </trkpt>
      <trkpt lat="41.370250" lon="-4.584933">
        <ele>2398.0</ele>
        <time>2016-07-12T15:05:27Z</time>
      </trkpt>
      <trkpt lat="41.370183" lon="-4.584767">
        <ele>2396.0</ele>
        <time>2016-07-12T15:05:28Z</time>
      </trkpt>
      <trkpt lat="41.370100" lon="-4.584600">
        <ele>2395.0</ele>
        <time>2016-07-12T15:05:29Z</time>
      </trkpt>
      <trkpt lat="41.370000" lon="-4.584433">
        <ele>2395.0</ele>
        <time>2016-07-12T15:05:30Z</time>
      </trkpt>
      <trkpt lat="41.369900" lon="-4.584250">
        <ele>2394.0</ele>
        <time>2016-07-12T15:05:31Z</time>
      </trkpt>
      <trkpt lat="41.369817" lon="-4.584067">
        <ele>2395.0</ele>
        <time>2016-07-12T15:05:32Z</time>
      </trkpt>
      <trkpt lat="41.369767" lon="-4.583917">
        <ele>2395.0</ele>
        <time>2016-07-12T15:05:33Z</time>
      </trkpt>
      <trkpt lat="41.369750" lon="-4.583767">
        <ele>2396.0</ele>
        <time>2016-07-12T15:05:34Z</time>
      </trkpt>
      <trkpt lat="41.369717" lon="-4.583633">
        <ele>2396.0</ele>
        <time>2016-07-12T15:05:35Z</time>
      </trkpt>
      <trkpt lat="41.369667" lon="-4.583500">
        <ele>2395.0</ele>
        <time>2016-07-12T15:05:36Z</time>
      </trkpt>
      <trkpt lat="41.369617" lon="-4.583350">
        <ele>2393.0</ele>
        <time>2016-07-12T15:05:37Z</time>
      </trkpt>
      <trkpt lat="41.369567" lon="-4.583200">
        <ele>2392.0</ele>
        <time>2016-07-12T15:05:38Z</time>
      </trkpt>
      <trkpt lat="41.369533" lon="-4.583050">
        <ele>2392.0</ele>
        <time>2016-07-12T15:05:39Z</time>
      </trkpt>
      <trkpt lat="41.369483" lon="-4.582933">
        <ele>2391.0</ele>
        <time>2016-07-12T15:05:40Z</time>
      </trkpt>
      <trkpt lat="41.369433" lon="-4.582800">
        <ele>2391.0</ele>
        <time>2016-07-12T15:05:41Z</time>
      </trkpt>
      <trkpt lat="41.369383" lon="-4.582683">
        <ele>2389.0</ele>
        <time>2016-07-12T15:05:42Z</time>
      </trkpt>
      <trkpt lat="41.369317" lon="-4.582567">
        <ele>2387.0</ele>
        <time>2016-07-12T15:05:43Z</time>
      </trkpt>
      <trkpt lat="41.369250" lon="-4.582433">
        <ele>2386.0</ele>
        <time>2016-07-12T15:05:44Z</time>
      </trkpt>
      <trkpt lat="41.369183" lon="-4.582317">
        <ele>2385.0</ele>
        <time>2016-07-12T15:05:45Z</time>
      </trkpt>
      <trkpt lat="41.369133" lon="-4.582183">
        <ele>2384.0</ele>
        <time>2016-07-12T15:05:46Z</time>
      </trkpt>
      <trkpt lat="41.369083" lon="-4.582067">
        <ele>2383.0</ele>
        <time>2016-07-12T15:05:47Z</time>
      </trkpt>
      <trkpt lat="41.369033" lon="-4.581933">
        <ele>2381.0</ele>
        <time>2016-07-12T15:05:48Z</time>
      </trkpt>
      <trkpt lat="41.368967" lon="-4.581800">
        <ele>2379.0</ele>
        <time>2016-07-12T15:05:49Z</time>
      </trkpt>
      <trkpt lat="41.368900" lon="-4.581667">
        <ele>2378.0</ele>
        <time>2016-07-12T15:05:50Z</time>
      </trkpt>
      <trkpt lat="41.368833" lon="-4.581533">
        <ele>2377.0</ele>
        <time>2016-07-12T15:05:51Z</time>
      </trkpt>
      <trkpt lat="41.368767" lon="-4.581417">
        <ele>2377.0</ele>
        <time>2016-07-12T15:05:52Z</time>
      </trkpt>
      <trkpt lat="41.368700" lon="-4.581300">
        <ele>2377.0</ele>
        <time>2016-07-12T15:05:53Z</time>
      </trkpt>
      <trkpt lat="41.368650" lon="-4.581183">
        <ele>2377.0</ele>
        <time>2016-07-12T15:05:54Z</time>
      </trkpt>
      <trkpt lat="41.368583" lon="-4.581067">
        <ele>2377.0</ele>
        <time>2016-07-12T15:05:55Z</time>
      </trkpt>
      <trkpt lat="41.368500" lon="-4.580967">
        <ele>2377.0</ele>
        <time>2016-07-12T15:05:56Z</time>
      </trkpt>
      <trkpt lat="41.368433" lon="-4.580850">
        <ele>2377.0</ele>
        <time>2016-07-12T15:05:57Z</time>
      </trkpt>
      <trkpt lat="41.368367" lon="-4.580750">
        <ele>2376.0</ele>
        <time>2016-07-12T15:05:58Z</time>
      </trkpt>
      <trkpt lat="41.368300" lon="-4.580633">
        <ele>2377.0</ele>
        <time>2016-07-12T15:05:59Z</time>
      </trkpt>
      <trkpt lat="41.368233" lon="-4.580533">
        <ele>2377.0</ele>
        <time>2016-07-12T15:06:00Z</time>
      </trkpt>
      <trkpt lat="41.368183" lon="-4.580433">
        <ele>2377.0</ele>
        <time>2016-07-12T15:06:01Z</time>
      </trkpt>
      <trkpt lat="41.368117" lon="-4.580333">
        <ele>2377.0</ele>
        <time>2016-07-12T15:06:02Z</time>
      </trkpt>
      <trkpt lat="41.368033" lon="-4.580233">
        <ele>2375.0</ele>
        <time>2016-07-12T15:06:03Z</time>
      </trkpt>
      <trkpt lat="41.367950" lon="-4.580133">
        <ele>2374.0</ele>
        <time>2016-07-12T15:06:04Z</time>
      </trkpt>
      <trkpt lat="41.367883" lon="-4.580017">
        <ele>2373.0</ele>
        <time>2016-07-12T15:06:05Z</time>
      </trkpt>
      <trkpt lat="41.367817" lon="-4.579900">
        <ele>2372.0</ele>
        <time>2016-07-12T15:06:06Z</time>
      </trkpt>
      <trkpt lat="41.367750" lon="-4.579800">
        <ele>2371.0</ele>
        <time>2016-07-12T15:06:07Z</time>
      </trkpt>
      <trkpt lat="41.367683" lon="-4.579683">
        <ele>2368.0</ele>
        <time>2016-07-12T15:06:08Z</time>
      </trkpt>
      <trkpt lat="41.367600" lon="-4.579567">
        <ele>2367.0</ele>
        <time>2016-07-12T15:06:09Z</time>
      </trkpt>
      <trkpt lat="41.367500" lon="-4.579467">
        <ele>2366.0</ele>
        <time>2016-07-12T15:06:10Z</time>
      </trkpt>
      <trkpt lat="41.367417" lon="-4.579367">
        <ele>2365.0</ele>
        <time>2016-07-12T15:06:11Z</time>
      </trkpt>
      <trkpt lat="41.367333" lon="-4.579267">
        <ele>2365.0</ele>
        <time>2016-07-12T15:06:12Z</time>
      </trkpt>
      <trkpt lat="41.367250" lon="-4.579167">
        <ele>2364.0</ele>
        <time>2016-07-12T15:06:13Z</time>
      </trkpt>
      <trkpt lat="41.367167" lon="-4.579067">
        <ele>2362.0</ele>
        <time>2016-07-12T15:06:14Z</time>
      </trkpt>
      <trkpt lat="41.367083" lon="-4.578950">
        <ele>2361.0</ele>
        <time>2016-07-12T15:06:15Z</time>
      </trkpt>
      <trkpt lat="41.367000" lon="-4.578850">
        <ele>2360.0</ele>
        <time>2016-07-12T15:06:16Z</time>
      </trkpt>
      <trkpt lat="41.366900" lon="-4.578733">
        <ele>2359.0</ele>
        <time>2016-07-12T15:06:17Z</time>
      </trkpt>
      <trkpt lat="41.366817" lon="-4.578633">
        <ele>2357.0</ele>
        <time>2016-07-12T15:06:18Z</time>
      </trkpt>
      <trkpt lat="41.366717" lon="-4.578533">
        <ele>2356.0</ele>
        <time>2016-07-12T15:06:19Z</time>
      </trkpt>
      <trkpt lat="41.366633" lon="-4.578417">
        <ele>2353.0</ele>
        <time>2016-07-12T15:06:20Z</time>
      </trkpt>
      <trkpt lat="41.366567" lon="-4.578283">
        <ele>2351.0</ele>
        <time>2016-07-12T15:06:21Z</time>
      </trkpt>
      <trkpt lat="41.366483" lon="-4.578167">
        <ele>2352.0</ele>
        <time>2016-07-12T15:06:22Z</time>
      </trkpt>
      <trkpt lat="41.366417" lon="-4.578083">
        <ele>2354.0</ele>
        <time>2016-07-12T15:06:23Z</time>
      </trkpt>
      <trkpt lat="41.366350" lon="-4.578000">
        <ele>2354.0</ele>
        <time>2016-07-12T15:06:24Z</time>
      </trkpt>
      <trkpt lat="41.366283" lon="-4.577933">
        <ele>2351.0</ele>
        <time>2016-07-12T15:06:25Z</time>
      </trkpt>
      <trkpt lat="41.366233" lon="-4.577867">
        <ele>2347.0</ele>
        <time>2016-07-12T15:06:26Z</time>
      </trkpt>
      <trkpt lat="41.366167" lon="-4.577767">
        <ele>2344.0</ele>
        <time>2016-07-12T15:06:27Z</time>
      </trkpt>
      <trkpt lat="41.366083" lon="-4.577650">
        <ele>2341.0</ele>
        <time>2016-07-12T15:06:28Z</time>
      </trkpt>
      <trkpt lat="41.366017" lon="-4.577517">
        <ele>2338.0</ele>
        <time>2016-07-12T15:06:29Z</time>
      </trkpt>
      <trkpt lat="41.365967" lon="-4.577383">
        <ele>2337.0</ele>
        <time>2016-07-12T15:06:30Z</time>
      </trkpt>
      <trkpt lat="41.365900" lon="-4.577250">
        <ele>2337.0</ele>
        <time>2016-07-12T15:06:31Z</time>
      </trkpt>
      <trkpt lat="41.365850" lon="-4.577150">
        <ele>2339.0</ele>
        <time>2016-07-12T15:06:32Z</time>
      </trkpt>
      <trkpt lat="41.365783" lon="-4.577050">
        <ele>2340.0</ele>
        <time>2016-07-12T15:06:33Z</time>
      </trkpt>
      <trkpt lat="41.365717" lon="-4.576950">
        <ele>2339.0</ele>
        <time>2016-07-12T15:06:34Z</time>
      </trkpt>
      <trkpt lat="41.365667" lon="-4.576817">
        <ele>2337.0</ele>
        <time>2016-07-12T15:06:35Z</time>
      </trkpt>
      <trkpt lat="41.365600" lon="-4.576683">
        <ele>2335.0</ele>
        <time>2016-07-12T15:06:36Z</time>
      </trkpt>
      <trkpt lat="41.365550" lon="-4.576567">
        <ele>2335.0</ele>
        <time>2016-07-12T15:06:37Z</time>
      </trkpt>
      <trkpt lat="41.365483" lon="-4.576467">
        <ele>2335.0</ele>
        <time>2016-07-12T15:06:38Z</time>
      </trkpt>
      <trkpt lat="41.365433" lon="-4.576367">
        <ele>2333.0</ele>
        <time>2016-07-12T15:06:39Z</time>
      </trkpt>
      <trkpt lat="41.365367" lon="-4.576233">
        <ele>2332.0</ele>
        <time>2016-07-12T15:06:40Z</time>
      </trkpt>
      <trkpt lat="41.365300" lon="-4.576100">
        <ele>2333.0</ele>
        <time>2016-07-12T15:06:41Z</time>
      </trkpt>
      <trkpt lat="41.365233" lon="-4.575967">
        <ele>2335.0</ele>
        <time>2016-07-12T15:06:42Z</time>
      </trkpt>
      <trkpt lat="41.365167" lon="-4.575833">
        <ele>2337.0</ele>
        <time>2016-07-12T15:06:43Z</time>
      </trkpt>
      <trkpt lat="41.365083" lon="-4.575700">
        <ele>2339.0</ele>
        <time>2016-07-12T15:06:44Z</time>
      </trkpt>
      <trkpt lat="41.365000" lon="-4.575583">
        <ele>2342.0</ele>
        <time>2016-07-12T15:06:45Z</time>
      </trkpt>
      <trkpt lat="41.364900" lon="-4.575467">
        <ele>2345.0</ele>
        <time>2016-07-12T15:06:46Z</time>
      </trkpt>
      <trkpt lat="41.364800" lon="-4.575350">
        <ele>2347.0</ele>
        <time>2016-07-12T15:06:47Z</time>
      </trkpt>
      <trkpt lat="41.364717" lon="-4.575233">
        <ele>2348.0</ele>
        <time>2016-07-12T15:06:48Z</time>
      </trkpt>
      <trkpt lat="41.364633" lon="-4.575100">
        <ele>2350.0</ele>
        <time>2016-07-12T15:06:49Z</time>
      </trkpt>
      <trkpt lat="41.364533" lon="-4.574967">
        <ele>2352.0</ele>
        <time>2016-07-12T15:06:50Z</time>
      </trkpt>
      <trkpt lat="41.364417" lon="-4.574867">
        <ele>2355.0</ele>
        <time>2016-07-12T15:06:51Z</time>
      </trkpt>
      <trkpt lat="41.364317" lon="-4.574767">
        <ele>2358.0</ele>
        <time>2016-07-12T15:06:52Z</time>
      </trkpt>
      <trkpt lat="41.364233" lon="-4.574700">
        <ele>2361.0</ele>
        <time>2016-07-12T15:06:53Z</time>
      </trkpt>
      <trkpt lat="41.364117" lon="-4.574600">
        <ele>2362.0</ele>
        <time>2016-07-12T15:06:54Z</time>
      </trkpt>
      <trkpt lat="41.364000" lon="-4.574500">
        <ele>2362.0</ele>
        <time>2016-07-12T15:06:55Z</time>
      </trkpt>
      <trkpt lat="41.363867" lon="-4.574400">
        <ele>2363.0</ele>
        <time>2016-07-12T15:06:56Z</time>
      </trkpt>
      <trkpt lat="41.363717" lon="-4.574283">
        <ele>2365.0</ele>
        <time>2016-07-12T15:06:57Z</time>
      </trkpt>
      <trkpt lat="41.363583" lon="-4.574167">
        <ele>2368.0</ele>
        <time>2016-07-12T15:06:58Z</time>
      </trkpt>
      <trkpt lat="41.363467" lon="-4.574050">
        <ele>2371.0</ele>
        <time>2016-07-12T15:06:59Z</time>
      </trkpt>
      <trkpt lat="41.363350" lon="-4.573933">
        <ele>2374.0</ele>
        <time>2016-07-12T15:07:00Z</time>
      </trkpt>
      <trkpt lat="41.363233" lon="-4.573817">
        <ele>2375.0</ele>
        <time>2016-07-12T15:07:01Z</time>
      </trkpt>
      <trkpt lat="41.363100" lon="-4.573717">
        <ele>2376.0</ele>
        <time>2016-07-12T15:07:02Z</time>
      </trkpt>
      <trkpt lat="41.362967" lon="-4.573600">
        <ele>2376.0</ele>
        <time>2016-07-12T15:07:03Z</time>
      </trkpt>
      <trkpt lat="41.362850" lon="-4.573500">
        <ele>2377.0</ele>
        <time>2016-07-12T15:07:04Z</time>
      </trkpt>
      <trkpt lat="41.362717" lon="-4.573433">
        <ele>2377.0</ele>
        <time>2016-07-12T15:07:05Z</time>
      </trkpt>
      <trkpt lat="41.362583" lon="-4.573417">
        <ele>2376.0</ele>
        <time>2016-07-12T15:07:06Z</time>
      </trkpt>
      <trkpt lat="41.362450" lon="-4.573433">
        <ele>2375.0</ele>
        <time>2016-07-12T15:07:07Z</time>
      </trkpt>
      <trkpt lat="41.362350" lon="-4.573500">
        <ele>2373.0</ele>
        <time>2016-07-12T15:07:08Z</time>
      </trkpt>
      <trkpt lat="41.362283" lon="-4.573583">
        <ele>2372.0</ele>
        <time>2016-07-12T15:07:09Z</time>
      </trkpt>
      <trkpt lat="41.362233" lon="-4.573650">
        <ele>2372.0</ele>
        <time>2016-07-12T15:07:10Z</time>
      </trkpt>
      <trkpt lat="41.362233" lon="-4.573700">
        <ele>2372.0</ele>
        <time>2016-07-12T15:07:11Z</time>
      </trkpt>
      <trkpt lat="41.362233" lon="-4.573717">
        <ele>2372.0</ele>
        <time>2016-07-12T15:07:12Z</time>
      </trkpt>
      <trkpt lat="41.362250" lon="-4.573717">
        <ele>2371.0</ele>
        <time>2016-07-12T15:07:13Z</time>
      </trkpt>
      <trkpt lat="41.362267" lon="-4.573717">
        <ele>2369.0</ele>
        <time>2016-07-12T15:07:14Z</time>
      </trkpt>
      <trkpt lat="41.362300" lon="-4.573700">
        <ele>2367.0</ele>
        <time>2016-07-12T15:07:15Z</time>
      </trkpt>
      <trkpt lat="41.362333" lon="-4.573683">
        <ele>2367.0</ele>
        <time>2016-07-12T15:07:16Z</time>
      </trkpt>
      <trkpt lat="41.362383" lon="-4.573600">
        <ele>2367.0</ele>
        <time>2016-07-12T15:07:17Z</time>
      </trkpt>
      <trkpt lat="41.362400" lon="-4.573500">
        <ele>2368.0</ele>
        <time>2016-07-12T15:07:18Z</time>
      </trkpt>
      <trkpt lat="41.362417" lon="-4.573383">
        <ele>2370.0</ele>
        <time>2016-07-12T15:07:19Z</time>
      </trkpt>
      <trkpt lat="41.362417" lon="-4.573267">
        <ele>2371.0</ele>
        <time>2016-07-12T15:07:20Z</time>
      </trkpt>
      <trkpt lat="41.362433" lon="-4.573183">
        <ele>2372.0</ele>
        <time>2016-07-12T15:07:21Z</time>
      </trkpt>
      <trkpt lat="41.362467" lon="-4.573083">
        <ele>2374.0</ele>
        <time>2016-07-12T15:07:22Z</time>
      </trkpt>
      <trkpt lat="41.362500" lon="-4.572983">
        <ele>2377.0</ele>
        <time>2016-07-12T15:07:23Z</time>
      </trkpt>
      <trkpt lat="41.362517" lon="-4.572883">
        <ele>2382.0</ele>
        <time>2016-07-12T15:07:24Z</time>
      </trkpt>
      <trkpt lat="41.362533" lon="-4.572800">
        <ele>2385.0</ele>
        <time>2016-07-12T15:07:25Z</time>
      </trkpt>
      <trkpt lat="41.362517" lon="-4.572700">
        <ele>2387.0</ele>
        <time>2016-07-12T15:07:26Z</time>
      </trkpt>
      <trkpt lat="41.362517" lon="-4.572617">
        <ele>2389.0</ele>
        <time>2016-07-12T15:07:27Z</time>
      </trkpt>
      <trkpt lat="41.362517" lon="-4.572517">
        <ele>2390.0</ele>
        <time>2016-07-12T15:07:28Z</time>
      </trkpt>
      <trkpt lat="41.362533" lon="-4.572417">
        <ele>2391.0</ele>
        <time>2016-07-12T15:07:29Z</time>
      </trkpt>
      <trkpt lat="41.362550" lon="-4.572267">
        <ele>2392.0</ele>
        <time>2016-07-12T15:07:30Z</time>
      </trkpt>
      <trkpt lat="41.362567" lon="-4.572117">
        <ele>2395.0</ele>
        <time>2016-07-12T15:07:31Z</time>
      </trkpt>
      <trkpt lat="41.362567" lon="-4.571983">
        <ele>2398.0</ele>
        <time>2016-07-12T15:07:32Z</time>
      </trkpt>
      <trkpt lat="41.362567" lon="-4.571867">
        <ele>2401.0</ele>
        <time>2016-07-12T15:07:33Z</time>
      </trkpt>
      <trkpt lat="41.362567" lon="-4.571750">
        <ele>2403.0</ele>
        <time>2016-07-12T15:07:34Z</time>
      </trkpt>
      <trkpt lat="41.362567" lon="-4.571617">
        <ele>2403.0</ele>
        <time>2016-07-12T15:07:35Z</time>
      </trkpt>
      <trkpt lat="41.362583" lon="-4.571467">
        <ele>2403.0</ele>
        <time>2016-07-12T15:07:36Z</time>
      </trkpt>
      <trkpt lat="41.362600" lon="-4.571317">
        <ele>2405.0</ele>
        <time>2016-07-12T15:07:37Z</time>
      </trkpt>
      <trkpt lat="41.362583" lon="-4.571167">
        <ele>2407.0</ele>
        <time>2016-07-12T15:07:38Z</time>
      </trkpt>
      <trkpt lat="41.362567" lon="-4.571017">
        <ele>2410.0</ele>
        <time>2016-07-12T15:07:39Z</time>
      </trkpt>
      <trkpt lat="41.362550" lon="-4.570867">
        <ele>2411.0</ele>
        <time>2016-07-12T15:07:40Z</time>
      </trkpt>
      <trkpt lat="41.362533" lon="-4.570717">
        <ele>2412.0</ele>
        <time>2016-07-12T15:07:41Z</time>
      </trkpt>
      <trkpt lat="41.362517" lon="-4.570567">
        <ele>2415.0</ele>
        <time>2016-07-12T15:07:42Z</time>
      </trkpt>
      <trkpt lat="41.362500" lon="-4.570417">
        <ele>2417.0</ele>
        <time>2016-07-12T15:07:43Z</time>
      </trkpt>
      <trkpt lat="41.362450" lon="-4.570267">
        <ele>2420.0</ele>
        <time>2016-07-12T15:07:44Z</time>
      </trkpt>
      <trkpt lat="41.362383" lon="-4.570150">
        <ele>2422.0</ele>
        <time>2016-07-12T15:07:45Z</time>
      </trkpt>
      <trkpt lat="41.362317" lon="-4.570017">
        <ele>2423.0</ele>
        <time>2016-07-12T15:07:46Z</time>
      </trkpt>
      <trkpt lat="41.362233" lon="-4.569900">
        <ele>2423.0</ele>
        <time>2016-07-12T15:07:47Z</time>
      </trkpt>
      <trkpt lat="41.362150" lon="-4.569783">
        <ele>2424.0</ele>
        <time>2016-07-12T15:07:48Z</time>
      </trkpt>
      <trkpt lat="41.362033" lon="-4.569700">
        <ele>2424.0</ele>
        <time>2016-07-12T15:07:49Z</time>
      </trkpt>
      <trkpt lat="41.361900" lon="-4.569633">
        <ele>2423.0</ele>
        <time>2016-07-12T15:07:50Z</time>
      </trkpt>
      <trkpt lat="41.361750" lon="-4.569633">
        <ele>2423.0</ele>
        <time>2016-07-12T15:07:51Z</time>
      </trkpt>
      <trkpt lat="41.361633" lon="-4.569667">
        <ele>2423.0</ele>
        <time>2016-07-12T15:07:52Z</time>
      </trkpt>
      <trkpt lat="41.361533" lon="-4.569733">
        <ele>2423.0</ele>
        <time>2016-07-12T15:07:53Z</time>
      </trkpt>
      <trkpt lat="41.361467" lon="-4.569817">
        <ele>2423.0</ele>
        <time>2016-07-12T15:07:54Z</time>
      </trkpt>
      <trkpt lat="41.361450" lon="-4.569900">
        <ele>2424.0</ele>
        <time>2016-07-12T15:07:55Z</time>
      </trkpt>
      <trkpt lat="41.361433" lon="-4.569967">
        <ele>2425.0</ele>
        <time>2016-07-12T15:07:56Z</time>
      </trkpt>
      <trkpt lat="41.361433" lon="-4.570017">
        <ele>2425.0</ele>
        <time>2016-07-12T15:07:57Z</time>
      </trkpt>
      <trkpt lat="41.361450" lon="-4.570067">
        <ele>2425.0</ele>
        <time>2016-07-12T15:07:58Z</time>
      </trkpt>
      <trkpt lat="41.361467" lon="-4.570133">
        <ele>2425.0</ele>
        <time>2016-07-12T15:07:59Z</time>
      </trkpt>
      <trkpt lat="41.361500" lon="-4.570183">
        <ele>2426.0</ele>
        <time>2016-07-12T15:08:00Z</time>
      </trkpt>
      <trkpt lat="41.361550" lon="-4.570217">
        <ele>2427.0</ele>
        <time>2016-07-12T15:08:01Z</time>
      </trkpt>
      <trkpt lat="41.361600" lon="-4.570217">
        <ele>2429.0</ele>
        <time>2016-07-12T15:08:02Z</time>
      </trkpt>
      <trkpt lat="41.361633" lon="-4.570200">
        <ele>2431.0</ele>
        <time>2016-07-12T15:08:03Z</time>
      </trkpt>
      <trkpt lat="41.361683" lon="-4.570183">
        <ele>2433.0</ele>
        <time>2016-07-12T15:08:04Z</time>
      </trkpt>
      <trkpt lat="41.361733" lon="-4.570150">
        <ele>2435.0</ele>
        <time>2016-07-12T15:08:05Z</time>
      </trkpt>
      <trkpt lat="41.361767" lon="-4.570133">
        <ele>2438.0</ele>
        <time>2016-07-12T15:08:06Z</time>
      </trkpt>
      <trkpt lat="41.361817" lon="-4.570100">
        <ele>2442.0</ele>
        <time>2016-07-12T15:08:07Z</time>
      </trkpt>
      <trkpt lat="41.361867" lon="-4.570050">
        <ele>2444.0</ele>
        <time>2016-07-12T15:08:08Z</time>
      </trkpt>
      <trkpt lat="41.361917" lon="-4.569983">
        <ele>2447.0</ele>
        <time>2016-07-12T15:08:09Z</time>
      </trkpt>
      <trkpt lat="41.361950" lon="-4.569917">
        <ele>2450.0</ele>
        <time>2016-07-12T15:08:10Z</time>
      </trkpt>
      <trkpt lat="41.361983" lon="-4.569833">
        <ele>2454.0</ele>
        <time>2016-07-12T15:08:11Z</time>
      </trkpt>
      <trkpt lat="41.362017" lon="-4.569750">
        <ele>2457.0</ele>
        <time>2016-07-12T15:08:12Z</time>
      </trkpt>
      <trkpt lat="41.362050" lon="-4.569650">
        <ele>2460.0</ele>
        <time>2016-07-12T15:08:13Z</time>
      </trkpt>
      <trkpt lat="41.362067" lon="-4.569533">
        <ele>2462.0</ele>
        <time>2016-07-12T15:08:14Z</time>
      </trkpt>
      <trkpt lat="41.362083" lon="-4.569417">
        <ele>2465.0</ele>
        <time>2016-07-12T15:08:15Z</time>
      </trkpt>
      <trkpt lat="41.362083" lon="-4.569283">
        <ele>2467.0</ele>
        <time>2016-07-12T15:08:16Z</time>
      </trkpt>
      <trkpt lat="41.362100" lon="-4.569167">
        <ele>2469.0</ele>
        <time>2016-07-12T15:08:17Z</time>
      </trkpt>
      <trkpt lat="41.362117" lon="-4.569050">
        <ele>2471.0</ele>
        <time>2016-07-12T15:08:18Z</time>
      </trkpt>
      <trkpt lat="41.362117" lon="-4.568933">
        <ele>2472.0</ele>
        <time>2016-07-12T15:08:19Z</time>
      </trkpt>
      <trkpt lat="41.362133" lon="-4.568817">
        <ele>2472.0</ele>
        <time>2016-07-12T15:08:20Z</time>
      </trkpt>
      <trkpt lat="41.362133" lon="-4.568683">
        <ele>2472.0</ele>
        <time>2016-07-12T15:08:21Z</time>
      </trkpt>
      <trkpt lat="41.362133" lon="-4.568533">
        <ele>2473.0</ele>
        <time>2016-07-12T15:08:22Z</time>
      </trkpt>
      <trkpt lat="41.362100" lon="-4.568383">
        <ele>2473.0</ele>
        <time>2016-07-12T15:08:23Z</time>
      </trkpt>
      <trkpt lat="41.362067" lon="-4.568217">
        <ele>2474.0</ele>
        <time>2016-07-12T15:08:24Z</time>
      </trkpt>
      <trkpt lat="41.362033" lon="-4.568050">
        <ele>2475.0</ele>
        <time>2016-07-12T15:08:25Z</time>
      </trkpt>
      <trkpt lat="41.362000" lon="-4.567883">
        <ele>2476.0</ele>
        <time>2016-07-12T15:08:26Z</time>
      </trkpt>
      <trkpt lat="41.361950" lon="-4.567717">
        <ele>2476.0</ele>
        <time>2016-07-12T15:08:27Z</time>
      </trkpt>
      <trkpt lat="41.361917" lon="-4.567550">
        <ele>2477.0</ele>
        <time>2016-07-12T15:08:28Z</time>
      </trkpt>
      <trkpt lat="41.361867" lon="-4.567383">
        <ele>2477.0</ele>
        <time>2016-07-12T15:08:29Z</time>
      </trkpt>
      <trkpt lat="41.361800" lon="-4.567217">
        <ele>2477.0</ele>
        <time>2016-07-12T15:08:30Z</time>
      </trkpt>
      <trkpt lat="41.361717" lon="-4.567050">
        <ele>2477.0</ele>
        <time>2016-07-12T15:08:31Z</time>
      </trkpt>
      <trkpt lat="41.361617" lon="-4.566900">
        <ele>2476.0</ele>
        <time>2016-07-12T15:08:32Z</time>
      </trkpt>
      <trkpt lat="41.361500" lon="-4.566767">
        <ele>2475.0</ele>
        <time>2016-07-12T15:08:33Z</time>
      </trkpt>
      <trkpt lat="41.361350" lon="-4.566650">
        <ele>2474.0</ele>
        <time>2016-07-12T15:08:34Z</time>
      </trkpt>
      <trkpt lat="41.361217" lon="-4.566583">
        <ele>2474.0</ele>
        <time>2016-07-12T15:08:35Z</time>
      </trkpt>
      <trkpt lat="41.361083" lon="-4.566550">
        <ele>2475.0</ele>
        <time>2016-07-12T15:08:36Z</time>
      </trkpt>
      <trkpt lat="41.360983" lon="-4.566550">
        <ele>2473.0</ele>
        <time>2016-07-12T15:08:37Z</time>
      </trkpt>
      <trkpt lat="41.360917" lon="-4.566583">
        <ele>2472.0</ele>
        <time>2016-07-12T15:08:38Z</time>
      </trkpt>
      <trkpt lat="41.360867" lon="-4.566633">
        <ele>2470.0</ele>
        <time>2016-07-12T15:08:39Z</time>
      </trkpt>
      <trkpt lat="41.360817" lon="-4.566700">
        <ele>2469.0</ele>
        <time>2016-07-12T15:08:40Z</time>
      </trkpt>
      <trkpt lat="41.360800" lon="-4.566783">
        <ele>2468.0</ele>
        <time>2016-07-12T15:08:41Z</time>
      </trkpt>
      <trkpt lat="41.360800" lon="-4.566850">
        <ele>2467.0</ele>
        <time>2016-07-12T15:08:42Z</time>
      </trkpt>
      <trkpt lat="41.360850" lon="-4.566900">
        <ele>2466.0</ele>
        <time>2016-07-12T15:08:43Z</time>
      </trkpt>
      <trkpt lat="41.360900" lon="-4.566917">
        <ele>2466.0</ele>
        <time>2016-07-12T15:08:44Z</time>
      </trkpt>
      <trkpt lat="41.360967" lon="-4.566900">
        <ele>2468.0</ele>
        <time>2016-07-12T15:08:45Z</time>
      </trkpt>
      <trkpt lat="41.361017" lon="-4.566867">
        <ele>2471.0</ele>
        <time>2016-07-12T15:08:46Z</time>
      </trkpt>
      <trkpt lat="41.361050" lon="-4.566817">
        <ele>2475.0</ele>
        <time>2016-07-12T15:08:47Z</time>
      </trkpt>
      <trkpt lat="41.361067" lon="-4.566783">
        <ele>2476.0</ele>
        <time>2016-07-12T15:08:48Z</time>
      </trkpt>
      <trkpt lat="41.361067" lon="-4.566733">
        <ele>2476.0</ele>
        <time>2016-07-12T15:08:49Z</time>
      </trkpt>
      <trkpt lat="41.361083" lon="-4.566683">
        <ele>2475.0</ele>
        <time>2016-07-12T15:08:50Z</time>
      </trkpt>
      <trkpt lat="41.361133" lon="-4.566617">
        <ele>2472.0</ele>
        <time>2016-07-12T15:08:51Z</time>
      </trkpt>
      <trkpt lat="41.361183" lon="-4.566533">
        <ele>2469.0</ele>
        <time>2016-07-12T15:08:52Z</time>
      </trkpt>
      <trkpt lat="41.361233" lon="-4.566433">
        <ele>2467.0</ele>
        <time>2016-07-12T15:08:53Z</time>
      </trkpt>
      <trkpt lat="41.361267" lon="-4.566317">
        <ele>2467.0</ele>
        <time>2016-07-12T15:08:54Z</time>
      </trkpt>
      <trkpt lat="41.361283" lon="-4.566183">
        <ele>2466.0</ele>
        <time>2016-07-12T15:08:55Z</time>
      </trkpt>
      <trkpt lat="41.361300" lon="-4.566067">
        <ele>2464.0</ele>
        <time>2016-07-12T15:08:56Z</time>
      </trkpt>
      <trkpt lat="41.361317" lon="-4.565917">
        <ele>2461.0</ele>
        <time>2016-07-12T15:08:57Z</time>
      </trkpt>
      <trkpt lat="41.361350" lon="-4.565767">
        <ele>2458.0</ele>
        <time>2016-07-12T15:08:58Z</time>
      </trkpt>
      <trkpt lat="41.361367" lon="-4.565583">
        <ele>2456.0</ele>
        <time>2016-07-12T15:08:59Z</time>
      </trkpt>
      <trkpt lat="41.361383" lon="-4.565383">
        <ele>2454.0</ele>
        <time>2016-07-12T15:09:00Z</time>
      </trkpt>
      <trkpt lat="41.361367" lon="-4.565200">
        <ele>2453.0</ele>
        <time>2016-07-12T15:09:01Z</time>
      </trkpt>
      <trkpt lat="41.361367" lon="-4.565017">
        <ele>2452.0</ele>
        <time>2016-07-12T15:09:02Z</time>
      </trkpt>
      <trkpt lat="41.361367" lon="-4.564833">
        <ele>2450.0</ele>
        <time>2016-07-12T15:09:03Z</time>
      </trkpt>
      <trkpt lat="41.361367" lon="-4.564650">
        <ele>2447.0</ele>
        <time>2016-07-12T15:09:04Z</time>
      </trkpt>
      <trkpt lat="41.361350" lon="-4.564450">
        <ele>2443.0</ele>
        <time>2016-07-12T15:09:05Z</time>
      </trkpt>
      <trkpt lat="41.361350" lon="-4.564233">
        <ele>2440.0</ele>
        <time>2016-07-12T15:09:06Z</time>
      </trkpt>
      <trkpt lat="41.361350" lon="-4.564017">
        <ele>2438.0</ele>
        <time>2016-07-12T15:09:07Z</time>
      </trkpt>
      <trkpt lat="41.361333" lon="-4.563817">
        <ele>2437.0</ele>
        <time>2016-07-12T15:09:08Z</time>
      </trkpt>
      <trkpt lat="41.361317" lon="-4.563650">
        <ele>2435.0</ele>
        <time>2016-07-12T15:09:09Z</time>
      </trkpt>
      <trkpt lat="41.361300" lon="-4.563467">
        <ele>2432.0</ele>
        <time>2016-07-12T15:09:10Z</time>
      </trkpt>
      <trkpt lat="41.361300" lon="-4.563283">
        <ele>2427.0</ele>
        <time>2016-07-12T15:09:11Z</time>
      </trkpt>
      <trkpt lat="41.361283" lon="-4.563083">
        <ele>2423.0</ele>
        <time>2016-07-12T15:09:12Z</time>
      </trkpt>
      <trkpt lat="41.361267" lon="-4.562867">
        <ele>2419.0</ele>
        <time>2016-07-12T15:09:13Z</time>
      </trkpt>
      <trkpt lat="41.361250" lon="-4.562667">
        <ele>2418.0</ele>
        <time>2016-07-12T15:09:14Z</time>
      </trkpt>
      <trkpt lat="41.361233" lon="-4.562500">
        <ele>2417.0</ele>
        <time>2016-07-12T15:09:15Z</time>
      </trkpt>
      <trkpt lat="41.361200" lon="-4.562350">
        <ele>2416.0</ele>
        <time>2016-07-12T15:09:16Z</time>
      </trkpt>
      <trkpt lat="41.361183" lon="-4.562200">
        <ele>2414.0</ele>
        <time>2016-07-12T15:09:17Z</time>
      </trkpt>
      <trkpt lat="41.361133" lon="-4.562033">
        <ele>2412.0</ele>
        <time>2016-07-12T15:09:18Z</time>
      </trkpt>
      <trkpt lat="41.361100" lon="-4.561867">
        <ele>2410.0</ele>
        <time>2016-07-12T15:09:19Z</time>
      </trkpt>
      <trkpt lat="41.361067" lon="-4.561683">
        <ele>2409.0</ele>
        <time>2016-07-12T15:09:20Z</time>
      </trkpt>
      <trkpt lat="41.361050" lon="-4.561517">
        <ele>2407.0</ele>
        <time>2016-07-12T15:09:21Z</time>
      </trkpt>
      <trkpt lat="41.361017" lon="-4.561333">
        <ele>2406.0</ele>
        <time>2016-07-12T15:09:22Z</time>
      </trkpt>
      <trkpt lat="41.360983" lon="-4.561167">
        <ele>2405.0</ele>
        <time>2016-07-12T15:09:23Z</time>
      </trkpt>
      <trkpt lat="41.360950" lon="-4.561000">
        <ele>2404.0</ele>
        <time>2016-07-12T15:09:24Z</time>
      </trkpt>
      <trkpt lat="41.360917" lon="-4.560833">
        <ele>2402.0</ele>
        <time>2016-07-12T15:09:25Z</time>
      </trkpt>
      <trkpt lat="41.360883" lon="-4.560650">
        <ele>2400.0</ele>
        <time>2016-07-12T15:09:26Z</time>
      </trkpt>
      <trkpt lat="41.360850" lon="-4.560483">
        <ele>2398.0</ele>
        <time>2016-07-12T15:09:27Z</time>
      </trkpt>
      <trkpt lat="41.360800" lon="-4.560300">
        <ele>2396.0</ele>
        <time>2016-07-12T15:09:28Z</time>
      </trkpt>
      <trkpt lat="41.360767" lon="-4.560133">
        <ele>2394.0</ele>
        <time>2016-07-12T15:09:29Z</time>
      </trkpt>
      <trkpt lat="41.360717" lon="-4.559950">
        <ele>2391.0</ele>
        <time>2016-07-12T15:09:30Z</time>
      </trkpt>
      <trkpt lat="41.360667" lon="-4.559767">
        <ele>2389.0</ele>
        <time>2016-07-12T15:09:31Z</time>
      </trkpt>
      <trkpt lat="41.360633" lon="-4.559583">
        <ele>2387.0</ele>
        <time>2016-07-12T15:09:32Z</time>
      </trkpt>
      <trkpt lat="41.360583" lon="-4.559400">
        <ele>2385.0</ele>
        <time>2016-07-12T15:09:33Z</time>
      </trkpt>
      <trkpt lat="41.360533" lon="-4.559217">
        <ele>2383.0</ele>
        <time>2016-07-12T15:09:34Z</time>
      </trkpt>
      <trkpt lat="41.360483" lon="-4.559033">
        <ele>2381.0</ele>
        <time>2016-07-12T15:09:35Z</time>
      </trkpt>
      <trkpt lat="41.360450" lon="-4.558833">
        <ele>2379.0</ele>
        <time>2016-07-12T15:09:36Z</time>
      </trkpt>
      <trkpt lat="41.360417" lon="-4.558667">
        <ele>2377.0</ele>
        <time>2016-07-12T15:09:37Z</time>
      </trkpt>
      <trkpt lat="41.360367" lon="-4.558483">
        <ele>2375.0</ele>
        <time>2016-07-12T15:09:38Z</time>
      </trkpt>
      <trkpt lat="41.360300" lon="-4.558300">
        <ele>2373.0</ele>
        <time>2016-07-12T15:09:39Z</time>
      </trkpt>
      <trkpt lat="41.360233" lon="-4.558133">
        <ele>2371.0</ele>
        <time>2016-07-12T15:09:40Z</time>
      </trkpt>
      <trkpt lat="41.360167" lon="-4.557983">
        <ele>2369.0</ele>
        <time>2016-07-12T15:09:41Z</time>
      </trkpt>
      <trkpt lat="41.360100" lon="-4.557817">
        <ele>2367.0</ele>
        <time>2016-07-12T15:09:42Z</time>
      </trkpt>
      <trkpt lat="41.360033" lon="-4.557633">
        <ele>2365.0</ele>
        <time>2016-07-12T15:09:43Z</time>
      </trkpt>
      <trkpt lat="41.359967" lon="-4.557467">
        <ele>2363.0</ele>
        <time>2016-07-12T15:09:44Z</time>
      </trkpt>
      <trkpt lat="41.359900" lon="-4.557317">
        <ele>2360.0</ele>
        <time>2016-07-12T15:09:45Z</time>
      </trkpt>
      <trkpt lat="41.359833" lon="-4.557150">
        <ele>2358.0</ele>
        <time>2016-07-12T15:09:46Z</time>
      </trkpt>
      <trkpt lat="41.359783" lon="-4.557000">
        <ele>2356.0</ele>
        <time>2016-07-12T15:09:47Z</time>
      </trkpt>
      <trkpt lat="41.359733" lon="-4.556833">
        <ele>2353.0</ele>
        <time>2016-07-12T15:09:48Z</time>
      </trkpt>
      <trkpt lat="41.359683" lon="-4.556667">
        <ele>2349.0</ele>
        <time>2016-07-12T15:09:49Z</time>
      </trkpt>
      <trkpt lat="41.359633" lon="-4.556483">
        <ele>2346.0</ele>
        <time>2016-07-12T15:09:50Z</time>
      </trkpt>
      <trkpt lat="41.359600" lon="-4.556300">
        <ele>2344.0</ele>
        <time>2016-07-12T15:09:51Z</time>
      </trkpt>
      <trkpt lat="41.359567" lon="-4.556117">
        <ele>2344.0</ele>
        <time>2016-07-12T15:09:52Z</time>
      </trkpt>
      <trkpt lat="41.359550" lon="-4.555933">
        <ele>2342.0</ele>
        <time>2016-07-12T15:09:53Z</time>
      </trkpt>
      <trkpt lat="41.359533" lon="-4.555750">
        <ele>2340.0</ele>
        <time>2016-07-12T15:09:54Z</time>
      </trkpt>
      <trkpt lat="41.359517" lon="-4.555567">
        <ele>2338.0</ele>
        <time>2016-07-12T15:09:55Z</time>
      </trkpt>
      <trkpt lat="41.359500" lon="-4.555383">
        <ele>2336.0</ele>
        <time>2016-07-12T15:09:56Z</time>
      </trkpt>
      <trkpt lat="41.359500" lon="-4.555183">
        <ele>2334.0</ele>
        <time>2016-07-12T15:09:57Z</time>
      </trkpt>
      <trkpt lat="41.359483" lon="-4.555000">
        <ele>2333.0</ele>
        <time>2016-07-12T15:09:58Z</time>
      </trkpt>
      <trkpt lat="41.359467" lon="-4.554833">
        <ele>2332.0</ele>
        <time>2016-07-12T15:09:59Z</time>
      </trkpt>
      <trkpt lat="41.359450" lon="-4.554650">
        <ele>2332.0</ele>
        <time>2016-07-12T15:10:00Z</time>
      </trkpt>
      <trkpt lat="41.359433" lon="-4.554467">
        <ele>2331.0</ele>
        <time>2016-07-12T15:10:01Z</time>
      </trkpt>
      <trkpt lat="41.359417" lon="-4.554283">
        <ele>2330.0</ele>
        <time>2016-07-12T15:10:02Z</time>
      </trkpt>
      <trkpt lat="41.359400" lon="-4.554100">
        <ele>2328.0</ele>
        <time>2016-07-12T15:10:03Z</time>
      </trkpt>
      <trkpt lat="41.359400" lon="-4.553917">
        <ele>2327.0</ele>
        <time>2016-07-12T15:10:04Z</time>
      </trkpt>
      <trkpt lat="41.359400" lon="-4.553733">
        <ele>2326.0</ele>
        <time>2016-07-12T15:10:05Z</time>
      </trkpt>
      <trkpt lat="41.359383" lon="-4.553550">
        <ele>2325.0</ele>
        <time>2016-07-12T15:10:06Z</time>
      </trkpt>
      <trkpt lat="41.359383" lon="-4.553383">
        <ele>2324.0</ele>
        <time>2016-07-12T15:10:07Z</time>
      </trkpt>
      <trkpt lat="41.359383" lon="-4.553217">
        <ele>2322.0</ele>
        <time>2016-07-12T15:10:08Z</time>
      </trkpt>
      <trkpt lat="41.359383" lon="-4.553033">
        <ele>2321.0</ele>
        <time>2016-07-12T15:10:09Z</time>
      </trkpt>
      <trkpt lat="41.359367" lon="-4.552850">
        <ele>2320.0</ele>
        <time>2016-07-12T15:10:10Z</time>
      </trkpt>
      <trkpt lat="41.359367" lon="-4.552667">
        <ele>2319.0</ele>
        <time>2016-07-12T15:10:11Z</time>
      </trkpt>
      <trkpt lat="41.359367" lon="-4.552500">
        <ele>2318.0</ele>
        <time>2016-07-12T15:10:12Z</time>
      </trkpt>
      <trkpt lat="41.359350" lon="-4.552333">
        <ele>2317.0</ele>
        <time>2016-07-12T15:10:13Z</time>
      </trkpt>
      <trkpt lat="41.359333" lon="-4.552150">
        <ele>2316.0</ele>
        <time>2016-07-12T15:10:14Z</time>
      </trkpt>
      <trkpt lat="41.359317" lon="-4.551983">
        <ele>2315.0</ele>
        <time>2016-07-12T15:10:15Z</time>
      </trkpt>
      <trkpt lat="41.359317" lon="-4.551817">
        <ele>2314.0</ele>
        <time>2016-07-12T15:10:16Z</time>
      </trkpt>
      <trkpt lat="41.359300" lon="-4.551650">
        <ele>2313.0</ele>
        <time>2016-07-12T15:10:17Z</time>
      </trkpt>
      <trkpt lat="41.359300" lon="-4.551483">
        <ele>2311.0</ele>
        <time>2016-07-12T15:10:18Z</time>
      </trkpt>
      <trkpt lat="41.359300" lon="-4.551283">
        <ele>2309.0</ele>
        <time>2016-07-12T15:10:19Z</time>
      </trkpt>
      <trkpt lat="41.359283" lon="-4.551100">
        <ele>2308.0</ele>
        <time>2016-07-12T15:10:20Z</time>
      </trkpt>
      <trkpt lat="41.359267" lon="-4.550917">
        <ele>2308.0</ele>
        <time>2016-07-12T15:10:21Z</time>
      </trkpt>
      <trkpt lat="41.359250" lon="-4.550750">
        <ele>2307.0</ele>
        <time>2016-07-12T15:10:22Z</time>
      </trkpt>
      <trkpt lat="41.359233" lon="-4.550583">
        <ele>2306.0</ele>
        <time>2016-07-12T15:10:23Z</time>
      </trkpt>
      <trkpt lat="41.359217" lon="-4.550417">
        <ele>2304.0</ele>
        <time>2016-07-12T15:10:24Z</time>
      </trkpt>
      <trkpt lat="41.359200" lon="-4.550250">
        <ele>2302.0</ele>
        <time>2016-07-12T15:10:25Z</time>
      </trkpt>
      <trkpt lat="41.359200" lon="-4.550067">
        <ele>2300.0</ele>
        <time>2016-07-12T15:10:26Z</time>
      </trkpt>
      <trkpt lat="41.359183" lon="-4.549900">
        <ele>2298.0</ele>
        <time>2016-07-12T15:10:27Z</time>
      </trkpt>
      <trkpt lat="41.359183" lon="-4.549717">
        <ele>2296.0</ele>
        <time>2016-07-12T15:10:28Z</time>
      </trkpt>
      <trkpt lat="41.359183" lon="-4.549533">
        <ele>2294.0</ele>
        <time>2016-07-12T15:10:29Z</time>
      </trkpt>
      <trkpt lat="41.359183" lon="-4.549350">
        <ele>2294.0</ele>
        <time>2016-07-12T15:10:30Z</time>
      </trkpt>
      <trkpt lat="41.359183" lon="-4.549150">
        <ele>2295.0</ele>
        <time>2016-07-12T15:10:31Z</time>
      </trkpt>
      <trkpt lat="41.359183" lon="-4.548983">
        <ele>2295.0</ele>
        <time>2016-07-12T15:10:32Z</time>
      </trkpt>
      <trkpt lat="41.359167" lon="-4.548817">
        <ele>2295.0</ele>
        <time>2016-07-12T15:10:33Z</time>
      </trkpt>
      <trkpt lat="41.359167" lon="-4.548667">
        <ele>2294.0</ele>
        <time>2016-07-12T15:10:34Z</time>
      </trkpt>
      <trkpt lat="41.359150" lon="-4.548517">
        <ele>2292.0</ele>
        <time>2016-07-12T15:10:35Z</time>
      </trkpt>
      <trkpt lat="41.359150" lon="-4.548350">
        <ele>2289.0</ele>
        <time>2016-07-12T15:10:36Z</time>
      </trkpt>
      <trkpt lat="41.359150" lon="-4.548167">
        <ele>2286.0</ele>
        <time>2016-07-12T15:10:37Z</time>
      </trkpt>
      <trkpt lat="41.359150" lon="-4.547983">
        <ele>2284.0</ele>
        <time>2016-07-12T15:10:38Z</time>
      </trkpt>
      <trkpt lat="41.359133" lon="-4.547800">
        <ele>2281.0</ele>
        <time>2016-07-12T15:10:39Z</time>
      </trkpt>
      <trkpt lat="41.359133" lon="-4.547633">
        <ele>2280.0</ele>
        <time>2016-07-12T15:10:40Z</time>
      </trkpt>
      <trkpt lat="41.359133" lon="-4.547483">
        <ele>2278.0</ele>
        <time>2016-07-12T15:10:41Z</time>
      </trkpt>
      <trkpt lat="41.359133" lon="-4.547317">
        <ele>2275.0</ele>
        <time>2016-07-12T15:10:42Z</time>
      </trkpt>
      <trkpt lat="41.359150" lon="-4.547150">
        <ele>2272.0</ele>
        <time>2016-07-12T15:10:43Z</time>
      </trkpt>
      <trkpt lat="41.359150" lon="-4.546983">
        <ele>2270.0</ele>
        <time>2016-07-12T15:10:44Z</time>
      </trkpt>
      <trkpt lat="41.359150" lon="-4.546833">
        <ele>2267.0</ele>
        <time>2016-07-12T15:10:45Z</time>
      </trkpt>
      <trkpt lat="41.359150" lon="-4.546667">
        <ele>2265.0</ele>
        <time>2016-07-12T15:10:46Z</time>
      </trkpt>
      <trkpt lat="41.359167" lon="-4.546517">
        <ele>2262.0</ele>
        <time>2016-07-12T15:10:47Z</time>
      </trkpt>
      <trkpt lat="41.359167" lon="-4.546367">
        <ele>2259.0</ele>
        <time>2016-07-12T15:10:48Z</time>
      </trkpt>
      <trkpt lat="41.359183" lon="-4.546217">
        <ele>2257.0</ele>
        <time>2016-07-12T15:10:49Z</time>
      </trkpt>
      <trkpt lat="41.359183" lon="-4.546067">
        <ele>2254.0</ele>
        <time>2016-07-12T15:10:50Z</time>
      </trkpt>
      <trkpt lat="41.359183" lon="-4.545917">
        <ele>2251.0</ele>
        <time>2016-07-12T15:10:51Z</time>
      </trkpt>
      <trkpt lat="41.359183" lon="-4.545750">
        <ele>2248.0</ele>
        <time>2016-07-12T15:10:52Z</time>
      </trkpt>
      <trkpt lat="41.359183" lon="-4.545583">
        <ele>2245.0</ele>
        <time>2016-07-12T15:10:53Z</time>
      </trkpt>
      <trkpt lat="41.359167" lon="-4.545417">
        <ele>2242.0</ele>
        <time>2016-07-12T15:10:54Z</time>
      </trkpt>
      <trkpt lat="41.359167" lon="-4.545250">
        <ele>2239.0</ele>
        <time>2016-07-12T15:10:55Z</time>
      </trkpt>
      <trkpt lat="41.359167" lon="-4.545100">
        <ele>2236.0</ele>
        <time>2016-07-12T15:10:56Z</time>
      </trkpt>
      <trkpt lat="41.359167" lon="-4.544933">
        <ele>2233.0</ele>
        <time>2016-07-12T15:10:57Z</time>
      </trkpt>
      <trkpt lat="41.359167" lon="-4.544767">
        <ele>2230.0</ele>
        <time>2016-07-12T15:10:58Z</time>
      </trkpt>
      <trkpt lat="41.359167" lon="-4.544600">
        <ele>2227.0</ele>
        <time>2016-07-12T15:10:59Z</time>
      </trkpt>
      <trkpt lat="41.359167" lon="-4.544433">
        <ele>2225.0</ele>
        <time>2016-07-12T15:11:00Z</time>
      </trkpt>
      <trkpt lat="41.359167" lon="-4.544283">
        <ele>2223.0</ele>
        <time>2016-07-12T15:11:01Z</time>
      </trkpt>
      <trkpt lat="41.359150" lon="-4.544117">
        <ele>2220.0</ele>
        <time>2016-07-12T15:11:02Z</time>
      </trkpt>
      <trkpt lat="41.359150" lon="-4.543967">
        <ele>2218.0</ele>
        <time>2016-07-12T15:11:03Z</time>
      </trkpt>
      <trkpt lat="41.359133" lon="-4.543783">
        <ele>2215.0</ele>
        <time>2016-07-12T15:11:04Z</time>
      </trkpt>
      <trkpt lat="41.359117" lon="-4.543617">
        <ele>2213.0</ele>
        <time>2016-07-12T15:11:05Z</time>
      </trkpt>
      <trkpt lat="41.359083" lon="-4.543433">
        <ele>2210.0</ele>
        <time>2016-07-12T15:11:06Z</time>
      </trkpt>
      <trkpt lat="41.359050" lon="-4.543267">
        <ele>2209.0</ele>
        <time>2016-07-12T15:11:07Z</time>
      </trkpt>
      <trkpt lat="41.359017" lon="-4.543100">
        <ele>2207.0</ele>
        <time>2016-07-12T15:11:08Z</time>
      </trkpt>
      <trkpt lat="41.358967" lon="-4.542933">
        <ele>2205.0</ele>
        <time>2016-07-12T15:11:09Z</time>
      </trkpt>
      <trkpt lat="41.358933" lon="-4.542767">
        <ele>2202.0</ele>
        <time>2016-07-12T15:11:10Z</time>
      </trkpt>
      <trkpt lat="41.358900" lon="-4.542600">
        <ele>2200.0</ele>
        <time>2016-07-12T15:11:11Z</time>
      </trkpt>
      <trkpt lat="41.358850" lon="-4.542433">
        <ele>2197.0</ele>
        <time>2016-07-12T15:11:12Z</time>
      </trkpt>
      <trkpt lat="41.358800" lon="-4.542267">
        <ele>2195.0</ele>
        <time>2016-07-12T15:11:13Z</time>
      </trkpt>
      <trkpt lat="41.358733" lon="-4.542100">
        <ele>2193.0</ele>
        <time>2016-07-12T15:11:14Z</time>
      </trkpt>
      <trkpt lat="41.358683" lon="-4.541950">
        <ele>2191.0</ele>
        <time>2016-07-12T15:11:15Z</time>
      </trkpt>
      <trkpt lat="41.358617" lon="-4.541800">
        <ele>2189.0</ele>
        <time>2016-07-12T15:11:16Z</time>
      </trkpt>
      <trkpt lat="41.358567" lon="-4.541633">
        <ele>2187.0</ele>
        <time>2016-07-12T15:11:17Z</time>
      </trkpt>
      <trkpt lat="41.358500" lon="-4.541483">
        <ele>2185.0</ele>
        <time>2016-07-12T15:11:18Z</time>
      </trkpt>
      <trkpt lat="41.358433" lon="-4.541317">
        <ele>2183.0</ele>
        <time>2016-07-12T15:11:19Z</time>
      </trkpt>
      <trkpt lat="41.358350" lon="-4.541167">
        <ele>2182.0</ele>
        <time>2016-07-12T15:11:20Z</time>
      </trkpt>
      <trkpt lat="41.358283" lon="-4.541017">
        <ele>2180.0</ele>
        <time>2016-07-12T15:11:21Z</time>
      </trkpt>
      <trkpt lat="41.358233" lon="-4.540867">
        <ele>2178.0</ele>
        <time>2016-07-12T15:11:22Z</time>
      </trkpt>
      <trkpt lat="41.358167" lon="-4.540700">
        <ele>2175.0</ele>
        <time>2016-07-12T15:11:23Z</time>
      </trkpt>
      <trkpt lat="41.358083" lon="-4.540533">
        <ele>2175.0</ele>
        <time>2016-07-12T15:11:24Z</time>
      </trkpt>
      <trkpt lat="41.358017" lon="-4.540383">
        <ele>2176.0</ele>
        <time>2016-07-12T15:11:25Z</time>
      </trkpt>
      <trkpt lat="41.357933" lon="-4.540250">
        <ele>2176.0</ele>
        <time>2016-07-12T15:11:26Z</time>
      </trkpt>
      <trkpt lat="41.357850" lon="-4.540117">
        <ele>2175.0</ele>
        <time>2016-07-12T15:11:27Z</time>
      </trkpt>
      <trkpt lat="41.357783" lon="-4.539983">
        <ele>2174.0</ele>
        <time>2016-07-12T15:11:28Z</time>
      </trkpt>
      <trkpt lat="41.357717" lon="-4.539833">
        <ele>2172.0</ele>
        <time>2016-07-12T15:11:29Z</time>
      </trkpt>
      <trkpt lat="41.357633" lon="-4.539667">
        <ele>2169.0</ele>
        <time>2016-07-12T15:11:30Z</time>
      </trkpt>
      <trkpt lat="41.357550" lon="-4.539500">
        <ele>2166.0</ele>
        <time>2016-07-12T15:11:31Z</time>
      </trkpt>
      <trkpt lat="41.357467" lon="-4.539333">
        <ele>2165.0</ele>
        <time>2016-07-12T15:11:32Z</time>
      </trkpt>
      <trkpt lat="41.357383" lon="-4.539183">
        <ele>2164.0</ele>
        <time>2016-07-12T15:11:33Z</time>
      </trkpt>
      <trkpt lat="41.357300" lon="-4.539017">
        <ele>2164.0</ele>
        <time>2016-07-12T15:11:34Z</time>
      </trkpt>
      <trkpt lat="41.357233" lon="-4.538867">
        <ele>2164.0</ele>
        <time>2016-07-12T15:11:35Z</time>
      </trkpt>
      <trkpt lat="41.357150" lon="-4.538717">
        <ele>2162.0</ele>
        <time>2016-07-12T15:11:36Z</time>
      </trkpt>
      <trkpt lat="41.357083" lon="-4.538583">
        <ele>2159.0</ele>
        <time>2016-07-12T15:11:37Z</time>
      </trkpt>
      <trkpt lat="41.357017" lon="-4.538433">
        <ele>2157.0</ele>
        <time>2016-07-12T15:11:38Z</time>
      </trkpt>
      <trkpt lat="41.356933" lon="-4.538283">
        <ele>2153.0</ele>
        <time>2016-07-12T15:11:39Z</time>
      </trkpt>
      <trkpt lat="41.356850" lon="-4.538133">
        <ele>2150.0</ele>
        <time>2016-07-12T15:11:40Z</time>
      </trkpt>
      <trkpt lat="41.356767" lon="-4.537983">
        <ele>2146.0</ele>
        <time>2016-07-12T15:11:41Z</time>
      </trkpt>
      <trkpt lat="41.356683" lon="-4.537817">
        <ele>2144.0</ele>
        <time>2016-07-12T15:11:42Z</time>
      </trkpt>
      <trkpt lat="41.356600" lon="-4.537667">
        <ele>2143.0</ele>
        <time>2016-07-12T15:11:43Z</time>
      </trkpt>
      <trkpt lat="41.356517" lon="-4.537533">
        <ele>2142.0</ele>
        <time>2016-07-12T15:11:44Z</time>
      </trkpt>
      <trkpt lat="41.356417" lon="-4.537400">
        <ele>2140.0</ele>
        <time>2016-07-12T15:11:45Z</time>
      </trkpt>
      <trkpt lat="41.356333" lon="-4.537283">
        <ele>2138.0</ele>
        <time>2016-07-12T15:11:46Z</time>
      </trkpt>
      <trkpt lat="41.356250" lon="-4.537133">
        <ele>2134.0</ele>
        <time>2016-07-12T15:11:47Z</time>
      </trkpt>
      <trkpt lat="41.356167" lon="-4.536983">
        <ele>2131.0</ele>
        <time>2016-07-12T15:11:48Z</time>
      </trkpt>
      <trkpt lat="41.356067" lon="-4.536833">
        <ele>2128.0</ele>
        <time>2016-07-12T15:11:49Z</time>
      </trkpt>
      <trkpt lat="41.355983" lon="-4.536683">
        <ele>2127.0</ele>
        <time>2016-07-12T15:11:50Z</time>
      </trkpt>
      <trkpt lat="41.355900" lon="-4.536550">
        <ele>2125.0</ele>
        <time>2016-07-12T15:11:51Z</time>
      </trkpt>
      <trkpt lat="41.355817" lon="-4.536417">
        <ele>2123.0</ele>
        <time>2016-07-12T15:11:52Z</time>
      </trkpt>
      <trkpt lat="41.355733" lon="-4.536283">
        <ele>2120.0</ele>
        <time>2016-07-12T15:11:53Z</time>
      </trkpt>
      <trkpt lat="41.355650" lon="-4.536150">
        <ele>2118.0</ele>
        <time>2016-07-12T15:11:54Z</time>
      </trkpt>
      <trkpt lat="41.355567" lon="-4.536017">
        <ele>2116.0</ele>
        <time>2016-07-12T15:11:55Z</time>
      </trkpt>
      <trkpt lat="41.355483" lon="-4.535883">
        <ele>2114.0</ele>
        <time>2016-07-12T15:11:56Z</time>
      </trkpt>
      <trkpt lat="41.355400" lon="-4.535767">
        <ele>2113.0</ele>
        <time>2016-07-12T15:11:57Z</time>
      </trkpt>
      <trkpt lat="41.355317" lon="-4.535633">
        <ele>2111.0</ele>
        <time>2016-07-12T15:11:58Z</time>
      </trkpt>
      <trkpt lat="41.355250" lon="-4.535517">
        <ele>2109.0</ele>
        <time>2016-07-12T15:11:59Z</time>
      </trkpt>
      <trkpt lat="41.355167" lon="-4.535383">
        <ele>2107.0</ele>
        <time>2016-07-12T15:12:00Z</time>
      </trkpt>
      <trkpt lat="41.355083" lon="-4.535267">
        <ele>2104.0</ele>
        <time>2016-07-12T15:12:01Z</time>
      </trkpt>
      <trkpt lat="41.354983" lon="-4.535133">
        <ele>2101.0</ele>
        <time>2016-07-12T15:12:02Z</time>
      </trkpt>
      <trkpt lat="41.354900" lon="-4.535017">
        <ele>2099.0</ele>
        <time>2016-07-12T15:12:03Z</time>
      </trkpt>
      <trkpt lat="41.354800" lon="-4.534883">
        <ele>2098.0</ele>
        <time>2016-07-12T15:12:04Z</time>
      </trkpt>
      <trkpt lat="41.354717" lon="-4.534767">
        <ele>2096.0</ele>
        <time>2016-07-12T15:12:05Z</time>
      </trkpt>
      <trkpt lat="41.354633" lon="-4.534667">
        <ele>2094.0</ele>
        <time>2016-07-12T15:12:06Z</time>
      </trkpt>
      <trkpt lat="41.354550" lon="-4.534567">
        <ele>2091.0</ele>
        <time>2016-07-12T15:12:07Z</time>
      </trkpt>
      <trkpt lat="41.354450" lon="-4.534450">
        <ele>2088.0</ele>
        <time>2016-07-12T15:12:08Z</time>
      </trkpt>
      <trkpt lat="41.354350" lon="-4.534333">
        <ele>2085.0</ele>
        <time>2016-07-12T15:12:09Z</time>
      </trkpt>
      <trkpt lat="41.354267" lon="-4.534200">
        <ele>2082.0</ele>
        <time>2016-07-12T15:12:10Z</time>
      </trkpt>
      <trkpt lat="41.354167" lon="-4.534050">
        <ele>2081.0</ele>
        <time>2016-07-12T15:12:11Z</time>
      </trkpt>
      <trkpt lat="41.354083" lon="-4.533933">
        <ele>2081.0</ele>
        <time>2016-07-12T15:12:12Z</time>
      </trkpt>
      <trkpt lat="41.354017" lon="-4.533817">
        <ele>2079.0</ele>
        <time>2016-07-12T15:12:13Z</time>
      </trkpt>
      <trkpt lat="41.353933" lon="-4.533700">
        <ele>2077.0</ele>
        <time>2016-07-12T15:12:14Z</time>
      </trkpt>
      <trkpt lat="41.353850" lon="-4.533583">
        <ele>2073.0</ele>
        <time>2016-07-12T15:12:15Z</time>
      </trkpt>
      <trkpt lat="41.353767" lon="-4.533450">
        <ele>2069.0</ele>
        <time>2016-07-12T15:12:16Z</time>
      </trkpt>
      <trkpt lat="41.353667" lon="-4.533333">
        <ele>2066.0</ele>
        <time>2016-07-12T15:12:17Z</time>
      </trkpt>
      <trkpt lat="41.353583" lon="-4.533200">
        <ele>2064.0</ele>
        <time>2016-07-12T15:12:18Z</time>
      </trkpt>
      <trkpt lat="41.353500" lon="-4.533100">
        <ele>2062.0</ele>
        <time>2016-07-12T15:12:19Z</time>
      </trkpt>
      <trkpt lat="41.353417" lon="-4.532983">
        <ele>2059.0</ele>
        <time>2016-07-12T15:12:20Z</time>
      </trkpt>
      <trkpt lat="41.353333" lon="-4.532883">
        <ele>2056.0</ele>
        <time>2016-07-12T15:12:21Z</time>
      </trkpt>
      <trkpt lat="41.353233" lon="-4.532767">
        <ele>2053.0</ele>
        <time>2016-07-12T15:12:22Z</time>
      </trkpt>
      <trkpt lat="41.353150" lon="-4.532650">
        <ele>2050.0</ele>
        <time>2016-07-12T15:12:23Z</time>
      </trkpt>
      <trkpt lat="41.353050" lon="-4.532517">
        <ele>2047.0</ele>
        <time>2016-07-12T15:12:24Z</time>
      </trkpt>
      <trkpt lat="41.352967" lon="-4.532400">
        <ele>2046.0</ele>
        <time>2016-07-12T15:12:25Z</time>
      </trkpt>
      <trkpt lat="41.352883" lon="-4.532283">
        <ele>2044.0</ele>
        <time>2016-07-12T15:12:26Z</time>
      </trkpt>
      <trkpt lat="41.352817" lon="-4.532183">
        <ele>2040.0</ele>
        <time>2016-07-12T15:12:27Z</time>
      </trkpt>
      <trkpt lat="41.352733" lon="-4.532067">
        <ele>2036.0</ele>
        <time>2016-07-12T15:12:28Z</time>
      </trkpt>
      <trkpt lat="41.352633" lon="-4.531950">
        <ele>2032.0</ele>
        <time>2016-07-12T15:12:29Z</time>
      </trkpt>
      <trkpt lat="41.352550" lon="-4.531833">
        <ele>2028.0</ele>
        <time>2016-07-12T15:12:30Z</time>
      </trkpt>
      <trkpt lat="41.352467" lon="-4.531700">
        <ele>2026.0</ele>
        <time>2016-07-12T15:12:31Z</time>
      </trkpt>
      <trkpt lat="41.352383" lon="-4.531583">
        <ele>2024.0</ele>
        <time>2016-07-12T15:12:32Z</time>
      </trkpt>
      <trkpt lat="41.352317" lon="-4.531467">
        <ele>2022.0</ele>
        <time>2016-07-12T15:12:33Z</time>
      </trkpt>
      <trkpt lat="41.352233" lon="-4.531350">
        <ele>2020.0</ele>
        <time>2016-07-12T15:12:34Z</time>
      </trkpt>
      <trkpt lat="41.352167" lon="-4.531233">
        <ele>2016.0</ele>
        <time>2016-07-12T15:12:35Z</time>
      </trkpt>
      <trkpt lat="41.352100" lon="-4.531100">
        <ele>2012.0</ele>
        <time>2016-07-12T15:12:36Z</time>
      </trkpt>
      <trkpt lat="41.352017" lon="-4.530967">
        <ele>2007.0</ele>
        <time>2016-07-12T15:12:37Z</time>
      </trkpt>
      <trkpt lat="41.351950" lon="-4.530833">
        <ele>2004.0</ele>
        <time>2016-07-12T15:12:38Z</time>
      </trkpt>
      <trkpt lat="41.351867" lon="-4.530683">
        <ele>2000.0</ele>
        <time>2016-07-12T15:12:39Z</time>
      </trkpt>
      <trkpt lat="41.351800" lon="-4.530533">
        <ele>1998.0</ele>
        <time>2016-07-12T15:12:40Z</time>
      </trkpt>
      <trkpt lat="41.351733" lon="-4.530383">
        <ele>1996.0</ele>
        <time>2016-07-12T15:12:41Z</time>
      </trkpt>
      <trkpt lat="41.351667" lon="-4.530250">
        <ele>1995.0</ele>
        <time>2016-07-12T15:12:42Z</time>
      </trkpt>
      <trkpt lat="41.351600" lon="-4.530117">
        <ele>1994.0</ele>
        <time>2016-07-12T15:12:43Z</time>
      </trkpt>
      <trkpt lat="41.351533" lon="-4.530000">
        <ele>1993.0</ele>
        <time>2016-07-12T15:12:44Z</time>
      </trkpt>
      <trkpt lat="41.351467" lon="-4.529883">
        <ele>1993.0</ele>
        <time>2016-07-12T15:12:45Z</time>
      </trkpt>
      <trkpt lat="41.351400" lon="-4.529767">
        <ele>1992.0</ele>
        <time>2016-07-12T15:12:46Z</time>
      </trkpt>
      <trkpt lat="41.351333" lon="-4.529633">
        <ele>1991.0</ele>
        <time>2016-07-12T15:12:47Z</time>
      </trkpt>
      <trkpt lat="41.351267" lon="-4.529517">
        <ele>1990.0</ele>
        <time>2016-07-12T15:12:48Z</time>
      </trkpt>
      <trkpt lat="41.351200" lon="-4.529400">
        <ele>1989.0</ele>
        <time>2016-07-12T15:12:49Z</time>
      </trkpt>
      <trkpt lat="41.351150" lon="-4.529283">
        <ele>1987.0</ele>
        <time>2016-07-12T15:12:50Z</time>
      </trkpt>
      <trkpt lat="41.351100" lon="-4.529150">
        <ele>1986.0</ele>
        <time>2016-07-12T15:12:51Z</time>
      </trkpt>
      <trkpt lat="41.351050" lon="-4.529000">
        <ele>1984.0</ele>
        <time>2016-07-12T15:12:52Z</time>
      </trkpt>
      <trkpt lat="41.351000" lon="-4.528867">
        <ele>1982.0</ele>
        <time>2016-07-12T15:12:53Z</time>
      </trkpt>
      <trkpt lat="41.350967" lon="-4.528717">
        <ele>1981.0</ele>
        <time>2016-07-12T15:12:54Z</time>
      </trkpt>
      <trkpt lat="41.350917" lon="-4.528567">
        <ele>1979.0</ele>
        <time>2016-07-12T15:12:55Z</time>
      </trkpt>
      <trkpt lat="41.350850" lon="-4.528417">
        <ele>1978.0</ele>
        <time>2016-07-12T15:12:56Z</time>
      </trkpt>
      <trkpt lat="41.350783" lon="-4.528300">
        <ele>1977.0</ele>
        <time>2016-07-12T15:12:57Z</time>
      </trkpt>
      <trkpt lat="41.350700" lon="-4.528200">
        <ele>1976.0</ele>
        <time>2016-07-12T15:12:58Z</time>
      </trkpt>
      <trkpt lat="41.350600" lon="-4.528100">
        <ele>1974.0</ele>
        <time>2016-07-12T15:12:59Z</time>
      </trkpt>
      <trkpt lat="41.350500" lon="-4.528017">
        <ele>1973.0</ele>
        <time>2016-07-12T15:13:00Z</time>
      </trkpt>
      <trkpt lat="41.350400" lon="-4.527933">
        <ele>1972.0</ele>
        <time>2016-07-12T15:13:01Z</time>
      </trkpt>
      <trkpt lat="41.350317" lon="-4.527833">
        <ele>1972.0</ele>
        <time>2016-07-12T15:13:02Z</time>
      </trkpt>
      <trkpt lat="41.350233" lon="-4.527767">
        <ele>1971.0</ele>
        <time>2016-07-12T15:13:03Z</time>
      </trkpt>
      <trkpt lat="41.350150" lon="-4.527700">
        <ele>1971.0</ele>
        <time>2016-07-12T15:13:04Z</time>
      </trkpt>
      <trkpt lat="41.350067" lon="-4.527617">
        <ele>1969.0</ele>
        <time>2016-07-12T15:13:05Z</time>
      </trkpt>
      <trkpt lat="41.349983" lon="-4.527533">
        <ele>1968.0</ele>
        <time>2016-07-12T15:13:06Z</time>
      </trkpt>
      <trkpt lat="41.349883" lon="-4.527450">
        <ele>1966.0</ele>
        <time>2016-07-12T15:13:07Z</time>
      </trkpt>
      <trkpt lat="41.349800" lon="-4.527367">
        <ele>1965.0</ele>
        <time>2016-07-12T15:13:08Z</time>
      </trkpt>
      <trkpt lat="41.349683" lon="-4.527317">
        <ele>1963.0</ele>
        <time>2016-07-12T15:13:09Z</time>
      </trkpt>
      <trkpt lat="41.349583" lon="-4.527250">
        <ele>1962.0</ele>
        <time>2016-07-12T15:13:10Z</time>
      </trkpt>
      <trkpt lat="41.349500" lon="-4.527167">
        <ele>1960.0</ele>
        <time>2016-07-12T15:13:11Z</time>
      </trkpt>
      <trkpt lat="41.349433" lon="-4.527067">
        <ele>1957.0</ele>
        <time>2016-07-12T15:13:12Z</time>
      </trkpt>
      <trkpt lat="41.349350" lon="-4.526967">
        <ele>1955.0</ele>
        <time>2016-07-12T15:13:13Z</time>
      </trkpt>
      <trkpt lat="41.349267" lon="-4.526867">
        <ele>1953.0</ele>
        <time>2016-07-12T15:13:14Z</time>
      </trkpt>
      <trkpt lat="41.349183" lon="-4.526767">
        <ele>1952.0</ele>
        <time>2016-07-12T15:13:15Z</time>
      </trkpt>
      <trkpt lat="41.349100" lon="-4.526683">
        <ele>1950.0</ele>
        <time>2016-07-12T15:13:16Z</time>
      </trkpt>
      <trkpt lat="41.349017" lon="-4.526567">
        <ele>1949.0</ele>
        <time>2016-07-12T15:13:17Z</time>
      </trkpt>
      <trkpt lat="41.348950" lon="-4.526450">
        <ele>1947.0</ele>
        <time>2016-07-12T15:13:18Z</time>
      </trkpt>
      <trkpt lat="41.348883" lon="-4.526350">
        <ele>1946.0</ele>
        <time>2016-07-12T15:13:19Z</time>
      </trkpt>
      <trkpt lat="41.348800" lon="-4.526233">
        <ele>1944.0</ele>
        <time>2016-07-12T15:13:20Z</time>
      </trkpt>
      <trkpt lat="41.348733" lon="-4.526117">
        <ele>1942.0</ele>
        <time>2016-07-12T15:13:21Z</time>
      </trkpt>
      <trkpt lat="41.348650" lon="-4.526000">
        <ele>1939.0</ele>
        <time>2016-07-12T15:13:22Z</time>
      </trkpt>
      <trkpt lat="41.348600" lon="-4.525867">
        <ele>1937.0</ele>
        <time>2016-07-12T15:13:23Z</time>
      </trkpt>
      <trkpt lat="41.348533" lon="-4.525717">
        <ele>1936.0</ele>
        <time>2016-07-12T15:13:24Z</time>
      </trkpt>
      <trkpt lat="41.348483" lon="-4.525583">
        <ele>1934.0</ele>
        <time>2016-07-12T15:13:25Z</time>
      </trkpt>
      <trkpt lat="41.348433" lon="-4.525450">
        <ele>1933.0</ele>
        <time>2016-07-12T15:13:26Z</time>
      </trkpt>
      <trkpt lat="41.348367" lon="-4.525333">
        <ele>1931.0</ele>
        <time>2016-07-12T15:13:27Z</time>
      </trkpt>
      <trkpt lat="41.348317" lon="-4.525200">
        <ele>1929.0</ele>
        <time>2016-07-12T15:13:28Z</time>
      </trkpt>
      <trkpt lat="41.348250" lon="-4.525067">
        <ele>1927.0</ele>
        <time>2016-07-12T15:13:29Z</time>
      </trkpt>
      <trkpt lat="41.348200" lon="-4.524950">
        <ele>1926.0</ele>
        <time>2016-07-12T15:13:30Z</time>
      </trkpt>
      <trkpt lat="41.348150" lon="-4.524833">
        <ele>1924.0</ele>
        <time>2016-07-12T15:13:31Z</time>
      </trkpt>
      <trkpt lat="41.348083" lon="-4.524700">
        <ele>1922.0</ele>
        <time>2016-07-12T15:13:32Z</time>
      </trkpt>
      <trkpt lat="41.348017" lon="-4.524583">
        <ele>1920.0</ele>
        <time>2016-07-12T15:13:33Z</time>
      </trkpt>
      <trkpt lat="41.347950" lon="-4.524467">
        <ele>1918.0</ele>
        <time>2016-07-12T15:13:34Z</time>
      </trkpt>
      <trkpt lat="41.347883" lon="-4.524333">
        <ele>1917.0</ele>
        <time>2016-07-12T15:13:35Z</time>
      </trkpt>
      <trkpt lat="41.347833" lon="-4.524200">
        <ele>1916.0</ele>
        <time>2016-07-12T15:13:36Z</time>
      </trkpt>
      <trkpt lat="41.347783" lon="-4.524067">
        <ele>1914.0</ele>
        <time>2016-07-12T15:13:37Z</time>
      </trkpt>
      <trkpt lat="41.347733" lon="-4.523950">
        <ele>1913.0</ele>
        <time>2016-07-12T15:13:38Z</time>
      </trkpt>
      <trkpt lat="41.347683" lon="-4.523817">
        <ele>1911.0</ele>
        <time>2016-07-12T15:13:39Z</time>
      </trkpt>
      <trkpt lat="41.347650" lon="-4.523683">
        <ele>1909.0</ele>
        <time>2016-07-12T15:13:40Z</time>
      </trkpt>
      <trkpt lat="41.347600" lon="-4.523550">
        <ele>1907.0</ele>
        <time>2016-07-12T15:13:41Z</time>
      </trkpt>
      <trkpt lat="41.347550" lon="-4.523417">
        <ele>1905.0</ele>
        <time>2016-07-12T15:13:42Z</time>
      </trkpt>
      <trkpt lat="41.347500" lon="-4.523267">
        <ele>1903.0</ele>
        <time>2016-07-12T15:13:43Z</time>
      </trkpt>
      <trkpt lat="41.347450" lon="-4.523133">
        <ele>1901.0</ele>
        <time>2016-07-12T15:13:44Z</time>
      </trkpt>
      <trkpt lat="41.347400" lon="-4.523000">
        <ele>1899.0</ele>
        <time>2016-07-12T15:13:45Z</time>
      </trkpt>
      <trkpt lat="41.347333" lon="-4.522867">
        <ele>1897.0</ele>
        <time>2016-07-12T15:13:46Z</time>
      </trkpt>
      <trkpt lat="41.347283" lon="-4.522733">
        <ele>1895.0</ele>
        <time>2016-07-12T15:13:47Z</time>
      </trkpt>
      <trkpt lat="41.347217" lon="-4.522617">
        <ele>1893.0</ele>
        <time>2016-07-12T15:13:48Z</time>
      </trkpt>
      <trkpt lat="41.347167" lon="-4.522483">
        <ele>1891.0</ele>
        <time>2016-07-12T15:13:49Z</time>
      </trkpt>
      <trkpt lat="41.347100" lon="-4.522350">
        <ele>1889.0</ele>
        <time>2016-07-12T15:13:50Z</time>
      </trkpt>
      <trkpt lat="41.347033" lon="-4.522217">
        <ele>1886.0</ele>
        <time>2016-07-12T15:13:51Z</time>
      </trkpt>
      <trkpt lat="41.346983" lon="-4.522083">
        <ele>1884.0</ele>
        <time>2016-07-12T15:13:52Z</time>
      </trkpt>
      <trkpt lat="41.346933" lon="-4.521950">
        <ele>1881.0</ele>
        <time>2016-07-12T15:13:53Z</time>
      </trkpt>
      <trkpt lat="41.346883" lon="-4.521817">
        <ele>1878.0</ele>
        <time>2016-07-12T15:13:54Z</time>
      </trkpt>
      <trkpt lat="41.346817" lon="-4.521667">
        <ele>1875.0</ele>
        <time>2016-07-12T15:13:55Z</time>
      </trkpt>
      <trkpt lat="41.346750" lon="-4.521517">
        <ele>1872.0</ele>
        <time>2016-07-12T15:13:56Z</time>
      </trkpt>
      <trkpt lat="41.346700" lon="-4.521383">
        <ele>1869.0</ele>
        <time>2016-07-12T15:13:57Z</time>
      </trkpt>
      <trkpt lat="41.346650" lon="-4.521233">
        <ele>1867.0</ele>
        <time>2016-07-12T15:13:58Z</time>
      </trkpt>
      <trkpt lat="41.346600" lon="-4.521083">
        <ele>1863.0</ele>
        <time>2016-07-12T15:13:59Z</time>
      </trkpt>
      <trkpt lat="41.346567" lon="-4.520933">
        <ele>1860.0</ele>
        <time>2016-07-12T15:14:00Z</time>
      </trkpt>
      <trkpt lat="41.346517" lon="-4.520783">
        <ele>1856.0</ele>
        <time>2016-07-12T15:14:01Z</time>
      </trkpt>
      <trkpt lat="41.346450" lon="-4.520617">
        <ele>1852.0</ele>
        <time>2016-07-12T15:14:02Z</time>
      </trkpt>
      <trkpt lat="41.346400" lon="-4.520450">
        <ele>1848.0</ele>
        <time>2016-07-12T15:14:03Z</time>
      </trkpt>
      <trkpt lat="41.346350" lon="-4.520267">
        <ele>1844.0</ele>
        <time>2016-07-12T15:14:04Z</time>
      </trkpt>
      <trkpt lat="41.346300" lon="-4.520100">
        <ele>1841.0</ele>
        <time>2016-07-12T15:14:05Z</time>
      </trkpt>
      <trkpt lat="41.346233" lon="-4.519950">
        <ele>1838.0</ele>
        <time>2016-07-12T15:14:06Z</time>
      </trkpt>
      <trkpt lat="41.346183" lon="-4.519800">
        <ele>1834.0</ele>
        <time>2016-07-12T15:14:07Z</time>
      </trkpt>
      <trkpt lat="41.346117" lon="-4.519667">
        <ele>1830.0</ele>
        <time>2016-07-12T15:14:08Z</time>
      </trkpt>
      <trkpt lat="41.346067" lon="-4.519517">
        <ele>1824.0</ele>
        <time>2016-07-12T15:14:09Z</time>
      </trkpt>
      <trkpt lat="41.346000" lon="-4.519350">
        <ele>1818.0</ele>
        <time>2016-07-12T15:14:10Z</time>
      </trkpt>
      <trkpt lat="41.345917" lon="-4.519167">
        <ele>1812.0</ele>
        <time>2016-07-12T15:14:11Z</time>
      </trkpt>
      <trkpt lat="41.345833" lon="-4.519000">
        <ele>1807.0</ele>
        <time>2016-07-12T15:14:12Z</time>
      </trkpt>
      <trkpt lat="41.345750" lon="-4.518817">
        <ele>1803.0</ele>
        <time>2016-07-12T15:14:13Z</time>
      </trkpt>
      <trkpt lat="41.345667" lon="-4.518667">
        <ele>1799.0</ele>
        <time>2016-07-12T15:14:14Z</time>
      </trkpt>
      <trkpt lat="41.345583" lon="-4.518500">
        <ele>1794.0</ele>
        <time>2016-07-12T15:14:15Z</time>
      </trkpt>
      <trkpt lat="41.345517" lon="-4.518333">
        <ele>1790.0</ele>
        <time>2016-07-12T15:14:16Z</time>
      </trkpt>
      <trkpt lat="41.345433" lon="-4.518183">
        <ele>1785.0</ele>
        <time>2016-07-12T15:14:17Z</time>
      </trkpt>
      <trkpt lat="41.345367" lon="-4.518017">
        <ele>1780.0</ele>
        <time>2016-07-12T15:14:18Z</time>
      </trkpt>
      <trkpt lat="41.345300" lon="-4.517850">
        <ele>1775.0</ele>
        <time>2016-07-12T15:14:19Z</time>
      </trkpt>
      <trkpt lat="41.345233" lon="-4.517700">
        <ele>1771.0</ele>
        <time>2016-07-12T15:14:20Z</time>
      </trkpt>
      <trkpt lat="41.345150" lon="-4.517533">
        <ele>1765.0</ele>
        <time>2016-07-12T15:14:21Z</time>
      </trkpt>
      <trkpt lat="41.345083" lon="-4.517367">
        <ele>1760.0</ele>
        <time>2016-07-12T15:14:22Z</time>
      </trkpt>
      <trkpt lat="41.345017" lon="-4.517183">
        <ele>1755.0</ele>
        <time>2016-07-12T15:14:23Z</time>
      </trkpt>
      <trkpt lat="41.344933" lon="-4.517000">
        <ele>1751.0</ele>
        <time>2016-07-12T15:14:24Z</time>
      </trkpt>
      <trkpt lat="41.344867" lon="-4.516817">
        <ele>1747.0</ele>
        <time>2016-07-12T15:14:25Z</time>
      </trkpt>
      <trkpt lat="41.344783" lon="-4.516650">
        <ele>1743.0</ele>
        <time>2016-07-12T15:14:26Z</time>
      </trkpt>
      <trkpt lat="41.344717" lon="-4.516450">
        <ele>1739.0</ele>
        <time>2016-07-12T15:14:27Z</time>
      </trkpt>
      <trkpt lat="41.344650" lon="-4.516267">
        <ele>1736.0</ele>
        <time>2016-07-12T15:14:28Z</time>
      </trkpt>
      <trkpt lat="41.344583" lon="-4.516083">
        <ele>1732.0</ele>
        <time>2016-07-12T15:14:29Z</time>
      </trkpt>
      <trkpt lat="41.344500" lon="-4.515883">
        <ele>1730.0</ele>
        <time>2016-07-12T15:14:30Z</time>
      </trkpt>
      <trkpt lat="41.344417" lon="-4.515700">
        <ele>1728.0</ele>
        <time>2016-07-12T15:14:31Z</time>
      </trkpt>
      <trkpt lat="41.344350" lon="-4.515500">
        <ele>1727.0</ele>
        <time>2016-07-12T15:14:32Z</time>
      </trkpt>
      <trkpt lat="41.344283" lon="-4.515317">
        <ele>1725.0</ele>
        <time>2016-07-12T15:14:33Z</time>
      </trkpt>
      <trkpt lat="41.344233" lon="-4.515117">
        <ele>1725.0</ele>
        <time>2016-07-12T15:14:34Z</time>
      </trkpt>
      <trkpt lat="41.344167" lon="-4.514933">
        <ele>1723.0</ele>
        <time>2016-07-12T15:14:35Z</time>
      </trkpt>
      <trkpt lat="41.344100" lon="-4.514750">
        <ele>1722.0</ele>
        <time>2016-07-12T15:14:36Z</time>
      </trkpt>
      <trkpt lat="41.344033" lon="-4.514567">
        <ele>1721.0</ele>
        <time>2016-07-12T15:14:37Z</time>
      </trkpt>
      <trkpt lat="41.343983" lon="-4.514383">
        <ele>1719.0</ele>
        <time>2016-07-12T15:14:38Z</time>
      </trkpt>
      <trkpt lat="41.343917" lon="-4.514200">
        <ele>1718.0</ele>
        <time>2016-07-12T15:14:39Z</time>
      </trkpt>
      <trkpt lat="41.343867" lon="-4.514017">
        <ele>1717.0</ele>
        <time>2016-07-12T15:14:40Z</time>
      </trkpt>
      <trkpt lat="41.343800" lon="-4.513850">
        <ele>1718.0</ele>
        <time>2016-07-12T15:14:41Z</time>
      </trkpt>
      <trkpt lat="41.343750" lon="-4.513683">
        <ele>1719.0</ele>
        <time>2016-07-12T15:14:42Z</time>
      </trkpt>
      <trkpt lat="41.343717" lon="-4.513533">
        <ele>1721.0</ele>
        <time>2016-07-12T15:14:43Z</time>
      </trkpt>
      <trkpt lat="41.343667" lon="-4.513383">
        <ele>1722.0</ele>
        <time>2016-07-12T15:14:44Z</time>
      </trkpt>
      <trkpt lat="41.343633" lon="-4.513250">
        <ele>1723.0</ele>
        <time>2016-07-12T15:14:45Z</time>
      </trkpt>
      <trkpt lat="41.343583" lon="-4.513133">
        <ele>1723.0</ele>
        <time>2016-07-12T15:14:46Z</time>
      </trkpt>
      <trkpt lat="41.343550" lon="-4.513000">
        <ele>1723.0</ele>
        <time>2016-07-12T15:14:47Z</time>
      </trkpt>
      <trkpt lat="41.343500" lon="-4.512850">
        <ele>1723.0</ele>
        <time>2016-07-12T15:14:48Z</time>
      </trkpt>
      <trkpt lat="41.343467" lon="-4.512700">
        <ele>1723.0</ele>
        <time>2016-07-12T15:14:49Z</time>
      </trkpt>
      <trkpt lat="41.343433" lon="-4.512567">
        <ele>1722.0</ele>
        <time>2016-07-12T15:14:50Z</time>
      </trkpt>
      <trkpt lat="41.343400" lon="-4.512417">
        <ele>1720.0</ele>
        <time>2016-07-12T15:14:51Z</time>
      </trkpt>
      <trkpt lat="41.343350" lon="-4.512267">
        <ele>1719.0</ele>
        <time>2016-07-12T15:14:52Z</time>
      </trkpt>
      <trkpt lat="41.343300" lon="-4.512100">
        <ele>1717.0</ele>
        <time>2016-07-12T15:14:53Z</time>
      </trkpt>
      <trkpt lat="41.343267" lon="-4.511933">
        <ele>1717.0</ele>
        <time>2016-07-12T15:14:54Z</time>
      </trkpt>
      <trkpt lat="41.343217" lon="-4.511783">
        <ele>1717.0</ele>
        <time>2016-07-12T15:14:55Z</time>
      </trkpt>
      <trkpt lat="41.343167" lon="-4.511633">
        <ele>1718.0</ele>
        <time>2016-07-12T15:14:56Z</time>
      </trkpt>
      <trkpt lat="41.343133" lon="-4.511483">
        <ele>1717.0</ele>
        <time>2016-07-12T15:14:57Z</time>
      </trkpt>
      <trkpt lat="41.343067" lon="-4.511317">
        <ele>1716.0</ele>
        <time>2016-07-12T15:14:58Z</time>
      </trkpt>
      <trkpt lat="41.343017" lon="-4.511167">
        <ele>1715.0</ele>
        <time>2016-07-12T15:14:59Z</time>
      </trkpt>
      <trkpt lat="41.342967" lon="-4.511000">
        <ele>1714.0</ele>
        <time>2016-07-12T15:15:00Z</time>
      </trkpt>
      <trkpt lat="41.342900" lon="-4.510833">
        <ele>1714.0</ele>
        <time>2016-07-12T15:15:01Z</time>
      </trkpt>
      <trkpt lat="41.342850" lon="-4.510683">
        <ele>1713.0</ele>
        <time>2016-07-12T15:15:02Z</time>
      </trkpt>
      <trkpt lat="41.342800" lon="-4.510533">
        <ele>1712.0</ele>
        <time>2016-07-12T15:15:03Z</time>
      </trkpt>
      <trkpt lat="41.342750" lon="-4.510367">
        <ele>1711.0</ele>
        <time>2016-07-12T15:15:04Z</time>
      </trkpt>
      <trkpt lat="41.342700" lon="-4.510200">
        <ele>1709.0</ele>
        <time>2016-07-12T15:15:05Z</time>
      </trkpt>
      <trkpt lat="41.342633" lon="-4.510050">
        <ele>1709.0</ele>
        <time>2016-07-12T15:15:06Z</time>
      </trkpt>
      <trkpt lat="41.342567" lon="-4.509900">
        <ele>1709.0</ele>
        <time>2016-07-12T15:15:07Z</time>
      </trkpt>
      <trkpt lat="41.342517" lon="-4.509750">
        <ele>1710.0</ele>
        <time>2016-07-12T15:15:08Z</time>
      </trkpt>
      <trkpt lat="41.342467" lon="-4.509617">
        <ele>1711.0</ele>
        <time>2016-07-12T15:15:09Z</time>
      </trkpt>
      <trkpt lat="41.342433" lon="-4.509483">
        <ele>1711.0</ele>
        <time>2016-07-12T15:15:10Z</time>
      </trkpt>
      <trkpt lat="41.342400" lon="-4.509350">
        <ele>1710.0</ele>
        <time>2016-07-12T15:15:11Z</time>
      </trkpt>
      <trkpt lat="41.342367" lon="-4.509200">
        <ele>1710.0</ele>
        <time>2016-07-12T15:15:12Z</time>
      </trkpt>
      <trkpt lat="41.342317" lon="-4.509067">
        <ele>1709.0</ele>
        <time>2016-07-12T15:15:13Z</time>
      </trkpt>
      <trkpt lat="41.342267" lon="-4.508933">
        <ele>1709.0</ele>
        <time>2016-07-12T15:15:14Z</time>
      </trkpt>
      <trkpt lat="41.342233" lon="-4.508800">
        <ele>1710.0</ele>
        <time>2016-07-12T15:15:15Z</time>
      </trkpt>
      <trkpt lat="41.342217" lon="-4.508683">
        <ele>1711.0</ele>
        <time>2016-07-12T15:15:16Z</time>
      </trkpt>
      <trkpt lat="41.342200" lon="-4.508567">
        <ele>1712.0</ele>
        <time>2016-07-12T15:15:17Z</time>
      </trkpt>
      <trkpt lat="41.342167" lon="-4.508450">
        <ele>1712.0</ele>
        <time>2016-07-12T15:15:18Z</time>
      </trkpt>
      <trkpt lat="41.342117" lon="-4.508333">
        <ele>1711.0</ele>
        <time>2016-07-12T15:15:19Z</time>
      </trkpt>
      <trkpt lat="41.342067" lon="-4.508200">
        <ele>1711.0</ele>
        <time>2016-07-12T15:15:20Z</time>
      </trkpt>
      <trkpt lat="41.342017" lon="-4.508067">
        <ele>1711.0</ele>
        <time>2016-07-12T15:15:21Z</time>
      </trkpt>
      <trkpt lat="41.341983" lon="-4.507933">
        <ele>1711.0</ele>
        <time>2016-07-12T15:15:22Z</time>
      </trkpt>
      <trkpt lat="41.341950" lon="-4.507800">
        <ele>1712.0</ele>
        <time>2016-07-12T15:15:23Z</time>
      </trkpt>
      <trkpt lat="41.341917" lon="-4.507667">
        <ele>1714.0</ele>
        <time>2016-07-12T15:15:24Z</time>
      </trkpt>
      <trkpt lat="41.341883" lon="-4.507567">
        <ele>1717.0</ele>
        <time>2016-07-12T15:15:25Z</time>
      </trkpt>
      <trkpt lat="41.341850" lon="-4.507450">
        <ele>1719.0</ele>
        <time>2016-07-12T15:15:26Z</time>
      </trkpt>
      <trkpt lat="41.341817" lon="-4.507333">
        <ele>1722.0</ele>
        <time>2016-07-12T15:15:27Z</time>
      </trkpt>
      <trkpt lat="41.341800" lon="-4.507233">
        <ele>1724.0</ele>
        <time>2016-07-12T15:15:28Z</time>
      </trkpt>
      <trkpt lat="41.341767" lon="-4.507117">
        <ele>1726.0</ele>
        <time>2016-07-12T15:15:29Z</time>
      </trkpt>
      <trkpt lat="41.341750" lon="-4.507000">
        <ele>1727.0</ele>
        <time>2016-07-12T15:15:30Z</time>
      </trkpt>
      <trkpt lat="41.341733" lon="-4.506883">
        <ele>1729.0</ele>
        <time>2016-07-12T15:15:31Z</time>
      </trkpt>
      <trkpt lat="41.341717" lon="-4.506767">
        <ele>1730.0</ele>
        <time>2016-07-12T15:15:32Z</time>
      </trkpt>
      <trkpt lat="41.341683" lon="-4.506650">
        <ele>1732.0</ele>
        <time>2016-07-12T15:15:33Z</time>
      </trkpt>
      <trkpt lat="41.341617" lon="-4.506550">
        <ele>1732.0</ele>
        <time>2016-07-12T15:15:34Z</time>
      </trkpt>
      <trkpt lat="41.341550" lon="-4.506467">
        <ele>1733.0</ele>
        <time>2016-07-12T15:15:35Z</time>
      </trkpt>
      <trkpt lat="41.341450" lon="-4.506383">
        <ele>1734.0</ele>
        <time>2016-07-12T15:15:36Z</time>
      </trkpt>
      <trkpt lat="41.341350" lon="-4.506333">
        <ele>1735.0</ele>
        <time>2016-07-12T15:15:37Z</time>
      </trkpt>
      <trkpt lat="41.341250" lon="-4.506333">
        <ele>1737.0</ele>
        <time>2016-07-12T15:15:38Z</time>
      </trkpt>
      <trkpt lat="41.341150" lon="-4.506350">
        <ele>1739.0</ele>
        <time>2016-07-12T15:15:39Z</time>
      </trkpt>
      <trkpt lat="41.341083" lon="-4.506383">
        <ele>1741.0</ele>
        <time>2016-07-12T15:15:40Z</time>
      </trkpt>
      <trkpt lat="41.341000" lon="-4.506417">
        <ele>1743.0</ele>
        <time>2016-07-12T15:15:41Z</time>
      </trkpt>
      <trkpt lat="41.340900" lon="-4.506450">
        <ele>1743.0</ele>
        <time>2016-07-12T15:15:42Z</time>
      </trkpt>
      <trkpt lat="41.340800" lon="-4.506467">
        <ele>1743.0</ele>
        <time>2016-07-12T15:15:43Z</time>
      </trkpt>
      <trkpt lat="41.340700" lon="-4.506483">
        <ele>1744.0</ele>
        <time>2016-07-12T15:15:44Z</time>
      </trkpt>
      <trkpt lat="41.340583" lon="-4.506483">
        <ele>1744.0</ele>
        <time>2016-07-12T15:15:45Z</time>
      </trkpt>
      <trkpt lat="41.340483" lon="-4.506500">
        <ele>1744.0</ele>
        <time>2016-07-12T15:15:46Z</time>
      </trkpt>
      <trkpt lat="41.340383" lon="-4.506550">
        <ele>1744.0</ele>
        <time>2016-07-12T15:15:47Z</time>
      </trkpt>
      <trkpt lat="41.340300" lon="-4.506617">
        <ele>1744.0</ele>
        <time>2016-07-12T15:15:48Z</time>
      </trkpt>
      <trkpt lat="41.340200" lon="-4.506683">
        <ele>1745.0</ele>
        <time>2016-07-12T15:15:49Z</time>
      </trkpt>
      <trkpt lat="41.340100" lon="-4.506767">
        <ele>1748.0</ele>
        <time>2016-07-12T15:15:50Z</time>
      </trkpt>
      <trkpt lat="41.340033" lon="-4.506817">
        <ele>1751.0</ele>
        <time>2016-07-12T15:15:51Z</time>
      </trkpt>
      <trkpt lat="41.339967" lon="-4.506867">
        <ele>1753.0</ele>
        <time>2016-07-12T15:15:52Z</time>
      </trkpt>
      <trkpt lat="41.339900" lon="-4.506933">
        <ele>1753.0</ele>
        <time>2016-07-12T15:15:53Z</time>
      </trkpt>
      <trkpt lat="41.339833" lon="-4.507000">
        <ele>1752.0</ele>
        <time>2016-07-12T15:15:54Z</time>
      </trkpt>
      <trkpt lat="41.339767" lon="-4.507100">
        <ele>1752.0</ele>
        <time>2016-07-12T15:15:55Z</time>
      </trkpt>
      <trkpt lat="41.339717" lon="-4.507200">
        <ele>1753.0</ele>
        <time>2016-07-12T15:15:56Z</time>
      </trkpt>
      <trkpt lat="41.339683" lon="-4.507283">
        <ele>1754.0</ele>
        <time>2016-07-12T15:15:57Z</time>
      </trkpt>
      <trkpt lat="41.339683" lon="-4.507383">
        <ele>1755.0</ele>
        <time>2016-07-12T15:15:58Z</time>
      </trkpt>
      <trkpt lat="41.339683" lon="-4.507467">
        <ele>1756.0</ele>
        <time>2016-07-12T15:15:59Z</time>
      </trkpt>
      <trkpt lat="41.339700" lon="-4.507550">
        <ele>1756.0</ele>
        <time>2016-07-12T15:16:00Z</time>
      </trkpt>
      <trkpt lat="41.339717" lon="-4.507633">
        <ele>1757.0</ele>
        <time>2016-07-12T15:16:01Z</time>
      </trkpt>
      <trkpt lat="41.339733" lon="-4.507717">
        <ele>1757.0</ele>
        <time>2016-07-12T15:16:02Z</time>
      </trkpt>
      <trkpt lat="41.339783" lon="-4.507783">
        <ele>1757.0</ele>
        <time>2016-07-12T15:16:03Z</time>
      </trkpt>
      <trkpt lat="41.339833" lon="-4.507800">
        <ele>1757.0</ele>
        <time>2016-07-12T15:16:04Z</time>
      </trkpt>
      <trkpt lat="41.339900" lon="-4.507817">
        <ele>1756.0</ele>
        <time>2016-07-12T15:16:05Z</time>
      </trkpt>
      <trkpt lat="41.339983" lon="-4.507800">
        <ele>1755.0</ele>
        <time>2016-07-12T15:16:06Z</time>
      </trkpt>
      <trkpt lat="41.340067" lon="-4.507767">
        <ele>1754.0</ele>
        <time>2016-07-12T15:16:07Z</time>
      </trkpt>
      <trkpt lat="41.340167" lon="-4.507733">
        <ele>1754.0</ele>
        <time>2016-07-12T15:16:08Z</time>
      </trkpt>
      <trkpt lat="41.340233" lon="-4.507667">
        <ele>1757.0</ele>
        <time>2016-07-12T15:16:09Z</time>
      </trkpt>
      <trkpt lat="41.340283" lon="-4.507600">
        <ele>1759.0</ele>
        <time>2016-07-12T15:16:10Z</time>
      </trkpt>
      <trkpt lat="41.340333" lon="-4.507517">
        <ele>1761.0</ele>
        <time>2016-07-12T15:16:11Z</time>
      </trkpt>
      <trkpt lat="41.340383" lon="-4.507467">
        <ele>1760.0</ele>
        <time>2016-07-12T15:16:12Z</time>
      </trkpt>
      <trkpt lat="41.340450" lon="-4.507400">
        <ele>1759.0</ele>
        <time>2016-07-12T15:16:13Z</time>
      </trkpt>
      <trkpt lat="41.340500" lon="-4.507350">
        <ele>1759.0</ele>
        <time>2016-07-12T15:16:14Z</time>
      </trkpt>
      <trkpt lat="41.340567" lon="-4.507283">
        <ele>1759.0</ele>
        <time>2016-07-12T15:16:15Z</time>
      </trkpt>
      <trkpt lat="41.340600" lon="-4.507183">
        <ele>1759.0</ele>
        <time>2016-07-12T15:16:16Z</time>
      </trkpt>
      <trkpt lat="41.340650" lon="-4.507100">
        <ele>1758.0</ele>
        <time>2016-07-12T15:16:17Z</time>
      </trkpt>
      <trkpt lat="41.340683" lon="-4.507000">
        <ele>1757.0</ele>
        <time>2016-07-12T15:16:18Z</time>
      </trkpt>
      <trkpt lat="41.340733" lon="-4.506900">
        <ele>1756.0</ele>
        <time>2016-07-12T15:16:19Z</time>
      </trkpt>
      <trkpt lat="41.340783" lon="-4.506800">
        <ele>1755.0</ele>
        <time>2016-07-12T15:16:20Z</time>
      </trkpt>
      <trkpt lat="41.340833" lon="-4.506700">
        <ele>1755.0</ele>
        <time>2016-07-12T15:16:21Z</time>
      </trkpt>
      <trkpt lat="41.340867" lon="-4.506583">
        <ele>1755.0</ele>
        <time>2016-07-12T15:16:22Z</time>
      </trkpt>
      <trkpt lat="41.340900" lon="-4.506467">
        <ele>1756.0</ele>
        <time>2016-07-12T15:16:23Z</time>
      </trkpt>
      <trkpt lat="41.340917" lon="-4.506350">
        <ele>1757.0</ele>
        <time>2016-07-12T15:16:24Z</time>
      </trkpt>
      <trkpt lat="41.340950" lon="-4.506217">
        <ele>1757.0</ele>
        <time>2016-07-12T15:16:25Z</time>
      </trkpt>
      <trkpt lat="41.340983" lon="-4.506083">
        <ele>1759.0</ele>
        <time>2016-07-12T15:16:26Z</time>
      </trkpt>
      <trkpt lat="41.341000" lon="-4.505950">
        <ele>1763.0</ele>
        <time>2016-07-12T15:16:27Z</time>
      </trkpt>
      <trkpt lat="41.341017" lon="-4.505833">
        <ele>1767.0</ele>
        <time>2016-07-12T15:16:28Z</time>
      </trkpt>
      <trkpt lat="41.341033" lon="-4.505733">
        <ele>1769.0</ele>
        <time>2016-07-12T15:16:29Z</time>
      </trkpt>
      <trkpt lat="41.341050" lon="-4.505633">
        <ele>1770.0</ele>
        <time>2016-07-12T15:16:30Z</time>
      </trkpt>
      <trkpt lat="41.341067" lon="-4.505517">
        <ele>1770.0</ele>
        <time>2016-07-12T15:16:31Z</time>
      </trkpt>
      <trkpt lat="41.341067" lon="-4.505367">
        <ele>1771.0</ele>
        <time>2016-07-12T15:16:32Z</time>
      </trkpt>
      <trkpt lat="41.341067" lon="-4.505233">
        <ele>1773.0</ele>
        <time>2016-07-12T15:16:33Z</time>
      </trkpt>
      <trkpt lat="41.341050" lon="-4.505100">
        <ele>1775.0</ele>
        <time>2016-07-12T15:16:34Z</time>
      </trkpt>
      <trkpt lat="41.341033" lon="-4.504967">
        <ele>1777.0</ele>
        <time>2016-07-12T15:16:35Z</time>
      </trkpt>
      <trkpt lat="41.341017" lon="-4.504850">
        <ele>1778.0</ele>
        <time>2016-07-12T15:16:36Z</time>
      </trkpt>
      <trkpt lat="41.341000" lon="-4.504733">
        <ele>1779.0</ele>
        <time>2016-07-12T15:16:37Z</time>
      </trkpt>
      <trkpt lat="41.340983" lon="-4.504583">
        <ele>1778.0</ele>
        <time>2016-07-12T15:16:38Z</time>
      </trkpt>
      <trkpt lat="41.340933" lon="-4.504433">
        <ele>1779.0</ele>
        <time>2016-07-12T15:16:39Z</time>
      </trkpt>
      <trkpt lat="41.340867" lon="-4.504300">
        <ele>1780.0</ele>
        <time>2016-07-12T15:16:40Z</time>
      </trkpt>
      <trkpt lat="41.340800" lon="-4.504183">
        <ele>1781.0</ele>
        <time>2016-07-12T15:16:41Z</time>
      </trkpt>
      <trkpt lat="41.340717" lon="-4.504083">
        <ele>1782.0</ele>
        <time>2016-07-12T15:16:42Z</time>
      </trkpt>
      <trkpt lat="41.340650" lon="-4.503983">
        <ele>1783.0</ele>
        <time>2016-07-12T15:16:43Z</time>
      </trkpt>
      <trkpt lat="41.340567" lon="-4.503883">
        <ele>1783.0</ele>
        <time>2016-07-12T15:16:44Z</time>
      </trkpt>
      <trkpt lat="41.340500" lon="-4.503783">
        <ele>1782.0</ele>
        <time>2016-07-12T15:16:45Z</time>
      </trkpt>
      <trkpt lat="41.340417" lon="-4.503683">
        <ele>1782.0</ele>
        <time>2016-07-12T15:16:46Z</time>
      </trkpt>
      <trkpt lat="41.340300" lon="-4.503600">
        <ele>1782.0</ele>
        <time>2016-07-12T15:16:47Z</time>
      </trkpt>
      <trkpt lat="41.340200" lon="-4.503567">
        <ele>1783.0</ele>
        <time>2016-07-12T15:16:48Z</time>
      </trkpt>
      <trkpt lat="41.340117" lon="-4.503567">
        <ele>1786.0</ele>
        <time>2016-07-12T15:16:49Z</time>
      </trkpt>
      <trkpt lat="41.340050" lon="-4.503567">
        <ele>1788.0</ele>
        <time>2016-07-12T15:16:50Z</time>
      </trkpt>
      <trkpt lat="41.339983" lon="-4.503583">
        <ele>1789.0</ele>
        <time>2016-07-12T15:16:51Z</time>
      </trkpt>
      <trkpt lat="41.339917" lon="-4.503583">
        <ele>1790.0</ele>
        <time>2016-07-12T15:16:52Z</time>
      </trkpt>
      <trkpt lat="41.339833" lon="-4.503617">
        <ele>1790.0</ele>
        <time>2016-07-12T15:16:53Z</time>
      </trkpt>
      <trkpt lat="41.339767" lon="-4.503650">
        <ele>1791.0</ele>
        <time>2016-07-12T15:16:54Z</time>
      </trkpt>
      <trkpt lat="41.339717" lon="-4.503717">
        <ele>1792.0</ele>
        <time>2016-07-12T15:16:55Z</time>
      </trkpt>
      <trkpt lat="41.339683" lon="-4.503800">
        <ele>1793.0</ele>
        <time>2016-07-12T15:16:56Z</time>
      </trkpt>
      <trkpt lat="41.339667" lon="-4.503867">
        <ele>1794.0</ele>
        <time>2016-07-12T15:16:57Z</time>
      </trkpt>
      <trkpt lat="41.339650" lon="-4.503950">
        <ele>1796.0</ele>
        <time>2016-07-12T15:16:58Z</time>
      </trkpt>
      <trkpt lat="41.339633" lon="-4.504017">
        <ele>1797.0</ele>
        <time>2016-07-12T15:16:59Z</time>
      </trkpt>
      <trkpt lat="41.339650" lon="-4.504083">
        <ele>1799.0</ele>
        <time>2016-07-12T15:17:00Z</time>
      </trkpt>
      <trkpt lat="41.339683" lon="-4.504133">
        <ele>1800.0</ele>
        <time>2016-07-12T15:17:01Z</time>
      </trkpt>
      <trkpt lat="41.339717" lon="-4.504167">
        <ele>1801.0</ele>
        <time>2016-07-12T15:17:02Z</time>
      </trkpt>
      <trkpt lat="41.339767" lon="-4.504183">
        <ele>1802.0</ele>
        <time>2016-07-12T15:17:03Z</time>
      </trkpt>
      <trkpt lat="41.339817" lon="-4.504200">
        <ele>1804.0</ele>
        <time>2016-07-12T15:17:04Z</time>
      </trkpt>
      <trkpt lat="41.339867" lon="-4.504183">
        <ele>1807.0</ele>
        <time>2016-07-12T15:17:05Z</time>
      </trkpt>
      <trkpt lat="41.339933" lon="-4.504150">
        <ele>1808.0</ele>
        <time>2016-07-12T15:17:06Z</time>
      </trkpt>
      <trkpt lat="41.339983" lon="-4.504100">
        <ele>1809.0</ele>
        <time>2016-07-12T15:17:07Z</time>
      </trkpt>
      <trkpt lat="41.340033" lon="-4.504017">
        <ele>1810.0</ele>
        <time>2016-07-12T15:17:08Z</time>
      </trkpt>
      <trkpt lat="41.340083" lon="-4.503933">
        <ele>1811.0</ele>
        <time>2016-07-12T15:17:09Z</time>
      </trkpt>
      <trkpt lat="41.340117" lon="-4.503833">
        <ele>1811.0</ele>
        <time>2016-07-12T15:17:10Z</time>
      </trkpt>
      <trkpt lat="41.340150" lon="-4.503700">
        <ele>1813.0</ele>
        <time>2016-07-12T15:17:11Z</time>
      </trkpt>
      <trkpt lat="41.340150" lon="-4.503583">
        <ele>1813.0</ele>
        <time>2016-07-12T15:17:12Z</time>
      </trkpt>
      <trkpt lat="41.340150" lon="-4.503433">
        <ele>1814.0</ele>
        <time>2016-07-12T15:17:13Z</time>
      </trkpt>
      <trkpt lat="41.340117" lon="-4.503283">
        <ele>1813.0</ele>
        <time>2016-07-12T15:17:14Z</time>
      </trkpt>
      <trkpt lat="41.340067" lon="-4.503150">
        <ele>1813.0</ele>
        <time>2016-07-12T15:17:15Z</time>
      </trkpt>
      <trkpt lat="41.339967" lon="-4.503033">
        <ele>1813.0</ele>
        <time>2016-07-12T15:17:16Z</time>
      </trkpt>
      <trkpt lat="41.339867" lon="-4.502967">
        <ele>1812.0</ele>
        <time>2016-07-12T15:17:17Z</time>
      </trkpt>
      <trkpt lat="41.339767" lon="-4.502950">
        <ele>1810.0</ele>
        <time>2016-07-12T15:17:18Z</time>
      </trkpt>
      <trkpt lat="41.339650" lon="-4.502950">
        <ele>1809.0</ele>
        <time>2016-07-12T15:17:19Z</time>
      </trkpt>
      <trkpt lat="41.339550" lon="-4.502967">
        <ele>1809.0</ele>
        <time>2016-07-12T15:17:20Z</time>
      </trkpt>
      <trkpt lat="41.339450" lon="-4.502983">
        <ele>1810.0</ele>
        <time>2016-07-12T15:17:21Z</time>
      </trkpt>
      <trkpt lat="41.339367" lon="-4.503000">
        <ele>1811.0</ele>
        <time>2016-07-12T15:17:22Z</time>
      </trkpt>
      <trkpt lat="41.339283" lon="-4.503033">
        <ele>1812.0</ele>
        <time>2016-07-12T15:17:23Z</time>
      </trkpt>
      <trkpt lat="41.339200" lon="-4.503067">
        <ele>1811.0</ele>
        <time>2016-07-12T15:17:24Z</time>
      </trkpt>
      <trkpt lat="41.339133" lon="-4.503117">
        <ele>1811.0</ele>
        <time>2016-07-12T15:17:25Z</time>
      </trkpt>
      <trkpt lat="41.339067" lon="-4.503183">
        <ele>1812.0</ele>
        <time>2016-07-12T15:17:26Z</time>
      </trkpt>
      <trkpt lat="41.339000" lon="-4.503233">
        <ele>1813.0</ele>
        <time>2016-07-12T15:17:27Z</time>
      </trkpt>
      <trkpt lat="41.338933" lon="-4.503267">
        <ele>1815.0</ele>
        <time>2016-07-12T15:17:28Z</time>
      </trkpt>
      <trkpt lat="41.338867" lon="-4.503300">
        <ele>1817.0</ele>
        <time>2016-07-12T15:17:29Z</time>
      </trkpt>
      <trkpt lat="41.338817" lon="-4.503333">
        <ele>1818.0</ele>
        <time>2016-07-12T15:17:30Z</time>
      </trkpt>
      <trkpt lat="41.338750" lon="-4.503400">
        <ele>1818.0</ele>
        <time>2016-07-12T15:17:31Z</time>
      </trkpt>
      <trkpt lat="41.338683" lon="-4.503467">
        <ele>1819.0</ele>
        <time>2016-07-12T15:17:32Z</time>
      </trkpt>
      <trkpt lat="41.338633" lon="-4.503550">
        <ele>1821.0</ele>
        <time>2016-07-12T15:17:33Z</time>
      </trkpt>
      <trkpt lat="41.338583" lon="-4.503617">
        <ele>1823.0</ele>
        <time>2016-07-12T15:17:34Z</time>
      </trkpt>
      <trkpt lat="41.338533" lon="-4.503683">
        <ele>1825.0</ele>
        <time>2016-07-12T15:17:35Z</time>
      </trkpt>
      <trkpt lat="41.338500" lon="-4.503750">
        <ele>1827.0</ele>
        <time>2016-07-12T15:17:36Z</time>
      </trkpt>
      <trkpt lat="41.338467" lon="-4.503800">
        <ele>1828.0</ele>
        <time>2016-07-12T15:17:37Z</time>
      </trkpt>
      <trkpt lat="41.338417" lon="-4.503850">
        <ele>1829.0</ele>
        <time>2016-07-12T15:17:38Z</time>
      </trkpt>
      <trkpt lat="41.338383" lon="-4.503917">
        <ele>1829.0</ele>
        <time>2016-07-12T15:17:39Z</time>
      </trkpt>
      <trkpt lat="41.338367" lon="-4.504000">
        <ele>1829.0</ele>
        <time>2016-07-12T15:17:40Z</time>
      </trkpt>
      <trkpt lat="41.338333" lon="-4.504067">
        <ele>1828.0</ele>
        <time>2016-07-12T15:17:41Z</time>
      </trkpt>
      <trkpt lat="41.338333" lon="-4.504133">
        <ele>1829.0</ele>
        <time>2016-07-12T15:17:42Z</time>
      </trkpt>
      <trkpt lat="41.338333" lon="-4.504200">
        <ele>1829.0</ele>
        <time>2016-07-12T15:17:43Z</time>
      </trkpt>
      <trkpt lat="41.338350" lon="-4.504250">
        <ele>1829.0</ele>
        <time>2016-07-12T15:17:44Z</time>
      </trkpt>
      <trkpt lat="41.338367" lon="-4.504317">
        <ele>1829.0</ele>
        <time>2016-07-12T15:17:45Z</time>
      </trkpt>
      <trkpt lat="41.338383" lon="-4.504350">
        <ele>1829.0</ele>
        <time>2016-07-12T15:17:46Z</time>
      </trkpt>
      <trkpt lat="41.338433" lon="-4.504383">
        <ele>1829.0</ele>
        <time>2016-07-12T15:17:47Z</time>
      </trkpt>
      <trkpt lat="41.338467" lon="-4.504400">
        <ele>1829.0</ele>
        <time>2016-07-12T15:17:48Z</time>
      </trkpt>
      <trkpt lat="41.338533" lon="-4.504400">
        <ele>1830.0</ele>
        <time>2016-07-12T15:17:49Z</time>
      </trkpt>
      <trkpt lat="41.338583" lon="-4.504400">
        <ele>1830.0</ele>
        <time>2016-07-12T15:17:50Z</time>
      </trkpt>
      <trkpt lat="41.338633" lon="-4.504383">
        <ele>1831.0</ele>
        <time>2016-07-12T15:17:51Z</time>
      </trkpt>
      <trkpt lat="41.338683" lon="-4.504367">
        <ele>1830.0</ele>
        <time>2016-07-12T15:17:52Z</time>
      </trkpt>
      <trkpt lat="41.338750" lon="-4.504350">
        <ele>1829.0</ele>
        <time>2016-07-12T15:17:53Z</time>
      </trkpt>
      <trkpt lat="41.338817" lon="-4.504317">
        <ele>1829.0</ele>
        <time>2016-07-12T15:17:54Z</time>
      </trkpt>
      <trkpt lat="41.338900" lon="-4.504267">
        <ele>1829.0</ele>
        <time>2016-07-12T15:17:55Z</time>
      </trkpt>
      <trkpt lat="41.338950" lon="-4.504200">
        <ele>1829.0</ele>
        <time>2016-07-12T15:17:56Z</time>
      </trkpt>
      <trkpt lat="41.339000" lon="-4.504133">
        <ele>1830.0</ele>
        <time>2016-07-12T15:17:57Z</time>
      </trkpt>
      <trkpt lat="41.339050" lon="-4.504033">
        <ele>1830.0</ele>
        <time>2016-07-12T15:17:58Z</time>
      </trkpt>
      <trkpt lat="41.339083" lon="-4.503950">
        <ele>1829.0</ele>
        <time>2016-07-12T15:17:59Z</time>
      </trkpt>
      <trkpt lat="41.339133" lon="-4.503850">
        <ele>1828.0</ele>
        <time>2016-07-12T15:18:00Z</time>
      </trkpt>
      <trkpt lat="41.339183" lon="-4.503750">
        <ele>1827.0</ele>
        <time>2016-07-12T15:18:01Z</time>
      </trkpt>
      <trkpt lat="41.339217" lon="-4.503617">
        <ele>1826.0</ele>
        <time>2016-07-12T15:18:02Z</time>
      </trkpt>
      <trkpt lat="41.339250" lon="-4.503483">
        <ele>1825.0</ele>
        <time>2016-07-12T15:18:03Z</time>
      </trkpt>
      <trkpt lat="41.339250" lon="-4.503333">
        <ele>1824.0</ele>
        <time>2016-07-12T15:18:04Z</time>
      </trkpt>
      <trkpt lat="41.339233" lon="-4.503167">
        <ele>1822.0</ele>
        <time>2016-07-12T15:18:05Z</time>
      </trkpt>
      <trkpt lat="41.339183" lon="-4.503017">
        <ele>1821.0</ele>
        <time>2016-07-12T15:18:06Z</time>
      </trkpt>
      <trkpt lat="41.339117" lon="-4.502867">
        <ele>1820.0</ele>
        <time>2016-07-12T15:18:07Z</time>
      </trkpt>
      <trkpt lat="41.339033" lon="-4.502750">
        <ele>1820.0</ele>
        <time>2016-07-12T15:18:08Z</time>
      </trkpt>
      <trkpt lat="41.338950" lon="-4.502650">
        <ele>1819.0</ele>
        <time>2016-07-12T15:18:09Z</time>
      </trkpt>
      <trkpt lat="41.338850" lon="-4.502550">
        <ele>1819.0</ele>
        <time>2016-07-12T15:18:10Z</time>
      </trkpt>
      <trkpt lat="41.338750" lon="-4.502467">
        <ele>1819.0</ele>
        <time>2016-07-12T15:18:11Z</time>
      </trkpt>
      <trkpt lat="41.338650" lon="-4.502383">
        <ele>1820.0</ele>
        <time>2016-07-12T15:18:12Z</time>
      </trkpt>
      <trkpt lat="41.338533" lon="-4.502300">
        <ele>1821.0</ele>
        <time>2016-07-12T15:18:13Z</time>
      </trkpt>
      <trkpt lat="41.338433" lon="-4.502233">
        <ele>1822.0</ele>
        <time>2016-07-12T15:18:14Z</time>
      </trkpt>
      <trkpt lat="41.338333" lon="-4.502150">
        <ele>1823.0</ele>
        <time>2016-07-12T15:18:15Z</time>
      </trkpt>
      <trkpt lat="41.338233" lon="-4.502083">
        <ele>1824.0</ele>
        <time>2016-07-12T15:18:16Z</time>
      </trkpt>
      <trkpt lat="41.338133" lon="-4.502017">
        <ele>1824.0</ele>
        <time>2016-07-12T15:18:17Z</time>
      </trkpt>
      <trkpt lat="41.338017" lon="-4.501967">
        <ele>1825.0</ele>
        <time>2016-07-12T15:18:18Z</time>
      </trkpt>
      <trkpt lat="41.337933" lon="-4.501900">
        <ele>1826.0</ele>
        <time>2016-07-12T15:18:19Z</time>
      </trkpt>
      <trkpt lat="41.337833" lon="-4.501867">
        <ele>1827.0</ele>
        <time>2016-07-12T15:18:20Z</time>
      </trkpt>
      <trkpt lat="41.337733" lon="-4.501833">
        <ele>1827.0</ele>
        <time>2016-07-12T15:18:21Z</time>
      </trkpt>
      <trkpt lat="41.337633" lon="-4.501817">
        <ele>1827.0</ele>
        <time>2016-07-12T15:18:22Z</time>
      </trkpt>
      <trkpt lat="41.337533" lon="-4.501800">
        <ele>1827.0</ele>
        <time>2016-07-12T15:18:23Z</time>
      </trkpt>
      <trkpt lat="41.337433" lon="-4.501800">
        <ele>1827.0</ele>
        <time>2016-07-12T15:18:24Z</time>
      </trkpt>
      <trkpt lat="41.337333" lon="-4.501800">
        <ele>1827.0</ele>
        <time>2016-07-12T15:18:25Z</time>
      </trkpt>
      <trkpt lat="41.337250" lon="-4.501817">
        <ele>1827.0</ele>
        <time>2016-07-12T15:18:26Z</time>
      </trkpt>
      <trkpt lat="41.337150" lon="-4.501867">
        <ele>1827.0</ele>
        <time>2016-07-12T15:18:27Z</time>
      </trkpt>
      <trkpt lat="41.337067" lon="-4.501917">
        <ele>1827.0</ele>
        <time>2016-07-12T15:18:28Z</time>
      </trkpt>
      <trkpt lat="41.337000" lon="-4.501967">
        <ele>1828.0</ele>
        <time>2016-07-12T15:18:29Z</time>
      </trkpt>
      <trkpt lat="41.336950" lon="-4.502033">
        <ele>1828.0</ele>
        <time>2016-07-12T15:18:30Z</time>
      </trkpt>
      <trkpt lat="41.336883" lon="-4.502100">
        <ele>1827.0</ele>
        <time>2016-07-12T15:18:31Z</time>
      </trkpt>
      <trkpt lat="41.336833" lon="-4.502167">
        <ele>1826.0</ele>
        <time>2016-07-12T15:18:32Z</time>
      </trkpt>
      <trkpt lat="41.336783" lon="-4.502250">
        <ele>1825.0</ele>
        <time>2016-07-12T15:18:33Z</time>
      </trkpt>
      <trkpt lat="41.336750" lon="-4.502350">
        <ele>1824.0</ele>
        <time>2016-07-12T15:18:34Z</time>
      </trkpt>
      <trkpt lat="41.336717" lon="-4.502450">
        <ele>1824.0</ele>
        <time>2016-07-12T15:18:35Z</time>
      </trkpt>
      <trkpt lat="41.336683" lon="-4.502550">
        <ele>1825.0</ele>
        <time>2016-07-12T15:18:36Z</time>
      </trkpt>
      <trkpt lat="41.336667" lon="-4.502667">
        <ele>1826.0</ele>
        <time>2016-07-12T15:18:37Z</time>
      </trkpt>
      <trkpt lat="41.336650" lon="-4.502750">
        <ele>1827.0</ele>
        <time>2016-07-12T15:18:38Z</time>
      </trkpt>
      <trkpt lat="41.336617" lon="-4.502833">
        <ele>1827.0</ele>
        <time>2016-07-12T15:18:39Z</time>
      </trkpt>
      <trkpt lat="41.336583" lon="-4.502917">
        <ele>1827.0</ele>
        <time>2016-07-12T15:18:40Z</time>
      </trkpt>
      <trkpt lat="41.336567" lon="-4.503033">
        <ele>1826.0</ele>
        <time>2016-07-12T15:18:41Z</time>
      </trkpt>
      <trkpt lat="41.336550" lon="-4.503150">
        <ele>1826.0</ele>
        <time>2016-07-12T15:18:42Z</time>
      </trkpt>
      <trkpt lat="41.336550" lon="-4.503267">
        <ele>1828.0</ele>
        <time>2016-07-12T15:18:43Z</time>
      </trkpt>
      <trkpt lat="41.336533" lon="-4.503367">
        <ele>1829.0</ele>
        <time>2016-07-12T15:18:44Z</time>
      </trkpt>
      <trkpt lat="41.336517" lon="-4.503450">
        <ele>1830.0</ele>
        <time>2016-07-12T15:18:45Z</time>
      </trkpt>
      <trkpt lat="41.336517" lon="-4.503533">
        <ele>1830.0</ele>
        <time>2016-07-12T15:18:46Z</time>
      </trkpt>
      <trkpt lat="41.336500" lon="-4.503617">
        <ele>1829.0</ele>
        <time>2016-07-12T15:18:47Z</time>
      </trkpt>
      <trkpt lat="41.336500" lon="-4.503700">
        <ele>1829.0</ele>
        <time>2016-07-12T15:18:48Z</time>
      </trkpt>
      <trkpt lat="41.336500" lon="-4.503767">
        <ele>1828.0</ele>
        <time>2016-07-12T15:18:49Z</time>
      </trkpt>
      <trkpt lat="41.336500" lon="-4.503833">
        <ele>1827.0</ele>
        <time>2016-07-12T15:18:50Z</time>
      </trkpt>
      <trkpt lat="41.336517" lon="-4.503900">
        <ele>1824.0</ele>
        <time>2016-07-12T15:18:51Z</time>
      </trkpt>
      <trkpt lat="41.336567" lon="-4.503950">
        <ele>1822.0</ele>
        <time>2016-07-12T15:18:52Z</time>
      </trkpt>
      <trkpt lat="41.336617" lon="-4.503983">
        <ele>1820.0</ele>
        <time>2016-07-12T15:18:53Z</time>
      </trkpt>
      <trkpt lat="41.336650" lon="-4.504017">
        <ele>1819.0</ele>
        <time>2016-07-12T15:18:54Z</time>
      </trkpt>
      <trkpt lat="41.336700" lon="-4.504050">
        <ele>1819.0</ele>
        <time>2016-07-12T15:18:55Z</time>
      </trkpt>
      <trkpt lat="41.336750" lon="-4.504067">
        <ele>1818.0</ele>
        <time>2016-07-12T15:18:56Z</time>
      </trkpt>
      <trkpt lat="41.336783" lon="-4.504067">
        <ele>1816.0</ele>
        <time>2016-07-12T15:18:57Z</time>
      </trkpt>
      <trkpt lat="41.336833" lon="-4.504067">
        <ele>1815.0</ele>
        <time>2016-07-12T15:18:58Z</time>
      </trkpt>
      <trkpt lat="41.336883" lon="-4.504050">
        <ele>1812.0</ele>
        <time>2016-07-12T15:18:59Z</time>
      </trkpt>
      <trkpt lat="41.336950" lon="-4.504033">
        <ele>1811.0</ele>
        <time>2016-07-12T15:19:00Z</time>
      </trkpt>
      <trkpt lat="41.337000" lon="-4.504017">
        <ele>1809.0</ele>
        <time>2016-07-12T15:19:01Z</time>
      </trkpt>
      <trkpt lat="41.337067" lon="-4.503983">
        <ele>1808.0</ele>
        <time>2016-07-12T15:19:02Z</time>
      </trkpt>
      <trkpt lat="41.337117" lon="-4.503967">
        <ele>1806.0</ele>
        <time>2016-07-12T15:19:03Z</time>
      </trkpt>
      <trkpt lat="41.337183" lon="-4.503933">
        <ele>1805.0</ele>
        <time>2016-07-12T15:19:04Z</time>
      </trkpt>
      <trkpt lat="41.337250" lon="-4.503900">
        <ele>1804.0</ele>
        <time>2016-07-12T15:19:05Z</time>
      </trkpt>
      <trkpt lat="41.337300" lon="-4.503850">
        <ele>1803.0</ele>
        <time>2016-07-12T15:19:06Z</time>
      </trkpt>
      <trkpt lat="41.337350" lon="-4.503800">
        <ele>1803.0</ele>
        <time>2016-07-12T15:19:07Z</time>
      </trkpt>
      <trkpt lat="41.337400" lon="-4.503750">
        <ele>1802.0</ele>
        <time>2016-07-12T15:19:08Z</time>
      </trkpt>
      <trkpt lat="41.337450" lon="-4.503717">
        <ele>1800.0</ele>
        <time>2016-07-12T15:19:09Z</time>
      </trkpt>
      <trkpt lat="41.337500" lon="-4.503683">
        <ele>1799.0</ele>
        <time>2016-07-12T15:19:10Z</time>
      </trkpt>
      <trkpt lat="41.337550" lon="-4.503617">
        <ele>1797.0</ele>
        <time>2016-07-12T15:19:11Z</time>
      </trkpt>
      <trkpt lat="41.337600" lon="-4.503533">
        <ele>1795.0</ele>
        <time>2016-07-12T15:19:12Z</time>
      </trkpt>
      <trkpt lat="41.337633" lon="-4.503433">
        <ele>1793.0</ele>
        <time>2016-07-12T15:19:13Z</time>
      </trkpt>
      <trkpt lat="41.337683" lon="-4.503350">
        <ele>1791.0</ele>
        <time>2016-07-12T15:19:14Z</time>
      </trkpt>
      <trkpt lat="41.337717" lon="-4.503267">
        <ele>1789.0</ele>
        <time>2016-07-12T15:19:15Z</time>
      </trkpt>
      <trkpt lat="41.337767" lon="-4.503167">
        <ele>1787.0</ele>
        <time>2016-07-12T15:19:16Z</time>
      </trkpt>
      <trkpt lat="41.337800" lon="-4.503083">
        <ele>1785.0</ele>
        <time>2016-07-12T15:19:17Z</time>
      </trkpt>
      <trkpt lat="41.337850" lon="-4.503000">
        <ele>1783.0</ele>
        <time>2016-07-12T15:19:18Z</time>
      </trkpt>
      <trkpt lat="41.337883" lon="-4.502900">
        <ele>1781.0</ele>
        <time>2016-07-12T15:19:19Z</time>
      </trkpt>
      <trkpt lat="41.337917" lon="-4.502783">
        <ele>1779.0</ele>
        <time>2016-07-12T15:19:20Z</time>
      </trkpt>
      <trkpt lat="41.337950" lon="-4.502667">
        <ele>1778.0</ele>
        <time>2016-07-12T15:19:21Z</time>
      </trkpt>
      <trkpt lat="41.337983" lon="-4.502567">
        <ele>1777.0</ele>
        <time>2016-07-12T15:19:22Z</time>
      </trkpt>
      <trkpt lat="41.338017" lon="-4.502483">
        <ele>1776.0</ele>
        <time>2016-07-12T15:19:23Z</time>
      </trkpt>
      <trkpt lat="41.338050" lon="-4.502400">
        <ele>1775.0</ele>
        <time>2016-07-12T15:19:24Z</time>
      </trkpt>
      <trkpt lat="41.338083" lon="-4.502300">
        <ele>1773.0</ele>
        <time>2016-07-12T15:19:25Z</time>
      </trkpt>
      <trkpt lat="41.338100" lon="-4.502200">
        <ele>1771.0</ele>
        <time>2016-07-12T15:19:26Z</time>
      </trkpt>
      <trkpt lat="41.338100" lon="-4.502083">
        <ele>1769.0</ele>
        <time>2016-07-12T15:19:27Z</time>
      </trkpt>
      <trkpt lat="41.338100" lon="-4.501967">
        <ele>1766.0</ele>
        <time>2016-07-12T15:19:28Z</time>
      </trkpt>
      <trkpt lat="41.338100" lon="-4.501833">
        <ele>1763.0</ele>
        <time>2016-07-12T15:19:29Z</time>
      </trkpt>
      <trkpt lat="41.338117" lon="-4.501717">
        <ele>1760.0</ele>
        <time>2016-07-12T15:19:30Z</time>
      </trkpt>
      <trkpt lat="41.338150" lon="-4.501600">
        <ele>1757.0</ele>
        <time>2016-07-12T15:19:31Z</time>
      </trkpt>
      <trkpt lat="41.338183" lon="-4.501483">
        <ele>1755.0</ele>
        <time>2016-07-12T15:19:32Z</time>
      </trkpt>
      <trkpt lat="41.338200" lon="-4.501350">
        <ele>1754.0</ele>
        <time>2016-07-12T15:19:33Z</time>
      </trkpt>
      <trkpt lat="41.338217" lon="-4.501233">
        <ele>1753.0</ele>
        <time>2016-07-12T15:19:34Z</time>
      </trkpt>
      <trkpt lat="41.338233" lon="-4.501100">
        <ele>1752.0</ele>
        <time>2016-07-12T15:19:35Z</time>
      </trkpt>
      <trkpt lat="41.338250" lon="-4.501000">
        <ele>1751.0</ele>
        <time>2016-07-12T15:19:36Z</time>
      </trkpt>
      <trkpt lat="41.338267" lon="-4.500883">
        <ele>1749.0</ele>
        <time>2016-07-12T15:19:37Z</time>
      </trkpt>
      <trkpt lat="41.338300" lon="-4.500750">
        <ele>1747.0</ele>
        <time>2016-07-12T15:19:38Z</time>
      </trkpt>
      <trkpt lat="41.338317" lon="-4.500617">
        <ele>1746.0</ele>
        <time>2016-07-12T15:19:39Z</time>
      </trkpt>
      <trkpt lat="41.338333" lon="-4.500483">
        <ele>1744.0</ele>
        <time>2016-07-12T15:19:40Z</time>
      </trkpt>
      <trkpt lat="41.338317" lon="-4.500367">
        <ele>1742.0</ele>
        <time>2016-07-12T15:19:41Z</time>
      </trkpt>
      <trkpt lat="41.338317" lon="-4.500250">
        <ele>1740.0</ele>
        <time>2016-07-12T15:19:42Z</time>
      </trkpt>
      <trkpt lat="41.338317" lon="-4.500133">
        <ele>1736.0</ele>
        <time>2016-07-12T15:19:43Z</time>
      </trkpt>
      <trkpt lat="41.338317" lon="-4.500017">
        <ele>1733.0</ele>
        <time>2016-07-12T15:19:44Z</time>
      </trkpt>
      <trkpt lat="41.338317" lon="-4.499900">
        <ele>1729.0</ele>
        <time>2016-07-12T15:19:45Z</time>
      </trkpt>
      <trkpt lat="41.338300" lon="-4.499767">
        <ele>1725.0</ele>
        <time>2016-07-12T15:19:46Z</time>
      </trkpt>
      <trkpt lat="41.338283" lon="-4.499633">
        <ele>1721.0</ele>
        <time>2016-07-12T15:19:47Z</time>
      </trkpt>
      <trkpt lat="41.338267" lon="-4.499500">
        <ele>1717.0</ele>
        <time>2016-07-12T15:19:48Z</time>
      </trkpt>
      <trkpt lat="41.338267" lon="-4.499383">
        <ele>1713.0</ele>
        <time>2016-07-12T15:19:49Z</time>
      </trkpt>
      <trkpt lat="41.338250" lon="-4.499250">
        <ele>1709.0</ele>
        <time>2016-07-12T15:19:50Z</time>
      </trkpt>
      <trkpt lat="41.338250" lon="-4.499133">
        <ele>1704.0</ele>
        <time>2016-07-12T15:19:51Z</time>
      </trkpt>
      <trkpt lat="41.338250" lon="-4.499017">
        <ele>1699.0</ele>
        <time>2016-07-12T15:19:52Z</time>
      </trkpt>
      <trkpt lat="41.338250" lon="-4.498883">
        <ele>1693.0</ele>
        <time>2016-07-12T15:19:53Z</time>
      </trkpt>
      <trkpt lat="41.338250" lon="-4.498733">
        <ele>1686.0</ele>
        <time>2016-07-12T15:19:54Z</time>
      </trkpt>
      <trkpt lat="41.338250" lon="-4.498550">
        <ele>1680.0</ele>
        <time>2016-07-12T15:19:55Z</time>
      </trkpt>
      <trkpt lat="41.338250" lon="-4.498383">
        <ele>1676.0</ele>
        <time>2016-07-12T15:19:56Z</time>
      </trkpt>
      <trkpt lat="41.338233" lon="-4.498217">
        <ele>1675.0</ele>
        <time>2016-07-12T15:19:57Z</time>
      </trkpt>
      <trkpt lat="41.338217" lon="-4.498083">
        <ele>1674.0</ele>
        <time>2016-07-12T15:19:58Z</time>
      </trkpt>
      <trkpt lat="41.338200" lon="-4.497967">
        <ele>1671.0</ele>
        <time>2016-07-12T15:19:59Z</time>
      </trkpt>
      <trkpt lat="41.338183" lon="-4.497833">
        <ele>1668.0</ele>
        <time>2016-07-12T15:20:00Z</time>
      </trkpt>
      <trkpt lat="41.338167" lon="-4.497667">
        <ele>1663.0</ele>
        <time>2016-07-12T15:20:01Z</time>
      </trkpt>
      <trkpt lat="41.338150" lon="-4.497483">
        <ele>1659.0</ele>
        <time>2016-07-12T15:20:02Z</time>
      </trkpt>
      <trkpt lat="41.338117" lon="-4.497317">
        <ele>1655.0</ele>
        <time>2016-07-12T15:20:03Z</time>
      </trkpt>
      <trkpt lat="41.338083" lon="-4.497150">
        <ele>1653.0</ele>
        <time>2016-07-12T15:20:04Z</time>
      </trkpt>
      <trkpt lat="41.338050" lon="-4.497000">
        <ele>1651.0</ele>
        <time>2016-07-12T15:20:05Z</time>
      </trkpt>
      <trkpt lat="41.338017" lon="-4.496867">
        <ele>1648.0</ele>
        <time>2016-07-12T15:20:06Z</time>
      </trkpt>
      <trkpt lat="41.337983" lon="-4.496700">
        <ele>1643.0</ele>
        <time>2016-07-12T15:20:07Z</time>
      </trkpt>
      <trkpt lat="41.337950" lon="-4.496533">
        <ele>1637.0</ele>
        <time>2016-07-12T15:20:08Z</time>
      </trkpt>
      <trkpt lat="41.337900" lon="-4.496350">
        <ele>1633.0</ele>
        <time>2016-07-12T15:20:09Z</time>
      </trkpt>
      <trkpt lat="41.337867" lon="-4.496150">
        <ele>1630.0</ele>
        <time>2016-07-12T15:20:10Z</time>
      </trkpt>
      <trkpt lat="41.337817" lon="-4.495983">
        <ele>1628.0</ele>
        <time>2016-07-12T15:20:11Z</time>
      </trkpt>
      <trkpt lat="41.337783" lon="-4.495817">
        <ele>1627.0</ele>
        <time>2016-07-12T15:20:12Z</time>
      </trkpt>
      <trkpt lat="41.337733" lon="-4.495667">
        <ele>1624.0</ele>
        <time>2016-07-12T15:20:13Z</time>
      </trkpt>
      <trkpt lat="41.337683" lon="-4.495500">
        <ele>1622.0</ele>
        <time>2016-07-12T15:20:14Z</time>
      </trkpt>
      <trkpt lat="41.337633" lon="-4.495350">
        <ele>1619.0</ele>
        <time>2016-07-12T15:20:15Z</time>
      </trkpt>
      <trkpt lat="41.337583" lon="-4.495200">
        <ele>1616.0</ele>
        <time>2016-07-12T15:20:16Z</time>
      </trkpt>
      <trkpt lat="41.337533" lon="-4.495050">
        <ele>1613.0</ele>
        <time>2016-07-12T15:20:17Z</time>
      </trkpt>
      <trkpt lat="41.337500" lon="-4.494883">
        <ele>1610.0</ele>
        <time>2016-07-12T15:20:18Z</time>
      </trkpt>
      <trkpt lat="41.337450" lon="-4.494717">
        <ele>1608.0</ele>
        <time>2016-07-12T15:20:19Z</time>
      </trkpt>
      <trkpt lat="41.337400" lon="-4.494550">
        <ele>1606.0</ele>
        <time>2016-07-12T15:20:20Z</time>
      </trkpt>
      <trkpt lat="41.337350" lon="-4.494383">
        <ele>1605.0</ele>
        <time>2016-07-12T15:20:21Z</time>
      </trkpt>
      <trkpt lat="41.337300" lon="-4.494200">
        <ele>1605.0</ele>
        <time>2016-07-12T15:20:22Z</time>
      </trkpt>
      <trkpt lat="41.337250" lon="-4.494050">
        <ele>1606.0</ele>
        <time>2016-07-12T15:20:23Z</time>
      </trkpt>
      <trkpt lat="41.337200" lon="-4.493900">
        <ele>1606.0</ele>
        <time>2016-07-12T15:20:24Z</time>
      </trkpt>
      <trkpt lat="41.337167" lon="-4.493767">
        <ele>1606.0</ele>
        <time>2016-07-12T15:20:25Z</time>
      </trkpt>
      <trkpt lat="41.337133" lon="-4.493650">
        <ele>1606.0</ele>
        <time>2016-07-12T15:20:26Z</time>
      </trkpt>
      <trkpt lat="41.337117" lon="-4.493517">
        <ele>1603.0</ele>
        <time>2016-07-12T15:20:27Z</time>
      </trkpt>
      <trkpt lat="41.337100" lon="-4.493400">
        <ele>1600.0</ele>
        <time>2016-07-12T15:20:28Z</time>
      </trkpt>
      <trkpt lat="41.337083" lon="-4.493267">
        <ele>1596.0</ele>
        <time>2016-07-12T15:20:29Z</time>
      </trkpt>
      <trkpt lat="41.337083" lon="-4.493117">
        <ele>1592.0</ele>
        <time>2016-07-12T15:20:30Z</time>
      </trkpt>
      <trkpt lat="41.337067" lon="-4.492967">
        <ele>1589.0</ele>
        <time>2016-07-12T15:20:31Z</time>
      </trkpt>
      <trkpt lat="41.337033" lon="-4.492800">
        <ele>1586.0</ele>
        <time>2016-07-12T15:20:32Z</time>
      </trkpt>
      <trkpt lat="41.337000" lon="-4.492633">
        <ele>1584.0</ele>
        <time>2016-07-12T15:20:33Z</time>
      </trkpt>
      <trkpt lat="41.336967" lon="-4.492483">
        <ele>1583.0</ele>
        <time>2016-07-12T15:20:34Z</time>
      </trkpt>
      <trkpt lat="41.336917" lon="-4.492333">
        <ele>1582.0</ele>
        <time>2016-07-12T15:20:35Z</time>
      </trkpt>
      <trkpt lat="41.336883" lon="-4.492200">
        <ele>1580.0</ele>
        <time>2016-07-12T15:20:36Z</time>
      </trkpt>
      <trkpt lat="41.336850" lon="-4.492067">
        <ele>1578.0</ele>
        <time>2016-07-12T15:20:37Z</time>
      </trkpt>
      <trkpt lat="41.336817" lon="-4.491917">
        <ele>1575.0</ele>
        <time>2016-07-12T15:20:38Z</time>
      </trkpt>
      <trkpt lat="41.336783" lon="-4.491767">
        <ele>1573.0</ele>
        <time>2016-07-12T15:20:39Z</time>
      </trkpt>
      <trkpt lat="41.336733" lon="-4.491600">
        <ele>1570.0</ele>
        <time>2016-07-12T15:20:40Z</time>
      </trkpt>
      <trkpt lat="41.336700" lon="-4.491450">
        <ele>1568.0</ele>
        <time>2016-07-12T15:20:41Z</time>
      </trkpt>
      <trkpt lat="41.336650" lon="-4.491300">
        <ele>1566.0</ele>
        <time>2016-07-12T15:20:42Z</time>
      </trkpt>
      <trkpt lat="41.336617" lon="-4.491150">
        <ele>1564.0</ele>
        <time>2016-07-12T15:20:43Z</time>
      </trkpt>
      <trkpt lat="41.336583" lon="-4.491017">
        <ele>1562.0</ele>
        <time>2016-07-12T15:20:44Z</time>
      </trkpt>
      <trkpt lat="41.336567" lon="-4.490867">
        <ele>1560.0</ele>
        <time>2016-07-12T15:20:45Z</time>
      </trkpt>
      <trkpt lat="41.336533" lon="-4.490717">
        <ele>1557.0</ele>
        <time>2016-07-12T15:20:46Z</time>
      </trkpt>
      <trkpt lat="41.336517" lon="-4.490583">
        <ele>1555.0</ele>
        <time>2016-07-12T15:20:47Z</time>
      </trkpt>
      <trkpt lat="41.336483" lon="-4.490450">
        <ele>1553.0</ele>
        <time>2016-07-12T15:20:48Z</time>
      </trkpt>
      <trkpt lat="41.336467" lon="-4.490300">
        <ele>1550.0</ele>
        <time>2016-07-12T15:20:49Z</time>
      </trkpt>
      <trkpt lat="41.336450" lon="-4.490150">
        <ele>1547.0</ele>
        <time>2016-07-12T15:20:50Z</time>
      </trkpt>
      <trkpt lat="41.336417" lon="-4.490000">
        <ele>1544.0</ele>
        <time>2016-07-12T15:20:51Z</time>
      </trkpt>
      <trkpt lat="41.336400" lon="-4.489850">
        <ele>1542.0</ele>
        <time>2016-07-12T15:20:52Z</time>
      </trkpt>
      <trkpt lat="41.336367" lon="-4.489700">
        <ele>1541.0</ele>
        <time>2016-07-12T15:20:53Z</time>
      </trkpt>
      <trkpt lat="41.336333" lon="-4.489567">
        <ele>1539.0</ele>
        <time>2016-07-12T15:20:54Z</time>
      </trkpt>
      <trkpt lat="41.336300" lon="-4.489433">
        <ele>1538.0</ele>
        <time>2016-07-12T15:20:55Z</time>
      </trkpt>
      <trkpt lat="41.336267" lon="-4.489317">
        <ele>1537.0</ele>
        <time>2016-07-12T15:20:56Z</time>
      </trkpt>
      <trkpt lat="41.336250" lon="-4.489183">
        <ele>1536.0</ele>
        <time>2016-07-12T15:20:57Z</time>
      </trkpt>
      <trkpt lat="41.336217" lon="-4.489050">
        <ele>1535.0</ele>
        <time>2016-07-12T15:20:58Z</time>
      </trkpt>
      <trkpt lat="41.336217" lon="-4.488917">
        <ele>1534.0</ele>
        <time>2016-07-12T15:20:59Z</time>
      </trkpt>
      <trkpt lat="41.336217" lon="-4.488783">
        <ele>1533.0</ele>
        <time>2016-07-12T15:21:00Z</time>
      </trkpt>
      <trkpt lat="41.336217" lon="-4.488650">
        <ele>1531.0</ele>
        <time>2016-07-12T15:21:01Z</time>
      </trkpt>
      <trkpt lat="41.336233" lon="-4.488517">
        <ele>1530.0</ele>
        <time>2016-07-12T15:21:02Z</time>
      </trkpt>
      <trkpt lat="41.336233" lon="-4.488367">
        <ele>1529.0</ele>
        <time>2016-07-12T15:21:03Z</time>
      </trkpt>
      <trkpt lat="41.336217" lon="-4.488233">
        <ele>1529.0</ele>
        <time>2016-07-12T15:21:04Z</time>
      </trkpt>
      <trkpt lat="41.336233" lon="-4.488100">
        <ele>1529.0</ele>
        <time>2016-07-12T15:21:05Z</time>
      </trkpt>
      <trkpt lat="41.336250" lon="-4.487983">
        <ele>1529.0</ele>
        <time>2016-07-12T15:21:06Z</time>
      </trkpt>
      <trkpt lat="41.336283" lon="-4.487867">
        <ele>1529.0</ele>
        <time>2016-07-12T15:21:07Z</time>
      </trkpt>
      <trkpt lat="41.336317" lon="-4.487750">
        <ele>1530.0</ele>
        <time>2016-07-12T15:21:08Z</time>
      </trkpt>
      <trkpt lat="41.336333" lon="-4.487633">
        <ele>1531.0</ele>
        <time>2016-07-12T15:21:09Z</time>
      </trkpt>
      <trkpt lat="41.336350" lon="-4.487517">
        <ele>1532.0</ele>
        <time>2016-07-12T15:21:10Z</time>
      </trkpt>
      <trkpt lat="41.336367" lon="-4.487433">
        <ele>1534.0</ele>
        <time>2016-07-12T15:21:11Z</time>
      </trkpt>
      <trkpt lat="41.336400" lon="-4.487333">
        <ele>1534.0</ele>
        <time>2016-07-12T15:21:12Z</time>
      </trkpt>
      <trkpt lat="41.336433" lon="-4.487250">
        <ele>1534.0</ele>
        <time>2016-07-12T15:21:13Z</time>
      </trkpt>
      <trkpt lat="41.336483" lon="-4.487167">
        <ele>1534.0</ele>
        <time>2016-07-12T15:21:14Z</time>
      </trkpt>
      <trkpt lat="41.336533" lon="-4.487050">
        <ele>1534.0</ele>
        <time>2016-07-12T15:21:15Z</time>
      </trkpt>
      <trkpt lat="41.336567" lon="-4.486950">
        <ele>1536.0</ele>
        <time>2016-07-12T15:21:16Z</time>
      </trkpt>
      <trkpt lat="41.336600" lon="-4.486867">
        <ele>1539.0</ele>
        <time>2016-07-12T15:21:17Z</time>
      </trkpt>
      <trkpt lat="41.336633" lon="-4.486783">
        <ele>1541.0</ele>
        <time>2016-07-12T15:21:18Z</time>
      </trkpt>
      <trkpt lat="41.336667" lon="-4.486717">
        <ele>1542.0</ele>
        <time>2016-07-12T15:21:19Z</time>
      </trkpt>
      <trkpt lat="41.336717" lon="-4.486650">
        <ele>1542.0</ele>
        <time>2016-07-12T15:21:20Z</time>
      </trkpt>
      <trkpt lat="41.336767" lon="-4.486567">
        <ele>1543.0</ele>
        <time>2016-07-12T15:21:21Z</time>
      </trkpt>
      <trkpt lat="41.336817" lon="-4.486483">
        <ele>1544.0</ele>
        <time>2016-07-12T15:21:22Z</time>
      </trkpt>
      <trkpt lat="41.336850" lon="-4.486417">
        <ele>1545.0</ele>
        <time>2016-07-12T15:21:23Z</time>
      </trkpt>
      <trkpt lat="41.336900" lon="-4.486333">
        <ele>1546.0</ele>
        <time>2016-07-12T15:21:24Z</time>
      </trkpt>
      <trkpt lat="41.336933" lon="-4.486267">
        <ele>1547.0</ele>
        <time>2016-07-12T15:21:25Z</time>
      </trkpt>
      <trkpt lat="41.336983" lon="-4.486183">
        <ele>1547.0</ele>
        <time>2016-07-12T15:21:26Z</time>
      </trkpt>
      <trkpt lat="41.337017" lon="-4.486083">
        <ele>1546.0</ele>
        <time>2016-07-12T15:21:27Z</time>
      </trkpt>
      <trkpt lat="41.337050" lon="-4.485983">
        <ele>1546.0</ele>
        <time>2016-07-12T15:21:28Z</time>
      </trkpt>
      <trkpt lat="41.337083" lon="-4.485883">
        <ele>1546.0</ele>
        <time>2016-07-12T15:21:29Z</time>
      </trkpt>
      <trkpt lat="41.337133" lon="-4.485800">
        <ele>1546.0</ele>
        <time>2016-07-12T15:21:30Z</time>
      </trkpt>
      <trkpt lat="41.337200" lon="-4.485717">
        <ele>1546.0</ele>
        <time>2016-07-12T15:21:31Z</time>
      </trkpt>
      <trkpt lat="41.337250" lon="-4.485667">
        <ele>1546.0</ele>
        <time>2016-07-12T15:21:32Z</time>
      </trkpt>
      <trkpt lat="41.337317" lon="-4.485600">
        <ele>1547.0</ele>
        <time>2016-07-12T15:21:33Z</time>
      </trkpt>
      <trkpt lat="41.337383" lon="-4.485533">
        <ele>1547.0</ele>
        <time>2016-07-12T15:21:34Z</time>
      </trkpt>
      <trkpt lat="41.337450" lon="-4.485483">
        <ele>1547.0</ele>
        <time>2016-07-12T15:21:35Z</time>
      </trkpt>
      <trkpt lat="41.337517" lon="-4.485417">
        <ele>1546.0</ele>
        <time>2016-07-12T15:21:36Z</time>
      </trkpt>
      <trkpt lat="41.337583" lon="-4.485333">
        <ele>1546.0</ele>
        <time>2016-07-12T15:21:37Z</time>
      </trkpt>
      <trkpt lat="41.337617" lon="-4.485233">
        <ele>1546.0</ele>
        <time>2016-07-12T15:21:38Z</time>
      </trkpt>
      <trkpt lat="41.337650" lon="-4.485117">
        <ele>1545.0</ele>
        <time>2016-07-12T15:21:39Z</time>
      </trkpt>
      <trkpt lat="41.337650" lon="-4.485000">
        <ele>1544.0</ele>
        <time>2016-07-12T15:21:40Z</time>
      </trkpt>
      <trkpt lat="41.337650" lon="-4.484867">
        <ele>1543.0</ele>
        <time>2016-07-12T15:21:41Z</time>
      </trkpt>
      <trkpt lat="41.337600" lon="-4.484733">
        <ele>1543.0</ele>
        <time>2016-07-12T15:21:42Z</time>
      </trkpt>
      <trkpt lat="41.337533" lon="-4.484650">
        <ele>1541.0</ele>
        <time>2016-07-12T15:21:43Z</time>
      </trkpt>
      <trkpt lat="41.337433" lon="-4.484600">
        <ele>1539.0</ele>
        <time>2016-07-12T15:21:44Z</time>
      </trkpt>
      <trkpt lat="41.337333" lon="-4.484600">
        <ele>1537.0</ele>
        <time>2016-07-12T15:21:45Z</time>
      </trkpt>
      <trkpt lat="41.337233" lon="-4.484650">
        <ele>1537.0</ele>
        <time>2016-07-12T15:21:46Z</time>
      </trkpt>
      <trkpt lat="41.337167" lon="-4.484733">
        <ele>1537.0</ele>
        <time>2016-07-12T15:21:47Z</time>
      </trkpt>
      <trkpt lat="41.337100" lon="-4.484800">
        <ele>1538.0</ele>
        <time>2016-07-12T15:21:48Z</time>
      </trkpt>
      <trkpt lat="41.337067" lon="-4.484883">
        <ele>1539.0</ele>
        <time>2016-07-12T15:21:49Z</time>
      </trkpt>
      <trkpt lat="41.337033" lon="-4.484967">
        <ele>1539.0</ele>
        <time>2016-07-12T15:21:50Z</time>
      </trkpt>
      <trkpt lat="41.337000" lon="-4.485067">
        <ele>1539.0</ele>
        <time>2016-07-12T15:21:51Z</time>
      </trkpt>
      <trkpt lat="41.336967" lon="-4.485167">
        <ele>1540.0</ele>
        <time>2016-07-12T15:21:52Z</time>
      </trkpt>
      <trkpt lat="41.336933" lon="-4.485267">
        <ele>1542.0</ele>
        <time>2016-07-12T15:21:53Z</time>
      </trkpt>
      <trkpt lat="41.336917" lon="-4.485333">
        <ele>1543.0</ele>
        <time>2016-07-12T15:21:54Z</time>
      </trkpt>
      <trkpt lat="41.336900" lon="-4.485400">
        <ele>1544.0</ele>
        <time>2016-07-12T15:21:55Z</time>
      </trkpt>
      <trkpt lat="41.336883" lon="-4.485467">
        <ele>1545.0</ele>
        <time>2016-07-12T15:21:56Z</time>
      </trkpt>
      <trkpt lat="41.336867" lon="-4.485533">
        <ele>1545.0</ele>
        <time>2016-07-12T15:21:57Z</time>
      </trkpt>
      <trkpt lat="41.336867" lon="-4.485600">
        <ele>1546.0</ele>
        <time>2016-07-12T15:21:58Z</time>
      </trkpt>
      <trkpt lat="41.336867" lon="-4.485683">
        <ele>1548.0</ele>
        <time>2016-07-12T15:21:59Z</time>
      </trkpt>
      <trkpt lat="41.336867" lon="-4.485733">
        <ele>1549.0</ele>
        <time>2016-07-12T15:22:00Z</time>
      </trkpt>
      <trkpt lat="41.336850" lon="-4.485800">
        <ele>1549.0</ele>
        <time>2016-07-12T15:22:01Z</time>
      </trkpt>
      <trkpt lat="41.336850" lon="-4.485867">
        <ele>1549.0</ele>
        <time>2016-07-12T15:22:02Z</time>
      </trkpt>
      <trkpt lat="41.336867" lon="-4.485933">
        <ele>1549.0</ele>
        <time>2016-07-12T15:22:03Z</time>
      </trkpt>
      <trkpt lat="41.336900" lon="-4.486000">
        <ele>1550.0</ele>
        <time>2016-07-12T15:22:04Z</time>
      </trkpt>
      <trkpt lat="41.336933" lon="-4.486050">
        <ele>1552.0</ele>
        <time>2016-07-12T15:22:05Z</time>
      </trkpt>
      <trkpt lat="41.336967" lon="-4.486100">
        <ele>1554.0</ele>
        <time>2016-07-12T15:22:06Z</time>
      </trkpt>
      <trkpt lat="41.336983" lon="-4.486150">
        <ele>1556.0</ele>
        <time>2016-07-12T15:22:07Z</time>
      </trkpt>
      <trkpt lat="41.337000" lon="-4.486200">
        <ele>1556.0</ele>
        <time>2016-07-12T15:22:08Z</time>
      </trkpt>
      <trkpt lat="41.337017" lon="-4.486250">
        <ele>1557.0</ele>
        <time>2016-07-12T15:22:09Z</time>
      </trkpt>
      <trkpt lat="41.337050" lon="-4.486300">
        <ele>1558.0</ele>
        <time>2016-07-12T15:22:10Z</time>
      </trkpt>
      <trkpt lat="41.337100" lon="-4.486317">
        <ele>1558.0</ele>
        <time>2016-07-12T15:22:11Z</time>
      </trkpt>
      <trkpt lat="41.337167" lon="-4.486317">
        <ele>1559.0</ele>
        <time>2016-07-12T15:22:12Z</time>
      </trkpt>
      <trkpt lat="41.337217" lon="-4.486283">
        <ele>1559.0</ele>
        <time>2016-07-12T15:22:13Z</time>
      </trkpt>
      <trkpt lat="41.337283" lon="-4.486250">
        <ele>1560.0</ele>
        <time>2016-07-12T15:22:14Z</time>
      </trkpt>
      <trkpt lat="41.337350" lon="-4.486200">
        <ele>1561.0</ele>
        <time>2016-07-12T15:22:15Z</time>
      </trkpt>
      <trkpt lat="41.337417" lon="-4.486150">
        <ele>1563.0</ele>
        <time>2016-07-12T15:22:16Z</time>
      </trkpt>
      <trkpt lat="41.337483" lon="-4.486100">
        <ele>1565.0</ele>
        <time>2016-07-12T15:22:17Z</time>
      </trkpt>
      <trkpt lat="41.337550" lon="-4.486033">
        <ele>1567.0</ele>
        <time>2016-07-12T15:22:18Z</time>
      </trkpt>
      <trkpt lat="41.337617" lon="-4.485983">
        <ele>1569.0</ele>
        <time>2016-07-12T15:22:19Z</time>
      </trkpt>
      <trkpt lat="41.337667" lon="-4.485917">
        <ele>1571.0</ele>
        <time>2016-07-12T15:22:20Z</time>
      </trkpt>
      <trkpt lat="41.337717" lon="-4.485833">
        <ele>1572.0</ele>
        <time>2016-07-12T15:22:21Z</time>
      </trkpt>
      <trkpt lat="41.337750" lon="-4.485733">
        <ele>1573.0</ele>
        <time>2016-07-12T15:22:22Z</time>
      </trkpt>
      <trkpt lat="41.337767" lon="-4.485600">
        <ele>1574.0</ele>
        <time>2016-07-12T15:22:23Z</time>
      </trkpt>
      <trkpt lat="41.337750" lon="-4.485483">
        <ele>1575.0</ele>
        <time>2016-07-12T15:22:24Z</time>
      </trkpt>
      <trkpt lat="41.337700" lon="-4.485350">
        <ele>1576.0</ele>
        <time>2016-07-12T15:22:25Z</time>
      </trkpt>
      <trkpt lat="41.337633" lon="-4.485250">
        <ele>1577.0</ele>
        <time>2016-07-12T15:22:26Z</time>
      </trkpt>
      <trkpt lat="41.337533" lon="-4.485167">
        <ele>1578.0</ele>
        <time>2016-07-12T15:22:27Z</time>
      </trkpt>
      <trkpt lat="41.337450" lon="-4.485117">
        <ele>1579.0</ele>
        <time>2016-07-12T15:22:28Z</time>
      </trkpt>
      <trkpt lat="41.337350" lon="-4.485117">
        <ele>1580.0</ele>
        <time>2016-07-12T15:22:29Z</time>
      </trkpt>
      <trkpt lat="41.337267" lon="-4.485133">
        <ele>1581.0</ele>
        <time>2016-07-12T15:22:30Z</time>
      </trkpt>
      <trkpt lat="41.337200" lon="-4.485167">
        <ele>1581.0</ele>
        <time>2016-07-12T15:22:31Z</time>
      </trkpt>
      <trkpt lat="41.337133" lon="-4.485233">
        <ele>1581.0</ele>
        <time>2016-07-12T15:22:32Z</time>
      </trkpt>
      <trkpt lat="41.337083" lon="-4.485317">
        <ele>1583.0</ele>
        <time>2016-07-12T15:22:33Z</time>
      </trkpt>
      <trkpt lat="41.337050" lon="-4.485400">
        <ele>1586.0</ele>
        <time>2016-07-12T15:22:34Z</time>
      </trkpt>
      <trkpt lat="41.337050" lon="-4.485467">
        <ele>1590.0</ele>
        <time>2016-07-12T15:22:35Z</time>
      </trkpt>
      <trkpt lat="41.337050" lon="-4.485517">
        <ele>1592.0</ele>
        <time>2016-07-12T15:22:36Z</time>
      </trkpt>
      <trkpt lat="41.337050" lon="-4.485567">
        <ele>1594.0</ele>
        <time>2016-07-12T15:22:37Z</time>
      </trkpt>
      <trkpt lat="41.337033" lon="-4.485600">
        <ele>1594.0</ele>
        <time>2016-07-12T15:22:38Z</time>
      </trkpt>
      <trkpt lat="41.337050" lon="-4.485650">
        <ele>1594.0</ele>
        <time>2016-07-12T15:22:39Z</time>
      </trkpt>
      <trkpt lat="41.337083" lon="-4.485700">
        <ele>1593.0</ele>
        <time>2016-07-12T15:22:40Z</time>
      </trkpt>
      <trkpt lat="41.337150" lon="-4.485733">
        <ele>1593.0</ele>
        <time>2016-07-12T15:22:41Z</time>
      </trkpt>
      <trkpt lat="41.337200" lon="-4.485750">
        <ele>1594.0</ele>
        <time>2016-07-12T15:22:42Z</time>
      </trkpt>
      <trkpt lat="41.337267" lon="-4.485750">
        <ele>1596.0</ele>
        <time>2016-07-12T15:22:43Z</time>
      </trkpt>
      <trkpt lat="41.337333" lon="-4.485750">
        <ele>1598.0</ele>
        <time>2016-07-12T15:22:44Z</time>
      </trkpt>
      <trkpt lat="41.337383" lon="-4.485750">
        <ele>1599.0</ele>
        <time>2016-07-12T15:22:45Z</time>
      </trkpt>
      <trkpt lat="41.337433" lon="-4.485733">
        <ele>1599.0</ele>
        <time>2016-07-12T15:22:46Z</time>
      </trkpt>
      <trkpt lat="41.337500" lon="-4.485700">
        <ele>1599.0</ele>
        <time>2016-07-12T15:22:47Z</time>
      </trkpt>
      <trkpt lat="41.337567" lon="-4.485617">
        <ele>1600.0</ele>
        <time>2016-07-12T15:22:48Z</time>
      </trkpt>
      <trkpt lat="41.337617" lon="-4.485533">
        <ele>1601.0</ele>
        <time>2016-07-12T15:22:49Z</time>
      </trkpt>
      <trkpt lat="41.337650" lon="-4.485417">
        <ele>1602.0</ele>
        <time>2016-07-12T15:22:50Z</time>
      </trkpt>
      <trkpt lat="41.337683" lon="-4.485300">
        <ele>1603.0</ele>
        <time>2016-07-12T15:22:51Z</time>
      </trkpt>
      <trkpt lat="41.337700" lon="-4.485167">
        <ele>1603.0</ele>
        <time>2016-07-12T15:22:52Z</time>
      </trkpt>
      <trkpt lat="41.337683" lon="-4.485033">
        <ele>1603.0</ele>
        <time>2016-07-12T15:22:53Z</time>
      </trkpt>
      <trkpt lat="41.337667" lon="-4.484900">
        <ele>1603.0</ele>
        <time>2016-07-12T15:22:54Z</time>
      </trkpt>
      <trkpt lat="41.337617" lon="-4.484767">
        <ele>1602.0</ele>
        <time>2016-07-12T15:22:55Z</time>
      </trkpt>
      <trkpt lat="41.337533" lon="-4.484667">
        <ele>1601.0</ele>
        <time>2016-07-12T15:22:56Z</time>
      </trkpt>
      <trkpt lat="41.337450" lon="-4.484567">
        <ele>1600.0</ele>
        <time>2016-07-12T15:22:57Z</time>
      </trkpt>
      <trkpt lat="41.337350" lon="-4.484500">
        <ele>1600.0</ele>
        <time>2016-07-12T15:22:58Z</time>
      </trkpt>
      <trkpt lat="41.337250" lon="-4.484467">
        <ele>1600.0</ele>
        <time>2016-07-12T15:22:59Z</time>
      </trkpt>
      <trkpt lat="41.337167" lon="-4.484467">
        <ele>1600.0</ele>
        <time>2016-07-12T15:23:00Z</time>
      </trkpt>
      <trkpt lat="41.337083" lon="-4.484500">
        <ele>1601.0</ele>
        <time>2016-07-12T15:23:01Z</time>
      </trkpt>
      <trkpt lat="41.337000" lon="-4.484517">
        <ele>1601.0</ele>
        <time>2016-07-12T15:23:02Z</time>
      </trkpt>
      <trkpt lat="41.336900" lon="-4.484533">
        <ele>1601.0</ele>
        <time>2016-07-12T15:23:03Z</time>
      </trkpt>
      <trkpt lat="41.336833" lon="-4.484583">
        <ele>1602.0</ele>
        <time>2016-07-12T15:23:04Z</time>
      </trkpt>
      <trkpt lat="41.336783" lon="-4.484633">
        <ele>1603.0</ele>
        <time>2016-07-12T15:23:05Z</time>
      </trkpt>
      <trkpt lat="41.336733" lon="-4.484700">
        <ele>1603.0</ele>
        <time>2016-07-12T15:23:06Z</time>
      </trkpt>
      <trkpt lat="41.336700" lon="-4.484767">
        <ele>1603.0</ele>
        <time>2016-07-12T15:23:07Z</time>
      </trkpt>
      <trkpt lat="41.336650" lon="-4.484817">
        <ele>1604.0</ele>
        <time>2016-07-12T15:23:08Z</time>
      </trkpt>
      <trkpt lat="41.336600" lon="-4.484867">
        <ele>1603.0</ele>
        <time>2016-07-12T15:23:09Z</time>
      </trkpt>
      <trkpt lat="41.336550" lon="-4.484933">
        <ele>1602.0</ele>
        <time>2016-07-12T15:23:10Z</time>
      </trkpt>
      <trkpt lat="41.336517" lon="-4.485000">
        <ele>1601.0</ele>
        <time>2016-07-12T15:23:11Z</time>
      </trkpt>
      <trkpt lat="41.336483" lon="-4.485083">
        <ele>1600.0</ele>
        <time>2016-07-12T15:23:12Z</time>
      </trkpt>
      <trkpt lat="41.336483" lon="-4.485150">
        <ele>1601.0</ele>
        <time>2016-07-12T15:23:13Z</time>
      </trkpt>
      <trkpt lat="41.336467" lon="-4.485233">
        <ele>1602.0</ele>
        <time>2016-07-12T15:23:14Z</time>
      </trkpt>
      <trkpt lat="41.336450" lon="-4.485300">
        <ele>1603.0</ele>
        <time>2016-07-12T15:23:15Z</time>
      </trkpt>
      <trkpt lat="41.336433" lon="-4.485367">
        <ele>1604.0</ele>
        <time>2016-07-12T15:23:16Z</time>
      </trkpt>
      <trkpt lat="41.336417" lon="-4.485433">
        <ele>1604.0</ele>
        <time>2016-07-12T15:23:17Z</time>
      </trkpt>
      <trkpt lat="41.336400" lon="-4.485500">
        <ele>1604.0</ele>
        <time>2016-07-12T15:23:18Z</time>
      </trkpt>
      <trkpt lat="41.336400" lon="-4.485567">
        <ele>1605.0</ele>
        <time>2016-07-12T15:23:19Z</time>
      </trkpt>
      <trkpt lat="41.336417" lon="-4.485650">
        <ele>1606.0</ele>
        <time>2016-07-12T15:23:20Z</time>
      </trkpt>
      <trkpt lat="41.336433" lon="-4.485717">
        <ele>1608.0</ele>
        <time>2016-07-12T15:23:21Z</time>
      </trkpt>
      <trkpt lat="41.336450" lon="-4.485783">
        <ele>1611.0</ele>
        <time>2016-07-12T15:23:22Z</time>
      </trkpt>
      <trkpt lat="41.336467" lon="-4.485850">
        <ele>1614.0</ele>
        <time>2016-07-12T15:23:23Z</time>
      </trkpt>
      <trkpt lat="41.336500" lon="-4.485917">
        <ele>1616.0</ele>
        <time>2016-07-12T15:23:24Z</time>
      </trkpt>
      <trkpt lat="41.336533" lon="-4.485983">
        <ele>1618.0</ele>
        <time>2016-07-12T15:23:25Z</time>
      </trkpt>
      <trkpt lat="41.336550" lon="-4.486067">
        <ele>1620.0</ele>
        <time>2016-07-12T15:23:26Z</time>
      </trkpt>
      <trkpt lat="41.336583" lon="-4.486167">
        <ele>1623.0</ele>
        <time>2016-07-12T15:23:27Z</time>
      </trkpt>
      <trkpt lat="41.336600" lon="-4.486233">
        <ele>1626.0</ele>
        <time>2016-07-12T15:23:28Z</time>
      </trkpt>
      <trkpt lat="41.336617" lon="-4.486283">
        <ele>1628.0</ele>
        <time>2016-07-12T15:23:29Z</time>
      </trkpt>
      <trkpt lat="41.336650" lon="-4.486333">
        <ele>1629.0</ele>
        <time>2016-07-12T15:23:30Z</time>
      </trkpt>
      <trkpt lat="41.336683" lon="-4.486383">
        <ele>1629.0</ele>
        <time>2016-07-12T15:23:31Z</time>
      </trkpt>
      <trkpt lat="41.336717" lon="-4.486433">
        <ele>1630.0</ele>
        <time>2016-07-12T15:23:32Z</time>
      </trkpt>
      <trkpt lat="41.336733" lon="-4.486483">
        <ele>1630.0</ele>
        <time>2016-07-12T15:23:33Z</time>
      </trkpt>
      <trkpt lat="41.336767" lon="-4.486533">
        <ele>1630.0</ele>
        <time>2016-07-12T15:23:34Z</time>
      </trkpt>
      <trkpt lat="41.336817" lon="-4.486567">
        <ele>1631.0</ele>
        <time>2016-07-12T15:23:35Z</time>
      </trkpt>
      <trkpt lat="41.336867" lon="-4.486567">
        <ele>1630.0</ele>
        <time>2016-07-12T15:23:36Z</time>
      </trkpt>
      <trkpt lat="41.336933" lon="-4.486533">
        <ele>1629.0</ele>
        <time>2016-07-12T15:23:37Z</time>
      </trkpt>
      <trkpt lat="41.337000" lon="-4.486483">
        <ele>1628.0</ele>
        <time>2016-07-12T15:23:38Z</time>
      </trkpt>
      <trkpt lat="41.337067" lon="-4.486433">
        <ele>1627.0</ele>
        <time>2016-07-12T15:23:39Z</time>
      </trkpt>
      <trkpt lat="41.337133" lon="-4.486350">
        <ele>1626.0</ele>
        <time>2016-07-12T15:23:40Z</time>
      </trkpt>
      <trkpt lat="41.337183" lon="-4.486233">
        <ele>1625.0</ele>
        <time>2016-07-12T15:23:41Z</time>
      </trkpt>
      <trkpt lat="41.337250" lon="-4.486117">
        <ele>1625.0</ele>
        <time>2016-07-12T15:23:42Z</time>
      </trkpt>
      <trkpt lat="41.337283" lon="-4.485967">
        <ele>1625.0</ele>
        <time>2016-07-12T15:23:43Z</time>
      </trkpt>
      <trkpt lat="41.337283" lon="-4.485817">
        <ele>1625.0</ele>
        <time>2016-07-12T15:23:44Z</time>
      </trkpt>
      <trkpt lat="41.337267" lon="-4.485650">
        <ele>1624.0</ele>
        <time>2016-07-12T15:23:45Z</time>
      </trkpt>
      <trkpt lat="41.337233" lon="-4.485500">
        <ele>1624.0</ele>
        <time>2016-07-12T15:23:46Z</time>
      </trkpt>
      <trkpt lat="41.337183" lon="-4.485350">
        <ele>1624.0</ele>
        <time>2016-07-12T15:23:47Z</time>
      </trkpt>
      <trkpt lat="41.337117" lon="-4.485217">
        <ele>1624.0</ele>
        <time>2016-07-12T15:23:48Z</time>
      </trkpt>
      <trkpt lat="41.337050" lon="-4.485100">
        <ele>1624.0</ele>
        <time>2016-07-12T15:23:49Z</time>
      </trkpt>
      <trkpt lat="41.336967" lon="-4.485000">
        <ele>1625.0</ele>
        <time>2016-07-12T15:23:50Z</time>
      </trkpt>
      <trkpt lat="41.336883" lon="-4.484900">
        <ele>1625.0</ele>
        <time>2016-07-12T15:23:51Z</time>
      </trkpt>
      <trkpt lat="41.336783" lon="-4.484817">
        <ele>1626.0</ele>
        <time>2016-07-12T15:23:52Z</time>
      </trkpt>
      <trkpt lat="41.336683" lon="-4.484733">
        <ele>1627.0</ele>
        <time>2016-07-12T15:23:53Z</time>
      </trkpt>
      <trkpt lat="41.336583" lon="-4.484683">
        <ele>1628.0</ele>
        <time>2016-07-12T15:23:54Z</time>
      </trkpt>
      <trkpt lat="41.336483" lon="-4.484650">
        <ele>1629.0</ele>
        <time>2016-07-12T15:23:55Z</time>
      </trkpt>
      <trkpt lat="41.336383" lon="-4.484617">
        <ele>1629.0</ele>
        <time>2016-07-12T15:23:56Z</time>
      </trkpt>
      <trkpt lat="41.336283" lon="-4.484600">
        <ele>1629.0</ele>
        <time>2016-07-12T15:23:57Z</time>
      </trkpt>
      <trkpt lat="41.336183" lon="-4.484600">
        <ele>1629.0</ele>
        <time>2016-07-12T15:23:58Z</time>
      </trkpt>
      <trkpt lat="41.336083" lon="-4.484617">
        <ele>1630.0</ele>
        <time>2016-07-12T15:23:59Z</time>
      </trkpt>
      <trkpt lat="41.335983" lon="-4.484633">
        <ele>1631.0</ele>
        <time>2016-07-12T15:24:00Z</time>
      </trkpt>
      <trkpt lat="41.335900" lon="-4.484650">
        <ele>1633.0</ele>
        <time>2016-07-12T15:24:01Z</time>
      </trkpt>
      <trkpt lat="41.335817" lon="-4.484683">
        <ele>1634.0</ele>
        <time>2016-07-12T15:24:02Z</time>
      </trkpt>
      <trkpt lat="41.335733" lon="-4.484717">
        <ele>1635.0</ele>
        <time>2016-07-12T15:24:03Z</time>
      </trkpt>
      <trkpt lat="41.335650" lon="-4.484750">
        <ele>1635.0</ele>
        <time>2016-07-12T15:24:04Z</time>
      </trkpt>
      <trkpt lat="41.335567" lon="-4.484800">
        <ele>1635.0</ele>
        <time>2016-07-12T15:24:05Z</time>
      </trkpt>
      <trkpt lat="41.335483" lon="-4.484850">
        <ele>1636.0</ele>
        <time>2016-07-12T15:24:06Z</time>
      </trkpt>
      <trkpt lat="41.335400" lon="-4.484917">
        <ele>1637.0</ele>
        <time>2016-07-12T15:24:07Z</time>
      </trkpt>
      <trkpt lat="41.335333" lon="-4.484967">
        <ele>1638.0</ele>
        <time>2016-07-12T15:24:08Z</time>
      </trkpt>
      <trkpt lat="41.335267" lon="-4.485033">
        <ele>1640.0</ele>
        <time>2016-07-12T15:24:09Z</time>
      </trkpt>
      <trkpt lat="41.335200" lon="-4.485083">
        <ele>1640.0</ele>
        <time>2016-07-12T15:24:10Z</time>
      </trkpt>
      <trkpt lat="41.335133" lon="-4.485150">
        <ele>1641.0</ele>
        <time>2016-07-12T15:24:11Z</time>
      </trkpt>
      <trkpt lat="41.335083" lon="-4.485200">
        <ele>1641.0</ele>
        <time>2016-07-12T15:24:12Z</time>
      </trkpt>
      <trkpt lat="41.335017" lon="-4.485283">
        <ele>1640.0</ele>
        <time>2016-07-12T15:24:13Z</time>
      </trkpt>
      <trkpt lat="41.334967" lon="-4.485367">
        <ele>1640.0</ele>
        <time>2016-07-12T15:24:14Z</time>
      </trkpt>
      <trkpt lat="41.334900" lon="-4.485433">
        <ele>1640.0</ele>
        <time>2016-07-12T15:24:15Z</time>
      </trkpt>
      <trkpt lat="41.334833" lon="-4.485517">
        <ele>1639.0</ele>
        <time>2016-07-12T15:24:16Z</time>
      </trkpt>
      <trkpt lat="41.334767" lon="-4.485600">
        <ele>1638.0</ele>
        <time>2016-07-12T15:24:17Z</time>
      </trkpt>
      <trkpt lat="41.334683" lon="-4.485667">
        <ele>1638.0</ele>
        <time>2016-07-12T15:24:18Z</time>
      </trkpt>
      <trkpt lat="41.334600" lon="-4.485733">
        <ele>1638.0</ele>
        <time>2016-07-12T15:24:19Z</time>
      </trkpt>
      <trkpt lat="41.334533" lon="-4.485800">
        <ele>1639.0</ele>
        <time>2016-07-12T15:24:20Z</time>
      </trkpt>
      <trkpt lat="41.334467" lon="-4.485867">
        <ele>1640.0</ele>
        <time>2016-07-12T15:24:21Z</time>
      </trkpt>
      <trkpt lat="41.334417" lon="-4.485917">
        <ele>1641.0</ele>
        <time>2016-07-12T15:24:22Z</time>
      </trkpt>
      <trkpt lat="41.334350" lon="-4.485983">
        <ele>1640.0</ele>
        <time>2016-07-12T15:24:23Z</time>
      </trkpt>
      <trkpt lat="41.334300" lon="-4.486050">
        <ele>1639.0</ele>
        <time>2016-07-12T15:24:24Z</time>
      </trkpt>
      <trkpt lat="41.334250" lon="-4.486100">
        <ele>1638.0</ele>
        <time>2016-07-12T15:24:25Z</time>
      </trkpt>
      <trkpt lat="41.334200" lon="-4.486183">
        <ele>1636.0</ele>
        <time>2016-07-12T15:24:26Z</time>
      </trkpt>
      <trkpt lat="41.334167" lon="-4.486283">
        <ele>1635.0</ele>
        <time>2016-07-12T15:24:27Z</time>
      </trkpt>
      <trkpt lat="41.334117" lon="-4.486367">
        <ele>1635.0</ele>
        <time>2016-07-12T15:24:28Z</time>
      </trkpt>
      <trkpt lat="41.334067" lon="-4.486467">
        <ele>1634.0</ele>
        <time>2016-07-12T15:24:29Z</time>
      </trkpt>
      <trkpt lat="41.334033" lon="-4.486550">
        <ele>1633.0</ele>
        <time>2016-07-12T15:24:30Z</time>
      </trkpt>
      <trkpt lat="41.334000" lon="-4.486650">
        <ele>1633.0</ele>
        <time>2016-07-12T15:24:31Z</time>
      </trkpt>
      <trkpt lat="41.333967" lon="-4.486750">
        <ele>1633.0</ele>
        <time>2016-07-12T15:24:32Z</time>
      </trkpt>
      <trkpt lat="41.333933" lon="-4.486833">
        <ele>1632.0</ele>
        <time>2016-07-12T15:24:33Z</time>
      </trkpt>
      <trkpt lat="41.333917" lon="-4.486917">
        <ele>1631.0</ele>
        <time>2016-07-12T15:24:34Z</time>
      </trkpt>
      <trkpt lat="41.333917" lon="-4.487000">
        <ele>1631.0</ele>
        <time>2016-07-12T15:24:35Z</time>
      </trkpt>
      <trkpt lat="41.333917" lon="-4.487100">
        <ele>1630.0</ele>
        <time>2016-07-12T15:24:36Z</time>
      </trkpt>
      <trkpt lat="41.333933" lon="-4.487167">
        <ele>1629.0</ele>
        <time>2016-07-12T15:24:37Z</time>
      </trkpt>
      <trkpt lat="41.333967" lon="-4.487233">
        <ele>1629.0</ele>
        <time>2016-07-12T15:24:38Z</time>
      </trkpt>
      <trkpt lat="41.334017" lon="-4.487283">
        <ele>1627.0</ele>
        <time>2016-07-12T15:24:39Z</time>
      </trkpt>
      <trkpt lat="41.334067" lon="-4.487333">
        <ele>1626.0</ele>
        <time>2016-07-12T15:24:40Z</time>
      </trkpt>
      <trkpt lat="41.334150" lon="-4.487383">
        <ele>1624.0</ele>
        <time>2016-07-12T15:24:41Z</time>
      </trkpt>
      <trkpt lat="41.334217" lon="-4.487417">
        <ele>1623.0</ele>
        <time>2016-07-12T15:24:42Z</time>
      </trkpt>
      <trkpt lat="41.334300" lon="-4.487450">
        <ele>1622.0</ele>
        <time>2016-07-12T15:24:43Z</time>
      </trkpt>
      <trkpt lat="41.334400" lon="-4.487483">
        <ele>1622.0</ele>
        <time>2016-07-12T15:24:44Z</time>
      </trkpt>
      <trkpt lat="41.334483" lon="-4.487500">
        <ele>1623.0</ele>
        <time>2016-07-12T15:24:45Z</time>
      </trkpt>
      <trkpt lat="41.334583" lon="-4.487517">
        <ele>1624.0</ele>
        <time>2016-07-12T15:24:46Z</time>
      </trkpt>
      <trkpt lat="41.334667" lon="-4.487517">
        <ele>1626.0</ele>
        <time>2016-07-12T15:24:47Z</time>
      </trkpt>
      <trkpt lat="41.334750" lon="-4.487533">
        <ele>1627.0</ele>
        <time>2016-07-12T15:24:48Z</time>
      </trkpt>
      <trkpt lat="41.334833" lon="-4.487550">
        <ele>1628.0</ele>
        <time>2016-07-12T15:24:49Z</time>
      </trkpt>
      <trkpt lat="41.334917" lon="-4.487583">
        <ele>1630.0</ele>
        <time>2016-07-12T15:24:50Z</time>
      </trkpt>
      <trkpt lat="41.334967" lon="-4.487600">
        <ele>1633.0</ele>
        <time>2016-07-12T15:24:51Z</time>
      </trkpt>
      <trkpt lat="41.335033" lon="-4.487617">
        <ele>1636.0</ele>
        <time>2016-07-12T15:24:52Z</time>
      </trkpt>
      <trkpt lat="41.335100" lon="-4.487617">
        <ele>1639.0</ele>
        <time>2016-07-12T15:24:53Z</time>
      </trkpt>
      <trkpt lat="41.335167" lon="-4.487617">
        <ele>1641.0</ele>
        <time>2016-07-12T15:24:54Z</time>
      </trkpt>
      <trkpt lat="41.335233" lon="-4.487633">
        <ele>1643.0</ele>
        <time>2016-07-12T15:24:55Z</time>
      </trkpt>
      <trkpt lat="41.335283" lon="-4.487650">
        <ele>1646.0</ele>
        <time>2016-07-12T15:24:56Z</time>
      </trkpt>
      <trkpt lat="41.335350" lon="-4.487667">
        <ele>1650.0</ele>
        <time>2016-07-12T15:24:57Z</time>
      </trkpt>
      <trkpt lat="41.335400" lon="-4.487683">
        <ele>1654.0</ele>
        <time>2016-07-12T15:24:58Z</time>
      </trkpt>
      <trkpt lat="41.335450" lon="-4.487667">
        <ele>1657.0</ele>
        <time>2016-07-12T15:24:59Z</time>
      </trkpt>
      <trkpt lat="41.335500" lon="-4.487633">
        <ele>1661.0</ele>
        <time>2016-07-12T15:25:00Z</time>
      </trkpt>
      <trkpt lat="41.335550" lon="-4.487600">
        <ele>1664.0</ele>
        <time>2016-07-12T15:25:01Z</time>
      </trkpt>
      <trkpt lat="41.335600" lon="-4.487550">
        <ele>1667.0</ele>
        <time>2016-07-12T15:25:02Z</time>
      </trkpt>
      <trkpt lat="41.335650" lon="-4.487483">
        <ele>1670.0</ele>
        <time>2016-07-12T15:25:03Z</time>
      </trkpt>
      <trkpt lat="41.335717" lon="-4.487383">
        <ele>1674.0</ele>
        <time>2016-07-12T15:25:04Z</time>
      </trkpt>
      <trkpt lat="41.335767" lon="-4.487283">
        <ele>1678.0</ele>
        <time>2016-07-12T15:25:05Z</time>
      </trkpt>
      <trkpt lat="41.335817" lon="-4.487200">
        <ele>1682.0</ele>
        <time>2016-07-12T15:25:06Z</time>
      </trkpt>
      <trkpt lat="41.335850" lon="-4.487117">
        <ele>1686.0</ele>
        <time>2016-07-12T15:25:07Z</time>
      </trkpt>
      <trkpt lat="41.335883" lon="-4.487017">
        <ele>1689.0</ele>
        <time>2016-07-12T15:25:08Z</time>
      </trkpt>
      <trkpt lat="41.335917" lon="-4.486900">
        <ele>1693.0</ele>
        <time>2016-07-12T15:25:09Z</time>
      </trkpt>
      <trkpt lat="41.335933" lon="-4.486750">
        <ele>1696.0</ele>
        <time>2016-07-12T15:25:10Z</time>
      </trkpt>
      <trkpt lat="41.335917" lon="-4.486617">
        <ele>1699.0</ele>
        <time>2016-07-12T15:25:11Z</time>
      </trkpt>
      <trkpt lat="41.335867" lon="-4.486483">
        <ele>1703.0</ele>
        <time>2016-07-12T15:25:12Z</time>
      </trkpt>
      <trkpt lat="41.335800" lon="-4.486383">
        <ele>1706.0</ele>
        <time>2016-07-12T15:25:13Z</time>
      </trkpt>
      <trkpt lat="41.335700" lon="-4.486317">
        <ele>1708.0</ele>
        <time>2016-07-12T15:25:14Z</time>
      </trkpt>
      <trkpt lat="41.335600" lon="-4.486300">
        <ele>1711.0</ele>
        <time>2016-07-12T15:25:15Z</time>
      </trkpt>
      <trkpt lat="41.335517" lon="-4.486333">
        <ele>1714.0</ele>
        <time>2016-07-12T15:25:16Z</time>
      </trkpt>
      <trkpt lat="41.335450" lon="-4.486367">
        <ele>1718.0</ele>
        <time>2016-07-12T15:25:17Z</time>
      </trkpt>
      <trkpt lat="41.335433" lon="-4.486433">
        <ele>1721.0</ele>
        <time>2016-07-12T15:25:18Z</time>
      </trkpt>
      <trkpt lat="41.335433" lon="-4.486483">
        <ele>1723.0</ele>
        <time>2016-07-12T15:25:19Z</time>
      </trkpt>
      <trkpt lat="41.335450" lon="-4.486567">
        <ele>1724.0</ele>
        <time>2016-07-12T15:25:20Z</time>
      </trkpt>
      <trkpt lat="41.335467" lon="-4.486633">
        <ele>1728.0</ele>
        <time>2016-07-12T15:25:21Z</time>
      </trkpt>
      <trkpt lat="41.335483" lon="-4.486683">
        <ele>1732.0</ele>
        <time>2016-07-12T15:25:22Z</time>
      </trkpt>
      <trkpt lat="41.335517" lon="-4.486700">
        <ele>1737.0</ele>
        <time>2016-07-12T15:25:23Z</time>
      </trkpt>
      <trkpt lat="41.335550" lon="-4.486717">
        <ele>1741.0</ele>
        <time>2016-07-12T15:25:24Z</time>
      </trkpt>
      <trkpt lat="41.335600" lon="-4.486717">
        <ele>1745.0</ele>
        <time>2016-07-12T15:25:25Z</time>
      </trkpt>
      <trkpt lat="41.335650" lon="-4.486700">
        <ele>1750.0</ele>
        <time>2016-07-12T15:25:26Z</time>
      </trkpt>
      <trkpt lat="41.335717" lon="-4.486667">
        <ele>1755.0</ele>
        <time>2016-07-12T15:25:27Z</time>
      </trkpt>
      <trkpt lat="41.335767" lon="-4.486617">
        <ele>1761.0</ele>
        <time>2016-07-12T15:25:28Z</time>
      </trkpt>
      <trkpt lat="41.335817" lon="-4.486583">
        <ele>1765.0</ele>
        <time>2016-07-12T15:25:29Z</time>
      </trkpt>
      <trkpt lat="41.335833" lon="-4.486533">
        <ele>1770.0</ele>
        <time>2016-07-12T15:25:30Z</time>
      </trkpt>
      <trkpt lat="41.335867" lon="-4.486467">
        <ele>1773.0</ele>
        <time>2016-07-12T15:25:31Z</time>
      </trkpt>
      <trkpt lat="41.335900" lon="-4.486350">
        <ele>1774.0</ele>
        <time>2016-07-12T15:25:32Z</time>
      </trkpt>
      <trkpt lat="41.335933" lon="-4.486217">
        <ele>1774.0</ele>
        <time>2016-07-12T15:25:33Z</time>
      </trkpt>
      <trkpt lat="41.335933" lon="-4.486050">
        <ele>1776.0</ele>
        <time>2016-07-12T15:25:34Z</time>
      </trkpt>
      <trkpt lat="41.335883" lon="-4.485900">
        <ele>1779.0</ele>
        <time>2016-07-12T15:25:35Z</time>
      </trkpt>
      <trkpt lat="41.335817" lon="-4.485750">
        <ele>1782.0</ele>
        <time>2016-07-12T15:25:36Z</time>
      </trkpt>
      <trkpt lat="41.335717" lon="-4.485650">
        <ele>1784.0</ele>
        <time>2016-07-12T15:25:37Z</time>
      </trkpt>
      <trkpt lat="41.335617" lon="-4.485567">
        <ele>1787.0</ele>
        <time>2016-07-12T15:25:38Z</time>
      </trkpt>
      <trkpt lat="41.335500" lon="-4.485500">
        <ele>1791.0</ele>
        <time>2016-07-12T15:25:39Z</time>
      </trkpt>
      <trkpt lat="41.335400" lon="-4.485483">
        <ele>1794.0</ele>
        <time>2016-07-12T15:25:40Z</time>
      </trkpt>
      <trkpt lat="41.335300" lon="-4.485500">
        <ele>1797.0</ele>
        <time>2016-07-12T15:25:41Z</time>
      </trkpt>
      <trkpt lat="41.335250" lon="-4.485550">
        <ele>1800.0</ele>
        <time>2016-07-12T15:25:42Z</time>
      </trkpt>
      <trkpt lat="41.335217" lon="-4.485617">
        <ele>1802.0</ele>
        <time>2016-07-12T15:25:43Z</time>
      </trkpt>
      <trkpt lat="41.335217" lon="-4.485683">
        <ele>1804.0</ele>
        <time>2016-07-12T15:25:44Z</time>
      </trkpt>
      <trkpt lat="41.335233" lon="-4.485767">
        <ele>1807.0</ele>
        <time>2016-07-12T15:25:45Z</time>
      </trkpt>
      <trkpt lat="41.335267" lon="-4.485817">
        <ele>1813.0</ele>
        <time>2016-07-12T15:25:46Z</time>
      </trkpt>
      <trkpt lat="41.335283" lon="-4.485817">
        <ele>1819.0</ele>
        <time>2016-07-12T15:25:47Z</time>
      </trkpt>
      <trkpt lat="41.335317" lon="-4.485800">
        <ele>1824.0</ele>
        <time>2016-07-12T15:25:48Z</time>
      </trkpt>
      <trkpt lat="41.335333" lon="-4.485767">
        <ele>1827.0</ele>
        <time>2016-07-12T15:25:49Z</time>
      </trkpt>
      <trkpt lat="41.335350" lon="-4.485717">
        <ele>1829.0</ele>
        <time>2016-07-12T15:25:50Z</time>
      </trkpt>
      <trkpt lat="41.335400" lon="-4.485650">
        <ele>1830.0</ele>
        <time>2016-07-12T15:25:51Z</time>
      </trkpt>
      <trkpt lat="41.335450" lon="-4.485567">
        <ele>1832.0</ele>
        <time>2016-07-12T15:25:52Z</time>
      </trkpt>
      <trkpt lat="41.335483" lon="-4.485450">
        <ele>1834.0</ele>
        <time>2016-07-12T15:25:53Z</time>
      </trkpt>
      <trkpt lat="41.335517" lon="-4.485317">
        <ele>1838.0</ele>
        <time>2016-07-12T15:25:54Z</time>
      </trkpt>
      <trkpt lat="41.335533" lon="-4.485167">
        <ele>1843.0</ele>
        <time>2016-07-12T15:25:55Z</time>
      </trkpt>
      <trkpt lat="41.335550" lon="-4.485017">
        <ele>1847.0</ele>
        <time>2016-07-12T15:25:56Z</time>
      </trkpt>
      <trkpt lat="41.335533" lon="-4.484867">
        <ele>1850.0</ele>
        <time>2016-07-12T15:25:57Z</time>
      </trkpt>
      <trkpt lat="41.335467" lon="-4.484717">
        <ele>1853.0</ele>
        <time>2016-07-12T15:25:58Z</time>
      </trkpt>
      <trkpt lat="41.335400" lon="-4.484583">
        <ele>1854.0</ele>
        <time>2016-07-12T15:25:59Z</time>
      </trkpt>
      <trkpt lat="41.335300" lon="-4.484467">
        <ele>1857.0</ele>
        <time>2016-07-12T15:26:00Z</time>
      </trkpt>
      <trkpt lat="41.335183" lon="-4.484400">
        <ele>1859.0</ele>
        <time>2016-07-12T15:26:01Z</time>
      </trkpt>
      <trkpt lat="41.335083" lon="-4.484383">
        <ele>1861.0</ele>
        <time>2016-07-12T15:26:02Z</time>
      </trkpt>
      <trkpt lat="41.335000" lon="-4.484417">
        <ele>1863.0</ele>
        <time>2016-07-12T15:26:03Z</time>
      </trkpt>
      <trkpt lat="41.334950" lon="-4.484467">
        <ele>1865.0</ele>
        <time>2016-07-12T15:26:04Z</time>
      </trkpt>
      <trkpt lat="41.334933" lon="-4.484517">
        <ele>1866.0</ele>
        <time>2016-07-12T15:26:05Z</time>
      </trkpt>
      <trkpt lat="41.334950" lon="-4.484550">
        <ele>1867.0</ele>
        <time>2016-07-12T15:26:06Z</time>
      </trkpt>
      <trkpt lat="41.334983" lon="-4.484583">
        <ele>1869.0</ele>
        <time>2016-07-12T15:26:07Z</time>
      </trkpt>
      <trkpt lat="41.335033" lon="-4.484600">
        <ele>1872.0</ele>
        <time>2016-07-12T15:26:08Z</time>
      </trkpt>
      <trkpt lat="41.335083" lon="-4.484617">
        <ele>1876.0</ele>
        <time>2016-07-12T15:26:09Z</time>
      </trkpt>
      <trkpt lat="41.335133" lon="-4.484600">
        <ele>1879.0</ele>
        <time>2016-07-12T15:26:10Z</time>
      </trkpt>
      <trkpt lat="41.335183" lon="-4.484583">
        <ele>1883.0</ele>
        <time>2016-07-12T15:26:11Z</time>
      </trkpt>
      <trkpt lat="41.335233" lon="-4.484550">
        <ele>1886.0</ele>
        <time>2016-07-12T15:26:12Z</time>
      </trkpt>
      <trkpt lat="41.335300" lon="-4.484517">
        <ele>1890.0</ele>
        <time>2016-07-12T15:26:13Z</time>
      </trkpt>
      <trkpt lat="41.335350" lon="-4.484433">
        <ele>1894.0</ele>
        <time>2016-07-12T15:26:14Z</time>
      </trkpt>
      <trkpt lat="41.335400" lon="-4.484333">
        <ele>1898.0</ele>
        <time>2016-07-12T15:26:15Z</time>
      </trkpt>
      <trkpt lat="41.335450" lon="-4.484217">
        <ele>1902.0</ele>
        <time>2016-07-12T15:26:16Z</time>
      </trkpt>
      <trkpt lat="41.335483" lon="-4.484100">
        <ele>1906.0</ele>
        <time>2016-07-12T15:26:17Z</time>
      </trkpt>
      <trkpt lat="41.335533" lon="-4.483983">
        <ele>1910.0</ele>
        <time>2016-07-12T15:26:18Z</time>
      </trkpt>
      <trkpt lat="41.335567" lon="-4.483850">
        <ele>1913.0</ele>
        <time>2016-07-12T15:26:19Z</time>
      </trkpt>
      <trkpt lat="41.335600" lon="-4.483717">
        <ele>1916.0</ele>
        <time>2016-07-12T15:26:20Z</time>
      </trkpt>
      <trkpt lat="41.335617" lon="-4.483583">
        <ele>1919.0</ele>
        <time>2016-07-12T15:26:21Z</time>
      </trkpt>
      <trkpt lat="41.335617" lon="-4.483417">
        <ele>1923.0</ele>
        <time>2016-07-12T15:26:22Z</time>
      </trkpt>
      <trkpt lat="41.335583" lon="-4.483267">
        <ele>1926.0</ele>
        <time>2016-07-12T15:26:23Z</time>
      </trkpt>
      <trkpt lat="41.335533" lon="-4.483133">
        <ele>1929.0</ele>
        <time>2016-07-12T15:26:24Z</time>
      </trkpt>
      <trkpt lat="41.335467" lon="-4.483017">
        <ele>1932.0</ele>
        <time>2016-07-12T15:26:25Z</time>
      </trkpt>
      <trkpt lat="41.335383" lon="-4.482933">
        <ele>1934.0</ele>
        <time>2016-07-12T15:26:26Z</time>
      </trkpt>
      <trkpt lat="41.335283" lon="-4.482867">
        <ele>1937.0</ele>
        <time>2016-07-12T15:26:27Z</time>
      </trkpt>
      <trkpt lat="41.335183" lon="-4.482850">
        <ele>1938.0</ele>
        <time>2016-07-12T15:26:28Z</time>
      </trkpt>
      <trkpt lat="41.335100" lon="-4.482867">
        <ele>1940.0</ele>
        <time>2016-07-12T15:26:29Z</time>
      </trkpt>
      <trkpt lat="41.335033" lon="-4.482917">
        <ele>1942.0</ele>
        <time>2016-07-12T15:26:30Z</time>
      </trkpt>
      <trkpt lat="41.334983" lon="-4.482967">
        <ele>1944.0</ele>
        <time>2016-07-12T15:26:31Z</time>
      </trkpt>
      <trkpt lat="41.334950" lon="-4.483017">
        <ele>1946.0</ele>
        <time>2016-07-12T15:26:32Z</time>
      </trkpt>
      <trkpt lat="41.334933" lon="-4.483083">
        <ele>1948.0</ele>
        <time>2016-07-12T15:26:33Z</time>
      </trkpt>
      <trkpt lat="41.334917" lon="-4.483150">
        <ele>1952.0</ele>
        <time>2016-07-12T15:26:34Z</time>
      </trkpt>
      <trkpt lat="41.334900" lon="-4.483200">
        <ele>1954.0</ele>
        <time>2016-07-12T15:26:35Z</time>
      </trkpt>
      <trkpt lat="41.334900" lon="-4.483250">
        <ele>1957.0</ele>
        <time>2016-07-12T15:26:36Z</time>
      </trkpt>
      <trkpt lat="41.334917" lon="-4.483300">
        <ele>1960.0</ele>
        <time>2016-07-12T15:26:37Z</time>
      </trkpt>
      <trkpt lat="41.334967" lon="-4.483317">
        <ele>1964.0</ele>
        <time>2016-07-12T15:26:38Z</time>
      </trkpt>
      <trkpt lat="41.335000" lon="-4.483333">
        <ele>1968.0</ele>
        <time>2016-07-12T15:26:39Z</time>
      </trkpt>
      <trkpt lat="41.335033" lon="-4.483350">
        <ele>1972.0</ele>
        <time>2016-07-12T15:26:40Z</time>
      </trkpt>
      <trkpt lat="41.335067" lon="-4.483350">
        <ele>1975.0</ele>
        <time>2016-07-12T15:26:41Z</time>
      </trkpt>
      <trkpt lat="41.335117" lon="-4.483333">
        <ele>1979.0</ele>
        <time>2016-07-12T15:26:42Z</time>
      </trkpt>
      <trkpt lat="41.335183" lon="-4.483317">
        <ele>1982.0</ele>
        <time>2016-07-12T15:26:43Z</time>
      </trkpt>
      <trkpt lat="41.335250" lon="-4.483267">
        <ele>1987.0</ele>
        <time>2016-07-12T15:26:44Z</time>
      </trkpt>
      <trkpt lat="41.335317" lon="-4.483183">
        <ele>1991.0</ele>
        <time>2016-07-12T15:26:45Z</time>
      </trkpt>
      <trkpt lat="41.335383" lon="-4.483117">
        <ele>1996.0</ele>
        <time>2016-07-12T15:26:46Z</time>
      </trkpt>
      <trkpt lat="41.335433" lon="-4.483050">
        <ele>2001.0</ele>
        <time>2016-07-12T15:26:47Z</time>
      </trkpt>
      <trkpt lat="41.335500" lon="-4.482983">
        <ele>2005.0</ele>
        <time>2016-07-12T15:26:48Z</time>
      </trkpt>
      <trkpt lat="41.335550" lon="-4.482883">
        <ele>2009.0</ele>
        <time>2016-07-12T15:26:49Z</time>
      </trkpt>
      <trkpt lat="41.335583" lon="-4.482750">
        <ele>2012.0</ele>
        <time>2016-07-12T15:26:50Z</time>
      </trkpt>
      <trkpt lat="41.335600" lon="-4.482600">
        <ele>2015.0</ele>
        <time>2016-07-12T15:26:51Z</time>
      </trkpt>
      <trkpt lat="41.335617" lon="-4.482450">
        <ele>2019.0</ele>
        <time>2016-07-12T15:26:52Z</time>
      </trkpt>
      <trkpt lat="41.335633" lon="-4.482317">
        <ele>2023.0</ele>
        <time>2016-07-12T15:26:53Z</time>
      </trkpt>
      <trkpt lat="41.335633" lon="-4.482167">
        <ele>2026.0</ele>
        <time>2016-07-12T15:26:54Z</time>
      </trkpt>
      <trkpt lat="41.335600" lon="-4.482017">
        <ele>2029.0</ele>
        <time>2016-07-12T15:26:55Z</time>
      </trkpt>
      <trkpt lat="41.335533" lon="-4.481850">
        <ele>2031.0</ele>
        <time>2016-07-12T15:26:56Z</time>
      </trkpt>
      <trkpt lat="41.335433" lon="-4.481733">
        <ele>2034.0</ele>
        <time>2016-07-12T15:26:57Z</time>
      </trkpt>
      <trkpt lat="41.335333" lon="-4.481667">
        <ele>2038.0</ele>
        <time>2016-07-12T15:26:58Z</time>
      </trkpt>
      <trkpt lat="41.335233" lon="-4.481667">
        <ele>2041.0</ele>
        <time>2016-07-12T15:26:59Z</time>
      </trkpt>
      <trkpt lat="41.335167" lon="-4.481700">
        <ele>2044.0</ele>
        <time>2016-07-12T15:27:00Z</time>
      </trkpt>
      <trkpt lat="41.335117" lon="-4.481750">
        <ele>2048.0</ele>
        <time>2016-07-12T15:27:01Z</time>
      </trkpt>
      <trkpt lat="41.335100" lon="-4.481817">
        <ele>2052.0</ele>
        <time>2016-07-12T15:27:02Z</time>
      </trkpt>
      <trkpt lat="41.335083" lon="-4.481867">
        <ele>2056.0</ele>
        <time>2016-07-12T15:27:03Z</time>
      </trkpt>
      <trkpt lat="41.335083" lon="-4.481917">
        <ele>2060.0</ele>
        <time>2016-07-12T15:27:04Z</time>
      </trkpt>
      <trkpt lat="41.335100" lon="-4.481950">
        <ele>2065.0</ele>
        <time>2016-07-12T15:27:05Z</time>
      </trkpt>
      <trkpt lat="41.335133" lon="-4.481950">
        <ele>2068.0</ele>
        <time>2016-07-12T15:27:06Z</time>
      </trkpt>
      <trkpt lat="41.335150" lon="-4.481967">
        <ele>2071.0</ele>
        <time>2016-07-12T15:27:07Z</time>
      </trkpt>
      <trkpt lat="41.335183" lon="-4.481983">
        <ele>2074.0</ele>
        <time>2016-07-12T15:27:08Z</time>
      </trkpt>
      <trkpt lat="41.335217" lon="-4.481983">
        <ele>2077.0</ele>
        <time>2016-07-12T15:27:09Z</time>
      </trkpt>
      <trkpt lat="41.335267" lon="-4.481950">
        <ele>2079.0</ele>
        <time>2016-07-12T15:27:10Z</time>
      </trkpt>
      <trkpt lat="41.335333" lon="-4.481900">
        <ele>2082.0</ele>
        <time>2016-07-12T15:27:11Z</time>
      </trkpt>
      <trkpt lat="41.335400" lon="-4.481833">
        <ele>2086.0</ele>
        <time>2016-07-12T15:27:12Z</time>
      </trkpt>
      <trkpt lat="41.335467" lon="-4.481750">
        <ele>2091.0</ele>
        <time>2016-07-12T15:27:13Z</time>
      </trkpt>
      <trkpt lat="41.335517" lon="-4.481683">
        <ele>2096.0</ele>
        <time>2016-07-12T15:27:14Z</time>
      </trkpt>
      <trkpt lat="41.335583" lon="-4.481583">
        <ele>2100.0</ele>
        <time>2016-07-12T15:27:15Z</time>
      </trkpt>
      <trkpt lat="41.335633" lon="-4.481467">
        <ele>2104.0</ele>
        <time>2016-07-12T15:27:16Z</time>
      </trkpt>
      <trkpt lat="41.335667" lon="-4.481333">
        <ele>2108.0</ele>
        <time>2016-07-12T15:27:17Z</time>
      </trkpt>
      <trkpt lat="41.335700" lon="-4.481183">
        <ele>2112.0</ele>
        <time>2016-07-12T15:27:18Z</time>
      </trkpt>
      <trkpt lat="41.335733" lon="-4.481033">
        <ele>2117.0</ele>
        <time>2016-07-12T15:27:19Z</time>
      </trkpt>
      <trkpt lat="41.335750" lon="-4.480883">
        <ele>2121.0</ele>
        <time>2016-07-12T15:27:20Z</time>
      </trkpt>
      <trkpt lat="41.335733" lon="-4.480717">
        <ele>2125.0</ele>
        <time>2016-07-12T15:27:21Z</time>
      </trkpt>
      <trkpt lat="41.335700" lon="-4.480567">
        <ele>2129.0</ele>
        <time>2016-07-12T15:27:22Z</time>
      </trkpt>
      <trkpt lat="41.335633" lon="-4.480417">
        <ele>2133.0</ele>
        <time>2016-07-12T15:27:23Z</time>
      </trkpt>
      <trkpt lat="41.335567" lon="-4.480300">
        <ele>2137.0</ele>
        <time>2016-07-12T15:27:24Z</time>
      </trkpt>
      <trkpt lat="41.335483" lon="-4.480200">
        <ele>2140.0</ele>
        <time>2016-07-12T15:27:25Z</time>
      </trkpt>
      <trkpt lat="41.335400" lon="-4.480133">
        <ele>2143.0</ele>
        <time>2016-07-12T15:27:26Z</time>
      </trkpt>
      <trkpt lat="41.335300" lon="-4.480100">
        <ele>2146.0</ele>
        <time>2016-07-12T15:27:27Z</time>
      </trkpt>
      <trkpt lat="41.335233" lon="-4.480117">
        <ele>2148.0</ele>
        <time>2016-07-12T15:27:28Z</time>
      </trkpt>
      <trkpt lat="41.335167" lon="-4.480167">
        <ele>2151.0</ele>
        <time>2016-07-12T15:27:29Z</time>
      </trkpt>
      <trkpt lat="41.335133" lon="-4.480217">
        <ele>2155.0</ele>
        <time>2016-07-12T15:27:30Z</time>
      </trkpt>
      <trkpt lat="41.335133" lon="-4.480283">
        <ele>2159.0</ele>
        <time>2016-07-12T15:27:31Z</time>
      </trkpt>
      <trkpt lat="41.335133" lon="-4.480333">
        <ele>2163.0</ele>
        <time>2016-07-12T15:27:32Z</time>
      </trkpt>
      <trkpt lat="41.335150" lon="-4.480367">
        <ele>2167.0</ele>
        <time>2016-07-12T15:27:33Z</time>
      </trkpt>
      <trkpt lat="41.335183" lon="-4.480383">
        <ele>2172.0</ele>
        <time>2016-07-12T15:27:34Z</time>
      </trkpt>
      <trkpt lat="41.335217" lon="-4.480400">
        <ele>2176.0</ele>
        <time>2016-07-12T15:27:35Z</time>
      </trkpt>
      <trkpt lat="41.335250" lon="-4.480417">
        <ele>2180.0</ele>
        <time>2016-07-12T15:27:36Z</time>
      </trkpt>
      <trkpt lat="41.335300" lon="-4.480417">
        <ele>2184.0</ele>
        <time>2016-07-12T15:27:37Z</time>
      </trkpt>
      <trkpt lat="41.335333" lon="-4.480417">
        <ele>2188.0</ele>
        <time>2016-07-12T15:27:38Z</time>
      </trkpt>
      <trkpt lat="41.335400" lon="-4.480400">
        <ele>2192.0</ele>
        <time>2016-07-12T15:27:39Z</time>
      </trkpt>
      <trkpt lat="41.335450" lon="-4.480350">
        <ele>2195.0</ele>
        <time>2016-07-12T15:27:40Z</time>
      </trkpt>
      <trkpt lat="41.335517" lon="-4.480283">
        <ele>2198.0</ele>
        <time>2016-07-12T15:27:41Z</time>
      </trkpt>
      <trkpt lat="41.335583" lon="-4.480217">
        <ele>2202.0</ele>
        <time>2016-07-12T15:27:42Z</time>
      </trkpt>
      <trkpt lat="41.335633" lon="-4.480133">
        <ele>2205.0</ele>
        <time>2016-07-12T15:27:43Z</time>
      </trkpt>
      <trkpt lat="41.335683" lon="-4.480033">
        <ele>2209.0</ele>
        <time>2016-07-12T15:27:44Z</time>
      </trkpt>
      <trkpt lat="41.335717" lon="-4.479933">
        <ele>2212.0</ele>
        <time>2016-07-12T15:27:45Z</time>
      </trkpt>
      <trkpt lat="41.335750" lon="-4.479800">
        <ele>2213.0</ele>
        <time>2016-07-12T15:27:46Z</time>
      </trkpt>
      <trkpt lat="41.335767" lon="-4.479633">
        <ele>2215.0</ele>
        <time>2016-07-12T15:27:47Z</time>
      </trkpt>
      <trkpt lat="41.335750" lon="-4.479467">
        <ele>2216.0</ele>
        <time>2016-07-12T15:27:48Z</time>
      </trkpt>
      <trkpt lat="41.335717" lon="-4.479317">
        <ele>2219.0</ele>
        <time>2016-07-12T15:27:49Z</time>
      </trkpt>
      <trkpt lat="41.335650" lon="-4.479183">
        <ele>2220.0</ele>
        <time>2016-07-12T15:27:50Z</time>
      </trkpt>
      <trkpt lat="41.335550" lon="-4.479083">
        <ele>2221.0</ele>
        <time>2016-07-12T15:27:51Z</time>
      </trkpt>
      <trkpt lat="41.335433" lon="-4.479017">
        <ele>2222.0</ele>
        <time>2016-07-12T15:27:52Z</time>
      </trkpt>
      <trkpt lat="41.335317" lon="-4.479000">
        <ele>2223.0</ele>
        <time>2016-07-12T15:27:53Z</time>
      </trkpt>
      <trkpt lat="41.335217" lon="-4.479017">
        <ele>2226.0</ele>
        <time>2016-07-12T15:27:54Z</time>
      </trkpt>
      <trkpt lat="41.335117" lon="-4.479050">
        <ele>2231.0</ele>
        <time>2016-07-12T15:27:55Z</time>
      </trkpt>
      <trkpt lat="41.335050" lon="-4.479083">
        <ele>2235.0</ele>
        <time>2016-07-12T15:27:56Z</time>
      </trkpt>
      <trkpt lat="41.335017" lon="-4.479117">
        <ele>2239.0</ele>
        <time>2016-07-12T15:27:57Z</time>
      </trkpt>
      <trkpt lat="41.334967" lon="-4.479150">
        <ele>2241.0</ele>
        <time>2016-07-12T15:27:58Z</time>
      </trkpt>
      <trkpt lat="41.334917" lon="-4.479217">
        <ele>2244.0</ele>
        <time>2016-07-12T15:27:59Z</time>
      </trkpt>
      <trkpt lat="41.334883" lon="-4.479300">
        <ele>2246.0</ele>
        <time>2016-07-12T15:28:00Z</time>
      </trkpt>
      <trkpt lat="41.334867" lon="-4.479383">
        <ele>2250.0</ele>
        <time>2016-07-12T15:28:01Z</time>
      </trkpt>
      <trkpt lat="41.334850" lon="-4.479433">
        <ele>2254.0</ele>
        <time>2016-07-12T15:28:02Z</time>
      </trkpt>
      <trkpt lat="41.334850" lon="-4.479483">
        <ele>2258.0</ele>
        <time>2016-07-12T15:28:03Z</time>
      </trkpt>
      <trkpt lat="41.334850" lon="-4.479533">
        <ele>2261.0</ele>
        <time>2016-07-12T15:28:04Z</time>
      </trkpt>
      <trkpt lat="41.334850" lon="-4.479583">
        <ele>2265.0</ele>
        <time>2016-07-12T15:28:05Z</time>
      </trkpt>
      <trkpt lat="41.334867" lon="-4.479650">
        <ele>2268.0</ele>
        <time>2016-07-12T15:28:06Z</time>
      </trkpt>
      <trkpt lat="41.334917" lon="-4.479683">
        <ele>2271.0</ele>
        <time>2016-07-12T15:28:07Z</time>
      </trkpt>
      <trkpt lat="41.334967" lon="-4.479700">
        <ele>2275.0</ele>
        <time>2016-07-12T15:28:08Z</time>
      </trkpt>
      <trkpt lat="41.335017" lon="-4.479700">
        <ele>2280.0</ele>
        <time>2016-07-12T15:28:09Z</time>
      </trkpt>
      <trkpt lat="41.335050" lon="-4.479700">
        <ele>2285.0</ele>
        <time>2016-07-12T15:28:10Z</time>
      </trkpt>
      <trkpt lat="41.335083" lon="-4.479683">
        <ele>2289.0</ele>
        <time>2016-07-12T15:28:11Z</time>
      </trkpt>
      <trkpt lat="41.335133" lon="-4.479633">
        <ele>2292.0</ele>
        <time>2016-07-12T15:28:12Z</time>
      </trkpt>
      <trkpt lat="41.335183" lon="-4.479567">
        <ele>2295.0</ele>
        <time>2016-07-12T15:28:13Z</time>
      </trkpt>
      <trkpt lat="41.335250" lon="-4.479483">
        <ele>2297.0</ele>
        <time>2016-07-12T15:28:14Z</time>
      </trkpt>
      <trkpt lat="41.335317" lon="-4.479367">
        <ele>2301.0</ele>
        <time>2016-07-12T15:28:15Z</time>
      </trkpt>
      <trkpt lat="41.335350" lon="-4.479200">
        <ele>2304.0</ele>
        <time>2016-07-12T15:28:16Z</time>
      </trkpt>
      <trkpt lat="41.335350" lon="-4.479033">
        <ele>2307.0</ele>
        <time>2016-07-12T15:28:17Z</time>
      </trkpt>
      <trkpt lat="41.335333" lon="-4.478833">
        <ele>2310.0</ele>
        <time>2016-07-12T15:28:18Z</time>
      </trkpt>
      <trkpt lat="41.335283" lon="-4.478650">
        <ele>2312.0</ele>
        <time>2016-07-12T15:28:19Z</time>
      </trkpt>
      <trkpt lat="41.335200" lon="-4.478517">
        <ele>2316.0</ele>
        <time>2016-07-12T15:28:20Z</time>
      </trkpt>
      <trkpt lat="41.335117" lon="-4.478400">
        <ele>2319.0</ele>
        <time>2016-07-12T15:28:21Z</time>
      </trkpt>
      <trkpt lat="41.335017" lon="-4.478333">
        <ele>2321.0</ele>
        <time>2016-07-12T15:28:22Z</time>
      </trkpt>
      <trkpt lat="41.334933" lon="-4.478283">
        <ele>2323.0</ele>
        <time>2016-07-12T15:28:23Z</time>
      </trkpt>
      <trkpt lat="41.334833" lon="-4.478267">
        <ele>2325.0</ele>
        <time>2016-07-12T15:28:24Z</time>
      </trkpt>
      <trkpt lat="41.334750" lon="-4.478267">
        <ele>2327.0</ele>
        <time>2016-07-12T15:28:25Z</time>
      </trkpt>
      <trkpt lat="41.334667" lon="-4.478283">
        <ele>2329.0</ele>
        <time>2016-07-12T15:28:26Z</time>
      </trkpt>
      <trkpt lat="41.334617" lon="-4.478350">
        <ele>2332.0</ele>
        <time>2016-07-12T15:28:27Z</time>
      </trkpt>
      <trkpt lat="41.334583" lon="-4.478417">
        <ele>2335.0</ele>
        <time>2016-07-12T15:28:28Z</time>
      </trkpt>
      <trkpt lat="41.334567" lon="-4.478483">
        <ele>2339.0</ele>
        <time>2016-07-12T15:28:29Z</time>
      </trkpt>
      <trkpt lat="41.334550" lon="-4.478533">
        <ele>2342.0</ele>
        <time>2016-07-12T15:28:30Z</time>
      </trkpt>
      <trkpt lat="41.334533" lon="-4.478617">
        <ele>2345.0</ele>
        <time>2016-07-12T15:28:31Z</time>
      </trkpt>
      <trkpt lat="41.334550" lon="-4.478683">
        <ele>2348.0</ele>
        <time>2016-07-12T15:28:32Z</time>
      </trkpt>
      <trkpt lat="41.334567" lon="-4.478733">
        <ele>2350.0</ele>
        <time>2016-07-12T15:28:33Z</time>
      </trkpt>
      <trkpt lat="41.334617" lon="-4.478750">
        <ele>2353.0</ele>
        <time>2016-07-12T15:28:34Z</time>
      </trkpt>
      <trkpt lat="41.334683" lon="-4.478750">
        <ele>2355.0</ele>
        <time>2016-07-12T15:28:35Z</time>
      </trkpt>
      <trkpt lat="41.334733" lon="-4.478733">
        <ele>2358.0</ele>
        <time>2016-07-12T15:28:36Z</time>
      </trkpt>
      <trkpt lat="41.334783" lon="-4.478700">
        <ele>2362.0</ele>
        <time>2016-07-12T15:28:37Z</time>
      </trkpt>
      <trkpt lat="41.334850" lon="-4.478633">
        <ele>2367.0</ele>
        <time>2016-07-12T15:28:38Z</time>
      </trkpt>
      <trkpt lat="41.334900" lon="-4.478550">
        <ele>2370.0</ele>
        <time>2016-07-12T15:28:39Z</time>
      </trkpt>
      <trkpt lat="41.334950" lon="-4.478433">
        <ele>2374.0</ele>
        <time>2016-07-12T15:28:40Z</time>
      </trkpt>
      <trkpt lat="41.335000" lon="-4.478300">
        <ele>2378.0</ele>
        <time>2016-07-12T15:28:41Z</time>
      </trkpt>
      <trkpt lat="41.335033" lon="-4.478167">
        <ele>2383.0</ele>
        <time>2016-07-12T15:28:42Z</time>
      </trkpt>
      <trkpt lat="41.335050" lon="-4.478017">
        <ele>2387.0</ele>
        <time>2016-07-12T15:28:43Z</time>
      </trkpt>
      <trkpt lat="41.335067" lon="-4.477850">
        <ele>2391.0</ele>
        <time>2016-07-12T15:28:44Z</time>
      </trkpt>
      <trkpt lat="41.335050" lon="-4.477700">
        <ele>2394.0</ele>
        <time>2016-07-12T15:28:45Z</time>
      </trkpt>
      <trkpt lat="41.335000" lon="-4.477550">
        <ele>2396.0</ele>
        <time>2016-07-12T15:28:46Z</time>
      </trkpt>
      <trkpt lat="41.334950" lon="-4.477417">
        <ele>2398.0</ele>
        <time>2016-07-12T15:28:47Z</time>
      </trkpt>
      <trkpt lat="41.334867" lon="-4.477283">
        <ele>2399.0</ele>
        <time>2016-07-12T15:28:48Z</time>
      </trkpt>
      <trkpt lat="41.334783" lon="-4.477150">
        <ele>2401.0</ele>
        <time>2016-07-12T15:28:49Z</time>
      </trkpt>
      <trkpt lat="41.334700" lon="-4.477017">
        <ele>2403.0</ele>
        <time>2016-07-12T15:28:50Z</time>
      </trkpt>
      <trkpt lat="41.334583" lon="-4.476950">
        <ele>2404.0</ele>
        <time>2016-07-12T15:28:51Z</time>
      </trkpt>
      <trkpt lat="41.334483" lon="-4.476917">
        <ele>2404.0</ele>
        <time>2016-07-12T15:28:52Z</time>
      </trkpt>
      <trkpt lat="41.334383" lon="-4.476933">
        <ele>2404.0</ele>
        <time>2016-07-12T15:28:53Z</time>
      </trkpt>
      <trkpt lat="41.334317" lon="-4.476983">
        <ele>2404.0</ele>
        <time>2016-07-12T15:28:54Z</time>
      </trkpt>
      <trkpt lat="41.334283" lon="-4.477050">
        <ele>2404.0</ele>
        <time>2016-07-12T15:28:55Z</time>
      </trkpt>
      <trkpt lat="41.334283" lon="-4.477117">
        <ele>2406.0</ele>
        <time>2016-07-12T15:28:56Z</time>
      </trkpt>
      <trkpt lat="41.334300" lon="-4.477167">
        <ele>2408.0</ele>
        <time>2016-07-12T15:28:57Z</time>
      </trkpt>
      <trkpt lat="41.334333" lon="-4.477200">
        <ele>2410.0</ele>
        <time>2016-07-12T15:28:58Z</time>
      </trkpt>
      <trkpt lat="41.334383" lon="-4.477200">
        <ele>2410.0</ele>
        <time>2016-07-12T15:28:59Z</time>
      </trkpt>
      <trkpt lat="41.334433" lon="-4.477167">
        <ele>2411.0</ele>
        <time>2016-07-12T15:29:00Z</time>
      </trkpt>
      <trkpt lat="41.334500" lon="-4.477100">
        <ele>2412.0</ele>
        <time>2016-07-12T15:29:01Z</time>
      </trkpt>
      <trkpt lat="41.334533" lon="-4.476983">
        <ele>2414.0</ele>
        <time>2016-07-12T15:29:02Z</time>
      </trkpt>
      <trkpt lat="41.334550" lon="-4.476850">
        <ele>2416.0</ele>
        <time>2016-07-12T15:29:03Z</time>
      </trkpt>
      <trkpt lat="41.334550" lon="-4.476733">
        <ele>2418.0</ele>
        <time>2016-07-12T15:29:04Z</time>
      </trkpt>
      <trkpt lat="41.334567" lon="-4.476617">
        <ele>2419.0</ele>
        <time>2016-07-12T15:29:05Z</time>
      </trkpt>
      <trkpt lat="41.334583" lon="-4.476500">
        <ele>2420.0</ele>
        <time>2016-07-12T15:29:06Z</time>
      </trkpt>
      <trkpt lat="41.334600" lon="-4.476367">
        <ele>2421.0</ele>
        <time>2016-07-12T15:29:07Z</time>
      </trkpt>
      <trkpt lat="41.334600" lon="-4.476233">
        <ele>2422.0</ele>
        <time>2016-07-12T15:29:08Z</time>
      </trkpt>
      <trkpt lat="41.334600" lon="-4.476083">
        <ele>2423.0</ele>
        <time>2016-07-12T15:29:09Z</time>
      </trkpt>
      <trkpt lat="41.334567" lon="-4.475933">
        <ele>2424.0</ele>
        <time>2016-07-12T15:29:10Z</time>
      </trkpt>
      <trkpt lat="41.334533" lon="-4.475783">
        <ele>2425.0</ele>
        <time>2016-07-12T15:29:11Z</time>
      </trkpt>
      <trkpt lat="41.334500" lon="-4.475617">
        <ele>2427.0</ele>
        <time>2016-07-12T15:29:12Z</time>
      </trkpt>
      <trkpt lat="41.334467" lon="-4.475467">
        <ele>2429.0</ele>
        <time>2016-07-12T15:29:13Z</time>
      </trkpt>
      <trkpt lat="41.334433" lon="-4.475317">
        <ele>2430.0</ele>
        <time>2016-07-12T15:29:14Z</time>
      </trkpt>
      <trkpt lat="41.334383" lon="-4.475167">
        <ele>2431.0</ele>
        <time>2016-07-12T15:29:15Z</time>
      </trkpt>
      <trkpt lat="41.334350" lon="-4.475017">
        <ele>2432.0</ele>
        <time>2016-07-12T15:29:16Z</time>
      </trkpt>
      <trkpt lat="41.334300" lon="-4.474883">
        <ele>2434.0</ele>
        <time>2016-07-12T15:29:17Z</time>
      </trkpt>
      <trkpt lat="41.334217" lon="-4.474767">
        <ele>2436.0</ele>
        <time>2016-07-12T15:29:18Z</time>
      </trkpt>
      <trkpt lat="41.334117" lon="-4.474683">
        <ele>2436.0</ele>
        <time>2016-07-12T15:29:19Z</time>
      </trkpt>
      <trkpt lat="41.334017" lon="-4.474617">
        <ele>2436.0</ele>
        <time>2016-07-12T15:29:20Z</time>
      </trkpt>
      <trkpt lat="41.333900" lon="-4.474583">
        <ele>2437.0</ele>
        <time>2016-07-12T15:29:21Z</time>
      </trkpt>
      <trkpt lat="41.333783" lon="-4.474583">
        <ele>2437.0</ele>
        <time>2016-07-12T15:29:22Z</time>
      </trkpt>
      <trkpt lat="41.333683" lon="-4.474633">
        <ele>2437.0</ele>
        <time>2016-07-12T15:29:23Z</time>
      </trkpt>
      <trkpt lat="41.333600" lon="-4.474700">
        <ele>2438.0</ele>
        <time>2016-07-12T15:29:24Z</time>
      </trkpt>
      <trkpt lat="41.333533" lon="-4.474767">
        <ele>2439.0</ele>
        <time>2016-07-12T15:29:25Z</time>
      </trkpt>
      <trkpt lat="41.333500" lon="-4.474833">
        <ele>2441.0</ele>
        <time>2016-07-12T15:29:26Z</time>
      </trkpt>
      <trkpt lat="41.333467" lon="-4.474883">
        <ele>2442.0</ele>
        <time>2016-07-12T15:29:27Z</time>
      </trkpt>
      <trkpt lat="41.333450" lon="-4.474917">
        <ele>2442.0</ele>
        <time>2016-07-12T15:29:28Z</time>
      </trkpt>
      <trkpt lat="41.333450" lon="-4.474950">
        <ele>2441.0</ele>
        <time>2016-07-12T15:29:29Z</time>
      </trkpt>
      <trkpt lat="41.333483" lon="-4.474983">
        <ele>2439.0</ele>
        <time>2016-07-12T15:29:30Z</time>
      </trkpt>
      <trkpt lat="41.333517" lon="-4.475000">
        <ele>2438.0</ele>
        <time>2016-07-12T15:29:31Z</time>
      </trkpt>
      <trkpt lat="41.333567" lon="-4.475000">
        <ele>2439.0</ele>
        <time>2016-07-12T15:29:32Z</time>
      </trkpt>
      <trkpt lat="41.333617" lon="-4.474967">
        <ele>2441.0</ele>
        <time>2016-07-12T15:29:33Z</time>
      </trkpt>
      <trkpt lat="41.333650" lon="-4.474950">
        <ele>2442.0</ele>
        <time>2016-07-12T15:29:34Z</time>
      </trkpt>
      <trkpt lat="41.333700" lon="-4.474917">
        <ele>2443.0</ele>
        <time>2016-07-12T15:29:35Z</time>
      </trkpt>
      <trkpt lat="41.333733" lon="-4.474883">
        <ele>2443.0</ele>
        <time>2016-07-12T15:29:36Z</time>
      </trkpt>
      <trkpt lat="41.333783" lon="-4.474817">
        <ele>2442.0</ele>
        <time>2016-07-12T15:29:37Z</time>
      </trkpt>
      <trkpt lat="41.333833" lon="-4.474733">
        <ele>2443.0</ele>
        <time>2016-07-12T15:29:38Z</time>
      </trkpt>
      <trkpt lat="41.333883" lon="-4.474633">
        <ele>2445.0</ele>
        <time>2016-07-12T15:29:39Z</time>
      </trkpt>
      <trkpt lat="41.333917" lon="-4.474533">
        <ele>2448.0</ele>
        <time>2016-07-12T15:29:40Z</time>
      </trkpt>
      <trkpt lat="41.333933" lon="-4.474467">
        <ele>2450.0</ele>
        <time>2016-07-12T15:29:41Z</time>
      </trkpt>
      <trkpt lat="41.333967" lon="-4.474400">
        <ele>2450.0</ele>
        <time>2016-07-12T15:29:42Z</time>
      </trkpt>
      <trkpt lat="41.333983" lon="-4.474317">
        <ele>2450.0</ele>
        <time>2016-07-12T15:29:43Z</time>
      </trkpt>
      <trkpt lat="41.334000" lon="-4.474183">
        <ele>2449.0</ele>
        <time>2016-07-12T15:29:44Z</time>
      </trkpt>
      <trkpt lat="41.334017" lon="-4.474050">
        <ele>2449.0</ele>
        <time>2016-07-12T15:29:45Z</time>
      </trkpt>
      <trkpt lat="41.334033" lon="-4.473900">
        <ele>2450.0</ele>
        <time>2016-07-12T15:29:46Z</time>
      </trkpt>
      <trkpt lat="41.334033" lon="-4.473750">
        <ele>2452.0</ele>
        <time>2016-07-12T15:29:47Z</time>
      </trkpt>
      <trkpt lat="41.334033" lon="-4.473617">
        <ele>2453.0</ele>
        <time>2016-07-12T15:29:48Z</time>
      </trkpt>
      <trkpt lat="41.334033" lon="-4.473483">
        <ele>2453.0</ele>
        <time>2016-07-12T15:29:49Z</time>
      </trkpt>
      <trkpt lat="41.334033" lon="-4.473333">
        <ele>2452.0</ele>
        <time>2016-07-12T15:29:50Z</time>
      </trkpt>
      <trkpt lat="41.334017" lon="-4.473167">
        <ele>2452.0</ele>
        <time>2016-07-12T15:29:51Z</time>
      </trkpt>
      <trkpt lat="41.334000" lon="-4.473017">
        <ele>2452.0</ele>
        <time>2016-07-12T15:29:52Z</time>
      </trkpt>
      <trkpt lat="41.333983" lon="-4.472867">
        <ele>2453.0</ele>
        <time>2016-07-12T15:29:53Z</time>
      </trkpt>
      <trkpt lat="41.333950" lon="-4.472717">
        <ele>2452.0</ele>
        <time>2016-07-12T15:29:54Z</time>
      </trkpt>
      <trkpt lat="41.333900" lon="-4.472583">
        <ele>2450.0</ele>
        <time>2016-07-12T15:29:55Z</time>
      </trkpt>
      <trkpt lat="41.333850" lon="-4.472433">
        <ele>2448.0</ele>
        <time>2016-07-12T15:29:56Z</time>
      </trkpt>
      <trkpt lat="41.333800" lon="-4.472283">
        <ele>2446.0</ele>
        <time>2016-07-12T15:29:57Z</time>
      </trkpt>
      <trkpt lat="41.333733" lon="-4.472117">
        <ele>2444.0</ele>
        <time>2016-07-12T15:29:58Z</time>
      </trkpt>
      <trkpt lat="41.333667" lon="-4.471967">
        <ele>2443.0</ele>
        <time>2016-07-12T15:29:59Z</time>
      </trkpt>
      <trkpt lat="41.333600" lon="-4.471817">
        <ele>2441.0</ele>
        <time>2016-07-12T15:30:00Z</time>
      </trkpt>
      <trkpt lat="41.333517" lon="-4.471633">
        <ele>2440.0</ele>
        <time>2016-07-12T15:30:01Z</time>
      </trkpt>
      <trkpt lat="41.333450" lon="-4.471450">
        <ele>2438.0</ele>
        <time>2016-07-12T15:30:02Z</time>
      </trkpt>
      <trkpt lat="41.333367" lon="-4.471283">
        <ele>2439.0</ele>
        <time>2016-07-12T15:30:03Z</time>
      </trkpt>
      <trkpt lat="41.333300" lon="-4.471133">
        <ele>2440.0</ele>
        <time>2016-07-12T15:30:04Z</time>
      </trkpt>
      <trkpt lat="41.333217" lon="-4.470983">
        <ele>2441.0</ele>
        <time>2016-07-12T15:30:05Z</time>
      </trkpt>
      <trkpt lat="41.333133" lon="-4.470833">
        <ele>2442.0</ele>
        <time>2016-07-12T15:30:06Z</time>
      </trkpt>
      <trkpt lat="41.333067" lon="-4.470683">
        <ele>2442.0</ele>
        <time>2016-07-12T15:30:07Z</time>
      </trkpt>
      <trkpt lat="41.332983" lon="-4.470533">
        <ele>2442.0</ele>
        <time>2016-07-12T15:30:08Z</time>
      </trkpt>
      <trkpt lat="41.332883" lon="-4.470383">
        <ele>2442.0</ele>
        <time>2016-07-12T15:30:09Z</time>
      </trkpt>
      <trkpt lat="41.332783" lon="-4.470233">
        <ele>2442.0</ele>
        <time>2016-07-12T15:30:10Z</time>
      </trkpt>
      <trkpt lat="41.332683" lon="-4.470100">
        <ele>2443.0</ele>
        <time>2016-07-12T15:30:11Z</time>
      </trkpt>
      <trkpt lat="41.332600" lon="-4.469967">
        <ele>2445.0</ele>
        <time>2016-07-12T15:30:12Z</time>
      </trkpt>
      <trkpt lat="41.332517" lon="-4.469833">
        <ele>2446.0</ele>
        <time>2016-07-12T15:30:13Z</time>
      </trkpt>
      <trkpt lat="41.332433" lon="-4.469700">
        <ele>2446.0</ele>
        <time>2016-07-12T15:30:14Z</time>
      </trkpt>
      <trkpt lat="41.332350" lon="-4.469567">
        <ele>2446.0</ele>
        <time>2016-07-12T15:30:15Z</time>
      </trkpt>
      <trkpt lat="41.332267" lon="-4.469433">
        <ele>2445.0</ele>
        <time>2016-07-12T15:30:16Z</time>
      </trkpt>
      <trkpt lat="41.332167" lon="-4.469300">
        <ele>2444.0</ele>
        <time>2016-07-12T15:30:17Z</time>
      </trkpt>
      <trkpt lat="41.332067" lon="-4.469167">
        <ele>2442.0</ele>
        <time>2016-07-12T15:30:18Z</time>
      </trkpt>
      <trkpt lat="41.331967" lon="-4.469033">
        <ele>2441.0</ele>
        <time>2016-07-12T15:30:19Z</time>
      </trkpt>
      <trkpt lat="41.331867" lon="-4.468900">
        <ele>2439.0</ele>
        <time>2016-07-12T15:30:20Z</time>
      </trkpt>
      <trkpt lat="41.331783" lon="-4.468767">
        <ele>2438.0</ele>
        <time>2016-07-12T15:30:21Z</time>
      </trkpt>
      <trkpt lat="41.331683" lon="-4.468617">
        <ele>2437.0</ele>
        <time>2016-07-12T15:30:22Z</time>
      </trkpt>
      <trkpt lat="41.331600" lon="-4.468467">
        <ele>2436.0</ele>
        <time>2016-07-12T15:30:23Z</time>
      </trkpt>
      <trkpt lat="41.331483" lon="-4.468317">
        <ele>2436.0</ele>
        <time>2016-07-12T15:30:24Z</time>
      </trkpt>
      <trkpt lat="41.331383" lon="-4.468200">
        <ele>2436.0</ele>
        <time>2016-07-12T15:30:25Z</time>
      </trkpt>
      <trkpt lat="41.331283" lon="-4.468100">
        <ele>2435.0</ele>
        <time>2016-07-12T15:30:26Z</time>
      </trkpt>
      <trkpt lat="41.331167" lon="-4.467983">
        <ele>2433.0</ele>
        <time>2016-07-12T15:30:27Z</time>
      </trkpt>
      <trkpt lat="41.331067" lon="-4.467850">
        <ele>2431.0</ele>
        <time>2016-07-12T15:30:28Z</time>
      </trkpt>
      <trkpt lat="41.330967" lon="-4.467717">
        <ele>2429.0</ele>
        <time>2016-07-12T15:30:29Z</time>
      </trkpt>
      <trkpt lat="41.330867" lon="-4.467583">
        <ele>2428.0</ele>
        <time>2016-07-12T15:30:30Z</time>
      </trkpt>
      <trkpt lat="41.330767" lon="-4.467467">
        <ele>2427.0</ele>
        <time>2016-07-12T15:30:31Z</time>
      </trkpt>
      <trkpt lat="41.330683" lon="-4.467333">
        <ele>2425.0</ele>
        <time>2016-07-12T15:30:32Z</time>
      </trkpt>
      <trkpt lat="41.330583" lon="-4.467183">
        <ele>2424.0</ele>
        <time>2016-07-12T15:30:33Z</time>
      </trkpt>
      <trkpt lat="41.330483" lon="-4.467033">
        <ele>2422.0</ele>
        <time>2016-07-12T15:30:34Z</time>
      </trkpt>
      <trkpt lat="41.330383" lon="-4.466900">
        <ele>2421.0</ele>
        <time>2016-07-12T15:30:35Z</time>
      </trkpt>
      <trkpt lat="41.330300" lon="-4.466750">
        <ele>2420.0</ele>
        <time>2016-07-12T15:30:36Z</time>
      </trkpt>
      <trkpt lat="41.330200" lon="-4.466617">
        <ele>2418.0</ele>
        <time>2016-07-12T15:30:37Z</time>
      </trkpt>
      <trkpt lat="41.330100" lon="-4.466467">
        <ele>2415.0</ele>
        <time>2016-07-12T15:30:38Z</time>
      </trkpt>
      <trkpt lat="41.330017" lon="-4.466317">
        <ele>2412.0</ele>
        <time>2016-07-12T15:30:39Z</time>
      </trkpt>
      <trkpt lat="41.329933" lon="-4.466150">
        <ele>2409.0</ele>
        <time>2016-07-12T15:30:40Z</time>
      </trkpt>
      <trkpt lat="41.329833" lon="-4.465983">
        <ele>2407.0</ele>
        <time>2016-07-12T15:30:41Z</time>
      </trkpt>
      <trkpt lat="41.329733" lon="-4.465833">
        <ele>2406.0</ele>
        <time>2016-07-12T15:30:42Z</time>
      </trkpt>
      <trkpt lat="41.329633" lon="-4.465667">
        <ele>2405.0</ele>
        <time>2016-07-12T15:30:43Z</time>
      </trkpt>
      <trkpt lat="41.329550" lon="-4.465517">
        <ele>2404.0</ele>
        <time>2016-07-12T15:30:44Z</time>
      </trkpt>
      <trkpt lat="41.329467" lon="-4.465350">
        <ele>2402.0</ele>
        <time>2016-07-12T15:30:45Z</time>
      </trkpt>
      <trkpt lat="41.329383" lon="-4.465183">
        <ele>2400.0</ele>
        <time>2016-07-12T15:30:46Z</time>
      </trkpt>
      <trkpt lat="41.329317" lon="-4.465017">
        <ele>2398.0</ele>
        <time>2016-07-12T15:30:47Z</time>
      </trkpt>
      <trkpt lat="41.329233" lon="-4.464850">
        <ele>2395.0</ele>
        <time>2016-07-12T15:30:48Z</time>
      </trkpt>
      <trkpt lat="41.329150" lon="-4.464683">
        <ele>2393.0</ele>
        <time>2016-07-12T15:30:49Z</time>
      </trkpt>
      <trkpt lat="41.329050" lon="-4.464533">
        <ele>2390.0</ele>
        <time>2016-07-12T15:30:50Z</time>
      </trkpt>
      <trkpt lat="41.328967" lon="-4.464383">
        <ele>2388.0</ele>
        <time>2016-07-12T15:30:51Z</time>
      </trkpt>
      <trkpt lat="41.328883" lon="-4.464233">
        <ele>2387.0</ele>
        <time>2016-07-12T15:30:52Z</time>
      </trkpt>
      <trkpt lat="41.328800" lon="-4.464117">
        <ele>2385.0</ele>
        <time>2016-07-12T15:30:53Z</time>
      </trkpt>
      <trkpt lat="41.328700" lon="-4.464017">
        <ele>2384.0</ele>
        <time>2016-07-12T15:30:54Z</time>
      </trkpt>
      <trkpt lat="41.328617" lon="-4.463917">
        <ele>2381.0</ele>
        <time>2016-07-12T15:30:55Z</time>
      </trkpt>
      <trkpt lat="41.328517" lon="-4.463817">
        <ele>2379.0</ele>
        <time>2016-07-12T15:30:56Z</time>
      </trkpt>
      <trkpt lat="41.328433" lon="-4.463683">
        <ele>2375.0</ele>
        <time>2016-07-12T15:30:57Z</time>
      </trkpt>
      <trkpt lat="41.328367" lon="-4.463533">
        <ele>2372.0</ele>
        <time>2016-07-12T15:30:58Z</time>
      </trkpt>
      <trkpt lat="41.328283" lon="-4.463367">
        <ele>2368.0</ele>
        <time>2016-07-12T15:30:59Z</time>
      </trkpt>
      <trkpt lat="41.328200" lon="-4.463233">
        <ele>2366.0</ele>
        <time>2016-07-12T15:31:00Z</time>
      </trkpt>
      <trkpt lat="41.328083" lon="-4.463100">
        <ele>2363.0</ele>
        <time>2016-07-12T15:31:01Z</time>
      </trkpt>
      <trkpt lat="41.327983" lon="-4.462967">
        <ele>2360.0</ele>
        <time>2016-07-12T15:31:02Z</time>
      </trkpt>
      <trkpt lat="41.327883" lon="-4.462833">
        <ele>2358.0</ele>
        <time>2016-07-12T15:31:03Z</time>
      </trkpt>
      <trkpt lat="41.327800" lon="-4.462700">
        <ele>2355.0</ele>
        <time>2016-07-12T15:31:04Z</time>
      </trkpt>
      <trkpt lat="41.327700" lon="-4.462550">
        <ele>2352.0</ele>
        <time>2016-07-12T15:31:05Z</time>
      </trkpt>
      <trkpt lat="41.327600" lon="-4.462417">
        <ele>2348.0</ele>
        <time>2016-07-12T15:31:06Z</time>
      </trkpt>
      <trkpt lat="41.327500" lon="-4.462283">
        <ele>2345.0</ele>
        <time>2016-07-12T15:31:07Z</time>
      </trkpt>
      <trkpt lat="41.327400" lon="-4.462150">
        <ele>2342.0</ele>
        <time>2016-07-12T15:31:08Z</time>
      </trkpt>
      <trkpt lat="41.327300" lon="-4.462033">
        <ele>2338.0</ele>
        <time>2016-07-12T15:31:09Z</time>
      </trkpt>
      <trkpt lat="41.327217" lon="-4.461900">
        <ele>2333.0</ele>
        <time>2016-07-12T15:31:10Z</time>
      </trkpt>
      <trkpt lat="41.327100" lon="-4.461750">
        <ele>2328.0</ele>
        <time>2016-07-12T15:31:11Z</time>
      </trkpt>
      <trkpt lat="41.327000" lon="-4.461633">
        <ele>2324.0</ele>
        <time>2016-07-12T15:31:12Z</time>
      </trkpt>
      <trkpt lat="41.326883" lon="-4.461500">
        <ele>2321.0</ele>
        <time>2016-07-12T15:31:13Z</time>
      </trkpt>
      <trkpt lat="41.326783" lon="-4.461383">
        <ele>2318.0</ele>
        <time>2016-07-12T15:31:14Z</time>
      </trkpt>
      <trkpt lat="41.326683" lon="-4.461267">
        <ele>2315.0</ele>
        <time>2016-07-12T15:31:15Z</time>
      </trkpt>
      <trkpt lat="41.326567" lon="-4.461150">
        <ele>2311.0</ele>
        <time>2016-07-12T15:31:16Z</time>
      </trkpt>
      <trkpt lat="41.326467" lon="-4.461033">
        <ele>2307.0</ele>
        <time>2016-07-12T15:31:17Z</time>
      </trkpt>
      <trkpt lat="41.326350" lon="-4.460900">
        <ele>2303.0</ele>
        <time>2016-07-12T15:31:18Z</time>
      </trkpt>
      <trkpt lat="41.326217" lon="-4.460800">
        <ele>2300.0</ele>
        <time>2016-07-12T15:31:19Z</time>
      </trkpt>
      <trkpt lat="41.326100" lon="-4.460683">
        <ele>2298.0</ele>
        <time>2016-07-12T15:31:20Z</time>
      </trkpt>
      <trkpt lat="41.325983" lon="-4.460583">
        <ele>2295.0</ele>
        <time>2016-07-12T15:31:21Z</time>
      </trkpt>
      <trkpt lat="41.325883" lon="-4.460500">
        <ele>2293.0</ele>
        <time>2016-07-12T15:31:22Z</time>
      </trkpt>
      <trkpt lat="41.325767" lon="-4.460400">
        <ele>2289.0</ele>
        <time>2016-07-12T15:31:23Z</time>
      </trkpt>
      <trkpt lat="41.325650" lon="-4.460283">
        <ele>2284.0</ele>
        <time>2016-07-12T15:31:24Z</time>
      </trkpt>
      <trkpt lat="41.325517" lon="-4.460150">
        <ele>2279.0</ele>
        <time>2016-07-12T15:31:25Z</time>
      </trkpt>
      <trkpt lat="41.325383" lon="-4.460017">
        <ele>2276.0</ele>
        <time>2016-07-12T15:31:26Z</time>
      </trkpt>
      <trkpt lat="41.325267" lon="-4.459883">
        <ele>2273.0</ele>
        <time>2016-07-12T15:31:27Z</time>
      </trkpt>
      <trkpt lat="41.325150" lon="-4.459750">
        <ele>2271.0</ele>
        <time>2016-07-12T15:31:28Z</time>
      </trkpt>
      <trkpt lat="41.325050" lon="-4.459617">
        <ele>2269.0</ele>
        <time>2016-07-12T15:31:29Z</time>
      </trkpt>
      <trkpt lat="41.324950" lon="-4.459483">
        <ele>2266.0</ele>
        <time>2016-07-12T15:31:30Z</time>
      </trkpt>
      <trkpt lat="41.324850" lon="-4.459350">
        <ele>2263.0</ele>
        <time>2016-07-12T15:31:31Z</time>
      </trkpt>
      <trkpt lat="41.324733" lon="-4.459217">
        <ele>2259.0</ele>
        <time>2016-07-12T15:31:32Z</time>
      </trkpt>
      <trkpt lat="41.324617" lon="-4.459083">
        <ele>2256.0</ele>
        <time>2016-07-12T15:31:33Z</time>
      </trkpt>
      <trkpt lat="41.324500" lon="-4.458950">
        <ele>2252.0</ele>
        <time>2016-07-12T15:31:34Z</time>
      </trkpt>
      <trkpt lat="41.324383" lon="-4.458833">
        <ele>2249.0</ele>
        <time>2016-07-12T15:31:35Z</time>
      </trkpt>
      <trkpt lat="41.324267" lon="-4.458700">
        <ele>2246.0</ele>
        <time>2016-07-12T15:31:36Z</time>
      </trkpt>
      <trkpt lat="41.324150" lon="-4.458583">
        <ele>2243.0</ele>
        <time>2016-07-12T15:31:37Z</time>
      </trkpt>
      <trkpt lat="41.324033" lon="-4.458467">
        <ele>2240.0</ele>
        <time>2016-07-12T15:31:38Z</time>
      </trkpt>
      <trkpt lat="41.323917" lon="-4.458350">
        <ele>2237.0</ele>
        <time>2016-07-12T15:31:39Z</time>
      </trkpt>
      <trkpt lat="41.323783" lon="-4.458233">
        <ele>2234.0</ele>
        <time>2016-07-12T15:31:40Z</time>
      </trkpt>
      <trkpt lat="41.323667" lon="-4.458117">
        <ele>2230.0</ele>
        <time>2016-07-12T15:31:41Z</time>
      </trkpt>
      <trkpt lat="41.323533" lon="-4.457983">
        <ele>2228.0</ele>
        <time>2016-07-12T15:31:42Z</time>
      </trkpt>
      <trkpt lat="41.323433" lon="-4.457867">
        <ele>2225.0</ele>
        <time>2016-07-12T15:31:43Z</time>
      </trkpt>
      <trkpt lat="41.323317" lon="-4.457733">
        <ele>2222.0</ele>
        <time>2016-07-12T15:31:44Z</time>
      </trkpt>
      <trkpt lat="41.323200" lon="-4.457617">
        <ele>2219.0</ele>
        <time>2016-07-12T15:31:45Z</time>
      </trkpt>
      <trkpt lat="41.323100" lon="-4.457483">
        <ele>2216.0</ele>
        <time>2016-07-12T15:31:46Z</time>
      </trkpt>
      <trkpt lat="41.322983" lon="-4.457350">
        <ele>2213.0</ele>
        <time>2016-07-12T15:31:47Z</time>
      </trkpt>
      <trkpt lat="41.322867" lon="-4.457200">
        <ele>2209.0</ele>
        <time>2016-07-12T15:31:48Z</time>
      </trkpt>
      <trkpt lat="41.322767" lon="-4.457067">
        <ele>2206.0</ele>
        <time>2016-07-12T15:31:49Z</time>
      </trkpt>
      <trkpt lat="41.322650" lon="-4.456917">
        <ele>2203.0</ele>
        <time>2016-07-12T15:31:50Z</time>
      </trkpt>
      <trkpt lat="41.322550" lon="-4.456767">
        <ele>2200.0</ele>
        <time>2016-07-12T15:31:51Z</time>
      </trkpt>
      <trkpt lat="41.322433" lon="-4.456600">
        <ele>2196.0</ele>
        <time>2016-07-12T15:31:52Z</time>
      </trkpt>
      <trkpt lat="41.322333" lon="-4.456450">
        <ele>2193.0</ele>
        <time>2016-07-12T15:31:53Z</time>
      </trkpt>
      <trkpt lat="41.322233" lon="-4.456283">
        <ele>2191.0</ele>
        <time>2016-07-12T15:31:54Z</time>
      </trkpt>
      <trkpt lat="41.322117" lon="-4.456133">
        <ele>2188.0</ele>
        <time>2016-07-12T15:31:55Z</time>
      </trkpt>
      <trkpt lat="41.322017" lon="-4.455983">
        <ele>2186.0</ele>
        <time>2016-07-12T15:31:56Z</time>
      </trkpt>
      <trkpt lat="41.321900" lon="-4.455833">
        <ele>2184.0</ele>
        <time>2016-07-12T15:31:57Z</time>
      </trkpt>
      <trkpt lat="41.321800" lon="-4.455683">
        <ele>2181.0</ele>
        <time>2016-07-12T15:31:58Z</time>
      </trkpt>
      <trkpt lat="41.321683" lon="-4.455533">
        <ele>2178.0</ele>
        <time>2016-07-12T15:31:59Z</time>
      </trkpt>
      <trkpt lat="41.321583" lon="-4.455383">
        <ele>2176.0</ele>
        <time>2016-07-12T15:32:00Z</time>
      </trkpt>
      <trkpt lat="41.321483" lon="-4.455233">
        <ele>2174.0</ele>
        <time>2016-07-12T15:32:01Z</time>
      </trkpt>
      <trkpt lat="41.321367" lon="-4.455100">
        <ele>2172.0</ele>
        <time>2016-07-12T15:32:02Z</time>
      </trkpt>
      <trkpt lat="41.321267" lon="-4.454967">
        <ele>2170.0</ele>
        <time>2016-07-12T15:32:03Z</time>
      </trkpt>
      <trkpt lat="41.321150" lon="-4.454817">
        <ele>2169.0</ele>
        <time>2016-07-12T15:32:04Z</time>
      </trkpt>
      <trkpt lat="41.321050" lon="-4.454683">
        <ele>2167.0</ele>
        <time>2016-07-12T15:32:05Z</time>
      </trkpt>
      <trkpt lat="41.320950" lon="-4.454550">
        <ele>2164.0</ele>
        <time>2016-07-12T15:32:06Z</time>
      </trkpt>
      <trkpt lat="41.320850" lon="-4.454417">
        <ele>2161.0</ele>
        <time>2016-07-12T15:32:07Z</time>
      </trkpt>
      <trkpt lat="41.320733" lon="-4.454283">
        <ele>2159.0</ele>
        <time>2016-07-12T15:32:08Z</time>
      </trkpt>
      <trkpt lat="41.320617" lon="-4.454167">
        <ele>2155.0</ele>
        <time>2016-07-12T15:32:09Z</time>
      </trkpt>
      <trkpt lat="41.320500" lon="-4.454033">
        <ele>2152.0</ele>
        <time>2016-07-12T15:32:10Z</time>
      </trkpt>
      <trkpt lat="41.320383" lon="-4.453900">
        <ele>2149.0</ele>
        <time>2016-07-12T15:32:11Z</time>
      </trkpt>
      <trkpt lat="41.320283" lon="-4.453767">
        <ele>2147.0</ele>
        <time>2016-07-12T15:32:12Z</time>
      </trkpt>
      <trkpt lat="41.320167" lon="-4.453617">
        <ele>2145.0</ele>
        <time>2016-07-12T15:32:13Z</time>
      </trkpt>
      <trkpt lat="41.320067" lon="-4.453483">
        <ele>2142.0</ele>
        <time>2016-07-12T15:32:14Z</time>
      </trkpt>
      <trkpt lat="41.319967" lon="-4.453333">
        <ele>2140.0</ele>
        <time>2016-07-12T15:32:15Z</time>
      </trkpt>
      <trkpt lat="41.319867" lon="-4.453183">
        <ele>2138.0</ele>
        <time>2016-07-12T15:32:16Z</time>
      </trkpt>
      <trkpt lat="41.319767" lon="-4.453033">
        <ele>2136.0</ele>
        <time>2016-07-12T15:32:17Z</time>
      </trkpt>
      <trkpt lat="41.319667" lon="-4.452883">
        <ele>2133.0</ele>
        <time>2016-07-12T15:32:18Z</time>
      </trkpt>
      <trkpt lat="41.319567" lon="-4.452733">
        <ele>2131.0</ele>
        <time>2016-07-12T15:32:19Z</time>
      </trkpt>
      <trkpt lat="41.319467" lon="-4.452583">
        <ele>2129.0</ele>
        <time>2016-07-12T15:32:20Z</time>
      </trkpt>
      <trkpt lat="41.319367" lon="-4.452433">
        <ele>2127.0</ele>
        <time>2016-07-12T15:32:21Z</time>
      </trkpt>
      <trkpt lat="41.319283" lon="-4.452283">
        <ele>2125.0</ele>
        <time>2016-07-12T15:32:22Z</time>
      </trkpt>
      <trkpt lat="41.319183" lon="-4.452133">
        <ele>2122.0</ele>
        <time>2016-07-12T15:32:23Z</time>
      </trkpt>
      <trkpt lat="41.319083" lon="-4.451967">
        <ele>2120.0</ele>
        <time>2016-07-12T15:32:24Z</time>
      </trkpt>
      <trkpt lat="41.319000" lon="-4.451817">
        <ele>2117.0</ele>
        <time>2016-07-12T15:32:25Z</time>
      </trkpt>
      <trkpt lat="41.318900" lon="-4.451667">
        <ele>2115.0</ele>
        <time>2016-07-12T15:32:26Z</time>
      </trkpt>
      <trkpt lat="41.318817" lon="-4.451517">
        <ele>2113.0</ele>
        <time>2016-07-12T15:32:27Z</time>
      </trkpt>
      <trkpt lat="41.318717" lon="-4.451367">
        <ele>2111.0</ele>
        <time>2016-07-12T15:32:28Z</time>
      </trkpt>
      <trkpt lat="41.318633" lon="-4.451217">
        <ele>2109.0</ele>
        <time>2016-07-12T15:32:29Z</time>
      </trkpt>
      <trkpt lat="41.318550" lon="-4.451067">
        <ele>2106.0</ele>
        <time>2016-07-12T15:32:30Z</time>
      </trkpt>
      <trkpt lat="41.318467" lon="-4.450900">
        <ele>2103.0</ele>
        <time>2016-07-12T15:32:31Z</time>
      </trkpt>
      <trkpt lat="41.318367" lon="-4.450733">
        <ele>2101.0</ele>
        <time>2016-07-12T15:32:32Z</time>
      </trkpt>
      <trkpt lat="41.318283" lon="-4.450583">
        <ele>2099.0</ele>
        <time>2016-07-12T15:32:33Z</time>
      </trkpt>
      <trkpt lat="41.318183" lon="-4.450417">
        <ele>2097.0</ele>
        <time>2016-07-12T15:32:34Z</time>
      </trkpt>
      <trkpt lat="41.318100" lon="-4.450267">
        <ele>2095.0</ele>
        <time>2016-07-12T15:32:35Z</time>
      </trkpt>
      <trkpt lat="41.318017" lon="-4.450100">
        <ele>2093.0</ele>
        <time>2016-07-12T15:32:36Z</time>
      </trkpt>
      <trkpt lat="41.317933" lon="-4.449933">
        <ele>2090.0</ele>
        <time>2016-07-12T15:32:37Z</time>
      </trkpt>
      <trkpt lat="41.317850" lon="-4.449783">
        <ele>2088.0</ele>
        <time>2016-07-12T15:32:38Z</time>
      </trkpt>
      <trkpt lat="41.317767" lon="-4.449617">
        <ele>2086.0</ele>
        <time>2016-07-12T15:32:39Z</time>
      </trkpt>
      <trkpt lat="41.317683" lon="-4.449450">
        <ele>2084.0</ele>
        <time>2016-07-12T15:32:40Z</time>
      </trkpt>
      <trkpt lat="41.317600" lon="-4.449300">
        <ele>2082.0</ele>
        <time>2016-07-12T15:32:41Z</time>
      </trkpt>
      <trkpt lat="41.317500" lon="-4.449133">
        <ele>2079.0</ele>
        <time>2016-07-12T15:32:42Z</time>
      </trkpt>
      <trkpt lat="41.317417" lon="-4.448967">
        <ele>2077.0</ele>
        <time>2016-07-12T15:32:43Z</time>
      </trkpt>
      <trkpt lat="41.317317" lon="-4.448817">
        <ele>2074.0</ele>
        <time>2016-07-12T15:32:44Z</time>
      </trkpt>
      <trkpt lat="41.317233" lon="-4.448650">
        <ele>2071.0</ele>
        <time>2016-07-12T15:32:45Z</time>
      </trkpt>
      <trkpt lat="41.317133" lon="-4.448483">
        <ele>2069.0</ele>
        <time>2016-07-12T15:32:46Z</time>
      </trkpt>
      <trkpt lat="41.317050" lon="-4.448333">
        <ele>2067.0</ele>
        <time>2016-07-12T15:32:47Z</time>
      </trkpt>
      <trkpt lat="41.316950" lon="-4.448183">
        <ele>2064.0</ele>
        <time>2016-07-12T15:32:48Z</time>
      </trkpt>
      <trkpt lat="41.316867" lon="-4.448050">
        <ele>2062.0</ele>
        <time>2016-07-12T15:32:49Z</time>
      </trkpt>
      <trkpt lat="41.316783" lon="-4.447917">
        <ele>2059.0</ele>
        <time>2016-07-12T15:32:50Z</time>
      </trkpt>
      <trkpt lat="41.316700" lon="-4.447783">
        <ele>2055.0</ele>
        <time>2016-07-12T15:32:51Z</time>
      </trkpt>
      <trkpt lat="41.316617" lon="-4.447633">
        <ele>2051.0</ele>
        <time>2016-07-12T15:32:52Z</time>
      </trkpt>
      <trkpt lat="41.316533" lon="-4.447483">
        <ele>2047.0</ele>
        <time>2016-07-12T15:32:53Z</time>
      </trkpt>
      <trkpt lat="41.316433" lon="-4.447333">
        <ele>2044.0</ele>
        <time>2016-07-12T15:32:54Z</time>
      </trkpt>
      <trkpt lat="41.316350" lon="-4.447183">
        <ele>2040.0</ele>
        <time>2016-07-12T15:32:55Z</time>
      </trkpt>
      <trkpt lat="41.316250" lon="-4.447033">
        <ele>2037.0</ele>
        <time>2016-07-12T15:32:56Z</time>
      </trkpt>
      <trkpt lat="41.316150" lon="-4.446900">
        <ele>2033.0</ele>
        <time>2016-07-12T15:32:57Z</time>
      </trkpt>
      <trkpt lat="41.316067" lon="-4.446750">
        <ele>2029.0</ele>
        <time>2016-07-12T15:32:58Z</time>
      </trkpt>
      <trkpt lat="41.315967" lon="-4.446617">
        <ele>2025.0</ele>
        <time>2016-07-12T15:32:59Z</time>
      </trkpt>
      <trkpt lat="41.315883" lon="-4.446467">
        <ele>2021.0</ele>
        <time>2016-07-12T15:33:00Z</time>
      </trkpt>
      <trkpt lat="41.315800" lon="-4.446317">
        <ele>2017.0</ele>
        <time>2016-07-12T15:33:01Z</time>
      </trkpt>
      <trkpt lat="41.315700" lon="-4.446167">
        <ele>2013.0</ele>
        <time>2016-07-12T15:33:02Z</time>
      </trkpt>
      <trkpt lat="41.315617" lon="-4.446017">
        <ele>2009.0</ele>
        <time>2016-07-12T15:33:03Z</time>
      </trkpt>
      <trkpt lat="41.315517" lon="-4.445867">
        <ele>2006.0</ele>
        <time>2016-07-12T15:33:04Z</time>
      </trkpt>
      <trkpt lat="41.315417" lon="-4.445733">
        <ele>2004.0</ele>
        <time>2016-07-12T15:33:05Z</time>
      </trkpt>
      <trkpt lat="41.315317" lon="-4.445583">
        <ele>2002.0</ele>
        <time>2016-07-12T15:33:06Z</time>
      </trkpt>
      <trkpt lat="41.315217" lon="-4.445433">
        <ele>2000.0</ele>
        <time>2016-07-12T15:33:07Z</time>
      </trkpt>
      <trkpt lat="41.315117" lon="-4.445300">
        <ele>1999.0</ele>
        <time>2016-07-12T15:33:08Z</time>
      </trkpt>
      <trkpt lat="41.315017" lon="-4.445167">
        <ele>1998.0</ele>
        <time>2016-07-12T15:33:09Z</time>
      </trkpt>
      <trkpt lat="41.314933" lon="-4.445033">
        <ele>1997.0</ele>
        <time>2016-07-12T15:33:10Z</time>
      </trkpt>
      <trkpt lat="41.314833" lon="-4.444883">
        <ele>1996.0</ele>
        <time>2016-07-12T15:33:11Z</time>
      </trkpt>
      <trkpt lat="41.314733" lon="-4.444750">
        <ele>1996.0</ele>
        <time>2016-07-12T15:33:12Z</time>
      </trkpt>
      <trkpt lat="41.314633" lon="-4.444617">
        <ele>1995.0</ele>
        <time>2016-07-12T15:33:13Z</time>
      </trkpt>
      <trkpt lat="41.314550" lon="-4.444483">
        <ele>1993.0</ele>
        <time>2016-07-12T15:33:14Z</time>
      </trkpt>
      <trkpt lat="41.314450" lon="-4.444350">
        <ele>1992.0</ele>
        <time>2016-07-12T15:33:15Z</time>
      </trkpt>
      <trkpt lat="41.314367" lon="-4.444217">
        <ele>1991.0</ele>
        <time>2016-07-12T15:33:16Z</time>
      </trkpt>
      <trkpt lat="41.314283" lon="-4.444083">
        <ele>1990.0</ele>
        <time>2016-07-12T15:33:17Z</time>
      </trkpt>
      <trkpt lat="41.314217" lon="-4.443950">
        <ele>1989.0</ele>
        <time>2016-07-12T15:33:18Z</time>
      </trkpt>
      <trkpt lat="41.314133" lon="-4.443833">
        <ele>1986.0</ele>
        <time>2016-07-12T15:33:19Z</time>
      </trkpt>
      <trkpt lat="41.314050" lon="-4.443700">
        <ele>1983.0</ele>
        <time>2016-07-12T15:33:20Z</time>
      </trkpt>
      <trkpt lat="41.313950" lon="-4.443567">
        <ele>1980.0</ele>
        <time>2016-07-12T15:33:21Z</time>
      </trkpt>
      <trkpt lat="41.313867" lon="-4.443417">
        <ele>1977.0</ele>
        <time>2016-07-12T15:33:22Z</time>
      </trkpt>
      <trkpt lat="41.313783" lon="-4.443283">
        <ele>1975.0</ele>
        <time>2016-07-12T15:33:23Z</time>
      </trkpt>
      <trkpt lat="41.313700" lon="-4.443150">
        <ele>1974.0</ele>
        <time>2016-07-12T15:33:24Z</time>
      </trkpt>
      <trkpt lat="41.313617" lon="-4.443017">
        <ele>1973.0</ele>
        <time>2016-07-12T15:33:25Z</time>
      </trkpt>
      <trkpt lat="41.313533" lon="-4.442900">
        <ele>1971.0</ele>
        <time>2016-07-12T15:33:26Z</time>
      </trkpt>
      <trkpt lat="41.313450" lon="-4.442767">
        <ele>1969.0</ele>
        <time>2016-07-12T15:33:27Z</time>
      </trkpt>
      <trkpt lat="41.313367" lon="-4.442633">
        <ele>1966.0</ele>
        <time>2016-07-12T15:33:28Z</time>
      </trkpt>
      <trkpt lat="41.313283" lon="-4.442500">
        <ele>1964.0</ele>
        <time>2016-07-12T15:33:29Z</time>
      </trkpt>
      <trkpt lat="41.313183" lon="-4.442350">
        <ele>1962.0</ele>
        <time>2016-07-12T15:33:30Z</time>
      </trkpt>
      <trkpt lat="41.313100" lon="-4.442217">
        <ele>1961.0</ele>
        <time>2016-07-12T15:33:31Z</time>
      </trkpt>
      <trkpt lat="41.313017" lon="-4.442083">
        <ele>1959.0</ele>
        <time>2016-07-12T15:33:32Z</time>
      </trkpt>
      <trkpt lat="41.312933" lon="-4.441950">
        <ele>1957.0</ele>
        <time>2016-07-12T15:33:33Z</time>
      </trkpt>
      <trkpt lat="41.312850" lon="-4.441833">
        <ele>1955.0</ele>
        <time>2016-07-12T15:33:34Z</time>
      </trkpt>
      <trkpt lat="41.312750" lon="-4.441700">
        <ele>1952.0</ele>
        <time>2016-07-12T15:33:35Z</time>
      </trkpt>
      <trkpt lat="41.312650" lon="-4.441567">
        <ele>1949.0</ele>
        <time>2016-07-12T15:33:36Z</time>
      </trkpt>
      <trkpt lat="41.312550" lon="-4.441433">
        <ele>1947.0</ele>
        <time>2016-07-12T15:33:37Z</time>
      </trkpt>
      <trkpt lat="41.312467" lon="-4.441300">
        <ele>1945.0</ele>
        <time>2016-07-12T15:33:38Z</time>
      </trkpt>
      <trkpt lat="41.312383" lon="-4.441183">
        <ele>1943.0</ele>
        <time>2016-07-12T15:33:39Z</time>
      </trkpt>
      <trkpt lat="41.312317" lon="-4.441067">
        <ele>1940.0</ele>
        <time>2016-07-12T15:33:40Z</time>
      </trkpt>
      <trkpt lat="41.312233" lon="-4.440950">
        <ele>1937.0</ele>
        <time>2016-07-12T15:33:41Z</time>
      </trkpt>
      <trkpt lat="41.312150" lon="-4.440833">
        <ele>1932.0</ele>
        <time>2016-07-12T15:33:42Z</time>
      </trkpt>
      <trkpt lat="41.312067" lon="-4.440683">
        <ele>1928.0</ele>
        <time>2016-07-12T15:33:43Z</time>
      </trkpt>
      <trkpt lat="41.311983" lon="-4.440550">
        <ele>1924.0</ele>
        <time>2016-07-12T15:33:44Z</time>
      </trkpt>
      <trkpt lat="41.311900" lon="-4.440417">
        <ele>1922.0</ele>
        <time>2016-07-12T15:33:45Z</time>
      </trkpt>
      <trkpt lat="41.311833" lon="-4.440283">
        <ele>1920.0</ele>
        <time>2016-07-12T15:33:46Z</time>
      </trkpt>
      <trkpt lat="41.311750" lon="-4.440167">
        <ele>1918.0</ele>
        <time>2016-07-12T15:33:47Z</time>
      </trkpt>
      <trkpt lat="41.311683" lon="-4.440033">
        <ele>1916.0</ele>
        <time>2016-07-12T15:33:48Z</time>
      </trkpt>
      <trkpt lat="41.311600" lon="-4.439900">
        <ele>1913.0</ele>
        <time>2016-07-12T15:33:49Z</time>
      </trkpt>
      <trkpt lat="41.311517" lon="-4.439750">
        <ele>1910.0</ele>
        <time>2016-07-12T15:33:50Z</time>
      </trkpt>
      <trkpt lat="41.311433" lon="-4.439617">
        <ele>1907.0</ele>
        <time>2016-07-12T15:33:51Z</time>
      </trkpt>
      <trkpt lat="41.311367" lon="-4.439467">
        <ele>1905.0</ele>
        <time>2016-07-12T15:33:52Z</time>
      </trkpt>
      <trkpt lat="41.311300" lon="-4.439317">
        <ele>1904.0</ele>
        <time>2016-07-12T15:33:53Z</time>
      </trkpt>
      <trkpt lat="41.311233" lon="-4.439167">
        <ele>1903.0</ele>
        <time>2016-07-12T15:33:54Z</time>
      </trkpt>
      <trkpt lat="41.311150" lon="-4.439033">
        <ele>1903.0</ele>
        <time>2016-07-12T15:33:55Z</time>
      </trkpt>
      <trkpt lat="41.311083" lon="-4.438883">
        <ele>1902.0</ele>
        <time>2016-07-12T15:33:56Z</time>
      </trkpt>
      <trkpt lat="41.311000" lon="-4.438750">
        <ele>1901.0</ele>
        <time>2016-07-12T15:33:57Z</time>
      </trkpt>
      <trkpt lat="41.310917" lon="-4.438617">
        <ele>1899.0</ele>
        <time>2016-07-12T15:33:58Z</time>
      </trkpt>
      <trkpt lat="41.310850" lon="-4.438483">
        <ele>1898.0</ele>
        <time>2016-07-12T15:33:59Z</time>
      </trkpt>
      <trkpt lat="41.310783" lon="-4.438333">
        <ele>1897.0</ele>
        <time>2016-07-12T15:34:00Z</time>
      </trkpt>
      <trkpt lat="41.310717" lon="-4.438200">
        <ele>1896.0</ele>
        <time>2016-07-12T15:34:01Z</time>
      </trkpt>
      <trkpt lat="41.310650" lon="-4.438067">
        <ele>1895.0</ele>
        <time>2016-07-12T15:34:02Z</time>
      </trkpt>
      <trkpt lat="41.310583" lon="-4.437933">
        <ele>1892.0</ele>
        <time>2016-07-12T15:34:03Z</time>
      </trkpt>
      <trkpt lat="41.310500" lon="-4.437800">
        <ele>1889.0</ele>
        <time>2016-07-12T15:34:04Z</time>
      </trkpt>
      <trkpt lat="41.310433" lon="-4.437633">
        <ele>1885.0</ele>
        <time>2016-07-12T15:34:05Z</time>
      </trkpt>
      <trkpt lat="41.310350" lon="-4.437483">
        <ele>1882.0</ele>
        <time>2016-07-12T15:34:06Z</time>
      </trkpt>
      <trkpt lat="41.310283" lon="-4.437317">
        <ele>1881.0</ele>
        <time>2016-07-12T15:34:07Z</time>
      </trkpt>
      <trkpt lat="41.310217" lon="-4.437167">
        <ele>1880.0</ele>
        <time>2016-07-12T15:34:08Z</time>
      </trkpt>
      <trkpt lat="41.310150" lon="-4.437017">
        <ele>1880.0</ele>
        <time>2016-07-12T15:34:09Z</time>
      </trkpt>
      <trkpt lat="41.310083" lon="-4.436900">
        <ele>1879.0</ele>
        <time>2016-07-12T15:34:10Z</time>
      </trkpt>
      <trkpt lat="41.310033" lon="-4.436750">
        <ele>1878.0</ele>
        <time>2016-07-12T15:34:11Z</time>
      </trkpt>
      <trkpt lat="41.309967" lon="-4.436617">
        <ele>1875.0</ele>
        <time>2016-07-12T15:34:12Z</time>
      </trkpt>
      <trkpt lat="41.309917" lon="-4.436450">
        <ele>1871.0</ele>
        <time>2016-07-12T15:34:13Z</time>
      </trkpt>
      <trkpt lat="41.309850" lon="-4.436283">
        <ele>1869.0</ele>
        <time>2016-07-12T15:34:14Z</time>
      </trkpt>
      <trkpt lat="41.309783" lon="-4.436133">
        <ele>1868.0</ele>
        <time>2016-07-12T15:34:15Z</time>
      </trkpt>
      <trkpt lat="41.309717" lon="-4.435983">
        <ele>1867.0</ele>
        <time>2016-07-12T15:34:16Z</time>
      </trkpt>
      <trkpt lat="41.309650" lon="-4.435833">
        <ele>1865.0</ele>
        <time>2016-07-12T15:34:17Z</time>
      </trkpt>
      <trkpt lat="41.309583" lon="-4.435683">
        <ele>1863.0</ele>
        <time>2016-07-12T15:34:18Z</time>
      </trkpt>
      <trkpt lat="41.309517" lon="-4.435533">
        <ele>1860.0</ele>
        <time>2016-07-12T15:34:19Z</time>
      </trkpt>
      <trkpt lat="41.309433" lon="-4.435383">
        <ele>1857.0</ele>
        <time>2016-07-12T15:34:20Z</time>
      </trkpt>
      <trkpt lat="41.309350" lon="-4.435217">
        <ele>1854.0</ele>
        <time>2016-07-12T15:34:21Z</time>
      </trkpt>
      <trkpt lat="41.309267" lon="-4.435067">
        <ele>1853.0</ele>
        <time>2016-07-12T15:34:22Z</time>
      </trkpt>
      <trkpt lat="41.309183" lon="-4.434900">
        <ele>1853.0</ele>
        <time>2016-07-12T15:34:23Z</time>
      </trkpt>
      <trkpt lat="41.309117" lon="-4.434733">
        <ele>1853.0</ele>
        <time>2016-07-12T15:34:24Z</time>
      </trkpt>
      <trkpt lat="41.309050" lon="-4.434583">
        <ele>1853.0</ele>
        <time>2016-07-12T15:34:25Z</time>
      </trkpt>
      <trkpt lat="41.308983" lon="-4.434433">
        <ele>1853.0</ele>
        <time>2016-07-12T15:34:26Z</time>
      </trkpt>
      <trkpt lat="41.308933" lon="-4.434283">
        <ele>1853.0</ele>
        <time>2016-07-12T15:34:27Z</time>
      </trkpt>
      <trkpt lat="41.308900" lon="-4.434133">
        <ele>1853.0</ele>
        <time>2016-07-12T15:34:28Z</time>
      </trkpt>
      <trkpt lat="41.308867" lon="-4.433967">
        <ele>1854.0</ele>
        <time>2016-07-12T15:34:29Z</time>
      </trkpt>
      <trkpt lat="41.308817" lon="-4.433800">
        <ele>1855.0</ele>
        <time>2016-07-12T15:34:30Z</time>
      </trkpt>
      <trkpt lat="41.308767" lon="-4.433650">
        <ele>1856.0</ele>
        <time>2016-07-12T15:34:31Z</time>
      </trkpt>
      <trkpt lat="41.308733" lon="-4.433517">
        <ele>1857.0</ele>
        <time>2016-07-12T15:34:32Z</time>
      </trkpt>
      <trkpt lat="41.308717" lon="-4.433367">
        <ele>1858.0</ele>
        <time>2016-07-12T15:34:33Z</time>
      </trkpt>
      <trkpt lat="41.308667" lon="-4.433233">
        <ele>1858.0</ele>
        <time>2016-07-12T15:34:34Z</time>
      </trkpt>
      <trkpt lat="41.308633" lon="-4.433117">
        <ele>1858.0</ele>
        <time>2016-07-12T15:34:35Z</time>
      </trkpt>
      <trkpt lat="41.308567" lon="-4.433000">
        <ele>1858.0</ele>
        <time>2016-07-12T15:34:36Z</time>
      </trkpt>
      <trkpt lat="41.308500" lon="-4.432867">
        <ele>1857.0</ele>
        <time>2016-07-12T15:34:37Z</time>
      </trkpt>
      <trkpt lat="41.308433" lon="-4.432733">
        <ele>1857.0</ele>
        <time>2016-07-12T15:34:38Z</time>
      </trkpt>
      <trkpt lat="41.308350" lon="-4.432617">
        <ele>1856.0</ele>
        <time>2016-07-12T15:34:39Z</time>
      </trkpt>
      <trkpt lat="41.308267" lon="-4.432483">
        <ele>1856.0</ele>
        <time>2016-07-12T15:34:40Z</time>
      </trkpt>
      <trkpt lat="41.308183" lon="-4.432350">
        <ele>1857.0</ele>
        <time>2016-07-12T15:34:41Z</time>
      </trkpt>
      <trkpt lat="41.308100" lon="-4.432217">
        <ele>1856.0</ele>
        <time>2016-07-12T15:34:42Z</time>
      </trkpt>
      <trkpt lat="41.308050" lon="-4.432067">
        <ele>1857.0</ele>
        <time>2016-07-12T15:34:43Z</time>
      </trkpt>
      <trkpt lat="41.307967" lon="-4.431933">
        <ele>1857.0</ele>
        <time>2016-07-12T15:34:44Z</time>
      </trkpt>
      <trkpt lat="41.307900" lon="-4.431783">
        <ele>1857.0</ele>
        <time>2016-07-12T15:34:45Z</time>
      </trkpt>
      <trkpt lat="41.307817" lon="-4.431633">
        <ele>1858.0</ele>
        <time>2016-07-12T15:34:46Z</time>
      </trkpt>
      <trkpt lat="41.307750" lon="-4.431500">
        <ele>1860.0</ele>
        <time>2016-07-12T15:34:47Z</time>
      </trkpt>
      <trkpt lat="41.307683" lon="-4.431350">
        <ele>1862.0</ele>
        <time>2016-07-12T15:34:48Z</time>
      </trkpt>
      <trkpt lat="41.307617" lon="-4.431217">
        <ele>1863.0</ele>
        <time>2016-07-12T15:34:49Z</time>
      </trkpt>
      <trkpt lat="41.307567" lon="-4.431100">
        <ele>1864.0</ele>
        <time>2016-07-12T15:34:50Z</time>
      </trkpt>
      <trkpt lat="41.307483" lon="-4.430950">
        <ele>1864.0</ele>
        <time>2016-07-12T15:34:51Z</time>
      </trkpt>
      <trkpt lat="41.307417" lon="-4.430817">
        <ele>1864.0</ele>
        <time>2016-07-12T15:34:52Z</time>
      </trkpt>
      <trkpt lat="41.307350" lon="-4.430667">
        <ele>1864.0</ele>
        <time>2016-07-12T15:34:53Z</time>
      </trkpt>
      <trkpt lat="41.307267" lon="-4.430533">
        <ele>1866.0</ele>
        <time>2016-07-12T15:34:54Z</time>
      </trkpt>
      <trkpt lat="41.307200" lon="-4.430417">
        <ele>1868.0</ele>
        <time>2016-07-12T15:34:55Z</time>
      </trkpt>
      <trkpt lat="41.307133" lon="-4.430333">
        <ele>1869.0</ele>
        <time>2016-07-12T15:34:56Z</time>
      </trkpt>
      <trkpt lat="41.307067" lon="-4.430233">
        <ele>1870.0</ele>
        <time>2016-07-12T15:34:57Z</time>
      </trkpt>
      <trkpt lat="41.307000" lon="-4.430133">
        <ele>1869.0</ele>
        <time>2016-07-12T15:34:58Z</time>
      </trkpt>
      <trkpt lat="41.306917" lon="-4.430017">
        <ele>1868.0</ele>
        <time>2016-07-12T15:34:59Z</time>
      </trkpt>
      <trkpt lat="41.306833" lon="-4.429933">
        <ele>1868.0</ele>
        <time>2016-07-12T15:35:00Z</time>
      </trkpt>
      <trkpt lat="41.306733" lon="-4.429867">
        <ele>1867.0</ele>
        <time>2016-07-12T15:35:01Z</time>
      </trkpt>
      <trkpt lat="41.306633" lon="-4.429817">
        <ele>1866.0</ele>
        <time>2016-07-12T15:35:02Z</time>
      </trkpt>
      <trkpt lat="41.306517" lon="-4.429767">
        <ele>1865.0</ele>
        <time>2016-07-12T15:35:03Z</time>
      </trkpt>
      <trkpt lat="41.306400" lon="-4.429750">
        <ele>1866.0</ele>
        <time>2016-07-12T15:35:04Z</time>
      </trkpt>
      <trkpt lat="41.306300" lon="-4.429717">
        <ele>1867.0</ele>
        <time>2016-07-12T15:35:05Z</time>
      </trkpt>
      <trkpt lat="41.306200" lon="-4.429700">
        <ele>1867.0</ele>
        <time>2016-07-12T15:35:06Z</time>
      </trkpt>
      <trkpt lat="41.306100" lon="-4.429683">
        <ele>1868.0</ele>
        <time>2016-07-12T15:35:07Z</time>
      </trkpt>
      <trkpt lat="41.305983" lon="-4.429700">
        <ele>1867.0</ele>
        <time>2016-07-12T15:35:08Z</time>
      </trkpt>
      <trkpt lat="41.305867" lon="-4.429717">
        <ele>1867.0</ele>
        <time>2016-07-12T15:35:09Z</time>
      </trkpt>
      <trkpt lat="41.305767" lon="-4.429767">
        <ele>1868.0</ele>
        <time>2016-07-12T15:35:10Z</time>
      </trkpt>
      <trkpt lat="41.305667" lon="-4.429817">
        <ele>1869.0</ele>
        <time>2016-07-12T15:35:11Z</time>
      </trkpt>
      <trkpt lat="41.305583" lon="-4.429883">
        <ele>1868.0</ele>
        <time>2016-07-12T15:35:12Z</time>
      </trkpt>
      <trkpt lat="41.305500" lon="-4.429950">
        <ele>1868.0</ele>
        <time>2016-07-12T15:35:13Z</time>
      </trkpt>
      <trkpt lat="41.305400" lon="-4.430033">
        <ele>1866.0</ele>
        <time>2016-07-12T15:35:14Z</time>
      </trkpt>
      <trkpt lat="41.305300" lon="-4.430117">
        <ele>1865.0</ele>
        <time>2016-07-12T15:35:15Z</time>
      </trkpt>
      <trkpt lat="41.305200" lon="-4.430183">
        <ele>1865.0</ele>
        <time>2016-07-12T15:35:16Z</time>
      </trkpt>
      <trkpt lat="41.305117" lon="-4.430283">
        <ele>1865.0</ele>
        <time>2016-07-12T15:35:17Z</time>
      </trkpt>
      <trkpt lat="41.305050" lon="-4.430367">
        <ele>1866.0</ele>
        <time>2016-07-12T15:35:18Z</time>
      </trkpt>
      <trkpt lat="41.305000" lon="-4.430483">
        <ele>1865.0</ele>
        <time>2016-07-12T15:35:19Z</time>
      </trkpt>
      <trkpt lat="41.304950" lon="-4.430600">
        <ele>1865.0</ele>
        <time>2016-07-12T15:35:20Z</time>
      </trkpt>
      <trkpt lat="41.304900" lon="-4.430717">
        <ele>1866.0</ele>
        <time>2016-07-12T15:35:21Z</time>
      </trkpt>
      <trkpt lat="41.304867" lon="-4.430817">
        <ele>1868.0</ele>
        <time>2016-07-12T15:35:22Z</time>
      </trkpt>
      <trkpt lat="41.304833" lon="-4.430900">
        <ele>1870.0</ele>
        <time>2016-07-12T15:35:23Z</time>
      </trkpt>
      <trkpt lat="41.304800" lon="-4.431000">
        <ele>1871.0</ele>
        <time>2016-07-12T15:35:24Z</time>
      </trkpt>
      <trkpt lat="41.304783" lon="-4.431083">
        <ele>1872.0</ele>
        <time>2016-07-12T15:35:25Z</time>
      </trkpt>
      <trkpt lat="41.304750" lon="-4.431183">
        <ele>1873.0</ele>
        <time>2016-07-12T15:35:26Z</time>
      </trkpt>
      <trkpt lat="41.304717" lon="-4.431283">
        <ele>1873.0</ele>
        <time>2016-07-12T15:35:27Z</time>
      </trkpt>
      <trkpt lat="41.304700" lon="-4.431367">
        <ele>1873.0</ele>
        <time>2016-07-12T15:35:28Z</time>
      </trkpt>
      <trkpt lat="41.304700" lon="-4.431467">
        <ele>1871.0</ele>
        <time>2016-07-12T15:35:29Z</time>
      </trkpt>
      <trkpt lat="41.304700" lon="-4.431567">
        <ele>1870.0</ele>
        <time>2016-07-12T15:35:30Z</time>
      </trkpt>
      <trkpt lat="41.304700" lon="-4.431667">
        <ele>1869.0</ele>
        <time>2016-07-12T15:35:31Z</time>
      </trkpt>
      <trkpt lat="41.304717" lon="-4.431767">
        <ele>1871.0</ele>
        <time>2016-07-12T15:35:32Z</time>
      </trkpt>
      <trkpt lat="41.304750" lon="-4.431833">
        <ele>1872.0</ele>
        <time>2016-07-12T15:35:33Z</time>
      </trkpt>
      <trkpt lat="41.304783" lon="-4.431883">
        <ele>1873.0</ele>
        <time>2016-07-12T15:35:34Z</time>
      </trkpt>
      <trkpt lat="41.304817" lon="-4.431933">
        <ele>1873.0</ele>
        <time>2016-07-12T15:35:35Z</time>
      </trkpt>
      <trkpt lat="41.304850" lon="-4.431983">
        <ele>1873.0</ele>
        <time>2016-07-12T15:35:36Z</time>
      </trkpt>
      <trkpt lat="41.304883" lon="-4.432050">
        <ele>1872.0</ele>
        <time>2016-07-12T15:35:37Z</time>
      </trkpt>
      <trkpt lat="41.304933" lon="-4.432117">
        <ele>1871.0</ele>
        <time>2016-07-12T15:35:38Z</time>
      </trkpt>
      <trkpt lat="41.304967" lon="-4.432167">
        <ele>1870.0</ele>
        <time>2016-07-12T15:35:39Z</time>
      </trkpt>
      <trkpt lat="41.305017" lon="-4.432200">
        <ele>1870.0</ele>
        <time>2016-07-12T15:35:40Z</time>
      </trkpt>
      <trkpt lat="41.305067" lon="-4.432233">
        <ele>1869.0</ele>
        <time>2016-07-12T15:35:41Z</time>
      </trkpt>
      <trkpt lat="41.305117" lon="-4.432250">
        <ele>1868.0</ele>
        <time>2016-07-12T15:35:42Z</time>
      </trkpt>
      <trkpt lat="41.305150" lon="-4.432267">
        <ele>1867.0</ele>
        <time>2016-07-12T15:35:43Z</time>
      </trkpt>
      <trkpt lat="41.305200" lon="-4.432267">
        <ele>1866.0</ele>
        <time>2016-07-12T15:35:44Z</time>
      </trkpt>
      <trkpt lat="41.305250" lon="-4.432250">
        <ele>1864.0</ele>
        <time>2016-07-12T15:35:45Z</time>
      </trkpt>
      <trkpt lat="41.305300" lon="-4.432233">
        <ele>1863.0</ele>
        <time>2016-07-12T15:35:46Z</time>
      </trkpt>
      <trkpt lat="41.305350" lon="-4.432217">
        <ele>1861.0</ele>
        <time>2016-07-12T15:35:47Z</time>
      </trkpt>
      <trkpt lat="41.305400" lon="-4.432183">
        <ele>1860.0</ele>
        <time>2016-07-12T15:35:48Z</time>
      </trkpt>
      <trkpt lat="41.305467" lon="-4.432150">
        <ele>1859.0</ele>
        <time>2016-07-12T15:35:49Z</time>
      </trkpt>
      <trkpt lat="41.305533" lon="-4.432117">
        <ele>1858.0</ele>
        <time>2016-07-12T15:35:50Z</time>
      </trkpt>
      <trkpt lat="41.305600" lon="-4.432100">
        <ele>1859.0</ele>
        <time>2016-07-12T15:35:51Z</time>
      </trkpt>
      <trkpt lat="41.305667" lon="-4.432050">
        <ele>1862.0</ele>
        <time>2016-07-12T15:35:52Z</time>
      </trkpt>
      <trkpt lat="41.305700" lon="-4.432000">
        <ele>1866.0</ele>
        <time>2016-07-12T15:35:53Z</time>
      </trkpt>
      <trkpt lat="41.305733" lon="-4.431967">
        <ele>1869.0</ele>
        <time>2016-07-12T15:35:54Z</time>
      </trkpt>
      <trkpt lat="41.305767" lon="-4.431933">
        <ele>1870.0</ele>
        <time>2016-07-12T15:35:55Z</time>
      </trkpt>
      <trkpt lat="41.305817" lon="-4.431917">
        <ele>1871.0</ele>
        <time>2016-07-12T15:35:56Z</time>
      </trkpt>
      <trkpt lat="41.305883" lon="-4.431900">
        <ele>1872.0</ele>
        <time>2016-07-12T15:35:57Z</time>
      </trkpt>
      <trkpt lat="41.305933" lon="-4.431883">
        <ele>1874.0</ele>
        <time>2016-07-12T15:35:58Z</time>
      </trkpt>
      <trkpt lat="41.305983" lon="-4.431850">
        <ele>1876.0</ele>
        <time>2016-07-12T15:35:59Z</time>
      </trkpt>
      <trkpt lat="41.306033" lon="-4.431800">
        <ele>1880.0</ele>
        <time>2016-07-12T15:36:00Z</time>
      </trkpt>
      <trkpt lat="41.306083" lon="-4.431750">
        <ele>1882.0</ele>
        <time>2016-07-12T15:36:01Z</time>
      </trkpt>
      <trkpt lat="41.306117" lon="-4.431700">
        <ele>1884.0</ele>
        <time>2016-07-12T15:36:02Z</time>
      </trkpt>
      <trkpt lat="41.306167" lon="-4.431667">
        <ele>1885.0</ele>
        <time>2016-07-12T15:36:03Z</time>
      </trkpt>
      <trkpt lat="41.306200" lon="-4.431633">
        <ele>1884.0</ele>
        <time>2016-07-12T15:36:04Z</time>
      </trkpt>
      <trkpt lat="41.306250" lon="-4.431583">
        <ele>1885.0</ele>
        <time>2016-07-12T15:36:05Z</time>
      </trkpt>
      <trkpt lat="41.306300" lon="-4.431517">
        <ele>1884.0</ele>
        <time>2016-07-12T15:36:06Z</time>
      </trkpt>
      <trkpt lat="41.306333" lon="-4.431433">
        <ele>1885.0</ele>
        <time>2016-07-12T15:36:07Z</time>
      </trkpt>
      <trkpt lat="41.306367" lon="-4.431350">
        <ele>1885.0</ele>
        <time>2016-07-12T15:36:08Z</time>
      </trkpt>
      <trkpt lat="41.306417" lon="-4.431267">
        <ele>1885.0</ele>
        <time>2016-07-12T15:36:09Z</time>
      </trkpt>
      <trkpt lat="41.306450" lon="-4.431200">
        <ele>1884.0</ele>
        <time>2016-07-12T15:36:10Z</time>
      </trkpt>
      <trkpt lat="41.306483" lon="-4.431117">
        <ele>1883.0</ele>
        <time>2016-07-12T15:36:11Z</time>
      </trkpt>
      <trkpt lat="41.306517" lon="-4.431017">
        <ele>1883.0</ele>
        <time>2016-07-12T15:36:12Z</time>
      </trkpt>
      <trkpt lat="41.306533" lon="-4.430900">
        <ele>1883.0</ele>
        <time>2016-07-12T15:36:13Z</time>
      </trkpt>
      <trkpt lat="41.306533" lon="-4.430767">
        <ele>1883.0</ele>
        <time>2016-07-12T15:36:14Z</time>
      </trkpt>
      <trkpt lat="41.306500" lon="-4.430633">
        <ele>1884.0</ele>
        <time>2016-07-12T15:36:15Z</time>
      </trkpt>
      <trkpt lat="41.306467" lon="-4.430517">
        <ele>1884.0</ele>
        <time>2016-07-12T15:36:16Z</time>
      </trkpt>
      <trkpt lat="41.306417" lon="-4.430383">
        <ele>1885.0</ele>
        <time>2016-07-12T15:36:17Z</time>
      </trkpt>
      <trkpt lat="41.306367" lon="-4.430267">
        <ele>1886.0</ele>
        <time>2016-07-12T15:36:18Z</time>
      </trkpt>
      <trkpt lat="41.306300" lon="-4.430167">
        <ele>1888.0</ele>
        <time>2016-07-12T15:36:19Z</time>
      </trkpt>
      <trkpt lat="41.306217" lon="-4.430083">
        <ele>1889.0</ele>
        <time>2016-07-12T15:36:20Z</time>
      </trkpt>
      <trkpt lat="41.306117" lon="-4.430000">
        <ele>1891.0</ele>
        <time>2016-07-12T15:36:21Z</time>
      </trkpt>
      <trkpt lat="41.306017" lon="-4.429933">
        <ele>1893.0</ele>
        <time>2016-07-12T15:36:22Z</time>
      </trkpt>
      <trkpt lat="41.305933" lon="-4.429867">
        <ele>1895.0</ele>
        <time>2016-07-12T15:36:23Z</time>
      </trkpt>
      <trkpt lat="41.305833" lon="-4.429800">
        <ele>1896.0</ele>
        <time>2016-07-12T15:36:24Z</time>
      </trkpt>
      <trkpt lat="41.305717" lon="-4.429733">
        <ele>1898.0</ele>
        <time>2016-07-12T15:36:25Z</time>
      </trkpt>
      <trkpt lat="41.305600" lon="-4.429667">
        <ele>1899.0</ele>
        <time>2016-07-12T15:36:26Z</time>
      </trkpt>
      <trkpt lat="41.305483" lon="-4.429617">
        <ele>1901.0</ele>
        <time>2016-07-12T15:36:27Z</time>
      </trkpt>
      <trkpt lat="41.305367" lon="-4.429600">
        <ele>1902.0</ele>
        <time>2016-07-12T15:36:28Z</time>
      </trkpt>
      <trkpt lat="41.305250" lon="-4.429600">
        <ele>1904.0</ele>
        <time>2016-07-12T15:36:29Z</time>
      </trkpt>
      <trkpt lat="41.305133" lon="-4.429617">
        <ele>1906.0</ele>
        <time>2016-07-12T15:36:30Z</time>
      </trkpt>
      <trkpt lat="41.305033" lon="-4.429667">
        <ele>1908.0</ele>
        <time>2016-07-12T15:36:31Z</time>
      </trkpt>
      <trkpt lat="41.304950" lon="-4.429733">
        <ele>1908.0</ele>
        <time>2016-07-12T15:36:32Z</time>
      </trkpt>
      <trkpt lat="41.304883" lon="-4.429817">
        <ele>1909.0</ele>
        <time>2016-07-12T15:36:33Z</time>
      </trkpt>
      <trkpt lat="41.304817" lon="-4.429883">
        <ele>1909.0</ele>
        <time>2016-07-12T15:36:34Z</time>
      </trkpt>
      <trkpt lat="41.304783" lon="-4.429967">
        <ele>1909.0</ele>
        <time>2016-07-12T15:36:35Z</time>
      </trkpt>
      <trkpt lat="41.304750" lon="-4.430050">
        <ele>1908.0</ele>
        <time>2016-07-12T15:36:36Z</time>
      </trkpt>
      <trkpt lat="41.304750" lon="-4.430133">
        <ele>1907.0</ele>
        <time>2016-07-12T15:36:37Z</time>
      </trkpt>
      <trkpt lat="41.304767" lon="-4.430200">
        <ele>1906.0</ele>
        <time>2016-07-12T15:36:38Z</time>
      </trkpt>
      <trkpt lat="41.304817" lon="-4.430250">
        <ele>1905.0</ele>
        <time>2016-07-12T15:36:39Z</time>
      </trkpt>
      <trkpt lat="41.304867" lon="-4.430283">
        <ele>1906.0</ele>
        <time>2016-07-12T15:36:40Z</time>
      </trkpt>
      <trkpt lat="41.304933" lon="-4.430300">
        <ele>1908.0</ele>
        <time>2016-07-12T15:36:41Z</time>
      </trkpt>
      <trkpt lat="41.304967" lon="-4.430333">
        <ele>1910.0</ele>
        <time>2016-07-12T15:36:42Z</time>
      </trkpt>
      <trkpt lat="41.305000" lon="-4.430367">
        <ele>1911.0</ele>
        <time>2016-07-12T15:36:43Z</time>
      </trkpt>
      <trkpt lat="41.305050" lon="-4.430400">
        <ele>1911.0</ele>
        <time>2016-07-12T15:36:44Z</time>
      </trkpt>
      <trkpt lat="41.305100" lon="-4.430400">
        <ele>1912.0</ele>
        <time>2016-07-12T15:36:45Z</time>
      </trkpt>
      <trkpt lat="41.305167" lon="-4.430383">
        <ele>1913.0</ele>
        <time>2016-07-12T15:36:46Z</time>
      </trkpt>
      <trkpt lat="41.305233" lon="-4.430333">
        <ele>1913.0</ele>
        <time>2016-07-12T15:36:47Z</time>
      </trkpt>
      <trkpt lat="41.305300" lon="-4.430267">
        <ele>1912.0</ele>
        <time>2016-07-12T15:36:48Z</time>
      </trkpt>
      <trkpt lat="41.305367" lon="-4.430233">
        <ele>1912.0</ele>
        <time>2016-07-12T15:36:49Z</time>
      </trkpt>
      <trkpt lat="41.305433" lon="-4.430200">
        <ele>1911.0</ele>
        <time>2016-07-12T15:36:50Z</time>
      </trkpt>
      <trkpt lat="41.305500" lon="-4.430150">
        <ele>1911.0</ele>
        <time>2016-07-12T15:36:51Z</time>
      </trkpt>
      <trkpt lat="41.305550" lon="-4.430083">
        <ele>1911.0</ele>
        <time>2016-07-12T15:36:52Z</time>
      </trkpt>
      <trkpt lat="41.305583" lon="-4.429983">
        <ele>1910.0</ele>
        <time>2016-07-12T15:36:53Z</time>
      </trkpt>
      <trkpt lat="41.305617" lon="-4.429900">
        <ele>1909.0</ele>
        <time>2016-07-12T15:36:54Z</time>
      </trkpt>
      <trkpt lat="41.305667" lon="-4.429800">
        <ele>1907.0</ele>
        <time>2016-07-12T15:36:55Z</time>
      </trkpt>
      <trkpt lat="41.305733" lon="-4.429717">
        <ele>1904.0</ele>
        <time>2016-07-12T15:36:56Z</time>
      </trkpt>
      <trkpt lat="41.305783" lon="-4.429617">
        <ele>1903.0</ele>
        <time>2016-07-12T15:36:57Z</time>
      </trkpt>
      <trkpt lat="41.305833" lon="-4.429500">
        <ele>1903.0</ele>
        <time>2016-07-12T15:36:58Z</time>
      </trkpt>
      <trkpt lat="41.305883" lon="-4.429400">
        <ele>1904.0</ele>
        <time>2016-07-12T15:36:59Z</time>
      </trkpt>
      <trkpt lat="41.305900" lon="-4.429300">
        <ele>1904.0</ele>
        <time>2016-07-12T15:37:00Z</time>
      </trkpt>
      <trkpt lat="41.305933" lon="-4.429183">
        <ele>1904.0</ele>
        <time>2016-07-12T15:37:01Z</time>
      </trkpt>
      <trkpt lat="41.305967" lon="-4.429083">
        <ele>1903.0</ele>
        <time>2016-07-12T15:37:02Z</time>
      </trkpt>
      <trkpt lat="41.306000" lon="-4.428967">
        <ele>1902.0</ele>
        <time>2016-07-12T15:37:03Z</time>
      </trkpt>
      <trkpt lat="41.306033" lon="-4.428850">
        <ele>1902.0</ele>
        <time>2016-07-12T15:37:04Z</time>
      </trkpt>
      <trkpt lat="41.306050" lon="-4.428733">
        <ele>1901.0</ele>
        <time>2016-07-12T15:37:05Z</time>
      </trkpt>
      <trkpt lat="41.306067" lon="-4.428633">
        <ele>1901.0</ele>
        <time>2016-07-12T15:37:06Z</time>
      </trkpt>
      <trkpt lat="41.306083" lon="-4.428517">
        <ele>1900.0</ele>
        <time>2016-07-12T15:37:07Z</time>
      </trkpt>
      <trkpt lat="41.306083" lon="-4.428400">
        <ele>1899.0</ele>
        <time>2016-07-12T15:37:08Z</time>
      </trkpt>
      <trkpt lat="41.306067" lon="-4.428283">
        <ele>1898.0</ele>
        <time>2016-07-12T15:37:09Z</time>
      </trkpt>
      <trkpt lat="41.306017" lon="-4.428150">
        <ele>1896.0</ele>
        <time>2016-07-12T15:37:10Z</time>
      </trkpt>
      <trkpt lat="41.305967" lon="-4.428033">
        <ele>1894.0</ele>
        <time>2016-07-12T15:37:11Z</time>
      </trkpt>
      <trkpt lat="41.305917" lon="-4.427917">
        <ele>1894.0</ele>
        <time>2016-07-12T15:37:12Z</time>
      </trkpt>
      <trkpt lat="41.305850" lon="-4.427833">
        <ele>1893.0</ele>
        <time>2016-07-12T15:37:13Z</time>
      </trkpt>
      <trkpt lat="41.305767" lon="-4.427733">
        <ele>1891.0</ele>
        <time>2016-07-12T15:37:14Z</time>
      </trkpt>
      <trkpt lat="41.305683" lon="-4.427650">
        <ele>1889.0</ele>
        <time>2016-07-12T15:37:15Z</time>
      </trkpt>
      <trkpt lat="41.305583" lon="-4.427583">
        <ele>1887.0</ele>
        <time>2016-07-12T15:37:16Z</time>
      </trkpt>
      <trkpt lat="41.305467" lon="-4.427533">
        <ele>1885.0</ele>
        <time>2016-07-12T15:37:17Z</time>
      </trkpt>
      <trkpt lat="41.305350" lon="-4.427517">
        <ele>1885.0</ele>
        <time>2016-07-12T15:37:18Z</time>
      </trkpt>
      <trkpt lat="41.305250" lon="-4.427533">
        <ele>1884.0</ele>
        <time>2016-07-12T15:37:19Z</time>
      </trkpt>
      <trkpt lat="41.305150" lon="-4.427550">
        <ele>1884.0</ele>
        <time>2016-07-12T15:37:20Z</time>
      </trkpt>
      <trkpt lat="41.305033" lon="-4.427583">
        <ele>1883.0</ele>
        <time>2016-07-12T15:37:21Z</time>
      </trkpt>
      <trkpt lat="41.304933" lon="-4.427617">
        <ele>1881.0</ele>
        <time>2016-07-12T15:37:22Z</time>
      </trkpt>
      <trkpt lat="41.304833" lon="-4.427667">
        <ele>1880.0</ele>
        <time>2016-07-12T15:37:23Z</time>
      </trkpt>
      <trkpt lat="41.304717" lon="-4.427733">
        <ele>1880.0</ele>
        <time>2016-07-12T15:37:24Z</time>
      </trkpt>
      <trkpt lat="41.304633" lon="-4.427800">
        <ele>1881.0</ele>
        <time>2016-07-12T15:37:25Z</time>
      </trkpt>
      <trkpt lat="41.304550" lon="-4.427883">
        <ele>1883.0</ele>
        <time>2016-07-12T15:37:26Z</time>
      </trkpt>
      <trkpt lat="41.304467" lon="-4.427967">
        <ele>1885.0</ele>
        <time>2016-07-12T15:37:27Z</time>
      </trkpt>
      <trkpt lat="41.304400" lon="-4.428033">
        <ele>1886.0</ele>
        <time>2016-07-12T15:37:28Z</time>
      </trkpt>
      <trkpt lat="41.304300" lon="-4.428117">
        <ele>1887.0</ele>
        <time>2016-07-12T15:37:29Z</time>
      </trkpt>
      <trkpt lat="41.304217" lon="-4.428183">
        <ele>1887.0</ele>
        <time>2016-07-12T15:37:30Z</time>
      </trkpt>
      <trkpt lat="41.304133" lon="-4.428267">
        <ele>1887.0</ele>
        <time>2016-07-12T15:37:31Z</time>
      </trkpt>
      <trkpt lat="41.304067" lon="-4.428367">
        <ele>1888.0</ele>
        <time>2016-07-12T15:37:32Z</time>
      </trkpt>
      <trkpt lat="41.304017" lon="-4.428450">
        <ele>1889.0</ele>
        <time>2016-07-12T15:37:33Z</time>
      </trkpt>
      <trkpt lat="41.303967" lon="-4.428517">
        <ele>1891.0</ele>
        <time>2016-07-12T15:37:34Z</time>
      </trkpt>
      <trkpt lat="41.303917" lon="-4.428600">
        <ele>1891.0</ele>
        <time>2016-07-12T15:37:35Z</time>
      </trkpt>
      <trkpt lat="41.303883" lon="-4.428683">
        <ele>1891.0</ele>
        <time>2016-07-12T15:37:36Z</time>
      </trkpt>
      <trkpt lat="41.303833" lon="-4.428767">
        <ele>1892.0</ele>
        <time>2016-07-12T15:37:37Z</time>
      </trkpt>
      <trkpt lat="41.303783" lon="-4.428850">
        <ele>1892.0</ele>
        <time>2016-07-12T15:37:38Z</time>
      </trkpt>
      <trkpt lat="41.303750" lon="-4.428917">
        <ele>1893.0</ele>
        <time>2016-07-12T15:37:39Z</time>
      </trkpt>
      <trkpt lat="41.303717" lon="-4.428983">
        <ele>1894.0</ele>
        <time>2016-07-12T15:37:40Z</time>
      </trkpt>
      <trkpt lat="41.303683" lon="-4.429017">
        <ele>1895.0</ele>
        <time>2016-07-12T15:37:41Z</time>
      </trkpt>
      <trkpt lat="41.303650" lon="-4.429067">
        <ele>1894.0</ele>
        <time>2016-07-12T15:37:42Z</time>
      </trkpt>
      <trkpt lat="41.303617" lon="-4.429117">
        <ele>1891.0</ele>
        <time>2016-07-12T15:37:43Z</time>
      </trkpt>
      <trkpt lat="41.303600" lon="-4.429183">
        <ele>1887.0</ele>
        <time>2016-07-12T15:37:44Z</time>
      </trkpt>
      <trkpt lat="41.303583" lon="-4.429283">
        <ele>1884.0</ele>
        <time>2016-07-12T15:37:45Z</time>
      </trkpt>
      <trkpt lat="41.303583" lon="-4.429383">
        <ele>1883.0</ele>
        <time>2016-07-12T15:37:46Z</time>
      </trkpt>
      <trkpt lat="41.303583" lon="-4.429450">
        <ele>1884.0</ele>
        <time>2016-07-12T15:37:47Z</time>
      </trkpt>
      <trkpt lat="41.303583" lon="-4.429517">
        <ele>1884.0</ele>
        <time>2016-07-12T15:37:48Z</time>
      </trkpt>
      <trkpt lat="41.303583" lon="-4.429583">
        <ele>1884.0</ele>
        <time>2016-07-12T15:37:49Z</time>
      </trkpt>
      <trkpt lat="41.303567" lon="-4.429650">
        <ele>1883.0</ele>
        <time>2016-07-12T15:37:50Z</time>
      </trkpt>
      <trkpt lat="41.303567" lon="-4.429750">
        <ele>1881.0</ele>
        <time>2016-07-12T15:37:51Z</time>
      </trkpt>
      <trkpt lat="41.303567" lon="-4.429833">
        <ele>1880.0</ele>
        <time>2016-07-12T15:37:52Z</time>
      </trkpt>
      <trkpt lat="41.303583" lon="-4.429917">
        <ele>1880.0</ele>
        <time>2016-07-12T15:37:53Z</time>
      </trkpt>
      <trkpt lat="41.303617" lon="-4.429983">
        <ele>1880.0</ele>
        <time>2016-07-12T15:37:54Z</time>
      </trkpt>
      <trkpt lat="41.303633" lon="-4.430067">
        <ele>1881.0</ele>
        <time>2016-07-12T15:37:55Z</time>
      </trkpt>
      <trkpt lat="41.303650" lon="-4.430117">
        <ele>1882.0</ele>
        <time>2016-07-12T15:37:56Z</time>
      </trkpt>
      <trkpt lat="41.303667" lon="-4.430183">
        <ele>1883.0</ele>
        <time>2016-07-12T15:37:57Z</time>
      </trkpt>
      <trkpt lat="41.303700" lon="-4.430217">
        <ele>1883.0</ele>
        <time>2016-07-12T15:37:58Z</time>
      </trkpt>
      <trkpt lat="41.303733" lon="-4.430267">
        <ele>1883.0</ele>
        <time>2016-07-12T15:37:59Z</time>
      </trkpt>
      <trkpt lat="41.303767" lon="-4.430317">
        <ele>1883.0</ele>
        <time>2016-07-12T15:38:00Z</time>
      </trkpt>
      <trkpt lat="41.303800" lon="-4.430367">
        <ele>1884.0</ele>
        <time>2016-07-12T15:38:01Z</time>
      </trkpt>
      <trkpt lat="41.303817" lon="-4.430417">
        <ele>1885.0</ele>
        <time>2016-07-12T15:38:02Z</time>
      </trkpt>
      <trkpt lat="41.303850" lon="-4.430467">
        <ele>1884.0</ele>
        <time>2016-07-12T15:38:03Z</time>
      </trkpt>
      <trkpt lat="41.303867" lon="-4.430533">
        <ele>1881.0</ele>
        <time>2016-07-12T15:38:04Z</time>
      </trkpt>
      <trkpt lat="41.303883" lon="-4.430583">
        <ele>1879.0</ele>
        <time>2016-07-12T15:38:05Z</time>
      </trkpt>
      <trkpt lat="41.303900" lon="-4.430633">
        <ele>1877.0</ele>
        <time>2016-07-12T15:38:06Z</time>
      </trkpt>
      <trkpt lat="41.303933" lon="-4.430650">
        <ele>1873.0</ele>
        <time>2016-07-12T15:38:07Z</time>
      </trkpt>
      <trkpt lat="41.303983" lon="-4.430667">
        <ele>1869.0</ele>
        <time>2016-07-12T15:38:08Z</time>
      </trkpt>
      <trkpt lat="41.304017" lon="-4.430650">
        <ele>1865.0</ele>
        <time>2016-07-12T15:38:09Z</time>
      </trkpt>
      <trkpt lat="41.304067" lon="-4.430633">
        <ele>1862.0</ele>
        <time>2016-07-12T15:38:10Z</time>
      </trkpt>
      <trkpt lat="41.304117" lon="-4.430633">
        <ele>1858.0</ele>
        <time>2016-07-12T15:38:11Z</time>
      </trkpt>
      <trkpt lat="41.304150" lon="-4.430633">
        <ele>1855.0</ele>
        <time>2016-07-12T15:38:12Z</time>
      </trkpt>
      <trkpt lat="41.304183" lon="-4.430617">
        <ele>1853.0</ele>
        <time>2016-07-12T15:38:13Z</time>
      </trkpt>
      <trkpt lat="41.304200" lon="-4.430583">
        <ele>1850.0</ele>
        <time>2016-07-12T15:38:14Z</time>
      </trkpt>
      <trkpt lat="41.304233" lon="-4.430533">
        <ele>1846.0</ele>
        <time>2016-07-12T15:38:15Z</time>
      </trkpt>
      <trkpt lat="41.304250" lon="-4.430467">
        <ele>1842.0</ele>
        <time>2016-07-12T15:38:16Z</time>
      </trkpt>
      <trkpt lat="41.304267" lon="-4.430383">
        <ele>1838.0</ele>
        <time>2016-07-12T15:38:17Z</time>
      </trkpt>
      <trkpt lat="41.304267" lon="-4.430283">
        <ele>1835.0</ele>
        <time>2016-07-12T15:38:18Z</time>
      </trkpt>
      <trkpt lat="41.304267" lon="-4.430167">
        <ele>1832.0</ele>
        <time>2016-07-12T15:38:19Z</time>
      </trkpt>
      <trkpt lat="41.304233" lon="-4.430033">
        <ele>1828.0</ele>
        <time>2016-07-12T15:38:20Z</time>
      </trkpt>
      <trkpt lat="41.304183" lon="-4.429900">
        <ele>1824.0</ele>
        <time>2016-07-12T15:38:21Z</time>
      </trkpt>
      <trkpt lat="41.304133" lon="-4.429767">
        <ele>1821.0</ele>
        <time>2016-07-12T15:38:22Z</time>
      </trkpt>
      <trkpt lat="41.304067" lon="-4.429633">
        <ele>1818.0</ele>
        <time>2016-07-12T15:38:23Z</time>
      </trkpt>
      <trkpt lat="41.304000" lon="-4.429517">
        <ele>1816.0</ele>
        <time>2016-07-12T15:38:24Z</time>
      </trkpt>
      <trkpt lat="41.303933" lon="-4.429400">
        <ele>1813.0</ele>
        <time>2016-07-12T15:38:25Z</time>
      </trkpt>
      <trkpt lat="41.303867" lon="-4.429283">
        <ele>1810.0</ele>
        <time>2016-07-12T15:38:26Z</time>
      </trkpt>
      <trkpt lat="41.303800" lon="-4.429150">
        <ele>1808.0</ele>
        <time>2016-07-12T15:38:27Z</time>
      </trkpt>
      <trkpt lat="41.303733" lon="-4.429033">
        <ele>1807.0</ele>
        <time>2016-07-12T15:38:28Z</time>
      </trkpt>
      <trkpt lat="41.303650" lon="-4.428900">
        <ele>1806.0</ele>
        <time>2016-07-12T15:38:29Z</time>
      </trkpt>
      <trkpt lat="41.303583" lon="-4.428767">
        <ele>1805.0</ele>
        <time>2016-07-12T15:38:30Z</time>
      </trkpt>
      <trkpt lat="41.303517" lon="-4.428650">
        <ele>1805.0</ele>
        <time>2016-07-12T15:38:31Z</time>
      </trkpt>
      <trkpt lat="41.303450" lon="-4.428517">
        <ele>1805.0</ele>
        <time>2016-07-12T15:38:32Z</time>
      </trkpt>
      <trkpt lat="41.303367" lon="-4.428400">
        <ele>1806.0</ele>
        <time>2016-07-12T15:38:33Z</time>
      </trkpt>
      <trkpt lat="41.303300" lon="-4.428283">
        <ele>1808.0</ele>
        <time>2016-07-12T15:38:34Z</time>
      </trkpt>
      <trkpt lat="41.303233" lon="-4.428150">
        <ele>1809.0</ele>
        <time>2016-07-12T15:38:35Z</time>
      </trkpt>
      <trkpt lat="41.303167" lon="-4.428017">
        <ele>1810.0</ele>
        <time>2016-07-12T15:38:36Z</time>
      </trkpt>
      <trkpt lat="41.303117" lon="-4.427867">
        <ele>1810.0</ele>
        <time>2016-07-12T15:38:37Z</time>
      </trkpt>
      <trkpt lat="41.303083" lon="-4.427733">
        <ele>1811.0</ele>
        <time>2016-07-12T15:38:38Z</time>
      </trkpt>
      <trkpt lat="41.303050" lon="-4.427600">
        <ele>1811.0</ele>
        <time>2016-07-12T15:38:39Z</time>
      </trkpt>
      <trkpt lat="41.303017" lon="-4.427450">
        <ele>1810.0</ele>
        <time>2016-07-12T15:38:40Z</time>
      </trkpt>
      <trkpt lat="41.302983" lon="-4.427317">
        <ele>1810.0</ele>
        <time>2016-07-12T15:38:41Z</time>
      </trkpt>
      <trkpt lat="41.302933" lon="-4.427167">
        <ele>1809.0</ele>
        <time>2016-07-12T15:38:42Z</time>
      </trkpt>
      <trkpt lat="41.302867" lon="-4.427033">
        <ele>1809.0</ele>
        <time>2016-07-12T15:38:43Z</time>
      </trkpt>
      <trkpt lat="41.302800" lon="-4.426900">
        <ele>1809.0</ele>
        <time>2016-07-12T15:38:44Z</time>
      </trkpt>
      <trkpt lat="41.302733" lon="-4.426783">
        <ele>1809.0</ele>
        <time>2016-07-12T15:38:45Z</time>
      </trkpt>
      <trkpt lat="41.302683" lon="-4.426667">
        <ele>1808.0</ele>
        <time>2016-07-12T15:38:46Z</time>
      </trkpt>
      <trkpt lat="41.302633" lon="-4.426533">
        <ele>1807.0</ele>
        <time>2016-07-12T15:38:47Z</time>
      </trkpt>
      <trkpt lat="41.302567" lon="-4.426400">
        <ele>1806.0</ele>
        <time>2016-07-12T15:38:48Z</time>
      </trkpt>
      <trkpt lat="41.302500" lon="-4.426267">
        <ele>1805.0</ele>
        <time>2016-07-12T15:38:49Z</time>
      </trkpt>
      <trkpt lat="41.302433" lon="-4.426133">
        <ele>1805.0</ele>
        <time>2016-07-12T15:38:50Z</time>
      </trkpt>
      <trkpt lat="41.302383" lon="-4.426000">
        <ele>1806.0</ele>
        <time>2016-07-12T15:38:51Z</time>
      </trkpt>
      <trkpt lat="41.302333" lon="-4.425867">
        <ele>1806.0</ele>
        <time>2016-07-12T15:38:52Z</time>
      </trkpt>
      <trkpt lat="41.302300" lon="-4.425733">
        <ele>1807.0</ele>
        <time>2016-07-12T15:38:53Z</time>
      </trkpt>
      <trkpt lat="41.302250" lon="-4.425600">
        <ele>1808.0</ele>
        <time>2016-07-12T15:38:54Z</time>
      </trkpt>
      <trkpt lat="41.302217" lon="-4.425483">
        <ele>1809.0</ele>
        <time>2016-07-12T15:38:55Z</time>
      </trkpt>
      <trkpt lat="41.302183" lon="-4.425367">
        <ele>1811.0</ele>
        <time>2016-07-12T15:38:56Z</time>
      </trkpt>
      <trkpt lat="41.302150" lon="-4.425250">
        <ele>1810.0</ele>
        <time>2016-07-12T15:38:57Z</time>
      </trkpt>
      <trkpt lat="41.302117" lon="-4.425133">
        <ele>1809.0</ele>
        <time>2016-07-12T15:38:58Z</time>
      </trkpt>
      <trkpt lat="41.302067" lon="-4.425017">
        <ele>1807.0</ele>
        <time>2016-07-12T15:38:59Z</time>
      </trkpt>
      <trkpt lat="41.302033" lon="-4.424883">
        <ele>1805.0</ele>
        <time>2016-07-12T15:39:00Z</time>
      </trkpt>
      <trkpt lat="41.301967" lon="-4.424783">
        <ele>1804.0</ele>
        <time>2016-07-12T15:39:01Z</time>
      </trkpt>
      <trkpt lat="41.301917" lon="-4.424667">
        <ele>1803.0</ele>
        <time>2016-07-12T15:39:02Z</time>
      </trkpt>
      <trkpt lat="41.301867" lon="-4.424567">
        <ele>1800.0</ele>
        <time>2016-07-12T15:39:03Z</time>
      </trkpt>
      <trkpt lat="41.301800" lon="-4.424450">
        <ele>1797.0</ele>
        <time>2016-07-12T15:39:04Z</time>
      </trkpt>
      <trkpt lat="41.301750" lon="-4.424333">
        <ele>1794.0</ele>
        <time>2016-07-12T15:39:05Z</time>
      </trkpt>
      <trkpt lat="41.301683" lon="-4.424217">
        <ele>1792.0</ele>
        <time>2016-07-12T15:39:06Z</time>
      </trkpt>
      <trkpt lat="41.301617" lon="-4.424100">
        <ele>1791.0</ele>
        <time>2016-07-12T15:39:07Z</time>
      </trkpt>
      <trkpt lat="41.301567" lon="-4.423967">
        <ele>1790.0</ele>
        <time>2016-07-12T15:39:08Z</time>
      </trkpt>
      <trkpt lat="41.301517" lon="-4.423850">
        <ele>1789.0</ele>
        <time>2016-07-12T15:39:09Z</time>
      </trkpt>
      <trkpt lat="41.301483" lon="-4.423717">
        <ele>1787.0</ele>
        <time>2016-07-12T15:39:10Z</time>
      </trkpt>
      <trkpt lat="41.301467" lon="-4.423583">
        <ele>1786.0</ele>
        <time>2016-07-12T15:39:11Z</time>
      </trkpt>
      <trkpt lat="41.301433" lon="-4.423450">
        <ele>1785.0</ele>
        <time>2016-07-12T15:39:12Z</time>
      </trkpt>
      <trkpt lat="41.301400" lon="-4.423317">
        <ele>1784.0</ele>
        <time>2016-07-12T15:39:13Z</time>
      </trkpt>
      <trkpt lat="41.301367" lon="-4.423183">
        <ele>1783.0</ele>
        <time>2016-07-12T15:39:14Z</time>
      </trkpt>
      <trkpt lat="41.301333" lon="-4.423050">
        <ele>1782.0</ele>
        <time>2016-07-12T15:39:15Z</time>
      </trkpt>
      <trkpt lat="41.301283" lon="-4.422933">
        <ele>1780.0</ele>
        <time>2016-07-12T15:39:16Z</time>
      </trkpt>
      <trkpt lat="41.301233" lon="-4.422800">
        <ele>1778.0</ele>
        <time>2016-07-12T15:39:17Z</time>
      </trkpt>
      <trkpt lat="41.301183" lon="-4.422650">
        <ele>1777.0</ele>
        <time>2016-07-12T15:39:18Z</time>
      </trkpt>
      <trkpt lat="41.301133" lon="-4.422517">
        <ele>1776.0</ele>
        <time>2016-07-12T15:39:19Z</time>
      </trkpt>
      <trkpt lat="41.301083" lon="-4.422383">
        <ele>1776.0</ele>
        <time>2016-07-12T15:39:20Z</time>
      </trkpt>
      <trkpt lat="41.301033" lon="-4.422250">
        <ele>1776.0</ele>
        <time>2016-07-12T15:39:21Z</time>
      </trkpt>
      <trkpt lat="41.301000" lon="-4.422133">
        <ele>1776.0</ele>
        <time>2016-07-12T15:39:22Z</time>
      </trkpt>
      <trkpt lat="41.300983" lon="-4.422000">
        <ele>1775.0</ele>
        <time>2016-07-12T15:39:23Z</time>
      </trkpt>
      <trkpt lat="41.300933" lon="-4.421867">
        <ele>1776.0</ele>
        <time>2016-07-12T15:39:24Z</time>
      </trkpt>
      <trkpt lat="41.300900" lon="-4.421733">
        <ele>1777.0</ele>
        <time>2016-07-12T15:39:25Z</time>
      </trkpt>
      <trkpt lat="41.300867" lon="-4.421617">
        <ele>1779.0</ele>
        <time>2016-07-12T15:39:26Z</time>
      </trkpt>
      <trkpt lat="41.300833" lon="-4.421483">
        <ele>1781.0</ele>
        <time>2016-07-12T15:39:27Z</time>
      </trkpt>
      <trkpt lat="41.300817" lon="-4.421350">
        <ele>1783.0</ele>
        <time>2016-07-12T15:39:28Z</time>
      </trkpt>
      <trkpt lat="41.300800" lon="-4.421217">
        <ele>1786.0</ele>
        <time>2016-07-12T15:39:29Z</time>
      </trkpt>
      <trkpt lat="41.300767" lon="-4.421100">
        <ele>1788.0</ele>
        <time>2016-07-12T15:39:30Z</time>
      </trkpt>
      <trkpt lat="41.300717" lon="-4.420983">
        <ele>1791.0</ele>
        <time>2016-07-12T15:39:31Z</time>
      </trkpt>
      <trkpt lat="41.300667" lon="-4.420867">
        <ele>1794.0</ele>
        <time>2016-07-12T15:39:32Z</time>
      </trkpt>
      <trkpt lat="41.300650" lon="-4.420733">
        <ele>1796.0</ele>
        <time>2016-07-12T15:39:33Z</time>
      </trkpt>
      <trkpt lat="41.300633" lon="-4.420600">
        <ele>1799.0</ele>
        <time>2016-07-12T15:39:34Z</time>
      </trkpt>
      <trkpt lat="41.300600" lon="-4.420483">
        <ele>1802.0</ele>
        <time>2016-07-12T15:39:35Z</time>
      </trkpt>
      <trkpt lat="41.300567" lon="-4.420350">
        <ele>1806.0</ele>
        <time>2016-07-12T15:39:36Z</time>
      </trkpt>
      <trkpt lat="41.300533" lon="-4.420233">
        <ele>1809.0</ele>
        <time>2016-07-12T15:39:37Z</time>
      </trkpt>
      <trkpt lat="41.300500" lon="-4.420117">
        <ele>1813.0</ele>
        <time>2016-07-12T15:39:38Z</time>
      </trkpt>
      <trkpt lat="41.300483" lon="-4.420017">
        <ele>1815.0</ele>
        <time>2016-07-12T15:39:39Z</time>
      </trkpt>
      <trkpt lat="41.300433" lon="-4.419900">
        <ele>1818.0</ele>
        <time>2016-07-12T15:39:40Z</time>
      </trkpt>
      <trkpt lat="41.300350" lon="-4.419817">
        <ele>1820.0</ele>
        <time>2016-07-12T15:39:41Z</time>
      </trkpt>
      <trkpt lat="41.300267" lon="-4.419733">
        <ele>1822.0</ele>
        <time>2016-07-12T15:39:42Z</time>
      </trkpt>
      <trkpt lat="41.300150" lon="-4.419700">
        <ele>1823.0</ele>
        <time>2016-07-12T15:39:43Z</time>
      </trkpt>
      <trkpt lat="41.300050" lon="-4.419683">
        <ele>1824.0</ele>
        <time>2016-07-12T15:39:44Z</time>
      </trkpt>
      <trkpt lat="41.299950" lon="-4.419717">
        <ele>1826.0</ele>
        <time>2016-07-12T15:39:45Z</time>
      </trkpt>
      <trkpt lat="41.299883" lon="-4.419817">
        <ele>1827.0</ele>
        <time>2016-07-12T15:39:46Z</time>
      </trkpt>
      <trkpt lat="41.299867" lon="-4.419917">
        <ele>1829.0</ele>
        <time>2016-07-12T15:39:47Z</time>
      </trkpt>
      <trkpt lat="41.299883" lon="-4.420017">
        <ele>1832.0</ele>
        <time>2016-07-12T15:39:48Z</time>
      </trkpt>
      <trkpt lat="41.299900" lon="-4.420067">
        <ele>1837.0</ele>
        <time>2016-07-12T15:39:49Z</time>
      </trkpt>
      <trkpt lat="41.299917" lon="-4.420117">
        <ele>1841.0</ele>
        <time>2016-07-12T15:39:50Z</time>
      </trkpt>
      <trkpt lat="41.299917" lon="-4.420150">
        <ele>1844.0</ele>
        <time>2016-07-12T15:39:51Z</time>
      </trkpt>
      <trkpt lat="41.299950" lon="-4.420183">
        <ele>1846.0</ele>
        <time>2016-07-12T15:39:52Z</time>
      </trkpt>
      <trkpt lat="41.299983" lon="-4.420217">
        <ele>1848.0</ele>
        <time>2016-07-12T15:39:53Z</time>
      </trkpt>
      <trkpt lat="41.300050" lon="-4.420250">
        <ele>1850.0</ele>
        <time>2016-07-12T15:39:54Z</time>
      </trkpt>
      <trkpt lat="41.300117" lon="-4.420250">
        <ele>1853.0</ele>
        <time>2016-07-12T15:39:55Z</time>
      </trkpt>
      <trkpt lat="41.300167" lon="-4.420267">
        <ele>1856.0</ele>
        <time>2016-07-12T15:39:56Z</time>
      </trkpt>
      <trkpt lat="41.300233" lon="-4.420267">
        <ele>1860.0</ele>
        <time>2016-07-12T15:39:57Z</time>
      </trkpt>
      <trkpt lat="41.300283" lon="-4.420267">
        <ele>1863.0</ele>
        <time>2016-07-12T15:39:58Z</time>
      </trkpt>
      <trkpt lat="41.300350" lon="-4.420267">
        <ele>1865.0</ele>
        <time>2016-07-12T15:39:59Z</time>
      </trkpt>
      <trkpt lat="41.300417" lon="-4.420250">
        <ele>1867.0</ele>
        <time>2016-07-12T15:40:00Z</time>
      </trkpt>
      <trkpt lat="41.300467" lon="-4.420217">
        <ele>1868.0</ele>
        <time>2016-07-12T15:40:01Z</time>
      </trkpt>
      <trkpt lat="41.300533" lon="-4.420183">
        <ele>1868.0</ele>
        <time>2016-07-12T15:40:02Z</time>
      </trkpt>
      <trkpt lat="41.300583" lon="-4.420133">
        <ele>1868.0</ele>
        <time>2016-07-12T15:40:03Z</time>
      </trkpt>
      <trkpt lat="41.300633" lon="-4.420050">
        <ele>1867.0</ele>
        <time>2016-07-12T15:40:04Z</time>
      </trkpt>
      <trkpt lat="41.300650" lon="-4.419950">
        <ele>1866.0</ele>
        <time>2016-07-12T15:40:05Z</time>
      </trkpt>
      <trkpt lat="41.300650" lon="-4.419833">
        <ele>1864.0</ele>
        <time>2016-07-12T15:40:06Z</time>
      </trkpt>
      <trkpt lat="41.300633" lon="-4.419700">
        <ele>1864.0</ele>
        <time>2016-07-12T15:40:07Z</time>
      </trkpt>
      <trkpt lat="41.300583" lon="-4.419583">
        <ele>1864.0</ele>
        <time>2016-07-12T15:40:08Z</time>
      </trkpt>
      <trkpt lat="41.300517" lon="-4.419467">
        <ele>1864.0</ele>
        <time>2016-07-12T15:40:09Z</time>
      </trkpt>
      <trkpt lat="41.300450" lon="-4.419367">
        <ele>1864.0</ele>
        <time>2016-07-12T15:40:10Z</time>
      </trkpt>
      <trkpt lat="41.300383" lon="-4.419267">
        <ele>1864.0</ele>
        <time>2016-07-12T15:40:11Z</time>
      </trkpt>
      <trkpt lat="41.300317" lon="-4.419167">
        <ele>1864.0</ele>
        <time>2016-07-12T15:40:12Z</time>
      </trkpt>
      <trkpt lat="41.300217" lon="-4.419050">
        <ele>1865.0</ele>
        <time>2016-07-12T15:40:13Z</time>
      </trkpt>
      <trkpt lat="41.300117" lon="-4.418967">
        <ele>1866.0</ele>
        <time>2016-07-12T15:40:14Z</time>
      </trkpt>
      <trkpt lat="41.300017" lon="-4.418883">
        <ele>1867.0</ele>
        <time>2016-07-12T15:40:15Z</time>
      </trkpt>
      <trkpt lat="41.299917" lon="-4.418800">
        <ele>1869.0</ele>
        <time>2016-07-12T15:40:16Z</time>
      </trkpt>
      <trkpt lat="41.299833" lon="-4.418717">
        <ele>1870.0</ele>
        <time>2016-07-12T15:40:17Z</time>
      </trkpt>
      <trkpt lat="41.299733" lon="-4.418650">
        <ele>1871.0</ele>
        <time>2016-07-12T15:40:18Z</time>
      </trkpt>
      <trkpt lat="41.299633" lon="-4.418567">
        <ele>1871.0</ele>
        <time>2016-07-12T15:40:19Z</time>
      </trkpt>
      <trkpt lat="41.299533" lon="-4.418483">
        <ele>1872.0</ele>
        <time>2016-07-12T15:40:20Z</time>
      </trkpt>
      <trkpt lat="41.299417" lon="-4.418433">
        <ele>1873.0</ele>
        <time>2016-07-12T15:40:21Z</time>
      </trkpt>
      <trkpt lat="41.299300" lon="-4.418383">
        <ele>1875.0</ele>
        <time>2016-07-12T15:40:22Z</time>
      </trkpt>
      <trkpt lat="41.299183" lon="-4.418333">
        <ele>1876.0</ele>
        <time>2016-07-12T15:40:23Z</time>
      </trkpt>
      <trkpt lat="41.299083" lon="-4.418283">
        <ele>1877.0</ele>
        <time>2016-07-12T15:40:24Z</time>
      </trkpt>
      <trkpt lat="41.298967" lon="-4.418233">
        <ele>1878.0</ele>
        <time>2016-07-12T15:40:25Z</time>
      </trkpt>
      <trkpt lat="41.298850" lon="-4.418183">
        <ele>1878.0</ele>
        <time>2016-07-12T15:40:26Z</time>
      </trkpt>
      <trkpt lat="41.298733" lon="-4.418150">
        <ele>1879.0</ele>
        <time>2016-07-12T15:40:27Z</time>
      </trkpt>
      <trkpt lat="41.298600" lon="-4.418117">
        <ele>1881.0</ele>
        <time>2016-07-12T15:40:28Z</time>
      </trkpt>
      <trkpt lat="41.298483" lon="-4.418100">
        <ele>1884.0</ele>
        <time>2016-07-12T15:40:29Z</time>
      </trkpt>
      <trkpt lat="41.298367" lon="-4.418100">
        <ele>1887.0</ele>
        <time>2016-07-12T15:40:30Z</time>
      </trkpt>
      <trkpt lat="41.298267" lon="-4.418100">
        <ele>1889.0</ele>
        <time>2016-07-12T15:40:31Z</time>
      </trkpt>
      <trkpt lat="41.298150" lon="-4.418100">
        <ele>1891.0</ele>
        <time>2016-07-12T15:40:32Z</time>
      </trkpt>
      <trkpt lat="41.298050" lon="-4.418100">
        <ele>1892.0</ele>
        <time>2016-07-12T15:40:33Z</time>
      </trkpt>
      <trkpt lat="41.297917" lon="-4.418117">
        <ele>1893.0</ele>
        <time>2016-07-12T15:40:34Z</time>
      </trkpt>
      <trkpt lat="41.297817" lon="-4.418150">
        <ele>1895.0</ele>
        <time>2016-07-12T15:40:35Z</time>
      </trkpt>
      <trkpt lat="41.297700" lon="-4.418200">
        <ele>1897.0</ele>
        <time>2016-07-12T15:40:36Z</time>
      </trkpt>
      <trkpt lat="41.297617" lon="-4.418233">
        <ele>1900.0</ele>
        <time>2016-07-12T15:40:37Z</time>
      </trkpt>
      <trkpt lat="41.297517" lon="-4.418300">
        <ele>1903.0</ele>
        <time>2016-07-12T15:40:38Z</time>
      </trkpt>
      <trkpt lat="41.297417" lon="-4.418367">
        <ele>1905.0</ele>
        <time>2016-07-12T15:40:39Z</time>
      </trkpt>
      <trkpt lat="41.297317" lon="-4.418433">
        <ele>1908.0</ele>
        <time>2016-07-12T15:40:40Z</time>
      </trkpt>
      <trkpt lat="41.297217" lon="-4.418483">
        <ele>1911.0</ele>
        <time>2016-07-12T15:40:41Z</time>
      </trkpt>
      <trkpt lat="41.297117" lon="-4.418533">
        <ele>1914.0</ele>
        <time>2016-07-12T15:40:42Z</time>
      </trkpt>
      <trkpt lat="41.297017" lon="-4.418600">
        <ele>1918.0</ele>
        <time>2016-07-12T15:40:43Z</time>
      </trkpt>
      <trkpt lat="41.296933" lon="-4.418650">
        <ele>1921.0</ele>
        <time>2016-07-12T15:40:44Z</time>
      </trkpt>
      <trkpt lat="41.296833" lon="-4.418717">
        <ele>1924.0</ele>
        <time>2016-07-12T15:40:45Z</time>
      </trkpt>
      <trkpt lat="41.296750" lon="-4.418783">
        <ele>1927.0</ele>
        <time>2016-07-12T15:40:46Z</time>
      </trkpt>
      <trkpt lat="41.296667" lon="-4.418850">
        <ele>1931.0</ele>
        <time>2016-07-12T15:40:47Z</time>
      </trkpt>
      <trkpt lat="41.296583" lon="-4.418917">
        <ele>1935.0</ele>
        <time>2016-07-12T15:40:48Z</time>
      </trkpt>
      <trkpt lat="41.296500" lon="-4.418983">
        <ele>1939.0</ele>
        <time>2016-07-12T15:40:49Z</time>
      </trkpt>
      <trkpt lat="41.296433" lon="-4.419050">
        <ele>1942.0</ele>
        <time>2016-07-12T15:40:50Z</time>
      </trkpt>
      <trkpt lat="41.296383" lon="-4.419133">
        <ele>1945.0</ele>
        <time>2016-07-12T15:40:51Z</time>
      </trkpt>
      <trkpt lat="41.296333" lon="-4.419217">
        <ele>1948.0</ele>
        <time>2016-07-12T15:40:52Z</time>
      </trkpt>
      <trkpt lat="41.296300" lon="-4.419300">
        <ele>1951.0</ele>
        <time>2016-07-12T15:40:53Z</time>
      </trkpt>
      <trkpt lat="41.296283" lon="-4.419383">
        <ele>1954.0</ele>
        <time>2016-07-12T15:40:54Z</time>
      </trkpt>
      <trkpt lat="41.296250" lon="-4.419483">
        <ele>1958.0</ele>
        <time>2016-07-12T15:40:55Z</time>
      </trkpt>
      <trkpt lat="41.296217" lon="-4.419583">
        <ele>1960.0</ele>
        <time>2016-07-12T15:40:56Z</time>
      </trkpt>
      <trkpt lat="41.296183" lon="-4.419683">
        <ele>1963.0</ele>
        <time>2016-07-12T15:40:57Z</time>
      </trkpt>
      <trkpt lat="41.296167" lon="-4.419783">
        <ele>1966.0</ele>
        <time>2016-07-12T15:40:58Z</time>
      </trkpt>
      <trkpt lat="41.296167" lon="-4.419867">
        <ele>1969.0</ele>
        <time>2016-07-12T15:40:59Z</time>
      </trkpt>
      <trkpt lat="41.296200" lon="-4.419950">
        <ele>1972.0</ele>
        <time>2016-07-12T15:41:00Z</time>
      </trkpt>
      <trkpt lat="41.296233" lon="-4.420033">
        <ele>1975.0</ele>
        <time>2016-07-12T15:41:01Z</time>
      </trkpt>
      <trkpt lat="41.296267" lon="-4.420083">
        <ele>1978.0</ele>
        <time>2016-07-12T15:41:02Z</time>
      </trkpt>
      <trkpt lat="41.296283" lon="-4.420150">
        <ele>1981.0</ele>
        <time>2016-07-12T15:41:03Z</time>
      </trkpt>
      <trkpt lat="41.296300" lon="-4.420200">
        <ele>1983.0</ele>
        <time>2016-07-12T15:41:04Z</time>
      </trkpt>
      <trkpt lat="41.296333" lon="-4.420267">
        <ele>1984.0</ele>
        <time>2016-07-12T15:41:05Z</time>
      </trkpt>
      <trkpt lat="41.296367" lon="-4.420300">
        <ele>1985.0</ele>
        <time>2016-07-12T15:41:06Z</time>
      </trkpt>
      <trkpt lat="41.296417" lon="-4.420317">
        <ele>1986.0</ele>
        <time>2016-07-12T15:41:07Z</time>
      </trkpt>
      <trkpt lat="41.296467" lon="-4.420283">
        <ele>1987.0</ele>
        <time>2016-07-12T15:41:08Z</time>
      </trkpt>
      <trkpt lat="41.296517" lon="-4.420233">
        <ele>1989.0</ele>
        <time>2016-07-12T15:41:09Z</time>
      </trkpt>
      <trkpt lat="41.296583" lon="-4.420167">
        <ele>1991.0</ele>
        <time>2016-07-12T15:41:10Z</time>
      </trkpt>
      <trkpt lat="41.296617" lon="-4.420100">
        <ele>1994.0</ele>
        <time>2016-07-12T15:41:11Z</time>
      </trkpt>
      <trkpt lat="41.296650" lon="-4.420000">
        <ele>1997.0</ele>
        <time>2016-07-12T15:41:12Z</time>
      </trkpt>
      <trkpt lat="41.296650" lon="-4.419917">
        <ele>2000.0</ele>
        <time>2016-07-12T15:41:13Z</time>
      </trkpt>
      <trkpt lat="41.296667" lon="-4.419817">
        <ele>2002.0</ele>
        <time>2016-07-12T15:41:14Z</time>
      </trkpt>
      <trkpt lat="41.296683" lon="-4.419717">
        <ele>2004.0</ele>
        <time>2016-07-12T15:41:15Z</time>
      </trkpt>
      <trkpt lat="41.296700" lon="-4.419617">
        <ele>2006.0</ele>
        <time>2016-07-12T15:41:16Z</time>
      </trkpt>
      <trkpt lat="41.296700" lon="-4.419500">
        <ele>2008.0</ele>
        <time>2016-07-12T15:41:17Z</time>
      </trkpt>
      <trkpt lat="41.296667" lon="-4.419383">
        <ele>2009.0</ele>
        <time>2016-07-12T15:41:18Z</time>
      </trkpt>
      <trkpt lat="41.296617" lon="-4.419250">
        <ele>2011.0</ele>
        <time>2016-07-12T15:41:19Z</time>
      </trkpt>
      <trkpt lat="41.296550" lon="-4.419117">
        <ele>2013.0</ele>
        <time>2016-07-12T15:41:20Z</time>
      </trkpt>
      <trkpt lat="41.296483" lon="-4.419000">
        <ele>2018.0</ele>
        <time>2016-07-12T15:41:21Z</time>
      </trkpt>
      <trkpt lat="41.296417" lon="-4.418883">
        <ele>2022.0</ele>
        <time>2016-07-12T15:41:22Z</time>
      </trkpt>
      <trkpt lat="41.296350" lon="-4.418783">
        <ele>2027.0</ele>
        <time>2016-07-12T15:41:23Z</time>
      </trkpt>
      <trkpt lat="41.296283" lon="-4.418683">
        <ele>2030.0</ele>
        <time>2016-07-12T15:41:24Z</time>
      </trkpt>
      <trkpt lat="41.296200" lon="-4.418583">
        <ele>2033.0</ele>
        <time>2016-07-12T15:41:25Z</time>
      </trkpt>
      <trkpt lat="41.296100" lon="-4.418517">
        <ele>2035.0</ele>
        <time>2016-07-12T15:41:26Z</time>
      </trkpt>
      <trkpt lat="41.295983" lon="-4.418467">
        <ele>2038.0</ele>
        <time>2016-07-12T15:41:27Z</time>
      </trkpt>
      <trkpt lat="41.295867" lon="-4.418433">
        <ele>2041.0</ele>
        <time>2016-07-12T15:41:28Z</time>
      </trkpt>
      <trkpt lat="41.295750" lon="-4.418417">
        <ele>2043.0</ele>
        <time>2016-07-12T15:41:29Z</time>
      </trkpt>
      <trkpt lat="41.295650" lon="-4.418417">
        <ele>2046.0</ele>
        <time>2016-07-12T15:41:30Z</time>
      </trkpt>
      <trkpt lat="41.295533" lon="-4.418417">
        <ele>2048.0</ele>
        <time>2016-07-12T15:41:31Z</time>
      </trkpt>
      <trkpt lat="41.295417" lon="-4.418433">
        <ele>2048.0</ele>
        <time>2016-07-12T15:41:32Z</time>
      </trkpt>
      <trkpt lat="41.295317" lon="-4.418467">
        <ele>2049.0</ele>
        <time>2016-07-12T15:41:33Z</time>
      </trkpt>
      <trkpt lat="41.295217" lon="-4.418533">
        <ele>2050.0</ele>
        <time>2016-07-12T15:41:34Z</time>
      </trkpt>
      <trkpt lat="41.295133" lon="-4.418617">
        <ele>2052.0</ele>
        <time>2016-07-12T15:41:35Z</time>
      </trkpt>
      <trkpt lat="41.295050" lon="-4.418700">
        <ele>2055.0</ele>
        <time>2016-07-12T15:41:36Z</time>
      </trkpt>
      <trkpt lat="41.295000" lon="-4.418783">
        <ele>2056.0</ele>
        <time>2016-07-12T15:41:37Z</time>
      </trkpt>
      <trkpt lat="41.294950" lon="-4.418867">
        <ele>2058.0</ele>
        <time>2016-07-12T15:41:38Z</time>
      </trkpt>
      <trkpt lat="41.294917" lon="-4.418950">
        <ele>2058.0</ele>
        <time>2016-07-12T15:41:39Z</time>
      </trkpt>
      <trkpt lat="41.294883" lon="-4.419033">
        <ele>2059.0</ele>
        <time>2016-07-12T15:41:40Z</time>
      </trkpt>
      <trkpt lat="41.294867" lon="-4.419133">
        <ele>2059.0</ele>
        <time>2016-07-12T15:41:41Z</time>
      </trkpt>
      <trkpt lat="41.294883" lon="-4.419233">
        <ele>2059.0</ele>
        <time>2016-07-12T15:41:42Z</time>
      </trkpt>
      <trkpt lat="41.294900" lon="-4.419317">
        <ele>2060.0</ele>
        <time>2016-07-12T15:41:43Z</time>
      </trkpt>
      <trkpt lat="41.294917" lon="-4.419400">
        <ele>2062.0</ele>
        <time>2016-07-12T15:41:44Z</time>
      </trkpt>
      <trkpt lat="41.294933" lon="-4.419467">
        <ele>2062.0</ele>
        <time>2016-07-12T15:41:45Z</time>
      </trkpt>
      <trkpt lat="41.294950" lon="-4.419533">
        <ele>2062.0</ele>
        <time>2016-07-12T15:41:46Z</time>
      </trkpt>
      <trkpt lat="41.295000" lon="-4.419583">
        <ele>2062.0</ele>
        <time>2016-07-12T15:41:47Z</time>
      </trkpt>
      <trkpt lat="41.295050" lon="-4.419633">
        <ele>2062.0</ele>
        <time>2016-07-12T15:41:48Z</time>
      </trkpt>
      <trkpt lat="41.295117" lon="-4.419667">
        <ele>2063.0</ele>
        <time>2016-07-12T15:41:49Z</time>
      </trkpt>
      <trkpt lat="41.295167" lon="-4.419700">
        <ele>2065.0</ele>
        <time>2016-07-12T15:41:50Z</time>
      </trkpt>
      <trkpt lat="41.295200" lon="-4.419717">
        <ele>2067.0</ele>
        <time>2016-07-12T15:41:51Z</time>
      </trkpt>
      <trkpt lat="41.295250" lon="-4.419717">
        <ele>2068.0</ele>
        <time>2016-07-12T15:41:52Z</time>
      </trkpt>
      <trkpt lat="41.295300" lon="-4.419750">
        <ele>2068.0</ele>
        <time>2016-07-12T15:41:53Z</time>
      </trkpt>
      <trkpt lat="41.295367" lon="-4.419767">
        <ele>2068.0</ele>
        <time>2016-07-12T15:41:54Z</time>
      </trkpt>
      <trkpt lat="41.295417" lon="-4.419800">
        <ele>2068.0</ele>
        <time>2016-07-12T15:41:55Z</time>
      </trkpt>
      <trkpt lat="41.295483" lon="-4.419800">
        <ele>2069.0</ele>
        <time>2016-07-12T15:41:56Z</time>
      </trkpt>
      <trkpt lat="41.295550" lon="-4.419817">
        <ele>2070.0</ele>
        <time>2016-07-12T15:41:57Z</time>
      </trkpt>
      <trkpt lat="41.295617" lon="-4.419800">
        <ele>2071.0</ele>
        <time>2016-07-12T15:41:58Z</time>
      </trkpt>
      <trkpt lat="41.295683" lon="-4.419800">
        <ele>2071.0</ele>
        <time>2016-07-12T15:41:59Z</time>
      </trkpt>
      <trkpt lat="41.295750" lon="-4.419800">
        <ele>2072.0</ele>
        <time>2016-07-12T15:42:00Z</time>
      </trkpt>
      <trkpt lat="41.295800" lon="-4.419783">
        <ele>2072.0</ele>
        <time>2016-07-12T15:42:01Z</time>
      </trkpt>
      <trkpt lat="41.295867" lon="-4.419733">
        <ele>2073.0</ele>
        <time>2016-07-12T15:42:02Z</time>
      </trkpt>
      <trkpt lat="41.295933" lon="-4.419683">
        <ele>2074.0</ele>
        <time>2016-07-12T15:42:03Z</time>
      </trkpt>
      <trkpt lat="41.295983" lon="-4.419650">
        <ele>2076.0</ele>
        <time>2016-07-12T15:42:04Z</time>
      </trkpt>
      <trkpt lat="41.296050" lon="-4.419600">
        <ele>2077.0</ele>
        <time>2016-07-12T15:42:05Z</time>
      </trkpt>
      <trkpt lat="41.296100" lon="-4.419550">
        <ele>2080.0</ele>
        <time>2016-07-12T15:42:06Z</time>
      </trkpt>
      <trkpt lat="41.296150" lon="-4.419500">
        <ele>2083.0</ele>
        <time>2016-07-12T15:42:07Z</time>
      </trkpt>
      <trkpt lat="41.296200" lon="-4.419450">
        <ele>2088.0</ele>
        <time>2016-07-12T15:42:08Z</time>
      </trkpt>
      <trkpt lat="41.296233" lon="-4.419400">
        <ele>2093.0</ele>
        <time>2016-07-12T15:42:09Z</time>
      </trkpt>
      <trkpt lat="41.296283" lon="-4.419367">
        <ele>2096.0</ele>
        <time>2016-07-12T15:42:10Z</time>
      </trkpt>
      <trkpt lat="41.296333" lon="-4.419333">
        <ele>2099.0</ele>
        <time>2016-07-12T15:42:11Z</time>
      </trkpt>
      <trkpt lat="41.296383" lon="-4.419300">
        <ele>2101.0</ele>
        <time>2016-07-12T15:42:12Z</time>
      </trkpt>
      <trkpt lat="41.296433" lon="-4.419250">
        <ele>2104.0</ele>
        <time>2016-07-12T15:42:13Z</time>
      </trkpt>
      <trkpt lat="41.296467" lon="-4.419167">
        <ele>2107.0</ele>
        <time>2016-07-12T15:42:14Z</time>
      </trkpt>
      <trkpt lat="41.296500" lon="-4.419100">
        <ele>2110.0</ele>
        <time>2016-07-12T15:42:15Z</time>
      </trkpt>
      <trkpt lat="41.296533" lon="-4.419033">
        <ele>2113.0</ele>
        <time>2016-07-12T15:42:16Z</time>
      </trkpt>
      <trkpt lat="41.296567" lon="-4.418967">
        <ele>2116.0</ele>
        <time>2016-07-12T15:42:17Z</time>
      </trkpt>
      <trkpt lat="41.296583" lon="-4.418883">
        <ele>2119.0</ele>
        <time>2016-07-12T15:42:18Z</time>
      </trkpt>
      <trkpt lat="41.296583" lon="-4.418800">
        <ele>2122.0</ele>
        <time>2016-07-12T15:42:19Z</time>
      </trkpt>
      <trkpt lat="41.296583" lon="-4.418700">
        <ele>2124.0</ele>
        <time>2016-07-12T15:42:20Z</time>
      </trkpt>
      <trkpt lat="41.296583" lon="-4.418600">
        <ele>2126.0</ele>
        <time>2016-07-12T15:42:21Z</time>
      </trkpt>
      <trkpt lat="41.296567" lon="-4.418500">
        <ele>2127.0</ele>
        <time>2016-07-12T15:42:22Z</time>
      </trkpt>
      <trkpt lat="41.296550" lon="-4.418383">
        <ele>2128.0</ele>
        <time>2016-07-12T15:42:23Z</time>
      </trkpt>
      <trkpt lat="41.296533" lon="-4.418250">
        <ele>2130.0</ele>
        <time>2016-07-12T15:42:24Z</time>
      </trkpt>
      <trkpt lat="41.296483" lon="-4.418133">
        <ele>2133.0</ele>
        <time>2016-07-12T15:42:25Z</time>
      </trkpt>
      <trkpt lat="41.296433" lon="-4.418033">
        <ele>2137.0</ele>
        <time>2016-07-12T15:42:26Z</time>
      </trkpt>
      <trkpt lat="41.296383" lon="-4.417950">
        <ele>2140.0</ele>
        <time>2016-07-12T15:42:27Z</time>
      </trkpt>
      <trkpt lat="41.296333" lon="-4.417850">
        <ele>2141.0</ele>
        <time>2016-07-12T15:42:28Z</time>
      </trkpt>
      <trkpt lat="41.296283" lon="-4.417733">
        <ele>2142.0</ele>
        <time>2016-07-12T15:42:29Z</time>
      </trkpt>
      <trkpt lat="41.296217" lon="-4.417600">
        <ele>2143.0</ele>
        <time>2016-07-12T15:42:30Z</time>
      </trkpt>
      <trkpt lat="41.296133" lon="-4.417500">
        <ele>2145.0</ele>
        <time>2016-07-12T15:42:31Z</time>
      </trkpt>
      <trkpt lat="41.296033" lon="-4.417450">
        <ele>2147.0</ele>
        <time>2016-07-12T15:42:32Z</time>
      </trkpt>
      <trkpt lat="41.295933" lon="-4.417450">
        <ele>2150.0</ele>
        <time>2016-07-12T15:42:33Z</time>
      </trkpt>
      <trkpt lat="41.295850" lon="-4.417450">
        <ele>2152.0</ele>
        <time>2016-07-12T15:42:34Z</time>
      </trkpt>
      <trkpt lat="41.295750" lon="-4.417450">
        <ele>2154.0</ele>
        <time>2016-07-12T15:42:35Z</time>
      </trkpt>
      <trkpt lat="41.295667" lon="-4.417467">
        <ele>2156.0</ele>
        <time>2016-07-12T15:42:36Z</time>
      </trkpt>
      <trkpt lat="41.295583" lon="-4.417500">
        <ele>2157.0</ele>
        <time>2016-07-12T15:42:37Z</time>
      </trkpt>
      <trkpt lat="41.295500" lon="-4.417567">
        <ele>2158.0</ele>
        <time>2016-07-12T15:42:38Z</time>
      </trkpt>
      <trkpt lat="41.295450" lon="-4.417667">
        <ele>2157.0</ele>
        <time>2016-07-12T15:42:39Z</time>
      </trkpt>
      <trkpt lat="41.295417" lon="-4.417783">
        <ele>2158.0</ele>
        <time>2016-07-12T15:42:40Z</time>
      </trkpt>
      <trkpt lat="41.295400" lon="-4.417900">
        <ele>2159.0</ele>
        <time>2016-07-12T15:42:41Z</time>
      </trkpt>
      <trkpt lat="41.295417" lon="-4.418000">
        <ele>2160.0</ele>
        <time>2016-07-12T15:42:42Z</time>
      </trkpt>
      <trkpt lat="41.295467" lon="-4.418083">
        <ele>2161.0</ele>
        <time>2016-07-12T15:42:43Z</time>
      </trkpt>
      <trkpt lat="41.295517" lon="-4.418133">
        <ele>2161.0</ele>
        <time>2016-07-12T15:42:44Z</time>
      </trkpt>
      <trkpt lat="41.295600" lon="-4.418183">
        <ele>2164.0</ele>
        <time>2016-07-12T15:42:45Z</time>
      </trkpt>
      <trkpt lat="41.295683" lon="-4.418233">
        <ele>2167.0</ele>
        <time>2016-07-12T15:42:46Z</time>
      </trkpt>
      <trkpt lat="41.295733" lon="-4.418250">
        <ele>2170.0</ele>
        <time>2016-07-12T15:42:47Z</time>
      </trkpt>
      <trkpt lat="41.295783" lon="-4.418267">
        <ele>2173.0</ele>
        <time>2016-07-12T15:42:48Z</time>
      </trkpt>
      <trkpt lat="41.295850" lon="-4.418267">
        <ele>2174.0</ele>
        <time>2016-07-12T15:42:49Z</time>
      </trkpt>
      <trkpt lat="41.295917" lon="-4.418267">
        <ele>2174.0</ele>
        <time>2016-07-12T15:42:50Z</time>
      </trkpt>
      <trkpt lat="41.295983" lon="-4.418233">
        <ele>2174.0</ele>
        <time>2016-07-12T15:42:51Z</time>
      </trkpt>
      <trkpt lat="41.296050" lon="-4.418167">
        <ele>2174.0</ele>
        <time>2016-07-12T15:42:52Z</time>
      </trkpt>
      <trkpt lat="41.296100" lon="-4.418100">
        <ele>2174.0</ele>
        <time>2016-07-12T15:42:53Z</time>
      </trkpt>
      <trkpt lat="41.296150" lon="-4.418017">
        <ele>2174.0</ele>
        <time>2016-07-12T15:42:54Z</time>
      </trkpt>
      <trkpt lat="41.296167" lon="-4.417917">
        <ele>2174.0</ele>
        <time>2016-07-12T15:42:55Z</time>
      </trkpt>
      <trkpt lat="41.296183" lon="-4.417817">
        <ele>2173.0</ele>
        <time>2016-07-12T15:42:56Z</time>
      </trkpt>
      <trkpt lat="41.296167" lon="-4.417717">
        <ele>2171.0</ele>
        <time>2016-07-12T15:42:57Z</time>
      </trkpt>
      <trkpt lat="41.296150" lon="-4.417583">
        <ele>2169.0</ele>
        <time>2016-07-12T15:42:58Z</time>
      </trkpt>
      <trkpt lat="41.296117" lon="-4.417450">
        <ele>2168.0</ele>
        <time>2016-07-12T15:42:59Z</time>
      </trkpt>
      <trkpt lat="41.296067" lon="-4.417333">
        <ele>2168.0</ele>
        <time>2016-07-12T15:43:00Z</time>
      </trkpt>
      <trkpt lat="41.296000" lon="-4.417233">
        <ele>2169.0</ele>
        <time>2016-07-12T15:43:01Z</time>
      </trkpt>
      <trkpt lat="41.295950" lon="-4.417150">
        <ele>2170.0</ele>
        <time>2016-07-12T15:43:02Z</time>
      </trkpt>
      <trkpt lat="41.295900" lon="-4.417050">
        <ele>2171.0</ele>
        <time>2016-07-12T15:43:03Z</time>
      </trkpt>
      <trkpt lat="41.295850" lon="-4.416950">
        <ele>2171.0</ele>
        <time>2016-07-12T15:43:04Z</time>
      </trkpt>
      <trkpt lat="41.295783" lon="-4.416850">
        <ele>2171.0</ele>
        <time>2016-07-12T15:43:05Z</time>
      </trkpt>
      <trkpt lat="41.295700" lon="-4.416750">
        <ele>2171.0</ele>
        <time>2016-07-12T15:43:06Z</time>
      </trkpt>
      <trkpt lat="41.295617" lon="-4.416683">
        <ele>2172.0</ele>
        <time>2016-07-12T15:43:07Z</time>
      </trkpt>
      <trkpt lat="41.295517" lon="-4.416617">
        <ele>2173.0</ele>
        <time>2016-07-12T15:43:08Z</time>
      </trkpt>
      <trkpt lat="41.295417" lon="-4.416550">
        <ele>2175.0</ele>
        <time>2016-07-12T15:43:09Z</time>
      </trkpt>
      <trkpt lat="41.295317" lon="-4.416483">
        <ele>2176.0</ele>
        <time>2016-07-12T15:43:10Z</time>
      </trkpt>
      <trkpt lat="41.295200" lon="-4.416417">
        <ele>2177.0</ele>
        <time>2016-07-12T15:43:11Z</time>
      </trkpt>
      <trkpt lat="41.295100" lon="-4.416367">
        <ele>2179.0</ele>
        <time>2016-07-12T15:43:12Z</time>
      </trkpt>
      <trkpt lat="41.294983" lon="-4.416317">
        <ele>2180.0</ele>
        <time>2016-07-12T15:43:13Z</time>
      </trkpt>
      <trkpt lat="41.294850" lon="-4.416283">
        <ele>2183.0</ele>
        <time>2016-07-12T15:43:14Z</time>
      </trkpt>
      <trkpt lat="41.294733" lon="-4.416233">
        <ele>2185.0</ele>
        <time>2016-07-12T15:43:15Z</time>
      </trkpt>
      <trkpt lat="41.294633" lon="-4.416183">
        <ele>2188.0</ele>
        <time>2016-07-12T15:43:16Z</time>
      </trkpt>
      <trkpt lat="41.294517" lon="-4.416150">
        <ele>2191.0</ele>
        <time>2016-07-12T15:43:17Z</time>
      </trkpt>
      <trkpt lat="41.294400" lon="-4.416100">
        <ele>2194.0</ele>
        <time>2016-07-12T15:43:18Z</time>
      </trkpt>
      <trkpt lat="41.294300" lon="-4.416050">
        <ele>2196.0</ele>
        <time>2016-07-12T15:43:19Z</time>
      </trkpt>
      <trkpt lat="41.294183" lon="-4.416017">
        <ele>2200.0</ele>
        <time>2016-07-12T15:43:20Z</time>
      </trkpt>
      <trkpt lat="41.294083" lon="-4.416000">
        <ele>2203.0</ele>
        <time>2016-07-12T15:43:21Z</time>
      </trkpt>
      <trkpt lat="41.293967" lon="-4.415983">
        <ele>2207.0</ele>
        <time>2016-07-12T15:43:22Z</time>
      </trkpt>
      <trkpt lat="41.293883" lon="-4.416000">
        <ele>2211.0</ele>
        <time>2016-07-12T15:43:23Z</time>
      </trkpt>
      <trkpt lat="41.293783" lon="-4.416000">
        <ele>2215.0</ele>
        <time>2016-07-12T15:43:24Z</time>
      </trkpt>
      <trkpt lat="41.293700" lon="-4.416033">
        <ele>2219.0</ele>
        <time>2016-07-12T15:43:25Z</time>
      </trkpt>
      <trkpt lat="41.293600" lon="-4.416067">
        <ele>2223.0</ele>
        <time>2016-07-12T15:43:26Z</time>
      </trkpt>
      <trkpt lat="41.293517" lon="-4.416117">
        <ele>2226.0</ele>
        <time>2016-07-12T15:43:27Z</time>
      </trkpt>
      <trkpt lat="41.293433" lon="-4.416167">
        <ele>2230.0</ele>
        <time>2016-07-12T15:43:28Z</time>
      </trkpt>
      <trkpt lat="41.293350" lon="-4.416217">
        <ele>2233.0</ele>
        <time>2016-07-12T15:43:29Z</time>
      </trkpt>
      <trkpt lat="41.293250" lon="-4.416267">
        <ele>2236.0</ele>
        <time>2016-07-12T15:43:30Z</time>
      </trkpt>
      <trkpt lat="41.293150" lon="-4.416317">
        <ele>2240.0</ele>
        <time>2016-07-12T15:43:31Z</time>
      </trkpt>
      <trkpt lat="41.293067" lon="-4.416367">
        <ele>2243.0</ele>
        <time>2016-07-12T15:43:32Z</time>
      </trkpt>
      <trkpt lat="41.292983" lon="-4.416433">
        <ele>2247.0</ele>
        <time>2016-07-12T15:43:33Z</time>
      </trkpt>
      <trkpt lat="41.292917" lon="-4.416517">
        <ele>2250.0</ele>
        <time>2016-07-12T15:43:34Z</time>
      </trkpt>
      <trkpt lat="41.292867" lon="-4.416600">
        <ele>2253.0</ele>
        <time>2016-07-12T15:43:35Z</time>
      </trkpt>
      <trkpt lat="41.292800" lon="-4.416667">
        <ele>2257.0</ele>
        <time>2016-07-12T15:43:36Z</time>
      </trkpt>
      <trkpt lat="41.292750" lon="-4.416750">
        <ele>2261.0</ele>
        <time>2016-07-12T15:43:37Z</time>
      </trkpt>
      <trkpt lat="41.292733" lon="-4.416833">
        <ele>2264.0</ele>
        <time>2016-07-12T15:43:38Z</time>
      </trkpt>
      <trkpt lat="41.292717" lon="-4.416917">
        <ele>2266.0</ele>
        <time>2016-07-12T15:43:39Z</time>
      </trkpt>
      <trkpt lat="41.292700" lon="-4.417017">
        <ele>2269.0</ele>
        <time>2016-07-12T15:43:40Z</time>
      </trkpt>
      <trkpt lat="41.292717" lon="-4.417100">
        <ele>2272.0</ele>
        <time>2016-07-12T15:43:41Z</time>
      </trkpt>
      <trkpt lat="41.292717" lon="-4.417200">
        <ele>2274.0</ele>
        <time>2016-07-12T15:43:42Z</time>
      </trkpt>
      <trkpt lat="41.292750" lon="-4.417283">
        <ele>2277.0</ele>
        <time>2016-07-12T15:43:43Z</time>
      </trkpt>
      <trkpt lat="41.292783" lon="-4.417350">
        <ele>2279.0</ele>
        <time>2016-07-12T15:43:44Z</time>
      </trkpt>
      <trkpt lat="41.292833" lon="-4.417400">
        <ele>2282.0</ele>
        <time>2016-07-12T15:43:45Z</time>
      </trkpt>
      <trkpt lat="41.292867" lon="-4.417450">
        <ele>2283.0</ele>
        <time>2016-07-12T15:43:46Z</time>
      </trkpt>
      <trkpt lat="41.292917" lon="-4.417483">
        <ele>2284.0</ele>
        <time>2016-07-12T15:43:47Z</time>
      </trkpt>
      <trkpt lat="41.292967" lon="-4.417500">
        <ele>2284.0</ele>
        <time>2016-07-12T15:43:48Z</time>
      </trkpt>
      <trkpt lat="41.293033" lon="-4.417500">
        <ele>2283.0</ele>
        <time>2016-07-12T15:43:49Z</time>
      </trkpt>
      <trkpt lat="41.293083" lon="-4.417467">
        <ele>2284.0</ele>
        <time>2016-07-12T15:43:50Z</time>
      </trkpt>
      <trkpt lat="41.293133" lon="-4.417417">
        <ele>2286.0</ele>
        <time>2016-07-12T15:43:51Z</time>
      </trkpt>
      <trkpt lat="41.293167" lon="-4.417367">
        <ele>2287.0</ele>
        <time>2016-07-12T15:43:52Z</time>
      </trkpt>
      <trkpt lat="41.293183" lon="-4.417317">
        <ele>2289.0</ele>
        <time>2016-07-12T15:43:53Z</time>
      </trkpt>
      <trkpt lat="41.293217" lon="-4.417250">
        <ele>2289.0</ele>
        <time>2016-07-12T15:43:54Z</time>
      </trkpt>
      <trkpt lat="41.293250" lon="-4.417167">
        <ele>2288.0</ele>
        <time>2016-07-12T15:43:55Z</time>
      </trkpt>
      <trkpt lat="41.293267" lon="-4.417050">
        <ele>2288.0</ele>
        <time>2016-07-12T15:43:56Z</time>
      </trkpt>
      <trkpt lat="41.293283" lon="-4.416917">
        <ele>2289.0</ele>
        <time>2016-07-12T15:43:57Z</time>
      </trkpt>
      <trkpt lat="41.293283" lon="-4.416783">
        <ele>2290.0</ele>
        <time>2016-07-12T15:43:58Z</time>
      </trkpt>
      <trkpt lat="41.293267" lon="-4.416650">
        <ele>2292.0</ele>
        <time>2016-07-12T15:43:59Z</time>
      </trkpt>
      <trkpt lat="41.293233" lon="-4.416517">
        <ele>2294.0</ele>
        <time>2016-07-12T15:44:00Z</time>
      </trkpt>
      <trkpt lat="41.293200" lon="-4.416400">
        <ele>2295.0</ele>
        <time>2016-07-12T15:44:01Z</time>
      </trkpt>
      <trkpt lat="41.293167" lon="-4.416300">
        <ele>2295.0</ele>
        <time>2016-07-12T15:44:02Z</time>
      </trkpt>
      <trkpt lat="41.293133" lon="-4.416183">
        <ele>2295.0</ele>
        <time>2016-07-12T15:44:03Z</time>
      </trkpt>
      <trkpt lat="41.293067" lon="-4.416067">
        <ele>2294.0</ele>
        <time>2016-07-12T15:44:04Z</time>
      </trkpt>
      <trkpt lat="41.292967" lon="-4.415950">
        <ele>2293.0</ele>
        <time>2016-07-12T15:44:05Z</time>
      </trkpt>
      <trkpt lat="41.292867" lon="-4.415850">
        <ele>2294.0</ele>
        <time>2016-07-12T15:44:06Z</time>
      </trkpt>
      <trkpt lat="41.292767" lon="-4.415800">
        <ele>2296.0</ele>
        <time>2016-07-12T15:44:07Z</time>
      </trkpt>
      <trkpt lat="41.292667" lon="-4.415717">
        <ele>2297.0</ele>
        <time>2016-07-12T15:44:08Z</time>
      </trkpt>
      <trkpt lat="41.292583" lon="-4.415650">
        <ele>2299.0</ele>
        <time>2016-07-12T15:44:09Z</time>
      </trkpt>
      <trkpt lat="41.292483" lon="-4.415567">
        <ele>2301.0</ele>
        <time>2016-07-12T15:44:10Z</time>
      </trkpt>
      <trkpt lat="41.292383" lon="-4.415467">
        <ele>2304.0</ele>
        <time>2016-07-12T15:44:11Z</time>
      </trkpt>
      <trkpt lat="41.292300" lon="-4.415367">
        <ele>2306.0</ele>
        <time>2016-07-12T15:44:12Z</time>
      </trkpt>
      <trkpt lat="41.292217" lon="-4.415267">
        <ele>2309.0</ele>
        <time>2016-07-12T15:44:13Z</time>
      </trkpt>
      <trkpt lat="41.292133" lon="-4.415167">
        <ele>2312.0</ele>
        <time>2016-07-12T15:44:14Z</time>
      </trkpt>
      <trkpt lat="41.292033" lon="-4.415083">
        <ele>2314.0</ele>
        <time>2016-07-12T15:44:15Z</time>
      </trkpt>
      <trkpt lat="41.291933" lon="-4.415000">
        <ele>2317.0</ele>
        <time>2016-07-12T15:44:16Z</time>
      </trkpt>
      <trkpt lat="41.291833" lon="-4.414933">
        <ele>2319.0</ele>
        <time>2016-07-12T15:44:17Z</time>
      </trkpt>
      <trkpt lat="41.291750" lon="-4.414900">
        <ele>2321.0</ele>
        <time>2016-07-12T15:44:18Z</time>
      </trkpt>
      <trkpt lat="41.291650" lon="-4.414867">
        <ele>2323.0</ele>
        <time>2016-07-12T15:44:19Z</time>
      </trkpt>
      <trkpt lat="41.291550" lon="-4.414850">
        <ele>2324.0</ele>
        <time>2016-07-12T15:44:20Z</time>
      </trkpt>
      <trkpt lat="41.291433" lon="-4.414850">
        <ele>2324.0</ele>
        <time>2016-07-12T15:44:21Z</time>
      </trkpt>
      <trkpt lat="41.291317" lon="-4.414883">
        <ele>2327.0</ele>
        <time>2016-07-12T15:44:22Z</time>
      </trkpt>
      <trkpt lat="41.291217" lon="-4.414950">
        <ele>2329.0</ele>
        <time>2016-07-12T15:44:23Z</time>
      </trkpt>
      <trkpt lat="41.291133" lon="-4.415000">
        <ele>2332.0</ele>
        <time>2016-07-12T15:44:24Z</time>
      </trkpt>
      <trkpt lat="41.291050" lon="-4.415067">
        <ele>2335.0</ele>
        <time>2016-07-12T15:44:25Z</time>
      </trkpt>
      <trkpt lat="41.290967" lon="-4.415100">
        <ele>2338.0</ele>
        <time>2016-07-12T15:44:26Z</time>
      </trkpt>
      <trkpt lat="41.290867" lon="-4.415133">
        <ele>2341.0</ele>
        <time>2016-07-12T15:44:27Z</time>
      </trkpt>
      <trkpt lat="41.290783" lon="-4.415167">
        <ele>2343.0</ele>
        <time>2016-07-12T15:44:28Z</time>
      </trkpt>
      <trkpt lat="41.290700" lon="-4.415217">
        <ele>2344.0</ele>
        <time>2016-07-12T15:44:29Z</time>
      </trkpt>
      <trkpt lat="41.290600" lon="-4.415267">
        <ele>2345.0</ele>
        <time>2016-07-12T15:44:30Z</time>
      </trkpt>
      <trkpt lat="41.290517" lon="-4.415333">
        <ele>2346.0</ele>
        <time>2016-07-12T15:44:31Z</time>
      </trkpt>
      <trkpt lat="41.290450" lon="-4.415433">
        <ele>2348.0</ele>
        <time>2016-07-12T15:44:32Z</time>
      </trkpt>
      <trkpt lat="41.290383" lon="-4.415517">
        <ele>2350.0</ele>
        <time>2016-07-12T15:44:33Z</time>
      </trkpt>
      <trkpt lat="41.290350" lon="-4.415617">
        <ele>2354.0</ele>
        <time>2016-07-12T15:44:34Z</time>
      </trkpt>
      <trkpt lat="41.290300" lon="-4.415700">
        <ele>2357.0</ele>
        <time>2016-07-12T15:44:35Z</time>
      </trkpt>
      <trkpt lat="41.290267" lon="-4.415783">
        <ele>2359.0</ele>
        <time>2016-07-12T15:44:36Z</time>
      </trkpt>
      <trkpt lat="41.290217" lon="-4.415883">
        <ele>2361.0</ele>
        <time>2016-07-12T15:44:37Z</time>
      </trkpt>
      <trkpt lat="41.290167" lon="-4.415983">
        <ele>2363.0</ele>
        <time>2016-07-12T15:44:38Z</time>
      </trkpt>
      <trkpt lat="41.290133" lon="-4.416083">
        <ele>2367.0</ele>
        <time>2016-07-12T15:44:39Z</time>
      </trkpt>
      <trkpt lat="41.290117" lon="-4.416167">
        <ele>2369.0</ele>
        <time>2016-07-12T15:44:40Z</time>
      </trkpt>
      <trkpt lat="41.290100" lon="-4.416283">
        <ele>2371.0</ele>
        <time>2016-07-12T15:44:41Z</time>
      </trkpt>
      <trkpt lat="41.290100" lon="-4.416383">
        <ele>2372.0</ele>
        <time>2016-07-12T15:44:42Z</time>
      </trkpt>
      <trkpt lat="41.290100" lon="-4.416483">
        <ele>2374.0</ele>
        <time>2016-07-12T15:44:43Z</time>
      </trkpt>
      <trkpt lat="41.290117" lon="-4.416583">
        <ele>2376.0</ele>
        <time>2016-07-12T15:44:44Z</time>
      </trkpt>
      <trkpt lat="41.290150" lon="-4.416683">
        <ele>2378.0</ele>
        <time>2016-07-12T15:44:45Z</time>
      </trkpt>
      <trkpt lat="41.290167" lon="-4.416750">
        <ele>2380.0</ele>
        <time>2016-07-12T15:44:46Z</time>
      </trkpt>
      <trkpt lat="41.290183" lon="-4.416833">
        <ele>2382.0</ele>
        <time>2016-07-12T15:44:47Z</time>
      </trkpt>
      <trkpt lat="41.290200" lon="-4.416883">
        <ele>2383.0</ele>
        <time>2016-07-12T15:44:48Z</time>
      </trkpt>
      <trkpt lat="41.290233" lon="-4.416933">
        <ele>2383.0</ele>
        <time>2016-07-12T15:44:49Z</time>
      </trkpt>
      <trkpt lat="41.290283" lon="-4.416967">
        <ele>2384.0</ele>
        <time>2016-07-12T15:44:50Z</time>
      </trkpt>
      <trkpt lat="41.290333" lon="-4.416983">
        <ele>2385.0</ele>
        <time>2016-07-12T15:44:51Z</time>
      </trkpt>
      <trkpt lat="41.290383" lon="-4.416967">
        <ele>2387.0</ele>
        <time>2016-07-12T15:44:52Z</time>
      </trkpt>
      <trkpt lat="41.290433" lon="-4.416950">
        <ele>2388.0</ele>
        <time>2016-07-12T15:44:53Z</time>
      </trkpt>
      <trkpt lat="41.290467" lon="-4.416900">
        <ele>2389.0</ele>
        <time>2016-07-12T15:44:54Z</time>
      </trkpt>
      <trkpt lat="41.290500" lon="-4.416833">
        <ele>2389.0</ele>
        <time>2016-07-12T15:44:55Z</time>
      </trkpt>
      <trkpt lat="41.290517" lon="-4.416733">
        <ele>2389.0</ele>
        <time>2016-07-12T15:44:56Z</time>
      </trkpt>
      <trkpt lat="41.290517" lon="-4.416633">
        <ele>2390.0</ele>
        <time>2016-07-12T15:44:57Z</time>
      </trkpt>
      <trkpt lat="41.290517" lon="-4.416517">
        <ele>2391.0</ele>
        <time>2016-07-12T15:44:58Z</time>
      </trkpt>
      <trkpt lat="41.290500" lon="-4.416383">
        <ele>2392.0</ele>
        <time>2016-07-12T15:44:59Z</time>
      </trkpt>
      <trkpt lat="41.290483" lon="-4.416267">
        <ele>2393.0</ele>
        <time>2016-07-12T15:45:00Z</time>
      </trkpt>
      <trkpt lat="41.290467" lon="-4.416133">
        <ele>2394.0</ele>
        <time>2016-07-12T15:45:01Z</time>
      </trkpt>
      <trkpt lat="41.290417" lon="-4.416017">
        <ele>2394.0</ele>
        <time>2016-07-12T15:45:02Z</time>
      </trkpt>
      <trkpt lat="41.290350" lon="-4.415883">
        <ele>2394.0</ele>
        <time>2016-07-12T15:45:03Z</time>
      </trkpt>
      <trkpt lat="41.290283" lon="-4.415750">
        <ele>2395.0</ele>
        <time>2016-07-12T15:45:04Z</time>
      </trkpt>
      <trkpt lat="41.290183" lon="-4.415650">
        <ele>2395.0</ele>
        <time>2016-07-12T15:45:05Z</time>
      </trkpt>
      <trkpt lat="41.290083" lon="-4.415533">
        <ele>2396.0</ele>
        <time>2016-07-12T15:45:06Z</time>
      </trkpt>
      <trkpt lat="41.289983" lon="-4.415433">
        <ele>2397.0</ele>
        <time>2016-07-12T15:45:07Z</time>
      </trkpt>
      <trkpt lat="41.289867" lon="-4.415350">
        <ele>2399.0</ele>
        <time>2016-07-12T15:45:08Z</time>
      </trkpt>
      <trkpt lat="41.289733" lon="-4.415300">
        <ele>2401.0</ele>
        <time>2016-07-12T15:45:09Z</time>
      </trkpt>
      <trkpt lat="41.289633" lon="-4.415233">
        <ele>2404.0</ele>
        <time>2016-07-12T15:45:10Z</time>
      </trkpt>
      <trkpt lat="41.289517" lon="-4.415183">
        <ele>2406.0</ele>
        <time>2016-07-12T15:45:11Z</time>
      </trkpt>
      <trkpt lat="41.289400" lon="-4.415133">
        <ele>2407.0</ele>
        <time>2016-07-12T15:45:12Z</time>
      </trkpt>
      <trkpt lat="41.289283" lon="-4.415100">
        <ele>2407.0</ele>
        <time>2016-07-12T15:45:13Z</time>
      </trkpt>
      <trkpt lat="41.289150" lon="-4.415067">
        <ele>2408.0</ele>
        <time>2016-07-12T15:45:14Z</time>
      </trkpt>
      <trkpt lat="41.289017" lon="-4.415033">
        <ele>2409.0</ele>
        <time>2016-07-12T15:45:15Z</time>
      </trkpt>
      <trkpt lat="41.288900" lon="-4.415017">
        <ele>2410.0</ele>
        <time>2016-07-12T15:45:16Z</time>
      </trkpt>
      <trkpt lat="41.288767" lon="-4.415017">
        <ele>2412.0</ele>
        <time>2016-07-12T15:45:17Z</time>
      </trkpt>
      <trkpt lat="41.288650" lon="-4.415033">
        <ele>2413.0</ele>
        <time>2016-07-12T15:45:18Z</time>
      </trkpt>
      <trkpt lat="41.288517" lon="-4.415067">
        <ele>2415.0</ele>
        <time>2016-07-12T15:45:19Z</time>
      </trkpt>
      <trkpt lat="41.288383" lon="-4.415100">
        <ele>2417.0</ele>
        <time>2016-07-12T15:45:20Z</time>
      </trkpt>
      <trkpt lat="41.288267" lon="-4.415133">
        <ele>2421.0</ele>
        <time>2016-07-12T15:45:21Z</time>
      </trkpt>
      <trkpt lat="41.288167" lon="-4.415150">
        <ele>2426.0</ele>
        <time>2016-07-12T15:45:22Z</time>
      </trkpt>
      <trkpt lat="41.288067" lon="-4.415167">
        <ele>2429.0</ele>
        <time>2016-07-12T15:45:23Z</time>
      </trkpt>
      <trkpt lat="41.287983" lon="-4.415200">
        <ele>2431.0</ele>
        <time>2016-07-12T15:45:24Z</time>
      </trkpt>
      <trkpt lat="41.287883" lon="-4.415233">
        <ele>2432.0</ele>
        <time>2016-07-12T15:45:25Z</time>
      </trkpt>
      <trkpt lat="41.287783" lon="-4.415283">
        <ele>2432.0</ele>
        <time>2016-07-12T15:45:26Z</time>
      </trkpt>
      <trkpt lat="41.287700" lon="-4.415350">
        <ele>2433.0</ele>
        <time>2016-07-12T15:45:27Z</time>
      </trkpt>
      <trkpt lat="41.287633" lon="-4.415450">
        <ele>2434.0</ele>
        <time>2016-07-12T15:45:28Z</time>
      </trkpt>
      <trkpt lat="41.287600" lon="-4.415567">
        <ele>2434.0</ele>
        <time>2016-07-12T15:45:29Z</time>
      </trkpt>
      <trkpt lat="41.287600" lon="-4.415667">
        <ele>2435.0</ele>
        <time>2016-07-12T15:45:30Z</time>
      </trkpt>
      <trkpt lat="41.287617" lon="-4.415767">
        <ele>2435.0</ele>
        <time>2016-07-12T15:45:31Z</time>
      </trkpt>
      <trkpt lat="41.287633" lon="-4.415883">
        <ele>2437.0</ele>
        <time>2016-07-12T15:45:32Z</time>
      </trkpt>
      <trkpt lat="41.287633" lon="-4.415967">
        <ele>2439.0</ele>
        <time>2016-07-12T15:45:33Z</time>
      </trkpt>
      <trkpt lat="41.287650" lon="-4.416050">
        <ele>2442.0</ele>
        <time>2016-07-12T15:45:34Z</time>
      </trkpt>
      <trkpt lat="41.287667" lon="-4.416117">
        <ele>2444.0</ele>
        <time>2016-07-12T15:45:35Z</time>
      </trkpt>
      <trkpt lat="41.287683" lon="-4.416183">
        <ele>2445.0</ele>
        <time>2016-07-12T15:45:36Z</time>
      </trkpt>
      <trkpt lat="41.287700" lon="-4.416250">
        <ele>2446.0</ele>
        <time>2016-07-12T15:45:37Z</time>
      </trkpt>
      <trkpt lat="41.287700" lon="-4.416300">
        <ele>2448.0</ele>
        <time>2016-07-12T15:45:38Z</time>
      </trkpt>
      <trkpt lat="41.287717" lon="-4.416350">
        <ele>2448.0</ele>
        <time>2016-07-12T15:45:39Z</time>
      </trkpt>
      <trkpt lat="41.287750" lon="-4.416383">
        <ele>2448.0</ele>
        <time>2016-07-12T15:45:40Z</time>
      </trkpt>
      <trkpt lat="41.287783" lon="-4.416433">
        <ele>2448.0</ele>
        <time>2016-07-12T15:45:41Z</time>
      </trkpt>
      <trkpt lat="41.287800" lon="-4.416500">
        <ele>2449.0</ele>
        <time>2016-07-12T15:45:42Z</time>
      </trkpt>
      <trkpt lat="41.287817" lon="-4.416533">
        <ele>2450.0</ele>
        <time>2016-07-12T15:45:43Z</time>
      </trkpt>
      <trkpt lat="41.287833" lon="-4.416533">
        <ele>2450.0</ele>
        <time>2016-07-12T15:45:44Z</time>
      </trkpt>
      <trkpt lat="41.287867" lon="-4.416500">
        <ele>2449.0</ele>
        <time>2016-07-12T15:45:45Z</time>
      </trkpt>
      <trkpt lat="41.287900" lon="-4.416450">
        <ele>2448.0</ele>
        <time>2016-07-12T15:45:46Z</time>
      </trkpt>
      <trkpt lat="41.287917" lon="-4.416400">
        <ele>2449.0</ele>
        <time>2016-07-12T15:45:47Z</time>
      </trkpt>
      <trkpt lat="41.287933" lon="-4.416333">
        <ele>2449.0</ele>
        <time>2016-07-12T15:45:48Z</time>
      </trkpt>
      <trkpt lat="41.287950" lon="-4.416267">
        <ele>2449.0</ele>
        <time>2016-07-12T15:45:49Z</time>
      </trkpt>
      <trkpt lat="41.287983" lon="-4.416200">
        <ele>2449.0</ele>
        <time>2016-07-12T15:45:50Z</time>
      </trkpt>
      <trkpt lat="41.288000" lon="-4.416100">
        <ele>2449.0</ele>
        <time>2016-07-12T15:45:51Z</time>
      </trkpt>
      <trkpt lat="41.288017" lon="-4.416017">
        <ele>2449.0</ele>
        <time>2016-07-12T15:45:52Z</time>
      </trkpt>
      <trkpt lat="41.288033" lon="-4.415917">
        <ele>2449.0</ele>
        <time>2016-07-12T15:45:53Z</time>
      </trkpt>
      <trkpt lat="41.288017" lon="-4.415800">
        <ele>2449.0</ele>
        <time>2016-07-12T15:45:54Z</time>
      </trkpt>
      <trkpt lat="41.288000" lon="-4.415667">
        <ele>2449.0</ele>
        <time>2016-07-12T15:45:55Z</time>
      </trkpt>
      <trkpt lat="41.287967" lon="-4.415550">
        <ele>2450.0</ele>
        <time>2016-07-12T15:45:56Z</time>
      </trkpt>
      <trkpt lat="41.287917" lon="-4.415433">
        <ele>2451.0</ele>
        <time>2016-07-12T15:45:57Z</time>
      </trkpt>
      <trkpt lat="41.287867" lon="-4.415317">
        <ele>2451.0</ele>
        <time>2016-07-12T15:45:58Z</time>
      </trkpt>
      <trkpt lat="41.287800" lon="-4.415200">
        <ele>2450.0</ele>
        <time>2016-07-12T15:45:59Z</time>
      </trkpt>
      <trkpt lat="41.287733" lon="-4.415067">
        <ele>2449.0</ele>
        <time>2016-07-12T15:46:00Z</time>
      </trkpt>
      <trkpt lat="41.287650" lon="-4.414933">
        <ele>2448.0</ele>
        <time>2016-07-12T15:46:01Z</time>
      </trkpt>
      <trkpt lat="41.287550" lon="-4.414833">
        <ele>2449.0</ele>
        <time>2016-07-12T15:46:02Z</time>
      </trkpt>
      <trkpt lat="41.287450" lon="-4.414733">
        <ele>2449.0</ele>
        <time>2016-07-12T15:46:03Z</time>
      </trkpt>
      <trkpt lat="41.287350" lon="-4.414633">
        <ele>2450.0</ele>
        <time>2016-07-12T15:46:04Z</time>
      </trkpt>
      <trkpt lat="41.287250" lon="-4.414533">
        <ele>2450.0</ele>
        <time>2016-07-12T15:46:05Z</time>
      </trkpt>
      <trkpt lat="41.287133" lon="-4.414450">
        <ele>2450.0</ele>
        <time>2016-07-12T15:46:06Z</time>
      </trkpt>
      <trkpt lat="41.287017" lon="-4.414383">
        <ele>2450.0</ele>
        <time>2016-07-12T15:46:07Z</time>
      </trkpt>
      <trkpt lat="41.286900" lon="-4.414317">
        <ele>2450.0</ele>
        <time>2016-07-12T15:46:08Z</time>
      </trkpt>
      <trkpt lat="41.286783" lon="-4.414233">
        <ele>2450.0</ele>
        <time>2016-07-12T15:46:09Z</time>
      </trkpt>
      <trkpt lat="41.286667" lon="-4.414133">
        <ele>2450.0</ele>
        <time>2016-07-12T15:46:10Z</time>
      </trkpt>
      <trkpt lat="41.286550" lon="-4.414050">
        <ele>2451.0</ele>
        <time>2016-07-12T15:46:11Z</time>
      </trkpt>
      <trkpt lat="41.286433" lon="-4.414000">
        <ele>2452.0</ele>
        <time>2016-07-12T15:46:12Z</time>
      </trkpt>
      <trkpt lat="41.286300" lon="-4.413950">
        <ele>2452.0</ele>
        <time>2016-07-12T15:46:13Z</time>
      </trkpt>
      <trkpt lat="41.286183" lon="-4.413900">
        <ele>2453.0</ele>
        <time>2016-07-12T15:46:14Z</time>
      </trkpt>
      <trkpt lat="41.286050" lon="-4.413850">
        <ele>2454.0</ele>
        <time>2016-07-12T15:46:15Z</time>
      </trkpt>
      <trkpt lat="41.285917" lon="-4.413800">
        <ele>2455.0</ele>
        <time>2016-07-12T15:46:16Z</time>
      </trkpt>
      <trkpt lat="41.285783" lon="-4.413750">
        <ele>2457.0</ele>
        <time>2016-07-12T15:46:17Z</time>
      </trkpt>
      <trkpt lat="41.285650" lon="-4.413717">
        <ele>2458.0</ele>
        <time>2016-07-12T15:46:18Z</time>
      </trkpt>
      <trkpt lat="41.285517" lon="-4.413683">
        <ele>2460.0</ele>
        <time>2016-07-12T15:46:19Z</time>
      </trkpt>
      <trkpt lat="41.285367" lon="-4.413650">
        <ele>2461.0</ele>
        <time>2016-07-12T15:46:20Z</time>
      </trkpt>
      <trkpt lat="41.285233" lon="-4.413617">
        <ele>2463.0</ele>
        <time>2016-07-12T15:46:21Z</time>
      </trkpt>
      <trkpt lat="41.285117" lon="-4.413600">
        <ele>2465.0</ele>
        <time>2016-07-12T15:46:22Z</time>
      </trkpt>
      <trkpt lat="41.285000" lon="-4.413600">
        <ele>2467.0</ele>
        <time>2016-07-12T15:46:23Z</time>
      </trkpt>
      <trkpt lat="41.284883" lon="-4.413617">
        <ele>2468.0</ele>
        <time>2016-07-12T15:46:24Z</time>
      </trkpt>
      <trkpt lat="41.284750" lon="-4.413633">
        <ele>2469.0</ele>
        <time>2016-07-12T15:46:25Z</time>
      </trkpt>
      <trkpt lat="41.284650" lon="-4.413667">
        <ele>2471.0</ele>
        <time>2016-07-12T15:46:26Z</time>
      </trkpt>
      <trkpt lat="41.284533" lon="-4.413717">
        <ele>2472.0</ele>
        <time>2016-07-12T15:46:27Z</time>
      </trkpt>
      <trkpt lat="41.284433" lon="-4.413783">
        <ele>2475.0</ele>
        <time>2016-07-12T15:46:28Z</time>
      </trkpt>
      <trkpt lat="41.284350" lon="-4.413850">
        <ele>2477.0</ele>
        <time>2016-07-12T15:46:29Z</time>
      </trkpt>
      <trkpt lat="41.284267" lon="-4.413900">
        <ele>2478.0</ele>
        <time>2016-07-12T15:46:30Z</time>
      </trkpt>
      <trkpt lat="41.284183" lon="-4.413967">
        <ele>2479.0</ele>
        <time>2016-07-12T15:46:31Z</time>
      </trkpt>
      <trkpt lat="41.284100" lon="-4.414033">
        <ele>2479.0</ele>
        <time>2016-07-12T15:46:32Z</time>
      </trkpt>
      <trkpt lat="41.284033" lon="-4.414117">
        <ele>2478.0</ele>
        <time>2016-07-12T15:46:33Z</time>
      </trkpt>
      <trkpt lat="41.283967" lon="-4.414233">
        <ele>2478.0</ele>
        <time>2016-07-12T15:46:34Z</time>
      </trkpt>
      <trkpt lat="41.283933" lon="-4.414333">
        <ele>2477.0</ele>
        <time>2016-07-12T15:46:35Z</time>
      </trkpt>
      <trkpt lat="41.283917" lon="-4.414433">
        <ele>2478.0</ele>
        <time>2016-07-12T15:46:36Z</time>
      </trkpt>
      <trkpt lat="41.283900" lon="-4.414533">
        <ele>2477.0</ele>
        <time>2016-07-12T15:46:37Z</time>
      </trkpt>
      <trkpt lat="41.283917" lon="-4.414617">
        <ele>2477.0</ele>
        <time>2016-07-12T15:46:38Z</time>
      </trkpt>
      <trkpt lat="41.283950" lon="-4.414700">
        <ele>2475.0</ele>
        <time>2016-07-12T15:46:39Z</time>
      </trkpt>
      <trkpt lat="41.284017" lon="-4.414750">
        <ele>2473.0</ele>
        <time>2016-07-12T15:46:40Z</time>
      </trkpt>
      <trkpt lat="41.284083" lon="-4.414767">
        <ele>2472.0</ele>
        <time>2016-07-12T15:46:41Z</time>
      </trkpt>
      <trkpt lat="41.284150" lon="-4.414750">
        <ele>2471.0</ele>
        <time>2016-07-12T15:46:42Z</time>
      </trkpt>
      <trkpt lat="41.284217" lon="-4.414683">
        <ele>2470.0</ele>
        <time>2016-07-12T15:46:43Z</time>
      </trkpt>
      <trkpt lat="41.284250" lon="-4.414600">
        <ele>2469.0</ele>
        <time>2016-07-12T15:46:44Z</time>
      </trkpt>
      <trkpt lat="41.284267" lon="-4.414483">
        <ele>2470.0</ele>
        <time>2016-07-12T15:46:45Z</time>
      </trkpt>
      <trkpt lat="41.284250" lon="-4.414367">
        <ele>2470.0</ele>
        <time>2016-07-12T15:46:46Z</time>
      </trkpt>
      <trkpt lat="41.284217" lon="-4.414250">
        <ele>2470.0</ele>
        <time>2016-07-12T15:46:47Z</time>
      </trkpt>
      <trkpt lat="41.284167" lon="-4.414133">
        <ele>2470.0</ele>
        <time>2016-07-12T15:46:48Z</time>
      </trkpt>
      <trkpt lat="41.284100" lon="-4.414033">
        <ele>2470.0</ele>
        <time>2016-07-12T15:46:49Z</time>
      </trkpt>
      <trkpt lat="41.284017" lon="-4.413950">
        <ele>2471.0</ele>
        <time>2016-07-12T15:46:50Z</time>
      </trkpt>
      <trkpt lat="41.283917" lon="-4.413867">
        <ele>2472.0</ele>
        <time>2016-07-12T15:46:51Z</time>
      </trkpt>
      <trkpt lat="41.283817" lon="-4.413800">
        <ele>2474.0</ele>
        <time>2016-07-12T15:46:52Z</time>
      </trkpt>
      <trkpt lat="41.283717" lon="-4.413733">
        <ele>2475.0</ele>
        <time>2016-07-12T15:46:53Z</time>
      </trkpt>
      <trkpt lat="41.283600" lon="-4.413667">
        <ele>2476.0</ele>
        <time>2016-07-12T15:46:54Z</time>
      </trkpt>
      <trkpt lat="41.283500" lon="-4.413617">
        <ele>2476.0</ele>
        <time>2016-07-12T15:46:55Z</time>
      </trkpt>
      <trkpt lat="41.283367" lon="-4.413583">
        <ele>2477.0</ele>
        <time>2016-07-12T15:46:56Z</time>
      </trkpt>
      <trkpt lat="41.283250" lon="-4.413583">
        <ele>2477.0</ele>
        <time>2016-07-12T15:46:57Z</time>
      </trkpt>
      <trkpt lat="41.283133" lon="-4.413567">
        <ele>2477.0</ele>
        <time>2016-07-12T15:46:58Z</time>
      </trkpt>
      <trkpt lat="41.283017" lon="-4.413550">
        <ele>2477.0</ele>
        <time>2016-07-12T15:46:59Z</time>
      </trkpt>
      <trkpt lat="41.282900" lon="-4.413533">
        <ele>2477.0</ele>
        <time>2016-07-12T15:47:00Z</time>
      </trkpt>
      <trkpt lat="41.282783" lon="-4.413533">
        <ele>2476.0</ele>
        <time>2016-07-12T15:47:01Z</time>
      </trkpt>
      <trkpt lat="41.282683" lon="-4.413550">
        <ele>2475.0</ele>
        <time>2016-07-12T15:47:02Z</time>
      </trkpt>
      <trkpt lat="41.282567" lon="-4.413567">
        <ele>2474.0</ele>
        <time>2016-07-12T15:47:03Z</time>
      </trkpt>
      <trkpt lat="41.282450" lon="-4.413583">
        <ele>2472.0</ele>
        <time>2016-07-12T15:47:04Z</time>
      </trkpt>
      <trkpt lat="41.282333" lon="-4.413600">
        <ele>2470.0</ele>
        <time>2016-07-12T15:47:05Z</time>
      </trkpt>
      <trkpt lat="41.282200" lon="-4.413600">
        <ele>2469.0</ele>
        <time>2016-07-12T15:47:06Z</time>
      </trkpt>
      <trkpt lat="41.282083" lon="-4.413617">
        <ele>2469.0</ele>
        <time>2016-07-12T15:47:07Z</time>
      </trkpt>
      <trkpt lat="41.281967" lon="-4.413633">
        <ele>2468.0</ele>
        <time>2016-07-12T15:47:08Z</time>
      </trkpt>
      <trkpt lat="41.281867" lon="-4.413667">
        <ele>2467.0</ele>
        <time>2016-07-12T15:47:09Z</time>
      </trkpt>
      <trkpt lat="41.281750" lon="-4.413700">
        <ele>2465.0</ele>
        <time>2016-07-12T15:47:10Z</time>
      </trkpt>
      <trkpt lat="41.281633" lon="-4.413733">
        <ele>2462.0</ele>
        <time>2016-07-12T15:47:11Z</time>
      </trkpt>
      <trkpt lat="41.281500" lon="-4.413767">
        <ele>2459.0</ele>
        <time>2016-07-12T15:47:12Z</time>
      </trkpt>
      <trkpt lat="41.281367" lon="-4.413800">
        <ele>2457.0</ele>
        <time>2016-07-12T15:47:13Z</time>
      </trkpt>
      <trkpt lat="41.281233" lon="-4.413833">
        <ele>2456.0</ele>
        <time>2016-07-12T15:47:14Z</time>
      </trkpt>
      <trkpt lat="41.281117" lon="-4.413867">
        <ele>2455.0</ele>
        <time>2016-07-12T15:47:15Z</time>
      </trkpt>
      <trkpt lat="41.281000" lon="-4.413900">
        <ele>2455.0</ele>
        <time>2016-07-12T15:47:16Z</time>
      </trkpt>
      <trkpt lat="41.280883" lon="-4.413933">
        <ele>2454.0</ele>
        <time>2016-07-12T15:47:17Z</time>
      </trkpt>
      <trkpt lat="41.280767" lon="-4.413967">
        <ele>2453.0</ele>
        <time>2016-07-12T15:47:18Z</time>
      </trkpt>
      <trkpt lat="41.280667" lon="-4.413983">
        <ele>2452.0</ele>
        <time>2016-07-12T15:47:19Z</time>
      </trkpt>
      <trkpt lat="41.280550" lon="-4.413983">
        <ele>2450.0</ele>
        <time>2016-07-12T15:47:20Z</time>
      </trkpt>
      <trkpt lat="41.280417" lon="-4.413950">
        <ele>2448.0</ele>
        <time>2016-07-12T15:47:21Z</time>
      </trkpt>
      <trkpt lat="41.280300" lon="-4.413883">
        <ele>2446.0</ele>
        <time>2016-07-12T15:47:22Z</time>
      </trkpt>
      <trkpt lat="41.280200" lon="-4.413833">
        <ele>2445.0</ele>
        <time>2016-07-12T15:47:23Z</time>
      </trkpt>
      <trkpt lat="41.280100" lon="-4.413767">
        <ele>2445.0</ele>
        <time>2016-07-12T15:47:24Z</time>
      </trkpt>
      <trkpt lat="41.280000" lon="-4.413700">
        <ele>2443.0</ele>
        <time>2016-07-12T15:47:25Z</time>
      </trkpt>
      <trkpt lat="41.279900" lon="-4.413633">
        <ele>2441.0</ele>
        <time>2016-07-12T15:47:26Z</time>
      </trkpt>
      <trkpt lat="41.279800" lon="-4.413550">
        <ele>2438.0</ele>
        <time>2016-07-12T15:47:27Z</time>
      </trkpt>
      <trkpt lat="41.279700" lon="-4.413483">
        <ele>2436.0</ele>
        <time>2016-07-12T15:47:28Z</time>
      </trkpt>
      <trkpt lat="41.279583" lon="-4.413400">
        <ele>2435.0</ele>
        <time>2016-07-12T15:47:29Z</time>
      </trkpt>
      <trkpt lat="41.279483" lon="-4.413333">
        <ele>2434.0</ele>
        <time>2016-07-12T15:47:30Z</time>
      </trkpt>
      <trkpt lat="41.279383" lon="-4.413267">
        <ele>2433.0</ele>
        <time>2016-07-12T15:47:31Z</time>
      </trkpt>
      <trkpt lat="41.279283" lon="-4.413200">
        <ele>2432.0</ele>
        <time>2016-07-12T15:47:32Z</time>
      </trkpt>
      <trkpt lat="41.279200" lon="-4.413117">
        <ele>2431.0</ele>
        <time>2016-07-12T15:47:33Z</time>
      </trkpt>
      <trkpt lat="41.279133" lon="-4.413017">
        <ele>2429.0</ele>
        <time>2016-07-12T15:47:34Z</time>
      </trkpt>
      <trkpt lat="41.279067" lon="-4.412900">
        <ele>2427.0</ele>
        <time>2016-07-12T15:47:35Z</time>
      </trkpt>
      <trkpt lat="41.279017" lon="-4.412783">
        <ele>2426.0</ele>
        <time>2016-07-12T15:47:36Z</time>
      </trkpt>
      <trkpt lat="41.278967" lon="-4.412650">
        <ele>2424.0</ele>
        <time>2016-07-12T15:47:37Z</time>
      </trkpt>
      <trkpt lat="41.278933" lon="-4.412550">
        <ele>2423.0</ele>
        <time>2016-07-12T15:47:38Z</time>
      </trkpt>
      <trkpt lat="41.278867" lon="-4.412450">
        <ele>2422.0</ele>
        <time>2016-07-12T15:47:39Z</time>
      </trkpt>
      <trkpt lat="41.278817" lon="-4.412350">
        <ele>2420.0</ele>
        <time>2016-07-12T15:47:40Z</time>
      </trkpt>
      <trkpt lat="41.278750" lon="-4.412250">
        <ele>2418.0</ele>
        <time>2016-07-12T15:47:41Z</time>
      </trkpt>
      <trkpt lat="41.278683" lon="-4.412150">
        <ele>2414.0</ele>
        <time>2016-07-12T15:47:42Z</time>
      </trkpt>
      <trkpt lat="41.278617" lon="-4.412033">
        <ele>2411.0</ele>
        <time>2016-07-12T15:47:43Z</time>
      </trkpt>
      <trkpt lat="41.278533" lon="-4.411917">
        <ele>2408.0</ele>
        <time>2016-07-12T15:47:44Z</time>
      </trkpt>
      <trkpt lat="41.278450" lon="-4.411800">
        <ele>2406.0</ele>
        <time>2016-07-12T15:47:45Z</time>
      </trkpt>
      <trkpt lat="41.278367" lon="-4.411700">
        <ele>2405.0</ele>
        <time>2016-07-12T15:47:46Z</time>
      </trkpt>
      <trkpt lat="41.278283" lon="-4.411617">
        <ele>2404.0</ele>
        <time>2016-07-12T15:47:47Z</time>
      </trkpt>
      <trkpt lat="41.278200" lon="-4.411533">
        <ele>2402.0</ele>
        <time>2016-07-12T15:47:48Z</time>
      </trkpt>
      <trkpt lat="41.278117" lon="-4.411433">
        <ele>2398.0</ele>
        <time>2016-07-12T15:47:49Z</time>
      </trkpt>
      <trkpt lat="41.278017" lon="-4.411317">
        <ele>2394.0</ele>
        <time>2016-07-12T15:47:50Z</time>
      </trkpt>
      <trkpt lat="41.277917" lon="-4.411217">
        <ele>2390.0</ele>
        <time>2016-07-12T15:47:51Z</time>
      </trkpt>
      <trkpt lat="41.277800" lon="-4.411100">
        <ele>2388.0</ele>
        <time>2016-07-12T15:47:52Z</time>
      </trkpt>
      <trkpt lat="41.277683" lon="-4.411000">
        <ele>2387.0</ele>
        <time>2016-07-12T15:47:53Z</time>
      </trkpt>
      <trkpt lat="41.277567" lon="-4.410917">
        <ele>2385.0</ele>
        <time>2016-07-12T15:47:54Z</time>
      </trkpt>
      <trkpt lat="41.277450" lon="-4.410833">
        <ele>2384.0</ele>
        <time>2016-07-12T15:47:55Z</time>
      </trkpt>
      <trkpt lat="41.277333" lon="-4.410733">
        <ele>2383.0</ele>
        <time>2016-07-12T15:47:56Z</time>
      </trkpt>
      <trkpt lat="41.277217" lon="-4.410633">
        <ele>2381.0</ele>
        <time>2016-07-12T15:47:57Z</time>
      </trkpt>
      <trkpt lat="41.277100" lon="-4.410517">
        <ele>2381.0</ele>
        <time>2016-07-12T15:47:58Z</time>
      </trkpt>
      <trkpt lat="41.276983" lon="-4.410417">
        <ele>2380.0</ele>
        <time>2016-07-12T15:47:59Z</time>
      </trkpt>
      <trkpt lat="41.276850" lon="-4.410317">
        <ele>2380.0</ele>
        <time>2016-07-12T15:48:00Z</time>
      </trkpt>
      <trkpt lat="41.276733" lon="-4.410217">
        <ele>2380.0</ele>
        <time>2016-07-12T15:48:01Z</time>
      </trkpt>
      <trkpt lat="41.276617" lon="-4.410133">
        <ele>2379.0</ele>
        <time>2016-07-12T15:48:02Z</time>
      </trkpt>
      <trkpt lat="41.276500" lon="-4.410017">
        <ele>2379.0</ele>
        <time>2016-07-12T15:48:03Z</time>
      </trkpt>
      <trkpt lat="41.276367" lon="-4.409900">
        <ele>2378.0</ele>
        <time>2016-07-12T15:48:04Z</time>
      </trkpt>
      <trkpt lat="41.276217" lon="-4.409750">
        <ele>2379.0</ele>
        <time>2016-07-12T15:48:05Z</time>
      </trkpt>
      <trkpt lat="41.276083" lon="-4.409617">
        <ele>2382.0</ele>
        <time>2016-07-12T15:48:06Z</time>
      </trkpt>
      <trkpt lat="41.275967" lon="-4.409467">
        <ele>2386.0</ele>
        <time>2016-07-12T15:48:07Z</time>
      </trkpt>
      <trkpt lat="41.275867" lon="-4.409350">
        <ele>2390.0</ele>
        <time>2016-07-12T15:48:08Z</time>
      </trkpt>
      <trkpt lat="41.275783" lon="-4.409233">
        <ele>2393.0</ele>
        <time>2016-07-12T15:48:09Z</time>
      </trkpt>
      <trkpt lat="41.275700" lon="-4.409133">
        <ele>2396.0</ele>
        <time>2016-07-12T15:48:10Z</time>
      </trkpt>
      <trkpt lat="41.275600" lon="-4.409017">
        <ele>2397.0</ele>
        <time>2016-07-12T15:48:11Z</time>
      </trkpt>
      <trkpt lat="41.275517" lon="-4.408883">
        <ele>2397.0</ele>
        <time>2016-07-12T15:48:12Z</time>
      </trkpt>
      <trkpt lat="41.275417" lon="-4.408750">
        <ele>2398.0</ele>
        <time>2016-07-12T15:48:13Z</time>
      </trkpt>
      <trkpt lat="41.275317" lon="-4.408617">
        <ele>2400.0</ele>
        <time>2016-07-12T15:48:14Z</time>
      </trkpt>
      <trkpt lat="41.275217" lon="-4.408517">
        <ele>2402.0</ele>
        <time>2016-07-12T15:48:15Z</time>
      </trkpt>
      <trkpt lat="41.275100" lon="-4.408433">
        <ele>2404.0</ele>
        <time>2016-07-12T15:48:16Z</time>
      </trkpt>
      <trkpt lat="41.274983" lon="-4.408350">
        <ele>2405.0</ele>
        <time>2016-07-12T15:48:17Z</time>
      </trkpt>
      <trkpt lat="41.274850" lon="-4.408283">
        <ele>2406.0</ele>
        <time>2016-07-12T15:48:18Z</time>
      </trkpt>
      <trkpt lat="41.274733" lon="-4.408233">
        <ele>2407.0</ele>
        <time>2016-07-12T15:48:19Z</time>
      </trkpt>
      <trkpt lat="41.274617" lon="-4.408167">
        <ele>2407.0</ele>
        <time>2016-07-12T15:48:20Z</time>
      </trkpt>
      <trkpt lat="41.274483" lon="-4.408133">
        <ele>2408.0</ele>
        <time>2016-07-12T15:48:21Z</time>
      </trkpt>
      <trkpt lat="41.274367" lon="-4.408100">
        <ele>2410.0</ele>
        <time>2016-07-12T15:48:22Z</time>
      </trkpt>
      <trkpt lat="41.274233" lon="-4.408067">
        <ele>2412.0</ele>
        <time>2016-07-12T15:48:23Z</time>
      </trkpt>
      <trkpt lat="41.274100" lon="-4.408033">
        <ele>2415.0</ele>
        <time>2016-07-12T15:48:24Z</time>
      </trkpt>
      <trkpt lat="41.273983" lon="-4.408017">
        <ele>2417.0</ele>
        <time>2016-07-12T15:48:25Z</time>
      </trkpt>
      <trkpt lat="41.273850" lon="-4.408000">
        <ele>2419.0</ele>
        <time>2016-07-12T15:48:26Z</time>
      </trkpt>
      <trkpt lat="41.273733" lon="-4.407983">
        <ele>2423.0</ele>
        <time>2016-07-12T15:48:27Z</time>
      </trkpt>
      <trkpt lat="41.273617" lon="-4.407967">
        <ele>2426.0</ele>
        <time>2016-07-12T15:48:28Z</time>
      </trkpt>
      <trkpt lat="41.273500" lon="-4.407967">
        <ele>2429.0</ele>
        <time>2016-07-12T15:48:29Z</time>
      </trkpt>
      <trkpt lat="41.273400" lon="-4.407950">
        <ele>2432.0</ele>
        <time>2016-07-12T15:48:30Z</time>
      </trkpt>
      <trkpt lat="41.273283" lon="-4.407967">
        <ele>2434.0</ele>
        <time>2016-07-12T15:48:31Z</time>
      </trkpt>
      <trkpt lat="41.273167" lon="-4.407967">
        <ele>2436.0</ele>
        <time>2016-07-12T15:48:32Z</time>
      </trkpt>
      <trkpt lat="41.273050" lon="-4.407983">
        <ele>2437.0</ele>
        <time>2016-07-12T15:48:33Z</time>
      </trkpt>
      <trkpt lat="41.272950" lon="-4.408017">
        <ele>2437.0</ele>
        <time>2016-07-12T15:48:34Z</time>
      </trkpt>
      <trkpt lat="41.272850" lon="-4.408067">
        <ele>2436.0</ele>
        <time>2016-07-12T15:48:35Z</time>
      </trkpt>
      <trkpt lat="41.272783" lon="-4.408117">
        <ele>2435.0</ele>
        <time>2016-07-12T15:48:36Z</time>
      </trkpt>
      <trkpt lat="41.272717" lon="-4.408200">
        <ele>2432.0</ele>
        <time>2016-07-12T15:48:37Z</time>
      </trkpt>
      <trkpt lat="41.272683" lon="-4.408283">
        <ele>2429.0</ele>
        <time>2016-07-12T15:48:38Z</time>
      </trkpt>
      <trkpt lat="41.272683" lon="-4.408383">
        <ele>2426.0</ele>
        <time>2016-07-12T15:48:39Z</time>
      </trkpt>
      <trkpt lat="41.272717" lon="-4.408450">
        <ele>2424.0</ele>
        <time>2016-07-12T15:48:40Z</time>
      </trkpt>
      <trkpt lat="41.272783" lon="-4.408483">
        <ele>2422.0</ele>
        <time>2016-07-12T15:48:41Z</time>
      </trkpt>
      <trkpt lat="41.272833" lon="-4.408467">
        <ele>2420.0</ele>
        <time>2016-07-12T15:48:42Z</time>
      </trkpt>
      <trkpt lat="41.272883" lon="-4.408417">
        <ele>2419.0</ele>
        <time>2016-07-12T15:48:43Z</time>
      </trkpt>
      <trkpt lat="41.272933" lon="-4.408333">
        <ele>2418.0</ele>
        <time>2016-07-12T15:48:44Z</time>
      </trkpt>
      <trkpt lat="41.272967" lon="-4.408250">
        <ele>2418.0</ele>
        <time>2016-07-12T15:48:45Z</time>
      </trkpt>
      <trkpt lat="41.272983" lon="-4.408133">
        <ele>2417.0</ele>
        <time>2016-07-12T15:48:46Z</time>
      </trkpt>
      <trkpt lat="41.273000" lon="-4.408000">
        <ele>2417.0</ele>
        <time>2016-07-12T15:48:47Z</time>
      </trkpt>
      <trkpt lat="41.273000" lon="-4.407850">
        <ele>2417.0</ele>
        <time>2016-07-12T15:48:48Z</time>
      </trkpt>
      <trkpt lat="41.272967" lon="-4.407717">
        <ele>2418.0</ele>
        <time>2016-07-12T15:48:49Z</time>
      </trkpt>
      <trkpt lat="41.272933" lon="-4.407567">
        <ele>2419.0</ele>
        <time>2016-07-12T15:48:50Z</time>
      </trkpt>
      <trkpt lat="41.272867" lon="-4.407450">
        <ele>2420.0</ele>
        <time>2016-07-12T15:48:51Z</time>
      </trkpt>
      <trkpt lat="41.272800" lon="-4.407333">
        <ele>2421.0</ele>
        <time>2016-07-12T15:48:52Z</time>
      </trkpt>
      <trkpt lat="41.272750" lon="-4.407200">
        <ele>2422.0</ele>
        <time>2016-07-12T15:48:53Z</time>
      </trkpt>
      <trkpt lat="41.272683" lon="-4.407083">
        <ele>2422.0</ele>
        <time>2016-07-12T15:48:54Z</time>
      </trkpt>
      <trkpt lat="41.272633" lon="-4.406933">
        <ele>2424.0</ele>
        <time>2016-07-12T15:48:55Z</time>
      </trkpt>
      <trkpt lat="41.272583" lon="-4.406783">
        <ele>2427.0</ele>
        <time>2016-07-12T15:48:56Z</time>
      </trkpt>
      <trkpt lat="41.272533" lon="-4.406633">
        <ele>2430.0</ele>
        <time>2016-07-12T15:48:57Z</time>
      </trkpt>
      <trkpt lat="41.272467" lon="-4.406500">
        <ele>2432.0</ele>
        <time>2016-07-12T15:48:58Z</time>
      </trkpt>
      <trkpt lat="41.272400" lon="-4.406367">
        <ele>2435.0</ele>
        <time>2016-07-12T15:48:59Z</time>
      </trkpt>
      <trkpt lat="41.272317" lon="-4.406233">
        <ele>2437.0</ele>
        <time>2016-07-12T15:49:00Z</time>
      </trkpt>
      <trkpt lat="41.272200" lon="-4.406133">
        <ele>2439.0</ele>
        <time>2016-07-12T15:49:01Z</time>
      </trkpt>
      <trkpt lat="41.272083" lon="-4.406067">
        <ele>2440.0</ele>
        <time>2016-07-12T15:49:02Z</time>
      </trkpt>
      <trkpt lat="41.271967" lon="-4.406000">
        <ele>2441.0</ele>
        <time>2016-07-12T15:49:03Z</time>
      </trkpt>
      <trkpt lat="41.271833" lon="-4.405950">
        <ele>2442.0</ele>
        <time>2016-07-12T15:49:04Z</time>
      </trkpt>
      <trkpt lat="41.271717" lon="-4.405933">
        <ele>2444.0</ele>
        <time>2016-07-12T15:49:05Z</time>
      </trkpt>
      <trkpt lat="41.271600" lon="-4.405933">
        <ele>2446.0</ele>
        <time>2016-07-12T15:49:06Z</time>
      </trkpt>
      <trkpt lat="41.271500" lon="-4.405967">
        <ele>2447.0</ele>
        <time>2016-07-12T15:49:07Z</time>
      </trkpt>
      <trkpt lat="41.271417" lon="-4.406017">
        <ele>2449.0</ele>
        <time>2016-07-12T15:49:08Z</time>
      </trkpt>
      <trkpt lat="41.271350" lon="-4.406050">
        <ele>2451.0</ele>
        <time>2016-07-12T15:49:09Z</time>
      </trkpt>
      <trkpt lat="41.271300" lon="-4.406100">
        <ele>2451.0</ele>
        <time>2016-07-12T15:49:10Z</time>
      </trkpt>
      <trkpt lat="41.271300" lon="-4.406150">
        <ele>2450.0</ele>
        <time>2016-07-12T15:49:11Z</time>
      </trkpt>
      <trkpt lat="41.271317" lon="-4.406217">
        <ele>2449.0</ele>
        <time>2016-07-12T15:49:12Z</time>
      </trkpt>
      <trkpt lat="41.271367" lon="-4.406233">
        <ele>2450.0</ele>
        <time>2016-07-12T15:49:13Z</time>
      </trkpt>
      <trkpt lat="41.271433" lon="-4.406217">
        <ele>2452.0</ele>
        <time>2016-07-12T15:49:14Z</time>
      </trkpt>
      <trkpt lat="41.271467" lon="-4.406150">
        <ele>2455.0</ele>
        <time>2016-07-12T15:49:15Z</time>
      </trkpt>
      <trkpt lat="41.271500" lon="-4.406067">
        <ele>2458.0</ele>
        <time>2016-07-12T15:49:16Z</time>
      </trkpt>
      <trkpt lat="41.271533" lon="-4.405983">
        <ele>2461.0</ele>
        <time>2016-07-12T15:49:17Z</time>
      </trkpt>
      <trkpt lat="41.271583" lon="-4.405917">
        <ele>2463.0</ele>
        <time>2016-07-12T15:49:18Z</time>
      </trkpt>
      <trkpt lat="41.271617" lon="-4.405833">
        <ele>2465.0</ele>
        <time>2016-07-12T15:49:19Z</time>
      </trkpt>
      <trkpt lat="41.271633" lon="-4.405733">
        <ele>2467.0</ele>
        <time>2016-07-12T15:49:20Z</time>
      </trkpt>
      <trkpt lat="41.271633" lon="-4.405600">
        <ele>2470.0</ele>
        <time>2016-07-12T15:49:21Z</time>
      </trkpt>
      <trkpt lat="41.271617" lon="-4.405467">
        <ele>2472.0</ele>
        <time>2016-07-12T15:49:22Z</time>
      </trkpt>
      <trkpt lat="41.271617" lon="-4.405333">
        <ele>2473.0</ele>
        <time>2016-07-12T15:49:23Z</time>
      </trkpt>
      <trkpt lat="41.271600" lon="-4.405200">
        <ele>2474.0</ele>
        <time>2016-07-12T15:49:24Z</time>
      </trkpt>
      <trkpt lat="41.271600" lon="-4.405050">
        <ele>2474.0</ele>
        <time>2016-07-12T15:49:25Z</time>
      </trkpt>
      <trkpt lat="41.271567" lon="-4.404900">
        <ele>2475.0</ele>
        <time>2016-07-12T15:49:26Z</time>
      </trkpt>
      <trkpt lat="41.271517" lon="-4.404750">
        <ele>2476.0</ele>
        <time>2016-07-12T15:49:27Z</time>
      </trkpt>
      <trkpt lat="41.271433" lon="-4.404600">
        <ele>2477.0</ele>
        <time>2016-07-12T15:49:28Z</time>
      </trkpt>
      <trkpt lat="41.271333" lon="-4.404467">
        <ele>2478.0</ele>
        <time>2016-07-12T15:49:29Z</time>
      </trkpt>
      <trkpt lat="41.271233" lon="-4.404350">
        <ele>2479.0</ele>
        <time>2016-07-12T15:49:30Z</time>
      </trkpt>
      <trkpt lat="41.271133" lon="-4.404250">
        <ele>2478.0</ele>
        <time>2016-07-12T15:49:31Z</time>
      </trkpt>
      <trkpt lat="41.271000" lon="-4.404167">
        <ele>2478.0</ele>
        <time>2016-07-12T15:49:32Z</time>
      </trkpt>
      <trkpt lat="41.270883" lon="-4.404100">
        <ele>2477.0</ele>
        <time>2016-07-12T15:49:33Z</time>
      </trkpt>
      <trkpt lat="41.270750" lon="-4.404050">
        <ele>2477.0</ele>
        <time>2016-07-12T15:49:34Z</time>
      </trkpt>
      <trkpt lat="41.270633" lon="-4.404033">
        <ele>2476.0</ele>
        <time>2016-07-12T15:49:35Z</time>
      </trkpt>
      <trkpt lat="41.270517" lon="-4.404017">
        <ele>2476.0</ele>
        <time>2016-07-12T15:49:36Z</time>
      </trkpt>
      <trkpt lat="41.270383" lon="-4.404017">
        <ele>2475.0</ele>
        <time>2016-07-12T15:49:37Z</time>
      </trkpt>
      <trkpt lat="41.270267" lon="-4.404000">
        <ele>2475.0</ele>
        <time>2016-07-12T15:49:38Z</time>
      </trkpt>
      <trkpt lat="41.270133" lon="-4.403983">
        <ele>2475.0</ele>
        <time>2016-07-12T15:49:39Z</time>
      </trkpt>
      <trkpt lat="41.270000" lon="-4.403983">
        <ele>2475.0</ele>
        <time>2016-07-12T15:49:40Z</time>
      </trkpt>
      <trkpt lat="41.269867" lon="-4.403983">
        <ele>2476.0</ele>
        <time>2016-07-12T15:49:41Z</time>
      </trkpt>
      <trkpt lat="41.269767" lon="-4.404017">
        <ele>2477.0</ele>
        <time>2016-07-12T15:49:42Z</time>
      </trkpt>
      <trkpt lat="41.269683" lon="-4.404067">
        <ele>2477.0</ele>
        <time>2016-07-12T15:49:43Z</time>
      </trkpt>
      <trkpt lat="41.269600" lon="-4.404117">
        <ele>2476.0</ele>
        <time>2016-07-12T15:49:44Z</time>
      </trkpt>
      <trkpt lat="41.269517" lon="-4.404150">
        <ele>2474.0</ele>
        <time>2016-07-12T15:49:45Z</time>
      </trkpt>
      <trkpt lat="41.269400" lon="-4.404200">
        <ele>2472.0</ele>
        <time>2016-07-12T15:49:46Z</time>
      </trkpt>
      <trkpt lat="41.269283" lon="-4.404250">
        <ele>2471.0</ele>
        <time>2016-07-12T15:49:47Z</time>
      </trkpt>
      <trkpt lat="41.269183" lon="-4.404300">
        <ele>2471.0</ele>
        <time>2016-07-12T15:49:48Z</time>
      </trkpt>
      <trkpt lat="41.269083" lon="-4.404350">
        <ele>2471.0</ele>
        <time>2016-07-12T15:49:49Z</time>
      </trkpt>
      <trkpt lat="41.268983" lon="-4.404400">
        <ele>2471.0</ele>
        <time>2016-07-12T15:49:50Z</time>
      </trkpt>
      <trkpt lat="41.268883" lon="-4.404433">
        <ele>2470.0</ele>
        <time>2016-07-12T15:49:51Z</time>
      </trkpt>
      <trkpt lat="41.268767" lon="-4.404483">
        <ele>2468.0</ele>
        <time>2016-07-12T15:49:52Z</time>
      </trkpt>
      <trkpt lat="41.268667" lon="-4.404533">
        <ele>2467.0</ele>
        <time>2016-07-12T15:49:53Z</time>
      </trkpt>
      <trkpt lat="41.268567" lon="-4.404600">
        <ele>2466.0</ele>
        <time>2016-07-12T15:49:54Z</time>
      </trkpt>
      <trkpt lat="41.268500" lon="-4.404683">
        <ele>2465.0</ele>
        <time>2016-07-12T15:49:55Z</time>
      </trkpt>
      <trkpt lat="41.268450" lon="-4.404767">
        <ele>2463.0</ele>
        <time>2016-07-12T15:49:56Z</time>
      </trkpt>
      <trkpt lat="41.268433" lon="-4.404850">
        <ele>2461.0</ele>
        <time>2016-07-12T15:49:57Z</time>
      </trkpt>
      <trkpt lat="41.268417" lon="-4.404950">
        <ele>2458.0</ele>
        <time>2016-07-12T15:49:58Z</time>
      </trkpt>
      <trkpt lat="41.268417" lon="-4.405050">
        <ele>2456.0</ele>
        <time>2016-07-12T15:49:59Z</time>
      </trkpt>
      <trkpt lat="41.268417" lon="-4.405150">
        <ele>2454.0</ele>
        <time>2016-07-12T15:50:00Z</time>
      </trkpt>
      <trkpt lat="41.268450" lon="-4.405233">
        <ele>2452.0</ele>
        <time>2016-07-12T15:50:01Z</time>
      </trkpt>
      <trkpt lat="41.268500" lon="-4.405283">
        <ele>2450.0</ele>
        <time>2016-07-12T15:50:02Z</time>
      </trkpt>
      <trkpt lat="41.268567" lon="-4.405317">
        <ele>2449.0</ele>
        <time>2016-07-12T15:50:03Z</time>
      </trkpt>
      <trkpt lat="41.268617" lon="-4.405300">
        <ele>2449.0</ele>
        <time>2016-07-12T15:50:04Z</time>
      </trkpt>
      <trkpt lat="41.268667" lon="-4.405267">
        <ele>2448.0</ele>
        <time>2016-07-12T15:50:05Z</time>
      </trkpt>
      <trkpt lat="41.268717" lon="-4.405200">
        <ele>2447.0</ele>
        <time>2016-07-12T15:50:06Z</time>
      </trkpt>
      <trkpt lat="41.268750" lon="-4.405117">
        <ele>2446.0</ele>
        <time>2016-07-12T15:50:07Z</time>
      </trkpt>
      <trkpt lat="41.268767" lon="-4.405017">
        <ele>2445.0</ele>
        <time>2016-07-12T15:50:08Z</time>
      </trkpt>
      <trkpt lat="41.268783" lon="-4.404900">
        <ele>2444.0</ele>
        <time>2016-07-12T15:50:09Z</time>
      </trkpt>
      <trkpt lat="41.268767" lon="-4.404767">
        <ele>2443.0</ele>
        <time>2016-07-12T15:50:10Z</time>
      </trkpt>
      <trkpt lat="41.268733" lon="-4.404633">
        <ele>2441.0</ele>
        <time>2016-07-12T15:50:11Z</time>
      </trkpt>
      <trkpt lat="41.268700" lon="-4.404500">
        <ele>2440.0</ele>
        <time>2016-07-12T15:50:12Z</time>
      </trkpt>
      <trkpt lat="41.268667" lon="-4.404350">
        <ele>2440.0</ele>
        <time>2016-07-12T15:50:13Z</time>
      </trkpt>
      <trkpt lat="41.268600" lon="-4.404217">
        <ele>2439.0</ele>
        <time>2016-07-12T15:50:14Z</time>
      </trkpt>
      <trkpt lat="41.268550" lon="-4.404083">
        <ele>2439.0</ele>
        <time>2016-07-12T15:50:15Z</time>
      </trkpt>
      <trkpt lat="41.268467" lon="-4.403950">
        <ele>2438.0</ele>
        <time>2016-07-12T15:50:16Z</time>
      </trkpt>
      <trkpt lat="41.268367" lon="-4.403800">
        <ele>2437.0</ele>
        <time>2016-07-12T15:50:17Z</time>
      </trkpt>
      <trkpt lat="41.268267" lon="-4.403650">
        <ele>2437.0</ele>
        <time>2016-07-12T15:50:18Z</time>
      </trkpt>
      <trkpt lat="41.268183" lon="-4.403517">
        <ele>2438.0</ele>
        <time>2016-07-12T15:50:19Z</time>
      </trkpt>
      <trkpt lat="41.268100" lon="-4.403400">
        <ele>2440.0</ele>
        <time>2016-07-12T15:50:20Z</time>
      </trkpt>
      <trkpt lat="41.268017" lon="-4.403283">
        <ele>2440.0</ele>
        <time>2016-07-12T15:50:21Z</time>
      </trkpt>
      <trkpt lat="41.267950" lon="-4.403167">
        <ele>2440.0</ele>
        <time>2016-07-12T15:50:22Z</time>
      </trkpt>
      <trkpt lat="41.267867" lon="-4.403050">
        <ele>2439.0</ele>
        <time>2016-07-12T15:50:23Z</time>
      </trkpt>
      <trkpt lat="41.267783" lon="-4.402917">
        <ele>2437.0</ele>
        <time>2016-07-12T15:50:24Z</time>
      </trkpt>
      <trkpt lat="41.267700" lon="-4.402783">
        <ele>2437.0</ele>
        <time>2016-07-12T15:50:25Z</time>
      </trkpt>
      <trkpt lat="41.267633" lon="-4.402650">
        <ele>2438.0</ele>
        <time>2016-07-12T15:50:26Z</time>
      </trkpt>
      <trkpt lat="41.267550" lon="-4.402550">
        <ele>2438.0</ele>
        <time>2016-07-12T15:50:27Z</time>
      </trkpt>
      <trkpt lat="41.267483" lon="-4.402450">
        <ele>2438.0</ele>
        <time>2016-07-12T15:50:28Z</time>
      </trkpt>
      <trkpt lat="41.267400" lon="-4.402350">
        <ele>2437.0</ele>
        <time>2016-07-12T15:50:29Z</time>
      </trkpt>
      <trkpt lat="41.267333" lon="-4.402233">
        <ele>2436.0</ele>
        <time>2016-07-12T15:50:30Z</time>
      </trkpt>
      <trkpt lat="41.267250" lon="-4.402100">
        <ele>2435.0</ele>
        <time>2016-07-12T15:50:31Z</time>
      </trkpt>
      <trkpt lat="41.267183" lon="-4.401967">
        <ele>2435.0</ele>
        <time>2016-07-12T15:50:32Z</time>
      </trkpt>
      <trkpt lat="41.267100" lon="-4.401850">
        <ele>2436.0</ele>
        <time>2016-07-12T15:50:33Z</time>
      </trkpt>
      <trkpt lat="41.267000" lon="-4.401750">
        <ele>2437.0</ele>
        <time>2016-07-12T15:50:34Z</time>
      </trkpt>
      <trkpt lat="41.266900" lon="-4.401667">
        <ele>2437.0</ele>
        <time>2016-07-12T15:50:35Z</time>
      </trkpt>
      <trkpt lat="41.266767" lon="-4.401583">
        <ele>2437.0</ele>
        <time>2016-07-12T15:50:36Z</time>
      </trkpt>
      <trkpt lat="41.266650" lon="-4.401500">
        <ele>2437.0</ele>
        <time>2016-07-12T15:50:37Z</time>
      </trkpt>
      <trkpt lat="41.266533" lon="-4.401383">
        <ele>2437.0</ele>
        <time>2016-07-12T15:50:38Z</time>
      </trkpt>
      <trkpt lat="41.266417" lon="-4.401283">
        <ele>2438.0</ele>
        <time>2016-07-12T15:50:39Z</time>
      </trkpt>
      <trkpt lat="41.266300" lon="-4.401200">
        <ele>2438.0</ele>
        <time>2016-07-12T15:50:40Z</time>
      </trkpt>
      <trkpt lat="41.266183" lon="-4.401100">
        <ele>2437.0</ele>
        <time>2016-07-12T15:50:41Z</time>
      </trkpt>
      <trkpt lat="41.266067" lon="-4.401000">
        <ele>2436.0</ele>
        <time>2016-07-12T15:50:42Z</time>
      </trkpt>
      <trkpt lat="41.265950" lon="-4.400867">
        <ele>2435.0</ele>
        <time>2016-07-12T15:50:43Z</time>
      </trkpt>
      <trkpt lat="41.265850" lon="-4.400750">
        <ele>2435.0</ele>
        <time>2016-07-12T15:50:44Z</time>
      </trkpt>
      <trkpt lat="41.265750" lon="-4.400617">
        <ele>2434.0</ele>
        <time>2016-07-12T15:50:45Z</time>
      </trkpt>
      <trkpt lat="41.265667" lon="-4.400500">
        <ele>2432.0</ele>
        <time>2016-07-12T15:50:46Z</time>
      </trkpt>
      <trkpt lat="41.265550" lon="-4.400383">
        <ele>2430.0</ele>
        <time>2016-07-12T15:50:47Z</time>
      </trkpt>
      <trkpt lat="41.265450" lon="-4.400267">
        <ele>2427.0</ele>
        <time>2016-07-12T15:50:48Z</time>
      </trkpt>
      <trkpt lat="41.265350" lon="-4.400150">
        <ele>2425.0</ele>
        <time>2016-07-12T15:50:49Z</time>
      </trkpt>
      <trkpt lat="41.265250" lon="-4.400017">
        <ele>2423.0</ele>
        <time>2016-07-12T15:50:50Z</time>
      </trkpt>
      <trkpt lat="41.265167" lon="-4.399900">
        <ele>2422.0</ele>
        <time>2016-07-12T15:50:51Z</time>
      </trkpt>
      <trkpt lat="41.265083" lon="-4.399783">
        <ele>2420.0</ele>
        <time>2016-07-12T15:50:52Z</time>
      </trkpt>
      <trkpt lat="41.264983" lon="-4.399683">
        <ele>2419.0</ele>
        <time>2016-07-12T15:50:53Z</time>
      </trkpt>
      <trkpt lat="41.264883" lon="-4.399567">
        <ele>2417.0</ele>
        <time>2016-07-12T15:50:54Z</time>
      </trkpt>
      <trkpt lat="41.264783" lon="-4.399467">
        <ele>2415.0</ele>
        <time>2016-07-12T15:50:55Z</time>
      </trkpt>
      <trkpt lat="41.264700" lon="-4.399350">
        <ele>2412.0</ele>
        <time>2016-07-12T15:50:56Z</time>
      </trkpt>
      <trkpt lat="41.264600" lon="-4.399233">
        <ele>2410.0</ele>
        <time>2016-07-12T15:50:57Z</time>
      </trkpt>
      <trkpt lat="41.264517" lon="-4.399117">
        <ele>2408.0</ele>
        <time>2016-07-12T15:50:58Z</time>
      </trkpt>
      <trkpt lat="41.264400" lon="-4.399017">
        <ele>2407.0</ele>
        <time>2016-07-12T15:50:59Z</time>
      </trkpt>
      <trkpt lat="41.264267" lon="-4.398950">
        <ele>2406.0</ele>
        <time>2016-07-12T15:51:00Z</time>
      </trkpt>
      <trkpt lat="41.264150" lon="-4.398900">
        <ele>2405.0</ele>
        <time>2016-07-12T15:51:01Z</time>
      </trkpt>
      <trkpt lat="41.264017" lon="-4.398833">
        <ele>2403.0</ele>
        <time>2016-07-12T15:51:02Z</time>
      </trkpt>
      <trkpt lat="41.263900" lon="-4.398767">
        <ele>2401.0</ele>
        <time>2016-07-12T15:51:03Z</time>
      </trkpt>
      <trkpt lat="41.263767" lon="-4.398683">
        <ele>2399.0</ele>
        <time>2016-07-12T15:51:04Z</time>
      </trkpt>
      <trkpt lat="41.263650" lon="-4.398617">
        <ele>2398.0</ele>
        <time>2016-07-12T15:51:05Z</time>
      </trkpt>
      <trkpt lat="41.263517" lon="-4.398583">
        <ele>2398.0</ele>
        <time>2016-07-12T15:51:06Z</time>
      </trkpt>
      <trkpt lat="41.263367" lon="-4.398533">
        <ele>2397.0</ele>
        <time>2016-07-12T15:51:07Z</time>
      </trkpt>
      <trkpt lat="41.263233" lon="-4.398483">
        <ele>2396.0</ele>
        <time>2016-07-12T15:51:08Z</time>
      </trkpt>
      <trkpt lat="41.263117" lon="-4.398417">
        <ele>2394.0</ele>
        <time>2016-07-12T15:51:09Z</time>
      </trkpt>
      <trkpt lat="41.262983" lon="-4.398317">
        <ele>2392.0</ele>
        <time>2016-07-12T15:51:10Z</time>
      </trkpt>
      <trkpt lat="41.262883" lon="-4.398200">
        <ele>2391.0</ele>
        <time>2016-07-12T15:51:11Z</time>
      </trkpt>
      <trkpt lat="41.262767" lon="-4.398100">
        <ele>2391.0</ele>
        <time>2016-07-12T15:51:12Z</time>
      </trkpt>
      <trkpt lat="41.262633" lon="-4.398000">
        <ele>2392.0</ele>
        <time>2016-07-12T15:51:13Z</time>
      </trkpt>
      <trkpt lat="41.262500" lon="-4.397933">
        <ele>2392.0</ele>
        <time>2016-07-12T15:51:14Z</time>
      </trkpt>
      <trkpt lat="41.262383" lon="-4.397883">
        <ele>2393.0</ele>
        <time>2016-07-12T15:51:15Z</time>
      </trkpt>
      <trkpt lat="41.262250" lon="-4.397800">
        <ele>2393.0</ele>
        <time>2016-07-12T15:51:16Z</time>
      </trkpt>
      <trkpt lat="41.262133" lon="-4.397717">
        <ele>2393.0</ele>
        <time>2016-07-12T15:51:17Z</time>
      </trkpt>
      <trkpt lat="41.262000" lon="-4.397633">
        <ele>2393.0</ele>
        <time>2016-07-12T15:51:18Z</time>
      </trkpt>
      <trkpt lat="41.261883" lon="-4.397567">
        <ele>2392.0</ele>
        <time>2016-07-12T15:51:19Z</time>
      </trkpt>
      <trkpt lat="41.261750" lon="-4.397500">
        <ele>2390.0</ele>
        <time>2016-07-12T15:51:20Z</time>
      </trkpt>
      <trkpt lat="41.261617" lon="-4.397417">
        <ele>2388.0</ele>
        <time>2016-07-12T15:51:21Z</time>
      </trkpt>
      <trkpt lat="41.261483" lon="-4.397333">
        <ele>2387.0</ele>
        <time>2016-07-12T15:51:22Z</time>
      </trkpt>
      <trkpt lat="41.261367" lon="-4.397217">
        <ele>2386.0</ele>
        <time>2016-07-12T15:51:23Z</time>
      </trkpt>
      <trkpt lat="41.261233" lon="-4.397117">
        <ele>2386.0</ele>
        <time>2016-07-12T15:51:24Z</time>
      </trkpt>
      <trkpt lat="41.261117" lon="-4.397017">
        <ele>2386.0</ele>
        <time>2016-07-12T15:51:25Z</time>
      </trkpt>
      <trkpt lat="41.261000" lon="-4.396933">
        <ele>2386.0</ele>
        <time>2016-07-12T15:51:26Z</time>
      </trkpt>
      <trkpt lat="41.260867" lon="-4.396833">
        <ele>2386.0</ele>
        <time>2016-07-12T15:51:27Z</time>
      </trkpt>
      <trkpt lat="41.260733" lon="-4.396733">
        <ele>2388.0</ele>
        <time>2016-07-12T15:51:28Z</time>
      </trkpt>
      <trkpt lat="41.260617" lon="-4.396633">
        <ele>2390.0</ele>
        <time>2016-07-12T15:51:29Z</time>
      </trkpt>
      <trkpt lat="41.260533" lon="-4.396517">
        <ele>2393.0</ele>
        <time>2016-07-12T15:51:30Z</time>
      </trkpt>
      <trkpt lat="41.260450" lon="-4.396417">
        <ele>2395.0</ele>
        <time>2016-07-12T15:51:31Z</time>
      </trkpt>
      <trkpt lat="41.260333" lon="-4.396333">
        <ele>2395.0</ele>
        <time>2016-07-12T15:51:32Z</time>
      </trkpt>
      <trkpt lat="41.260217" lon="-4.396267">
        <ele>2395.0</ele>
        <time>2016-07-12T15:51:33Z</time>
      </trkpt>
      <trkpt lat="41.260083" lon="-4.396200">
        <ele>2397.0</ele>
        <time>2016-07-12T15:51:34Z</time>
      </trkpt>
      <trkpt lat="41.259967" lon="-4.396133">
        <ele>2399.0</ele>
        <time>2016-07-12T15:51:35Z</time>
      </trkpt>
      <trkpt lat="41.259850" lon="-4.396083">
        <ele>2401.0</ele>
        <time>2016-07-12T15:51:36Z</time>
      </trkpt>
      <trkpt lat="41.259733" lon="-4.396033">
        <ele>2402.0</ele>
        <time>2016-07-12T15:51:37Z</time>
      </trkpt>
      <trkpt lat="41.259617" lon="-4.396017">
        <ele>2402.0</ele>
        <time>2016-07-12T15:51:38Z</time>
      </trkpt>
      <trkpt lat="41.259500" lon="-4.396000">
        <ele>2403.0</ele>
        <time>2016-07-12T15:51:39Z</time>
      </trkpt>
      <trkpt lat="41.259383" lon="-4.396017">
        <ele>2402.0</ele>
        <time>2016-07-12T15:51:40Z</time>
      </trkpt>
      <trkpt lat="41.259267" lon="-4.396050">
        <ele>2402.0</ele>
        <time>2016-07-12T15:51:41Z</time>
      </trkpt>
      <trkpt lat="41.259150" lon="-4.396100">
        <ele>2401.0</ele>
        <time>2016-07-12T15:51:42Z</time>
      </trkpt>
      <trkpt lat="41.259050" lon="-4.396167">
        <ele>2401.0</ele>
        <time>2016-07-12T15:51:43Z</time>
      </trkpt>
      <trkpt lat="41.258950" lon="-4.396250">
        <ele>2400.0</ele>
        <time>2016-07-12T15:51:44Z</time>
      </trkpt>
      <trkpt lat="41.258850" lon="-4.396350">
        <ele>2399.0</ele>
        <time>2016-07-12T15:51:45Z</time>
      </trkpt>
      <trkpt lat="41.258767" lon="-4.396433">
        <ele>2398.0</ele>
        <time>2016-07-12T15:51:46Z</time>
      </trkpt>
      <trkpt lat="41.258717" lon="-4.396533">
        <ele>2398.0</ele>
        <time>2016-07-12T15:51:47Z</time>
      </trkpt>
      <trkpt lat="41.258683" lon="-4.396617">
        <ele>2396.0</ele>
        <time>2016-07-12T15:51:48Z</time>
      </trkpt>
      <trkpt lat="41.258650" lon="-4.396700">
        <ele>2394.0</ele>
        <time>2016-07-12T15:51:49Z</time>
      </trkpt>
      <trkpt lat="41.258633" lon="-4.396800">
        <ele>2390.0</ele>
        <time>2016-07-12T15:51:50Z</time>
      </trkpt>
      <trkpt lat="41.258600" lon="-4.396900">
        <ele>2387.0</ele>
        <time>2016-07-12T15:51:51Z</time>
      </trkpt>
      <trkpt lat="41.258583" lon="-4.397017">
        <ele>2384.0</ele>
        <time>2016-07-12T15:51:52Z</time>
      </trkpt>
      <trkpt lat="41.258600" lon="-4.397133">
        <ele>2382.0</ele>
        <time>2016-07-12T15:51:53Z</time>
      </trkpt>
      <trkpt lat="41.258633" lon="-4.397217">
        <ele>2379.0</ele>
        <time>2016-07-12T15:51:54Z</time>
      </trkpt>
      <trkpt lat="41.258700" lon="-4.397267">
        <ele>2376.0</ele>
        <time>2016-07-12T15:51:55Z</time>
      </trkpt>
      <trkpt lat="41.258767" lon="-4.397283">
        <ele>2374.0</ele>
        <time>2016-07-12T15:51:56Z</time>
      </trkpt>
      <trkpt lat="41.258817" lon="-4.397267">
        <ele>2371.0</ele>
        <time>2016-07-12T15:51:57Z</time>
      </trkpt>
      <trkpt lat="41.258867" lon="-4.397200">
        <ele>2369.0</ele>
        <time>2016-07-12T15:51:58Z</time>
      </trkpt>
      <trkpt lat="41.258883" lon="-4.397117">
        <ele>2367.0</ele>
        <time>2016-07-12T15:51:59Z</time>
      </trkpt>
      <trkpt lat="41.258867" lon="-4.397000">
        <ele>2364.0</ele>
        <time>2016-07-12T15:52:00Z</time>
      </trkpt>
      <trkpt lat="41.258833" lon="-4.396867">
        <ele>2362.0</ele>
        <time>2016-07-12T15:52:01Z</time>
      </trkpt>
      <trkpt lat="41.258783" lon="-4.396733">
        <ele>2361.0</ele>
        <time>2016-07-12T15:52:02Z</time>
      </trkpt>
      <trkpt lat="41.258733" lon="-4.396617">
        <ele>2360.0</ele>
        <time>2016-07-12T15:52:03Z</time>
      </trkpt>
      <trkpt lat="41.258700" lon="-4.396500">
        <ele>2359.0</ele>
        <time>2016-07-12T15:52:04Z</time>
      </trkpt>
      <trkpt lat="41.258667" lon="-4.396400">
        <ele>2357.0</ele>
        <time>2016-07-12T15:52:05Z</time>
      </trkpt>
      <trkpt lat="41.258633" lon="-4.396267">
        <ele>2354.0</ele>
        <time>2016-07-12T15:52:06Z</time>
      </trkpt>
      <trkpt lat="41.258583" lon="-4.396150">
        <ele>2352.0</ele>
        <time>2016-07-12T15:52:07Z</time>
      </trkpt>
      <trkpt lat="41.258517" lon="-4.396017">
        <ele>2351.0</ele>
        <time>2016-07-12T15:52:08Z</time>
      </trkpt>
      <trkpt lat="41.258433" lon="-4.395900">
        <ele>2349.0</ele>
        <time>2016-07-12T15:52:09Z</time>
      </trkpt>
      <trkpt lat="41.258367" lon="-4.395767">
        <ele>2349.0</ele>
        <time>2016-07-12T15:52:10Z</time>
      </trkpt>
      <trkpt lat="41.258300" lon="-4.395650">
        <ele>2349.0</ele>
        <time>2016-07-12T15:52:11Z</time>
      </trkpt>
      <trkpt lat="41.258250" lon="-4.395550">
        <ele>2349.0</ele>
        <time>2016-07-12T15:52:12Z</time>
      </trkpt>
      <trkpt lat="41.258183" lon="-4.395450">
        <ele>2347.0</ele>
        <time>2016-07-12T15:52:13Z</time>
      </trkpt>
      <trkpt lat="41.258067" lon="-4.395350">
        <ele>2344.0</ele>
        <time>2016-07-12T15:52:14Z</time>
      </trkpt>
      <trkpt lat="41.257950" lon="-4.395233">
        <ele>2343.0</ele>
        <time>2016-07-12T15:52:15Z</time>
      </trkpt>
      <trkpt lat="41.257817" lon="-4.395117">
        <ele>2346.0</ele>
        <time>2016-07-12T15:52:16Z</time>
      </trkpt>
      <trkpt lat="41.257733" lon="-4.395000">
        <ele>2354.0</ele>
        <time>2016-07-12T15:52:17Z</time>
      </trkpt>
      <trkpt lat="41.257667" lon="-4.394917">
        <ele>2360.0</ele>
        <time>2016-07-12T15:52:18Z</time>
      </trkpt>
      <trkpt lat="41.257617" lon="-4.394850">
        <ele>2364.0</ele>
        <time>2016-07-12T15:52:19Z</time>
      </trkpt>
      <trkpt lat="41.257550" lon="-4.394783">
        <ele>2367.0</ele>
        <time>2016-07-12T15:52:20Z</time>
      </trkpt>
      <trkpt lat="41.257483" lon="-4.394683">
        <ele>2368.0</ele>
        <time>2016-07-12T15:52:21Z</time>
      </trkpt>
      <trkpt lat="41.257417" lon="-4.394550">
        <ele>2371.0</ele>
        <time>2016-07-12T15:52:22Z</time>
      </trkpt>
      <trkpt lat="41.257350" lon="-4.394417">
        <ele>2375.0</ele>
        <time>2016-07-12T15:52:23Z</time>
      </trkpt>
      <trkpt lat="41.257267" lon="-4.394300">
        <ele>2380.0</ele>
        <time>2016-07-12T15:52:24Z</time>
      </trkpt>
      <trkpt lat="41.257200" lon="-4.394200">
        <ele>2384.0</ele>
        <time>2016-07-12T15:52:25Z</time>
      </trkpt>
      <trkpt lat="41.257133" lon="-4.394083">
        <ele>2388.0</ele>
        <time>2016-07-12T15:52:26Z</time>
      </trkpt>
      <trkpt lat="41.257100" lon="-4.393950">
        <ele>2391.0</ele>
        <time>2016-07-12T15:52:27Z</time>
      </trkpt>
      <trkpt lat="41.257050" lon="-4.393817">
        <ele>2395.0</ele>
        <time>2016-07-12T15:52:28Z</time>
      </trkpt>
      <trkpt lat="41.256983" lon="-4.393700">
        <ele>2397.0</ele>
        <time>2016-07-12T15:52:29Z</time>
      </trkpt>
      <trkpt lat="41.256883" lon="-4.393600">
        <ele>2397.0</ele>
        <time>2016-07-12T15:52:30Z</time>
      </trkpt>
      <trkpt lat="41.256783" lon="-4.393517">
        <ele>2398.0</ele>
        <time>2016-07-12T15:52:31Z</time>
      </trkpt>
      <trkpt lat="41.256683" lon="-4.393400">
        <ele>2399.0</ele>
        <time>2016-07-12T15:52:32Z</time>
      </trkpt>
      <trkpt lat="41.256617" lon="-4.393300">
        <ele>2399.0</ele>
        <time>2016-07-12T15:52:33Z</time>
      </trkpt>
      <trkpt lat="41.256550" lon="-4.393200">
        <ele>2399.0</ele>
        <time>2016-07-12T15:52:34Z</time>
      </trkpt>
      <trkpt lat="41.256467" lon="-4.393117">
        <ele>2397.0</ele>
        <time>2016-07-12T15:52:35Z</time>
      </trkpt>
      <trkpt lat="41.256350" lon="-4.393083">
        <ele>2394.0</ele>
        <time>2016-07-12T15:52:36Z</time>
      </trkpt>
      <trkpt lat="41.256217" lon="-4.393017">
        <ele>2392.0</ele>
        <time>2016-07-12T15:52:37Z</time>
      </trkpt>
      <trkpt lat="41.256100" lon="-4.392933">
        <ele>2392.0</ele>
        <time>2016-07-12T15:52:38Z</time>
      </trkpt>
      <trkpt lat="41.255983" lon="-4.392817">
        <ele>2393.0</ele>
        <time>2016-07-12T15:52:39Z</time>
      </trkpt>
      <trkpt lat="41.255900" lon="-4.392700">
        <ele>2395.0</ele>
        <time>2016-07-12T15:52:40Z</time>
      </trkpt>
      <trkpt lat="41.255800" lon="-4.392567">
        <ele>2397.0</ele>
        <time>2016-07-12T15:52:41Z</time>
      </trkpt>
      <trkpt lat="41.255700" lon="-4.392450">
        <ele>2398.0</ele>
        <time>2016-07-12T15:52:42Z</time>
      </trkpt>
      <trkpt lat="41.255600" lon="-4.392317">
        <ele>2398.0</ele>
        <time>2016-07-12T15:52:43Z</time>
      </trkpt>
      <trkpt lat="41.255500" lon="-4.392167">
        <ele>2399.0</ele>
        <time>2016-07-12T15:52:44Z</time>
      </trkpt>
      <trkpt lat="41.255383" lon="-4.392033">
        <ele>2400.0</ele>
        <time>2016-07-12T15:52:45Z</time>
      </trkpt>
      <trkpt lat="41.255283" lon="-4.391883">
        <ele>2403.0</ele>
        <time>2016-07-12T15:52:46Z</time>
      </trkpt>
      <trkpt lat="41.255183" lon="-4.391750">
        <ele>2405.0</ele>
        <time>2016-07-12T15:52:47Z</time>
      </trkpt>
      <trkpt lat="41.255100" lon="-4.391633">
        <ele>2408.0</ele>
        <time>2016-07-12T15:52:48Z</time>
      </trkpt>
      <trkpt lat="41.255033" lon="-4.391517">
        <ele>2410.0</ele>
        <time>2016-07-12T15:52:49Z</time>
      </trkpt>
      <trkpt lat="41.254950" lon="-4.391400">
        <ele>2410.0</ele>
        <time>2016-07-12T15:52:50Z</time>
      </trkpt>
      <trkpt lat="41.254867" lon="-4.391267">
        <ele>2409.0</ele>
        <time>2016-07-12T15:52:51Z</time>
      </trkpt>
      <trkpt lat="41.254783" lon="-4.391133">
        <ele>2408.0</ele>
        <time>2016-07-12T15:52:52Z</time>
      </trkpt>
      <trkpt lat="41.254650" lon="-4.391017">
        <ele>2407.0</ele>
        <time>2016-07-12T15:52:53Z</time>
      </trkpt>
      <trkpt lat="41.254517" lon="-4.390900">
        <ele>2407.0</ele>
        <time>2016-07-12T15:52:54Z</time>
      </trkpt>
      <trkpt lat="41.254383" lon="-4.390800">
        <ele>2408.0</ele>
        <time>2016-07-12T15:52:55Z</time>
      </trkpt>
      <trkpt lat="41.254250" lon="-4.390717">
        <ele>2411.0</ele>
        <time>2016-07-12T15:52:56Z</time>
      </trkpt>
      <trkpt lat="41.254117" lon="-4.390633">
        <ele>2414.0</ele>
        <time>2016-07-12T15:52:57Z</time>
      </trkpt>
      <trkpt lat="41.254000" lon="-4.390550">
        <ele>2416.0</ele>
        <time>2016-07-12T15:52:58Z</time>
      </trkpt>
      <trkpt lat="41.253883" lon="-4.390467">
        <ele>2418.0</ele>
        <time>2016-07-12T15:52:59Z</time>
      </trkpt>
      <trkpt lat="41.253767" lon="-4.390383">
        <ele>2420.0</ele>
        <time>2016-07-12T15:53:00Z</time>
      </trkpt>
      <trkpt lat="41.253650" lon="-4.390300">
        <ele>2421.0</ele>
        <time>2016-07-12T15:53:01Z</time>
      </trkpt>
      <trkpt lat="41.253533" lon="-4.390217">
        <ele>2423.0</ele>
        <time>2016-07-12T15:53:02Z</time>
      </trkpt>
      <trkpt lat="41.253433" lon="-4.390150">
        <ele>2424.0</ele>
        <time>2016-07-12T15:53:03Z</time>
      </trkpt>
      <trkpt lat="41.253317" lon="-4.390100">
        <ele>2424.0</ele>
        <time>2016-07-12T15:53:04Z</time>
      </trkpt>
      <trkpt lat="41.253183" lon="-4.390067">
        <ele>2424.0</ele>
        <time>2016-07-12T15:53:05Z</time>
      </trkpt>
      <trkpt lat="41.253067" lon="-4.390033">
        <ele>2425.0</ele>
        <time>2016-07-12T15:53:06Z</time>
      </trkpt>
      <trkpt lat="41.252917" lon="-4.390033">
        <ele>2426.0</ele>
        <time>2016-07-12T15:53:07Z</time>
      </trkpt>
      <trkpt lat="41.252800" lon="-4.390050">
        <ele>2429.0</ele>
        <time>2016-07-12T15:53:08Z</time>
      </trkpt>
      <trkpt lat="41.252683" lon="-4.390067">
        <ele>2432.0</ele>
        <time>2016-07-12T15:53:09Z</time>
      </trkpt>
      <trkpt lat="41.252567" lon="-4.390083">
        <ele>2436.0</ele>
        <time>2016-07-12T15:53:10Z</time>
      </trkpt>
      <trkpt lat="41.252450" lon="-4.390100">
        <ele>2439.0</ele>
        <time>2016-07-12T15:53:11Z</time>
      </trkpt>
      <trkpt lat="41.252333" lon="-4.390100">
        <ele>2442.0</ele>
        <time>2016-07-12T15:53:12Z</time>
      </trkpt>
      <trkpt lat="41.252233" lon="-4.390100">
        <ele>2444.0</ele>
        <time>2016-07-12T15:53:13Z</time>
      </trkpt>
      <trkpt lat="41.252117" lon="-4.390133">
        <ele>2446.0</ele>
        <time>2016-07-12T15:53:14Z</time>
      </trkpt>
      <trkpt lat="41.252033" lon="-4.390183">
        <ele>2448.0</ele>
        <time>2016-07-12T15:53:15Z</time>
      </trkpt>
      <trkpt lat="41.251950" lon="-4.390250">
        <ele>2451.0</ele>
        <time>2016-07-12T15:53:16Z</time>
      </trkpt>
      <trkpt lat="41.251883" lon="-4.390317">
        <ele>2454.0</ele>
        <time>2016-07-12T15:53:17Z</time>
      </trkpt>
      <trkpt lat="41.251850" lon="-4.390400">
        <ele>2457.0</ele>
        <time>2016-07-12T15:53:18Z</time>
      </trkpt>
      <trkpt lat="41.251817" lon="-4.390467">
        <ele>2459.0</ele>
        <time>2016-07-12T15:53:19Z</time>
      </trkpt>
      <trkpt lat="41.251800" lon="-4.390550">
        <ele>2461.0</ele>
        <time>2016-07-12T15:53:20Z</time>
      </trkpt>
      <trkpt lat="41.251800" lon="-4.390617">
        <ele>2462.0</ele>
        <time>2016-07-12T15:53:21Z</time>
      </trkpt>
      <trkpt lat="41.251817" lon="-4.390683">
        <ele>2464.0</ele>
        <time>2016-07-12T15:53:22Z</time>
      </trkpt>
      <trkpt lat="41.251867" lon="-4.390700">
        <ele>2466.0</ele>
        <time>2016-07-12T15:53:23Z</time>
      </trkpt>
      <trkpt lat="41.251917" lon="-4.390667">
        <ele>2467.0</ele>
        <time>2016-07-12T15:53:24Z</time>
      </trkpt>
      <trkpt lat="41.251950" lon="-4.390600">
        <ele>2468.0</ele>
        <time>2016-07-12T15:53:25Z</time>
      </trkpt>
      <trkpt lat="41.252000" lon="-4.390533">
        <ele>2469.0</ele>
        <time>2016-07-12T15:53:26Z</time>
      </trkpt>
      <trkpt lat="41.252017" lon="-4.390433">
        <ele>2470.0</ele>
        <time>2016-07-12T15:53:27Z</time>
      </trkpt>
      <trkpt lat="41.252033" lon="-4.390317">
        <ele>2472.0</ele>
        <time>2016-07-12T15:53:28Z</time>
      </trkpt>
      <trkpt lat="41.252017" lon="-4.390183">
        <ele>2473.0</ele>
        <time>2016-07-12T15:53:29Z</time>
      </trkpt>
      <trkpt lat="41.251967" lon="-4.390050">
        <ele>2474.0</ele>
        <time>2016-07-12T15:53:30Z</time>
      </trkpt>
      <trkpt lat="41.251917" lon="-4.389917">
        <ele>2477.0</ele>
        <time>2016-07-12T15:53:31Z</time>
      </trkpt>
      <trkpt lat="41.251850" lon="-4.389783">
        <ele>2480.0</ele>
        <time>2016-07-12T15:53:32Z</time>
      </trkpt>
      <trkpt lat="41.251800" lon="-4.389633">
        <ele>2482.0</ele>
        <time>2016-07-12T15:53:33Z</time>
      </trkpt>
      <trkpt lat="41.251717" lon="-4.389500">
        <ele>2485.0</ele>
        <time>2016-07-12T15:53:34Z</time>
      </trkpt>
      <trkpt lat="41.251650" lon="-4.389367">
        <ele>2488.0</ele>
        <time>2016-07-12T15:53:35Z</time>
      </trkpt>
      <trkpt lat="41.251567" lon="-4.389233">
        <ele>2491.0</ele>
        <time>2016-07-12T15:53:36Z</time>
      </trkpt>
      <trkpt lat="41.251483" lon="-4.389117">
        <ele>2493.0</ele>
        <time>2016-07-12T15:53:37Z</time>
      </trkpt>
      <trkpt lat="41.251367" lon="-4.389033">
        <ele>2496.0</ele>
        <time>2016-07-12T15:53:38Z</time>
      </trkpt>
      <trkpt lat="41.251250" lon="-4.388933">
        <ele>2498.0</ele>
        <time>2016-07-12T15:53:39Z</time>
      </trkpt>
      <trkpt lat="41.251150" lon="-4.388867">
        <ele>2501.0</ele>
        <time>2016-07-12T15:53:40Z</time>
      </trkpt>
      <trkpt lat="41.251033" lon="-4.388800">
        <ele>2504.0</ele>
        <time>2016-07-12T15:53:41Z</time>
      </trkpt>
      <trkpt lat="41.250917" lon="-4.388750">
        <ele>2507.0</ele>
        <time>2016-07-12T15:53:42Z</time>
      </trkpt>
      <trkpt lat="41.250817" lon="-4.388717">
        <ele>2510.0</ele>
        <time>2016-07-12T15:53:43Z</time>
      </trkpt>
      <trkpt lat="41.250717" lon="-4.388700">
        <ele>2513.0</ele>
        <time>2016-07-12T15:53:44Z</time>
      </trkpt>
      <trkpt lat="41.250617" lon="-4.388683">
        <ele>2515.0</ele>
        <time>2016-07-12T15:53:45Z</time>
      </trkpt>
      <trkpt lat="41.250517" lon="-4.388683">
        <ele>2518.0</ele>
        <time>2016-07-12T15:53:46Z</time>
      </trkpt>
      <trkpt lat="41.250417" lon="-4.388683">
        <ele>2520.0</ele>
        <time>2016-07-12T15:53:47Z</time>
      </trkpt>
      <trkpt lat="41.250333" lon="-4.388683">
        <ele>2523.0</ele>
        <time>2016-07-12T15:53:48Z</time>
      </trkpt>
      <trkpt lat="41.250250" lon="-4.388683">
        <ele>2525.0</ele>
        <time>2016-07-12T15:53:49Z</time>
      </trkpt>
      <trkpt lat="41.250183" lon="-4.388717">
        <ele>2527.0</ele>
        <time>2016-07-12T15:53:50Z</time>
      </trkpt>
      <trkpt lat="41.250117" lon="-4.388767">
        <ele>2529.0</ele>
        <time>2016-07-12T15:53:51Z</time>
      </trkpt>
      <trkpt lat="41.250050" lon="-4.388817">
        <ele>2531.0</ele>
        <time>2016-07-12T15:53:52Z</time>
      </trkpt>
      <trkpt lat="41.250000" lon="-4.388883">
        <ele>2533.0</ele>
        <time>2016-07-12T15:53:53Z</time>
      </trkpt>
      <trkpt lat="41.249983" lon="-4.388950">
        <ele>2536.0</ele>
        <time>2016-07-12T15:53:54Z</time>
      </trkpt>
      <trkpt lat="41.250000" lon="-4.389000">
        <ele>2538.0</ele>
        <time>2016-07-12T15:53:55Z</time>
      </trkpt>
      <trkpt lat="41.250033" lon="-4.389000">
        <ele>2540.0</ele>
        <time>2016-07-12T15:53:56Z</time>
      </trkpt>
      <trkpt lat="41.250083" lon="-4.388983">
        <ele>2542.0</ele>
        <time>2016-07-12T15:53:57Z</time>
      </trkpt>
      <trkpt lat="41.250117" lon="-4.388917">
        <ele>2546.0</ele>
        <time>2016-07-12T15:53:58Z</time>
      </trkpt>
      <trkpt lat="41.250150" lon="-4.388850">
        <ele>2550.0</ele>
        <time>2016-07-12T15:53:59Z</time>
      </trkpt>
      <trkpt lat="41.250167" lon="-4.388800">
        <ele>2553.0</ele>
        <time>2016-07-12T15:54:00Z</time>
      </trkpt>
      <trkpt lat="41.250200" lon="-4.388750">
        <ele>2555.0</ele>
        <time>2016-07-12T15:54:01Z</time>
      </trkpt>
      <trkpt lat="41.250217" lon="-4.388683">
        <ele>2556.0</ele>
        <time>2016-07-12T15:54:02Z</time>
      </trkpt>
      <trkpt lat="41.250233" lon="-4.388583">
        <ele>2558.0</ele>
        <time>2016-07-12T15:54:03Z</time>
      </trkpt>
      <trkpt lat="41.250233" lon="-4.388450">
        <ele>2559.0</ele>
        <time>2016-07-12T15:54:04Z</time>
      </trkpt>
      <trkpt lat="41.250200" lon="-4.388317">
        <ele>2562.0</ele>
        <time>2016-07-12T15:54:05Z</time>
      </trkpt>
      <trkpt lat="41.250150" lon="-4.388167">
        <ele>2564.0</ele>
        <time>2016-07-12T15:54:06Z</time>
      </trkpt>
      <trkpt lat="41.250117" lon="-4.388033">
        <ele>2567.0</ele>
        <time>2016-07-12T15:54:07Z</time>
      </trkpt>
      <trkpt lat="41.250083" lon="-4.387900">
        <ele>2570.0</ele>
        <time>2016-07-12T15:54:08Z</time>
      </trkpt>
      <trkpt lat="41.250050" lon="-4.387783">
        <ele>2573.0</ele>
        <time>2016-07-12T15:54:09Z</time>
      </trkpt>
      <trkpt lat="41.250017" lon="-4.387650">
        <ele>2576.0</ele>
        <time>2016-07-12T15:54:10Z</time>
      </trkpt>
      <trkpt lat="41.249950" lon="-4.387533">
        <ele>2578.0</ele>
        <time>2016-07-12T15:54:11Z</time>
      </trkpt>
      <trkpt lat="41.249883" lon="-4.387400">
        <ele>2579.0</ele>
        <time>2016-07-12T15:54:12Z</time>
      </trkpt>
      <trkpt lat="41.249767" lon="-4.387283">
        <ele>2580.0</ele>
        <time>2016-07-12T15:54:13Z</time>
      </trkpt>
      <trkpt lat="41.249633" lon="-4.387200">
        <ele>2583.0</ele>
        <time>2016-07-12T15:54:14Z</time>
      </trkpt>
      <trkpt lat="41.249500" lon="-4.387133">
        <ele>2587.0</ele>
        <time>2016-07-12T15:54:15Z</time>
      </trkpt>
      <trkpt lat="41.249367" lon="-4.387067">
        <ele>2591.0</ele>
        <time>2016-07-12T15:54:16Z</time>
      </trkpt>
      <trkpt lat="41.249267" lon="-4.387017">
        <ele>2596.0</ele>
        <time>2016-07-12T15:54:17Z</time>
      </trkpt>
      <trkpt lat="41.249167" lon="-4.386950">
        <ele>2599.0</ele>
        <time>2016-07-12T15:54:18Z</time>
      </trkpt>
      <trkpt lat="41.249067" lon="-4.386900">
        <ele>2601.0</ele>
        <time>2016-07-12T15:54:19Z</time>
      </trkpt>
      <trkpt lat="41.248950" lon="-4.386900">
        <ele>2604.0</ele>
        <time>2016-07-12T15:54:20Z</time>
      </trkpt>
      <trkpt lat="41.248850" lon="-4.386917">
        <ele>2606.0</ele>
        <time>2016-07-12T15:54:21Z</time>
      </trkpt>
      <trkpt lat="41.248750" lon="-4.386950">
        <ele>2609.0</ele>
        <time>2016-07-12T15:54:22Z</time>
      </trkpt>
      <trkpt lat="41.248683" lon="-4.386983">
        <ele>2611.0</ele>
        <time>2016-07-12T15:54:23Z</time>
      </trkpt>
      <trkpt lat="41.248633" lon="-4.387017">
        <ele>2611.0</ele>
        <time>2016-07-12T15:54:24Z</time>
      </trkpt>
      <trkpt lat="41.248600" lon="-4.387050">
        <ele>2610.0</ele>
        <time>2016-07-12T15:54:25Z</time>
      </trkpt>
      <trkpt lat="41.248583" lon="-4.387100">
        <ele>2607.0</ele>
        <time>2016-07-12T15:54:26Z</time>
      </trkpt>
      <trkpt lat="41.248600" lon="-4.387150">
        <ele>2605.0</ele>
        <time>2016-07-12T15:54:27Z</time>
      </trkpt>
      <trkpt lat="41.248633" lon="-4.387183">
        <ele>2603.0</ele>
        <time>2016-07-12T15:54:28Z</time>
      </trkpt>
      <trkpt lat="41.248700" lon="-4.387200">
        <ele>2602.0</ele>
        <time>2016-07-12T15:54:29Z</time>
      </trkpt>
      <trkpt lat="41.248767" lon="-4.387167">
        <ele>2602.0</ele>
        <time>2016-07-12T15:54:30Z</time>
      </trkpt>
      <trkpt lat="41.248850" lon="-4.387117">
        <ele>2604.0</ele>
        <time>2016-07-12T15:54:31Z</time>
      </trkpt>
      <trkpt lat="41.248917" lon="-4.387017">
        <ele>2607.0</ele>
        <time>2016-07-12T15:54:32Z</time>
      </trkpt>
      <trkpt lat="41.248967" lon="-4.386933">
        <ele>2613.0</ele>
        <time>2016-07-12T15:54:33Z</time>
      </trkpt>
      <trkpt lat="41.248983" lon="-4.386850">
        <ele>2618.0</ele>
        <time>2016-07-12T15:54:34Z</time>
      </trkpt>
      <trkpt lat="41.249000" lon="-4.386783">
        <ele>2623.0</ele>
        <time>2016-07-12T15:54:35Z</time>
      </trkpt>
      <trkpt lat="41.249000" lon="-4.386733">
        <ele>2626.0</ele>
        <time>2016-07-12T15:54:36Z</time>
      </trkpt>
      <trkpt lat="41.249000" lon="-4.386683">
        <ele>2626.0</ele>
        <time>2016-07-12T15:54:37Z</time>
      </trkpt>
      <trkpt lat="41.249000" lon="-4.386583">
        <ele>2626.0</ele>
        <time>2016-07-12T15:54:38Z</time>
      </trkpt>
      <trkpt lat="41.249000" lon="-4.386450">
        <ele>2625.0</ele>
        <time>2016-07-12T15:54:39Z</time>
      </trkpt>
      <trkpt lat="41.249000" lon="-4.386300">
        <ele>2626.0</ele>
        <time>2016-07-12T15:54:40Z</time>
      </trkpt>
      <trkpt lat="41.248967" lon="-4.386150">
        <ele>2628.0</ele>
        <time>2016-07-12T15:54:41Z</time>
      </trkpt>
      <trkpt lat="41.248950" lon="-4.386000">
        <ele>2631.0</ele>
        <time>2016-07-12T15:54:42Z</time>
      </trkpt>
      <trkpt lat="41.248917" lon="-4.385867">
        <ele>2633.0</ele>
        <time>2016-07-12T15:54:43Z</time>
      </trkpt>
      <trkpt lat="41.248900" lon="-4.385733">
        <ele>2635.0</ele>
        <time>2016-07-12T15:54:44Z</time>
      </trkpt>
      <trkpt lat="41.248883" lon="-4.385583">
        <ele>2638.0</ele>
        <time>2016-07-12T15:54:45Z</time>
      </trkpt>
      <trkpt lat="41.248867" lon="-4.385450">
        <ele>2640.0</ele>
        <time>2016-07-12T15:54:46Z</time>
      </trkpt>
      <trkpt lat="41.248833" lon="-4.385317">
        <ele>2641.0</ele>
        <time>2016-07-12T15:54:47Z</time>
      </trkpt>
      <trkpt lat="41.248783" lon="-4.385167">
        <ele>2641.0</ele>
        <time>2016-07-12T15:54:48Z</time>
      </trkpt>
      <trkpt lat="41.248750" lon="-4.385000">
        <ele>2642.0</ele>
        <time>2016-07-12T15:54:49Z</time>
      </trkpt>
      <trkpt lat="41.248683" lon="-4.384850">
        <ele>2644.0</ele>
        <time>2016-07-12T15:54:50Z</time>
      </trkpt>
      <trkpt lat="41.248617" lon="-4.384700">
        <ele>2646.0</ele>
        <time>2016-07-12T15:54:51Z</time>
      </trkpt>
      <trkpt lat="41.248533" lon="-4.384567">
        <ele>2648.0</ele>
        <time>2016-07-12T15:54:52Z</time>
      </trkpt>
      <trkpt lat="41.248433" lon="-4.384450">
        <ele>2650.0</ele>
        <time>2016-07-12T15:54:53Z</time>
      </trkpt>
      <trkpt lat="41.248350" lon="-4.384350">
        <ele>2652.0</ele>
        <time>2016-07-12T15:54:54Z</time>
      </trkpt>
      <trkpt lat="41.248250" lon="-4.384233">
        <ele>2654.0</ele>
        <time>2016-07-12T15:54:55Z</time>
      </trkpt>
      <trkpt lat="41.248167" lon="-4.384117">
        <ele>2655.0</ele>
        <time>2016-07-12T15:54:56Z</time>
      </trkpt>
      <trkpt lat="41.248067" lon="-4.384000">
        <ele>2657.0</ele>
        <time>2016-07-12T15:54:57Z</time>
      </trkpt>
      <trkpt lat="41.247950" lon="-4.383933">
        <ele>2660.0</ele>
        <time>2016-07-12T15:54:58Z</time>
      </trkpt>
      <trkpt lat="41.247833" lon="-4.383867">
        <ele>2663.0</ele>
        <time>2016-07-12T15:54:59Z</time>
      </trkpt>
      <trkpt lat="41.247717" lon="-4.383817">
        <ele>2666.0</ele>
        <time>2016-07-12T15:55:00Z</time>
      </trkpt>
      <trkpt lat="41.247617" lon="-4.383767">
        <ele>2668.0</ele>
        <time>2016-07-12T15:55:01Z</time>
      </trkpt>
      <trkpt lat="41.247500" lon="-4.383700">
        <ele>2670.0</ele>
        <time>2016-07-12T15:55:02Z</time>
      </trkpt>
      <trkpt lat="41.247383" lon="-4.383650">
        <ele>2671.0</ele>
        <time>2016-07-12T15:55:03Z</time>
      </trkpt>
      <trkpt lat="41.247267" lon="-4.383650">
        <ele>2673.0</ele>
        <time>2016-07-12T15:55:04Z</time>
      </trkpt>
      <trkpt lat="41.247167" lon="-4.383683">
        <ele>2673.0</ele>
        <time>2016-07-12T15:55:05Z</time>
      </trkpt>
      <trkpt lat="41.247100" lon="-4.383733">
        <ele>2674.0</ele>
        <time>2016-07-12T15:55:06Z</time>
      </trkpt>
      <trkpt lat="41.247050" lon="-4.383817">
        <ele>2676.0</ele>
        <time>2016-07-12T15:55:07Z</time>
      </trkpt>
      <trkpt lat="41.247017" lon="-4.383900">
        <ele>2678.0</ele>
        <time>2016-07-12T15:55:08Z</time>
      </trkpt>
      <trkpt lat="41.246983" lon="-4.383967">
        <ele>2681.0</ele>
        <time>2016-07-12T15:55:09Z</time>
      </trkpt>
      <trkpt lat="41.246950" lon="-4.384017">
        <ele>2683.0</ele>
        <time>2016-07-12T15:55:10Z</time>
      </trkpt>
      <trkpt lat="41.246917" lon="-4.384067">
        <ele>2684.0</ele>
        <time>2016-07-12T15:55:11Z</time>
      </trkpt>
      <trkpt lat="41.246883" lon="-4.384117">
        <ele>2686.0</ele>
        <time>2016-07-12T15:55:12Z</time>
      </trkpt>
      <trkpt lat="41.246867" lon="-4.384150">
        <ele>2686.0</ele>
        <time>2016-07-12T15:55:13Z</time>
      </trkpt>
      <trkpt lat="41.246883" lon="-4.384183">
        <ele>2685.0</ele>
        <time>2016-07-12T15:55:14Z</time>
      </trkpt>
      <trkpt lat="41.246917" lon="-4.384217">
        <ele>2683.0</ele>
        <time>2016-07-12T15:55:15Z</time>
      </trkpt>
      <trkpt lat="41.246967" lon="-4.384217">
        <ele>2683.0</ele>
        <time>2016-07-12T15:55:16Z</time>
      </trkpt>
      <trkpt lat="41.247017" lon="-4.384217">
        <ele>2684.0</ele>
        <time>2016-07-12T15:55:17Z</time>
      </trkpt>
      <trkpt lat="41.247067" lon="-4.384183">
        <ele>2685.0</ele>
        <time>2016-07-12T15:55:18Z</time>
      </trkpt>
      <trkpt lat="41.247117" lon="-4.384117">
        <ele>2685.0</ele>
        <time>2016-07-12T15:55:19Z</time>
      </trkpt>
      <trkpt lat="41.247167" lon="-4.384033">
        <ele>2686.0</ele>
        <time>2016-07-12T15:55:20Z</time>
      </trkpt>
      <trkpt lat="41.247200" lon="-4.383933">
        <ele>2688.0</ele>
        <time>2016-07-12T15:55:21Z</time>
      </trkpt>
      <trkpt lat="41.247233" lon="-4.383817">
        <ele>2690.0</ele>
        <time>2016-07-12T15:55:22Z</time>
      </trkpt>
      <trkpt lat="41.247267" lon="-4.383717">
        <ele>2693.0</ele>
        <time>2016-07-12T15:55:23Z</time>
      </trkpt>
      <trkpt lat="41.247283" lon="-4.383600">
        <ele>2694.0</ele>
        <time>2016-07-12T15:55:24Z</time>
      </trkpt>
      <trkpt lat="41.247283" lon="-4.383467">
        <ele>2695.0</ele>
        <time>2016-07-12T15:55:25Z</time>
      </trkpt>
      <trkpt lat="41.247300" lon="-4.383333">
        <ele>2696.0</ele>
        <time>2016-07-12T15:55:26Z</time>
      </trkpt>
      <trkpt lat="41.247317" lon="-4.383200">
        <ele>2697.0</ele>
        <time>2016-07-12T15:55:27Z</time>
      </trkpt>
      <trkpt lat="41.247317" lon="-4.383067">
        <ele>2698.0</ele>
        <time>2016-07-12T15:55:28Z</time>
      </trkpt>
      <trkpt lat="41.247283" lon="-4.382933">
        <ele>2699.0</ele>
        <time>2016-07-12T15:55:29Z</time>
      </trkpt>
      <trkpt lat="41.247250" lon="-4.382767">
        <ele>2699.0</ele>
        <time>2016-07-12T15:55:30Z</time>
      </trkpt>
      <trkpt lat="41.247200" lon="-4.382617">
        <ele>2699.0</ele>
        <time>2016-07-12T15:55:31Z</time>
      </trkpt>
      <trkpt lat="41.247133" lon="-4.382450">
        <ele>2700.0</ele>
        <time>2016-07-12T15:55:32Z</time>
      </trkpt>
      <trkpt lat="41.247067" lon="-4.382317">
        <ele>2700.0</ele>
        <time>2016-07-12T15:55:33Z</time>
      </trkpt>
      <trkpt lat="41.246967" lon="-4.382183">
        <ele>2700.0</ele>
        <time>2016-07-12T15:55:34Z</time>
      </trkpt>
      <trkpt lat="41.246867" lon="-4.382050">
        <ele>2701.0</ele>
        <time>2016-07-12T15:55:35Z</time>
      </trkpt>
      <trkpt lat="41.246750" lon="-4.381950">
        <ele>2702.0</ele>
        <time>2016-07-12T15:55:36Z</time>
      </trkpt>
      <trkpt lat="41.246633" lon="-4.381850">
        <ele>2704.0</ele>
        <time>2016-07-12T15:55:37Z</time>
      </trkpt>
      <trkpt lat="41.246500" lon="-4.381767">
        <ele>2707.0</ele>
        <time>2016-07-12T15:55:38Z</time>
      </trkpt>
      <trkpt lat="41.246383" lon="-4.381700">
        <ele>2709.0</ele>
        <time>2016-07-12T15:55:39Z</time>
      </trkpt>
      <trkpt lat="41.246267" lon="-4.381633">
        <ele>2710.0</ele>
        <time>2016-07-12T15:55:40Z</time>
      </trkpt>
      <trkpt lat="41.246150" lon="-4.381583">
        <ele>2712.0</ele>
        <time>2016-07-12T15:55:41Z</time>
      </trkpt>
      <trkpt lat="41.246033" lon="-4.381533">
        <ele>2713.0</ele>
        <time>2016-07-12T15:55:42Z</time>
      </trkpt>
      <trkpt lat="41.245933" lon="-4.381500">
        <ele>2714.0</ele>
        <time>2016-07-12T15:55:43Z</time>
      </trkpt>
      <trkpt lat="41.245833" lon="-4.381483">
        <ele>2716.0</ele>
        <time>2016-07-12T15:55:44Z</time>
      </trkpt>
      <trkpt lat="41.245750" lon="-4.381483">
        <ele>2717.0</ele>
        <time>2016-07-12T15:55:45Z</time>
      </trkpt>
      <trkpt lat="41.245667" lon="-4.381500">
        <ele>2717.0</ele>
        <time>2016-07-12T15:55:46Z</time>
      </trkpt>
      <trkpt lat="41.245583" lon="-4.381517">
        <ele>2717.0</ele>
        <time>2016-07-12T15:55:47Z</time>
      </trkpt>
      <trkpt lat="41.245533" lon="-4.381550">
        <ele>2718.0</ele>
        <time>2016-07-12T15:55:48Z</time>
      </trkpt>
      <trkpt lat="41.245483" lon="-4.381583">
        <ele>2718.0</ele>
        <time>2016-07-12T15:55:49Z</time>
      </trkpt>
      <trkpt lat="41.245450" lon="-4.381617">
        <ele>2718.0</ele>
        <time>2016-07-12T15:55:50Z</time>
      </trkpt>
      <trkpt lat="41.245433" lon="-4.381650">
        <ele>2718.0</ele>
        <time>2016-07-12T15:55:51Z</time>
      </trkpt>
      <trkpt lat="41.245450" lon="-4.381683">
        <ele>2717.0</ele>
        <time>2016-07-12T15:55:52Z</time>
      </trkpt>
      <trkpt lat="41.245450" lon="-4.381717">
        <ele>2718.0</ele>
        <time>2016-07-12T15:55:53Z</time>
      </trkpt>
      <trkpt lat="41.245467" lon="-4.381750">
        <ele>2718.0</ele>
        <time>2016-07-12T15:55:54Z</time>
      </trkpt>
      <trkpt lat="41.245500" lon="-4.381767">
        <ele>2718.0</ele>
        <time>2016-07-12T15:55:55Z</time>
      </trkpt>
      <trkpt lat="41.245533" lon="-4.381750">
        <ele>2718.0</ele>
        <time>2016-07-12T15:55:56Z</time>
      </trkpt>
      <trkpt lat="41.245583" lon="-4.381733">
        <ele>2718.0</ele>
        <time>2016-07-12T15:55:57Z</time>
      </trkpt>
      <trkpt lat="41.245633" lon="-4.381700">
        <ele>2718.0</ele>
        <time>2016-07-12T15:55:58Z</time>
      </trkpt>
      <trkpt lat="41.245683" lon="-4.381617">
        <ele>2718.0</ele>
        <time>2016-07-12T15:55:59Z</time>
      </trkpt>
      <trkpt lat="41.245733" lon="-4.381517">
        <ele>2718.0</ele>
        <time>2016-07-12T15:56:00Z</time>
      </trkpt>
      <trkpt lat="41.245783" lon="-4.381400">
        <ele>2719.0</ele>
        <time>2016-07-12T15:56:01Z</time>
      </trkpt>
      <trkpt lat="41.245800" lon="-4.381267">
        <ele>2721.0</ele>
        <time>2016-07-12T15:56:02Z</time>
      </trkpt>
      <trkpt lat="41.245817" lon="-4.381133">
        <ele>2722.0</ele>
        <time>2016-07-12T15:56:03Z</time>
      </trkpt>
      <trkpt lat="41.245833" lon="-4.381017">
        <ele>2722.0</ele>
        <time>2016-07-12T15:56:04Z</time>
      </trkpt>
      <trkpt lat="41.245850" lon="-4.380883">
        <ele>2722.0</ele>
        <time>2016-07-12T15:56:05Z</time>
      </trkpt>
      <trkpt lat="41.245867" lon="-4.380733">
        <ele>2722.0</ele>
        <time>2016-07-12T15:56:06Z</time>
      </trkpt>
      <trkpt lat="41.245883" lon="-4.380583">
        <ele>2723.0</ele>
        <time>2016-07-12T15:56:07Z</time>
      </trkpt>
      <trkpt lat="41.245900" lon="-4.380433">
        <ele>2724.0</ele>
        <time>2016-07-12T15:56:08Z</time>
      </trkpt>
      <trkpt lat="41.245883" lon="-4.380283">
        <ele>2725.0</ele>
        <time>2016-07-12T15:56:09Z</time>
      </trkpt>
      <trkpt lat="41.245900" lon="-4.380133">
        <ele>2726.0</ele>
        <time>2016-07-12T15:56:10Z</time>
      </trkpt>
      <trkpt lat="41.245900" lon="-4.379967">
        <ele>2726.0</ele>
        <time>2016-07-12T15:56:11Z</time>
      </trkpt>
      <trkpt lat="41.245900" lon="-4.379800">
        <ele>2726.0</ele>
        <time>2016-07-12T15:56:12Z</time>
      </trkpt>
      <trkpt lat="41.245883" lon="-4.379650">
        <ele>2726.0</ele>
        <time>2016-07-12T15:56:13Z</time>
      </trkpt>
      <trkpt lat="41.245850" lon="-4.379483">
        <ele>2726.0</ele>
        <time>2016-07-12T15:56:14Z</time>
      </trkpt>
      <trkpt lat="41.245783" lon="-4.379317">
        <ele>2725.0</ele>
        <time>2016-07-12T15:56:15Z</time>
      </trkpt>
      <trkpt lat="41.245717" lon="-4.379167">
        <ele>2724.0</ele>
        <time>2016-07-12T15:56:16Z</time>
      </trkpt>
      <trkpt lat="41.245650" lon="-4.379017">
        <ele>2722.0</ele>
        <time>2016-07-12T15:56:17Z</time>
      </trkpt>
      <trkpt lat="41.245550" lon="-4.378867">
        <ele>2721.0</ele>
        <time>2016-07-12T15:56:18Z</time>
      </trkpt>
      <trkpt lat="41.245450" lon="-4.378717">
        <ele>2719.0</ele>
        <time>2016-07-12T15:56:19Z</time>
      </trkpt>
      <trkpt lat="41.245333" lon="-4.378583">
        <ele>2717.0</ele>
        <time>2016-07-12T15:56:20Z</time>
      </trkpt>
      <trkpt lat="41.245233" lon="-4.378433">
        <ele>2715.0</ele>
        <time>2016-07-12T15:56:21Z</time>
      </trkpt>
      <trkpt lat="41.245133" lon="-4.378283">
        <ele>2713.0</ele>
        <time>2016-07-12T15:56:22Z</time>
      </trkpt>
      <trkpt lat="41.245017" lon="-4.378133">
        <ele>2712.0</ele>
        <time>2016-07-12T15:56:23Z</time>
      </trkpt>
      <trkpt lat="41.244900" lon="-4.377983">
        <ele>2711.0</ele>
        <time>2016-07-12T15:56:24Z</time>
      </trkpt>
      <trkpt lat="41.244783" lon="-4.377833">
        <ele>2710.0</ele>
        <time>2016-07-12T15:56:25Z</time>
      </trkpt>
      <trkpt lat="41.244683" lon="-4.377700">
        <ele>2709.0</ele>
        <time>2016-07-12T15:56:26Z</time>
      </trkpt>
      <trkpt lat="41.244567" lon="-4.377567">
        <ele>2709.0</ele>
        <time>2016-07-12T15:56:27Z</time>
      </trkpt>
      <trkpt lat="41.244467" lon="-4.377417">
        <ele>2707.0</ele>
        <time>2016-07-12T15:56:28Z</time>
      </trkpt>
      <trkpt lat="41.244350" lon="-4.377283">
        <ele>2706.0</ele>
        <time>2016-07-12T15:56:29Z</time>
      </trkpt>
      <trkpt lat="41.244250" lon="-4.377133">
        <ele>2705.0</ele>
        <time>2016-07-12T15:56:30Z</time>
      </trkpt>
      <trkpt lat="41.244150" lon="-4.377000">
        <ele>2705.0</ele>
        <time>2016-07-12T15:56:31Z</time>
      </trkpt>
      <trkpt lat="41.244050" lon="-4.376867">
        <ele>2704.0</ele>
        <time>2016-07-12T15:56:32Z</time>
      </trkpt>
      <trkpt lat="41.243950" lon="-4.376717">
        <ele>2703.0</ele>
        <time>2016-07-12T15:56:33Z</time>
      </trkpt>
      <trkpt lat="41.243850" lon="-4.376583">
        <ele>2702.0</ele>
        <time>2016-07-12T15:56:34Z</time>
      </trkpt>
      <trkpt lat="41.243750" lon="-4.376450">
        <ele>2701.0</ele>
        <time>2016-07-12T15:56:35Z</time>
      </trkpt>
      <trkpt lat="41.243667" lon="-4.376317">
        <ele>2699.0</ele>
        <time>2016-07-12T15:56:36Z</time>
      </trkpt>
      <trkpt lat="41.243550" lon="-4.376167">
        <ele>2697.0</ele>
        <time>2016-07-12T15:56:37Z</time>
      </trkpt>
      <trkpt lat="41.243433" lon="-4.376050">
        <ele>2695.0</ele>
        <time>2016-07-12T15:56:38Z</time>
      </trkpt>
      <trkpt lat="41.243300" lon="-4.375917">
        <ele>2694.0</ele>
        <time>2016-07-12T15:56:39Z</time>
      </trkpt>
      <trkpt lat="41.243167" lon="-4.375800">
        <ele>2694.0</ele>
        <time>2016-07-12T15:56:40Z</time>
      </trkpt>
      <trkpt lat="41.243067" lon="-4.375667">
        <ele>2694.0</ele>
        <time>2016-07-12T15:56:41Z</time>
      </trkpt>
      <trkpt lat="41.242950" lon="-4.375533">
        <ele>2693.0</ele>
        <time>2016-07-12T15:56:42Z</time>
      </trkpt>
      <trkpt lat="41.242833" lon="-4.375433">
        <ele>2692.0</ele>
        <time>2016-07-12T15:56:43Z</time>
      </trkpt>
      <trkpt lat="41.242700" lon="-4.375317">
        <ele>2691.0</ele>
        <time>2016-07-12T15:56:44Z</time>
      </trkpt>
      <trkpt lat="41.242567" lon="-4.375217">
        <ele>2690.0</ele>
        <time>2016-07-12T15:56:45Z</time>
      </trkpt>
      <trkpt lat="41.242433" lon="-4.375117">
        <ele>2690.0</ele>
        <time>2016-07-12T15:56:46Z</time>
      </trkpt>
      <trkpt lat="41.242300" lon="-4.375017">
        <ele>2690.0</ele>
        <time>2016-07-12T15:56:47Z</time>
      </trkpt>
      <trkpt lat="41.242183" lon="-4.374933">
        <ele>2690.0</ele>
        <time>2016-07-12T15:56:48Z</time>
      </trkpt>
      <trkpt lat="41.242067" lon="-4.374850">
        <ele>2689.0</ele>
        <time>2016-07-12T15:56:49Z</time>
      </trkpt>
      <trkpt lat="41.241950" lon="-4.374750">
        <ele>2688.0</ele>
        <time>2016-07-12T15:56:50Z</time>
      </trkpt>
      <trkpt lat="41.241817" lon="-4.374633">
        <ele>2686.0</ele>
        <time>2016-07-12T15:56:51Z</time>
      </trkpt>
      <trkpt lat="41.241700" lon="-4.374533">
        <ele>2685.0</ele>
        <time>2016-07-12T15:56:52Z</time>
      </trkpt>
      <trkpt lat="41.241567" lon="-4.374450">
        <ele>2684.0</ele>
        <time>2016-07-12T15:56:53Z</time>
      </trkpt>
      <trkpt lat="41.241433" lon="-4.374400">
        <ele>2683.0</ele>
        <time>2016-07-12T15:56:54Z</time>
      </trkpt>
      <trkpt lat="41.241300" lon="-4.374350">
        <ele>2682.0</ele>
        <time>2016-07-12T15:56:55Z</time>
      </trkpt>
      <trkpt lat="41.241167" lon="-4.374300">
        <ele>2681.0</ele>
        <time>2016-07-12T15:56:56Z</time>
      </trkpt>
      <trkpt lat="41.241033" lon="-4.374217">
        <ele>2681.0</ele>
        <time>2016-07-12T15:56:57Z</time>
      </trkpt>
      <trkpt lat="41.240900" lon="-4.374150">
        <ele>2680.0</ele>
        <time>2016-07-12T15:56:58Z</time>
      </trkpt>
      <trkpt lat="41.240767" lon="-4.374083">
        <ele>2680.0</ele>
        <time>2016-07-12T15:56:59Z</time>
      </trkpt>
      <trkpt lat="41.240633" lon="-4.374033">
        <ele>2679.0</ele>
        <time>2016-07-12T15:57:00Z</time>
      </trkpt>
      <trkpt lat="41.240517" lon="-4.374000">
        <ele>2678.0</ele>
        <time>2016-07-12T15:57:01Z</time>
      </trkpt>
      <trkpt lat="41.240383" lon="-4.373917">
        <ele>2677.0</ele>
        <time>2016-07-12T15:57:02Z</time>
      </trkpt>
      <trkpt lat="41.240233" lon="-4.373817">
        <ele>2676.0</ele>
        <time>2016-07-12T15:57:03Z</time>
      </trkpt>
      <trkpt lat="41.240100" lon="-4.373683">
        <ele>2675.0</ele>
        <time>2016-07-12T15:57:04Z</time>
      </trkpt>
      <trkpt lat="41.239967" lon="-4.373567">
        <ele>2675.0</ele>
        <time>2016-07-12T15:57:05Z</time>
      </trkpt>
      <trkpt lat="41.239833" lon="-4.373483">
        <ele>2675.0</ele>
        <time>2016-07-12T15:57:06Z</time>
      </trkpt>
      <trkpt lat="41.239700" lon="-4.373400">
        <ele>2675.0</ele>
        <time>2016-07-12T15:57:07Z</time>
      </trkpt>
      <trkpt lat="41.239567" lon="-4.373317">
        <ele>2675.0</ele>
        <time>2016-07-12T15:57:08Z</time>
      </trkpt>
      <trkpt lat="41.239450" lon="-4.373200">
        <ele>2673.0</ele>
        <time>2016-07-12T15:57:09Z</time>
      </trkpt>
      <trkpt lat="41.239317" lon="-4.373083">
        <ele>2672.0</ele>
        <time>2016-07-12T15:57:10Z</time>
      </trkpt>
      <trkpt lat="41.239200" lon="-4.372967">
        <ele>2671.0</ele>
        <time>2016-07-12T15:57:11Z</time>
      </trkpt>
      <trkpt lat="41.239067" lon="-4.372867">
        <ele>2670.0</ele>
        <time>2016-07-12T15:57:12Z</time>
      </trkpt>
      <trkpt lat="41.238933" lon="-4.372750">
        <ele>2670.0</ele>
        <time>2016-07-12T15:57:13Z</time>
      </trkpt>
      <trkpt lat="41.238817" lon="-4.372617">
        <ele>2669.0</ele>
        <time>2016-07-12T15:57:14Z</time>
      </trkpt>
      <trkpt lat="41.238700" lon="-4.372467">
        <ele>2667.0</ele>
        <time>2016-07-12T15:57:15Z</time>
      </trkpt>
      <trkpt lat="41.238583" lon="-4.372300">
        <ele>2666.0</ele>
        <time>2016-07-12T15:57:16Z</time>
      </trkpt>
      <trkpt lat="41.238450" lon="-4.372150">
        <ele>2665.0</ele>
        <time>2016-07-12T15:57:17Z</time>
      </trkpt>
      <trkpt lat="41.238317" lon="-4.372017">
        <ele>2665.0</ele>
        <time>2016-07-12T15:57:18Z</time>
      </trkpt>
      <trkpt lat="41.238183" lon="-4.371883">
        <ele>2665.0</ele>
        <time>2016-07-12T15:57:19Z</time>
      </trkpt>
      <trkpt lat="41.238067" lon="-4.371733">
        <ele>2664.0</ele>
        <time>2016-07-12T15:57:20Z</time>
      </trkpt>
      <trkpt lat="41.237967" lon="-4.371583">
        <ele>2662.0</ele>
        <time>2016-07-12T15:57:21Z</time>
      </trkpt>
      <trkpt lat="41.237850" lon="-4.371417">
        <ele>2661.0</ele>
        <time>2016-07-12T15:57:22Z</time>
      </trkpt>
      <trkpt lat="41.237717" lon="-4.371267">
        <ele>2660.0</ele>
        <time>2016-07-12T15:57:23Z</time>
      </trkpt>
      <trkpt lat="41.237583" lon="-4.371117">
        <ele>2659.0</ele>
        <time>2016-07-12T15:57:24Z</time>
      </trkpt>
      <trkpt lat="41.237467" lon="-4.370950">
        <ele>2659.0</ele>
        <time>2016-07-12T15:57:25Z</time>
      </trkpt>
      <trkpt lat="41.237350" lon="-4.370800">
        <ele>2658.0</ele>
        <time>2016-07-12T15:57:26Z</time>
      </trkpt>
      <trkpt lat="41.237250" lon="-4.370633">
        <ele>2658.0</ele>
        <time>2016-07-12T15:57:27Z</time>
      </trkpt>
      <trkpt lat="41.237150" lon="-4.370483">
        <ele>2657.0</ele>
        <time>2016-07-12T15:57:28Z</time>
      </trkpt>
      <trkpt lat="41.237050" lon="-4.370317">
        <ele>2656.0</ele>
        <time>2016-07-12T15:57:29Z</time>
      </trkpt>
      <trkpt lat="41.236933" lon="-4.370167">
        <ele>2655.0</ele>
        <time>2016-07-12T15:57:30Z</time>
      </trkpt>
      <trkpt lat="41.236833" lon="-4.370000">
        <ele>2654.0</ele>
        <time>2016-07-12T15:57:31Z</time>
      </trkpt>
      <trkpt lat="41.236717" lon="-4.369833">
        <ele>2652.0</ele>
        <time>2016-07-12T15:57:32Z</time>
      </trkpt>
      <trkpt lat="41.236617" lon="-4.369683">
        <ele>2652.0</ele>
        <time>2016-07-12T15:57:33Z</time>
      </trkpt>
      <trkpt lat="41.236517" lon="-4.369517">
        <ele>2652.0</ele>
        <time>2016-07-12T15:57:34Z</time>
      </trkpt>
      <trkpt lat="41.236433" lon="-4.369350">
        <ele>2651.0</ele>
        <time>2016-07-12T15:57:35Z</time>
      </trkpt>
      <trkpt lat="41.236350" lon="-4.369183">
        <ele>2650.0</ele>
        <time>2016-07-12T15:57:36Z</time>
      </trkpt>
      <trkpt lat="41.236267" lon="-4.369033">
        <ele>2649.0</ele>
        <time>2016-07-12T15:57:37Z</time>
      </trkpt>
      <trkpt lat="41.236183" lon="-4.368867">
        <ele>2648.0</ele>
        <time>2016-07-12T15:57:38Z</time>
      </trkpt>
      <trkpt lat="41.236100" lon="-4.368700">
        <ele>2647.0</ele>
        <time>2016-07-12T15:57:39Z</time>
      </trkpt>
      <trkpt lat="41.236033" lon="-4.368533">
        <ele>2646.0</ele>
        <time>2016-07-12T15:57:40Z</time>
      </trkpt>
      <trkpt lat="41.235950" lon="-4.368367">
        <ele>2644.0</ele>
        <time>2016-07-12T15:57:41Z</time>
      </trkpt>
      <trkpt lat="41.235883" lon="-4.368200">
        <ele>2642.0</ele>
        <time>2016-07-12T15:57:42Z</time>
      </trkpt>
      <trkpt lat="41.235800" lon="-4.368033">
        <ele>2640.0</ele>
        <time>2016-07-12T15:57:43Z</time>
      </trkpt>
      <trkpt lat="41.235717" lon="-4.367867">
        <ele>2639.0</ele>
        <time>2016-07-12T15:57:44Z</time>
      </trkpt>
      <trkpt lat="41.235650" lon="-4.367700">
        <ele>2638.0</ele>
        <time>2016-07-12T15:57:45Z</time>
      </trkpt>
      <trkpt lat="41.235567" lon="-4.367533">
        <ele>2636.0</ele>
        <time>2016-07-12T15:57:46Z</time>
      </trkpt>
      <trkpt lat="41.235500" lon="-4.367367">
        <ele>2634.0</ele>
        <time>2016-07-12T15:57:47Z</time>
      </trkpt>
      <trkpt lat="41.235450" lon="-4.367200">
        <ele>2632.0</ele>
        <time>2016-07-12T15:57:48Z</time>
      </trkpt>
      <trkpt lat="41.235383" lon="-4.367017">
        <ele>2630.0</ele>
        <time>2016-07-12T15:57:49Z</time>
      </trkpt>
      <trkpt lat="41.235317" lon="-4.366850">
        <ele>2628.0</ele>
        <time>2016-07-12T15:57:50Z</time>
      </trkpt>
      <trkpt lat="41.235267" lon="-4.366683">
        <ele>2627.0</ele>
        <time>2016-07-12T15:57:51Z</time>
      </trkpt>
      <trkpt lat="41.235200" lon="-4.366517">
        <ele>2624.0</ele>
        <time>2016-07-12T15:57:52Z</time>
      </trkpt>
      <trkpt lat="41.235133" lon="-4.366367">
        <ele>2621.0</ele>
        <time>2016-07-12T15:57:53Z</time>
      </trkpt>
      <trkpt lat="41.235067" lon="-4.366200">
        <ele>2618.0</ele>
        <time>2016-07-12T15:57:54Z</time>
      </trkpt>
      <trkpt lat="41.234983" lon="-4.366017">
        <ele>2615.0</ele>
        <time>2016-07-12T15:57:55Z</time>
      </trkpt>
      <trkpt lat="41.234900" lon="-4.365850">
        <ele>2613.0</ele>
        <time>2016-07-12T15:57:56Z</time>
      </trkpt>
      <trkpt lat="41.234817" lon="-4.365683">
        <ele>2611.0</ele>
        <time>2016-07-12T15:57:57Z</time>
      </trkpt>
      <trkpt lat="41.234733" lon="-4.365517">
        <ele>2609.0</ele>
        <time>2016-07-12T15:57:58Z</time>
      </trkpt>
      <trkpt lat="41.234667" lon="-4.365367">
        <ele>2605.0</ele>
        <time>2016-07-12T15:57:59Z</time>
      </trkpt>
      <trkpt lat="41.234600" lon="-4.365217">
        <ele>2601.0</ele>
        <time>2016-07-12T15:58:00Z</time>
      </trkpt>
      <trkpt lat="41.234517" lon="-4.365050">
        <ele>2595.0</ele>
        <time>2016-07-12T15:58:01Z</time>
      </trkpt>
      <trkpt lat="41.234417" lon="-4.364883">
        <ele>2590.0</ele>
        <time>2016-07-12T15:58:02Z</time>
      </trkpt>
      <trkpt lat="41.234283" lon="-4.364717">
        <ele>2587.0</ele>
        <time>2016-07-12T15:58:03Z</time>
      </trkpt>
      <trkpt lat="41.234183" lon="-4.364550">
        <ele>2585.0</ele>
        <time>2016-07-12T15:58:04Z</time>
      </trkpt>
      <trkpt lat="41.234117" lon="-4.364383">
        <ele>2582.0</ele>
        <time>2016-07-12T15:58:05Z</time>
      </trkpt>
      <trkpt lat="41.234050" lon="-4.364200">
        <ele>2578.0</ele>
        <time>2016-07-12T15:58:06Z</time>
      </trkpt>
      <trkpt lat="41.234000" lon="-4.364017">
        <ele>2575.0</ele>
        <time>2016-07-12T15:58:07Z</time>
      </trkpt>
      <trkpt lat="41.233917" lon="-4.363850">
        <ele>2571.0</ele>
        <time>2016-07-12T15:58:08Z</time>
      </trkpt>
      <trkpt lat="41.233833" lon="-4.363667">
        <ele>2567.0</ele>
        <time>2016-07-12T15:58:09Z</time>
      </trkpt>
      <trkpt lat="41.233767" lon="-4.363500">
        <ele>2564.0</ele>
        <time>2016-07-12T15:58:10Z</time>
      </trkpt>
      <trkpt lat="41.233700" lon="-4.363300">
        <ele>2560.0</ele>
        <time>2016-07-12T15:58:11Z</time>
      </trkpt>
      <trkpt lat="41.233617" lon="-4.363117">
        <ele>2558.0</ele>
        <time>2016-07-12T15:58:12Z</time>
      </trkpt>
      <trkpt lat="41.233550" lon="-4.362950">
        <ele>2555.0</ele>
        <time>2016-07-12T15:58:13Z</time>
      </trkpt>
      <trkpt lat="41.233467" lon="-4.362783">
        <ele>2553.0</ele>
        <time>2016-07-12T15:58:14Z</time>
      </trkpt>
      <trkpt lat="41.233400" lon="-4.362633">
        <ele>2549.0</ele>
        <time>2016-07-12T15:58:15Z</time>
      </trkpt>
      <trkpt lat="41.233333" lon="-4.362433">
        <ele>2544.0</ele>
        <time>2016-07-12T15:58:16Z</time>
      </trkpt>
      <trkpt lat="41.233283" lon="-4.362233">
        <ele>2539.0</ele>
        <time>2016-07-12T15:58:17Z</time>
      </trkpt>
      <trkpt lat="41.233233" lon="-4.362017">
        <ele>2536.0</ele>
        <time>2016-07-12T15:58:18Z</time>
      </trkpt>
      <trkpt lat="41.233183" lon="-4.361817">
        <ele>2534.0</ele>
        <time>2016-07-12T15:58:19Z</time>
      </trkpt>
      <trkpt lat="41.233117" lon="-4.361633">
        <ele>2533.0</ele>
        <time>2016-07-12T15:58:20Z</time>
      </trkpt>
      <trkpt lat="41.233050" lon="-4.361467">
        <ele>2531.0</ele>
        <time>2016-07-12T15:58:21Z</time>
      </trkpt>
      <trkpt lat="41.233000" lon="-4.361300">
        <ele>2528.0</ele>
        <time>2016-07-12T15:58:22Z</time>
      </trkpt>
      <trkpt lat="41.232950" lon="-4.361117">
        <ele>2526.0</ele>
        <time>2016-07-12T15:58:23Z</time>
      </trkpt>
      <trkpt lat="41.232900" lon="-4.360933">
        <ele>2522.0</ele>
        <time>2016-07-12T15:58:24Z</time>
      </trkpt>
      <trkpt lat="41.232850" lon="-4.360767">
        <ele>2520.0</ele>
        <time>2016-07-12T15:58:25Z</time>
      </trkpt>
      <trkpt lat="41.232800" lon="-4.360600">
        <ele>2517.0</ele>
        <time>2016-07-12T15:58:26Z</time>
      </trkpt>
      <trkpt lat="41.232750" lon="-4.360433">
        <ele>2515.0</ele>
        <time>2016-07-12T15:58:27Z</time>
      </trkpt>
      <trkpt lat="41.232717" lon="-4.360267">
        <ele>2514.0</ele>
        <time>2016-07-12T15:58:28Z</time>
      </trkpt>
      <trkpt lat="41.232667" lon="-4.360100">
        <ele>2512.0</ele>
        <time>2016-07-12T15:58:29Z</time>
      </trkpt>
      <trkpt lat="41.232617" lon="-4.359950">
        <ele>2511.0</ele>
        <time>2016-07-12T15:58:30Z</time>
      </trkpt>
      <trkpt lat="41.232583" lon="-4.359800">
        <ele>2510.0</ele>
        <time>2016-07-12T15:58:31Z</time>
      </trkpt>
      <trkpt lat="41.232550" lon="-4.359650">
        <ele>2508.0</ele>
        <time>2016-07-12T15:58:32Z</time>
      </trkpt>
      <trkpt lat="41.232517" lon="-4.359517">
        <ele>2506.0</ele>
        <time>2016-07-12T15:58:33Z</time>
      </trkpt>
      <trkpt lat="41.232483" lon="-4.359350">
        <ele>2503.0</ele>
        <time>2016-07-12T15:58:34Z</time>
      </trkpt>
      <trkpt lat="41.232450" lon="-4.359200">
        <ele>2500.0</ele>
        <time>2016-07-12T15:58:35Z</time>
      </trkpt>
      <trkpt lat="41.232400" lon="-4.359033">
        <ele>2498.0</ele>
        <time>2016-07-12T15:58:36Z</time>
      </trkpt>
      <trkpt lat="41.232367" lon="-4.358867">
        <ele>2498.0</ele>
        <time>2016-07-12T15:58:37Z</time>
      </trkpt>
      <trkpt lat="41.232317" lon="-4.358717">
        <ele>2497.0</ele>
        <time>2016-07-12T15:58:38Z</time>
      </trkpt>
      <trkpt lat="41.232250" lon="-4.358567">
        <ele>2496.0</ele>
        <time>2016-07-12T15:58:39Z</time>
      </trkpt>
      <trkpt lat="41.232200" lon="-4.358417">
        <ele>2496.0</ele>
        <time>2016-07-12T15:58:40Z</time>
      </trkpt>
      <trkpt lat="41.232150" lon="-4.358267">
        <ele>2494.0</ele>
        <time>2016-07-12T15:58:41Z</time>
      </trkpt>
      <trkpt lat="41.232083" lon="-4.358117">
        <ele>2493.0</ele>
        <time>2016-07-12T15:58:42Z</time>
      </trkpt>
      <trkpt lat="41.232033" lon="-4.357967">
        <ele>2491.0</ele>
        <time>2016-07-12T15:58:43Z</time>
      </trkpt>
      <trkpt lat="41.231967" lon="-4.357800">
        <ele>2489.0</ele>
        <time>2016-07-12T15:58:44Z</time>
      </trkpt>
      <trkpt lat="41.231917" lon="-4.357633">
        <ele>2488.0</ele>
        <time>2016-07-12T15:58:45Z</time>
      </trkpt>
      <trkpt lat="41.231833" lon="-4.357467">
        <ele>2486.0</ele>
        <time>2016-07-12T15:58:46Z</time>
      </trkpt>
      <trkpt lat="41.231767" lon="-4.357317">
        <ele>2484.0</ele>
        <time>2016-07-12T15:58:47Z</time>
      </trkpt>
      <trkpt lat="41.231683" lon="-4.357150">
        <ele>2482.0</ele>
        <time>2016-07-12T15:58:48Z</time>
      </trkpt>
      <trkpt lat="41.231617" lon="-4.356983">
        <ele>2481.0</ele>
        <time>2016-07-12T15:58:49Z</time>
      </trkpt>
      <trkpt lat="41.231550" lon="-4.356817">
        <ele>2479.0</ele>
        <time>2016-07-12T15:58:50Z</time>
      </trkpt>
      <trkpt lat="41.231483" lon="-4.356650">
        <ele>2477.0</ele>
        <time>2016-07-12T15:58:51Z</time>
      </trkpt>
      <trkpt lat="41.231400" lon="-4.356483">
        <ele>2475.0</ele>
        <time>2016-07-12T15:58:52Z</time>
      </trkpt>
      <trkpt lat="41.231317" lon="-4.356300">
        <ele>2473.0</ele>
        <time>2016-07-12T15:58:53Z</time>
      </trkpt>
      <trkpt lat="41.231250" lon="-4.356133">
        <ele>2472.0</ele>
        <time>2016-07-12T15:58:54Z</time>
      </trkpt>
      <trkpt lat="41.231183" lon="-4.355950">
        <ele>2471.0</ele>
        <time>2016-07-12T15:58:55Z</time>
      </trkpt>
      <trkpt lat="41.231117" lon="-4.355783">
        <ele>2470.0</ele>
        <time>2016-07-12T15:58:56Z</time>
      </trkpt>
      <trkpt lat="41.231033" lon="-4.355617">
        <ele>2468.0</ele>
        <time>2016-07-12T15:58:57Z</time>
      </trkpt>
      <trkpt lat="41.230967" lon="-4.355433">
        <ele>2466.0</ele>
        <time>2016-07-12T15:58:58Z</time>
      </trkpt>
      <trkpt lat="41.230883" lon="-4.355267">
        <ele>2465.0</ele>
        <time>2016-07-12T15:58:59Z</time>
      </trkpt>
      <trkpt lat="41.230800" lon="-4.355083">
        <ele>2464.0</ele>
        <time>2016-07-12T15:59:00Z</time>
      </trkpt>
      <trkpt lat="41.230717" lon="-4.354917">
        <ele>2463.0</ele>
        <time>2016-07-12T15:59:01Z</time>
      </trkpt>
      <trkpt lat="41.230633" lon="-4.354767">
        <ele>2462.0</ele>
        <time>2016-07-12T15:59:02Z</time>
      </trkpt>
      <trkpt lat="41.230567" lon="-4.354617">
        <ele>2462.0</ele>
        <time>2016-07-12T15:59:03Z</time>
      </trkpt>
      <trkpt lat="41.230483" lon="-4.354450">
        <ele>2461.0</ele>
        <time>2016-07-12T15:59:04Z</time>
      </trkpt>
      <trkpt lat="41.230417" lon="-4.354300">
        <ele>2460.0</ele>
        <time>2016-07-12T15:59:05Z</time>
      </trkpt>
      <trkpt lat="41.230367" lon="-4.354133">
        <ele>2459.0</ele>
        <time>2016-07-12T15:59:06Z</time>
      </trkpt>
      <trkpt lat="41.230300" lon="-4.353983">
        <ele>2459.0</ele>
        <time>2016-07-12T15:59:07Z</time>
      </trkpt>
      <trkpt lat="41.230267" lon="-4.353833">
        <ele>2458.0</ele>
        <time>2016-07-12T15:59:08Z</time>
      </trkpt>
      <trkpt lat="41.230217" lon="-4.353683">
        <ele>2457.0</ele>
        <time>2016-07-12T15:59:09Z</time>
      </trkpt>
      <trkpt lat="41.230167" lon="-4.353517">
        <ele>2456.0</ele>
        <time>2016-07-12T15:59:10Z</time>
      </trkpt>
      <trkpt lat="41.230100" lon="-4.353367">
        <ele>2455.0</ele>
        <time>2016-07-12T15:59:11Z</time>
      </trkpt>
      <trkpt lat="41.230050" lon="-4.353217">
        <ele>2455.0</ele>
        <time>2016-07-12T15:59:12Z</time>
      </trkpt>
      <trkpt lat="41.230000" lon="-4.353067">
        <ele>2454.0</ele>
        <time>2016-07-12T15:59:13Z</time>
      </trkpt>
      <trkpt lat="41.229950" lon="-4.352917">
        <ele>2453.0</ele>
        <time>2016-07-12T15:59:14Z</time>
      </trkpt>
      <trkpt lat="41.229883" lon="-4.352767">
        <ele>2451.0</ele>
        <time>2016-07-12T15:59:15Z</time>
      </trkpt>
      <trkpt lat="41.229833" lon="-4.352617">
        <ele>2450.0</ele>
        <time>2016-07-12T15:59:16Z</time>
      </trkpt>
      <trkpt lat="41.229783" lon="-4.352450">
        <ele>2448.0</ele>
        <time>2016-07-12T15:59:17Z</time>
      </trkpt>
      <trkpt lat="41.229733" lon="-4.352283">
        <ele>2448.0</ele>
        <time>2016-07-12T15:59:18Z</time>
      </trkpt>
      <trkpt lat="41.229683" lon="-4.352133">
        <ele>2447.0</ele>
        <time>2016-07-12T15:59:19Z</time>
      </trkpt>
      <trkpt lat="41.229650" lon="-4.351983">
        <ele>2445.0</ele>
        <time>2016-07-12T15:59:20Z</time>
      </trkpt>
      <trkpt lat="41.229583" lon="-4.351833">
        <ele>2443.0</ele>
        <time>2016-07-12T15:59:21Z</time>
      </trkpt>
      <trkpt lat="41.229533" lon="-4.351667">
        <ele>2441.0</ele>
        <time>2016-07-12T15:59:22Z</time>
      </trkpt>
      <trkpt lat="41.229483" lon="-4.351517">
        <ele>2439.0</ele>
        <time>2016-07-12T15:59:23Z</time>
      </trkpt>
      <trkpt lat="41.229433" lon="-4.351350">
        <ele>2438.0</ele>
        <time>2016-07-12T15:59:24Z</time>
      </trkpt>
      <trkpt lat="41.229367" lon="-4.351200">
        <ele>2436.0</ele>
        <time>2016-07-12T15:59:25Z</time>
      </trkpt>
      <trkpt lat="41.229317" lon="-4.351067">
        <ele>2434.0</ele>
        <time>2016-07-12T15:59:26Z</time>
      </trkpt>
      <trkpt lat="41.229267" lon="-4.350900">
        <ele>2432.0</ele>
        <time>2016-07-12T15:59:27Z</time>
      </trkpt>
      <trkpt lat="41.229200" lon="-4.350733">
        <ele>2430.0</ele>
        <time>2016-07-12T15:59:28Z</time>
      </trkpt>
      <trkpt lat="41.229133" lon="-4.350567">
        <ele>2430.0</ele>
        <time>2016-07-12T15:59:29Z</time>
      </trkpt>
      <trkpt lat="41.229083" lon="-4.350417">
        <ele>2430.0</ele>
        <time>2016-07-12T15:59:30Z</time>
      </trkpt>
      <trkpt lat="41.229017" lon="-4.350283">
        <ele>2429.0</ele>
        <time>2016-07-12T15:59:31Z</time>
      </trkpt>
      <trkpt lat="41.228967" lon="-4.350133">
        <ele>2427.0</ele>
        <time>2016-07-12T15:59:32Z</time>
      </trkpt>
      <trkpt lat="41.228917" lon="-4.349967">
        <ele>2424.0</ele>
        <time>2016-07-12T15:59:33Z</time>
      </trkpt>
      <trkpt lat="41.228850" lon="-4.349800">
        <ele>2421.0</ele>
        <time>2016-07-12T15:59:34Z</time>
      </trkpt>
      <trkpt lat="41.228800" lon="-4.349617">
        <ele>2418.0</ele>
        <time>2016-07-12T15:59:35Z</time>
      </trkpt>
      <trkpt lat="41.228750" lon="-4.349433">
        <ele>2417.0</ele>
        <time>2016-07-12T15:59:36Z</time>
      </trkpt>
      <trkpt lat="41.228700" lon="-4.349267">
        <ele>2416.0</ele>
        <time>2016-07-12T15:59:37Z</time>
      </trkpt>
      <trkpt lat="41.228650" lon="-4.349117">
        <ele>2416.0</ele>
        <time>2016-07-12T15:59:38Z</time>
      </trkpt>
      <trkpt lat="41.228600" lon="-4.348967">
        <ele>2414.0</ele>
        <time>2016-07-12T15:59:39Z</time>
      </trkpt>
      <trkpt lat="41.228567" lon="-4.348817">
        <ele>2411.0</ele>
        <time>2016-07-12T15:59:40Z</time>
      </trkpt>
      <trkpt lat="41.228517" lon="-4.348650">
        <ele>2406.0</ele>
        <time>2016-07-12T15:59:41Z</time>
      </trkpt>
      <trkpt lat="41.228467" lon="-4.348483">
        <ele>2403.0</ele>
        <time>2016-07-12T15:59:42Z</time>
      </trkpt>
      <trkpt lat="41.228400" lon="-4.348300">
        <ele>2400.0</ele>
        <time>2016-07-12T15:59:43Z</time>
      </trkpt>
      <trkpt lat="41.228350" lon="-4.348133">
        <ele>2399.0</ele>
        <time>2016-07-12T15:59:44Z</time>
      </trkpt>
      <trkpt lat="41.228300" lon="-4.347983">
        <ele>2398.0</ele>
        <time>2016-07-12T15:59:45Z</time>
      </trkpt>
      <trkpt lat="41.228250" lon="-4.347833">
        <ele>2397.0</ele>
        <time>2016-07-12T15:59:46Z</time>
      </trkpt>
      <trkpt lat="41.228183" lon="-4.347717">
        <ele>2395.0</ele>
        <time>2016-07-12T15:59:47Z</time>
      </trkpt>
      <trkpt lat="41.228117" lon="-4.347583">
        <ele>2392.0</ele>
        <time>2016-07-12T15:59:48Z</time>
      </trkpt>
      <trkpt lat="41.228033" lon="-4.347433">
        <ele>2389.0</ele>
        <time>2016-07-12T15:59:49Z</time>
      </trkpt>
      <trkpt lat="41.227967" lon="-4.347283">
        <ele>2387.0</ele>
        <time>2016-07-12T15:59:50Z</time>
      </trkpt>
      <trkpt lat="41.227933" lon="-4.347117">
        <ele>2385.0</ele>
        <time>2016-07-12T15:59:51Z</time>
      </trkpt>
      <trkpt lat="41.227900" lon="-4.346967">
        <ele>2384.0</ele>
        <time>2016-07-12T15:59:52Z</time>
      </trkpt>
      <trkpt lat="41.227850" lon="-4.346833">
        <ele>2382.0</ele>
        <time>2016-07-12T15:59:53Z</time>
      </trkpt>
      <trkpt lat="41.227817" lon="-4.346683">
        <ele>2379.0</ele>
        <time>2016-07-12T15:59:54Z</time>
      </trkpt>
      <trkpt lat="41.227783" lon="-4.346533">
        <ele>2375.0</ele>
        <time>2016-07-12T15:59:55Z</time>
      </trkpt>
      <trkpt lat="41.227750" lon="-4.346367">
        <ele>2372.0</ele>
        <time>2016-07-12T15:59:56Z</time>
      </trkpt>
      <trkpt lat="41.227733" lon="-4.346183">
        <ele>2368.0</ele>
        <time>2016-07-12T15:59:57Z</time>
      </trkpt>
      <trkpt lat="41.227700" lon="-4.346017">
        <ele>2366.0</ele>
        <time>2016-07-12T15:59:58Z</time>
      </trkpt>
      <trkpt lat="41.227667" lon="-4.345867">
        <ele>2364.0</ele>
        <time>2016-07-12T15:59:59Z</time>
      </trkpt>
      <trkpt lat="41.227617" lon="-4.345717">
        <ele>2361.0</ele>
        <time>2016-07-12T16:00:00Z</time>
      </trkpt>
      <trkpt lat="41.227583" lon="-4.345583">
        <ele>2358.0</ele>
        <time>2016-07-12T16:00:01Z</time>
      </trkpt>
      <trkpt lat="41.227533" lon="-4.345433">
        <ele>2355.0</ele>
        <time>2016-07-12T16:00:02Z</time>
      </trkpt>
      <trkpt lat="41.227500" lon="-4.345283">
        <ele>2353.0</ele>
        <time>2016-07-12T16:00:03Z</time>
      </trkpt>
      <trkpt lat="41.227450" lon="-4.345117">
        <ele>2350.0</ele>
        <time>2016-07-12T16:00:04Z</time>
      </trkpt>
      <trkpt lat="41.227400" lon="-4.344950">
        <ele>2349.0</ele>
        <time>2016-07-12T16:00:05Z</time>
      </trkpt>
      <trkpt lat="41.227350" lon="-4.344800">
        <ele>2348.0</ele>
        <time>2016-07-12T16:00:06Z</time>
      </trkpt>
      <trkpt lat="41.227317" lon="-4.344650">
        <ele>2348.0</ele>
        <time>2016-07-12T16:00:07Z</time>
      </trkpt>
      <trkpt lat="41.227283" lon="-4.344500">
        <ele>2347.0</ele>
        <time>2016-07-12T16:00:08Z</time>
      </trkpt>
      <trkpt lat="41.227267" lon="-4.344367">
        <ele>2345.0</ele>
        <time>2016-07-12T16:00:09Z</time>
      </trkpt>
      <trkpt lat="41.227217" lon="-4.344233">
        <ele>2343.0</ele>
        <time>2016-07-12T16:00:10Z</time>
      </trkpt>
      <trkpt lat="41.227183" lon="-4.344083">
        <ele>2341.0</ele>
        <time>2016-07-12T16:00:11Z</time>
      </trkpt>
      <trkpt lat="41.227133" lon="-4.343933">
        <ele>2339.0</ele>
        <time>2016-07-12T16:00:12Z</time>
      </trkpt>
      <trkpt lat="41.227083" lon="-4.343800">
        <ele>2337.0</ele>
        <time>2016-07-12T16:00:13Z</time>
      </trkpt>
      <trkpt lat="41.227033" lon="-4.343650">
        <ele>2335.0</ele>
        <time>2016-07-12T16:00:14Z</time>
      </trkpt>
      <trkpt lat="41.226983" lon="-4.343517">
        <ele>2333.0</ele>
        <time>2016-07-12T16:00:15Z</time>
      </trkpt>
      <trkpt lat="41.226933" lon="-4.343383">
        <ele>2331.0</ele>
        <time>2016-07-12T16:00:16Z</time>
      </trkpt>
      <trkpt lat="41.226883" lon="-4.343233">
        <ele>2328.0</ele>
        <time>2016-07-12T16:00:17Z</time>
      </trkpt>
      <trkpt lat="41.226833" lon="-4.343083">
        <ele>2325.0</ele>
        <time>2016-07-12T16:00:18Z</time>
      </trkpt>
      <trkpt lat="41.226783" lon="-4.342917">
        <ele>2321.0</ele>
        <time>2016-07-12T16:00:19Z</time>
      </trkpt>
      <trkpt lat="41.226733" lon="-4.342767">
        <ele>2318.0</ele>
        <time>2016-07-12T16:00:20Z</time>
      </trkpt>
      <trkpt lat="41.226667" lon="-4.342600">
        <ele>2316.0</ele>
        <time>2016-07-12T16:00:21Z</time>
      </trkpt>
      <trkpt lat="41.226617" lon="-4.342450">
        <ele>2313.0</ele>
        <time>2016-07-12T16:00:22Z</time>
      </trkpt>
      <trkpt lat="41.226567" lon="-4.342300">
        <ele>2311.0</ele>
        <time>2016-07-12T16:00:23Z</time>
      </trkpt>
      <trkpt lat="41.226517" lon="-4.342150">
        <ele>2308.0</ele>
        <time>2016-07-12T16:00:24Z</time>
      </trkpt>
      <trkpt lat="41.226467" lon="-4.342000">
        <ele>2305.0</ele>
        <time>2016-07-12T16:00:25Z</time>
      </trkpt>
      <trkpt lat="41.226417" lon="-4.341833">
        <ele>2301.0</ele>
        <time>2016-07-12T16:00:26Z</time>
      </trkpt>
      <trkpt lat="41.226367" lon="-4.341667">
        <ele>2298.0</ele>
        <time>2016-07-12T16:00:27Z</time>
      </trkpt>
      <trkpt lat="41.226333" lon="-4.341500">
        <ele>2295.0</ele>
        <time>2016-07-12T16:00:28Z</time>
      </trkpt>
      <trkpt lat="41.226283" lon="-4.341350">
        <ele>2293.0</ele>
        <time>2016-07-12T16:00:29Z</time>
      </trkpt>
      <trkpt lat="41.226250" lon="-4.341183">
        <ele>2291.0</ele>
        <time>2016-07-12T16:00:30Z</time>
      </trkpt>
      <trkpt lat="41.226217" lon="-4.341050">
        <ele>2289.0</ele>
        <time>2016-07-12T16:00:31Z</time>
      </trkpt>
      <trkpt lat="41.226167" lon="-4.340900">
        <ele>2286.0</ele>
        <time>2016-07-12T16:00:32Z</time>
      </trkpt>
      <trkpt lat="41.226133" lon="-4.340750">
        <ele>2282.0</ele>
        <time>2016-07-12T16:00:33Z</time>
      </trkpt>
      <trkpt lat="41.226083" lon="-4.340600">
        <ele>2278.0</ele>
        <time>2016-07-12T16:00:34Z</time>
      </trkpt>
      <trkpt lat="41.226033" lon="-4.340433">
        <ele>2274.0</ele>
        <time>2016-07-12T16:00:35Z</time>
      </trkpt>
      <trkpt lat="41.225983" lon="-4.340283">
        <ele>2272.0</ele>
        <time>2016-07-12T16:00:36Z</time>
      </trkpt>
      <trkpt lat="41.225950" lon="-4.340150">
        <ele>2270.0</ele>
        <time>2016-07-12T16:00:37Z</time>
      </trkpt>
      <trkpt lat="41.225917" lon="-4.340017">
        <ele>2267.0</ele>
        <time>2016-07-12T16:00:38Z</time>
      </trkpt>
      <trkpt lat="41.225883" lon="-4.339883">
        <ele>2265.0</ele>
        <time>2016-07-12T16:00:39Z</time>
      </trkpt>
      <trkpt lat="41.225833" lon="-4.339750">
        <ele>2261.0</ele>
        <time>2016-07-12T16:00:40Z</time>
      </trkpt>
      <trkpt lat="41.225800" lon="-4.339617">
        <ele>2257.0</ele>
        <time>2016-07-12T16:00:41Z</time>
      </trkpt>
      <trkpt lat="41.225750" lon="-4.339467">
        <ele>2254.0</ele>
        <time>2016-07-12T16:00:42Z</time>
      </trkpt>
      <trkpt lat="41.225717" lon="-4.339333">
        <ele>2251.0</ele>
        <time>2016-07-12T16:00:43Z</time>
      </trkpt>
      <trkpt lat="41.225683" lon="-4.339200">
        <ele>2249.0</ele>
        <time>2016-07-12T16:00:44Z</time>
      </trkpt>
      <trkpt lat="41.225650" lon="-4.339083">
        <ele>2247.0</ele>
        <time>2016-07-12T16:00:45Z</time>
      </trkpt>
      <trkpt lat="41.225617" lon="-4.338950">
        <ele>2244.0</ele>
        <time>2016-07-12T16:00:46Z</time>
      </trkpt>
      <trkpt lat="41.225583" lon="-4.338833">
        <ele>2242.0</ele>
        <time>2016-07-12T16:00:47Z</time>
      </trkpt>
      <trkpt lat="41.225550" lon="-4.338717">
        <ele>2240.0</ele>
        <time>2016-07-12T16:00:48Z</time>
      </trkpt>
      <trkpt lat="41.225517" lon="-4.338600">
        <ele>2237.0</ele>
        <time>2016-07-12T16:00:49Z</time>
      </trkpt>
      <trkpt lat="41.225450" lon="-4.338500">
        <ele>2235.0</ele>
        <time>2016-07-12T16:00:50Z</time>
      </trkpt>
      <trkpt lat="41.225400" lon="-4.338400">
        <ele>2233.0</ele>
        <time>2016-07-12T16:00:51Z</time>
      </trkpt>
      <trkpt lat="41.225333" lon="-4.338300">
        <ele>2231.0</ele>
        <time>2016-07-12T16:00:52Z</time>
      </trkpt>
      <trkpt lat="41.225267" lon="-4.338200">
        <ele>2229.0</ele>
        <time>2016-07-12T16:00:53Z</time>
      </trkpt>
      <trkpt lat="41.225217" lon="-4.338083">
        <ele>2227.0</ele>
        <time>2016-07-12T16:00:54Z</time>
      </trkpt>
      <trkpt lat="41.225150" lon="-4.337983">
        <ele>2224.0</ele>
        <time>2016-07-12T16:00:55Z</time>
      </trkpt>
      <trkpt lat="41.225067" lon="-4.337867">
        <ele>2222.0</ele>
        <time>2016-07-12T16:00:56Z</time>
      </trkpt>
      <trkpt lat="41.224983" lon="-4.337750">
        <ele>2221.0</ele>
        <time>2016-07-12T16:00:57Z</time>
      </trkpt>
      <trkpt lat="41.224917" lon="-4.337667">
        <ele>2222.0</ele>
        <time>2016-07-12T16:00:58Z</time>
      </trkpt>
      <trkpt lat="41.224850" lon="-4.337583">
        <ele>2225.0</ele>
        <time>2016-07-12T16:00:59Z</time>
      </trkpt>
      <trkpt lat="41.224783" lon="-4.337517">
        <ele>2226.0</ele>
        <time>2016-07-12T16:01:00Z</time>
      </trkpt>
      <trkpt lat="41.224750" lon="-4.337450">
        <ele>2226.0</ele>
        <time>2016-07-12T16:01:01Z</time>
      </trkpt>
      <trkpt lat="41.224700" lon="-4.337383">
        <ele>2225.0</ele>
        <time>2016-07-12T16:01:02Z</time>
      </trkpt>
      <trkpt lat="41.224650" lon="-4.337300">
        <ele>2223.0</ele>
        <time>2016-07-12T16:01:03Z</time>
      </trkpt>
      <trkpt lat="41.224583" lon="-4.337200">
        <ele>2221.0</ele>
        <time>2016-07-12T16:01:04Z</time>
      </trkpt>
      <trkpt lat="41.224500" lon="-4.337100">
        <ele>2220.0</ele>
        <time>2016-07-12T16:01:05Z</time>
      </trkpt>
      <trkpt lat="41.224450" lon="-4.337000">
        <ele>2220.0</ele>
        <time>2016-07-12T16:01:06Z</time>
      </trkpt>
      <trkpt lat="41.224383" lon="-4.336917">
        <ele>2220.0</ele>
        <time>2016-07-12T16:01:07Z</time>
      </trkpt>
      <trkpt lat="41.224317" lon="-4.336833">
        <ele>2219.0</ele>
        <time>2016-07-12T16:01:08Z</time>
      </trkpt>
      <trkpt lat="41.224250" lon="-4.336733">
        <ele>2216.0</ele>
        <time>2016-07-12T16:01:09Z</time>
      </trkpt>
      <trkpt lat="41.224183" lon="-4.336650">
        <ele>2213.0</ele>
        <time>2016-07-12T16:01:10Z</time>
      </trkpt>
      <trkpt lat="41.224100" lon="-4.336550">
        <ele>2210.0</ele>
        <time>2016-07-12T16:01:11Z</time>
      </trkpt>
      <trkpt lat="41.224017" lon="-4.336467">
        <ele>2208.0</ele>
        <time>2016-07-12T16:01:12Z</time>
      </trkpt>
      <trkpt lat="41.223917" lon="-4.336383">
        <ele>2206.0</ele>
        <time>2016-07-12T16:01:13Z</time>
      </trkpt>
      <trkpt lat="41.223850" lon="-4.336300">
        <ele>2205.0</ele>
        <time>2016-07-12T16:01:14Z</time>
      </trkpt>
      <trkpt lat="41.223767" lon="-4.336217">
        <ele>2203.0</ele>
        <time>2016-07-12T16:01:15Z</time>
      </trkpt>
      <trkpt lat="41.223683" lon="-4.336133">
        <ele>2201.0</ele>
        <time>2016-07-12T16:01:16Z</time>
      </trkpt>
      <trkpt lat="41.223600" lon="-4.336033">
        <ele>2198.0</ele>
        <time>2016-07-12T16:01:17Z</time>
      </trkpt>
      <trkpt lat="41.223517" lon="-4.335933">
        <ele>2196.0</ele>
        <time>2016-07-12T16:01:18Z</time>
      </trkpt>
      <trkpt lat="41.223417" lon="-4.335833">
        <ele>2195.0</ele>
        <time>2016-07-12T16:01:19Z</time>
      </trkpt>
      <trkpt lat="41.223333" lon="-4.335750">
        <ele>2195.0</ele>
        <time>2016-07-12T16:01:20Z</time>
      </trkpt>
      <trkpt lat="41.223250" lon="-4.335650">
        <ele>2194.0</ele>
        <time>2016-07-12T16:01:21Z</time>
      </trkpt>
      <trkpt lat="41.223167" lon="-4.335567">
        <ele>2192.0</ele>
        <time>2016-07-12T16:01:22Z</time>
      </trkpt>
      <trkpt lat="41.223083" lon="-4.335467">
        <ele>2190.0</ele>
        <time>2016-07-12T16:01:23Z</time>
      </trkpt>
      <trkpt lat="41.223000" lon="-4.335350">
        <ele>2189.0</ele>
        <time>2016-07-12T16:01:24Z</time>
      </trkpt>
      <trkpt lat="41.222917" lon="-4.335217">
        <ele>2188.0</ele>
        <time>2016-07-12T16:01:25Z</time>
      </trkpt>
      <trkpt lat="41.222833" lon="-4.335100">
        <ele>2188.0</ele>
        <time>2016-07-12T16:01:26Z</time>
      </trkpt>
      <trkpt lat="41.222767" lon="-4.335000">
        <ele>2188.0</ele>
        <time>2016-07-12T16:01:27Z</time>
      </trkpt>
      <trkpt lat="41.222683" lon="-4.334900">
        <ele>2188.0</ele>
        <time>2016-07-12T16:01:28Z</time>
      </trkpt>
      <trkpt lat="41.222617" lon="-4.334800">
        <ele>2187.0</ele>
        <time>2016-07-12T16:01:29Z</time>
      </trkpt>
      <trkpt lat="41.222533" lon="-4.334700">
        <ele>2186.0</ele>
        <time>2016-07-12T16:01:30Z</time>
      </trkpt>
      <trkpt lat="41.222450" lon="-4.334617">
        <ele>2184.0</ele>
        <time>2016-07-12T16:01:31Z</time>
      </trkpt>
      <trkpt lat="41.222367" lon="-4.334517">
        <ele>2183.0</ele>
        <time>2016-07-12T16:01:32Z</time>
      </trkpt>
      <trkpt lat="41.222300" lon="-4.334400">
        <ele>2182.0</ele>
        <time>2016-07-12T16:01:33Z</time>
      </trkpt>
      <trkpt lat="41.222233" lon="-4.334300">
        <ele>2183.0</ele>
        <time>2016-07-12T16:01:34Z</time>
      </trkpt>
      <trkpt lat="41.222150" lon="-4.334200">
        <ele>2182.0</ele>
        <time>2016-07-12T16:01:35Z</time>
      </trkpt>
      <trkpt lat="41.222067" lon="-4.334100">
        <ele>2181.0</ele>
        <time>2016-07-12T16:01:36Z</time>
      </trkpt>
      <trkpt lat="41.221983" lon="-4.334000">
        <ele>2180.0</ele>
        <time>2016-07-12T16:01:37Z</time>
      </trkpt>
      <trkpt lat="41.221883" lon="-4.333900">
        <ele>2179.0</ele>
        <time>2016-07-12T16:01:38Z</time>
      </trkpt>
      <trkpt lat="41.221800" lon="-4.333783">
        <ele>2178.0</ele>
        <time>2016-07-12T16:01:39Z</time>
      </trkpt>
      <trkpt lat="41.221717" lon="-4.333667">
        <ele>2178.0</ele>
        <time>2016-07-12T16:01:40Z</time>
      </trkpt>
      <trkpt lat="41.221633" lon="-4.333550">
        <ele>2178.0</ele>
        <time>2016-07-12T16:01:41Z</time>
      </trkpt>
      <trkpt lat="41.221533" lon="-4.333433">
        <ele>2179.0</ele>
        <time>2016-07-12T16:01:42Z</time>
      </trkpt>
      <trkpt lat="41.221450" lon="-4.333333">
        <ele>2179.0</ele>
        <time>2016-07-12T16:01:43Z</time>
      </trkpt>
      <trkpt lat="41.221367" lon="-4.333233">
        <ele>2179.0</ele>
        <time>2016-07-12T16:01:44Z</time>
      </trkpt>
      <trkpt lat="41.221283" lon="-4.333117">
        <ele>2179.0</ele>
        <time>2016-07-12T16:01:45Z</time>
      </trkpt>
      <trkpt lat="41.221200" lon="-4.333000">
        <ele>2178.0</ele>
        <time>2016-07-12T16:01:46Z</time>
      </trkpt>
      <trkpt lat="41.221117" lon="-4.332900">
        <ele>2177.0</ele>
        <time>2016-07-12T16:01:47Z</time>
      </trkpt>
      <trkpt lat="41.221033" lon="-4.332817">
        <ele>2176.0</ele>
        <time>2016-07-12T16:01:48Z</time>
      </trkpt>
      <trkpt lat="41.220933" lon="-4.332700">
        <ele>2174.0</ele>
        <time>2016-07-12T16:01:49Z</time>
      </trkpt>
      <trkpt lat="41.220867" lon="-4.332583">
        <ele>2172.0</ele>
        <time>2016-07-12T16:01:50Z</time>
      </trkpt>
      <trkpt lat="41.220783" lon="-4.332450">
        <ele>2171.0</ele>
        <time>2016-07-12T16:01:51Z</time>
      </trkpt>
      <trkpt lat="41.220700" lon="-4.332333">
        <ele>2171.0</ele>
        <time>2016-07-12T16:01:52Z</time>
      </trkpt>
      <trkpt lat="41.220600" lon="-4.332233">
        <ele>2171.0</ele>
        <time>2016-07-12T16:01:53Z</time>
      </trkpt>
      <trkpt lat="41.220500" lon="-4.332150">
        <ele>2172.0</ele>
        <time>2016-07-12T16:01:54Z</time>
      </trkpt>
      <trkpt lat="41.220417" lon="-4.332050">
        <ele>2172.0</ele>
        <time>2016-07-12T16:01:55Z</time>
      </trkpt>
      <trkpt lat="41.220317" lon="-4.331950">
        <ele>2171.0</ele>
        <time>2016-07-12T16:01:56Z</time>
      </trkpt>
      <trkpt lat="41.220217" lon="-4.331833">
        <ele>2171.0</ele>
        <time>2016-07-12T16:01:57Z</time>
      </trkpt>
      <trkpt lat="41.220133" lon="-4.331717">
        <ele>2172.0</ele>
        <time>2016-07-12T16:01:58Z</time>
      </trkpt>
      <trkpt lat="41.220050" lon="-4.331617">
        <ele>2173.0</ele>
        <time>2016-07-12T16:01:59Z</time>
      </trkpt>
      <trkpt lat="41.219950" lon="-4.331517">
        <ele>2174.0</ele>
        <time>2016-07-12T16:02:00Z</time>
      </trkpt>
      <trkpt lat="41.219867" lon="-4.331417">
        <ele>2175.0</ele>
        <time>2016-07-12T16:02:01Z</time>
      </trkpt>
      <trkpt lat="41.219783" lon="-4.331317">
        <ele>2176.0</ele>
        <time>2016-07-12T16:02:02Z</time>
      </trkpt>
      <trkpt lat="41.219700" lon="-4.331217">
        <ele>2175.0</ele>
        <time>2016-07-12T16:02:03Z</time>
      </trkpt>
      <trkpt lat="41.219600" lon="-4.331100">
        <ele>2175.0</ele>
        <time>2016-07-12T16:02:04Z</time>
      </trkpt>
      <trkpt lat="41.219500" lon="-4.330983">
        <ele>2175.0</ele>
        <time>2016-07-12T16:02:05Z</time>
      </trkpt>
      <trkpt lat="41.219417" lon="-4.330883">
        <ele>2175.0</ele>
        <time>2016-07-12T16:02:06Z</time>
      </trkpt>
      <trkpt lat="41.219333" lon="-4.330783">
        <ele>2175.0</ele>
        <time>2016-07-12T16:02:07Z</time>
      </trkpt>
      <trkpt lat="41.219233" lon="-4.330683">
        <ele>2174.0</ele>
        <time>2016-07-12T16:02:08Z</time>
      </trkpt>
      <trkpt lat="41.219150" lon="-4.330583">
        <ele>2173.0</ele>
        <time>2016-07-12T16:02:09Z</time>
      </trkpt>
      <trkpt lat="41.219050" lon="-4.330483">
        <ele>2173.0</ele>
        <time>2016-07-12T16:02:10Z</time>
      </trkpt>
      <trkpt lat="41.218967" lon="-4.330383">
        <ele>2172.0</ele>
        <time>2016-07-12T16:02:11Z</time>
      </trkpt>
      <trkpt lat="41.218867" lon="-4.330283">
        <ele>2172.0</ele>
        <time>2016-07-12T16:02:12Z</time>
      </trkpt>
      <trkpt lat="41.218767" lon="-4.330200">
        <ele>2171.0</ele>
        <time>2016-07-12T16:02:13Z</time>
      </trkpt>
      <trkpt lat="41.218667" lon="-4.330100">
        <ele>2170.0</ele>
        <time>2016-07-12T16:02:14Z</time>
      </trkpt>
      <trkpt lat="41.218567" lon="-4.330017">
        <ele>2169.0</ele>
        <time>2016-07-12T16:02:15Z</time>
      </trkpt>
      <trkpt lat="41.218467" lon="-4.329917">
        <ele>2168.0</ele>
        <time>2016-07-12T16:02:16Z</time>
      </trkpt>
      <trkpt lat="41.218367" lon="-4.329800">
        <ele>2168.0</ele>
        <time>2016-07-12T16:02:17Z</time>
      </trkpt>
      <trkpt lat="41.218267" lon="-4.329700">
        <ele>2169.0</ele>
        <time>2016-07-12T16:02:18Z</time>
      </trkpt>
      <trkpt lat="41.218167" lon="-4.329600">
        <ele>2171.0</ele>
        <time>2016-07-12T16:02:19Z</time>
      </trkpt>
      <trkpt lat="41.218083" lon="-4.329517">
        <ele>2173.0</ele>
        <time>2016-07-12T16:02:20Z</time>
      </trkpt>
      <trkpt lat="41.218000" lon="-4.329450">
        <ele>2176.0</ele>
        <time>2016-07-12T16:02:21Z</time>
      </trkpt>
      <trkpt lat="41.217933" lon="-4.329367">
        <ele>2177.0</ele>
        <time>2016-07-12T16:02:22Z</time>
      </trkpt>
      <trkpt lat="41.217833" lon="-4.329300">
        <ele>2177.0</ele>
        <time>2016-07-12T16:02:23Z</time>
      </trkpt>
      <trkpt lat="41.217750" lon="-4.329217">
        <ele>2178.0</ele>
        <time>2016-07-12T16:02:24Z</time>
      </trkpt>
      <trkpt lat="41.217667" lon="-4.329117">
        <ele>2179.0</ele>
        <time>2016-07-12T16:02:25Z</time>
      </trkpt>
      <trkpt lat="41.217583" lon="-4.329033">
        <ele>2180.0</ele>
        <time>2016-07-12T16:02:26Z</time>
      </trkpt>
      <trkpt lat="41.217500" lon="-4.328967">
        <ele>2182.0</ele>
        <time>2016-07-12T16:02:27Z</time>
      </trkpt>
      <trkpt lat="41.217417" lon="-4.328883">
        <ele>2183.0</ele>
        <time>2016-07-12T16:02:28Z</time>
      </trkpt>
      <trkpt lat="41.217333" lon="-4.328800">
        <ele>2183.0</ele>
        <time>2016-07-12T16:02:29Z</time>
      </trkpt>
      <trkpt lat="41.217250" lon="-4.328717">
        <ele>2184.0</ele>
        <time>2016-07-12T16:02:30Z</time>
      </trkpt>
      <trkpt lat="41.217150" lon="-4.328633">
        <ele>2184.0</ele>
        <time>2016-07-12T16:02:31Z</time>
      </trkpt>
      <trkpt lat="41.217067" lon="-4.328567">
        <ele>2185.0</ele>
        <time>2016-07-12T16:02:32Z</time>
      </trkpt>
      <trkpt lat="41.216983" lon="-4.328500">
        <ele>2186.0</ele>
        <time>2016-07-12T16:02:33Z</time>
      </trkpt>
      <trkpt lat="41.216883" lon="-4.328433">
        <ele>2186.0</ele>
        <time>2016-07-12T16:02:34Z</time>
      </trkpt>
      <trkpt lat="41.216783" lon="-4.328367">
        <ele>2187.0</ele>
        <time>2016-07-12T16:02:35Z</time>
      </trkpt>
      <trkpt lat="41.216683" lon="-4.328300">
        <ele>2189.0</ele>
        <time>2016-07-12T16:02:36Z</time>
      </trkpt>
      <trkpt lat="41.216583" lon="-4.328233">
        <ele>2190.0</ele>
        <time>2016-07-12T16:02:37Z</time>
      </trkpt>
      <trkpt lat="41.216500" lon="-4.328150">
        <ele>2192.0</ele>
        <time>2016-07-12T16:02:38Z</time>
      </trkpt>
      <trkpt lat="41.216400" lon="-4.328083">
        <ele>2194.0</ele>
        <time>2016-07-12T16:02:39Z</time>
      </trkpt>
      <trkpt lat="41.216317" lon="-4.328017">
        <ele>2194.0</ele>
        <time>2016-07-12T16:02:40Z</time>
      </trkpt>
      <trkpt lat="41.216217" lon="-4.327967">
        <ele>2194.0</ele>
        <time>2016-07-12T16:02:41Z</time>
      </trkpt>
      <trkpt lat="41.216100" lon="-4.327933">
        <ele>2195.0</ele>
        <time>2016-07-12T16:02:42Z</time>
      </trkpt>
      <trkpt lat="41.215983" lon="-4.327933">
        <ele>2195.0</ele>
        <time>2016-07-12T16:02:43Z</time>
      </trkpt>
      <trkpt lat="41.215867" lon="-4.327933">
        <ele>2196.0</ele>
        <time>2016-07-12T16:02:44Z</time>
      </trkpt>
      <trkpt lat="41.215767" lon="-4.327967">
        <ele>2198.0</ele>
        <time>2016-07-12T16:02:45Z</time>
      </trkpt>
      <trkpt lat="41.215667" lon="-4.328000">
        <ele>2199.0</ele>
        <time>2016-07-12T16:02:46Z</time>
      </trkpt>
      <trkpt lat="41.215583" lon="-4.328050">
        <ele>2199.0</ele>
        <time>2016-07-12T16:02:47Z</time>
      </trkpt>
      <trkpt lat="41.215517" lon="-4.328117">
        <ele>2198.0</ele>
        <time>2016-07-12T16:02:48Z</time>
      </trkpt>
      <trkpt lat="41.215450" lon="-4.328200">
        <ele>2197.0</ele>
        <time>2016-07-12T16:02:49Z</time>
      </trkpt>
      <trkpt lat="41.215400" lon="-4.328283">
        <ele>2197.0</ele>
        <time>2016-07-12T16:02:50Z</time>
      </trkpt>
      <trkpt lat="41.215367" lon="-4.328367">
        <ele>2197.0</ele>
        <time>2016-07-12T16:02:51Z</time>
      </trkpt>
      <trkpt lat="41.215350" lon="-4.328450">
        <ele>2197.0</ele>
        <time>2016-07-12T16:02:52Z</time>
      </trkpt>
      <trkpt lat="41.215333" lon="-4.328517">
        <ele>2197.0</ele>
        <time>2016-07-12T16:02:53Z</time>
      </trkpt>
      <trkpt lat="41.215333" lon="-4.328600">
        <ele>2196.0</ele>
        <time>2016-07-12T16:02:54Z</time>
      </trkpt>
      <trkpt lat="41.215350" lon="-4.328683">
        <ele>2195.0</ele>
        <time>2016-07-12T16:02:55Z</time>
      </trkpt>
      <trkpt lat="41.215367" lon="-4.328767">
        <ele>2194.0</ele>
        <time>2016-07-12T16:02:56Z</time>
      </trkpt>
      <trkpt lat="41.215400" lon="-4.328850">
        <ele>2193.0</ele>
        <time>2016-07-12T16:02:57Z</time>
      </trkpt>
      <trkpt lat="41.215450" lon="-4.328900">
        <ele>2194.0</ele>
        <time>2016-07-12T16:02:58Z</time>
      </trkpt>
      <trkpt lat="41.215500" lon="-4.328950">
        <ele>2193.0</ele>
        <time>2016-07-12T16:02:59Z</time>
      </trkpt>
      <trkpt lat="41.215550" lon="-4.329000">
        <ele>2193.0</ele>
        <time>2016-07-12T16:03:00Z</time>
      </trkpt>
      <trkpt lat="41.215600" lon="-4.329033">
        <ele>2192.0</ele>
        <time>2016-07-12T16:03:01Z</time>
      </trkpt>
      <trkpt lat="41.215667" lon="-4.329067">
        <ele>2192.0</ele>
        <time>2016-07-12T16:03:02Z</time>
      </trkpt>
      <trkpt lat="41.215733" lon="-4.329083">
        <ele>2191.0</ele>
        <time>2016-07-12T16:03:03Z</time>
      </trkpt>
      <trkpt lat="41.215783" lon="-4.329083">
        <ele>2190.0</ele>
        <time>2016-07-12T16:03:04Z</time>
      </trkpt>
      <trkpt lat="41.215850" lon="-4.329050">
        <ele>2189.0</ele>
        <time>2016-07-12T16:03:05Z</time>
      </trkpt>
      <trkpt lat="41.215917" lon="-4.329000">
        <ele>2188.0</ele>
        <time>2016-07-12T16:03:06Z</time>
      </trkpt>
      <trkpt lat="41.215967" lon="-4.328933">
        <ele>2187.0</ele>
        <time>2016-07-12T16:03:07Z</time>
      </trkpt>
      <trkpt lat="41.216033" lon="-4.328850">
        <ele>2186.0</ele>
        <time>2016-07-12T16:03:08Z</time>
      </trkpt>
      <trkpt lat="41.216083" lon="-4.328783">
        <ele>2185.0</ele>
        <time>2016-07-12T16:03:09Z</time>
      </trkpt>
      <trkpt lat="41.216133" lon="-4.328700">
        <ele>2185.0</ele>
        <time>2016-07-12T16:03:10Z</time>
      </trkpt>
      <trkpt lat="41.216183" lon="-4.328617">
        <ele>2184.0</ele>
        <time>2016-07-12T16:03:11Z</time>
      </trkpt>
      <trkpt lat="41.216217" lon="-4.328517">
        <ele>2182.0</ele>
        <time>2016-07-12T16:03:12Z</time>
      </trkpt>
      <trkpt lat="41.216250" lon="-4.328383">
        <ele>2181.0</ele>
        <time>2016-07-12T16:03:13Z</time>
      </trkpt>
      <trkpt lat="41.216267" lon="-4.328250">
        <ele>2180.0</ele>
        <time>2016-07-12T16:03:14Z</time>
      </trkpt>
      <trkpt lat="41.216283" lon="-4.328117">
        <ele>2179.0</ele>
        <time>2016-07-12T16:03:15Z</time>
      </trkpt>
      <trkpt lat="41.216283" lon="-4.327983">
        <ele>2180.0</ele>
        <time>2016-07-12T16:03:16Z</time>
      </trkpt>
      <trkpt lat="41.216267" lon="-4.327850">
        <ele>2180.0</ele>
        <time>2016-07-12T16:03:17Z</time>
      </trkpt>
      <trkpt lat="41.216267" lon="-4.327733">
        <ele>2180.0</ele>
        <time>2016-07-12T16:03:18Z</time>
      </trkpt>
      <trkpt lat="41.216283" lon="-4.327600">
        <ele>2181.0</ele>
        <time>2016-07-12T16:03:19Z</time>
      </trkpt>
      <trkpt lat="41.216283" lon="-4.327483">
        <ele>2181.0</ele>
        <time>2016-07-12T16:03:20Z</time>
      </trkpt>
      <trkpt lat="41.216267" lon="-4.327350">
        <ele>2181.0</ele>
        <time>2016-07-12T16:03:21Z</time>
      </trkpt>
      <trkpt lat="41.216267" lon="-4.327217">
        <ele>2181.0</ele>
        <time>2016-07-12T16:03:22Z</time>
      </trkpt>
      <trkpt lat="41.216250" lon="-4.327083">
        <ele>2181.0</ele>
        <time>2016-07-12T16:03:23Z</time>
      </trkpt>
      <trkpt lat="41.216233" lon="-4.326950">
        <ele>2180.0</ele>
        <time>2016-07-12T16:03:24Z</time>
      </trkpt>
      <trkpt lat="41.216217" lon="-4.326800">
        <ele>2179.0</ele>
        <time>2016-07-12T16:03:25Z</time>
      </trkpt>
      <trkpt lat="41.216217" lon="-4.326650">
        <ele>2179.0</ele>
        <time>2016-07-12T16:03:26Z</time>
      </trkpt>
      <trkpt lat="41.216183" lon="-4.326500">
        <ele>2180.0</ele>
        <time>2016-07-12T16:03:27Z</time>
      </trkpt>
      <trkpt lat="41.216167" lon="-4.326367">
        <ele>2181.0</ele>
        <time>2016-07-12T16:03:28Z</time>
      </trkpt>
      <trkpt lat="41.216117" lon="-4.326233">
        <ele>2182.0</ele>
        <time>2016-07-12T16:03:29Z</time>
      </trkpt>
      <trkpt lat="41.216067" lon="-4.326117">
        <ele>2183.0</ele>
        <time>2016-07-12T16:03:30Z</time>
      </trkpt>
      <trkpt lat="41.216017" lon="-4.325983">
        <ele>2183.0</ele>
        <time>2016-07-12T16:03:31Z</time>
      </trkpt>
      <trkpt lat="41.215950" lon="-4.325867">
        <ele>2184.0</ele>
        <time>2016-07-12T16:03:32Z</time>
      </trkpt>
      <trkpt lat="41.215883" lon="-4.325750">
        <ele>2185.0</ele>
        <time>2016-07-12T16:03:33Z</time>
      </trkpt>
      <trkpt lat="41.215800" lon="-4.325633">
        <ele>2185.0</ele>
        <time>2016-07-12T16:03:34Z</time>
      </trkpt>
      <trkpt lat="41.215733" lon="-4.325517">
        <ele>2186.0</ele>
        <time>2016-07-12T16:03:35Z</time>
      </trkpt>
      <trkpt lat="41.215650" lon="-4.325400">
        <ele>2187.0</ele>
        <time>2016-07-12T16:03:36Z</time>
      </trkpt>
      <trkpt lat="41.215583" lon="-4.325283">
        <ele>2188.0</ele>
        <time>2016-07-12T16:03:37Z</time>
      </trkpt>
      <trkpt lat="41.215500" lon="-4.325183">
        <ele>2189.0</ele>
        <time>2016-07-12T16:03:38Z</time>
      </trkpt>
      <trkpt lat="41.215417" lon="-4.325083">
        <ele>2189.0</ele>
        <time>2016-07-12T16:03:39Z</time>
      </trkpt>
      <trkpt lat="41.215333" lon="-4.325000">
        <ele>2190.0</ele>
        <time>2016-07-12T16:03:40Z</time>
      </trkpt>
      <trkpt lat="41.215250" lon="-4.324883">
        <ele>2191.0</ele>
        <time>2016-07-12T16:03:41Z</time>
      </trkpt>
      <trkpt lat="41.215167" lon="-4.324783">
        <ele>2193.0</ele>
        <time>2016-07-12T16:03:42Z</time>
      </trkpt>
      <trkpt lat="41.215083" lon="-4.324683">
        <ele>2196.0</ele>
        <time>2016-07-12T16:03:43Z</time>
      </trkpt>
      <trkpt lat="41.215017" lon="-4.324600">
        <ele>2198.0</ele>
        <time>2016-07-12T16:03:44Z</time>
      </trkpt>
      <trkpt lat="41.214933" lon="-4.324517">
        <ele>2201.0</ele>
        <time>2016-07-12T16:03:45Z</time>
      </trkpt>
      <trkpt lat="41.214850" lon="-4.324467">
        <ele>2203.0</ele>
        <time>2016-07-12T16:03:46Z</time>
      </trkpt>
      <trkpt lat="41.214767" lon="-4.324400">
        <ele>2206.0</ele>
        <time>2016-07-12T16:03:47Z</time>
      </trkpt>
      <trkpt lat="41.214683" lon="-4.324350">
        <ele>2208.0</ele>
        <time>2016-07-12T16:03:48Z</time>
      </trkpt>
      <trkpt lat="41.214583" lon="-4.324317">
        <ele>2209.0</ele>
        <time>2016-07-12T16:03:49Z</time>
      </trkpt>
      <trkpt lat="41.214500" lon="-4.324283">
        <ele>2211.0</ele>
        <time>2016-07-12T16:03:50Z</time>
      </trkpt>
      <trkpt lat="41.214400" lon="-4.324283">
        <ele>2212.0</ele>
        <time>2016-07-12T16:03:51Z</time>
      </trkpt>
      <trkpt lat="41.214300" lon="-4.324300">
        <ele>2213.0</ele>
        <time>2016-07-12T16:03:52Z</time>
      </trkpt>
      <trkpt lat="41.214217" lon="-4.324333">
        <ele>2214.0</ele>
        <time>2016-07-12T16:03:53Z</time>
      </trkpt>
      <trkpt lat="41.214133" lon="-4.324367">
        <ele>2215.0</ele>
        <time>2016-07-12T16:03:54Z</time>
      </trkpt>
      <trkpt lat="41.214050" lon="-4.324433">
        <ele>2216.0</ele>
        <time>2016-07-12T16:03:55Z</time>
      </trkpt>
      <trkpt lat="41.213983" lon="-4.324500">
        <ele>2217.0</ele>
        <time>2016-07-12T16:03:56Z</time>
      </trkpt>
      <trkpt lat="41.213917" lon="-4.324583">
        <ele>2218.0</ele>
        <time>2016-07-12T16:03:57Z</time>
      </trkpt>
      <trkpt lat="41.213850" lon="-4.324650">
        <ele>2219.0</ele>
        <time>2016-07-12T16:03:58Z</time>
      </trkpt>
      <trkpt lat="41.213783" lon="-4.324733">
        <ele>2220.0</ele>
        <time>2016-07-12T16:03:59Z</time>
      </trkpt>
      <trkpt lat="41.213750" lon="-4.324817">
        <ele>2221.0</ele>
        <time>2016-07-12T16:04:00Z</time>
      </trkpt>
      <trkpt lat="41.213717" lon="-4.324900">
        <ele>2221.0</ele>
        <time>2016-07-12T16:04:01Z</time>
      </trkpt>
      <trkpt lat="41.213683" lon="-4.325000">
        <ele>2221.0</ele>
        <time>2016-07-12T16:04:02Z</time>
      </trkpt>
      <trkpt lat="41.213667" lon="-4.325100">
        <ele>2221.0</ele>
        <time>2016-07-12T16:04:03Z</time>
      </trkpt>
      <trkpt lat="41.213667" lon="-4.325200">
        <ele>2222.0</ele>
        <time>2016-07-12T16:04:04Z</time>
      </trkpt>
      <trkpt lat="41.213700" lon="-4.325283">
        <ele>2222.0</ele>
        <time>2016-07-12T16:04:05Z</time>
      </trkpt>
      <trkpt lat="41.213733" lon="-4.325367">
        <ele>2223.0</ele>
        <time>2016-07-12T16:04:06Z</time>
      </trkpt>
      <trkpt lat="41.213783" lon="-4.325417">
        <ele>2223.0</ele>
        <time>2016-07-12T16:04:07Z</time>
      </trkpt>
      <trkpt lat="41.213833" lon="-4.325450">
        <ele>2223.0</ele>
        <time>2016-07-12T16:04:08Z</time>
      </trkpt>
      <trkpt lat="41.213900" lon="-4.325467">
        <ele>2224.0</ele>
        <time>2016-07-12T16:04:09Z</time>
      </trkpt>
      <trkpt lat="41.213967" lon="-4.325467">
        <ele>2224.0</ele>
        <time>2016-07-12T16:04:10Z</time>
      </trkpt>
      <trkpt lat="41.214017" lon="-4.325467">
        <ele>2225.0</ele>
        <time>2016-07-12T16:04:11Z</time>
      </trkpt>
      <trkpt lat="41.214083" lon="-4.325433">
        <ele>2226.0</ele>
        <time>2016-07-12T16:04:12Z</time>
      </trkpt>
      <trkpt lat="41.214133" lon="-4.325383">
        <ele>2226.0</ele>
        <time>2016-07-12T16:04:13Z</time>
      </trkpt>
      <trkpt lat="41.214167" lon="-4.325317">
        <ele>2227.0</ele>
        <time>2016-07-12T16:04:14Z</time>
      </trkpt>
      <trkpt lat="41.214217" lon="-4.325250">
        <ele>2228.0</ele>
        <time>2016-07-12T16:04:15Z</time>
      </trkpt>
      <trkpt lat="41.214250" lon="-4.325183">
        <ele>2229.0</ele>
        <time>2016-07-12T16:04:16Z</time>
      </trkpt>
      <trkpt lat="41.214283" lon="-4.325100">
        <ele>2229.0</ele>
        <time>2016-07-12T16:04:17Z</time>
      </trkpt>
      <trkpt lat="41.214283" lon="-4.325000">
        <ele>2228.0</ele>
        <time>2016-07-12T16:04:18Z</time>
      </trkpt>
      <trkpt lat="41.214283" lon="-4.324883">
        <ele>2228.0</ele>
        <time>2016-07-12T16:04:19Z</time>
      </trkpt>
      <trkpt lat="41.214267" lon="-4.324767">
        <ele>2228.0</ele>
        <time>2016-07-12T16:04:20Z</time>
      </trkpt>
      <trkpt lat="41.214267" lon="-4.324650">
        <ele>2228.0</ele>
        <time>2016-07-12T16:04:21Z</time>
      </trkpt>
      <trkpt lat="41.214250" lon="-4.324533">
        <ele>2228.0</ele>
        <time>2016-07-12T16:04:22Z</time>
      </trkpt>
      <trkpt lat="41.214233" lon="-4.324417">
        <ele>2227.0</ele>
        <time>2016-07-12T16:04:23Z</time>
      </trkpt>
      <trkpt lat="41.214200" lon="-4.324300">
        <ele>2227.0</ele>
        <time>2016-07-12T16:04:24Z</time>
      </trkpt>
      <trkpt lat="41.214150" lon="-4.324167">
        <ele>2227.0</ele>
        <time>2016-07-12T16:04:25Z</time>
      </trkpt>
      <trkpt lat="41.214083" lon="-4.324033">
        <ele>2227.0</ele>
        <time>2016-07-12T16:04:26Z</time>
      </trkpt>
      <trkpt lat="41.214033" lon="-4.323900">
        <ele>2227.0</ele>
        <time>2016-07-12T16:04:27Z</time>
      </trkpt>
      <trkpt lat="41.213983" lon="-4.323767">
        <ele>2228.0</ele>
        <time>2016-07-12T16:04:28Z</time>
      </trkpt>
      <trkpt lat="41.213933" lon="-4.323633">
        <ele>2228.0</ele>
        <time>2016-07-12T16:04:29Z</time>
      </trkpt>
      <trkpt lat="41.213900" lon="-4.323500">
        <ele>2229.0</ele>
        <time>2016-07-12T16:04:30Z</time>
      </trkpt>
      <trkpt lat="41.213850" lon="-4.323367">
        <ele>2229.0</ele>
        <time>2016-07-12T16:04:31Z</time>
      </trkpt>
      <trkpt lat="41.213817" lon="-4.323233">
        <ele>2230.0</ele>
        <time>2016-07-12T16:04:32Z</time>
      </trkpt>
      <trkpt lat="41.213783" lon="-4.323100">
        <ele>2231.0</ele>
        <time>2016-07-12T16:04:33Z</time>
      </trkpt>
      <trkpt lat="41.213733" lon="-4.322950">
        <ele>2233.0</ele>
        <time>2016-07-12T16:04:34Z</time>
      </trkpt>
      <trkpt lat="41.213700" lon="-4.322833">
        <ele>2235.0</ele>
        <time>2016-07-12T16:04:35Z</time>
      </trkpt>
      <trkpt lat="41.213667" lon="-4.322700">
        <ele>2237.0</ele>
        <time>2016-07-12T16:04:36Z</time>
      </trkpt>
      <trkpt lat="41.213633" lon="-4.322583">
        <ele>2238.0</ele>
        <time>2016-07-12T16:04:37Z</time>
      </trkpt>
      <trkpt lat="41.213600" lon="-4.322450">
        <ele>2240.0</ele>
        <time>2016-07-12T16:04:38Z</time>
      </trkpt>
      <trkpt lat="41.213550" lon="-4.322333">
        <ele>2242.0</ele>
        <time>2016-07-12T16:04:39Z</time>
      </trkpt>
      <trkpt lat="41.213517" lon="-4.322200">
        <ele>2246.0</ele>
        <time>2016-07-12T16:04:40Z</time>
      </trkpt>
      <trkpt lat="41.213483" lon="-4.322083">
        <ele>2249.0</ele>
        <time>2016-07-12T16:04:41Z</time>
      </trkpt>
      <trkpt lat="41.213450" lon="-4.321983">
        <ele>2253.0</ele>
        <time>2016-07-12T16:04:42Z</time>
      </trkpt>
      <trkpt lat="41.213417" lon="-4.321883">
        <ele>2256.0</ele>
        <time>2016-07-12T16:04:43Z</time>
      </trkpt>
      <trkpt lat="41.213367" lon="-4.321800">
        <ele>2259.0</ele>
        <time>2016-07-12T16:04:44Z</time>
      </trkpt>
      <trkpt lat="41.213300" lon="-4.321700">
        <ele>2261.0</ele>
        <time>2016-07-12T16:04:45Z</time>
      </trkpt>
      <trkpt lat="41.213217" lon="-4.321600">
        <ele>2265.0</ele>
        <time>2016-07-12T16:04:46Z</time>
      </trkpt>
      <trkpt lat="41.213117" lon="-4.321517">
        <ele>2269.0</ele>
        <time>2016-07-12T16:04:47Z</time>
      </trkpt>
      <trkpt lat="41.213017" lon="-4.321467">
        <ele>2274.0</ele>
        <time>2016-07-12T16:04:48Z</time>
      </trkpt>
      <trkpt lat="41.212917" lon="-4.321417">
        <ele>2278.0</ele>
        <time>2016-07-12T16:04:49Z</time>
      </trkpt>
      <trkpt lat="41.212817" lon="-4.321367">
        <ele>2281.0</ele>
        <time>2016-07-12T16:04:50Z</time>
      </trkpt>
      <trkpt lat="41.212700" lon="-4.321333">
        <ele>2284.0</ele>
        <time>2016-07-12T16:04:51Z</time>
      </trkpt>
      <trkpt lat="41.212567" lon="-4.321317">
        <ele>2287.0</ele>
        <time>2016-07-12T16:04:52Z</time>
      </trkpt>
      <trkpt lat="41.212450" lon="-4.321333">
        <ele>2290.0</ele>
        <time>2016-07-12T16:04:53Z</time>
      </trkpt>
      <trkpt lat="41.212333" lon="-4.321367">
        <ele>2293.0</ele>
        <time>2016-07-12T16:04:54Z</time>
      </trkpt>
      <trkpt lat="41.212233" lon="-4.321417">
        <ele>2297.0</ele>
        <time>2016-07-12T16:04:55Z</time>
      </trkpt>
      <trkpt lat="41.212133" lon="-4.321467">
        <ele>2300.0</ele>
        <time>2016-07-12T16:04:56Z</time>
      </trkpt>
      <trkpt lat="41.212033" lon="-4.321517">
        <ele>2303.0</ele>
        <time>2016-07-12T16:04:57Z</time>
      </trkpt>
      <trkpt lat="41.211933" lon="-4.321583">
        <ele>2305.0</ele>
        <time>2016-07-12T16:04:58Z</time>
      </trkpt>
      <trkpt lat="41.211850" lon="-4.321667">
        <ele>2307.0</ele>
        <time>2016-07-12T16:04:59Z</time>
      </trkpt>
      <trkpt lat="41.211783" lon="-4.321767">
        <ele>2310.0</ele>
        <time>2016-07-12T16:05:00Z</time>
      </trkpt>
      <trkpt lat="41.211733" lon="-4.321883">
        <ele>2312.0</ele>
        <time>2016-07-12T16:05:01Z</time>
      </trkpt>
      <trkpt lat="41.211683" lon="-4.321983">
        <ele>2315.0</ele>
        <time>2016-07-12T16:05:02Z</time>
      </trkpt>
      <trkpt lat="41.211650" lon="-4.322067">
        <ele>2316.0</ele>
        <time>2016-07-12T16:05:03Z</time>
      </trkpt>
      <trkpt lat="41.211633" lon="-4.322150">
        <ele>2318.0</ele>
        <time>2016-07-12T16:05:04Z</time>
      </trkpt>
      <trkpt lat="41.211633" lon="-4.322233">
        <ele>2318.0</ele>
        <time>2016-07-12T16:05:05Z</time>
      </trkpt>
      <trkpt lat="41.211650" lon="-4.322317">
        <ele>2319.0</ele>
        <time>2016-07-12T16:05:06Z</time>
      </trkpt>
      <trkpt lat="41.211683" lon="-4.322383">
        <ele>2320.0</ele>
        <time>2016-07-12T16:05:07Z</time>
      </trkpt>
      <trkpt lat="41.211733" lon="-4.322417">
        <ele>2321.0</ele>
        <time>2016-07-12T16:05:08Z</time>
      </trkpt>
      <trkpt lat="41.211783" lon="-4.322417">
        <ele>2323.0</ele>
        <time>2016-07-12T16:05:09Z</time>
      </trkpt>
      <trkpt lat="41.211850" lon="-4.322417">
        <ele>2324.0</ele>
        <time>2016-07-12T16:05:10Z</time>
      </trkpt>
      <trkpt lat="41.211900" lon="-4.322400">
        <ele>2325.0</ele>
        <time>2016-07-12T16:05:11Z</time>
      </trkpt>
      <trkpt lat="41.211967" lon="-4.322367">
        <ele>2327.0</ele>
        <time>2016-07-12T16:05:12Z</time>
      </trkpt>
      <trkpt lat="41.212017" lon="-4.322317">
        <ele>2327.0</ele>
        <time>2016-07-12T16:05:13Z</time>
      </trkpt>
      <trkpt lat="41.212050" lon="-4.322250">
        <ele>2326.0</ele>
        <time>2016-07-12T16:05:14Z</time>
      </trkpt>
      <trkpt lat="41.212100" lon="-4.322167">
        <ele>2326.0</ele>
        <time>2016-07-12T16:05:15Z</time>
      </trkpt>
      <trkpt lat="41.212150" lon="-4.322067">
        <ele>2326.0</ele>
        <time>2016-07-12T16:05:16Z</time>
      </trkpt>
      <trkpt lat="41.212167" lon="-4.321967">
        <ele>2326.0</ele>
        <time>2016-07-12T16:05:17Z</time>
      </trkpt>
      <trkpt lat="41.212167" lon="-4.321833">
        <ele>2325.0</ele>
        <time>2016-07-12T16:05:18Z</time>
      </trkpt>
      <trkpt lat="41.212133" lon="-4.321683">
        <ele>2326.0</ele>
        <time>2016-07-12T16:05:19Z</time>
      </trkpt>
      <trkpt lat="41.212117" lon="-4.321550">
        <ele>2328.0</ele>
        <time>2016-07-12T16:05:20Z</time>
      </trkpt>
      <trkpt lat="41.212083" lon="-4.321433">
        <ele>2330.0</ele>
        <time>2016-07-12T16:05:21Z</time>
      </trkpt>
      <trkpt lat="41.212033" lon="-4.321300">
        <ele>2334.0</ele>
        <time>2016-07-12T16:05:22Z</time>
      </trkpt>
      <trkpt lat="41.211983" lon="-4.321183">
        <ele>2338.0</ele>
        <time>2016-07-12T16:05:23Z</time>
      </trkpt>
      <trkpt lat="41.211933" lon="-4.321083">
        <ele>2341.0</ele>
        <time>2016-07-12T16:05:24Z</time>
      </trkpt>
      <trkpt lat="41.211883" lon="-4.320983">
        <ele>2345.0</ele>
        <time>2016-07-12T16:05:25Z</time>
      </trkpt>
      <trkpt lat="41.211833" lon="-4.320900">
        <ele>2348.0</ele>
        <time>2016-07-12T16:05:26Z</time>
      </trkpt>
      <trkpt lat="41.211783" lon="-4.320817">
        <ele>2350.0</ele>
        <time>2016-07-12T16:05:27Z</time>
      </trkpt>
      <trkpt lat="41.211717" lon="-4.320733">
        <ele>2350.0</ele>
        <time>2016-07-12T16:05:28Z</time>
      </trkpt>
      <trkpt lat="41.211650" lon="-4.320650">
        <ele>2351.0</ele>
        <time>2016-07-12T16:05:29Z</time>
      </trkpt>
      <trkpt lat="41.211550" lon="-4.320550">
        <ele>2351.0</ele>
        <time>2016-07-12T16:05:30Z</time>
      </trkpt>
      <trkpt lat="41.211450" lon="-4.320450">
        <ele>2353.0</ele>
        <time>2016-07-12T16:05:31Z</time>
      </trkpt>
      <trkpt lat="41.211350" lon="-4.320367">
        <ele>2355.0</ele>
        <time>2016-07-12T16:05:32Z</time>
      </trkpt>
      <trkpt lat="41.211233" lon="-4.320283">
        <ele>2358.0</ele>
        <time>2016-07-12T16:05:33Z</time>
      </trkpt>
      <trkpt lat="41.211133" lon="-4.320217">
        <ele>2361.0</ele>
        <time>2016-07-12T16:05:34Z</time>
      </trkpt>
      <trkpt lat="41.211033" lon="-4.320117">
        <ele>2365.0</ele>
        <time>2016-07-12T16:05:35Z</time>
      </trkpt>
      <trkpt lat="41.210950" lon="-4.320017">
        <ele>2369.0</ele>
        <time>2016-07-12T16:05:36Z</time>
      </trkpt>
      <trkpt lat="41.210850" lon="-4.319933">
        <ele>2373.0</ele>
        <time>2016-07-12T16:05:37Z</time>
      </trkpt>
      <trkpt lat="41.210750" lon="-4.319867">
        <ele>2377.0</ele>
        <time>2016-07-12T16:05:38Z</time>
      </trkpt>
      <trkpt lat="41.210650" lon="-4.319817">
        <ele>2380.0</ele>
        <time>2016-07-12T16:05:39Z</time>
      </trkpt>
      <trkpt lat="41.210533" lon="-4.319783">
        <ele>2382.0</ele>
        <time>2016-07-12T16:05:40Z</time>
      </trkpt>
      <trkpt lat="41.210417" lon="-4.319750">
        <ele>2384.0</ele>
        <time>2016-07-12T16:05:41Z</time>
      </trkpt>
      <trkpt lat="41.210300" lon="-4.319733">
        <ele>2386.0</ele>
        <time>2016-07-12T16:05:42Z</time>
      </trkpt>
      <trkpt lat="41.210167" lon="-4.319717">
        <ele>2389.0</ele>
        <time>2016-07-12T16:05:43Z</time>
      </trkpt>
      <trkpt lat="41.210067" lon="-4.319717">
        <ele>2394.0</ele>
        <time>2016-07-12T16:05:44Z</time>
      </trkpt>
      <trkpt lat="41.209967" lon="-4.319717">
        <ele>2398.0</ele>
        <time>2016-07-12T16:05:45Z</time>
      </trkpt>
      <trkpt lat="41.209867" lon="-4.319717">
        <ele>2402.0</ele>
        <time>2016-07-12T16:05:46Z</time>
      </trkpt>
      <trkpt lat="41.209767" lon="-4.319717">
        <ele>2405.0</ele>
        <time>2016-07-12T16:05:47Z</time>
      </trkpt>
      <trkpt lat="41.209667" lon="-4.319750">
        <ele>2408.0</ele>
        <time>2016-07-12T16:05:48Z</time>
      </trkpt>
      <trkpt lat="41.209567" lon="-4.319800">
        <ele>2410.0</ele>
        <time>2016-07-12T16:05:49Z</time>
      </trkpt>
      <trkpt lat="41.209483" lon="-4.319867">
        <ele>2414.0</ele>
        <time>2016-07-12T16:05:50Z</time>
      </trkpt>
      <trkpt lat="41.209433" lon="-4.319967">
        <ele>2416.0</ele>
        <time>2016-07-12T16:05:51Z</time>
      </trkpt>
      <trkpt lat="41.209400" lon="-4.320067">
        <ele>2419.0</ele>
        <time>2016-07-12T16:05:52Z</time>
      </trkpt>
      <trkpt lat="41.209367" lon="-4.320183">
        <ele>2423.0</ele>
        <time>2016-07-12T16:05:53Z</time>
      </trkpt>
      <trkpt lat="41.209367" lon="-4.320267">
        <ele>2426.0</ele>
        <time>2016-07-12T16:05:54Z</time>
      </trkpt>
      <trkpt lat="41.209367" lon="-4.320350">
        <ele>2428.0</ele>
        <time>2016-07-12T16:05:55Z</time>
      </trkpt>
      <trkpt lat="41.209383" lon="-4.320400">
        <ele>2430.0</ele>
        <time>2016-07-12T16:05:56Z</time>
      </trkpt>
      <trkpt lat="41.209417" lon="-4.320450">
        <ele>2430.0</ele>
        <time>2016-07-12T16:05:57Z</time>
      </trkpt>
      <trkpt lat="41.209467" lon="-4.320483">
        <ele>2431.0</ele>
        <time>2016-07-12T16:05:58Z</time>
      </trkpt>
      <trkpt lat="41.209533" lon="-4.320500">
        <ele>2432.0</ele>
        <time>2016-07-12T16:05:59Z</time>
      </trkpt>
      <trkpt lat="41.209583" lon="-4.320483">
        <ele>2435.0</ele>
        <time>2016-07-12T16:06:00Z</time>
      </trkpt>
      <trkpt lat="41.209633" lon="-4.320433">
        <ele>2438.0</ele>
        <time>2016-07-12T16:06:01Z</time>
      </trkpt>
      <trkpt lat="41.209650" lon="-4.320383">
        <ele>2441.0</ele>
        <time>2016-07-12T16:06:02Z</time>
      </trkpt>
      <trkpt lat="41.209683" lon="-4.320333">
        <ele>2443.0</ele>
        <time>2016-07-12T16:06:03Z</time>
      </trkpt>
      <trkpt lat="41.209700" lon="-4.320267">
        <ele>2445.0</ele>
        <time>2016-07-12T16:06:04Z</time>
      </trkpt>
      <trkpt lat="41.209717" lon="-4.320183">
        <ele>2446.0</ele>
        <time>2016-07-12T16:06:05Z</time>
      </trkpt>
      <trkpt lat="41.209733" lon="-4.320083">
        <ele>2448.0</ele>
        <time>2016-07-12T16:06:06Z</time>
      </trkpt>
      <trkpt lat="41.209733" lon="-4.319967">
        <ele>2450.0</ele>
        <time>2016-07-12T16:06:07Z</time>
      </trkpt>
      <trkpt lat="41.209700" lon="-4.319850">
        <ele>2452.0</ele>
        <time>2016-07-12T16:06:08Z</time>
      </trkpt>
      <trkpt lat="41.209667" lon="-4.319733">
        <ele>2455.0</ele>
        <time>2016-07-12T16:06:09Z</time>
      </trkpt>
      <trkpt lat="41.209633" lon="-4.319633">
        <ele>2457.0</ele>
        <time>2016-07-12T16:06:10Z</time>
      </trkpt>
      <trkpt lat="41.209583" lon="-4.319517">
        <ele>2459.0</ele>
        <time>2016-07-12T16:06:11Z</time>
      </trkpt>
      <trkpt lat="41.209533" lon="-4.319400">
        <ele>2461.0</ele>
        <time>2016-07-12T16:06:12Z</time>
      </trkpt>
      <trkpt lat="41.209483" lon="-4.319283">
        <ele>2463.0</ele>
        <time>2016-07-12T16:06:13Z</time>
      </trkpt>
      <trkpt lat="41.209417" lon="-4.319183">
        <ele>2465.0</ele>
        <time>2016-07-12T16:06:14Z</time>
      </trkpt>
      <trkpt lat="41.209350" lon="-4.319083">
        <ele>2467.0</ele>
        <time>2016-07-12T16:06:15Z</time>
      </trkpt>
      <trkpt lat="41.209267" lon="-4.319000">
        <ele>2468.0</ele>
        <time>2016-07-12T16:06:16Z</time>
      </trkpt>
      <trkpt lat="41.209167" lon="-4.318900">
        <ele>2469.0</ele>
        <time>2016-07-12T16:06:17Z</time>
      </trkpt>
      <trkpt lat="41.209067" lon="-4.318817">
        <ele>2471.0</ele>
        <time>2016-07-12T16:06:18Z</time>
      </trkpt>
      <trkpt lat="41.208967" lon="-4.318750">
        <ele>2474.0</ele>
        <time>2016-07-12T16:06:19Z</time>
      </trkpt>
      <trkpt lat="41.208867" lon="-4.318700">
        <ele>2477.0</ele>
        <time>2016-07-12T16:06:20Z</time>
      </trkpt>
      <trkpt lat="41.208767" lon="-4.318650">
        <ele>2480.0</ele>
        <time>2016-07-12T16:06:21Z</time>
      </trkpt>
      <trkpt lat="41.208667" lon="-4.318633">
        <ele>2482.0</ele>
        <time>2016-07-12T16:06:22Z</time>
      </trkpt>
      <trkpt lat="41.208550" lon="-4.318617">
        <ele>2484.0</ele>
        <time>2016-07-12T16:06:23Z</time>
      </trkpt>
      <trkpt lat="41.208433" lon="-4.318650">
        <ele>2487.0</ele>
        <time>2016-07-12T16:06:24Z</time>
      </trkpt>
      <trkpt lat="41.208333" lon="-4.318683">
        <ele>2490.0</ele>
        <time>2016-07-12T16:06:25Z</time>
      </trkpt>
      <trkpt lat="41.208250" lon="-4.318733">
        <ele>2494.0</ele>
        <time>2016-07-12T16:06:26Z</time>
      </trkpt>
      <trkpt lat="41.208150" lon="-4.318783">
        <ele>2497.0</ele>
        <time>2016-07-12T16:06:27Z</time>
      </trkpt>
      <trkpt lat="41.208067" lon="-4.318833">
        <ele>2500.0</ele>
        <time>2016-07-12T16:06:28Z</time>
      </trkpt>
      <trkpt lat="41.207967" lon="-4.318883">
        <ele>2501.0</ele>
        <time>2016-07-12T16:06:29Z</time>
      </trkpt>
      <trkpt lat="41.207850" lon="-4.318967">
        <ele>2503.0</ele>
        <time>2016-07-12T16:06:30Z</time>
      </trkpt>
      <trkpt lat="41.207767" lon="-4.319050">
        <ele>2506.0</ele>
        <time>2016-07-12T16:06:31Z</time>
      </trkpt>
      <trkpt lat="41.207683" lon="-4.319150">
        <ele>2509.0</ele>
        <time>2016-07-12T16:06:32Z</time>
      </trkpt>
      <trkpt lat="41.207617" lon="-4.319267">
        <ele>2512.0</ele>
        <time>2016-07-12T16:06:33Z</time>
      </trkpt>
      <trkpt lat="41.207550" lon="-4.319383">
        <ele>2515.0</ele>
        <time>2016-07-12T16:06:34Z</time>
      </trkpt>
      <trkpt lat="41.207500" lon="-4.319500">
        <ele>2518.0</ele>
        <time>2016-07-12T16:06:35Z</time>
      </trkpt>
      <trkpt lat="41.207433" lon="-4.319600">
        <ele>2520.0</ele>
        <time>2016-07-12T16:06:36Z</time>
      </trkpt>
      <trkpt lat="41.207400" lon="-4.319717">
        <ele>2522.0</ele>
        <time>2016-07-12T16:06:37Z</time>
      </trkpt>
      <trkpt lat="41.207383" lon="-4.319833">
        <ele>2523.0</ele>
        <time>2016-07-12T16:06:38Z</time>
      </trkpt>
      <trkpt lat="41.207367" lon="-4.319950">
        <ele>2523.0</ele>
        <time>2016-07-12T16:06:39Z</time>
      </trkpt>
      <trkpt lat="41.207383" lon="-4.320067">
        <ele>2524.0</ele>
        <time>2016-07-12T16:06:40Z</time>
      </trkpt>
      <trkpt lat="41.207400" lon="-4.320167">
        <ele>2526.0</ele>
        <time>2016-07-12T16:06:41Z</time>
      </trkpt>
      <trkpt lat="41.207433" lon="-4.320267">
        <ele>2528.0</ele>
        <time>2016-07-12T16:06:42Z</time>
      </trkpt>
      <trkpt lat="41.207450" lon="-4.320367">
        <ele>2529.0</ele>
        <time>2016-07-12T16:06:43Z</time>
      </trkpt>
      <trkpt lat="41.207483" lon="-4.320450">
        <ele>2530.0</ele>
        <time>2016-07-12T16:06:44Z</time>
      </trkpt>
      <trkpt lat="41.207517" lon="-4.320517">
        <ele>2531.0</ele>
        <time>2016-07-12T16:06:45Z</time>
      </trkpt>
      <trkpt lat="41.207550" lon="-4.320567">
        <ele>2532.0</ele>
        <time>2016-07-12T16:06:46Z</time>
      </trkpt>
      <trkpt lat="41.207600" lon="-4.320583">
        <ele>2531.0</ele>
        <time>2016-07-12T16:06:47Z</time>
      </trkpt>
      <trkpt lat="41.207633" lon="-4.320567">
        <ele>2530.0</ele>
        <time>2016-07-12T16:06:48Z</time>
      </trkpt>
      <trkpt lat="41.207683" lon="-4.320550">
        <ele>2528.0</ele>
        <time>2016-07-12T16:06:49Z</time>
      </trkpt>
      <trkpt lat="41.207733" lon="-4.320483">
        <ele>2528.0</ele>
        <time>2016-07-12T16:06:50Z</time>
      </trkpt>
      <trkpt lat="41.207767" lon="-4.320417">
        <ele>2528.0</ele>
        <time>2016-07-12T16:06:51Z</time>
      </trkpt>
      <trkpt lat="41.207783" lon="-4.320333">
        <ele>2528.0</ele>
        <time>2016-07-12T16:06:52Z</time>
      </trkpt>
      <trkpt lat="41.207800" lon="-4.320233">
        <ele>2527.0</ele>
        <time>2016-07-12T16:06:53Z</time>
      </trkpt>
      <trkpt lat="41.207800" lon="-4.320133">
        <ele>2527.0</ele>
        <time>2016-07-12T16:06:54Z</time>
      </trkpt>
      <trkpt lat="41.207767" lon="-4.320000">
        <ele>2526.0</ele>
        <time>2016-07-12T16:06:55Z</time>
      </trkpt>
      <trkpt lat="41.207733" lon="-4.319883">
        <ele>2526.0</ele>
        <time>2016-07-12T16:06:56Z</time>
      </trkpt>
      <trkpt lat="41.207683" lon="-4.319767">
        <ele>2526.0</ele>
        <time>2016-07-12T16:06:57Z</time>
      </trkpt>
      <trkpt lat="41.207617" lon="-4.319667">
        <ele>2527.0</ele>
        <time>2016-07-12T16:06:58Z</time>
      </trkpt>
      <trkpt lat="41.207567" lon="-4.319567">
        <ele>2528.0</ele>
        <time>2016-07-12T16:06:59Z</time>
      </trkpt>
      <trkpt lat="41.207500" lon="-4.319467">
        <ele>2528.0</ele>
        <time>2016-07-12T16:07:00Z</time>
      </trkpt>
      <trkpt lat="41.207417" lon="-4.319350">
        <ele>2528.0</ele>
        <time>2016-07-12T16:07:01Z</time>
      </trkpt>
      <trkpt lat="41.207333" lon="-4.319250">
        <ele>2528.0</ele>
        <time>2016-07-12T16:07:02Z</time>
      </trkpt>
      <trkpt lat="41.207233" lon="-4.319167">
        <ele>2529.0</ele>
        <time>2016-07-12T16:07:03Z</time>
      </trkpt>
      <trkpt lat="41.207150" lon="-4.319067">
        <ele>2531.0</ele>
        <time>2016-07-12T16:07:04Z</time>
      </trkpt>
      <trkpt lat="41.207050" lon="-4.318983">
        <ele>2532.0</ele>
        <time>2016-07-12T16:07:05Z</time>
      </trkpt>
      <trkpt lat="41.206950" lon="-4.318883">
        <ele>2533.0</ele>
        <time>2016-07-12T16:07:06Z</time>
      </trkpt>
      <trkpt lat="41.206833" lon="-4.318800">
        <ele>2535.0</ele>
        <time>2016-07-12T16:07:07Z</time>
      </trkpt>
      <trkpt lat="41.206733" lon="-4.318700">
        <ele>2536.0</ele>
        <time>2016-07-12T16:07:08Z</time>
      </trkpt>
      <trkpt lat="41.206633" lon="-4.318633">
        <ele>2539.0</ele>
        <time>2016-07-12T16:07:09Z</time>
      </trkpt>
      <trkpt lat="41.206517" lon="-4.318550">
        <ele>2541.0</ele>
        <time>2016-07-12T16:07:10Z</time>
      </trkpt>
      <trkpt lat="41.206417" lon="-4.318500">
        <ele>2544.0</ele>
        <time>2016-07-12T16:07:11Z</time>
      </trkpt>
      <trkpt lat="41.206317" lon="-4.318450">
        <ele>2548.0</ele>
        <time>2016-07-12T16:07:12Z</time>
      </trkpt>
      <trkpt lat="41.206217" lon="-4.318400">
        <ele>2553.0</ele>
        <time>2016-07-12T16:07:13Z</time>
      </trkpt>
      <trkpt lat="41.206117" lon="-4.318367">
        <ele>2557.0</ele>
        <time>2016-07-12T16:07:14Z</time>
      </trkpt>
      <trkpt lat="41.206033" lon="-4.318333">
        <ele>2560.0</ele>
        <time>2016-07-12T16:07:15Z</time>
      </trkpt>
      <trkpt lat="41.205917" lon="-4.318300">
        <ele>2562.0</ele>
        <time>2016-07-12T16:07:16Z</time>
      </trkpt>
      <trkpt lat="41.205800" lon="-4.318267">
        <ele>2565.0</ele>
        <time>2016-07-12T16:07:17Z</time>
      </trkpt>
      <trkpt lat="41.205683" lon="-4.318250">
        <ele>2568.0</ele>
        <time>2016-07-12T16:07:18Z</time>
      </trkpt>
      <trkpt lat="41.205567" lon="-4.318233">
        <ele>2572.0</ele>
        <time>2016-07-12T16:07:19Z</time>
      </trkpt>
      <trkpt lat="41.205467" lon="-4.318250">
        <ele>2575.0</ele>
        <time>2016-07-12T16:07:20Z</time>
      </trkpt>
      <trkpt lat="41.205350" lon="-4.318267">
        <ele>2578.0</ele>
        <time>2016-07-12T16:07:21Z</time>
      </trkpt>
      <trkpt lat="41.205233" lon="-4.318300">
        <ele>2580.0</ele>
        <time>2016-07-12T16:07:22Z</time>
      </trkpt>
      <trkpt lat="41.205117" lon="-4.318350">
        <ele>2582.0</ele>
        <time>2016-07-12T16:07:23Z</time>
      </trkpt>
      <trkpt lat="41.205000" lon="-4.318400">
        <ele>2584.0</ele>
        <time>2016-07-12T16:07:24Z</time>
      </trkpt>
      <trkpt lat="41.204883" lon="-4.318450">
        <ele>2586.0</ele>
        <time>2016-07-12T16:07:25Z</time>
      </trkpt>
      <trkpt lat="41.204767" lon="-4.318533">
        <ele>2588.0</ele>
        <time>2016-07-12T16:07:26Z</time>
      </trkpt>
      <trkpt lat="41.204667" lon="-4.318617">
        <ele>2590.0</ele>
        <time>2016-07-12T16:07:27Z</time>
      </trkpt>
      <trkpt lat="41.204583" lon="-4.318717">
        <ele>2591.0</ele>
        <time>2016-07-12T16:07:28Z</time>
      </trkpt>
      <trkpt lat="41.204500" lon="-4.318817">
        <ele>2592.0</ele>
        <time>2016-07-12T16:07:29Z</time>
      </trkpt>
      <trkpt lat="41.204417" lon="-4.318933">
        <ele>2594.0</ele>
        <time>2016-07-12T16:07:30Z</time>
      </trkpt>
      <trkpt lat="41.204333" lon="-4.319067">
        <ele>2594.0</ele>
        <time>2016-07-12T16:07:31Z</time>
      </trkpt>
      <trkpt lat="41.204283" lon="-4.319183">
        <ele>2596.0</ele>
        <time>2016-07-12T16:07:32Z</time>
      </trkpt>
      <trkpt lat="41.204217" lon="-4.319317">
        <ele>2597.0</ele>
        <time>2016-07-12T16:07:33Z</time>
      </trkpt>
      <trkpt lat="41.204167" lon="-4.319433">
        <ele>2599.0</ele>
        <time>2016-07-12T16:07:34Z</time>
      </trkpt>
      <trkpt lat="41.204117" lon="-4.319550">
        <ele>2602.0</ele>
        <time>2016-07-12T16:07:35Z</time>
      </trkpt>
      <trkpt lat="41.204067" lon="-4.319667">
        <ele>2605.0</ele>
        <time>2016-07-12T16:07:36Z</time>
      </trkpt>
      <trkpt lat="41.204017" lon="-4.319767">
        <ele>2606.0</ele>
        <time>2016-07-12T16:07:37Z</time>
      </trkpt>
      <trkpt lat="41.203967" lon="-4.319867">
        <ele>2607.0</ele>
        <time>2016-07-12T16:07:38Z</time>
      </trkpt>
      <trkpt lat="41.203933" lon="-4.319983">
        <ele>2608.0</ele>
        <time>2016-07-12T16:07:39Z</time>
      </trkpt>
      <trkpt lat="41.203933" lon="-4.320100">
        <ele>2609.0</ele>
        <time>2016-07-12T16:07:40Z</time>
      </trkpt>
      <trkpt lat="41.203933" lon="-4.320200">
        <ele>2610.0</ele>
        <time>2016-07-12T16:07:41Z</time>
      </trkpt>
      <trkpt lat="41.203967" lon="-4.320300">
        <ele>2610.0</ele>
        <time>2016-07-12T16:07:42Z</time>
      </trkpt>
      <trkpt lat="41.204000" lon="-4.320367">
        <ele>2610.0</ele>
        <time>2016-07-12T16:07:43Z</time>
      </trkpt>
      <trkpt lat="41.204050" lon="-4.320417">
        <ele>2611.0</ele>
        <time>2016-07-12T16:07:44Z</time>
      </trkpt>
      <trkpt lat="41.204083" lon="-4.320433">
        <ele>2612.0</ele>
        <time>2016-07-12T16:07:45Z</time>
      </trkpt>
      <trkpt lat="41.204133" lon="-4.320433">
        <ele>2612.0</ele>
        <time>2016-07-12T16:07:46Z</time>
      </trkpt>
      <trkpt lat="41.204167" lon="-4.320383">
        <ele>2612.0</ele>
        <time>2016-07-12T16:07:47Z</time>
      </trkpt>
      <trkpt lat="41.204200" lon="-4.320317">
        <ele>2613.0</ele>
        <time>2016-07-12T16:07:48Z</time>
      </trkpt>
      <trkpt lat="41.204217" lon="-4.320233">
        <ele>2613.0</ele>
        <time>2016-07-12T16:07:49Z</time>
      </trkpt>
      <trkpt lat="41.204217" lon="-4.320150">
        <ele>2613.0</ele>
        <time>2016-07-12T16:07:50Z</time>
      </trkpt>
      <trkpt lat="41.204217" lon="-4.320050">
        <ele>2612.0</ele>
        <time>2016-07-12T16:07:51Z</time>
      </trkpt>
      <trkpt lat="41.204217" lon="-4.319933">
        <ele>2611.0</ele>
        <time>2016-07-12T16:07:52Z</time>
      </trkpt>
      <trkpt lat="41.204183" lon="-4.319817">
        <ele>2610.0</ele>
        <time>2016-07-12T16:07:53Z</time>
      </trkpt>
      <trkpt lat="41.204133" lon="-4.319700">
        <ele>2610.0</ele>
        <time>2016-07-12T16:07:54Z</time>
      </trkpt>
      <trkpt lat="41.204050" lon="-4.319600">
        <ele>2610.0</ele>
        <time>2016-07-12T16:07:55Z</time>
      </trkpt>
      <trkpt lat="41.203950" lon="-4.319533">
        <ele>2611.0</ele>
        <time>2016-07-12T16:07:56Z</time>
      </trkpt>
      <trkpt lat="41.203850" lon="-4.319467">
        <ele>2613.0</ele>
        <time>2016-07-12T16:07:57Z</time>
      </trkpt>
      <trkpt lat="41.203750" lon="-4.319383">
        <ele>2614.0</ele>
        <time>2016-07-12T16:07:58Z</time>
      </trkpt>
      <trkpt lat="41.203650" lon="-4.319300">
        <ele>2615.0</ele>
        <time>2016-07-12T16:07:59Z</time>
      </trkpt>
      <trkpt lat="41.203550" lon="-4.319233">
        <ele>2616.0</ele>
        <time>2016-07-12T16:08:00Z</time>
      </trkpt>
      <trkpt lat="41.203450" lon="-4.319167">
        <ele>2618.0</ele>
        <time>2016-07-12T16:08:01Z</time>
      </trkpt>
      <trkpt lat="41.203350" lon="-4.319117">
        <ele>2618.0</ele>
        <time>2016-07-12T16:08:02Z</time>
      </trkpt>
      <trkpt lat="41.203233" lon="-4.319083">
        <ele>2618.0</ele>
        <time>2016-07-12T16:08:03Z</time>
      </trkpt>
      <trkpt lat="41.203117" lon="-4.319050">
        <ele>2618.0</ele>
        <time>2016-07-12T16:08:04Z</time>
      </trkpt>
      <trkpt lat="41.203000" lon="-4.319017">
        <ele>2619.0</ele>
        <time>2016-07-12T16:08:05Z</time>
      </trkpt>
      <trkpt lat="41.202883" lon="-4.319000">
        <ele>2620.0</ele>
        <time>2016-07-12T16:08:06Z</time>
      </trkpt>
      <trkpt lat="41.202767" lon="-4.319000">
        <ele>2620.0</ele>
        <time>2016-07-12T16:08:07Z</time>
      </trkpt>
      <trkpt lat="41.202650" lon="-4.318983">
        <ele>2619.0</ele>
        <time>2016-07-12T16:08:08Z</time>
      </trkpt>
      <trkpt lat="41.202533" lon="-4.318967">
        <ele>2619.0</ele>
        <time>2016-07-12T16:08:09Z</time>
      </trkpt>
      <trkpt lat="41.202417" lon="-4.318967">
        <ele>2620.0</ele>
        <time>2016-07-12T16:08:10Z</time>
      </trkpt>
      <trkpt lat="41.202317" lon="-4.319000">
        <ele>2619.0</ele>
        <time>2016-07-12T16:08:11Z</time>
      </trkpt>
      <trkpt lat="41.202217" lon="-4.319050">
        <ele>2618.0</ele>
        <time>2016-07-12T16:08:12Z</time>
      </trkpt>
      <trkpt lat="41.202117" lon="-4.319117">
        <ele>2617.0</ele>
        <time>2016-07-12T16:08:13Z</time>
      </trkpt>
      <trkpt lat="41.202033" lon="-4.319200">
        <ele>2616.0</ele>
        <time>2016-07-12T16:08:14Z</time>
      </trkpt>
      <trkpt lat="41.201933" lon="-4.319300">
        <ele>2616.0</ele>
        <time>2016-07-12T16:08:15Z</time>
      </trkpt>
      <trkpt lat="41.201850" lon="-4.319400">
        <ele>2616.0</ele>
        <time>2016-07-12T16:08:16Z</time>
      </trkpt>
      <trkpt lat="41.201767" lon="-4.319500">
        <ele>2617.0</ele>
        <time>2016-07-12T16:08:17Z</time>
      </trkpt>
      <trkpt lat="41.201683" lon="-4.319583">
        <ele>2617.0</ele>
        <time>2016-07-12T16:08:18Z</time>
      </trkpt>
      <trkpt lat="41.201617" lon="-4.319683">
        <ele>2616.0</ele>
        <time>2016-07-12T16:08:19Z</time>
      </trkpt>
      <trkpt lat="41.201550" lon="-4.319783">
        <ele>2615.0</ele>
        <time>2016-07-12T16:08:20Z</time>
      </trkpt>
      <trkpt lat="41.201483" lon="-4.319900">
        <ele>2613.0</ele>
        <time>2016-07-12T16:08:21Z</time>
      </trkpt>
      <trkpt lat="41.201417" lon="-4.320033">
        <ele>2612.0</ele>
        <time>2016-07-12T16:08:22Z</time>
      </trkpt>
      <trkpt lat="41.201367" lon="-4.320167">
        <ele>2611.0</ele>
        <time>2016-07-12T16:08:23Z</time>
      </trkpt>
      <trkpt lat="41.201333" lon="-4.320300">
        <ele>2611.0</ele>
        <time>2016-07-12T16:08:24Z</time>
      </trkpt>
      <trkpt lat="41.201300" lon="-4.320417">
        <ele>2611.0</ele>
        <time>2016-07-12T16:08:25Z</time>
      </trkpt>
      <trkpt lat="41.201267" lon="-4.320533">
        <ele>2610.0</ele>
        <time>2016-07-12T16:08:26Z</time>
      </trkpt>
      <trkpt lat="41.201250" lon="-4.320650">
        <ele>2609.0</ele>
        <time>2016-07-12T16:08:27Z</time>
      </trkpt>
      <trkpt lat="41.201233" lon="-4.320783">
        <ele>2608.0</ele>
        <time>2016-07-12T16:08:28Z</time>
      </trkpt>
      <trkpt lat="41.201233" lon="-4.320900">
        <ele>2606.0</ele>
        <time>2016-07-12T16:08:29Z</time>
      </trkpt>
      <trkpt lat="41.201250" lon="-4.321017">
        <ele>2605.0</ele>
        <time>2016-07-12T16:08:30Z</time>
      </trkpt>
      <trkpt lat="41.201250" lon="-4.321133">
        <ele>2604.0</ele>
        <time>2016-07-12T16:08:31Z</time>
      </trkpt>
      <trkpt lat="41.201267" lon="-4.321233">
        <ele>2602.0</ele>
        <time>2016-07-12T16:08:32Z</time>
      </trkpt>
      <trkpt lat="41.201283" lon="-4.321350">
        <ele>2600.0</ele>
        <time>2016-07-12T16:08:33Z</time>
      </trkpt>
      <trkpt lat="41.201317" lon="-4.321467">
        <ele>2598.0</ele>
        <time>2016-07-12T16:08:34Z</time>
      </trkpt>
      <trkpt lat="41.201350" lon="-4.321567">
        <ele>2599.0</ele>
        <time>2016-07-12T16:08:35Z</time>
      </trkpt>
      <trkpt lat="41.201383" lon="-4.321683">
        <ele>2601.0</ele>
        <time>2016-07-12T16:08:36Z</time>
      </trkpt>
      <trkpt lat="41.201400" lon="-4.321767">
        <ele>2603.0</ele>
        <time>2016-07-12T16:08:37Z</time>
      </trkpt>
      <trkpt lat="41.201400" lon="-4.321850">
        <ele>2604.0</ele>
        <time>2016-07-12T16:08:38Z</time>
      </trkpt>
      <trkpt lat="41.201400" lon="-4.321933">
        <ele>2604.0</ele>
        <time>2016-07-12T16:08:39Z</time>
      </trkpt>
      <trkpt lat="41.201400" lon="-4.322033">
        <ele>2602.0</ele>
        <time>2016-07-12T16:08:40Z</time>
      </trkpt>
      <trkpt lat="41.201417" lon="-4.322133">
        <ele>2599.0</ele>
        <time>2016-07-12T16:08:41Z</time>
      </trkpt>
      <trkpt lat="41.201433" lon="-4.322233">
        <ele>2596.0</ele>
        <time>2016-07-12T16:08:42Z</time>
      </trkpt>
      <trkpt lat="41.201450" lon="-4.322333">
        <ele>2594.0</ele>
        <time>2016-07-12T16:08:43Z</time>
      </trkpt>
      <trkpt lat="41.201483" lon="-4.322400">
        <ele>2592.0</ele>
        <time>2016-07-12T16:08:44Z</time>
      </trkpt>
      <trkpt lat="41.201517" lon="-4.322450">
        <ele>2590.0</ele>
        <time>2016-07-12T16:08:45Z</time>
      </trkpt>
      <trkpt lat="41.201567" lon="-4.322450">
        <ele>2588.0</ele>
        <time>2016-07-12T16:08:46Z</time>
      </trkpt>
      <trkpt lat="41.201617" lon="-4.322433">
        <ele>2586.0</ele>
        <time>2016-07-12T16:08:47Z</time>
      </trkpt>
      <trkpt lat="41.201667" lon="-4.322383">
        <ele>2583.0</ele>
        <time>2016-07-12T16:08:48Z</time>
      </trkpt>
      <trkpt lat="41.201717" lon="-4.322317">
        <ele>2581.0</ele>
        <time>2016-07-12T16:08:49Z</time>
      </trkpt>
      <trkpt lat="41.201750" lon="-4.322250">
        <ele>2581.0</ele>
        <time>2016-07-12T16:08:50Z</time>
      </trkpt>
      <trkpt lat="41.201783" lon="-4.322183">
        <ele>2582.0</ele>
        <time>2016-07-12T16:08:51Z</time>
      </trkpt>
      <trkpt lat="41.201767" lon="-4.322100">
        <ele>2581.0</ele>
        <time>2016-07-12T16:08:52Z</time>
      </trkpt>
      <trkpt lat="41.201733" lon="-4.322033">
        <ele>2580.0</ele>
        <time>2016-07-12T16:08:53Z</time>
      </trkpt>
      <trkpt lat="41.201700" lon="-4.321933">
        <ele>2579.0</ele>
        <time>2016-07-12T16:08:54Z</time>
      </trkpt>
      <trkpt lat="41.201650" lon="-4.321850">
        <ele>2577.0</ele>
        <time>2016-07-12T16:08:55Z</time>
      </trkpt>
      <trkpt lat="41.201583" lon="-4.321733">
        <ele>2576.0</ele>
        <time>2016-07-12T16:08:56Z</time>
      </trkpt>
      <trkpt lat="41.201517" lon="-4.321650">
        <ele>2576.0</ele>
        <time>2016-07-12T16:08:57Z</time>
      </trkpt>
      <trkpt lat="41.201433" lon="-4.321600">
        <ele>2576.0</ele>
        <time>2016-07-12T16:08:58Z</time>
      </trkpt>
      <trkpt lat="41.201333" lon="-4.321550">
        <ele>2575.0</ele>
        <time>2016-07-12T16:08:59Z</time>
      </trkpt>
      <trkpt lat="41.201233" lon="-4.321500">
        <ele>2574.0</ele>
        <time>2016-07-12T16:09:00Z</time>
      </trkpt>
      <trkpt lat="41.201150" lon="-4.321433">
        <ele>2572.0</ele>
        <time>2016-07-12T16:09:01Z</time>
      </trkpt>
      <trkpt lat="41.201050" lon="-4.321367">
        <ele>2570.0</ele>
        <time>2016-07-12T16:09:02Z</time>
      </trkpt>
      <trkpt lat="41.200933" lon="-4.321317">
        <ele>2568.0</ele>
        <time>2016-07-12T16:09:03Z</time>
      </trkpt>
      <trkpt lat="41.200817" lon="-4.321267">
        <ele>2566.0</ele>
        <time>2016-07-12T16:09:04Z</time>
      </trkpt>
      <trkpt lat="41.200700" lon="-4.321217">
        <ele>2564.0</ele>
        <time>2016-07-12T16:09:05Z</time>
      </trkpt>
      <trkpt lat="41.200567" lon="-4.321167">
        <ele>2563.0</ele>
        <time>2016-07-12T16:09:06Z</time>
      </trkpt>
      <trkpt lat="41.200433" lon="-4.321117">
        <ele>2562.0</ele>
        <time>2016-07-12T16:09:07Z</time>
      </trkpt>
      <trkpt lat="41.200300" lon="-4.321083">
        <ele>2561.0</ele>
        <time>2016-07-12T16:09:08Z</time>
      </trkpt>
      <trkpt lat="41.200150" lon="-4.321067">
        <ele>2561.0</ele>
        <time>2016-07-12T16:09:09Z</time>
      </trkpt>
      <trkpt lat="41.200033" lon="-4.321033">
        <ele>2563.0</ele>
        <time>2016-07-12T16:09:10Z</time>
      </trkpt>
      <trkpt lat="41.199917" lon="-4.321000">
        <ele>2564.0</ele>
        <time>2016-07-12T16:09:11Z</time>
      </trkpt>
      <trkpt lat="41.199817" lon="-4.320967">
        <ele>2565.0</ele>
        <time>2016-07-12T16:09:12Z</time>
      </trkpt>
      <trkpt lat="41.199717" lon="-4.320950">
        <ele>2564.0</ele>
        <time>2016-07-12T16:09:13Z</time>
      </trkpt>
      <trkpt lat="41.199617" lon="-4.320933">
        <ele>2562.0</ele>
        <time>2016-07-12T16:09:14Z</time>
      </trkpt>
      <trkpt lat="41.199500" lon="-4.320900">
        <ele>2559.0</ele>
        <time>2016-07-12T16:09:15Z</time>
      </trkpt>
      <trkpt lat="41.199383" lon="-4.320867">
        <ele>2558.0</ele>
        <time>2016-07-12T16:09:16Z</time>
      </trkpt>
      <trkpt lat="41.199267" lon="-4.320817">
        <ele>2559.0</ele>
        <time>2016-07-12T16:09:17Z</time>
      </trkpt>
      <trkpt lat="41.199150" lon="-4.320800">
        <ele>2560.0</ele>
        <time>2016-07-12T16:09:18Z</time>
      </trkpt>
      <trkpt lat="41.199050" lon="-4.320783">
        <ele>2561.0</ele>
        <time>2016-07-12T16:09:19Z</time>
      </trkpt>
      <trkpt lat="41.198933" lon="-4.320767">
        <ele>2560.0</ele>
        <time>2016-07-12T16:09:20Z</time>
      </trkpt>
      <trkpt lat="41.198817" lon="-4.320750">
        <ele>2557.0</ele>
        <time>2016-07-12T16:09:21Z</time>
      </trkpt>
      <trkpt lat="41.198683" lon="-4.320733">
        <ele>2554.0</ele>
        <time>2016-07-12T16:09:22Z</time>
      </trkpt>
      <trkpt lat="41.198550" lon="-4.320700">
        <ele>2553.0</ele>
        <time>2016-07-12T16:09:23Z</time>
      </trkpt>
      <trkpt lat="41.198417" lon="-4.320683">
        <ele>2553.0</ele>
        <time>2016-07-12T16:09:24Z</time>
      </trkpt>
      <trkpt lat="41.198300" lon="-4.320667">
        <ele>2553.0</ele>
        <time>2016-07-12T16:09:25Z</time>
      </trkpt>
      <trkpt lat="41.198200" lon="-4.320650">
        <ele>2553.0</ele>
        <time>2016-07-12T16:09:26Z</time>
      </trkpt>
      <trkpt lat="41.198100" lon="-4.320650">
        <ele>2551.0</ele>
        <time>2016-07-12T16:09:27Z</time>
      </trkpt>
      <trkpt lat="41.197983" lon="-4.320633">
        <ele>2547.0</ele>
        <time>2016-07-12T16:09:28Z</time>
      </trkpt>
      <trkpt lat="41.197850" lon="-4.320617">
        <ele>2544.0</ele>
        <time>2016-07-12T16:09:29Z</time>
      </trkpt>
      <trkpt lat="41.197733" lon="-4.320583">
        <ele>2541.0</ele>
        <time>2016-07-12T16:09:30Z</time>
      </trkpt>
      <trkpt lat="41.197617" lon="-4.320550">
        <ele>2538.0</ele>
        <time>2016-07-12T16:09:31Z</time>
      </trkpt>
      <trkpt lat="41.197500" lon="-4.320517">
        <ele>2536.0</ele>
        <time>2016-07-12T16:09:32Z</time>
      </trkpt>
      <trkpt lat="41.197383" lon="-4.320500">
        <ele>2533.0</ele>
        <time>2016-07-12T16:09:33Z</time>
      </trkpt>
      <trkpt lat="41.197250" lon="-4.320500">
        <ele>2530.0</ele>
        <time>2016-07-12T16:09:34Z</time>
      </trkpt>
      <trkpt lat="41.197117" lon="-4.320467">
        <ele>2526.0</ele>
        <time>2016-07-12T16:09:35Z</time>
      </trkpt>
      <trkpt lat="41.196983" lon="-4.320433">
        <ele>2522.0</ele>
        <time>2016-07-12T16:09:36Z</time>
      </trkpt>
      <trkpt lat="41.196850" lon="-4.320400">
        <ele>2520.0</ele>
        <time>2016-07-12T16:09:37Z</time>
      </trkpt>
      <trkpt lat="41.196717" lon="-4.320367">
        <ele>2519.0</ele>
        <time>2016-07-12T16:09:38Z</time>
      </trkpt>
      <trkpt lat="41.196600" lon="-4.320333">
        <ele>2519.0</ele>
        <time>2016-07-12T16:09:39Z</time>
      </trkpt>
      <trkpt lat="41.196483" lon="-4.320317">
        <ele>2518.0</ele>
        <time>2016-07-12T16:09:40Z</time>
      </trkpt>
      <trkpt lat="41.196367" lon="-4.320317">
        <ele>2516.0</ele>
        <time>2016-07-12T16:09:41Z</time>
      </trkpt>
      <trkpt lat="41.196250" lon="-4.320317">
        <ele>2513.0</ele>
        <time>2016-07-12T16:09:42Z</time>
      </trkpt>
      <trkpt lat="41.196117" lon="-4.320300">
        <ele>2509.0</ele>
        <time>2016-07-12T16:09:43Z</time>
      </trkpt>
      <trkpt lat="41.195983" lon="-4.320250">
        <ele>2507.0</ele>
        <time>2016-07-12T16:09:44Z</time>
      </trkpt>
      <trkpt lat="41.195850" lon="-4.320200">
        <ele>2506.0</ele>
        <time>2016-07-12T16:09:45Z</time>
      </trkpt>
      <trkpt lat="41.195733" lon="-4.320167">
        <ele>2505.0</ele>
        <time>2016-07-12T16:09:46Z</time>
      </trkpt>
      <trkpt lat="41.195617" lon="-4.320133">
        <ele>2504.0</ele>
        <time>2016-07-12T16:09:47Z</time>
      </trkpt>
      <trkpt lat="41.195483" lon="-4.320117">
        <ele>2501.0</ele>
        <time>2016-07-12T16:09:48Z</time>
      </trkpt>
      <trkpt lat="41.195350" lon="-4.320100">
        <ele>2498.0</ele>
        <time>2016-07-12T16:09:49Z</time>
      </trkpt>
      <trkpt lat="41.195217" lon="-4.320083">
        <ele>2495.0</ele>
        <time>2016-07-12T16:09:50Z</time>
      </trkpt>
      <trkpt lat="41.195067" lon="-4.320067">
        <ele>2493.0</ele>
        <time>2016-07-12T16:09:51Z</time>
      </trkpt>
      <trkpt lat="41.194933" lon="-4.320017">
        <ele>2490.0</ele>
        <time>2016-07-12T16:09:52Z</time>
      </trkpt>
      <trkpt lat="41.194800" lon="-4.319983">
        <ele>2488.0</ele>
        <time>2016-07-12T16:09:53Z</time>
      </trkpt>
      <trkpt lat="41.194667" lon="-4.319950">
        <ele>2484.0</ele>
        <time>2016-07-12T16:09:54Z</time>
      </trkpt>
      <trkpt lat="41.194533" lon="-4.319900">
        <ele>2481.0</ele>
        <time>2016-07-12T16:09:55Z</time>
      </trkpt>
      <trkpt lat="41.194383" lon="-4.319867">
        <ele>2477.0</ele>
        <time>2016-07-12T16:09:56Z</time>
      </trkpt>
      <trkpt lat="41.194250" lon="-4.319817">
        <ele>2474.0</ele>
        <time>2016-07-12T16:09:57Z</time>
      </trkpt>
      <trkpt lat="41.194117" lon="-4.319767">
        <ele>2473.0</ele>
        <time>2016-07-12T16:09:58Z</time>
      </trkpt>
      <trkpt lat="41.193983" lon="-4.319733">
        <ele>2472.0</ele>
        <time>2016-07-12T16:09:59Z</time>
      </trkpt>
      <trkpt lat="41.193883" lon="-4.319700">
        <ele>2471.0</ele>
        <time>2016-07-12T16:10:00Z</time>
      </trkpt>
      <trkpt lat="41.193783" lon="-4.319650">
        <ele>2469.0</ele>
        <time>2016-07-12T16:10:01Z</time>
      </trkpt>
      <trkpt lat="41.193667" lon="-4.319600">
        <ele>2465.0</ele>
        <time>2016-07-12T16:10:02Z</time>
      </trkpt>
      <trkpt lat="41.193550" lon="-4.319517">
        <ele>2460.0</ele>
        <time>2016-07-12T16:10:03Z</time>
      </trkpt>
      <trkpt lat="41.193433" lon="-4.319450">
        <ele>2456.0</ele>
        <time>2016-07-12T16:10:04Z</time>
      </trkpt>
      <trkpt lat="41.193283" lon="-4.319383">
        <ele>2454.0</ele>
        <time>2016-07-12T16:10:05Z</time>
      </trkpt>
      <trkpt lat="41.193150" lon="-4.319350">
        <ele>2453.0</ele>
        <time>2016-07-12T16:10:06Z</time>
      </trkpt>
      <trkpt lat="41.193033" lon="-4.319333">
        <ele>2452.0</ele>
        <time>2016-07-12T16:10:07Z</time>
      </trkpt>
      <trkpt lat="41.192917" lon="-4.319300">
        <ele>2450.0</ele>
        <time>2016-07-12T16:10:08Z</time>
      </trkpt>
      <trkpt lat="41.192800" lon="-4.319283">
        <ele>2446.0</ele>
        <time>2016-07-12T16:10:09Z</time>
      </trkpt>
      <trkpt lat="41.192667" lon="-4.319250">
        <ele>2442.0</ele>
        <time>2016-07-12T16:10:10Z</time>
      </trkpt>
      <trkpt lat="41.192517" lon="-4.319217">
        <ele>2437.0</ele>
        <time>2016-07-12T16:10:11Z</time>
      </trkpt>
      <trkpt lat="41.192350" lon="-4.319183">
        <ele>2434.0</ele>
        <time>2016-07-12T16:10:12Z</time>
      </trkpt>
      <trkpt lat="41.192200" lon="-4.319167">
        <ele>2432.0</ele>
        <time>2016-07-12T16:10:13Z</time>
      </trkpt>
      <trkpt lat="41.192067" lon="-4.319150">
        <ele>2432.0</ele>
        <time>2016-07-12T16:10:14Z</time>
      </trkpt>
      <trkpt lat="41.191950" lon="-4.319117">
        <ele>2431.0</ele>
        <time>2016-07-12T16:10:15Z</time>
      </trkpt>
      <trkpt lat="41.191817" lon="-4.319100">
        <ele>2428.0</ele>
        <time>2016-07-12T16:10:16Z</time>
      </trkpt>
      <trkpt lat="41.191683" lon="-4.319083">
        <ele>2424.0</ele>
        <time>2016-07-12T16:10:17Z</time>
      </trkpt>
      <trkpt lat="41.191533" lon="-4.319067">
        <ele>2420.0</ele>
        <time>2016-07-12T16:10:18Z</time>
      </trkpt>
      <trkpt lat="41.191400" lon="-4.319017">
        <ele>2417.0</ele>
        <time>2016-07-12T16:10:19Z</time>
      </trkpt>
      <trkpt lat="41.191250" lon="-4.318967">
        <ele>2415.0</ele>
        <time>2016-07-12T16:10:20Z</time>
      </trkpt>
      <trkpt lat="41.191133" lon="-4.318900">
        <ele>2414.0</ele>
        <time>2016-07-12T16:10:21Z</time>
      </trkpt>
      <trkpt lat="41.191017" lon="-4.318833">
        <ele>2412.0</ele>
        <time>2016-07-12T16:10:22Z</time>
      </trkpt>
      <trkpt lat="41.190900" lon="-4.318767">
        <ele>2408.0</ele>
        <time>2016-07-12T16:10:23Z</time>
      </trkpt>
      <trkpt lat="41.190783" lon="-4.318700">
        <ele>2404.0</ele>
        <time>2016-07-12T16:10:24Z</time>
      </trkpt>
      <trkpt lat="41.190650" lon="-4.318617">
        <ele>2399.0</ele>
        <time>2016-07-12T16:10:25Z</time>
      </trkpt>
      <trkpt lat="41.190533" lon="-4.318517">
        <ele>2395.0</ele>
        <time>2016-07-12T16:10:26Z</time>
      </trkpt>
      <trkpt lat="41.190400" lon="-4.318433">
        <ele>2393.0</ele>
        <time>2016-07-12T16:10:27Z</time>
      </trkpt>
      <trkpt lat="41.190267" lon="-4.318350">
        <ele>2391.0</ele>
        <time>2016-07-12T16:10:28Z</time>
      </trkpt>
      <trkpt lat="41.190150" lon="-4.318300">
        <ele>2390.0</ele>
        <time>2016-07-12T16:10:29Z</time>
      </trkpt>
      <trkpt lat="41.190033" lon="-4.318217">
        <ele>2389.0</ele>
        <time>2016-07-12T16:10:30Z</time>
      </trkpt>
      <trkpt lat="41.189900" lon="-4.318150">
        <ele>2388.0</ele>
        <time>2016-07-12T16:10:31Z</time>
      </trkpt>
      <trkpt lat="41.189783" lon="-4.318083">
        <ele>2388.0</ele>
        <time>2016-07-12T16:10:32Z</time>
      </trkpt>
      <trkpt lat="41.189650" lon="-4.318017">
        <ele>2389.0</ele>
        <time>2016-07-12T16:10:33Z</time>
      </trkpt>
      <trkpt lat="41.189533" lon="-4.317967">
        <ele>2390.0</ele>
        <time>2016-07-12T16:10:34Z</time>
      </trkpt>
      <trkpt lat="41.189400" lon="-4.317917">
        <ele>2391.0</ele>
        <time>2016-07-12T16:10:35Z</time>
      </trkpt>
      <trkpt lat="41.189300" lon="-4.317850">
        <ele>2392.0</ele>
        <time>2016-07-12T16:10:36Z</time>
      </trkpt>
      <trkpt lat="41.189183" lon="-4.317767">
        <ele>2394.0</ele>
        <time>2016-07-12T16:10:37Z</time>
      </trkpt>
      <trkpt lat="41.189083" lon="-4.317700">
        <ele>2396.0</ele>
        <time>2016-07-12T16:10:38Z</time>
      </trkpt>
      <trkpt lat="41.188967" lon="-4.317633">
        <ele>2397.0</ele>
        <time>2016-07-12T16:10:39Z</time>
      </trkpt>
      <trkpt lat="41.188850" lon="-4.317567">
        <ele>2399.0</ele>
        <time>2016-07-12T16:10:40Z</time>
      </trkpt>
      <trkpt lat="41.188750" lon="-4.317483">
        <ele>2401.0</ele>
        <time>2016-07-12T16:10:41Z</time>
      </trkpt>
      <trkpt lat="41.188633" lon="-4.317383">
        <ele>2403.0</ele>
        <time>2016-07-12T16:10:42Z</time>
      </trkpt>
      <trkpt lat="41.188533" lon="-4.317317">
        <ele>2407.0</ele>
        <time>2016-07-12T16:10:43Z</time>
      </trkpt>
      <trkpt lat="41.188433" lon="-4.317250">
        <ele>2411.0</ele>
        <time>2016-07-12T16:10:44Z</time>
      </trkpt>
      <trkpt lat="41.188333" lon="-4.317200">
        <ele>2415.0</ele>
        <time>2016-07-12T16:10:45Z</time>
      </trkpt>
      <trkpt lat="41.188250" lon="-4.317133">
        <ele>2417.0</ele>
        <time>2016-07-12T16:10:46Z</time>
      </trkpt>
      <trkpt lat="41.188167" lon="-4.317067">
        <ele>2419.0</ele>
        <time>2016-07-12T16:10:47Z</time>
      </trkpt>
      <trkpt lat="41.188067" lon="-4.317000">
        <ele>2421.0</ele>
        <time>2016-07-12T16:10:48Z</time>
      </trkpt>
      <trkpt lat="41.187967" lon="-4.316967">
        <ele>2424.0</ele>
        <time>2016-07-12T16:10:49Z</time>
      </trkpt>
      <trkpt lat="41.187867" lon="-4.316933">
        <ele>2426.0</ele>
        <time>2016-07-12T16:10:50Z</time>
      </trkpt>
      <trkpt lat="41.187767" lon="-4.316933">
        <ele>2428.0</ele>
        <time>2016-07-12T16:10:51Z</time>
      </trkpt>
      <trkpt lat="41.187667" lon="-4.316917">
        <ele>2430.0</ele>
        <time>2016-07-12T16:10:52Z</time>
      </trkpt>
      <trkpt lat="41.187567" lon="-4.316900">
        <ele>2432.0</ele>
        <time>2016-07-12T16:10:53Z</time>
      </trkpt>
      <trkpt lat="41.187450" lon="-4.316900">
        <ele>2434.0</ele>
        <time>2016-07-12T16:10:54Z</time>
      </trkpt>
      <trkpt lat="41.187350" lon="-4.316900">
        <ele>2436.0</ele>
        <time>2016-07-12T16:10:55Z</time>
      </trkpt>
      <trkpt lat="41.187267" lon="-4.316900">
        <ele>2437.0</ele>
        <time>2016-07-12T16:10:56Z</time>
      </trkpt>
      <trkpt lat="41.187167" lon="-4.316900">
        <ele>2439.0</ele>
        <time>2016-07-12T16:10:57Z</time>
      </trkpt>
      <trkpt lat="41.187067" lon="-4.316917">
        <ele>2439.0</ele>
        <time>2016-07-12T16:10:58Z</time>
      </trkpt>
      <trkpt lat="41.186983" lon="-4.316950">
        <ele>2440.0</ele>
        <time>2016-07-12T16:10:59Z</time>
      </trkpt>
      <trkpt lat="41.186900" lon="-4.316983">
        <ele>2441.0</ele>
        <time>2016-07-12T16:11:00Z</time>
      </trkpt>
      <trkpt lat="41.186850" lon="-4.317050">
        <ele>2442.0</ele>
        <time>2016-07-12T16:11:01Z</time>
      </trkpt>
      <trkpt lat="41.186800" lon="-4.317117">
        <ele>2444.0</ele>
        <time>2016-07-12T16:11:02Z</time>
      </trkpt>
      <trkpt lat="41.186767" lon="-4.317183">
        <ele>2445.0</ele>
        <time>2016-07-12T16:11:03Z</time>
      </trkpt>
      <trkpt lat="41.186750" lon="-4.317250">
        <ele>2446.0</ele>
        <time>2016-07-12T16:11:04Z</time>
      </trkpt>
      <trkpt lat="41.186750" lon="-4.317317">
        <ele>2447.0</ele>
        <time>2016-07-12T16:11:05Z</time>
      </trkpt>
      <trkpt lat="41.186783" lon="-4.317350">
        <ele>2448.0</ele>
        <time>2016-07-12T16:11:06Z</time>
      </trkpt>
      <trkpt lat="41.186833" lon="-4.317367">
        <ele>2448.0</ele>
        <time>2016-07-12T16:11:07Z</time>
      </trkpt>
      <trkpt lat="41.186900" lon="-4.317350">
        <ele>2447.0</ele>
        <time>2016-07-12T16:11:08Z</time>
      </trkpt>
      <trkpt lat="41.186950" lon="-4.317300">
        <ele>2448.0</ele>
        <time>2016-07-12T16:11:09Z</time>
      </trkpt>
      <trkpt lat="41.187017" lon="-4.317233">
        <ele>2449.0</ele>
        <time>2016-07-12T16:11:10Z</time>
      </trkpt>
      <trkpt lat="41.187067" lon="-4.317150">
        <ele>2451.0</ele>
        <time>2016-07-12T16:11:11Z</time>
      </trkpt>
      <trkpt lat="41.187133" lon="-4.317083">
        <ele>2453.0</ele>
        <time>2016-07-12T16:11:12Z</time>
      </trkpt>
      <trkpt lat="41.187167" lon="-4.316983">
        <ele>2454.0</ele>
        <time>2016-07-12T16:11:13Z</time>
      </trkpt>
      <trkpt lat="41.187217" lon="-4.316900">
        <ele>2455.0</ele>
        <time>2016-07-12T16:11:14Z</time>
      </trkpt>
      <trkpt lat="41.187250" lon="-4.316800">
        <ele>2457.0</ele>
        <time>2016-07-12T16:11:15Z</time>
      </trkpt>
      <trkpt lat="41.187283" lon="-4.316683">
        <ele>2459.0</ele>
        <time>2016-07-12T16:11:16Z</time>
      </trkpt>
      <trkpt lat="41.187300" lon="-4.316567">
        <ele>2461.0</ele>
        <time>2016-07-12T16:11:17Z</time>
      </trkpt>
      <trkpt lat="41.187300" lon="-4.316433">
        <ele>2464.0</ele>
        <time>2016-07-12T16:11:18Z</time>
      </trkpt>
      <trkpt lat="41.187283" lon="-4.316317">
        <ele>2466.0</ele>
        <time>2016-07-12T16:11:19Z</time>
      </trkpt>
      <trkpt lat="41.187283" lon="-4.316183">
        <ele>2468.0</ele>
        <time>2016-07-12T16:11:20Z</time>
      </trkpt>
      <trkpt lat="41.187267" lon="-4.316050">
        <ele>2470.0</ele>
        <time>2016-07-12T16:11:21Z</time>
      </trkpt>
      <trkpt lat="41.187250" lon="-4.315917">
        <ele>2473.0</ele>
        <time>2016-07-12T16:11:22Z</time>
      </trkpt>
      <trkpt lat="41.187217" lon="-4.315767">
        <ele>2475.0</ele>
        <time>2016-07-12T16:11:23Z</time>
      </trkpt>
      <trkpt lat="41.187167" lon="-4.315633">
        <ele>2477.0</ele>
        <time>2016-07-12T16:11:24Z</time>
      </trkpt>
      <trkpt lat="41.187100" lon="-4.315517">
        <ele>2479.0</ele>
        <time>2016-07-12T16:11:25Z</time>
      </trkpt>
      <trkpt lat="41.187033" lon="-4.315417">
        <ele>2481.0</ele>
        <time>2016-07-12T16:11:26Z</time>
      </trkpt>
      <trkpt lat="41.186933" lon="-4.315350">
        <ele>2482.0</ele>
        <time>2016-07-12T16:11:27Z</time>
      </trkpt>
      <trkpt lat="41.186850" lon="-4.315283">
        <ele>2483.0</ele>
        <time>2016-07-12T16:11:28Z</time>
      </trkpt>
      <trkpt lat="41.186750" lon="-4.315250">
        <ele>2485.0</ele>
        <time>2016-07-12T16:11:29Z</time>
      </trkpt>
      <trkpt lat="41.186633" lon="-4.315250">
        <ele>2486.0</ele>
        <time>2016-07-12T16:11:30Z</time>
      </trkpt>
      <trkpt lat="41.186550" lon="-4.315250">
        <ele>2487.0</ele>
        <time>2016-07-12T16:11:31Z</time>
      </trkpt>
      <trkpt lat="41.186450" lon="-4.315267">
        <ele>2487.0</ele>
        <time>2016-07-12T16:11:32Z</time>
      </trkpt>
      <trkpt lat="41.186350" lon="-4.315317">
        <ele>2488.0</ele>
        <time>2016-07-12T16:11:33Z</time>
      </trkpt>
      <trkpt lat="41.186283" lon="-4.315383">
        <ele>2489.0</ele>
        <time>2016-07-12T16:11:34Z</time>
      </trkpt>
      <trkpt lat="41.186217" lon="-4.315450">
        <ele>2491.0</ele>
        <time>2016-07-12T16:11:35Z</time>
      </trkpt>
      <trkpt lat="41.186150" lon="-4.315500">
        <ele>2493.0</ele>
        <time>2016-07-12T16:11:36Z</time>
      </trkpt>
      <trkpt lat="41.186117" lon="-4.315567">
        <ele>2494.0</ele>
        <time>2016-07-12T16:11:37Z</time>
      </trkpt>
      <trkpt lat="41.186083" lon="-4.315617">
        <ele>2495.0</ele>
        <time>2016-07-12T16:11:38Z</time>
      </trkpt>
      <trkpt lat="41.186067" lon="-4.315683">
        <ele>2495.0</ele>
        <time>2016-07-12T16:11:39Z</time>
      </trkpt>
      <trkpt lat="41.186050" lon="-4.315750">
        <ele>2495.0</ele>
        <time>2016-07-12T16:11:40Z</time>
      </trkpt>
      <trkpt lat="41.186067" lon="-4.315833">
        <ele>2496.0</ele>
        <time>2016-07-12T16:11:41Z</time>
      </trkpt>
      <trkpt lat="41.186100" lon="-4.315900">
        <ele>2498.0</ele>
        <time>2016-07-12T16:11:42Z</time>
      </trkpt>
      <trkpt lat="41.186133" lon="-4.315950">
        <ele>2500.0</ele>
        <time>2016-07-12T16:11:43Z</time>
      </trkpt>
      <trkpt lat="41.186167" lon="-4.316000">
        <ele>2501.0</ele>
        <time>2016-07-12T16:11:44Z</time>
      </trkpt>
      <trkpt lat="41.186200" lon="-4.316067">
        <ele>2502.0</ele>
        <time>2016-07-12T16:11:45Z</time>
      </trkpt>
      <trkpt lat="41.186233" lon="-4.316117">
        <ele>2503.0</ele>
        <time>2016-07-12T16:11:46Z</time>
      </trkpt>
      <trkpt lat="41.186283" lon="-4.316167">
        <ele>2505.0</ele>
        <time>2016-07-12T16:11:47Z</time>
      </trkpt>
      <trkpt lat="41.186333" lon="-4.316167">
        <ele>2508.0</ele>
        <time>2016-07-12T16:11:48Z</time>
      </trkpt>
      <trkpt lat="41.186383" lon="-4.316133">
        <ele>2509.0</ele>
        <time>2016-07-12T16:11:49Z</time>
      </trkpt>
      <trkpt lat="41.186433" lon="-4.316083">
        <ele>2511.0</ele>
        <time>2016-07-12T16:11:50Z</time>
      </trkpt>
      <trkpt lat="41.186467" lon="-4.316033">
        <ele>2512.0</ele>
        <time>2016-07-12T16:11:51Z</time>
      </trkpt>
      <trkpt lat="41.186517" lon="-4.315983">
        <ele>2513.0</ele>
        <time>2016-07-12T16:11:52Z</time>
      </trkpt>
      <trkpt lat="41.186567" lon="-4.315933">
        <ele>2513.0</ele>
        <time>2016-07-12T16:11:53Z</time>
      </trkpt>
      <trkpt lat="41.186600" lon="-4.315833">
        <ele>2514.0</ele>
        <time>2016-07-12T16:11:54Z</time>
      </trkpt>
      <trkpt lat="41.186617" lon="-4.315717">
        <ele>2514.0</ele>
        <time>2016-07-12T16:11:55Z</time>
      </trkpt>
      <trkpt lat="41.186617" lon="-4.315567">
        <ele>2514.0</ele>
        <time>2016-07-12T16:11:56Z</time>
      </trkpt>
      <trkpt lat="41.186583" lon="-4.315433">
        <ele>2515.0</ele>
        <time>2016-07-12T16:11:57Z</time>
      </trkpt>
      <trkpt lat="41.186550" lon="-4.315300">
        <ele>2516.0</ele>
        <time>2016-07-12T16:11:58Z</time>
      </trkpt>
      <trkpt lat="41.186500" lon="-4.315167">
        <ele>2517.0</ele>
        <time>2016-07-12T16:11:59Z</time>
      </trkpt>
      <trkpt lat="41.186450" lon="-4.315050">
        <ele>2518.0</ele>
        <time>2016-07-12T16:12:00Z</time>
      </trkpt>
      <trkpt lat="41.186383" lon="-4.314933">
        <ele>2518.0</ele>
        <time>2016-07-12T16:12:01Z</time>
      </trkpt>
      <trkpt lat="41.186300" lon="-4.314833">
        <ele>2518.0</ele>
        <time>2016-07-12T16:12:02Z</time>
      </trkpt>
      <trkpt lat="41.186217" lon="-4.314733">
        <ele>2518.0</ele>
        <time>2016-07-12T16:12:03Z</time>
      </trkpt>
      <trkpt lat="41.186117" lon="-4.314667">
        <ele>2519.0</ele>
        <time>2016-07-12T16:12:04Z</time>
      </trkpt>
      <trkpt lat="41.186017" lon="-4.314583">
        <ele>2521.0</ele>
        <time>2016-07-12T16:12:05Z</time>
      </trkpt>
      <trkpt lat="41.185917" lon="-4.314533">
        <ele>2522.0</ele>
        <time>2016-07-12T16:12:06Z</time>
      </trkpt>
      <trkpt lat="41.185800" lon="-4.314483">
        <ele>2524.0</ele>
        <time>2016-07-12T16:12:07Z</time>
      </trkpt>
      <trkpt lat="41.185700" lon="-4.314417">
        <ele>2526.0</ele>
        <time>2016-07-12T16:12:08Z</time>
      </trkpt>
      <trkpt lat="41.185600" lon="-4.314367">
        <ele>2528.0</ele>
        <time>2016-07-12T16:12:09Z</time>
      </trkpt>
      <trkpt lat="41.185500" lon="-4.314317">
        <ele>2529.0</ele>
        <time>2016-07-12T16:12:10Z</time>
      </trkpt>
      <trkpt lat="41.185400" lon="-4.314267">
        <ele>2530.0</ele>
        <time>2016-07-12T16:12:11Z</time>
      </trkpt>
      <trkpt lat="41.185300" lon="-4.314233">
        <ele>2530.0</ele>
        <time>2016-07-12T16:12:12Z</time>
      </trkpt>
      <trkpt lat="41.185200" lon="-4.314200">
        <ele>2530.0</ele>
        <time>2016-07-12T16:12:13Z</time>
      </trkpt>
      <trkpt lat="41.185100" lon="-4.314183">
        <ele>2530.0</ele>
        <time>2016-07-12T16:12:14Z</time>
      </trkpt>
      <trkpt lat="41.184983" lon="-4.314167">
        <ele>2531.0</ele>
        <time>2016-07-12T16:12:15Z</time>
      </trkpt>
      <trkpt lat="41.184883" lon="-4.314150">
        <ele>2533.0</ele>
        <time>2016-07-12T16:12:16Z</time>
      </trkpt>
      <trkpt lat="41.184783" lon="-4.314150">
        <ele>2535.0</ele>
        <time>2016-07-12T16:12:17Z</time>
      </trkpt>
      <trkpt lat="41.184700" lon="-4.314133">
        <ele>2536.0</ele>
        <time>2016-07-12T16:12:18Z</time>
      </trkpt>
      <trkpt lat="41.184600" lon="-4.314117">
        <ele>2537.0</ele>
        <time>2016-07-12T16:12:19Z</time>
      </trkpt>
      <trkpt lat="41.184500" lon="-4.314117">
        <ele>2537.0</ele>
        <time>2016-07-12T16:12:20Z</time>
      </trkpt>
      <trkpt lat="41.184383" lon="-4.314117">
        <ele>2538.0</ele>
        <time>2016-07-12T16:12:21Z</time>
      </trkpt>
      <trkpt lat="41.184283" lon="-4.314133">
        <ele>2539.0</ele>
        <time>2016-07-12T16:12:22Z</time>
      </trkpt>
      <trkpt lat="41.184200" lon="-4.314133">
        <ele>2542.0</ele>
        <time>2016-07-12T16:12:23Z</time>
      </trkpt>
      <trkpt lat="41.184117" lon="-4.314133">
        <ele>2543.0</ele>
        <time>2016-07-12T16:12:24Z</time>
      </trkpt>
      <trkpt lat="41.184050" lon="-4.314133">
        <ele>2544.0</ele>
        <time>2016-07-12T16:12:25Z</time>
      </trkpt>
      <trkpt lat="41.183967" lon="-4.314133">
        <ele>2543.0</ele>
        <time>2016-07-12T16:12:26Z</time>
      </trkpt>
      <trkpt lat="41.183867" lon="-4.314133">
        <ele>2542.0</ele>
        <time>2016-07-12T16:12:27Z</time>
      </trkpt>
      <trkpt lat="41.183750" lon="-4.314117">
        <ele>2542.0</ele>
        <time>2016-07-12T16:12:28Z</time>
      </trkpt>
      <trkpt lat="41.183633" lon="-4.314083">
        <ele>2542.0</ele>
        <time>2016-07-12T16:12:29Z</time>
      </trkpt>
      <trkpt lat="41.183533" lon="-4.314050">
        <ele>2543.0</ele>
        <time>2016-07-12T16:12:30Z</time>
      </trkpt>
      <trkpt lat="41.183450" lon="-4.314050">
        <ele>2542.0</ele>
        <time>2016-07-12T16:12:31Z</time>
      </trkpt>
      <trkpt lat="41.183367" lon="-4.314083">
        <ele>2540.0</ele>
        <time>2016-07-12T16:12:32Z</time>
      </trkpt>
      <trkpt lat="41.183267" lon="-4.314150">
        <ele>2539.0</ele>
        <time>2016-07-12T16:12:33Z</time>
      </trkpt>
      <trkpt lat="41.183167" lon="-4.314200">
        <ele>2540.0</ele>
        <time>2016-07-12T16:12:34Z</time>
      </trkpt>
      <trkpt lat="41.183050" lon="-4.314233">
        <ele>2540.0</ele>
        <time>2016-07-12T16:12:35Z</time>
      </trkpt>
      <trkpt lat="41.182950" lon="-4.314250">
        <ele>2541.0</ele>
        <time>2016-07-12T16:12:36Z</time>
      </trkpt>
      <trkpt lat="41.182850" lon="-4.314283">
        <ele>2542.0</ele>
        <time>2016-07-12T16:12:37Z</time>
      </trkpt>
      <trkpt lat="41.182767" lon="-4.314317">
        <ele>2543.0</ele>
        <time>2016-07-12T16:12:38Z</time>
      </trkpt>
      <trkpt lat="41.182683" lon="-4.314350">
        <ele>2543.0</ele>
        <time>2016-07-12T16:12:39Z</time>
      </trkpt>
      <trkpt lat="41.182583" lon="-4.314383">
        <ele>2542.0</ele>
        <time>2016-07-12T16:12:40Z</time>
      </trkpt>
      <trkpt lat="41.182483" lon="-4.314433">
        <ele>2542.0</ele>
        <time>2016-07-12T16:12:41Z</time>
      </trkpt>
      <trkpt lat="41.182383" lon="-4.314467">
        <ele>2542.0</ele>
        <time>2016-07-12T16:12:42Z</time>
      </trkpt>
      <trkpt lat="41.182300" lon="-4.314517">
        <ele>2543.0</ele>
        <time>2016-07-12T16:12:43Z</time>
      </trkpt>
      <trkpt lat="41.182233" lon="-4.314583">
        <ele>2543.0</ele>
        <time>2016-07-12T16:12:44Z</time>
      </trkpt>
      <trkpt lat="41.182183" lon="-4.314650">
        <ele>2544.0</ele>
        <time>2016-07-12T16:12:45Z</time>
      </trkpt>
      <trkpt lat="41.182133" lon="-4.314700">
        <ele>2545.0</ele>
        <time>2016-07-12T16:12:46Z</time>
      </trkpt>
      <trkpt lat="41.182083" lon="-4.314750">
        <ele>2546.0</ele>
        <time>2016-07-12T16:12:47Z</time>
      </trkpt>
      <trkpt lat="41.182017" lon="-4.314817">
        <ele>2545.0</ele>
        <time>2016-07-12T16:12:48Z</time>
      </trkpt>
      <trkpt lat="41.181950" lon="-4.314867">
        <ele>2545.0</ele>
        <time>2016-07-12T16:12:49Z</time>
      </trkpt>
      <trkpt lat="41.181900" lon="-4.314950">
        <ele>2545.0</ele>
        <time>2016-07-12T16:12:50Z</time>
      </trkpt>
      <trkpt lat="41.181850" lon="-4.315033">
        <ele>2546.0</ele>
        <time>2016-07-12T16:12:51Z</time>
      </trkpt>
      <trkpt lat="41.181817" lon="-4.315117">
        <ele>2548.0</ele>
        <time>2016-07-12T16:12:52Z</time>
      </trkpt>
      <trkpt lat="41.181817" lon="-4.315183">
        <ele>2549.0</ele>
        <time>2016-07-12T16:12:53Z</time>
      </trkpt>
      <trkpt lat="41.181833" lon="-4.315250">
        <ele>2550.0</ele>
        <time>2016-07-12T16:12:54Z</time>
      </trkpt>
      <trkpt lat="41.181850" lon="-4.315300">
        <ele>2550.0</ele>
        <time>2016-07-12T16:12:55Z</time>
      </trkpt>
      <trkpt lat="41.181883" lon="-4.315350">
        <ele>2550.0</ele>
        <time>2016-07-12T16:12:56Z</time>
      </trkpt>
      <trkpt lat="41.181933" lon="-4.315383">
        <ele>2550.0</ele>
        <time>2016-07-12T16:12:57Z</time>
      </trkpt>
      <trkpt lat="41.182000" lon="-4.315383">
        <ele>2551.0</ele>
        <time>2016-07-12T16:12:58Z</time>
      </trkpt>
      <trkpt lat="41.182067" lon="-4.315333">
        <ele>2551.0</ele>
        <time>2016-07-12T16:12:59Z</time>
      </trkpt>
      <trkpt lat="41.182117" lon="-4.315267">
        <ele>2551.0</ele>
        <time>2016-07-12T16:13:00Z</time>
      </trkpt>
      <trkpt lat="41.182150" lon="-4.315183">
        <ele>2553.0</ele>
        <time>2016-07-12T16:13:01Z</time>
      </trkpt>
      <trkpt lat="41.182183" lon="-4.315083">
        <ele>2554.0</ele>
        <time>2016-07-12T16:13:02Z</time>
      </trkpt>
      <trkpt lat="41.182183" lon="-4.314967">
        <ele>2556.0</ele>
        <time>2016-07-12T16:13:03Z</time>
      </trkpt>
      <trkpt lat="41.182183" lon="-4.314850">
        <ele>2556.0</ele>
        <time>2016-07-12T16:13:04Z</time>
      </trkpt>
      <trkpt lat="41.182167" lon="-4.314717">
        <ele>2556.0</ele>
        <time>2016-07-12T16:13:05Z</time>
      </trkpt>
      <trkpt lat="41.182133" lon="-4.314600">
        <ele>2557.0</ele>
        <time>2016-07-12T16:13:06Z</time>
      </trkpt>
      <trkpt lat="41.182100" lon="-4.314467">
        <ele>2557.0</ele>
        <time>2016-07-12T16:13:07Z</time>
      </trkpt>
      <trkpt lat="41.182050" lon="-4.314333">
        <ele>2558.0</ele>
        <time>2016-07-12T16:13:08Z</time>
      </trkpt>
      <trkpt lat="41.182000" lon="-4.314217">
        <ele>2559.0</ele>
        <time>2016-07-12T16:13:09Z</time>
      </trkpt>
      <trkpt lat="41.181950" lon="-4.314100">
        <ele>2560.0</ele>
        <time>2016-07-12T16:13:10Z</time>
      </trkpt>
      <trkpt lat="41.181883" lon="-4.313983">
        <ele>2561.0</ele>
        <time>2016-07-12T16:13:11Z</time>
      </trkpt>
      <trkpt lat="41.181817" lon="-4.313883">
        <ele>2561.0</ele>
        <time>2016-07-12T16:13:12Z</time>
      </trkpt>
      <trkpt lat="41.181750" lon="-4.313767">
        <ele>2561.0</ele>
        <time>2016-07-12T16:13:13Z</time>
      </trkpt>
      <trkpt lat="41.181667" lon="-4.313667">
        <ele>2561.0</ele>
        <time>2016-07-12T16:13:14Z</time>
      </trkpt>
      <trkpt lat="41.181567" lon="-4.313550">
        <ele>2561.0</ele>
        <time>2016-07-12T16:13:15Z</time>
      </trkpt>
      <trkpt lat="41.181483" lon="-4.313450">
        <ele>2561.0</ele>
        <time>2016-07-12T16:13:16Z</time>
      </trkpt>
      <trkpt lat="41.181400" lon="-4.313350">
        <ele>2560.0</ele>
        <time>2016-07-12T16:13:17Z</time>
      </trkpt>
      <trkpt lat="41.181317" lon="-4.313250">
        <ele>2560.0</ele>
        <time>2016-07-12T16:13:18Z</time>
      </trkpt>
      <trkpt lat="41.181217" lon="-4.313167">
        <ele>2559.0</ele>
        <time>2016-07-12T16:13:19Z</time>
      </trkpt>
      <trkpt lat="41.181100" lon="-4.313067">
        <ele>2559.0</ele>
        <time>2016-07-12T16:13:20Z</time>
      </trkpt>
      <trkpt lat="41.181000" lon="-4.313000">
        <ele>2559.0</ele>
        <time>2016-07-12T16:13:21Z</time>
      </trkpt>
      <trkpt lat="41.180883" lon="-4.312933">
        <ele>2557.0</ele>
        <time>2016-07-12T16:13:22Z</time>
      </trkpt>
      <trkpt lat="41.180767" lon="-4.312867">
        <ele>2555.0</ele>
        <time>2016-07-12T16:13:23Z</time>
      </trkpt>
      <trkpt lat="41.180650" lon="-4.312800">
        <ele>2553.0</ele>
        <time>2016-07-12T16:13:24Z</time>
      </trkpt>
      <trkpt lat="41.180517" lon="-4.312733">
        <ele>2551.0</ele>
        <time>2016-07-12T16:13:25Z</time>
      </trkpt>
      <trkpt lat="41.180400" lon="-4.312683">
        <ele>2550.0</ele>
        <time>2016-07-12T16:13:26Z</time>
      </trkpt>
      <trkpt lat="41.180267" lon="-4.312633">
        <ele>2548.0</ele>
        <time>2016-07-12T16:13:27Z</time>
      </trkpt>
      <trkpt lat="41.180133" lon="-4.312600">
        <ele>2546.0</ele>
        <time>2016-07-12T16:13:28Z</time>
      </trkpt>
      <trkpt lat="41.180017" lon="-4.312567">
        <ele>2543.0</ele>
        <time>2016-07-12T16:13:29Z</time>
      </trkpt>
      <trkpt lat="41.179883" lon="-4.312533">
        <ele>2540.0</ele>
        <time>2016-07-12T16:13:30Z</time>
      </trkpt>
      <trkpt lat="41.179750" lon="-4.312500">
        <ele>2537.0</ele>
        <time>2016-07-12T16:13:31Z</time>
      </trkpt>
      <trkpt lat="41.179633" lon="-4.312467">
        <ele>2534.0</ele>
        <time>2016-07-12T16:13:32Z</time>
      </trkpt>
      <trkpt lat="41.179500" lon="-4.312433">
        <ele>2532.0</ele>
        <time>2016-07-12T16:13:33Z</time>
      </trkpt>
      <trkpt lat="41.179383" lon="-4.312433">
        <ele>2529.0</ele>
        <time>2016-07-12T16:13:34Z</time>
      </trkpt>
      <trkpt lat="41.179283" lon="-4.312450">
        <ele>2526.0</ele>
        <time>2016-07-12T16:13:35Z</time>
      </trkpt>
      <trkpt lat="41.179167" lon="-4.312450">
        <ele>2523.0</ele>
        <time>2016-07-12T16:13:36Z</time>
      </trkpt>
      <trkpt lat="41.179033" lon="-4.312433">
        <ele>2520.0</ele>
        <time>2016-07-12T16:13:37Z</time>
      </trkpt>
      <trkpt lat="41.178900" lon="-4.312400">
        <ele>2518.0</ele>
        <time>2016-07-12T16:13:38Z</time>
      </trkpt>
      <trkpt lat="41.178767" lon="-4.312350">
        <ele>2517.0</ele>
        <time>2016-07-12T16:13:39Z</time>
      </trkpt>
      <trkpt lat="41.178650" lon="-4.312283">
        <ele>2517.0</ele>
        <time>2016-07-12T16:13:40Z</time>
      </trkpt>
      <trkpt lat="41.178533" lon="-4.312217">
        <ele>2517.0</ele>
        <time>2016-07-12T16:13:41Z</time>
      </trkpt>
      <trkpt lat="41.178417" lon="-4.312150">
        <ele>2516.0</ele>
        <time>2016-07-12T16:13:42Z</time>
      </trkpt>
      <trkpt lat="41.178300" lon="-4.312067">
        <ele>2515.0</ele>
        <time>2016-07-12T16:13:43Z</time>
      </trkpt>
      <trkpt lat="41.178167" lon="-4.311983">
        <ele>2514.0</ele>
        <time>2016-07-12T16:13:44Z</time>
      </trkpt>
      <trkpt lat="41.178033" lon="-4.311883">
        <ele>2514.0</ele>
        <time>2016-07-12T16:13:45Z</time>
      </trkpt>
      <trkpt lat="41.177917" lon="-4.311783">
        <ele>2514.0</ele>
        <time>2016-07-12T16:13:46Z</time>
      </trkpt>
      <trkpt lat="41.177783" lon="-4.311683">
        <ele>2514.0</ele>
        <time>2016-07-12T16:13:47Z</time>
      </trkpt>
      <trkpt lat="41.177650" lon="-4.311583">
        <ele>2514.0</ele>
        <time>2016-07-12T16:13:48Z</time>
      </trkpt>
      <trkpt lat="41.177517" lon="-4.311500">
        <ele>2514.0</ele>
        <time>2016-07-12T16:13:49Z</time>
      </trkpt>
      <trkpt lat="41.177383" lon="-4.311417">
        <ele>2515.0</ele>
        <time>2016-07-12T16:13:50Z</time>
      </trkpt>
      <trkpt lat="41.177250" lon="-4.311333">
        <ele>2516.0</ele>
        <time>2016-07-12T16:13:51Z</time>
      </trkpt>
      <trkpt lat="41.177133" lon="-4.311250">
        <ele>2517.0</ele>
        <time>2016-07-12T16:13:52Z</time>
      </trkpt>
      <trkpt lat="41.177000" lon="-4.311167">
        <ele>2518.0</ele>
        <time>2016-07-12T16:13:53Z</time>
      </trkpt>
      <trkpt lat="41.176867" lon="-4.311100">
        <ele>2520.0</ele>
        <time>2016-07-12T16:13:54Z</time>
      </trkpt>
      <trkpt lat="41.176750" lon="-4.311033">
        <ele>2521.0</ele>
        <time>2016-07-12T16:13:55Z</time>
      </trkpt>
      <trkpt lat="41.176633" lon="-4.310967">
        <ele>2522.0</ele>
        <time>2016-07-12T16:13:56Z</time>
      </trkpt>
      <trkpt lat="41.176517" lon="-4.310900">
        <ele>2521.0</ele>
        <time>2016-07-12T16:13:57Z</time>
      </trkpt>
      <trkpt lat="41.176417" lon="-4.310817">
        <ele>2521.0</ele>
        <time>2016-07-12T16:13:58Z</time>
      </trkpt>
      <trkpt lat="41.176300" lon="-4.310733">
        <ele>2519.0</ele>
        <time>2016-07-12T16:13:59Z</time>
      </trkpt>
      <trkpt lat="41.176183" lon="-4.310667">
        <ele>2516.0</ele>
        <time>2016-07-12T16:14:00Z</time>
      </trkpt>
      <trkpt lat="41.176033" lon="-4.310600">
        <ele>2514.0</ele>
        <time>2016-07-12T16:14:01Z</time>
      </trkpt>
      <trkpt lat="41.175900" lon="-4.310533">
        <ele>2513.0</ele>
        <time>2016-07-12T16:14:02Z</time>
      </trkpt>
      <trkpt lat="41.175767" lon="-4.310467">
        <ele>2513.0</ele>
        <time>2016-07-12T16:14:03Z</time>
      </trkpt>
      <trkpt lat="41.175633" lon="-4.310383">
        <ele>2512.0</ele>
        <time>2016-07-12T16:14:04Z</time>
      </trkpt>
      <trkpt lat="41.175517" lon="-4.310300">
        <ele>2511.0</ele>
        <time>2016-07-12T16:14:05Z</time>
      </trkpt>
      <trkpt lat="41.175400" lon="-4.310233">
        <ele>2510.0</ele>
        <time>2016-07-12T16:14:06Z</time>
      </trkpt>
      <trkpt lat="41.175283" lon="-4.310167">
        <ele>2509.0</ele>
        <time>2016-07-12T16:14:07Z</time>
      </trkpt>
      <trkpt lat="41.175150" lon="-4.310100">
        <ele>2507.0</ele>
        <time>2016-07-12T16:14:08Z</time>
      </trkpt>
      <trkpt lat="41.175033" lon="-4.310033">
        <ele>2505.0</ele>
        <time>2016-07-12T16:14:09Z</time>
      </trkpt>
      <trkpt lat="41.174917" lon="-4.309967">
        <ele>2504.0</ele>
        <time>2016-07-12T16:14:10Z</time>
      </trkpt>
      <trkpt lat="41.174783" lon="-4.309883">
        <ele>2502.0</ele>
        <time>2016-07-12T16:14:11Z</time>
      </trkpt>
      <trkpt lat="41.174667" lon="-4.309800">
        <ele>2500.0</ele>
        <time>2016-07-12T16:14:12Z</time>
      </trkpt>
      <trkpt lat="41.174550" lon="-4.309717">
        <ele>2498.0</ele>
        <time>2016-07-12T16:14:13Z</time>
      </trkpt>
      <trkpt lat="41.174433" lon="-4.309633">
        <ele>2497.0</ele>
        <time>2016-07-12T16:14:14Z</time>
      </trkpt>
      <trkpt lat="41.174300" lon="-4.309550">
        <ele>2496.0</ele>
        <time>2016-07-12T16:14:15Z</time>
      </trkpt>
      <trkpt lat="41.174183" lon="-4.309483">
        <ele>2495.0</ele>
        <time>2016-07-12T16:14:16Z</time>
      </trkpt>
      <trkpt lat="41.174067" lon="-4.309433">
        <ele>2494.0</ele>
        <time>2016-07-12T16:14:17Z</time>
      </trkpt>
      <trkpt lat="41.173950" lon="-4.309367">
        <ele>2493.0</ele>
        <time>2016-07-12T16:14:18Z</time>
      </trkpt>
      <trkpt lat="41.173833" lon="-4.309300">
        <ele>2492.0</ele>
        <time>2016-07-12T16:14:19Z</time>
      </trkpt>
      <trkpt lat="41.173717" lon="-4.309250">
        <ele>2490.0</ele>
        <time>2016-07-12T16:14:20Z</time>
      </trkpt>
      <trkpt lat="41.173583" lon="-4.309200">
        <ele>2488.0</ele>
        <time>2016-07-12T16:14:21Z</time>
      </trkpt>
      <trkpt lat="41.173450" lon="-4.309167">
        <ele>2487.0</ele>
        <time>2016-07-12T16:14:22Z</time>
      </trkpt>
      <trkpt lat="41.173333" lon="-4.309133">
        <ele>2487.0</ele>
        <time>2016-07-12T16:14:23Z</time>
      </trkpt>
      <trkpt lat="41.173217" lon="-4.309100">
        <ele>2486.0</ele>
        <time>2016-07-12T16:14:24Z</time>
      </trkpt>
      <trkpt lat="41.173083" lon="-4.309067">
        <ele>2484.0</ele>
        <time>2016-07-12T16:14:25Z</time>
      </trkpt>
      <trkpt lat="41.172967" lon="-4.309033">
        <ele>2482.0</ele>
        <time>2016-07-12T16:14:26Z</time>
      </trkpt>
      <trkpt lat="41.172833" lon="-4.309000">
        <ele>2480.0</ele>
        <time>2016-07-12T16:14:27Z</time>
      </trkpt>
      <trkpt lat="41.172717" lon="-4.308967">
        <ele>2479.0</ele>
        <time>2016-07-12T16:14:28Z</time>
      </trkpt>
      <trkpt lat="41.172583" lon="-4.308933">
        <ele>2477.0</ele>
        <time>2016-07-12T16:14:29Z</time>
      </trkpt>
      <trkpt lat="41.172467" lon="-4.308883">
        <ele>2476.0</ele>
        <time>2016-07-12T16:14:30Z</time>
      </trkpt>
      <trkpt lat="41.172350" lon="-4.308833">
        <ele>2475.0</ele>
        <time>2016-07-12T16:14:31Z</time>
      </trkpt>
      <trkpt lat="41.172233" lon="-4.308783">
        <ele>2472.0</ele>
        <time>2016-07-12T16:14:32Z</time>
      </trkpt>
      <trkpt lat="41.172117" lon="-4.308733">
        <ele>2470.0</ele>
        <time>2016-07-12T16:14:33Z</time>
      </trkpt>
      <trkpt lat="41.172000" lon="-4.308683">
        <ele>2467.0</ele>
        <time>2016-07-12T16:14:34Z</time>
      </trkpt>
      <trkpt lat="41.171867" lon="-4.308633">
        <ele>2465.0</ele>
        <time>2016-07-12T16:14:35Z</time>
      </trkpt>
      <trkpt lat="41.171750" lon="-4.308567">
        <ele>2464.0</ele>
        <time>2016-07-12T16:14:36Z</time>
      </trkpt>
      <trkpt lat="41.171633" lon="-4.308483">
        <ele>2462.0</ele>
        <time>2016-07-12T16:14:37Z</time>
      </trkpt>
      <trkpt lat="41.171517" lon="-4.308400">
        <ele>2460.0</ele>
        <time>2016-07-12T16:14:38Z</time>
      </trkpt>
      <trkpt lat="41.171400" lon="-4.308333">
        <ele>2457.0</ele>
        <time>2016-07-12T16:14:39Z</time>
      </trkpt>
      <trkpt lat="41.171283" lon="-4.308250">
        <ele>2455.0</ele>
        <time>2016-07-12T16:14:40Z</time>
      </trkpt>
      <trkpt lat="41.171167" lon="-4.308183">
        <ele>2452.0</ele>
        <time>2016-07-12T16:14:41Z</time>
      </trkpt>
      <trkpt lat="41.171050" lon="-4.308117">
        <ele>2450.0</ele>
        <time>2016-07-12T16:14:42Z</time>
      </trkpt>
      <trkpt lat="41.170933" lon="-4.308033">
        <ele>2447.0</ele>
        <time>2016-07-12T16:14:43Z</time>
      </trkpt>
      <trkpt lat="41.170817" lon="-4.307967">
        <ele>2444.0</ele>
        <time>2016-07-12T16:14:44Z</time>
      </trkpt>
      <trkpt lat="41.170683" lon="-4.307900">
        <ele>2440.0</ele>
        <time>2016-07-12T16:14:45Z</time>
      </trkpt>
      <trkpt lat="41.170533" lon="-4.307833">
        <ele>2437.0</ele>
        <time>2016-07-12T16:14:46Z</time>
      </trkpt>
      <trkpt lat="41.170400" lon="-4.307767">
        <ele>2435.0</ele>
        <time>2016-07-12T16:14:47Z</time>
      </trkpt>
      <trkpt lat="41.170267" lon="-4.307683">
        <ele>2433.0</ele>
        <time>2016-07-12T16:14:48Z</time>
      </trkpt>
      <trkpt lat="41.170150" lon="-4.307617">
        <ele>2431.0</ele>
        <time>2016-07-12T16:14:49Z</time>
      </trkpt>
      <trkpt lat="41.170033" lon="-4.307533">
        <ele>2428.0</ele>
        <time>2016-07-12T16:14:50Z</time>
      </trkpt>
      <trkpt lat="41.169900" lon="-4.307467">
        <ele>2426.0</ele>
        <time>2016-07-12T16:14:51Z</time>
      </trkpt>
      <trkpt lat="41.169767" lon="-4.307417">
        <ele>2423.0</ele>
        <time>2016-07-12T16:14:52Z</time>
      </trkpt>
      <trkpt lat="41.169633" lon="-4.307333">
        <ele>2420.0</ele>
        <time>2016-07-12T16:14:53Z</time>
      </trkpt>
      <trkpt lat="41.169517" lon="-4.307250">
        <ele>2417.0</ele>
        <time>2016-07-12T16:14:54Z</time>
      </trkpt>
      <trkpt lat="41.169383" lon="-4.307167">
        <ele>2414.0</ele>
        <time>2016-07-12T16:14:55Z</time>
      </trkpt>
      <trkpt lat="41.169250" lon="-4.307083">
        <ele>2410.0</ele>
        <time>2016-07-12T16:14:56Z</time>
      </trkpt>
      <trkpt lat="41.169117" lon="-4.307000">
        <ele>2407.0</ele>
        <time>2016-07-12T16:14:57Z</time>
      </trkpt>
      <trkpt lat="41.169000" lon="-4.306900">
        <ele>2405.0</ele>
        <time>2016-07-12T16:14:58Z</time>
      </trkpt>
      <trkpt lat="41.168867" lon="-4.306817">
        <ele>2402.0</ele>
        <time>2016-07-12T16:14:59Z</time>
      </trkpt>
      <trkpt lat="41.168750" lon="-4.306717">
        <ele>2400.0</ele>
        <time>2016-07-12T16:15:00Z</time>
      </trkpt>
      <trkpt lat="41.168633" lon="-4.306617">
        <ele>2396.0</ele>
        <time>2016-07-12T16:15:01Z</time>
      </trkpt>
      <trkpt lat="41.168517" lon="-4.306533">
        <ele>2391.0</ele>
        <time>2016-07-12T16:15:02Z</time>
      </trkpt>
      <trkpt lat="41.168367" lon="-4.306433">
        <ele>2386.0</ele>
        <time>2016-07-12T16:15:03Z</time>
      </trkpt>
      <trkpt lat="41.168233" lon="-4.306350">
        <ele>2383.0</ele>
        <time>2016-07-12T16:15:04Z</time>
      </trkpt>
      <trkpt lat="41.168100" lon="-4.306250">
        <ele>2381.0</ele>
        <time>2016-07-12T16:15:05Z</time>
      </trkpt>
      <trkpt lat="41.167967" lon="-4.306167">
        <ele>2379.0</ele>
        <time>2016-07-12T16:15:06Z</time>
      </trkpt>
      <trkpt lat="41.167850" lon="-4.306067">
        <ele>2377.0</ele>
        <time>2016-07-12T16:15:07Z</time>
      </trkpt>
      <trkpt lat="41.167733" lon="-4.306000">
        <ele>2375.0</ele>
        <time>2016-07-12T16:15:08Z</time>
      </trkpt>
      <trkpt lat="41.167617" lon="-4.305917">
        <ele>2371.0</ele>
        <time>2016-07-12T16:15:09Z</time>
      </trkpt>
      <trkpt lat="41.167500" lon="-4.305833">
        <ele>2368.0</ele>
        <time>2016-07-12T16:15:10Z</time>
      </trkpt>
      <trkpt lat="41.167367" lon="-4.305750">
        <ele>2364.0</ele>
        <time>2016-07-12T16:15:11Z</time>
      </trkpt>
      <trkpt lat="41.167250" lon="-4.305650">
        <ele>2361.0</ele>
        <time>2016-07-12T16:15:12Z</time>
      </trkpt>
      <trkpt lat="41.167150" lon="-4.305550">
        <ele>2358.0</ele>
        <time>2016-07-12T16:15:13Z</time>
      </trkpt>
      <trkpt lat="41.167033" lon="-4.305450">
        <ele>2355.0</ele>
        <time>2016-07-12T16:15:14Z</time>
      </trkpt>
      <trkpt lat="41.166933" lon="-4.305350">
        <ele>2350.0</ele>
        <time>2016-07-12T16:15:15Z</time>
      </trkpt>
      <trkpt lat="41.166817" lon="-4.305250">
        <ele>2345.0</ele>
        <time>2016-07-12T16:15:16Z</time>
      </trkpt>
      <trkpt lat="41.166700" lon="-4.305133">
        <ele>2340.0</ele>
        <time>2016-07-12T16:15:17Z</time>
      </trkpt>
      <trkpt lat="41.166583" lon="-4.305033">
        <ele>2336.0</ele>
        <time>2016-07-12T16:15:18Z</time>
      </trkpt>
      <trkpt lat="41.166467" lon="-4.304933">
        <ele>2331.0</ele>
        <time>2016-07-12T16:15:19Z</time>
      </trkpt>
      <trkpt lat="41.166350" lon="-4.304850">
        <ele>2326.0</ele>
        <time>2016-07-12T16:15:20Z</time>
      </trkpt>
      <trkpt lat="41.166217" lon="-4.304750">
        <ele>2321.0</ele>
        <time>2016-07-12T16:15:21Z</time>
      </trkpt>
      <trkpt lat="41.166100" lon="-4.304667">
        <ele>2316.0</ele>
        <time>2016-07-12T16:15:22Z</time>
      </trkpt>
      <trkpt lat="41.165967" lon="-4.304583">
        <ele>2312.0</ele>
        <time>2016-07-12T16:15:23Z</time>
      </trkpt>
      <trkpt lat="41.165833" lon="-4.304500">
        <ele>2308.0</ele>
        <time>2016-07-12T16:15:24Z</time>
      </trkpt>
      <trkpt lat="41.165717" lon="-4.304400">
        <ele>2304.0</ele>
        <time>2016-07-12T16:15:25Z</time>
      </trkpt>
      <trkpt lat="41.165600" lon="-4.304300">
        <ele>2300.0</ele>
        <time>2016-07-12T16:15:26Z</time>
      </trkpt>
      <trkpt lat="41.165483" lon="-4.304217">
        <ele>2296.0</ele>
        <time>2016-07-12T16:15:27Z</time>
      </trkpt>
      <trkpt lat="41.165367" lon="-4.304117">
        <ele>2292.0</ele>
        <time>2016-07-12T16:15:28Z</time>
      </trkpt>
      <trkpt lat="41.165250" lon="-4.304033">
        <ele>2288.0</ele>
        <time>2016-07-12T16:15:29Z</time>
      </trkpt>
      <trkpt lat="41.165133" lon="-4.303933">
        <ele>2284.0</ele>
        <time>2016-07-12T16:15:30Z</time>
      </trkpt>
      <trkpt lat="41.165017" lon="-4.303850">
        <ele>2281.0</ele>
        <time>2016-07-12T16:15:31Z</time>
      </trkpt>
      <trkpt lat="41.164883" lon="-4.303750">
        <ele>2277.0</ele>
        <time>2016-07-12T16:15:32Z</time>
      </trkpt>
      <trkpt lat="41.164767" lon="-4.303683">
        <ele>2274.0</ele>
        <time>2016-07-12T16:15:33Z</time>
      </trkpt>
      <trkpt lat="41.164633" lon="-4.303600">
        <ele>2271.0</ele>
        <time>2016-07-12T16:15:34Z</time>
      </trkpt>
      <trkpt lat="41.164500" lon="-4.303533">
        <ele>2268.0</ele>
        <time>2016-07-12T16:15:35Z</time>
      </trkpt>
      <trkpt lat="41.164383" lon="-4.303467">
        <ele>2264.0</ele>
        <time>2016-07-12T16:15:36Z</time>
      </trkpt>
      <trkpt lat="41.164233" lon="-4.303383">
        <ele>2260.0</ele>
        <time>2016-07-12T16:15:37Z</time>
      </trkpt>
      <trkpt lat="41.164100" lon="-4.303317">
        <ele>2257.0</ele>
        <time>2016-07-12T16:15:38Z</time>
      </trkpt>
      <trkpt lat="41.163950" lon="-4.303233">
        <ele>2254.0</ele>
        <time>2016-07-12T16:15:39Z</time>
      </trkpt>
      <trkpt lat="41.163817" lon="-4.303167">
        <ele>2251.0</ele>
        <time>2016-07-12T16:15:40Z</time>
      </trkpt>
      <trkpt lat="41.163667" lon="-4.303083">
        <ele>2249.0</ele>
        <time>2016-07-12T16:15:41Z</time>
      </trkpt>
      <trkpt lat="41.163533" lon="-4.303000">
        <ele>2246.0</ele>
        <time>2016-07-12T16:15:42Z</time>
      </trkpt>
      <trkpt lat="41.163400" lon="-4.302917">
        <ele>2243.0</ele>
        <time>2016-07-12T16:15:43Z</time>
      </trkpt>
      <trkpt lat="41.163250" lon="-4.302817">
        <ele>2239.0</ele>
        <time>2016-07-12T16:15:44Z</time>
      </trkpt>
      <trkpt lat="41.163100" lon="-4.302733">
        <ele>2234.0</ele>
        <time>2016-07-12T16:15:45Z</time>
      </trkpt>
      <trkpt lat="41.162933" lon="-4.302633">
        <ele>2231.0</ele>
        <time>2016-07-12T16:15:46Z</time>
      </trkpt>
      <trkpt lat="41.162783" lon="-4.302550">
        <ele>2229.0</ele>
        <time>2016-07-12T16:15:47Z</time>
      </trkpt>
      <trkpt lat="41.162650" lon="-4.302450">
        <ele>2227.0</ele>
        <time>2016-07-12T16:15:48Z</time>
      </trkpt>
      <trkpt lat="41.162517" lon="-4.302350">
        <ele>2224.0</ele>
        <time>2016-07-12T16:15:49Z</time>
      </trkpt>
      <trkpt lat="41.162383" lon="-4.302233">
        <ele>2221.0</ele>
        <time>2016-07-12T16:15:50Z</time>
      </trkpt>
      <trkpt lat="41.162250" lon="-4.302117">
        <ele>2216.0</ele>
        <time>2016-07-12T16:15:51Z</time>
      </trkpt>
      <trkpt lat="41.162100" lon="-4.302017">
        <ele>2212.0</ele>
        <time>2016-07-12T16:15:52Z</time>
      </trkpt>
      <trkpt lat="41.161967" lon="-4.301900">
        <ele>2209.0</ele>
        <time>2016-07-12T16:15:53Z</time>
      </trkpt>
      <trkpt lat="41.161833" lon="-4.301783">
        <ele>2205.0</ele>
        <time>2016-07-12T16:15:54Z</time>
      </trkpt>
      <trkpt lat="41.161700" lon="-4.301667">
        <ele>2201.0</ele>
        <time>2016-07-12T16:15:55Z</time>
      </trkpt>
      <trkpt lat="41.161567" lon="-4.301550">
        <ele>2196.0</ele>
        <time>2016-07-12T16:15:56Z</time>
      </trkpt>
      <trkpt lat="41.161433" lon="-4.301433">
        <ele>2191.0</ele>
        <time>2016-07-12T16:15:57Z</time>
      </trkpt>
      <trkpt lat="41.161300" lon="-4.301300">
        <ele>2187.0</ele>
        <time>2016-07-12T16:15:58Z</time>
      </trkpt>
      <trkpt lat="41.161167" lon="-4.301183">
        <ele>2182.0</ele>
        <time>2016-07-12T16:15:59Z</time>
      </trkpt>
      <trkpt lat="41.161017" lon="-4.301033">
        <ele>2178.0</ele>
        <time>2016-07-12T16:16:00Z</time>
      </trkpt>
      <trkpt lat="41.160883" lon="-4.300900">
        <ele>2175.0</ele>
        <time>2016-07-12T16:16:01Z</time>
      </trkpt>
      <trkpt lat="41.160750" lon="-4.300767">
        <ele>2173.0</ele>
        <time>2016-07-12T16:16:02Z</time>
      </trkpt>
      <trkpt lat="41.160617" lon="-4.300633">
        <ele>2171.0</ele>
        <time>2016-07-12T16:16:03Z</time>
      </trkpt>
      <trkpt lat="41.160500" lon="-4.300483">
        <ele>2170.0</ele>
        <time>2016-07-12T16:16:04Z</time>
      </trkpt>
      <trkpt lat="41.160400" lon="-4.300350">
        <ele>2167.0</ele>
        <time>2016-07-12T16:16:05Z</time>
      </trkpt>
      <trkpt lat="41.160300" lon="-4.300217">
        <ele>2165.0</ele>
        <time>2016-07-12T16:16:06Z</time>
      </trkpt>
      <trkpt lat="41.160200" lon="-4.300083">
        <ele>2161.0</ele>
        <time>2016-07-12T16:16:07Z</time>
      </trkpt>
      <trkpt lat="41.160083" lon="-4.299967">
        <ele>2157.0</ele>
        <time>2016-07-12T16:16:08Z</time>
      </trkpt>
      <trkpt lat="41.159950" lon="-4.299833">
        <ele>2153.0</ele>
        <time>2016-07-12T16:16:09Z</time>
      </trkpt>
      <trkpt lat="41.159817" lon="-4.299700">
        <ele>2151.0</ele>
        <time>2016-07-12T16:16:10Z</time>
      </trkpt>
      <trkpt lat="41.159700" lon="-4.299583">
        <ele>2149.0</ele>
        <time>2016-07-12T16:16:11Z</time>
      </trkpt>
      <trkpt lat="41.159583" lon="-4.299467">
        <ele>2147.0</ele>
        <time>2016-07-12T16:16:12Z</time>
      </trkpt>
      <trkpt lat="41.159467" lon="-4.299350">
        <ele>2145.0</ele>
        <time>2016-07-12T16:16:13Z</time>
      </trkpt>
      <trkpt lat="41.159350" lon="-4.299250">
        <ele>2143.0</ele>
        <time>2016-07-12T16:16:14Z</time>
      </trkpt>
      <trkpt lat="41.159233" lon="-4.299133">
        <ele>2140.0</ele>
        <time>2016-07-12T16:16:15Z</time>
      </trkpt>
      <trkpt lat="41.159117" lon="-4.299017">
        <ele>2138.0</ele>
        <time>2016-07-12T16:16:16Z</time>
      </trkpt>
      <trkpt lat="41.159000" lon="-4.298900">
        <ele>2136.0</ele>
        <time>2016-07-12T16:16:17Z</time>
      </trkpt>
      <trkpt lat="41.158900" lon="-4.298783">
        <ele>2133.0</ele>
        <time>2016-07-12T16:16:18Z</time>
      </trkpt>
      <trkpt lat="41.158783" lon="-4.298667">
        <ele>2130.0</ele>
        <time>2016-07-12T16:16:19Z</time>
      </trkpt>
      <trkpt lat="41.158650" lon="-4.298550">
        <ele>2127.0</ele>
        <time>2016-07-12T16:16:20Z</time>
      </trkpt>
      <trkpt lat="41.158533" lon="-4.298433">
        <ele>2124.0</ele>
        <time>2016-07-12T16:16:21Z</time>
      </trkpt>
      <trkpt lat="41.158417" lon="-4.298317">
        <ele>2122.0</ele>
        <time>2016-07-12T16:16:22Z</time>
      </trkpt>
      <trkpt lat="41.158300" lon="-4.298200">
        <ele>2119.0</ele>
        <time>2016-07-12T16:16:23Z</time>
      </trkpt>
      <trkpt lat="41.158183" lon="-4.298100">
        <ele>2117.0</ele>
        <time>2016-07-12T16:16:24Z</time>
      </trkpt>
      <trkpt lat="41.158067" lon="-4.298017">
        <ele>2114.0</ele>
        <time>2016-07-12T16:16:25Z</time>
      </trkpt>
      <trkpt lat="41.157950" lon="-4.297933">
        <ele>2111.0</ele>
        <time>2016-07-12T16:16:26Z</time>
      </trkpt>
      <trkpt lat="41.157817" lon="-4.297833">
        <ele>2107.0</ele>
        <time>2016-07-12T16:16:27Z</time>
      </trkpt>
      <trkpt lat="41.157700" lon="-4.297733">
        <ele>2104.0</ele>
        <time>2016-07-12T16:16:28Z</time>
      </trkpt>
      <trkpt lat="41.157567" lon="-4.297650">
        <ele>2100.0</ele>
        <time>2016-07-12T16:16:29Z</time>
      </trkpt>
      <trkpt lat="41.157433" lon="-4.297550">
        <ele>2096.0</ele>
        <time>2016-07-12T16:16:30Z</time>
      </trkpt>
      <trkpt lat="41.157300" lon="-4.297450">
        <ele>2092.0</ele>
        <time>2016-07-12T16:16:31Z</time>
      </trkpt>
      <trkpt lat="41.157167" lon="-4.297300">
        <ele>2088.0</ele>
        <time>2016-07-12T16:16:32Z</time>
      </trkpt>
      <trkpt lat="41.157033" lon="-4.297150">
        <ele>2084.0</ele>
        <time>2016-07-12T16:16:33Z</time>
      </trkpt>
      <trkpt lat="41.156900" lon="-4.297017">
        <ele>2082.0</ele>
        <time>2016-07-12T16:16:34Z</time>
      </trkpt>
      <trkpt lat="41.156783" lon="-4.296883">
        <ele>2079.0</ele>
        <time>2016-07-12T16:16:35Z</time>
      </trkpt>
      <trkpt lat="41.156667" lon="-4.296750">
        <ele>2076.0</ele>
        <time>2016-07-12T16:16:36Z</time>
      </trkpt>
      <trkpt lat="41.156533" lon="-4.296600">
        <ele>2072.0</ele>
        <time>2016-07-12T16:16:37Z</time>
      </trkpt>
      <trkpt lat="41.156417" lon="-4.296450">
        <ele>2069.0</ele>
        <time>2016-07-12T16:16:38Z</time>
      </trkpt>
      <trkpt lat="41.156300" lon="-4.296300">
        <ele>2065.0</ele>
        <time>2016-07-12T16:16:39Z</time>
      </trkpt>
      <trkpt lat="41.156183" lon="-4.296150">
        <ele>2062.0</ele>
        <time>2016-07-12T16:16:40Z</time>
      </trkpt>
      <trkpt lat="41.156067" lon="-4.296000">
        <ele>2059.0</ele>
        <time>2016-07-12T16:16:41Z</time>
      </trkpt>
      <trkpt lat="41.155933" lon="-4.295867">
        <ele>2057.0</ele>
        <time>2016-07-12T16:16:42Z</time>
      </trkpt>
      <trkpt lat="41.155817" lon="-4.295717">
        <ele>2054.0</ele>
        <time>2016-07-12T16:16:43Z</time>
      </trkpt>
      <trkpt lat="41.155700" lon="-4.295567">
        <ele>2051.0</ele>
        <time>2016-07-12T16:16:44Z</time>
      </trkpt>
      <trkpt lat="41.155583" lon="-4.295433">
        <ele>2047.0</ele>
        <time>2016-07-12T16:16:45Z</time>
      </trkpt>
      <trkpt lat="41.155450" lon="-4.295300">
        <ele>2044.0</ele>
        <time>2016-07-12T16:16:46Z</time>
      </trkpt>
      <trkpt lat="41.155333" lon="-4.295167">
        <ele>2041.0</ele>
        <time>2016-07-12T16:16:47Z</time>
      </trkpt>
      <trkpt lat="41.155200" lon="-4.295050">
        <ele>2037.0</ele>
        <time>2016-07-12T16:16:48Z</time>
      </trkpt>
      <trkpt lat="41.155067" lon="-4.294917">
        <ele>2034.0</ele>
        <time>2016-07-12T16:16:49Z</time>
      </trkpt>
      <trkpt lat="41.154933" lon="-4.294800">
        <ele>2030.0</ele>
        <time>2016-07-12T16:16:50Z</time>
      </trkpt>
      <trkpt lat="41.154800" lon="-4.294683">
        <ele>2026.0</ele>
        <time>2016-07-12T16:16:51Z</time>
      </trkpt>
      <trkpt lat="41.154650" lon="-4.294567">
        <ele>2023.0</ele>
        <time>2016-07-12T16:16:52Z</time>
      </trkpt>
      <trkpt lat="41.154517" lon="-4.294467">
        <ele>2019.0</ele>
        <time>2016-07-12T16:16:53Z</time>
      </trkpt>
      <trkpt lat="41.154367" lon="-4.294350">
        <ele>2015.0</ele>
        <time>2016-07-12T16:16:54Z</time>
      </trkpt>
      <trkpt lat="41.154233" lon="-4.294217">
        <ele>2011.0</ele>
        <time>2016-07-12T16:16:55Z</time>
      </trkpt>
      <trkpt lat="41.154083" lon="-4.294100">
        <ele>2008.0</ele>
        <time>2016-07-12T16:16:56Z</time>
      </trkpt>
      <trkpt lat="41.153950" lon="-4.293983">
        <ele>2006.0</ele>
        <time>2016-07-12T16:16:57Z</time>
      </trkpt>
      <trkpt lat="41.153817" lon="-4.293883">
        <ele>2004.0</ele>
        <time>2016-07-12T16:16:58Z</time>
      </trkpt>
      <trkpt lat="41.153683" lon="-4.293800">
        <ele>2002.0</ele>
        <time>2016-07-12T16:16:59Z</time>
      </trkpt>
      <trkpt lat="41.153550" lon="-4.293700">
        <ele>1998.0</ele>
        <time>2016-07-12T16:17:00Z</time>
      </trkpt>
      <trkpt lat="41.153417" lon="-4.293600">
        <ele>1994.0</ele>
        <time>2016-07-12T16:17:01Z</time>
      </trkpt>
      <trkpt lat="41.153267" lon="-4.293517">
        <ele>1990.0</ele>
        <time>2016-07-12T16:17:02Z</time>
      </trkpt>
      <trkpt lat="41.153117" lon="-4.293433">
        <ele>1988.0</ele>
        <time>2016-07-12T16:17:03Z</time>
      </trkpt>
      <trkpt lat="41.152983" lon="-4.293350">
        <ele>1986.0</ele>
        <time>2016-07-12T16:17:04Z</time>
      </trkpt>
      <trkpt lat="41.152850" lon="-4.293283">
        <ele>1984.0</ele>
        <time>2016-07-12T16:17:05Z</time>
      </trkpt>
      <trkpt lat="41.152717" lon="-4.293200">
        <ele>1982.0</ele>
        <time>2016-07-12T16:17:06Z</time>
      </trkpt>
      <trkpt lat="41.152583" lon="-4.293133">
        <ele>1978.0</ele>
        <time>2016-07-12T16:17:07Z</time>
      </trkpt>
      <trkpt lat="41.152433" lon="-4.293067">
        <ele>1975.0</ele>
        <time>2016-07-12T16:17:08Z</time>
      </trkpt>
      <trkpt lat="41.152300" lon="-4.293017">
        <ele>1971.0</ele>
        <time>2016-07-12T16:17:09Z</time>
      </trkpt>
      <trkpt lat="41.152150" lon="-4.292950">
        <ele>1968.0</ele>
        <time>2016-07-12T16:17:10Z</time>
      </trkpt>
      <trkpt lat="41.152000" lon="-4.292867">
        <ele>1965.0</ele>
        <time>2016-07-12T16:17:11Z</time>
      </trkpt>
      <trkpt lat="41.151850" lon="-4.292800">
        <ele>1962.0</ele>
        <time>2016-07-12T16:17:12Z</time>
      </trkpt>
      <trkpt lat="41.151717" lon="-4.292733">
        <ele>1960.0</ele>
        <time>2016-07-12T16:17:13Z</time>
      </trkpt>
      <trkpt lat="41.151567" lon="-4.292650">
        <ele>1958.0</ele>
        <time>2016-07-12T16:17:14Z</time>
      </trkpt>
      <trkpt lat="41.151417" lon="-4.292583">
        <ele>1956.0</ele>
        <time>2016-07-12T16:17:15Z</time>
      </trkpt>
      <trkpt lat="41.151283" lon="-4.292500">
        <ele>1954.0</ele>
        <time>2016-07-12T16:17:16Z</time>
      </trkpt>
      <trkpt lat="41.151133" lon="-4.292417">
        <ele>1952.0</ele>
        <time>2016-07-12T16:17:17Z</time>
      </trkpt>
      <trkpt lat="41.150983" lon="-4.292317">
        <ele>1950.0</ele>
        <time>2016-07-12T16:17:18Z</time>
      </trkpt>
      <trkpt lat="41.150833" lon="-4.292233">
        <ele>1948.0</ele>
        <time>2016-07-12T16:17:19Z</time>
      </trkpt>
      <trkpt lat="41.150683" lon="-4.292133">
        <ele>1946.0</ele>
        <time>2016-07-12T16:17:20Z</time>
      </trkpt>
      <trkpt lat="41.150533" lon="-4.292017">
        <ele>1945.0</ele>
        <time>2016-07-12T16:17:21Z</time>
      </trkpt>
      <trkpt lat="41.150400" lon="-4.291917">
        <ele>1943.0</ele>
        <time>2016-07-12T16:17:22Z</time>
      </trkpt>
      <trkpt lat="41.150250" lon="-4.291800">
        <ele>1941.0</ele>
        <time>2016-07-12T16:17:23Z</time>
      </trkpt>
      <trkpt lat="41.150117" lon="-4.291700">
        <ele>1940.0</ele>
        <time>2016-07-12T16:17:24Z</time>
      </trkpt>
      <trkpt lat="41.149983" lon="-4.291617">
        <ele>1938.0</ele>
        <time>2016-07-12T16:17:25Z</time>
      </trkpt>
      <trkpt lat="41.149850" lon="-4.291533">
        <ele>1937.0</ele>
        <time>2016-07-12T16:17:26Z</time>
      </trkpt>
      <trkpt lat="41.149733" lon="-4.291450">
        <ele>1936.0</ele>
        <time>2016-07-12T16:17:27Z</time>
      </trkpt>
      <trkpt lat="41.149600" lon="-4.291350">
        <ele>1934.0</ele>
        <time>2016-07-12T16:17:28Z</time>
      </trkpt>
      <trkpt lat="41.149467" lon="-4.291233">
        <ele>1932.0</ele>
        <time>2016-07-12T16:17:29Z</time>
      </trkpt>
      <trkpt lat="41.149333" lon="-4.291117">
        <ele>1930.0</ele>
        <time>2016-07-12T16:17:30Z</time>
      </trkpt>
      <trkpt lat="41.149183" lon="-4.291017">
        <ele>1930.0</ele>
        <time>2016-07-12T16:17:31Z</time>
      </trkpt>
      <trkpt lat="41.149067" lon="-4.290900">
        <ele>1931.0</ele>
        <time>2016-07-12T16:17:32Z</time>
      </trkpt>
      <trkpt lat="41.148950" lon="-4.290783">
        <ele>1933.0</ele>
        <time>2016-07-12T16:17:33Z</time>
      </trkpt>
      <trkpt lat="41.148850" lon="-4.290683">
        <ele>1933.0</ele>
        <time>2016-07-12T16:17:34Z</time>
      </trkpt>
      <trkpt lat="41.148733" lon="-4.290583">
        <ele>1932.0</ele>
        <time>2016-07-12T16:17:35Z</time>
      </trkpt>
      <trkpt lat="41.148617" lon="-4.290483">
        <ele>1929.0</ele>
        <time>2016-07-12T16:17:36Z</time>
      </trkpt>
      <trkpt lat="41.148483" lon="-4.290367">
        <ele>1927.0</ele>
        <time>2016-07-12T16:17:37Z</time>
      </trkpt>
      <trkpt lat="41.148350" lon="-4.290233">
        <ele>1926.0</ele>
        <time>2016-07-12T16:17:38Z</time>
      </trkpt>
      <trkpt lat="41.148233" lon="-4.290117">
        <ele>1928.0</ele>
        <time>2016-07-12T16:17:39Z</time>
      </trkpt>
      <trkpt lat="41.148133" lon="-4.290000">
        <ele>1928.0</ele>
        <time>2016-07-12T16:17:40Z</time>
      </trkpt>
      <trkpt lat="41.148017" lon="-4.289900">
        <ele>1928.0</ele>
        <time>2016-07-12T16:17:41Z</time>
      </trkpt>
      <trkpt lat="41.147900" lon="-4.289783">
        <ele>1927.0</ele>
        <time>2016-07-12T16:17:42Z</time>
      </trkpt>
      <trkpt lat="41.147783" lon="-4.289667">
        <ele>1924.0</ele>
        <time>2016-07-12T16:17:43Z</time>
      </trkpt>
      <trkpt lat="41.147650" lon="-4.289550">
        <ele>1922.0</ele>
        <time>2016-07-12T16:17:44Z</time>
      </trkpt>
      <trkpt lat="41.147517" lon="-4.289417">
        <ele>1921.0</ele>
        <time>2016-07-12T16:17:45Z</time>
      </trkpt>
      <trkpt lat="41.147400" lon="-4.289300">
        <ele>1922.0</ele>
        <time>2016-07-12T16:17:46Z</time>
      </trkpt>
      <trkpt lat="41.147283" lon="-4.289200">
        <ele>1922.0</ele>
        <time>2016-07-12T16:17:47Z</time>
      </trkpt>
      <trkpt lat="41.147167" lon="-4.289100">
        <ele>1922.0</ele>
        <time>2016-07-12T16:17:48Z</time>
      </trkpt>
      <trkpt lat="41.147067" lon="-4.288983">
        <ele>1920.0</ele>
        <time>2016-07-12T16:17:49Z</time>
      </trkpt>
      <trkpt lat="41.146950" lon="-4.288867">
        <ele>1918.0</ele>
        <time>2016-07-12T16:17:50Z</time>
      </trkpt>
      <trkpt lat="41.146850" lon="-4.288733">
        <ele>1915.0</ele>
        <time>2016-07-12T16:17:51Z</time>
      </trkpt>
      <trkpt lat="41.146717" lon="-4.288617">
        <ele>1913.0</ele>
        <time>2016-07-12T16:17:52Z</time>
      </trkpt>
      <trkpt lat="41.146600" lon="-4.288517">
        <ele>1912.0</ele>
        <time>2016-07-12T16:17:53Z</time>
      </trkpt>
      <trkpt lat="41.146467" lon="-4.288417">
        <ele>1911.0</ele>
        <time>2016-07-12T16:17:54Z</time>
      </trkpt>
      <trkpt lat="41.146350" lon="-4.288317">
        <ele>1910.0</ele>
        <time>2016-07-12T16:17:55Z</time>
      </trkpt>
      <trkpt lat="41.146250" lon="-4.288217">
        <ele>1908.0</ele>
        <time>2016-07-12T16:17:56Z</time>
      </trkpt>
      <trkpt lat="41.146117" lon="-4.288117">
        <ele>1905.0</ele>
        <time>2016-07-12T16:17:57Z</time>
      </trkpt>
      <trkpt lat="41.146000" lon="-4.288000">
        <ele>1904.0</ele>
        <time>2016-07-12T16:17:58Z</time>
      </trkpt>
      <trkpt lat="41.145883" lon="-4.287900">
        <ele>1903.0</ele>
        <time>2016-07-12T16:17:59Z</time>
      </trkpt>
      <trkpt lat="41.145767" lon="-4.287817">
        <ele>1902.0</ele>
        <time>2016-07-12T16:18:00Z</time>
      </trkpt>
      <trkpt lat="41.145650" lon="-4.287733">
        <ele>1901.0</ele>
        <time>2016-07-12T16:18:01Z</time>
      </trkpt>
      <trkpt lat="41.145533" lon="-4.287650">
        <ele>1900.0</ele>
        <time>2016-07-12T16:18:02Z</time>
      </trkpt>
      <trkpt lat="41.145417" lon="-4.287550">
        <ele>1898.0</ele>
        <time>2016-07-12T16:18:03Z</time>
      </trkpt>
      <trkpt lat="41.145283" lon="-4.287467">
        <ele>1896.0</ele>
        <time>2016-07-12T16:18:04Z</time>
      </trkpt>
      <trkpt lat="41.145167" lon="-4.287383">
        <ele>1895.0</ele>
        <time>2016-07-12T16:18:05Z</time>
      </trkpt>
      <trkpt lat="41.145050" lon="-4.287283">
        <ele>1895.0</ele>
        <time>2016-07-12T16:18:06Z</time>
      </trkpt>
      <trkpt lat="41.144933" lon="-4.287200">
        <ele>1894.0</ele>
        <time>2016-07-12T16:18:07Z</time>
      </trkpt>
      <trkpt lat="41.144817" lon="-4.287133">
        <ele>1894.0</ele>
        <time>2016-07-12T16:18:08Z</time>
      </trkpt>
      <trkpt lat="41.144700" lon="-4.287050">
        <ele>1893.0</ele>
        <time>2016-07-12T16:18:09Z</time>
      </trkpt>
      <trkpt lat="41.144567" lon="-4.286967">
        <ele>1892.0</ele>
        <time>2016-07-12T16:18:10Z</time>
      </trkpt>
      <trkpt lat="41.144450" lon="-4.286867">
        <ele>1892.0</ele>
        <time>2016-07-12T16:18:11Z</time>
      </trkpt>
      <trkpt lat="41.144317" lon="-4.286767">
        <ele>1892.0</ele>
        <time>2016-07-12T16:18:12Z</time>
      </trkpt>
      <trkpt lat="41.144200" lon="-4.286683">
        <ele>1893.0</ele>
        <time>2016-07-12T16:18:13Z</time>
      </trkpt>
      <trkpt lat="41.144083" lon="-4.286600">
        <ele>1894.0</ele>
        <time>2016-07-12T16:18:14Z</time>
      </trkpt>
      <trkpt lat="41.143967" lon="-4.286517">
        <ele>1895.0</ele>
        <time>2016-07-12T16:18:15Z</time>
      </trkpt>
      <trkpt lat="41.143850" lon="-4.286417">
        <ele>1896.0</ele>
        <time>2016-07-12T16:18:16Z</time>
      </trkpt>
      <trkpt lat="41.143733" lon="-4.286317">
        <ele>1897.0</ele>
        <time>2016-07-12T16:18:17Z</time>
      </trkpt>
      <trkpt lat="41.143633" lon="-4.286200">
        <ele>1899.0</ele>
        <time>2016-07-12T16:18:18Z</time>
      </trkpt>
      <trkpt lat="41.143550" lon="-4.286100">
        <ele>1901.0</ele>
        <time>2016-07-12T16:18:19Z</time>
      </trkpt>
      <trkpt lat="41.143450" lon="-4.286000">
        <ele>1902.0</ele>
        <time>2016-07-12T16:18:20Z</time>
      </trkpt>
      <trkpt lat="41.143367" lon="-4.285917">
        <ele>1904.0</ele>
        <time>2016-07-12T16:18:21Z</time>
      </trkpt>
      <trkpt lat="41.143283" lon="-4.285833">
        <ele>1906.0</ele>
        <time>2016-07-12T16:18:22Z</time>
      </trkpt>
      <trkpt lat="41.143200" lon="-4.285750">
        <ele>1908.0</ele>
        <time>2016-07-12T16:18:23Z</time>
      </trkpt>
      <trkpt lat="41.143133" lon="-4.285667">
        <ele>1910.0</ele>
        <time>2016-07-12T16:18:24Z</time>
      </trkpt>
      <trkpt lat="41.143067" lon="-4.285567">
        <ele>1910.0</ele>
        <time>2016-07-12T16:18:25Z</time>
      </trkpt>
      <trkpt lat="41.142983" lon="-4.285467">
        <ele>1910.0</ele>
        <time>2016-07-12T16:18:26Z</time>
      </trkpt>
      <trkpt lat="41.142883" lon="-4.285383">
        <ele>1911.0</ele>
        <time>2016-07-12T16:18:27Z</time>
      </trkpt>
      <trkpt lat="41.142800" lon="-4.285317">
        <ele>1913.0</ele>
        <time>2016-07-12T16:18:28Z</time>
      </trkpt>
      <trkpt lat="41.142717" lon="-4.285250">
        <ele>1914.0</ele>
        <time>2016-07-12T16:18:29Z</time>
      </trkpt>
      <trkpt lat="41.142633" lon="-4.285183">
        <ele>1915.0</ele>
        <time>2016-07-12T16:18:30Z</time>
      </trkpt>
      <trkpt lat="41.142550" lon="-4.285100">
        <ele>1915.0</ele>
        <time>2016-07-12T16:18:31Z</time>
      </trkpt>
      <trkpt lat="41.142467" lon="-4.285017">
        <ele>1915.0</ele>
        <time>2016-07-12T16:18:32Z</time>
      </trkpt>
      <trkpt lat="41.142367" lon="-4.284933">
        <ele>1915.0</ele>
        <time>2016-07-12T16:18:33Z</time>
      </trkpt>
      <trkpt lat="41.142267" lon="-4.284883">
        <ele>1916.0</ele>
        <time>2016-07-12T16:18:34Z</time>
      </trkpt>
      <trkpt lat="41.142150" lon="-4.284867">
        <ele>1917.0</ele>
        <time>2016-07-12T16:18:35Z</time>
      </trkpt>
      <trkpt lat="41.142033" lon="-4.284850">
        <ele>1917.0</ele>
        <time>2016-07-12T16:18:36Z</time>
      </trkpt>
      <trkpt lat="41.141933" lon="-4.284833">
        <ele>1917.0</ele>
        <time>2016-07-12T16:18:37Z</time>
      </trkpt>
      <trkpt lat="41.141833" lon="-4.284817">
        <ele>1916.0</ele>
        <time>2016-07-12T16:18:38Z</time>
      </trkpt>
      <trkpt lat="41.141717" lon="-4.284817">
        <ele>1916.0</ele>
        <time>2016-07-12T16:18:39Z</time>
      </trkpt>
      <trkpt lat="41.141617" lon="-4.284817">
        <ele>1915.0</ele>
        <time>2016-07-12T16:18:40Z</time>
      </trkpt>
      <trkpt lat="41.141500" lon="-4.284867">
        <ele>1914.0</ele>
        <time>2016-07-12T16:18:41Z</time>
      </trkpt>
      <trkpt lat="41.141400" lon="-4.284917">
        <ele>1914.0</ele>
        <time>2016-07-12T16:18:42Z</time>
      </trkpt>
      <trkpt lat="41.141317" lon="-4.285000">
        <ele>1914.0</ele>
        <time>2016-07-12T16:18:43Z</time>
      </trkpt>
      <trkpt lat="41.141250" lon="-4.285083">
        <ele>1915.0</ele>
        <time>2016-07-12T16:18:44Z</time>
      </trkpt>
      <trkpt lat="41.141217" lon="-4.285183">
        <ele>1915.0</ele>
        <time>2016-07-12T16:18:45Z</time>
      </trkpt>
      <trkpt lat="41.141183" lon="-4.285300">
        <ele>1915.0</ele>
        <time>2016-07-12T16:18:46Z</time>
      </trkpt>
      <trkpt lat="41.141150" lon="-4.285400">
        <ele>1916.0</ele>
        <time>2016-07-12T16:18:47Z</time>
      </trkpt>
      <trkpt lat="41.141117" lon="-4.285500">
        <ele>1917.0</ele>
        <time>2016-07-12T16:18:48Z</time>
      </trkpt>
      <trkpt lat="41.141083" lon="-4.285600">
        <ele>1919.0</ele>
        <time>2016-07-12T16:18:49Z</time>
      </trkpt>
      <trkpt lat="41.141050" lon="-4.285700">
        <ele>1920.0</ele>
        <time>2016-07-12T16:18:50Z</time>
      </trkpt>
      <trkpt lat="41.141050" lon="-4.285800">
        <ele>1921.0</ele>
        <time>2016-07-12T16:18:51Z</time>
      </trkpt>
      <trkpt lat="41.141050" lon="-4.285883">
        <ele>1922.0</ele>
        <time>2016-07-12T16:18:52Z</time>
      </trkpt>
      <trkpt lat="41.141050" lon="-4.285967">
        <ele>1923.0</ele>
        <time>2016-07-12T16:18:53Z</time>
      </trkpt>
      <trkpt lat="41.141050" lon="-4.286050">
        <ele>1925.0</ele>
        <time>2016-07-12T16:18:54Z</time>
      </trkpt>
      <trkpt lat="41.141050" lon="-4.286117">
        <ele>1926.0</ele>
        <time>2016-07-12T16:18:55Z</time>
      </trkpt>
      <trkpt lat="41.141050" lon="-4.286183">
        <ele>1927.0</ele>
        <time>2016-07-12T16:18:56Z</time>
      </trkpt>
      <trkpt lat="41.141067" lon="-4.286250">
        <ele>1929.0</ele>
        <time>2016-07-12T16:18:57Z</time>
      </trkpt>
      <trkpt lat="41.141067" lon="-4.286300">
        <ele>1930.0</ele>
        <time>2016-07-12T16:18:58Z</time>
      </trkpt>
      <trkpt lat="41.141083" lon="-4.286333">
        <ele>1931.0</ele>
        <time>2016-07-12T16:18:59Z</time>
      </trkpt>
      <trkpt lat="41.141100" lon="-4.286383">
        <ele>1931.0</ele>
        <time>2016-07-12T16:19:00Z</time>
      </trkpt>
      <trkpt lat="41.141133" lon="-4.286417">
        <ele>1931.0</ele>
        <time>2016-07-12T16:19:01Z</time>
      </trkpt>
      <trkpt lat="41.141150" lon="-4.286450">
        <ele>1931.0</ele>
        <time>2016-07-12T16:19:02Z</time>
      </trkpt>
      <trkpt lat="41.141183" lon="-4.286467">
        <ele>1932.0</ele>
        <time>2016-07-12T16:19:03Z</time>
      </trkpt>
      <trkpt lat="41.141217" lon="-4.286483">
        <ele>1933.0</ele>
        <time>2016-07-12T16:19:04Z</time>
      </trkpt>
      <trkpt lat="41.141250" lon="-4.286483">
        <ele>1934.0</ele>
        <time>2016-07-12T16:19:05Z</time>
      </trkpt>
      <trkpt lat="41.141267" lon="-4.286483">
        <ele>1934.0</ele>
        <time>2016-07-12T16:19:06Z</time>
      </trkpt>
      <trkpt lat="41.141300" lon="-4.286467">
        <ele>1933.0</ele>
        <time>2016-07-12T16:19:07Z</time>
      </trkpt>
      <trkpt lat="41.141333" lon="-4.286433">
        <ele>1932.0</ele>
        <time>2016-07-12T16:19:08Z</time>
      </trkpt>
      <trkpt lat="41.141383" lon="-4.286383">
        <ele>1930.0</ele>
        <time>2016-07-12T16:19:09Z</time>
      </trkpt>
      <trkpt lat="41.141433" lon="-4.286317">
        <ele>1930.0</ele>
        <time>2016-07-12T16:19:10Z</time>
      </trkpt>
      <trkpt lat="41.141467" lon="-4.286233">
        <ele>1929.0</ele>
        <time>2016-07-12T16:19:11Z</time>
      </trkpt>
      <trkpt lat="41.141500" lon="-4.286133">
        <ele>1929.0</ele>
        <time>2016-07-12T16:19:12Z</time>
      </trkpt>
      <trkpt lat="41.141517" lon="-4.286050">
        <ele>1929.0</ele>
        <time>2016-07-12T16:19:13Z</time>
      </trkpt>
      <trkpt lat="41.141533" lon="-4.285967">
        <ele>1928.0</ele>
        <time>2016-07-12T16:19:14Z</time>
      </trkpt>
      <trkpt lat="41.141550" lon="-4.285867">
        <ele>1926.0</ele>
        <time>2016-07-12T16:19:15Z</time>
      </trkpt>
      <trkpt lat="41.141550" lon="-4.285750">
        <ele>1924.0</ele>
        <time>2016-07-12T16:19:16Z</time>
      </trkpt>
      <trkpt lat="41.141533" lon="-4.285617">
        <ele>1922.0</ele>
        <time>2016-07-12T16:19:17Z</time>
      </trkpt>
      <trkpt lat="41.141517" lon="-4.285467">
        <ele>1920.0</ele>
        <time>2016-07-12T16:19:18Z</time>
      </trkpt>
      <trkpt lat="41.141467" lon="-4.285317">
        <ele>1919.0</ele>
        <time>2016-07-12T16:19:19Z</time>
      </trkpt>
      <trkpt lat="41.141383" lon="-4.285167">
        <ele>1918.0</ele>
        <time>2016-07-12T16:19:20Z</time>
      </trkpt>
      <trkpt lat="41.141300" lon="-4.285050">
        <ele>1919.0</ele>
        <time>2016-07-12T16:19:21Z</time>
      </trkpt>
      <trkpt lat="41.141217" lon="-4.284917">
        <ele>1920.0</ele>
        <time>2016-07-12T16:19:22Z</time>
      </trkpt>
      <trkpt lat="41.141150" lon="-4.284800">
        <ele>1921.0</ele>
        <time>2016-07-12T16:19:23Z</time>
      </trkpt>
      <trkpt lat="41.141067" lon="-4.284683">
        <ele>1922.0</ele>
        <time>2016-07-12T16:19:24Z</time>
      </trkpt>
      <trkpt lat="41.140983" lon="-4.284583">
        <ele>1923.0</ele>
        <time>2016-07-12T16:19:25Z</time>
      </trkpt>
      <trkpt lat="41.140883" lon="-4.284500">
        <ele>1925.0</ele>
        <time>2016-07-12T16:19:26Z</time>
      </trkpt>
      <trkpt lat="41.140783" lon="-4.284433">
        <ele>1927.0</ele>
        <time>2016-07-12T16:19:27Z</time>
      </trkpt>
      <trkpt lat="41.140700" lon="-4.284367">
        <ele>1929.0</ele>
        <time>2016-07-12T16:19:28Z</time>
      </trkpt>
      <trkpt lat="41.140600" lon="-4.284300">
        <ele>1930.0</ele>
        <time>2016-07-12T16:19:29Z</time>
      </trkpt>
      <trkpt lat="41.140517" lon="-4.284217">
        <ele>1930.0</ele>
        <time>2016-07-12T16:19:30Z</time>
      </trkpt>
      <trkpt lat="41.140433" lon="-4.284150">
        <ele>1931.0</ele>
        <time>2016-07-12T16:19:31Z</time>
      </trkpt>
      <trkpt lat="41.140333" lon="-4.284100">
        <ele>1932.0</ele>
        <time>2016-07-12T16:19:32Z</time>
      </trkpt>
      <trkpt lat="41.140233" lon="-4.284050">
        <ele>1932.0</ele>
        <time>2016-07-12T16:19:33Z</time>
      </trkpt>
      <trkpt lat="41.140133" lon="-4.284017">
        <ele>1932.0</ele>
        <time>2016-07-12T16:19:34Z</time>
      </trkpt>
      <trkpt lat="41.140033" lon="-4.283983">
        <ele>1932.0</ele>
        <time>2016-07-12T16:19:35Z</time>
      </trkpt>
      <trkpt lat="41.139917" lon="-4.283967">
        <ele>1932.0</ele>
        <time>2016-07-12T16:19:36Z</time>
      </trkpt>
      <trkpt lat="41.139817" lon="-4.283967">
        <ele>1933.0</ele>
        <time>2016-07-12T16:19:37Z</time>
      </trkpt>
      <trkpt lat="41.139717" lon="-4.283967">
        <ele>1933.0</ele>
        <time>2016-07-12T16:19:38Z</time>
      </trkpt>
      <trkpt lat="41.139617" lon="-4.283983">
        <ele>1933.0</ele>
        <time>2016-07-12T16:19:39Z</time>
      </trkpt>
      <trkpt lat="41.139500" lon="-4.284000">
        <ele>1933.0</ele>
        <time>2016-07-12T16:19:40Z</time>
      </trkpt>
      <trkpt lat="41.139400" lon="-4.284033">
        <ele>1934.0</ele>
        <time>2016-07-12T16:19:41Z</time>
      </trkpt>
      <trkpt lat="41.139300" lon="-4.284067">
        <ele>1934.0</ele>
        <time>2016-07-12T16:19:42Z</time>
      </trkpt>
      <trkpt lat="41.139217" lon="-4.284117">
        <ele>1935.0</ele>
        <time>2016-07-12T16:19:43Z</time>
      </trkpt>
      <trkpt lat="41.139117" lon="-4.284150">
        <ele>1936.0</ele>
        <time>2016-07-12T16:19:44Z</time>
      </trkpt>
      <trkpt lat="41.139017" lon="-4.284183">
        <ele>1937.0</ele>
        <time>2016-07-12T16:19:45Z</time>
      </trkpt>
      <trkpt lat="41.138933" lon="-4.284233">
        <ele>1937.0</ele>
        <time>2016-07-12T16:19:46Z</time>
      </trkpt>
      <trkpt lat="41.138850" lon="-4.284300">
        <ele>1938.0</ele>
        <time>2016-07-12T16:19:47Z</time>
      </trkpt>
      <trkpt lat="41.138750" lon="-4.284367">
        <ele>1939.0</ele>
        <time>2016-07-12T16:19:48Z</time>
      </trkpt>
      <trkpt lat="41.138650" lon="-4.284433">
        <ele>1939.0</ele>
        <time>2016-07-12T16:19:49Z</time>
      </trkpt>
      <trkpt lat="41.138550" lon="-4.284483">
        <ele>1941.0</ele>
        <time>2016-07-12T16:19:50Z</time>
      </trkpt>
      <trkpt lat="41.138467" lon="-4.284533">
        <ele>1943.0</ele>
        <time>2016-07-12T16:19:51Z</time>
      </trkpt>
      <trkpt lat="41.138400" lon="-4.284567">
        <ele>1944.0</ele>
        <time>2016-07-12T16:19:52Z</time>
      </trkpt>
      <trkpt lat="41.138333" lon="-4.284617">
        <ele>1944.0</ele>
        <time>2016-07-12T16:19:53Z</time>
      </trkpt>
      <trkpt lat="41.138267" lon="-4.284700">
        <ele>1944.0</ele>
        <time>2016-07-12T16:19:54Z</time>
      </trkpt>
      <trkpt lat="41.138233" lon="-4.284783">
        <ele>1944.0</ele>
        <time>2016-07-12T16:19:55Z</time>
      </trkpt>
      <trkpt lat="41.138217" lon="-4.284867">
        <ele>1945.0</ele>
        <time>2016-07-12T16:19:56Z</time>
      </trkpt>
      <trkpt lat="41.138233" lon="-4.284917">
        <ele>1945.0</ele>
        <time>2016-07-12T16:19:57Z</time>
      </trkpt>
      <trkpt lat="41.138267" lon="-4.284933">
        <ele>1946.0</ele>
        <time>2016-07-12T16:19:58Z</time>
      </trkpt>
      <trkpt lat="41.138317" lon="-4.284933">
        <ele>1946.0</ele>
        <time>2016-07-12T16:19:59Z</time>
      </trkpt>
      <trkpt lat="41.138350" lon="-4.284933">
        <ele>1947.0</ele>
        <time>2016-07-12T16:20:00Z</time>
      </trkpt>
      <trkpt lat="41.138367" lon="-4.284950">
        <ele>1947.0</ele>
        <time>2016-07-12T16:20:01Z</time>
      </trkpt>
      <trkpt lat="41.138400" lon="-4.284950">
        <ele>1947.0</ele>
        <time>2016-07-12T16:20:02Z</time>
      </trkpt>
      <trkpt lat="41.138433" lon="-4.284933">
        <ele>1946.0</ele>
        <time>2016-07-12T16:20:03Z</time>
      </trkpt>
      <trkpt lat="41.138467" lon="-4.284900">
        <ele>1946.0</ele>
        <time>2016-07-12T16:20:04Z</time>
      </trkpt>
      <trkpt lat="41.138500" lon="-4.284833">
        <ele>1945.0</ele>
        <time>2016-07-12T16:20:05Z</time>
      </trkpt>
      <trkpt lat="41.138533" lon="-4.284767">
        <ele>1946.0</ele>
        <time>2016-07-12T16:20:06Z</time>
      </trkpt>
      <trkpt lat="41.138550" lon="-4.284683">
        <ele>1946.0</ele>
        <time>2016-07-12T16:20:07Z</time>
      </trkpt>
      <trkpt lat="41.138550" lon="-4.284583">
        <ele>1946.0</ele>
        <time>2016-07-12T16:20:08Z</time>
      </trkpt>
      <trkpt lat="41.138533" lon="-4.284467">
        <ele>1946.0</ele>
        <time>2016-07-12T16:20:09Z</time>
      </trkpt>
      <trkpt lat="41.138533" lon="-4.284350">
        <ele>1946.0</ele>
        <time>2016-07-12T16:20:10Z</time>
      </trkpt>
      <trkpt lat="41.138517" lon="-4.284233">
        <ele>1947.0</ele>
        <time>2016-07-12T16:20:11Z</time>
      </trkpt>
      <trkpt lat="41.138500" lon="-4.284117">
        <ele>1949.0</ele>
        <time>2016-07-12T16:20:12Z</time>
      </trkpt>
      <trkpt lat="41.138467" lon="-4.284000">
        <ele>1949.0</ele>
        <time>2016-07-12T16:20:13Z</time>
      </trkpt>
      <trkpt lat="41.138417" lon="-4.283900">
        <ele>1949.0</ele>
        <time>2016-07-12T16:20:14Z</time>
      </trkpt>
      <trkpt lat="41.138367" lon="-4.283783">
        <ele>1948.0</ele>
        <time>2016-07-12T16:20:15Z</time>
      </trkpt>
      <trkpt lat="41.138300" lon="-4.283667">
        <ele>1948.0</ele>
        <time>2016-07-12T16:20:16Z</time>
      </trkpt>
      <trkpt lat="41.138233" lon="-4.283550">
        <ele>1949.0</ele>
        <time>2016-07-12T16:20:17Z</time>
      </trkpt>
      <trkpt lat="41.138150" lon="-4.283450">
        <ele>1950.0</ele>
        <time>2016-07-12T16:20:18Z</time>
      </trkpt>
      <trkpt lat="41.138067" lon="-4.283350">
        <ele>1952.0</ele>
        <time>2016-07-12T16:20:19Z</time>
      </trkpt>
      <trkpt lat="41.137983" lon="-4.283267">
        <ele>1953.0</ele>
        <time>2016-07-12T16:20:20Z</time>
      </trkpt>
      <trkpt lat="41.137900" lon="-4.283183">
        <ele>1954.0</ele>
        <time>2016-07-12T16:20:21Z</time>
      </trkpt>
      <trkpt lat="41.137817" lon="-4.283100">
        <ele>1954.0</ele>
        <time>2016-07-12T16:20:22Z</time>
      </trkpt>
      <trkpt lat="41.137717" lon="-4.283033">
        <ele>1954.0</ele>
        <time>2016-07-12T16:20:23Z</time>
      </trkpt>
      <trkpt lat="41.137600" lon="-4.282983">
        <ele>1954.0</ele>
        <time>2016-07-12T16:20:24Z</time>
      </trkpt>
      <trkpt lat="41.137483" lon="-4.282933">
        <ele>1954.0</ele>
        <time>2016-07-12T16:20:25Z</time>
      </trkpt>
      <trkpt lat="41.137367" lon="-4.282917">
        <ele>1955.0</ele>
        <time>2016-07-12T16:20:26Z</time>
      </trkpt>
      <trkpt lat="41.137250" lon="-4.282883">
        <ele>1956.0</ele>
        <time>2016-07-12T16:20:27Z</time>
      </trkpt>
      <trkpt lat="41.137150" lon="-4.282867">
        <ele>1956.0</ele>
        <time>2016-07-12T16:20:28Z</time>
      </trkpt>
      <trkpt lat="41.137033" lon="-4.282850">
        <ele>1956.0</ele>
        <time>2016-07-12T16:20:29Z</time>
      </trkpt>
      <trkpt lat="41.136917" lon="-4.282867">
        <ele>1955.0</ele>
        <time>2016-07-12T16:20:30Z</time>
      </trkpt>
      <trkpt lat="41.136817" lon="-4.282917">
        <ele>1955.0</ele>
        <time>2016-07-12T16:20:31Z</time>
      </trkpt>
      <trkpt lat="41.136717" lon="-4.282967">
        <ele>1954.0</ele>
        <time>2016-07-12T16:20:32Z</time>
      </trkpt>
      <trkpt lat="41.136617" lon="-4.283050">
        <ele>1954.0</ele>
        <time>2016-07-12T16:20:33Z</time>
      </trkpt>
      <trkpt lat="41.136533" lon="-4.283133">
        <ele>1954.0</ele>
        <time>2016-07-12T16:20:34Z</time>
      </trkpt>
      <trkpt lat="41.136433" lon="-4.283217">
        <ele>1955.0</ele>
        <time>2016-07-12T16:20:35Z</time>
      </trkpt>
      <trkpt lat="41.136350" lon="-4.283283">
        <ele>1957.0</ele>
        <time>2016-07-12T16:20:36Z</time>
      </trkpt>
      <trkpt lat="41.136283" lon="-4.283350">
        <ele>1959.0</ele>
        <time>2016-07-12T16:20:37Z</time>
      </trkpt>
      <trkpt lat="41.136200" lon="-4.283417">
        <ele>1960.0</ele>
        <time>2016-07-12T16:20:38Z</time>
      </trkpt>
      <trkpt lat="41.136133" lon="-4.283483">
        <ele>1960.0</ele>
        <time>2016-07-12T16:20:39Z</time>
      </trkpt>
      <trkpt lat="41.136067" lon="-4.283567">
        <ele>1960.0</ele>
        <time>2016-07-12T16:20:40Z</time>
      </trkpt>
      <trkpt lat="41.136000" lon="-4.283650">
        <ele>1960.0</ele>
        <time>2016-07-12T16:20:41Z</time>
      </trkpt>
      <trkpt lat="41.135933" lon="-4.283733">
        <ele>1961.0</ele>
        <time>2016-07-12T16:20:42Z</time>
      </trkpt>
      <trkpt lat="41.135867" lon="-4.283800">
        <ele>1962.0</ele>
        <time>2016-07-12T16:20:43Z</time>
      </trkpt>
      <trkpt lat="41.135817" lon="-4.283867">
        <ele>1962.0</ele>
        <time>2016-07-12T16:20:44Z</time>
      </trkpt>
      <trkpt lat="41.135750" lon="-4.283933">
        <ele>1962.0</ele>
        <time>2016-07-12T16:20:45Z</time>
      </trkpt>
      <trkpt lat="41.135700" lon="-4.284017">
        <ele>1962.0</ele>
        <time>2016-07-12T16:20:46Z</time>
      </trkpt>
      <trkpt lat="41.135667" lon="-4.284100">
        <ele>1962.0</ele>
        <time>2016-07-12T16:20:47Z</time>
      </trkpt>
      <trkpt lat="41.135617" lon="-4.284167">
        <ele>1962.0</ele>
        <time>2016-07-12T16:20:48Z</time>
      </trkpt>
      <trkpt lat="41.135583" lon="-4.284233">
        <ele>1962.0</ele>
        <time>2016-07-12T16:20:49Z</time>
      </trkpt>
      <trkpt lat="41.135567" lon="-4.284300">
        <ele>1962.0</ele>
        <time>2016-07-12T16:20:50Z</time>
      </trkpt>
      <trkpt lat="41.135533" lon="-4.284367">
        <ele>1961.0</ele>
        <time>2016-07-12T16:20:51Z</time>
      </trkpt>
      <trkpt lat="41.135500" lon="-4.284433">
        <ele>1961.0</ele>
        <time>2016-07-12T16:20:52Z</time>
      </trkpt>
      <trkpt lat="41.135483" lon="-4.284500">
        <ele>1962.0</ele>
        <time>2016-07-12T16:20:53Z</time>
      </trkpt>
      <trkpt lat="41.135483" lon="-4.284550">
        <ele>1961.0</ele>
        <time>2016-07-12T16:20:54Z</time>
      </trkpt>
      <trkpt lat="41.135483" lon="-4.284583">
        <ele>1960.0</ele>
        <time>2016-07-12T16:20:55Z</time>
      </trkpt>
      <trkpt lat="41.135500" lon="-4.284617">
        <ele>1959.0</ele>
        <time>2016-07-12T16:20:56Z</time>
      </trkpt>
      <trkpt lat="41.135533" lon="-4.284633">
        <ele>1958.0</ele>
        <time>2016-07-12T16:20:57Z</time>
      </trkpt>
      <trkpt lat="41.135567" lon="-4.284633">
        <ele>1957.0</ele>
        <time>2016-07-12T16:20:58Z</time>
      </trkpt>
      <trkpt lat="41.135617" lon="-4.284617">
        <ele>1956.0</ele>
        <time>2016-07-12T16:20:59Z</time>
      </trkpt>
      <trkpt lat="41.135650" lon="-4.284583">
        <ele>1954.0</ele>
        <time>2016-07-12T16:21:00Z</time>
      </trkpt>
      <trkpt lat="41.135700" lon="-4.284533">
        <ele>1953.0</ele>
        <time>2016-07-12T16:21:01Z</time>
      </trkpt>
      <trkpt lat="41.135733" lon="-4.284483">
        <ele>1953.0</ele>
        <time>2016-07-12T16:21:02Z</time>
      </trkpt>
      <trkpt lat="41.135767" lon="-4.284433">
        <ele>1953.0</ele>
        <time>2016-07-12T16:21:03Z</time>
      </trkpt>
      <trkpt lat="41.135817" lon="-4.284400">
        <ele>1952.0</ele>
        <time>2016-07-12T16:21:04Z</time>
      </trkpt>
      <trkpt lat="41.135850" lon="-4.284367">
        <ele>1950.0</ele>
        <time>2016-07-12T16:21:05Z</time>
      </trkpt>
      <trkpt lat="41.135900" lon="-4.284317">
        <ele>1949.0</ele>
        <time>2016-07-12T16:21:06Z</time>
      </trkpt>
      <trkpt lat="41.135950" lon="-4.284267">
        <ele>1948.0</ele>
        <time>2016-07-12T16:21:07Z</time>
      </trkpt>
      <trkpt lat="41.135983" lon="-4.284217">
        <ele>1948.0</ele>
        <time>2016-07-12T16:21:08Z</time>
      </trkpt>
      <trkpt lat="41.136017" lon="-4.284167">
        <ele>1947.0</ele>
        <time>2016-07-12T16:21:09Z</time>
      </trkpt>
      <trkpt lat="41.136050" lon="-4.284117">
        <ele>1945.0</ele>
        <time>2016-07-12T16:21:10Z</time>
      </trkpt>
      <trkpt lat="41.136083" lon="-4.284033">
        <ele>1942.0</ele>
        <time>2016-07-12T16:21:11Z</time>
      </trkpt>
      <trkpt lat="41.136133" lon="-4.283967">
        <ele>1940.0</ele>
        <time>2016-07-12T16:21:12Z</time>
      </trkpt>
      <trkpt lat="41.136167" lon="-4.283867">
        <ele>1940.0</ele>
        <time>2016-07-12T16:21:13Z</time>
      </trkpt>
      <trkpt lat="41.136200" lon="-4.283783">
        <ele>1940.0</ele>
        <time>2016-07-12T16:21:14Z</time>
      </trkpt>
      <trkpt lat="41.136217" lon="-4.283683">
        <ele>1940.0</ele>
        <time>2016-07-12T16:21:15Z</time>
      </trkpt>
      <trkpt lat="41.136233" lon="-4.283600">
        <ele>1940.0</ele>
        <time>2016-07-12T16:21:16Z</time>
      </trkpt>
      <trkpt lat="41.136250" lon="-4.283517">
        <ele>1938.0</ele>
        <time>2016-07-12T16:21:17Z</time>
      </trkpt>
      <trkpt lat="41.136267" lon="-4.283417">
        <ele>1937.0</ele>
        <time>2016-07-12T16:21:18Z</time>
      </trkpt>
      <trkpt lat="41.136283" lon="-4.283300">
        <ele>1935.0</ele>
        <time>2016-07-12T16:21:19Z</time>
      </trkpt>
      <trkpt lat="41.136300" lon="-4.283183">
        <ele>1933.0</ele>
        <time>2016-07-12T16:21:20Z</time>
      </trkpt>
      <trkpt lat="41.136283" lon="-4.283067">
        <ele>1931.0</ele>
        <time>2016-07-12T16:21:21Z</time>
      </trkpt>
      <trkpt lat="41.136283" lon="-4.282933">
        <ele>1929.0</ele>
        <time>2016-07-12T16:21:22Z</time>
      </trkpt>
      <trkpt lat="41.136267" lon="-4.282800">
        <ele>1927.0</ele>
        <time>2016-07-12T16:21:23Z</time>
      </trkpt>
      <trkpt lat="41.136233" lon="-4.282667">
        <ele>1924.0</ele>
        <time>2016-07-12T16:21:24Z</time>
      </trkpt>
      <trkpt lat="41.136200" lon="-4.282517">
        <ele>1921.0</ele>
        <time>2016-07-12T16:21:25Z</time>
      </trkpt>
      <trkpt lat="41.136150" lon="-4.282350">
        <ele>1919.0</ele>
        <time>2016-07-12T16:21:26Z</time>
      </trkpt>
      <trkpt lat="41.136083" lon="-4.282200">
        <ele>1918.0</ele>
        <time>2016-07-12T16:21:27Z</time>
      </trkpt>
      <trkpt lat="41.136000" lon="-4.282067">
        <ele>1917.0</ele>
        <time>2016-07-12T16:21:28Z</time>
      </trkpt>
      <trkpt lat="41.135917" lon="-4.281933">
        <ele>1917.0</ele>
        <time>2016-07-12T16:21:29Z</time>
      </trkpt>
      <trkpt lat="41.135833" lon="-4.281817">
        <ele>1916.0</ele>
        <time>2016-07-12T16:21:30Z</time>
      </trkpt>
      <trkpt lat="41.135733" lon="-4.281700">
        <ele>1916.0</ele>
        <time>2016-07-12T16:21:31Z</time>
      </trkpt>
      <trkpt lat="41.135633" lon="-4.281583">
        <ele>1914.0</ele>
        <time>2016-07-12T16:21:32Z</time>
      </trkpt>
      <trkpt lat="41.135533" lon="-4.281467">
        <ele>1914.0</ele>
        <time>2016-07-12T16:21:33Z</time>
      </trkpt>
      <trkpt lat="41.135417" lon="-4.281350">
        <ele>1913.0</ele>
        <time>2016-07-12T16:21:34Z</time>
      </trkpt>
      <trkpt lat="41.135317" lon="-4.281250">
        <ele>1913.0</ele>
        <time>2016-07-12T16:21:35Z</time>
      </trkpt>
      <trkpt lat="41.135217" lon="-4.281133">
        <ele>1913.0</ele>
        <time>2016-07-12T16:21:36Z</time>
      </trkpt>
      <trkpt lat="41.135117" lon="-4.281033">
        <ele>1913.0</ele>
        <time>2016-07-12T16:21:37Z</time>
      </trkpt>
      <trkpt lat="41.135000" lon="-4.280950">
        <ele>1912.0</ele>
        <time>2016-07-12T16:21:38Z</time>
      </trkpt>
      <trkpt lat="41.134900" lon="-4.280867">
        <ele>1911.0</ele>
        <time>2016-07-12T16:21:39Z</time>
      </trkpt>
      <trkpt lat="41.134783" lon="-4.280783">
        <ele>1910.0</ele>
        <time>2016-07-12T16:21:40Z</time>
      </trkpt>
      <trkpt lat="41.134667" lon="-4.280700">
        <ele>1909.0</ele>
        <time>2016-07-12T16:21:41Z</time>
      </trkpt>
      <trkpt lat="41.134550" lon="-4.280617">
        <ele>1908.0</ele>
        <time>2016-07-12T16:21:42Z</time>
      </trkpt>
      <trkpt lat="41.134417" lon="-4.280550">
        <ele>1907.0</ele>
        <time>2016-07-12T16:21:43Z</time>
      </trkpt>
      <trkpt lat="41.134300" lon="-4.280483">
        <ele>1906.0</ele>
        <time>2016-07-12T16:21:44Z</time>
      </trkpt>
      <trkpt lat="41.134183" lon="-4.280400">
        <ele>1905.0</ele>
        <time>2016-07-12T16:21:45Z</time>
      </trkpt>
      <trkpt lat="41.134067" lon="-4.280333">
        <ele>1904.0</ele>
        <time>2016-07-12T16:21:46Z</time>
      </trkpt>
      <trkpt lat="41.133950" lon="-4.280267">
        <ele>1904.0</ele>
        <time>2016-07-12T16:21:47Z</time>
      </trkpt>
      <trkpt lat="41.133833" lon="-4.280200">
        <ele>1903.0</ele>
        <time>2016-07-12T16:21:48Z</time>
      </trkpt>
      <trkpt lat="41.133700" lon="-4.280133">
        <ele>1902.0</ele>
        <time>2016-07-12T16:21:49Z</time>
      </trkpt>
      <trkpt lat="41.133583" lon="-4.280067">
        <ele>1902.0</ele>
        <time>2016-07-12T16:21:50Z</time>
      </trkpt>
      <trkpt lat="41.133450" lon="-4.280017">
        <ele>1901.0</ele>
        <time>2016-07-12T16:21:51Z</time>
      </trkpt>
      <trkpt lat="41.133333" lon="-4.279950">
        <ele>1899.0</ele>
        <time>2016-07-12T16:21:52Z</time>
      </trkpt>
      <trkpt lat="41.133200" lon="-4.279900">
        <ele>1897.0</ele>
        <time>2016-07-12T16:21:53Z</time>
      </trkpt>
      <trkpt lat="41.133083" lon="-4.279850">
        <ele>1896.0</ele>
        <time>2016-07-12T16:21:54Z</time>
      </trkpt>
      <trkpt lat="41.132950" lon="-4.279783">
        <ele>1895.0</ele>
        <time>2016-07-12T16:21:55Z</time>
      </trkpt>
      <trkpt lat="41.132833" lon="-4.279733">
        <ele>1894.0</ele>
        <time>2016-07-12T16:21:56Z</time>
      </trkpt>
      <trkpt lat="41.132717" lon="-4.279683">
        <ele>1895.0</ele>
        <time>2016-07-12T16:21:57Z</time>
      </trkpt>
      <trkpt lat="41.132617" lon="-4.279633">
        <ele>1895.0</ele>
        <time>2016-07-12T16:21:58Z</time>
      </trkpt>
      <trkpt lat="41.132500" lon="-4.279583">
        <ele>1894.0</ele>
        <time>2016-07-12T16:21:59Z</time>
      </trkpt>
      <trkpt lat="41.132400" lon="-4.279533">
        <ele>1892.0</ele>
        <time>2016-07-12T16:22:00Z</time>
      </trkpt>
      <trkpt lat="41.132283" lon="-4.279500">
        <ele>1890.0</ele>
        <time>2016-07-12T16:22:01Z</time>
      </trkpt>
      <trkpt lat="41.132150" lon="-4.279450">
        <ele>1888.0</ele>
        <time>2016-07-12T16:22:02Z</time>
      </trkpt>
      <trkpt lat="41.132033" lon="-4.279400">
        <ele>1887.0</ele>
        <time>2016-07-12T16:22:03Z</time>
      </trkpt>
      <trkpt lat="41.131917" lon="-4.279350">
        <ele>1885.0</ele>
        <time>2016-07-12T16:22:04Z</time>
      </trkpt>
      <trkpt lat="41.131800" lon="-4.279283">
        <ele>1884.0</ele>
        <time>2016-07-12T16:22:05Z</time>
      </trkpt>
      <trkpt lat="41.131683" lon="-4.279217">
        <ele>1882.0</ele>
        <time>2016-07-12T16:22:06Z</time>
      </trkpt>
      <trkpt lat="41.131567" lon="-4.279150">
        <ele>1880.0</ele>
        <time>2016-07-12T16:22:07Z</time>
      </trkpt>
      <trkpt lat="41.131450" lon="-4.279083">
        <ele>1879.0</ele>
        <time>2016-07-12T16:22:08Z</time>
      </trkpt>
      <trkpt lat="41.131333" lon="-4.279017">
        <ele>1878.0</ele>
        <time>2016-07-12T16:22:09Z</time>
      </trkpt>
      <trkpt lat="41.131217" lon="-4.278933">
        <ele>1878.0</ele>
        <time>2016-07-12T16:22:10Z</time>
      </trkpt>
      <trkpt lat="41.131100" lon="-4.278850">
        <ele>1877.0</ele>
        <time>2016-07-12T16:22:11Z</time>
      </trkpt>
      <trkpt lat="41.130983" lon="-4.278783">
        <ele>1876.0</ele>
        <time>2016-07-12T16:22:12Z</time>
      </trkpt>
      <trkpt lat="41.130867" lon="-4.278700">
        <ele>1874.0</ele>
        <time>2016-07-12T16:22:13Z</time>
      </trkpt>
      <trkpt lat="41.130733" lon="-4.278617">
        <ele>1872.0</ele>
        <time>2016-07-12T16:22:14Z</time>
      </trkpt>
      <trkpt lat="41.130617" lon="-4.278533">
        <ele>1872.0</ele>
        <time>2016-07-12T16:22:15Z</time>
      </trkpt>
      <trkpt lat="41.130500" lon="-4.278450">
        <ele>1872.0</ele>
        <time>2016-07-12T16:22:16Z</time>
      </trkpt>
      <trkpt lat="41.130383" lon="-4.278367">
        <ele>1872.0</ele>
        <time>2016-07-12T16:22:17Z</time>
      </trkpt>
      <trkpt lat="41.130267" lon="-4.278267">
        <ele>1872.0</ele>
        <time>2016-07-12T16:22:18Z</time>
      </trkpt>
      <trkpt lat="41.130150" lon="-4.278183">
        <ele>1872.0</ele>
        <time>2016-07-12T16:22:19Z</time>
      </trkpt>
      <trkpt lat="41.130033" lon="-4.278100">
        <ele>1873.0</ele>
        <time>2016-07-12T16:22:20Z</time>
      </trkpt>
      <trkpt lat="41.129933" lon="-4.278017">
        <ele>1873.0</ele>
        <time>2016-07-12T16:22:21Z</time>
      </trkpt>
      <trkpt lat="41.129817" lon="-4.277933">
        <ele>1872.0</ele>
        <time>2016-07-12T16:22:22Z</time>
      </trkpt>
      <trkpt lat="41.129717" lon="-4.277817">
        <ele>1871.0</ele>
        <time>2016-07-12T16:22:23Z</time>
      </trkpt>
      <trkpt lat="41.129617" lon="-4.277700">
        <ele>1871.0</ele>
        <time>2016-07-12T16:22:24Z</time>
      </trkpt>
      <trkpt lat="41.129500" lon="-4.277600">
        <ele>1871.0</ele>
        <time>2016-07-12T16:22:25Z</time>
      </trkpt>
      <trkpt lat="41.129383" lon="-4.277483">
        <ele>1872.0</ele>
        <time>2016-07-12T16:22:26Z</time>
      </trkpt>
      <trkpt lat="41.129267" lon="-4.277383">
        <ele>1873.0</ele>
        <time>2016-07-12T16:22:27Z</time>
      </trkpt>
      <trkpt lat="41.129167" lon="-4.277267">
        <ele>1874.0</ele>
        <time>2016-07-12T16:22:28Z</time>
      </trkpt>
      <trkpt lat="41.129067" lon="-4.277133">
        <ele>1875.0</ele>
        <time>2016-07-12T16:22:29Z</time>
      </trkpt>
      <trkpt lat="41.128967" lon="-4.277017">
        <ele>1876.0</ele>
        <time>2016-07-12T16:22:30Z</time>
      </trkpt>
      <trkpt lat="41.128867" lon="-4.276883">
        <ele>1879.0</ele>
        <time>2016-07-12T16:22:31Z</time>
      </trkpt>
      <trkpt lat="41.128783" lon="-4.276767">
        <ele>1881.0</ele>
        <time>2016-07-12T16:22:32Z</time>
      </trkpt>
      <trkpt lat="41.128700" lon="-4.276650">
        <ele>1882.0</ele>
        <time>2016-07-12T16:22:33Z</time>
      </trkpt>
      <trkpt lat="41.128633" lon="-4.276533">
        <ele>1883.0</ele>
        <time>2016-07-12T16:22:34Z</time>
      </trkpt>
      <trkpt lat="41.128567" lon="-4.276400">
        <ele>1882.0</ele>
        <time>2016-07-12T16:22:35Z</time>
      </trkpt>
      <trkpt lat="41.128483" lon="-4.276267">
        <ele>1882.0</ele>
        <time>2016-07-12T16:22:36Z</time>
      </trkpt>
      <trkpt lat="41.128400" lon="-4.276133">
        <ele>1883.0</ele>
        <time>2016-07-12T16:22:37Z</time>
      </trkpt>
      <trkpt lat="41.128300" lon="-4.276017">
        <ele>1884.0</ele>
        <time>2016-07-12T16:22:38Z</time>
      </trkpt>
      <trkpt lat="41.128200" lon="-4.275900">
        <ele>1885.0</ele>
        <time>2016-07-12T16:22:39Z</time>
      </trkpt>
      <trkpt lat="41.128100" lon="-4.275783">
        <ele>1886.0</ele>
        <time>2016-07-12T16:22:40Z</time>
      </trkpt>
      <trkpt lat="41.128000" lon="-4.275683">
        <ele>1887.0</ele>
        <time>2016-07-12T16:22:41Z</time>
      </trkpt>
      <trkpt lat="41.127883" lon="-4.275583">
        <ele>1888.0</ele>
        <time>2016-07-12T16:22:42Z</time>
      </trkpt>
      <trkpt lat="41.127767" lon="-4.275500">
        <ele>1889.0</ele>
        <time>2016-07-12T16:22:43Z</time>
      </trkpt>
      <trkpt lat="41.127650" lon="-4.275417">
        <ele>1890.0</ele>
        <time>2016-07-12T16:22:44Z</time>
      </trkpt>
      <trkpt lat="41.127500" lon="-4.275350">
        <ele>1892.0</ele>
        <time>2016-07-12T16:22:45Z</time>
      </trkpt>
      <trkpt lat="41.127383" lon="-4.275300">
        <ele>1895.0</ele>
        <time>2016-07-12T16:22:46Z</time>
      </trkpt>
      <trkpt lat="41.127250" lon="-4.275250">
        <ele>1898.0</ele>
        <time>2016-07-12T16:22:47Z</time>
      </trkpt>
      <trkpt lat="41.127150" lon="-4.275183">
        <ele>1900.0</ele>
        <time>2016-07-12T16:22:48Z</time>
      </trkpt>
      <trkpt lat="41.127033" lon="-4.275117">
        <ele>1901.0</ele>
        <time>2016-07-12T16:22:49Z</time>
      </trkpt>
      <trkpt lat="41.126917" lon="-4.275067">
        <ele>1902.0</ele>
        <time>2016-07-12T16:22:50Z</time>
      </trkpt>
      <trkpt lat="41.126783" lon="-4.275033">
        <ele>1903.0</ele>
        <time>2016-07-12T16:22:51Z</time>
      </trkpt>
      <trkpt lat="41.126650" lon="-4.275017">
        <ele>1904.0</ele>
        <time>2016-07-12T16:22:52Z</time>
      </trkpt>
      <trkpt lat="41.126517" lon="-4.275017">
        <ele>1906.0</ele>
        <time>2016-07-12T16:22:53Z</time>
      </trkpt>
      <trkpt lat="41.126400" lon="-4.275033">
        <ele>1909.0</ele>
        <time>2016-07-12T16:22:54Z</time>
      </trkpt>
      <trkpt lat="41.126300" lon="-4.275067">
        <ele>1911.0</ele>
        <time>2016-07-12T16:22:55Z</time>
      </trkpt>
      <trkpt lat="41.126183" lon="-4.275100">
        <ele>1913.0</ele>
        <time>2016-07-12T16:22:56Z</time>
      </trkpt>
      <trkpt lat="41.126083" lon="-4.275133">
        <ele>1916.0</ele>
        <time>2016-07-12T16:22:57Z</time>
      </trkpt>
      <trkpt lat="41.126000" lon="-4.275183">
        <ele>1918.0</ele>
        <time>2016-07-12T16:22:58Z</time>
      </trkpt>
      <trkpt lat="41.125917" lon="-4.275217">
        <ele>1920.0</ele>
        <time>2016-07-12T16:22:59Z</time>
      </trkpt>
      <trkpt lat="41.125833" lon="-4.275267">
        <ele>1922.0</ele>
        <time>2016-07-12T16:23:00Z</time>
      </trkpt>
      <trkpt lat="41.125750" lon="-4.275317">
        <ele>1923.0</ele>
        <time>2016-07-12T16:23:01Z</time>
      </trkpt>
      <trkpt lat="41.125683" lon="-4.275383">
        <ele>1924.0</ele>
        <time>2016-07-12T16:23:02Z</time>
      </trkpt>
      <trkpt lat="41.125617" lon="-4.275467">
        <ele>1925.0</ele>
        <time>2016-07-12T16:23:03Z</time>
      </trkpt>
      <trkpt lat="41.125567" lon="-4.275533">
        <ele>1927.0</ele>
        <time>2016-07-12T16:23:04Z</time>
      </trkpt>
      <trkpt lat="41.125533" lon="-4.275617">
        <ele>1929.0</ele>
        <time>2016-07-12T16:23:05Z</time>
      </trkpt>
      <trkpt lat="41.125500" lon="-4.275683">
        <ele>1931.0</ele>
        <time>2016-07-12T16:23:06Z</time>
      </trkpt>
      <trkpt lat="41.125483" lon="-4.275733">
        <ele>1932.0</ele>
        <time>2016-07-12T16:23:07Z</time>
      </trkpt>
      <trkpt lat="41.125467" lon="-4.275800">
        <ele>1933.0</ele>
        <time>2016-07-12T16:23:08Z</time>
      </trkpt>
      <trkpt lat="41.125450" lon="-4.275850">
        <ele>1935.0</ele>
        <time>2016-07-12T16:23:09Z</time>
      </trkpt>
      <trkpt lat="41.125450" lon="-4.275900">
        <ele>1936.0</ele>
        <time>2016-07-12T16:23:10Z</time>
      </trkpt>
      <trkpt lat="41.125467" lon="-4.275950">
        <ele>1937.0</ele>
        <time>2016-07-12T16:23:11Z</time>
      </trkpt>
      <trkpt lat="41.125483" lon="-4.275967">
        <ele>1939.0</ele>
        <time>2016-07-12T16:23:12Z</time>
      </trkpt>
      <trkpt lat="41.125500" lon="-4.276000">
        <ele>1940.0</ele>
        <time>2016-07-12T16:23:13Z</time>
      </trkpt>
      <trkpt lat="41.125533" lon="-4.276000">
        <ele>1942.0</ele>
        <time>2016-07-12T16:23:14Z</time>
      </trkpt>
      <trkpt lat="41.125567" lon="-4.276000">
        <ele>1943.0</ele>
        <time>2016-07-12T16:23:15Z</time>
      </trkpt>
      <trkpt lat="41.125600" lon="-4.275967">
        <ele>1944.0</ele>
        <time>2016-07-12T16:23:16Z</time>
      </trkpt>
      <trkpt lat="41.125650" lon="-4.275917">
        <ele>1946.0</ele>
        <time>2016-07-12T16:23:17Z</time>
      </trkpt>
      <trkpt lat="41.125683" lon="-4.275867">
        <ele>1948.0</ele>
        <time>2016-07-12T16:23:18Z</time>
      </trkpt>
      <trkpt lat="41.125700" lon="-4.275817">
        <ele>1949.0</ele>
        <time>2016-07-12T16:23:19Z</time>
      </trkpt>
      <trkpt lat="41.125733" lon="-4.275767">
        <ele>1950.0</ele>
        <time>2016-07-12T16:23:20Z</time>
      </trkpt>
      <trkpt lat="41.125767" lon="-4.275717">
        <ele>1951.0</ele>
        <time>2016-07-12T16:23:21Z</time>
      </trkpt>
      <trkpt lat="41.125817" lon="-4.275633">
        <ele>1953.0</ele>
        <time>2016-07-12T16:23:22Z</time>
      </trkpt>
      <trkpt lat="41.125850" lon="-4.275533">
        <ele>1956.0</ele>
        <time>2016-07-12T16:23:23Z</time>
      </trkpt>
      <trkpt lat="41.125867" lon="-4.275450">
        <ele>1959.0</ele>
        <time>2016-07-12T16:23:24Z</time>
      </trkpt>
      <trkpt lat="41.125867" lon="-4.275350">
        <ele>1962.0</ele>
        <time>2016-07-12T16:23:25Z</time>
      </trkpt>
      <trkpt lat="41.125883" lon="-4.275250">
        <ele>1964.0</ele>
        <time>2016-07-12T16:23:26Z</time>
      </trkpt>
      <trkpt lat="41.125883" lon="-4.275150">
        <ele>1966.0</ele>
        <time>2016-07-12T16:23:27Z</time>
      </trkpt>
      <trkpt lat="41.125883" lon="-4.275033">
        <ele>1968.0</ele>
        <time>2016-07-12T16:23:28Z</time>
      </trkpt>
      <trkpt lat="41.125883" lon="-4.274900">
        <ele>1970.0</ele>
        <time>2016-07-12T16:23:29Z</time>
      </trkpt>
      <trkpt lat="41.125883" lon="-4.274767">
        <ele>1972.0</ele>
        <time>2016-07-12T16:23:30Z</time>
      </trkpt>
      <trkpt lat="41.125867" lon="-4.274650">
        <ele>1976.0</ele>
        <time>2016-07-12T16:23:31Z</time>
      </trkpt>
      <trkpt lat="41.125833" lon="-4.274533">
        <ele>1980.0</ele>
        <time>2016-07-12T16:23:32Z</time>
      </trkpt>
      <trkpt lat="41.125800" lon="-4.274417">
        <ele>1982.0</ele>
        <time>2016-07-12T16:23:33Z</time>
      </trkpt>
      <trkpt lat="41.125750" lon="-4.274283">
        <ele>1984.0</ele>
        <time>2016-07-12T16:23:34Z</time>
      </trkpt>
      <trkpt lat="41.125700" lon="-4.274150">
        <ele>1986.0</ele>
        <time>2016-07-12T16:23:35Z</time>
      </trkpt>
      <trkpt lat="41.125650" lon="-4.274017">
        <ele>1987.0</ele>
        <time>2016-07-12T16:23:36Z</time>
      </trkpt>
      <trkpt lat="41.125583" lon="-4.273883">
        <ele>1989.0</ele>
        <time>2016-07-12T16:23:37Z</time>
      </trkpt>
      <trkpt lat="41.125483" lon="-4.273750">
        <ele>1991.0</ele>
        <time>2016-07-12T16:23:38Z</time>
      </trkpt>
      <trkpt lat="41.125367" lon="-4.273650">
        <ele>1993.0</ele>
        <time>2016-07-12T16:23:39Z</time>
      </trkpt>
      <trkpt lat="41.125250" lon="-4.273567">
        <ele>1996.0</ele>
        <time>2016-07-12T16:23:40Z</time>
      </trkpt>
      <trkpt lat="41.125117" lon="-4.273500">
        <ele>1998.0</ele>
        <time>2016-07-12T16:23:41Z</time>
      </trkpt>
      <trkpt lat="41.125000" lon="-4.273483">
        <ele>1999.0</ele>
        <time>2016-07-12T16:23:42Z</time>
      </trkpt>
      <trkpt lat="41.124867" lon="-4.273483">
        <ele>2001.0</ele>
        <time>2016-07-12T16:23:43Z</time>
      </trkpt>
      <trkpt lat="41.124750" lon="-4.273500">
        <ele>2002.0</ele>
        <time>2016-07-12T16:23:44Z</time>
      </trkpt>
      <trkpt lat="41.124650" lon="-4.273550">
        <ele>2004.0</ele>
        <time>2016-07-12T16:23:45Z</time>
      </trkpt>
      <trkpt lat="41.124567" lon="-4.273600">
        <ele>2006.0</ele>
        <time>2016-07-12T16:23:46Z</time>
      </trkpt>
      <trkpt lat="41.124483" lon="-4.273667">
        <ele>2008.0</ele>
        <time>2016-07-12T16:23:47Z</time>
      </trkpt>
      <trkpt lat="41.124417" lon="-4.273733">
        <ele>2010.0</ele>
        <time>2016-07-12T16:23:48Z</time>
      </trkpt>
      <trkpt lat="41.124367" lon="-4.273800">
        <ele>2012.0</ele>
        <time>2016-07-12T16:23:49Z</time>
      </trkpt>
      <trkpt lat="41.124317" lon="-4.273867">
        <ele>2014.0</ele>
        <time>2016-07-12T16:23:50Z</time>
      </trkpt>
      <trkpt lat="41.124283" lon="-4.273917">
        <ele>2016.0</ele>
        <time>2016-07-12T16:23:51Z</time>
      </trkpt>
      <trkpt lat="41.124250" lon="-4.273983">
        <ele>2018.0</ele>
        <time>2016-07-12T16:23:52Z</time>
      </trkpt>
      <trkpt lat="41.124233" lon="-4.274033">
        <ele>2020.0</ele>
        <time>2016-07-12T16:23:53Z</time>
      </trkpt>
      <trkpt lat="41.124217" lon="-4.274083">
        <ele>2022.0</ele>
        <time>2016-07-12T16:23:54Z</time>
      </trkpt>
      <trkpt lat="41.124233" lon="-4.274117">
        <ele>2023.0</ele>
        <time>2016-07-12T16:23:55Z</time>
      </trkpt>
      <trkpt lat="41.124250" lon="-4.274150">
        <ele>2024.0</ele>
        <time>2016-07-12T16:23:56Z</time>
      </trkpt>
      <trkpt lat="41.124283" lon="-4.274150">
        <ele>2025.0</ele>
        <time>2016-07-12T16:23:57Z</time>
      </trkpt>
      <trkpt lat="41.124317" lon="-4.274133">
        <ele>2027.0</ele>
        <time>2016-07-12T16:23:58Z</time>
      </trkpt>
      <trkpt lat="41.124350" lon="-4.274083">
        <ele>2028.0</ele>
        <time>2016-07-12T16:23:59Z</time>
      </trkpt>
      <trkpt lat="41.124383" lon="-4.274017">
        <ele>2030.0</ele>
        <time>2016-07-12T16:24:00Z</time>
      </trkpt>
      <trkpt lat="41.124417" lon="-4.273950">
        <ele>2032.0</ele>
        <time>2016-07-12T16:24:01Z</time>
      </trkpt>
      <trkpt lat="41.124450" lon="-4.273867">
        <ele>2034.0</ele>
        <time>2016-07-12T16:24:02Z</time>
      </trkpt>
      <trkpt lat="41.124467" lon="-4.273783">
        <ele>2036.0</ele>
        <time>2016-07-12T16:24:03Z</time>
      </trkpt>
      <trkpt lat="41.124500" lon="-4.273667">
        <ele>2038.0</ele>
        <time>2016-07-12T16:24:04Z</time>
      </trkpt>
      <trkpt lat="41.124517" lon="-4.273550">
        <ele>2041.0</ele>
        <time>2016-07-12T16:24:05Z</time>
      </trkpt>
      <trkpt lat="41.124517" lon="-4.273417">
        <ele>2044.0</ele>
        <time>2016-07-12T16:24:06Z</time>
      </trkpt>
      <trkpt lat="41.124500" lon="-4.273283">
        <ele>2046.0</ele>
        <time>2016-07-12T16:24:07Z</time>
      </trkpt>
      <trkpt lat="41.124483" lon="-4.273150">
        <ele>2049.0</ele>
        <time>2016-07-12T16:24:08Z</time>
      </trkpt>
      <trkpt lat="41.124450" lon="-4.273017">
        <ele>2052.0</ele>
        <time>2016-07-12T16:24:09Z</time>
      </trkpt>
      <trkpt lat="41.124417" lon="-4.272883">
        <ele>2054.0</ele>
        <time>2016-07-12T16:24:10Z</time>
      </trkpt>
      <trkpt lat="41.124350" lon="-4.272750">
        <ele>2056.0</ele>
        <time>2016-07-12T16:24:11Z</time>
      </trkpt>
      <trkpt lat="41.124283" lon="-4.272617">
        <ele>2057.0</ele>
        <time>2016-07-12T16:24:12Z</time>
      </trkpt>
      <trkpt lat="41.124183" lon="-4.272483">
        <ele>2059.0</ele>
        <time>2016-07-12T16:24:13Z</time>
      </trkpt>
      <trkpt lat="41.124083" lon="-4.272367">
        <ele>2062.0</ele>
        <time>2016-07-12T16:24:14Z</time>
      </trkpt>
      <trkpt lat="41.123967" lon="-4.272283">
        <ele>2065.0</ele>
        <time>2016-07-12T16:24:15Z</time>
      </trkpt>
      <trkpt lat="41.123833" lon="-4.272233">
        <ele>2068.0</ele>
        <time>2016-07-12T16:24:16Z</time>
      </trkpt>
      <trkpt lat="41.123717" lon="-4.272200">
        <ele>2070.0</ele>
        <time>2016-07-12T16:24:17Z</time>
      </trkpt>
      <trkpt lat="41.123600" lon="-4.272167">
        <ele>2072.0</ele>
        <time>2016-07-12T16:24:18Z</time>
      </trkpt>
      <trkpt lat="41.123467" lon="-4.272150">
        <ele>2074.0</ele>
        <time>2016-07-12T16:24:19Z</time>
      </trkpt>
      <trkpt lat="41.123350" lon="-4.272133">
        <ele>2076.0</ele>
        <time>2016-07-12T16:24:20Z</time>
      </trkpt>
      <trkpt lat="41.123233" lon="-4.272167">
        <ele>2078.0</ele>
        <time>2016-07-12T16:24:21Z</time>
      </trkpt>
      <trkpt lat="41.123150" lon="-4.272217">
        <ele>2079.0</ele>
        <time>2016-07-12T16:24:22Z</time>
      </trkpt>
      <trkpt lat="41.123083" lon="-4.272283">
        <ele>2080.0</ele>
        <time>2016-07-12T16:24:23Z</time>
      </trkpt>
      <trkpt lat="41.123017" lon="-4.272350">
        <ele>2082.0</ele>
        <time>2016-07-12T16:24:24Z</time>
      </trkpt>
      <trkpt lat="41.122967" lon="-4.272400">
        <ele>2084.0</ele>
        <time>2016-07-12T16:24:25Z</time>
      </trkpt>
      <trkpt lat="41.122917" lon="-4.272467">
        <ele>2086.0</ele>
        <time>2016-07-12T16:24:26Z</time>
      </trkpt>
      <trkpt lat="41.122883" lon="-4.272533">
        <ele>2088.0</ele>
        <time>2016-07-12T16:24:27Z</time>
      </trkpt>
      <trkpt lat="41.122867" lon="-4.272583">
        <ele>2089.0</ele>
        <time>2016-07-12T16:24:28Z</time>
      </trkpt>
      <trkpt lat="41.122850" lon="-4.272633">
        <ele>2091.0</ele>
        <time>2016-07-12T16:24:29Z</time>
      </trkpt>
      <trkpt lat="41.122850" lon="-4.272683">
        <ele>2092.0</ele>
        <time>2016-07-12T16:24:30Z</time>
      </trkpt>
      <trkpt lat="41.122850" lon="-4.272717">
        <ele>2093.0</ele>
        <time>2016-07-12T16:24:31Z</time>
      </trkpt>
      <trkpt lat="41.122867" lon="-4.272733">
        <ele>2094.0</ele>
        <time>2016-07-12T16:24:32Z</time>
      </trkpt>
      <trkpt lat="41.122900" lon="-4.272733">
        <ele>2095.0</ele>
        <time>2016-07-12T16:24:33Z</time>
      </trkpt>
      <trkpt lat="41.122933" lon="-4.272733">
        <ele>2096.0</ele>
        <time>2016-07-12T16:24:34Z</time>
      </trkpt>
      <trkpt lat="41.122967" lon="-4.272683">
        <ele>2097.0</ele>
        <time>2016-07-12T16:24:35Z</time>
      </trkpt>
      <trkpt lat="41.123017" lon="-4.272617">
        <ele>2098.0</ele>
        <time>2016-07-12T16:24:36Z</time>
      </trkpt>
      <trkpt lat="41.123050" lon="-4.272550">
        <ele>2101.0</ele>
        <time>2016-07-12T16:24:37Z</time>
      </trkpt>
      <trkpt lat="41.123083" lon="-4.272467">
        <ele>2104.0</ele>
        <time>2016-07-12T16:24:38Z</time>
      </trkpt>
      <trkpt lat="41.123100" lon="-4.272400">
        <ele>2106.0</ele>
        <time>2016-07-12T16:24:39Z</time>
      </trkpt>
      <trkpt lat="41.123133" lon="-4.272317">
        <ele>2108.0</ele>
        <time>2016-07-12T16:24:40Z</time>
      </trkpt>
      <trkpt lat="41.123150" lon="-4.272233">
        <ele>2109.0</ele>
        <time>2016-07-12T16:24:41Z</time>
      </trkpt>
      <trkpt lat="41.123167" lon="-4.272117">
        <ele>2110.0</ele>
        <time>2016-07-12T16:24:42Z</time>
      </trkpt>
      <trkpt lat="41.123183" lon="-4.271983">
        <ele>2112.0</ele>
        <time>2016-07-12T16:24:43Z</time>
      </trkpt>
      <trkpt lat="41.123167" lon="-4.271850">
        <ele>2114.0</ele>
        <time>2016-07-12T16:24:44Z</time>
      </trkpt>
      <trkpt lat="41.123167" lon="-4.271700">
        <ele>2117.0</ele>
        <time>2016-07-12T16:24:45Z</time>
      </trkpt>
      <trkpt lat="41.123150" lon="-4.271583">
        <ele>2119.0</ele>
        <time>2016-07-12T16:24:46Z</time>
      </trkpt>
      <trkpt lat="41.123167" lon="-4.271450">
        <ele>2121.0</ele>
        <time>2016-07-12T16:24:47Z</time>
      </trkpt>
      <trkpt lat="41.123150" lon="-4.271333">
        <ele>2122.0</ele>
        <time>2016-07-12T16:24:48Z</time>
      </trkpt>
      <trkpt lat="41.123117" lon="-4.271183">
        <ele>2122.0</ele>
        <time>2016-07-12T16:24:49Z</time>
      </trkpt>
      <trkpt lat="41.123067" lon="-4.271017">
        <ele>2122.0</ele>
        <time>2016-07-12T16:24:50Z</time>
      </trkpt>
      <trkpt lat="41.122967" lon="-4.270867">
        <ele>2122.0</ele>
        <time>2016-07-12T16:24:51Z</time>
      </trkpt>
      <trkpt lat="41.122850" lon="-4.270767">
        <ele>2123.0</ele>
        <time>2016-07-12T16:24:52Z</time>
      </trkpt>
      <trkpt lat="41.122717" lon="-4.270700">
        <ele>2125.0</ele>
        <time>2016-07-12T16:24:53Z</time>
      </trkpt>
      <trkpt lat="41.122600" lon="-4.270667">
        <ele>2127.0</ele>
        <time>2016-07-12T16:24:54Z</time>
      </trkpt>
      <trkpt lat="41.122467" lon="-4.270650">
        <ele>2129.0</ele>
        <time>2016-07-12T16:24:55Z</time>
      </trkpt>
      <trkpt lat="41.122350" lon="-4.270650">
        <ele>2130.0</ele>
        <time>2016-07-12T16:24:56Z</time>
      </trkpt>
      <trkpt lat="41.122233" lon="-4.270650">
        <ele>2132.0</ele>
        <time>2016-07-12T16:24:57Z</time>
      </trkpt>
      <trkpt lat="41.122133" lon="-4.270683">
        <ele>2134.0</ele>
        <time>2016-07-12T16:24:58Z</time>
      </trkpt>
      <trkpt lat="41.122033" lon="-4.270733">
        <ele>2136.0</ele>
        <time>2016-07-12T16:24:59Z</time>
      </trkpt>
      <trkpt lat="41.121950" lon="-4.270783">
        <ele>2139.0</ele>
        <time>2016-07-12T16:25:00Z</time>
      </trkpt>
      <trkpt lat="41.121883" lon="-4.270833">
        <ele>2142.0</ele>
        <time>2016-07-12T16:25:01Z</time>
      </trkpt>
      <trkpt lat="41.121817" lon="-4.270867">
        <ele>2144.0</ele>
        <time>2016-07-12T16:25:02Z</time>
      </trkpt>
      <trkpt lat="41.121733" lon="-4.270917">
        <ele>2146.0</ele>
        <time>2016-07-12T16:25:03Z</time>
      </trkpt>
      <trkpt lat="41.121667" lon="-4.270967">
        <ele>2148.0</ele>
        <time>2016-07-12T16:25:04Z</time>
      </trkpt>
      <trkpt lat="41.121617" lon="-4.271017">
        <ele>2148.0</ele>
        <time>2016-07-12T16:25:05Z</time>
      </trkpt>
      <trkpt lat="41.121583" lon="-4.271083">
        <ele>2149.0</ele>
        <time>2016-07-12T16:25:06Z</time>
      </trkpt>
      <trkpt lat="41.121567" lon="-4.271167">
        <ele>2150.0</ele>
        <time>2016-07-12T16:25:07Z</time>
      </trkpt>
      <trkpt lat="41.121567" lon="-4.271233">
        <ele>2152.0</ele>
        <time>2016-07-12T16:25:08Z</time>
      </trkpt>
      <trkpt lat="41.121583" lon="-4.271283">
        <ele>2154.0</ele>
        <time>2016-07-12T16:25:09Z</time>
      </trkpt>
      <trkpt lat="41.121600" lon="-4.271317">
        <ele>2156.0</ele>
        <time>2016-07-12T16:25:10Z</time>
      </trkpt>
      <trkpt lat="41.121633" lon="-4.271333">
        <ele>2157.0</ele>
        <time>2016-07-12T16:25:11Z</time>
      </trkpt>
      <trkpt lat="41.121667" lon="-4.271350">
        <ele>2159.0</ele>
        <time>2016-07-12T16:25:12Z</time>
      </trkpt>
      <trkpt lat="41.121700" lon="-4.271317">
        <ele>2160.0</ele>
        <time>2016-07-12T16:25:13Z</time>
      </trkpt>
      <trkpt lat="41.121750" lon="-4.271283">
        <ele>2160.0</ele>
        <time>2016-07-12T16:25:14Z</time>
      </trkpt>
      <trkpt lat="41.121783" lon="-4.271200">
        <ele>2161.0</ele>
        <time>2016-07-12T16:25:15Z</time>
      </trkpt>
      <trkpt lat="41.121800" lon="-4.271083">
        <ele>2162.0</ele>
        <time>2016-07-12T16:25:16Z</time>
      </trkpt>
      <trkpt lat="41.121800" lon="-4.270950">
        <ele>2164.0</ele>
        <time>2016-07-12T16:25:17Z</time>
      </trkpt>
      <trkpt lat="41.121783" lon="-4.270817">
        <ele>2166.0</ele>
        <time>2016-07-12T16:25:18Z</time>
      </trkpt>
      <trkpt lat="41.121750" lon="-4.270683">
        <ele>2168.0</ele>
        <time>2016-07-12T16:25:19Z</time>
      </trkpt>
      <trkpt lat="41.121717" lon="-4.270550">
        <ele>2171.0</ele>
        <time>2016-07-12T16:25:20Z</time>
      </trkpt>
      <trkpt lat="41.121683" lon="-4.270417">
        <ele>2173.0</ele>
        <time>2016-07-12T16:25:21Z</time>
      </trkpt>
      <trkpt lat="41.121633" lon="-4.270283">
        <ele>2175.0</ele>
        <time>2016-07-12T16:25:22Z</time>
      </trkpt>
      <trkpt lat="41.121567" lon="-4.270150">
        <ele>2176.0</ele>
        <time>2016-07-12T16:25:23Z</time>
      </trkpt>
      <trkpt lat="41.121483" lon="-4.270017">
        <ele>2177.0</ele>
        <time>2016-07-12T16:25:24Z</time>
      </trkpt>
      <trkpt lat="41.121367" lon="-4.269917">
        <ele>2179.0</ele>
        <time>2016-07-12T16:25:25Z</time>
      </trkpt>
      <trkpt lat="41.121250" lon="-4.269850">
        <ele>2181.0</ele>
        <time>2016-07-12T16:25:26Z</time>
      </trkpt>
      <trkpt lat="41.121133" lon="-4.269817">
        <ele>2184.0</ele>
        <time>2016-07-12T16:25:27Z</time>
      </trkpt>
      <trkpt lat="41.121033" lon="-4.269783">
        <ele>2186.0</ele>
        <time>2016-07-12T16:25:28Z</time>
      </trkpt>
      <trkpt lat="41.120917" lon="-4.269783">
        <ele>2188.0</ele>
        <time>2016-07-12T16:25:29Z</time>
      </trkpt>
      <trkpt lat="41.120817" lon="-4.269783">
        <ele>2188.0</ele>
        <time>2016-07-12T16:25:30Z</time>
      </trkpt>
      <trkpt lat="41.120717" lon="-4.269817">
        <ele>2189.0</ele>
        <time>2016-07-12T16:25:31Z</time>
      </trkpt>
      <trkpt lat="41.120633" lon="-4.269867">
        <ele>2191.0</ele>
        <time>2016-07-12T16:25:32Z</time>
      </trkpt>
      <trkpt lat="41.120550" lon="-4.269933">
        <ele>2193.0</ele>
        <time>2016-07-12T16:25:33Z</time>
      </trkpt>
      <trkpt lat="41.120517" lon="-4.270000">
        <ele>2195.0</ele>
        <time>2016-07-12T16:25:34Z</time>
      </trkpt>
      <trkpt lat="41.120483" lon="-4.270067">
        <ele>2197.0</ele>
        <time>2016-07-12T16:25:35Z</time>
      </trkpt>
      <trkpt lat="41.120450" lon="-4.270133">
        <ele>2200.0</ele>
        <time>2016-07-12T16:25:36Z</time>
      </trkpt>
      <trkpt lat="41.120433" lon="-4.270217">
        <ele>2202.0</ele>
        <time>2016-07-12T16:25:37Z</time>
      </trkpt>
      <trkpt lat="41.120417" lon="-4.270283">
        <ele>2205.0</ele>
        <time>2016-07-12T16:25:38Z</time>
      </trkpt>
      <trkpt lat="41.120417" lon="-4.270333">
        <ele>2207.0</ele>
        <time>2016-07-12T16:25:39Z</time>
      </trkpt>
      <trkpt lat="41.120433" lon="-4.270383">
        <ele>2209.0</ele>
        <time>2016-07-12T16:25:40Z</time>
      </trkpt>
      <trkpt lat="41.120450" lon="-4.270417">
        <ele>2210.0</ele>
        <time>2016-07-12T16:25:41Z</time>
      </trkpt>
      <trkpt lat="41.120467" lon="-4.270433">
        <ele>2211.0</ele>
        <time>2016-07-12T16:25:42Z</time>
      </trkpt>
      <trkpt lat="41.120500" lon="-4.270433">
        <ele>2211.0</ele>
        <time>2016-07-12T16:25:43Z</time>
      </trkpt>
      <trkpt lat="41.120533" lon="-4.270450">
        <ele>2211.0</ele>
        <time>2016-07-12T16:25:44Z</time>
      </trkpt>
      <trkpt lat="41.120583" lon="-4.270433">
        <ele>2211.0</ele>
        <time>2016-07-12T16:25:45Z</time>
      </trkpt>
      <trkpt lat="41.120633" lon="-4.270400">
        <ele>2212.0</ele>
        <time>2016-07-12T16:25:46Z</time>
      </trkpt>
      <trkpt lat="41.120683" lon="-4.270333">
        <ele>2214.0</ele>
        <time>2016-07-12T16:25:47Z</time>
      </trkpt>
      <trkpt lat="41.120717" lon="-4.270267">
        <ele>2215.0</ele>
        <time>2016-07-12T16:25:48Z</time>
      </trkpt>
      <trkpt lat="41.120767" lon="-4.270183">
        <ele>2217.0</ele>
        <time>2016-07-12T16:25:49Z</time>
      </trkpt>
      <trkpt lat="41.120800" lon="-4.270083">
        <ele>2218.0</ele>
        <time>2016-07-12T16:25:50Z</time>
      </trkpt>
      <trkpt lat="41.120817" lon="-4.269983">
        <ele>2219.0</ele>
        <time>2016-07-12T16:25:51Z</time>
      </trkpt>
      <trkpt lat="41.120833" lon="-4.269850">
        <ele>2220.0</ele>
        <time>2016-07-12T16:25:52Z</time>
      </trkpt>
      <trkpt lat="41.120850" lon="-4.269700">
        <ele>2221.0</ele>
        <time>2016-07-12T16:25:53Z</time>
      </trkpt>
      <trkpt lat="41.120850" lon="-4.269550">
        <ele>2223.0</ele>
        <time>2016-07-12T16:25:54Z</time>
      </trkpt>
      <trkpt lat="41.120850" lon="-4.269417">
        <ele>2225.0</ele>
        <time>2016-07-12T16:25:55Z</time>
      </trkpt>
      <trkpt lat="41.120833" lon="-4.269283">
        <ele>2227.0</ele>
        <time>2016-07-12T16:25:56Z</time>
      </trkpt>
      <trkpt lat="41.120833" lon="-4.269150">
        <ele>2227.0</ele>
        <time>2016-07-12T16:25:57Z</time>
      </trkpt>
      <trkpt lat="41.120800" lon="-4.269000">
        <ele>2227.0</ele>
        <time>2016-07-12T16:25:58Z</time>
      </trkpt>
      <trkpt lat="41.120767" lon="-4.268833">
        <ele>2226.0</ele>
        <time>2016-07-12T16:25:59Z</time>
      </trkpt>
      <trkpt lat="41.120683" lon="-4.268683">
        <ele>2226.0</ele>
        <time>2016-07-12T16:26:00Z</time>
      </trkpt>
      <trkpt lat="41.120583" lon="-4.268550">
        <ele>2227.0</ele>
        <time>2016-07-12T16:26:01Z</time>
      </trkpt>
      <trkpt lat="41.120467" lon="-4.268467">
        <ele>2227.0</ele>
        <time>2016-07-12T16:26:02Z</time>
      </trkpt>
      <trkpt lat="41.120350" lon="-4.268417">
        <ele>2228.0</ele>
        <time>2016-07-12T16:26:03Z</time>
      </trkpt>
      <trkpt lat="41.120250" lon="-4.268400">
        <ele>2229.0</ele>
        <time>2016-07-12T16:26:04Z</time>
      </trkpt>
      <trkpt lat="41.120133" lon="-4.268400">
        <ele>2231.0</ele>
        <time>2016-07-12T16:26:05Z</time>
      </trkpt>
      <trkpt lat="41.120017" lon="-4.268400">
        <ele>2233.0</ele>
        <time>2016-07-12T16:26:06Z</time>
      </trkpt>
      <trkpt lat="41.119917" lon="-4.268417">
        <ele>2234.0</ele>
        <time>2016-07-12T16:26:07Z</time>
      </trkpt>
      <trkpt lat="41.119817" lon="-4.268433">
        <ele>2235.0</ele>
        <time>2016-07-12T16:26:08Z</time>
      </trkpt>
      <trkpt lat="41.119717" lon="-4.268467">
        <ele>2237.0</ele>
        <time>2016-07-12T16:26:09Z</time>
      </trkpt>
      <trkpt lat="41.119633" lon="-4.268500">
        <ele>2238.0</ele>
        <time>2016-07-12T16:26:10Z</time>
      </trkpt>
      <trkpt lat="41.119550" lon="-4.268567">
        <ele>2239.0</ele>
        <time>2016-07-12T16:26:11Z</time>
      </trkpt>
      <trkpt lat="41.119483" lon="-4.268617">
        <ele>2240.0</ele>
        <time>2016-07-12T16:26:12Z</time>
      </trkpt>
      <trkpt lat="41.119433" lon="-4.268667">
        <ele>2241.0</ele>
        <time>2016-07-12T16:26:13Z</time>
      </trkpt>
      <trkpt lat="41.119367" lon="-4.268733">
        <ele>2242.0</ele>
        <time>2016-07-12T16:26:14Z</time>
      </trkpt>
      <trkpt lat="41.119300" lon="-4.268783">
        <ele>2243.0</ele>
        <time>2016-07-12T16:26:15Z</time>
      </trkpt>
      <trkpt lat="41.119233" lon="-4.268850">
        <ele>2244.0</ele>
        <time>2016-07-12T16:26:16Z</time>
      </trkpt>
      <trkpt lat="41.119167" lon="-4.268917">
        <ele>2245.0</ele>
        <time>2016-07-12T16:26:17Z</time>
      </trkpt>
      <trkpt lat="41.119117" lon="-4.268983">
        <ele>2247.0</ele>
        <time>2016-07-12T16:26:18Z</time>
      </trkpt>
      <trkpt lat="41.119083" lon="-4.269033">
        <ele>2248.0</ele>
        <time>2016-07-12T16:26:19Z</time>
      </trkpt>
      <trkpt lat="41.119050" lon="-4.269083">
        <ele>2249.0</ele>
        <time>2016-07-12T16:26:20Z</time>
      </trkpt>
      <trkpt lat="41.119033" lon="-4.269133">
        <ele>2249.0</ele>
        <time>2016-07-12T16:26:21Z</time>
      </trkpt>
      <trkpt lat="41.119017" lon="-4.269183">
        <ele>2249.0</ele>
        <time>2016-07-12T16:26:22Z</time>
      </trkpt>
      <trkpt lat="41.119017" lon="-4.269233">
        <ele>2249.0</ele>
        <time>2016-07-12T16:26:23Z</time>
      </trkpt>
      <trkpt lat="41.119017" lon="-4.269300">
        <ele>2250.0</ele>
        <time>2016-07-12T16:26:24Z</time>
      </trkpt>
      <trkpt lat="41.119017" lon="-4.269350">
        <ele>2251.0</ele>
        <time>2016-07-12T16:26:25Z</time>
      </trkpt>
      <trkpt lat="41.119017" lon="-4.269383">
        <ele>2252.0</ele>
        <time>2016-07-12T16:26:26Z</time>
      </trkpt>
      <trkpt lat="41.119033" lon="-4.269433">
        <ele>2252.0</ele>
        <time>2016-07-12T16:26:27Z</time>
      </trkpt>
      <trkpt lat="41.119033" lon="-4.269483">
        <ele>2254.0</ele>
        <time>2016-07-12T16:26:28Z</time>
      </trkpt>
      <trkpt lat="41.119033" lon="-4.269533">
        <ele>2255.0</ele>
        <time>2016-07-12T16:26:29Z</time>
      </trkpt>
      <trkpt lat="41.119050" lon="-4.269600">
        <ele>2257.0</ele>
        <time>2016-07-12T16:26:30Z</time>
      </trkpt>
      <trkpt lat="41.119067" lon="-4.269650">
        <ele>2259.0</ele>
        <time>2016-07-12T16:26:31Z</time>
      </trkpt>
      <trkpt lat="41.119083" lon="-4.269700">
        <ele>2261.0</ele>
        <time>2016-07-12T16:26:32Z</time>
      </trkpt>
      <trkpt lat="41.119083" lon="-4.269767">
        <ele>2264.0</ele>
        <time>2016-07-12T16:26:33Z</time>
      </trkpt>
      <trkpt lat="41.119083" lon="-4.269800">
        <ele>2266.0</ele>
        <time>2016-07-12T16:26:34Z</time>
      </trkpt>
      <trkpt lat="41.119067" lon="-4.269850">
        <ele>2267.0</ele>
        <time>2016-07-12T16:26:35Z</time>
      </trkpt>
      <trkpt lat="41.119083" lon="-4.269883">
        <ele>2267.0</ele>
        <time>2016-07-12T16:26:36Z</time>
      </trkpt>
      <trkpt lat="41.119100" lon="-4.269917">
        <ele>2267.0</ele>
        <time>2016-07-12T16:26:37Z</time>
      </trkpt>
      <trkpt lat="41.119133" lon="-4.269933">
        <ele>2267.0</ele>
        <time>2016-07-12T16:26:38Z</time>
      </trkpt>
      <trkpt lat="41.119183" lon="-4.269933">
        <ele>2267.0</ele>
        <time>2016-07-12T16:26:39Z</time>
      </trkpt>
      <trkpt lat="41.119233" lon="-4.269917">
        <ele>2267.0</ele>
        <time>2016-07-12T16:26:40Z</time>
      </trkpt>
      <trkpt lat="41.119267" lon="-4.269883">
        <ele>2267.0</ele>
        <time>2016-07-12T16:26:41Z</time>
      </trkpt>
      <trkpt lat="41.119317" lon="-4.269833">
        <ele>2266.0</ele>
        <time>2016-07-12T16:26:42Z</time>
      </trkpt>
      <trkpt lat="41.119367" lon="-4.269750">
        <ele>2265.0</ele>
        <time>2016-07-12T16:26:43Z</time>
      </trkpt>
      <trkpt lat="41.119400" lon="-4.269667">
        <ele>2264.0</ele>
        <time>2016-07-12T16:26:44Z</time>
      </trkpt>
      <trkpt lat="41.119450" lon="-4.269567">
        <ele>2264.0</ele>
        <time>2016-07-12T16:26:45Z</time>
      </trkpt>
      <trkpt lat="41.119467" lon="-4.269450">
        <ele>2264.0</ele>
        <time>2016-07-12T16:26:46Z</time>
      </trkpt>
      <trkpt lat="41.119483" lon="-4.269317">
        <ele>2264.0</ele>
        <time>2016-07-12T16:26:47Z</time>
      </trkpt>
      <trkpt lat="41.119467" lon="-4.269167">
        <ele>2263.0</ele>
        <time>2016-07-12T16:26:48Z</time>
      </trkpt>
      <trkpt lat="41.119450" lon="-4.269017">
        <ele>2262.0</ele>
        <time>2016-07-12T16:26:49Z</time>
      </trkpt>
      <trkpt lat="41.119400" lon="-4.268867">
        <ele>2259.0</ele>
        <time>2016-07-12T16:26:50Z</time>
      </trkpt>
      <trkpt lat="41.119350" lon="-4.268700">
        <ele>2257.0</ele>
        <time>2016-07-12T16:26:51Z</time>
      </trkpt>
      <trkpt lat="41.119267" lon="-4.268533">
        <ele>2256.0</ele>
        <time>2016-07-12T16:26:52Z</time>
      </trkpt>
      <trkpt lat="41.119183" lon="-4.268383">
        <ele>2254.0</ele>
        <time>2016-07-12T16:26:53Z</time>
      </trkpt>
      <trkpt lat="41.119083" lon="-4.268250">
        <ele>2254.0</ele>
        <time>2016-07-12T16:26:54Z</time>
      </trkpt>
      <trkpt lat="41.118983" lon="-4.268133">
        <ele>2253.0</ele>
        <time>2016-07-12T16:26:55Z</time>
      </trkpt>
      <trkpt lat="41.118850" lon="-4.268017">
        <ele>2253.0</ele>
        <time>2016-07-12T16:26:56Z</time>
      </trkpt>
      <trkpt lat="41.118733" lon="-4.267933">
        <ele>2252.0</ele>
        <time>2016-07-12T16:26:57Z</time>
      </trkpt>
      <trkpt lat="41.118617" lon="-4.267867">
        <ele>2252.0</ele>
        <time>2016-07-12T16:26:58Z</time>
      </trkpt>
      <trkpt lat="41.118483" lon="-4.267817">
        <ele>2251.0</ele>
        <time>2016-07-12T16:26:59Z</time>
      </trkpt>
      <trkpt lat="41.118367" lon="-4.267767">
        <ele>2251.0</ele>
        <time>2016-07-12T16:27:00Z</time>
      </trkpt>
      <trkpt lat="41.118233" lon="-4.267717">
        <ele>2253.0</ele>
        <time>2016-07-12T16:27:01Z</time>
      </trkpt>
      <trkpt lat="41.118100" lon="-4.267650">
        <ele>2255.0</ele>
        <time>2016-07-12T16:27:02Z</time>
      </trkpt>
      <trkpt lat="41.117983" lon="-4.267617">
        <ele>2258.0</ele>
        <time>2016-07-12T16:27:03Z</time>
      </trkpt>
      <trkpt lat="41.117867" lon="-4.267583">
        <ele>2260.0</ele>
        <time>2016-07-12T16:27:04Z</time>
      </trkpt>
      <trkpt lat="41.117750" lon="-4.267550">
        <ele>2262.0</ele>
        <time>2016-07-12T16:27:05Z</time>
      </trkpt>
      <trkpt lat="41.117633" lon="-4.267517">
        <ele>2264.0</ele>
        <time>2016-07-12T16:27:06Z</time>
      </trkpt>
      <trkpt lat="41.117500" lon="-4.267483">
        <ele>2266.0</ele>
        <time>2016-07-12T16:27:07Z</time>
      </trkpt>
      <trkpt lat="41.117383" lon="-4.267450">
        <ele>2269.0</ele>
        <time>2016-07-12T16:27:08Z</time>
      </trkpt>
      <trkpt lat="41.117267" lon="-4.267417">
        <ele>2270.0</ele>
        <time>2016-07-12T16:27:09Z</time>
      </trkpt>
      <trkpt lat="41.117150" lon="-4.267400">
        <ele>2271.0</ele>
        <time>2016-07-12T16:27:10Z</time>
      </trkpt>
      <trkpt lat="41.117033" lon="-4.267383">
        <ele>2272.0</ele>
        <time>2016-07-12T16:27:11Z</time>
      </trkpt>
      <trkpt lat="41.116917" lon="-4.267367">
        <ele>2273.0</ele>
        <time>2016-07-12T16:27:12Z</time>
      </trkpt>
      <trkpt lat="41.116800" lon="-4.267367">
        <ele>2275.0</ele>
        <time>2016-07-12T16:27:13Z</time>
      </trkpt>
      <trkpt lat="41.116683" lon="-4.267367">
        <ele>2278.0</ele>
        <time>2016-07-12T16:27:14Z</time>
      </trkpt>
      <trkpt lat="41.116583" lon="-4.267350">
        <ele>2280.0</ele>
        <time>2016-07-12T16:27:15Z</time>
      </trkpt>
      <trkpt lat="41.116483" lon="-4.267350">
        <ele>2282.0</ele>
        <time>2016-07-12T16:27:16Z</time>
      </trkpt>
      <trkpt lat="41.116400" lon="-4.267350">
        <ele>2282.0</ele>
        <time>2016-07-12T16:27:17Z</time>
      </trkpt>
      <trkpt lat="41.116300" lon="-4.267367">
        <ele>2280.0</ele>
        <time>2016-07-12T16:27:18Z</time>
      </trkpt>
      <trkpt lat="41.116200" lon="-4.267400">
        <ele>2278.0</ele>
        <time>2016-07-12T16:27:19Z</time>
      </trkpt>
      <trkpt lat="41.116117" lon="-4.267433">
        <ele>2276.0</ele>
        <time>2016-07-12T16:27:20Z</time>
      </trkpt>
      <trkpt lat="41.116033" lon="-4.267467">
        <ele>2275.0</ele>
        <time>2016-07-12T16:27:21Z</time>
      </trkpt>
      <trkpt lat="41.115967" lon="-4.267517">
        <ele>2273.0</ele>
        <time>2016-07-12T16:27:22Z</time>
      </trkpt>
      <trkpt lat="41.115900" lon="-4.267567">
        <ele>2271.0</ele>
        <time>2016-07-12T16:27:23Z</time>
      </trkpt>
      <trkpt lat="41.115833" lon="-4.267617">
        <ele>2268.0</ele>
        <time>2016-07-12T16:27:24Z</time>
      </trkpt>
      <trkpt lat="41.115783" lon="-4.267700">
        <ele>2264.0</ele>
        <time>2016-07-12T16:27:25Z</time>
      </trkpt>
      <trkpt lat="41.115767" lon="-4.267767">
        <ele>2260.0</ele>
        <time>2016-07-12T16:27:26Z</time>
      </trkpt>
      <trkpt lat="41.115750" lon="-4.267850">
        <ele>2256.0</ele>
        <time>2016-07-12T16:27:27Z</time>
      </trkpt>
      <trkpt lat="41.115733" lon="-4.267933">
        <ele>2253.0</ele>
        <time>2016-07-12T16:27:28Z</time>
      </trkpt>
      <trkpt lat="41.115750" lon="-4.268000">
        <ele>2251.0</ele>
        <time>2016-07-12T16:27:29Z</time>
      </trkpt>
      <trkpt lat="41.115783" lon="-4.268067">
        <ele>2249.0</ele>
        <time>2016-07-12T16:27:30Z</time>
      </trkpt>
      <trkpt lat="41.115817" lon="-4.268150">
        <ele>2251.0</ele>
        <time>2016-07-12T16:27:31Z</time>
      </trkpt>
      <trkpt lat="41.115850" lon="-4.268200">
        <ele>2253.0</ele>
        <time>2016-07-12T16:27:32Z</time>
      </trkpt>
      <trkpt lat="41.115867" lon="-4.268250">
        <ele>2255.0</ele>
        <time>2016-07-12T16:27:33Z</time>
      </trkpt>
      <trkpt lat="41.115867" lon="-4.268283">
        <ele>2256.0</ele>
        <time>2016-07-12T16:27:34Z</time>
      </trkpt>
      <trkpt lat="41.115867" lon="-4.268317">
        <ele>2256.0</ele>
        <time>2016-07-12T16:27:35Z</time>
      </trkpt>
      <trkpt lat="41.115883" lon="-4.268367">
        <ele>2256.0</ele>
        <time>2016-07-12T16:27:36Z</time>
      </trkpt>
      <trkpt lat="41.115917" lon="-4.268400">
        <ele>2257.0</ele>
        <time>2016-07-12T16:27:37Z</time>
      </trkpt>
      <trkpt lat="41.115950" lon="-4.268417">
        <ele>2259.0</ele>
        <time>2016-07-12T16:27:38Z</time>
      </trkpt>
      <trkpt lat="41.115983" lon="-4.268400">
        <ele>2261.0</ele>
        <time>2016-07-12T16:27:39Z</time>
      </trkpt>
      <trkpt lat="41.116017" lon="-4.268383">
        <ele>2263.0</ele>
        <time>2016-07-12T16:27:40Z</time>
      </trkpt>
      <trkpt lat="41.116050" lon="-4.268367">
        <ele>2264.0</ele>
        <time>2016-07-12T16:27:41Z</time>
      </trkpt>
      <trkpt lat="41.116067" lon="-4.268367">
        <ele>2265.0</ele>
        <time>2016-07-12T16:27:42Z</time>
      </trkpt>
      <trkpt lat="41.116100" lon="-4.268350">
        <ele>2265.0</ele>
        <time>2016-07-12T16:27:43Z</time>
      </trkpt>
      <trkpt lat="41.116133" lon="-4.268333">
        <ele>2266.0</ele>
        <time>2016-07-12T16:27:44Z</time>
      </trkpt>
      <trkpt lat="41.116167" lon="-4.268300">
        <ele>2267.0</ele>
        <time>2016-07-12T16:27:45Z</time>
      </trkpt>
      <trkpt lat="41.116200" lon="-4.268250">
        <ele>2268.0</ele>
        <time>2016-07-12T16:27:46Z</time>
      </trkpt>
      <trkpt lat="41.116250" lon="-4.268217">
        <ele>2269.0</ele>
        <time>2016-07-12T16:27:47Z</time>
      </trkpt>
      <trkpt lat="41.116283" lon="-4.268167">
        <ele>2269.0</ele>
        <time>2016-07-12T16:27:48Z</time>
      </trkpt>
      <trkpt lat="41.116300" lon="-4.268133">
        <ele>2270.0</ele>
        <time>2016-07-12T16:27:49Z</time>
      </trkpt>
      <trkpt lat="41.116333" lon="-4.268083">
        <ele>2270.0</ele>
        <time>2016-07-12T16:27:50Z</time>
      </trkpt>
      <trkpt lat="41.116367" lon="-4.268017">
        <ele>2270.0</ele>
        <time>2016-07-12T16:27:51Z</time>
      </trkpt>
      <trkpt lat="41.116400" lon="-4.267933">
        <ele>2269.0</ele>
        <time>2016-07-12T16:27:52Z</time>
      </trkpt>
      <trkpt lat="41.116417" lon="-4.267817">
        <ele>2268.0</ele>
        <time>2016-07-12T16:27:53Z</time>
      </trkpt>
      <trkpt lat="41.116433" lon="-4.267700">
        <ele>2267.0</ele>
        <time>2016-07-12T16:27:54Z</time>
      </trkpt>
      <trkpt lat="41.116417" lon="-4.267550">
        <ele>2266.0</ele>
        <time>2016-07-12T16:27:55Z</time>
      </trkpt>
      <trkpt lat="41.116400" lon="-4.267400">
        <ele>2265.0</ele>
        <time>2016-07-12T16:27:56Z</time>
      </trkpt>
      <trkpt lat="41.116367" lon="-4.267233">
        <ele>2264.0</ele>
        <time>2016-07-12T16:27:57Z</time>
      </trkpt>
      <trkpt lat="41.116317" lon="-4.267067">
        <ele>2263.0</ele>
        <time>2016-07-12T16:27:58Z</time>
      </trkpt>
      <trkpt lat="41.116250" lon="-4.266917">
        <ele>2263.0</ele>
        <time>2016-07-12T16:27:59Z</time>
      </trkpt>
      <trkpt lat="41.116183" lon="-4.266750">
        <ele>2263.0</ele>
        <time>2016-07-12T16:28:00Z</time>
      </trkpt>
      <trkpt lat="41.116100" lon="-4.266600">
        <ele>2262.0</ele>
        <time>2016-07-12T16:28:01Z</time>
      </trkpt>
      <trkpt lat="41.116000" lon="-4.266433">
        <ele>2262.0</ele>
        <time>2016-07-12T16:28:02Z</time>
      </trkpt>
      <trkpt lat="41.115900" lon="-4.266283">
        <ele>2262.0</ele>
        <time>2016-07-12T16:28:03Z</time>
      </trkpt>
      <trkpt lat="41.115800" lon="-4.266117">
        <ele>2262.0</ele>
        <time>2016-07-12T16:28:04Z</time>
      </trkpt>
      <trkpt lat="41.115700" lon="-4.265950">
        <ele>2263.0</ele>
        <time>2016-07-12T16:28:05Z</time>
      </trkpt>
      <trkpt lat="41.115600" lon="-4.265800">
        <ele>2264.0</ele>
        <time>2016-07-12T16:28:06Z</time>
      </trkpt>
      <trkpt lat="41.115500" lon="-4.265650">
        <ele>2267.0</ele>
        <time>2016-07-12T16:28:07Z</time>
      </trkpt>
      <trkpt lat="41.115400" lon="-4.265517">
        <ele>2269.0</ele>
        <time>2016-07-12T16:28:08Z</time>
      </trkpt>
      <trkpt lat="41.115317" lon="-4.265400">
        <ele>2270.0</ele>
        <time>2016-07-12T16:28:09Z</time>
      </trkpt>
      <trkpt lat="41.115217" lon="-4.265283">
        <ele>2270.0</ele>
        <time>2016-07-12T16:28:10Z</time>
      </trkpt>
      <trkpt lat="41.115117" lon="-4.265167">
        <ele>2270.0</ele>
        <time>2016-07-12T16:28:11Z</time>
      </trkpt>
      <trkpt lat="41.115000" lon="-4.265050">
        <ele>2270.0</ele>
        <time>2016-07-12T16:28:12Z</time>
      </trkpt>
      <trkpt lat="41.114883" lon="-4.264967">
        <ele>2271.0</ele>
        <time>2016-07-12T16:28:13Z</time>
      </trkpt>
      <trkpt lat="41.114767" lon="-4.264883">
        <ele>2273.0</ele>
        <time>2016-07-12T16:28:14Z</time>
      </trkpt>
      <trkpt lat="41.114667" lon="-4.264800">
        <ele>2275.0</ele>
        <time>2016-07-12T16:28:15Z</time>
      </trkpt>
      <trkpt lat="41.114567" lon="-4.264717">
        <ele>2276.0</ele>
        <time>2016-07-12T16:28:16Z</time>
      </trkpt>
      <trkpt lat="41.114467" lon="-4.264617">
        <ele>2277.0</ele>
        <time>2016-07-12T16:28:17Z</time>
      </trkpt>
      <trkpt lat="41.114383" lon="-4.264533">
        <ele>2276.0</ele>
        <time>2016-07-12T16:28:18Z</time>
      </trkpt>
      <trkpt lat="41.114267" lon="-4.264450">
        <ele>2275.0</ele>
        <time>2016-07-12T16:28:19Z</time>
      </trkpt>
      <trkpt lat="41.114133" lon="-4.264417">
        <ele>2274.0</ele>
        <time>2016-07-12T16:28:20Z</time>
      </trkpt>
      <trkpt lat="41.114000" lon="-4.264367">
        <ele>2273.0</ele>
        <time>2016-07-12T16:28:21Z</time>
      </trkpt>
      <trkpt lat="41.113867" lon="-4.264317">
        <ele>2273.0</ele>
        <time>2016-07-12T16:28:22Z</time>
      </trkpt>
      <trkpt lat="41.113733" lon="-4.264267">
        <ele>2273.0</ele>
        <time>2016-07-12T16:28:23Z</time>
      </trkpt>
      <trkpt lat="41.113600" lon="-4.264233">
        <ele>2273.0</ele>
        <time>2016-07-12T16:28:24Z</time>
      </trkpt>
      <trkpt lat="41.113483" lon="-4.264200">
        <ele>2274.0</ele>
        <time>2016-07-12T16:28:25Z</time>
      </trkpt>
      <trkpt lat="41.113350" lon="-4.264200">
        <ele>2274.0</ele>
        <time>2016-07-12T16:28:26Z</time>
      </trkpt>
      <trkpt lat="41.113250" lon="-4.264200">
        <ele>2275.0</ele>
        <time>2016-07-12T16:28:27Z</time>
      </trkpt>
      <trkpt lat="41.113133" lon="-4.264200">
        <ele>2275.0</ele>
        <time>2016-07-12T16:28:28Z</time>
      </trkpt>
      <trkpt lat="41.113033" lon="-4.264200">
        <ele>2274.0</ele>
        <time>2016-07-12T16:28:29Z</time>
      </trkpt>
      <trkpt lat="41.112917" lon="-4.264217">
        <ele>2271.0</ele>
        <time>2016-07-12T16:28:30Z</time>
      </trkpt>
      <trkpt lat="41.112800" lon="-4.264233">
        <ele>2267.0</ele>
        <time>2016-07-12T16:28:31Z</time>
      </trkpt>
      <trkpt lat="41.112700" lon="-4.264267">
        <ele>2265.0</ele>
        <time>2016-07-12T16:28:32Z</time>
      </trkpt>
      <trkpt lat="41.112617" lon="-4.264333">
        <ele>2263.0</ele>
        <time>2016-07-12T16:28:33Z</time>
      </trkpt>
      <trkpt lat="41.112550" lon="-4.264383">
        <ele>2262.0</ele>
        <time>2016-07-12T16:28:34Z</time>
      </trkpt>
      <trkpt lat="41.112517" lon="-4.264433">
        <ele>2260.0</ele>
        <time>2016-07-12T16:28:35Z</time>
      </trkpt>
      <trkpt lat="41.112483" lon="-4.264483">
        <ele>2257.0</ele>
        <time>2016-07-12T16:28:36Z</time>
      </trkpt>
      <trkpt lat="41.112450" lon="-4.264533">
        <ele>2253.0</ele>
        <time>2016-07-12T16:28:37Z</time>
      </trkpt>
      <trkpt lat="41.112417" lon="-4.264600">
        <ele>2250.0</ele>
        <time>2016-07-12T16:28:38Z</time>
      </trkpt>
      <trkpt lat="41.112400" lon="-4.264667">
        <ele>2247.0</ele>
        <time>2016-07-12T16:28:39Z</time>
      </trkpt>
      <trkpt lat="41.112400" lon="-4.264733">
        <ele>2244.0</ele>
        <time>2016-07-12T16:28:40Z</time>
      </trkpt>
      <trkpt lat="41.112417" lon="-4.264783">
        <ele>2243.0</ele>
        <time>2016-07-12T16:28:41Z</time>
      </trkpt>
      <trkpt lat="41.112433" lon="-4.264800">
        <ele>2242.0</ele>
        <time>2016-07-12T16:28:42Z</time>
      </trkpt>
      <trkpt lat="41.112467" lon="-4.264800">
        <ele>2241.0</ele>
        <time>2016-07-12T16:28:43Z</time>
      </trkpt>
      <trkpt lat="41.112500" lon="-4.264767">
        <ele>2240.0</ele>
        <time>2016-07-12T16:28:44Z</time>
      </trkpt>
      <trkpt lat="41.112533" lon="-4.264700">
        <ele>2239.0</ele>
        <time>2016-07-12T16:28:45Z</time>
      </trkpt>
      <trkpt lat="41.112583" lon="-4.264633">
        <ele>2239.0</ele>
        <time>2016-07-12T16:28:46Z</time>
      </trkpt>
      <trkpt lat="41.112617" lon="-4.264533">
        <ele>2239.0</ele>
        <time>2016-07-12T16:28:47Z</time>
      </trkpt>
      <trkpt lat="41.112650" lon="-4.264417">
        <ele>2241.0</ele>
        <time>2016-07-12T16:28:48Z</time>
      </trkpt>
      <trkpt lat="41.112667" lon="-4.264300">
        <ele>2241.0</ele>
        <time>2016-07-12T16:28:49Z</time>
      </trkpt>
      <trkpt lat="41.112683" lon="-4.264183">
        <ele>2240.0</ele>
        <time>2016-07-12T16:28:50Z</time>
      </trkpt>
      <trkpt lat="41.112700" lon="-4.264067">
        <ele>2238.0</ele>
        <time>2016-07-12T16:28:51Z</time>
      </trkpt>
      <trkpt lat="41.112733" lon="-4.263933">
        <ele>2237.0</ele>
        <time>2016-07-12T16:28:52Z</time>
      </trkpt>
      <trkpt lat="41.112750" lon="-4.263800">
        <ele>2235.0</ele>
        <time>2016-07-12T16:28:53Z</time>
      </trkpt>
      <trkpt lat="41.112767" lon="-4.263633">
        <ele>2234.0</ele>
        <time>2016-07-12T16:28:54Z</time>
      </trkpt>
      <trkpt lat="41.112767" lon="-4.263467">
        <ele>2233.0</ele>
        <time>2016-07-12T16:28:55Z</time>
      </trkpt>
      <trkpt lat="41.112750" lon="-4.263300">
        <ele>2234.0</ele>
        <time>2016-07-12T16:28:56Z</time>
      </trkpt>
      <trkpt lat="41.112750" lon="-4.263133">
        <ele>2234.0</ele>
        <time>2016-07-12T16:28:57Z</time>
      </trkpt>
      <trkpt lat="41.112733" lon="-4.262983">
        <ele>2235.0</ele>
        <time>2016-07-12T16:28:58Z</time>
      </trkpt>
      <trkpt lat="41.112717" lon="-4.262817">
        <ele>2235.0</ele>
        <time>2016-07-12T16:28:59Z</time>
      </trkpt>
      <trkpt lat="41.112683" lon="-4.262650">
        <ele>2235.0</ele>
        <time>2016-07-12T16:29:00Z</time>
      </trkpt>
      <trkpt lat="41.112650" lon="-4.262467">
        <ele>2236.0</ele>
        <time>2016-07-12T16:29:01Z</time>
      </trkpt>
      <trkpt lat="41.112617" lon="-4.262300">
        <ele>2236.0</ele>
        <time>2016-07-12T16:29:02Z</time>
      </trkpt>
      <trkpt lat="41.112600" lon="-4.262133">
        <ele>2237.0</ele>
        <time>2016-07-12T16:29:03Z</time>
      </trkpt>
      <trkpt lat="41.112550" lon="-4.261967">
        <ele>2238.0</ele>
        <time>2016-07-12T16:29:04Z</time>
      </trkpt>
      <trkpt lat="41.112517" lon="-4.261800">
        <ele>2239.0</ele>
        <time>2016-07-12T16:29:05Z</time>
      </trkpt>
      <trkpt lat="41.112483" lon="-4.261633">
        <ele>2239.0</ele>
        <time>2016-07-12T16:29:06Z</time>
      </trkpt>
      <trkpt lat="41.112433" lon="-4.261467">
        <ele>2240.0</ele>
        <time>2016-07-12T16:29:07Z</time>
      </trkpt>
      <trkpt lat="41.112400" lon="-4.261300">
        <ele>2240.0</ele>
        <time>2016-07-12T16:29:08Z</time>
      </trkpt>
      <trkpt lat="41.112383" lon="-4.261133">
        <ele>2241.0</ele>
        <time>2016-07-12T16:29:09Z</time>
      </trkpt>
      <trkpt lat="41.112350" lon="-4.260967">
        <ele>2242.0</ele>
        <time>2016-07-12T16:29:10Z</time>
      </trkpt>
      <trkpt lat="41.112300" lon="-4.260817">
        <ele>2243.0</ele>
        <time>2016-07-12T16:29:11Z</time>
      </trkpt>
      <trkpt lat="41.112250" lon="-4.260650">
        <ele>2243.0</ele>
        <time>2016-07-12T16:29:12Z</time>
      </trkpt>
      <trkpt lat="41.112200" lon="-4.260483">
        <ele>2243.0</ele>
        <time>2016-07-12T16:29:13Z</time>
      </trkpt>
      <trkpt lat="41.112133" lon="-4.260317">
        <ele>2243.0</ele>
        <time>2016-07-12T16:29:14Z</time>
      </trkpt>
      <trkpt lat="41.112083" lon="-4.260150">
        <ele>2243.0</ele>
        <time>2016-07-12T16:29:15Z</time>
      </trkpt>
      <trkpt lat="41.112033" lon="-4.259983">
        <ele>2242.0</ele>
        <time>2016-07-12T16:29:16Z</time>
      </trkpt>
      <trkpt lat="41.111983" lon="-4.259817">
        <ele>2242.0</ele>
        <time>2016-07-12T16:29:17Z</time>
      </trkpt>
      <trkpt lat="41.111950" lon="-4.259650">
        <ele>2242.0</ele>
        <time>2016-07-12T16:29:18Z</time>
      </trkpt>
      <trkpt lat="41.111900" lon="-4.259483">
        <ele>2242.0</ele>
        <time>2016-07-12T16:29:19Z</time>
      </trkpt>
      <trkpt lat="41.111850" lon="-4.259300">
        <ele>2243.0</ele>
        <time>2016-07-12T16:29:20Z</time>
      </trkpt>
      <trkpt lat="41.111800" lon="-4.259133">
        <ele>2244.0</ele>
        <time>2016-07-12T16:29:21Z</time>
      </trkpt>
      <trkpt lat="41.111717" lon="-4.258983">
        <ele>2245.0</ele>
        <time>2016-07-12T16:29:22Z</time>
      </trkpt>
      <trkpt lat="41.111650" lon="-4.258850">
        <ele>2245.0</ele>
        <time>2016-07-12T16:29:23Z</time>
      </trkpt>
      <trkpt lat="41.111583" lon="-4.258700">
        <ele>2245.0</ele>
        <time>2016-07-12T16:29:24Z</time>
      </trkpt>
      <trkpt lat="41.111517" lon="-4.258550">
        <ele>2245.0</ele>
        <time>2016-07-12T16:29:25Z</time>
      </trkpt>
      <trkpt lat="41.111433" lon="-4.258400">
        <ele>2244.0</ele>
        <time>2016-07-12T16:29:26Z</time>
      </trkpt>
      <trkpt lat="41.111367" lon="-4.258250">
        <ele>2245.0</ele>
        <time>2016-07-12T16:29:27Z</time>
      </trkpt>
      <trkpt lat="41.111283" lon="-4.258100">
        <ele>2245.0</ele>
        <time>2016-07-12T16:29:28Z</time>
      </trkpt>
      <trkpt lat="41.111183" lon="-4.257983">
        <ele>2246.0</ele>
        <time>2016-07-12T16:29:29Z</time>
      </trkpt>
      <trkpt lat="41.111100" lon="-4.257867">
        <ele>2246.0</ele>
        <time>2016-07-12T16:29:30Z</time>
      </trkpt>
      <trkpt lat="41.111000" lon="-4.257733">
        <ele>2245.0</ele>
        <time>2016-07-12T16:29:31Z</time>
      </trkpt>
      <trkpt lat="41.110917" lon="-4.257600">
        <ele>2244.0</ele>
        <time>2016-07-12T16:29:32Z</time>
      </trkpt>
      <trkpt lat="41.110817" lon="-4.257467">
        <ele>2243.0</ele>
        <time>2016-07-12T16:29:33Z</time>
      </trkpt>
      <trkpt lat="41.110700" lon="-4.257350">
        <ele>2243.0</ele>
        <time>2016-07-12T16:29:34Z</time>
      </trkpt>
      <trkpt lat="41.110600" lon="-4.257233">
        <ele>2242.0</ele>
        <time>2016-07-12T16:29:35Z</time>
      </trkpt>
      <trkpt lat="41.110483" lon="-4.257150">
        <ele>2242.0</ele>
        <time>2016-07-12T16:29:36Z</time>
      </trkpt>
      <trkpt lat="41.110367" lon="-4.257050">
        <ele>2241.0</ele>
        <time>2016-07-12T16:29:37Z</time>
      </trkpt>
      <trkpt lat="41.110233" lon="-4.256950">
        <ele>2241.0</ele>
        <time>2016-07-12T16:29:38Z</time>
      </trkpt>
      <trkpt lat="41.110117" lon="-4.256867">
        <ele>2241.0</ele>
        <time>2016-07-12T16:29:39Z</time>
      </trkpt>
      <trkpt lat="41.110017" lon="-4.256783">
        <ele>2242.0</ele>
        <time>2016-07-12T16:29:40Z</time>
      </trkpt>
      <trkpt lat="41.109900" lon="-4.256717">
        <ele>2242.0</ele>
        <time>2016-07-12T16:29:41Z</time>
      </trkpt>
      <trkpt lat="41.109800" lon="-4.256633">
        <ele>2240.0</ele>
        <time>2016-07-12T16:29:42Z</time>
      </trkpt>
      <trkpt lat="41.109683" lon="-4.256550">
        <ele>2238.0</ele>
        <time>2016-07-12T16:29:43Z</time>
      </trkpt>
      <trkpt lat="41.109550" lon="-4.256483">
        <ele>2236.0</ele>
        <time>2016-07-12T16:29:44Z</time>
      </trkpt>
      <trkpt lat="41.109433" lon="-4.256433">
        <ele>2235.0</ele>
        <time>2016-07-12T16:29:45Z</time>
      </trkpt>
      <trkpt lat="41.109300" lon="-4.256383">
        <ele>2235.0</ele>
        <time>2016-07-12T16:29:46Z</time>
      </trkpt>
      <trkpt lat="41.109183" lon="-4.256350">
        <ele>2235.0</ele>
        <time>2016-07-12T16:29:47Z</time>
      </trkpt>
      <trkpt lat="41.109083" lon="-4.256300">
        <ele>2235.0</ele>
        <time>2016-07-12T16:29:48Z</time>
      </trkpt>
      <trkpt lat="41.108967" lon="-4.256233">
        <ele>2234.0</ele>
        <time>2016-07-12T16:29:49Z</time>
      </trkpt>
      <trkpt lat="41.108850" lon="-4.256183">
        <ele>2233.0</ele>
        <time>2016-07-12T16:29:50Z</time>
      </trkpt>
      <trkpt lat="41.108733" lon="-4.256117">
        <ele>2231.0</ele>
        <time>2016-07-12T16:29:51Z</time>
      </trkpt>
      <trkpt lat="41.108617" lon="-4.256083">
        <ele>2231.0</ele>
        <time>2016-07-12T16:29:52Z</time>
      </trkpt>
      <trkpt lat="41.108500" lon="-4.256067">
        <ele>2230.0</ele>
        <time>2016-07-12T16:29:53Z</time>
      </trkpt>
      <trkpt lat="41.108383" lon="-4.256050">
        <ele>2229.0</ele>
        <time>2016-07-12T16:29:54Z</time>
      </trkpt>
      <trkpt lat="41.108267" lon="-4.256050">
        <ele>2230.0</ele>
        <time>2016-07-12T16:29:55Z</time>
      </trkpt>
      <trkpt lat="41.108167" lon="-4.256050">
        <ele>2232.0</ele>
        <time>2016-07-12T16:29:56Z</time>
      </trkpt>
      <trkpt lat="41.108067" lon="-4.256050">
        <ele>2234.0</ele>
        <time>2016-07-12T16:29:57Z</time>
      </trkpt>
      <trkpt lat="41.107983" lon="-4.256033">
        <ele>2236.0</ele>
        <time>2016-07-12T16:29:58Z</time>
      </trkpt>
      <trkpt lat="41.107883" lon="-4.256017">
        <ele>2235.0</ele>
        <time>2016-07-12T16:29:59Z</time>
      </trkpt>
      <trkpt lat="41.107783" lon="-4.256000">
        <ele>2234.0</ele>
        <time>2016-07-12T16:30:00Z</time>
      </trkpt>
      <trkpt lat="41.107683" lon="-4.256000">
        <ele>2232.0</ele>
        <time>2016-07-12T16:30:01Z</time>
      </trkpt>
      <trkpt lat="41.107583" lon="-4.256017">
        <ele>2231.0</ele>
        <time>2016-07-12T16:30:02Z</time>
      </trkpt>
      <trkpt lat="41.107483" lon="-4.256050">
        <ele>2229.0</ele>
        <time>2016-07-12T16:30:03Z</time>
      </trkpt>
      <trkpt lat="41.107417" lon="-4.256083">
        <ele>2228.0</ele>
        <time>2016-07-12T16:30:04Z</time>
      </trkpt>
      <trkpt lat="41.107350" lon="-4.256117">
        <ele>2226.0</ele>
        <time>2016-07-12T16:30:05Z</time>
      </trkpt>
      <trkpt lat="41.107283" lon="-4.256167">
        <ele>2224.0</ele>
        <time>2016-07-12T16:30:06Z</time>
      </trkpt>
      <trkpt lat="41.107217" lon="-4.256233">
        <ele>2222.0</ele>
        <time>2016-07-12T16:30:07Z</time>
      </trkpt>
      <trkpt lat="41.107150" lon="-4.256300">
        <ele>2220.0</ele>
        <time>2016-07-12T16:30:08Z</time>
      </trkpt>
      <trkpt lat="41.107100" lon="-4.256367">
        <ele>2219.0</ele>
        <time>2016-07-12T16:30:09Z</time>
      </trkpt>
      <trkpt lat="41.107033" lon="-4.256433">
        <ele>2218.0</ele>
        <time>2016-07-12T16:30:10Z</time>
      </trkpt>
      <trkpt lat="41.106983" lon="-4.256483">
        <ele>2217.0</ele>
        <time>2016-07-12T16:30:11Z</time>
      </trkpt>
      <trkpt lat="41.106950" lon="-4.256550">
        <ele>2215.0</ele>
        <time>2016-07-12T16:30:12Z</time>
      </trkpt>
      <trkpt lat="41.106917" lon="-4.256600">
        <ele>2212.0</ele>
        <time>2016-07-12T16:30:13Z</time>
      </trkpt>
      <trkpt lat="41.106900" lon="-4.256650">
        <ele>2210.0</ele>
        <time>2016-07-12T16:30:14Z</time>
      </trkpt>
      <trkpt lat="41.106917" lon="-4.256700">
        <ele>2208.0</ele>
        <time>2016-07-12T16:30:15Z</time>
      </trkpt>
      <trkpt lat="41.106933" lon="-4.256717">
        <ele>2206.0</ele>
        <time>2016-07-12T16:30:16Z</time>
      </trkpt>
      <trkpt lat="41.106983" lon="-4.256700">
        <ele>2204.0</ele>
        <time>2016-07-12T16:30:17Z</time>
      </trkpt>
      <trkpt lat="41.107050" lon="-4.256650">
        <ele>2201.0</ele>
        <time>2016-07-12T16:30:18Z</time>
      </trkpt>
      <trkpt lat="41.107100" lon="-4.256550">
        <ele>2199.0</ele>
        <time>2016-07-12T16:30:19Z</time>
      </trkpt>
      <trkpt lat="41.107150" lon="-4.256417">
        <ele>2198.0</ele>
        <time>2016-07-12T16:30:20Z</time>
      </trkpt>
      <trkpt lat="41.107167" lon="-4.256267">
        <ele>2197.0</ele>
        <time>2016-07-12T16:30:21Z</time>
      </trkpt>
      <trkpt lat="41.107183" lon="-4.256133">
        <ele>2197.0</ele>
        <time>2016-07-12T16:30:22Z</time>
      </trkpt>
      <trkpt lat="41.107200" lon="-4.255967">
        <ele>2196.0</ele>
        <time>2016-07-12T16:30:23Z</time>
      </trkpt>
      <trkpt lat="41.107200" lon="-4.255817">
        <ele>2194.0</ele>
        <time>2016-07-12T16:30:24Z</time>
      </trkpt>
      <trkpt lat="41.107183" lon="-4.255633">
        <ele>2191.0</ele>
        <time>2016-07-12T16:30:25Z</time>
      </trkpt>
      <trkpt lat="41.107167" lon="-4.255433">
        <ele>2188.0</ele>
        <time>2016-07-12T16:30:26Z</time>
      </trkpt>
      <trkpt lat="41.107117" lon="-4.255250">
        <ele>2187.0</ele>
        <time>2016-07-12T16:30:27Z</time>
      </trkpt>
      <trkpt lat="41.107067" lon="-4.255067">
        <ele>2185.0</ele>
        <time>2016-07-12T16:30:28Z</time>
      </trkpt>
      <trkpt lat="41.106983" lon="-4.254900">
        <ele>2182.0</ele>
        <time>2016-07-12T16:30:29Z</time>
      </trkpt>
      <trkpt lat="41.106900" lon="-4.254733">
        <ele>2180.0</ele>
        <time>2016-07-12T16:30:30Z</time>
      </trkpt>
      <trkpt lat="41.106800" lon="-4.254567">
        <ele>2179.0</ele>
        <time>2016-07-12T16:30:31Z</time>
      </trkpt>
      <trkpt lat="41.106717" lon="-4.254400">
        <ele>2177.0</ele>
        <time>2016-07-12T16:30:32Z</time>
      </trkpt>
      <trkpt lat="41.106600" lon="-4.254233">
        <ele>2176.0</ele>
        <time>2016-07-12T16:30:33Z</time>
      </trkpt>
      <trkpt lat="41.106500" lon="-4.254100">
        <ele>2175.0</ele>
        <time>2016-07-12T16:30:34Z</time>
      </trkpt>
      <trkpt lat="41.106383" lon="-4.253967">
        <ele>2173.0</ele>
        <time>2016-07-12T16:30:35Z</time>
      </trkpt>
      <trkpt lat="41.106283" lon="-4.253850">
        <ele>2172.0</ele>
        <time>2016-07-12T16:30:36Z</time>
      </trkpt>
      <trkpt lat="41.106167" lon="-4.253750">
        <ele>2169.0</ele>
        <time>2016-07-12T16:30:37Z</time>
      </trkpt>
      <trkpt lat="41.106050" lon="-4.253650">
        <ele>2167.0</ele>
        <time>2016-07-12T16:30:38Z</time>
      </trkpt>
      <trkpt lat="41.105950" lon="-4.253550">
        <ele>2165.0</ele>
        <time>2016-07-12T16:30:39Z</time>
      </trkpt>
      <trkpt lat="41.105833" lon="-4.253450">
        <ele>2163.0</ele>
        <time>2016-07-12T16:30:40Z</time>
      </trkpt>
      <trkpt lat="41.105733" lon="-4.253333">
        <ele>2161.0</ele>
        <time>2016-07-12T16:30:41Z</time>
      </trkpt>
      <trkpt lat="41.105633" lon="-4.253233">
        <ele>2159.0</ele>
        <time>2016-07-12T16:30:42Z</time>
      </trkpt>
      <trkpt lat="41.105533" lon="-4.253133">
        <ele>2157.0</ele>
        <time>2016-07-12T16:30:43Z</time>
      </trkpt>
      <trkpt lat="41.105417" lon="-4.253033">
        <ele>2155.0</ele>
        <time>2016-07-12T16:30:44Z</time>
      </trkpt>
      <trkpt lat="41.105317" lon="-4.252917">
        <ele>2154.0</ele>
        <time>2016-07-12T16:30:45Z</time>
      </trkpt>
      <trkpt lat="41.105217" lon="-4.252800">
        <ele>2152.0</ele>
        <time>2016-07-12T16:30:46Z</time>
      </trkpt>
      <trkpt lat="41.105117" lon="-4.252700">
        <ele>2151.0</ele>
        <time>2016-07-12T16:30:47Z</time>
      </trkpt>
      <trkpt lat="41.105000" lon="-4.252583">
        <ele>2150.0</ele>
        <time>2016-07-12T16:30:48Z</time>
      </trkpt>
      <trkpt lat="41.104883" lon="-4.252483">
        <ele>2148.0</ele>
        <time>2016-07-12T16:30:49Z</time>
      </trkpt>
      <trkpt lat="41.104767" lon="-4.252367">
        <ele>2146.0</ele>
        <time>2016-07-12T16:30:50Z</time>
      </trkpt>
      <trkpt lat="41.104633" lon="-4.252250">
        <ele>2143.0</ele>
        <time>2016-07-12T16:30:51Z</time>
      </trkpt>
      <trkpt lat="41.104533" lon="-4.252117">
        <ele>2141.0</ele>
        <time>2016-07-12T16:30:52Z</time>
      </trkpt>
      <trkpt lat="41.104417" lon="-4.251950">
        <ele>2138.0</ele>
        <time>2016-07-12T16:30:53Z</time>
      </trkpt>
      <trkpt lat="41.104317" lon="-4.251800">
        <ele>2137.0</ele>
        <time>2016-07-12T16:30:54Z</time>
      </trkpt>
      <trkpt lat="41.104200" lon="-4.251650">
        <ele>2136.0</ele>
        <time>2016-07-12T16:30:55Z</time>
      </trkpt>
      <trkpt lat="41.104083" lon="-4.251517">
        <ele>2136.0</ele>
        <time>2016-07-12T16:30:56Z</time>
      </trkpt>
      <trkpt lat="41.103983" lon="-4.251367">
        <ele>2136.0</ele>
        <time>2016-07-12T16:30:57Z</time>
      </trkpt>
      <trkpt lat="41.103883" lon="-4.251217">
        <ele>2135.0</ele>
        <time>2016-07-12T16:30:58Z</time>
      </trkpt>
      <trkpt lat="41.103800" lon="-4.251067">
        <ele>2132.0</ele>
        <time>2016-07-12T16:30:59Z</time>
      </trkpt>
      <trkpt lat="41.103700" lon="-4.250900">
        <ele>2130.0</ele>
        <time>2016-07-12T16:31:00Z</time>
      </trkpt>
      <trkpt lat="41.103600" lon="-4.250733">
        <ele>2128.0</ele>
        <time>2016-07-12T16:31:01Z</time>
      </trkpt>
      <trkpt lat="41.103500" lon="-4.250583">
        <ele>2127.0</ele>
        <time>2016-07-12T16:31:02Z</time>
      </trkpt>
      <trkpt lat="41.103417" lon="-4.250417">
        <ele>2127.0</ele>
        <time>2016-07-12T16:31:03Z</time>
      </trkpt>
      <trkpt lat="41.103333" lon="-4.250250">
        <ele>2126.0</ele>
        <time>2016-07-12T16:31:04Z</time>
      </trkpt>
      <trkpt lat="41.103233" lon="-4.250100">
        <ele>2124.0</ele>
        <time>2016-07-12T16:31:05Z</time>
      </trkpt>
      <trkpt lat="41.103150" lon="-4.249950">
        <ele>2122.0</ele>
        <time>2016-07-12T16:31:06Z</time>
      </trkpt>
      <trkpt lat="41.103050" lon="-4.249783">
        <ele>2120.0</ele>
        <time>2016-07-12T16:31:07Z</time>
      </trkpt>
      <trkpt lat="41.102950" lon="-4.249600">
        <ele>2118.0</ele>
        <time>2016-07-12T16:31:08Z</time>
      </trkpt>
      <trkpt lat="41.102850" lon="-4.249433">
        <ele>2117.0</ele>
        <time>2016-07-12T16:31:09Z</time>
      </trkpt>
      <trkpt lat="41.102767" lon="-4.249267">
        <ele>2117.0</ele>
        <time>2016-07-12T16:31:10Z</time>
      </trkpt>
      <trkpt lat="41.102667" lon="-4.249117">
        <ele>2116.0</ele>
        <time>2016-07-12T16:31:11Z</time>
      </trkpt>
      <trkpt lat="41.102583" lon="-4.248950">
        <ele>2115.0</ele>
        <time>2016-07-12T16:31:12Z</time>
      </trkpt>
      <trkpt lat="41.102483" lon="-4.248800">
        <ele>2112.0</ele>
        <time>2016-07-12T16:31:13Z</time>
      </trkpt>
      <trkpt lat="41.102367" lon="-4.248633">
        <ele>2110.0</ele>
        <time>2016-07-12T16:31:14Z</time>
      </trkpt>
      <trkpt lat="41.102267" lon="-4.248450">
        <ele>2108.0</ele>
        <time>2016-07-12T16:31:15Z</time>
      </trkpt>
      <trkpt lat="41.102167" lon="-4.248267">
        <ele>2107.0</ele>
        <time>2016-07-12T16:31:16Z</time>
      </trkpt>
      <trkpt lat="41.102067" lon="-4.248083">
        <ele>2106.0</ele>
        <time>2016-07-12T16:31:17Z</time>
      </trkpt>
      <trkpt lat="41.101967" lon="-4.247917">
        <ele>2105.0</ele>
        <time>2016-07-12T16:31:18Z</time>
      </trkpt>
      <trkpt lat="41.101867" lon="-4.247733">
        <ele>2104.0</ele>
        <time>2016-07-12T16:31:19Z</time>
      </trkpt>
      <trkpt lat="41.101767" lon="-4.247567">
        <ele>2103.0</ele>
        <time>2016-07-12T16:31:20Z</time>
      </trkpt>
      <trkpt lat="41.101667" lon="-4.247400">
        <ele>2102.0</ele>
        <time>2016-07-12T16:31:21Z</time>
      </trkpt>
      <trkpt lat="41.101583" lon="-4.247250">
        <ele>2101.0</ele>
        <time>2016-07-12T16:31:22Z</time>
      </trkpt>
      <trkpt lat="41.101483" lon="-4.247083">
        <ele>2099.0</ele>
        <time>2016-07-12T16:31:23Z</time>
      </trkpt>
      <trkpt lat="41.101383" lon="-4.246933">
        <ele>2097.0</ele>
        <time>2016-07-12T16:31:24Z</time>
      </trkpt>
      <trkpt lat="41.101267" lon="-4.246767">
        <ele>2094.0</ele>
        <time>2016-07-12T16:31:25Z</time>
      </trkpt>
      <trkpt lat="41.101167" lon="-4.246617">
        <ele>2091.0</ele>
        <time>2016-07-12T16:31:26Z</time>
      </trkpt>
      <trkpt lat="41.101050" lon="-4.246450">
        <ele>2089.0</ele>
        <time>2016-07-12T16:31:27Z</time>
      </trkpt>
      <trkpt lat="41.100933" lon="-4.246300">
        <ele>2087.0</ele>
        <time>2016-07-12T16:31:28Z</time>
      </trkpt>
      <trkpt lat="41.100817" lon="-4.246150">
        <ele>2085.0</ele>
        <time>2016-07-12T16:31:29Z</time>
      </trkpt>
      <trkpt lat="41.100700" lon="-4.246000">
        <ele>2083.0</ele>
        <time>2016-07-12T16:31:30Z</time>
      </trkpt>
      <trkpt lat="41.100583" lon="-4.245867">
        <ele>2081.0</ele>
        <time>2016-07-12T16:31:31Z</time>
      </trkpt>
      <trkpt lat="41.100467" lon="-4.245717">
        <ele>2079.0</ele>
        <time>2016-07-12T16:31:32Z</time>
      </trkpt>
      <trkpt lat="41.100350" lon="-4.245567">
        <ele>2077.0</ele>
        <time>2016-07-12T16:31:33Z</time>
      </trkpt>
      <trkpt lat="41.100233" lon="-4.245417">
        <ele>2076.0</ele>
        <time>2016-07-12T16:31:34Z</time>
      </trkpt>
      <trkpt lat="41.100117" lon="-4.245267">
        <ele>2074.0</ele>
        <time>2016-07-12T16:31:35Z</time>
      </trkpt>
      <trkpt lat="41.100000" lon="-4.245100">
        <ele>2073.0</ele>
        <time>2016-07-12T16:31:36Z</time>
      </trkpt>
      <trkpt lat="41.099900" lon="-4.244950">
        <ele>2072.0</ele>
        <time>2016-07-12T16:31:37Z</time>
      </trkpt>
      <trkpt lat="41.099783" lon="-4.244800">
        <ele>2071.0</ele>
        <time>2016-07-12T16:31:38Z</time>
      </trkpt>
      <trkpt lat="41.099683" lon="-4.244650">
        <ele>2069.0</ele>
        <time>2016-07-12T16:31:39Z</time>
      </trkpt>
      <trkpt lat="41.099567" lon="-4.244500">
        <ele>2067.0</ele>
        <time>2016-07-12T16:31:40Z</time>
      </trkpt>
      <trkpt lat="41.099450" lon="-4.244350">
        <ele>2064.0</ele>
        <time>2016-07-12T16:31:41Z</time>
      </trkpt>
      <trkpt lat="41.099350" lon="-4.244200">
        <ele>2061.0</ele>
        <time>2016-07-12T16:31:42Z</time>
      </trkpt>
      <trkpt lat="41.099233" lon="-4.244050">
        <ele>2058.0</ele>
        <time>2016-07-12T16:31:43Z</time>
      </trkpt>
      <trkpt lat="41.099133" lon="-4.243900">
        <ele>2055.0</ele>
        <time>2016-07-12T16:31:44Z</time>
      </trkpt>
      <trkpt lat="41.099033" lon="-4.243733">
        <ele>2052.0</ele>
        <time>2016-07-12T16:31:45Z</time>
      </trkpt>
      <trkpt lat="41.098933" lon="-4.243567">
        <ele>2049.0</ele>
        <time>2016-07-12T16:31:46Z</time>
      </trkpt>
      <trkpt lat="41.098833" lon="-4.243417">
        <ele>2047.0</ele>
        <time>2016-07-12T16:31:47Z</time>
      </trkpt>
      <trkpt lat="41.098733" lon="-4.243267">
        <ele>2046.0</ele>
        <time>2016-07-12T16:31:48Z</time>
      </trkpt>
      <trkpt lat="41.098650" lon="-4.243133">
        <ele>2045.0</ele>
        <time>2016-07-12T16:31:49Z</time>
      </trkpt>
      <trkpt lat="41.098567" lon="-4.243000">
        <ele>2044.0</ele>
        <time>2016-07-12T16:31:50Z</time>
      </trkpt>
      <trkpt lat="41.098467" lon="-4.242850">
        <ele>2041.0</ele>
        <time>2016-07-12T16:31:51Z</time>
      </trkpt>
      <trkpt lat="41.098383" lon="-4.242717">
        <ele>2038.0</ele>
        <time>2016-07-12T16:31:52Z</time>
      </trkpt>
      <trkpt lat="41.098267" lon="-4.242567">
        <ele>2035.0</ele>
        <time>2016-07-12T16:31:53Z</time>
      </trkpt>
      <trkpt lat="41.098167" lon="-4.242433">
        <ele>2032.0</ele>
        <time>2016-07-12T16:31:54Z</time>
      </trkpt>
      <trkpt lat="41.098050" lon="-4.242300">
        <ele>2031.0</ele>
        <time>2016-07-12T16:31:55Z</time>
      </trkpt>
      <trkpt lat="41.097950" lon="-4.242150">
        <ele>2029.0</ele>
        <time>2016-07-12T16:31:56Z</time>
      </trkpt>
      <trkpt lat="41.097850" lon="-4.242017">
        <ele>2027.0</ele>
        <time>2016-07-12T16:31:57Z</time>
      </trkpt>
      <trkpt lat="41.097750" lon="-4.241867">
        <ele>2025.0</ele>
        <time>2016-07-12T16:31:58Z</time>
      </trkpt>
      <trkpt lat="41.097650" lon="-4.241750">
        <ele>2023.0</ele>
        <time>2016-07-12T16:31:59Z</time>
      </trkpt>
      <trkpt lat="41.097550" lon="-4.241617">
        <ele>2021.0</ele>
        <time>2016-07-12T16:32:00Z</time>
      </trkpt>
      <trkpt lat="41.097433" lon="-4.241483">
        <ele>2019.0</ele>
        <time>2016-07-12T16:32:01Z</time>
      </trkpt>
      <trkpt lat="41.097317" lon="-4.241350">
        <ele>2018.0</ele>
        <time>2016-07-12T16:32:02Z</time>
      </trkpt>
      <trkpt lat="41.097217" lon="-4.241217">
        <ele>2016.0</ele>
        <time>2016-07-12T16:32:03Z</time>
      </trkpt>
      <trkpt lat="41.097117" lon="-4.241083">
        <ele>2015.0</ele>
        <time>2016-07-12T16:32:04Z</time>
      </trkpt>
      <trkpt lat="41.097017" lon="-4.240933">
        <ele>2014.0</ele>
        <time>2016-07-12T16:32:05Z</time>
      </trkpt>
      <trkpt lat="41.096900" lon="-4.240817">
        <ele>2012.0</ele>
        <time>2016-07-12T16:32:06Z</time>
      </trkpt>
      <trkpt lat="41.096800" lon="-4.240683">
        <ele>2010.0</ele>
        <time>2016-07-12T16:32:07Z</time>
      </trkpt>
      <trkpt lat="41.096683" lon="-4.240550">
        <ele>2008.0</ele>
        <time>2016-07-12T16:32:08Z</time>
      </trkpt>
      <trkpt lat="41.096567" lon="-4.240417">
        <ele>2006.0</ele>
        <time>2016-07-12T16:32:09Z</time>
      </trkpt>
      <trkpt lat="41.096450" lon="-4.240283">
        <ele>2005.0</ele>
        <time>2016-07-12T16:32:10Z</time>
      </trkpt>
      <trkpt lat="41.096333" lon="-4.240150">
        <ele>2005.0</ele>
        <time>2016-07-12T16:32:11Z</time>
      </trkpt>
      <trkpt lat="41.096233" lon="-4.240017">
        <ele>2006.0</ele>
        <time>2016-07-12T16:32:12Z</time>
      </trkpt>
      <trkpt lat="41.096133" lon="-4.239883">
        <ele>2007.0</ele>
        <time>2016-07-12T16:32:13Z</time>
      </trkpt>
      <trkpt lat="41.096017" lon="-4.239767">
        <ele>2007.0</ele>
        <time>2016-07-12T16:32:14Z</time>
      </trkpt>
      <trkpt lat="41.095917" lon="-4.239667">
        <ele>2007.0</ele>
        <time>2016-07-12T16:32:15Z</time>
      </trkpt>
      <trkpt lat="41.095817" lon="-4.239550">
        <ele>2007.0</ele>
        <time>2016-07-12T16:32:16Z</time>
      </trkpt>
      <trkpt lat="41.095717" lon="-4.239417">
        <ele>2008.0</ele>
        <time>2016-07-12T16:32:17Z</time>
      </trkpt>
      <trkpt lat="41.095633" lon="-4.239300">
        <ele>2008.0</ele>
        <time>2016-07-12T16:32:18Z</time>
      </trkpt>
      <trkpt lat="41.095533" lon="-4.239167">
        <ele>2009.0</ele>
        <time>2016-07-12T16:32:19Z</time>
      </trkpt>
      <trkpt lat="41.095450" lon="-4.239033">
        <ele>2009.0</ele>
        <time>2016-07-12T16:32:20Z</time>
      </trkpt>
      <trkpt lat="41.095350" lon="-4.238917">
        <ele>2010.0</ele>
        <time>2016-07-12T16:32:21Z</time>
      </trkpt>
      <trkpt lat="41.095267" lon="-4.238800">
        <ele>2011.0</ele>
        <time>2016-07-12T16:32:22Z</time>
      </trkpt>
      <trkpt lat="41.095183" lon="-4.238683">
        <ele>2012.0</ele>
        <time>2016-07-12T16:32:23Z</time>
      </trkpt>
      <trkpt lat="41.095100" lon="-4.238550">
        <ele>2012.0</ele>
        <time>2016-07-12T16:32:24Z</time>
      </trkpt>
      <trkpt lat="41.095017" lon="-4.238417">
        <ele>2013.0</ele>
        <time>2016-07-12T16:32:25Z</time>
      </trkpt>
      <trkpt lat="41.094933" lon="-4.238300">
        <ele>2013.0</ele>
        <time>2016-07-12T16:32:26Z</time>
      </trkpt>
      <trkpt lat="41.094833" lon="-4.238167">
        <ele>2014.0</ele>
        <time>2016-07-12T16:32:27Z</time>
      </trkpt>
      <trkpt lat="41.094767" lon="-4.238050">
        <ele>2014.0</ele>
        <time>2016-07-12T16:32:28Z</time>
      </trkpt>
      <trkpt lat="41.094683" lon="-4.237917">
        <ele>2014.0</ele>
        <time>2016-07-12T16:32:29Z</time>
      </trkpt>
      <trkpt lat="41.094600" lon="-4.237783">
        <ele>2013.0</ele>
        <time>2016-07-12T16:32:30Z</time>
      </trkpt>
      <trkpt lat="41.094517" lon="-4.237633">
        <ele>2013.0</ele>
        <time>2016-07-12T16:32:31Z</time>
      </trkpt>
      <trkpt lat="41.094433" lon="-4.237500">
        <ele>2013.0</ele>
        <time>2016-07-12T16:32:32Z</time>
      </trkpt>
      <trkpt lat="41.094367" lon="-4.237367">
        <ele>2013.0</ele>
        <time>2016-07-12T16:32:33Z</time>
      </trkpt>
      <trkpt lat="41.094283" lon="-4.237250">
        <ele>2013.0</ele>
        <time>2016-07-12T16:32:34Z</time>
      </trkpt>
      <trkpt lat="41.094183" lon="-4.237133">
        <ele>2012.0</ele>
        <time>2016-07-12T16:32:35Z</time>
      </trkpt>
      <trkpt lat="41.094100" lon="-4.237000">
        <ele>2011.0</ele>
        <time>2016-07-12T16:32:36Z</time>
      </trkpt>
      <trkpt lat="41.094000" lon="-4.236867">
        <ele>2010.0</ele>
        <time>2016-07-12T16:32:37Z</time>
      </trkpt>
      <trkpt lat="41.093900" lon="-4.236733">
        <ele>2010.0</ele>
        <time>2016-07-12T16:32:38Z</time>
      </trkpt>
      <trkpt lat="41.093817" lon="-4.236583">
        <ele>2009.0</ele>
        <time>2016-07-12T16:32:39Z</time>
      </trkpt>
      <trkpt lat="41.093733" lon="-4.236450">
        <ele>2009.0</ele>
        <time>2016-07-12T16:32:40Z</time>
      </trkpt>
      <trkpt lat="41.093650" lon="-4.236300">
        <ele>2008.0</ele>
        <time>2016-07-12T16:32:41Z</time>
      </trkpt>
      <trkpt lat="41.093550" lon="-4.236167">
        <ele>2007.0</ele>
        <time>2016-07-12T16:32:42Z</time>
      </trkpt>
      <trkpt lat="41.093467" lon="-4.236017">
        <ele>2006.0</ele>
        <time>2016-07-12T16:32:43Z</time>
      </trkpt>
      <trkpt lat="41.093383" lon="-4.235867">
        <ele>2006.0</ele>
        <time>2016-07-12T16:32:44Z</time>
      </trkpt>
      <trkpt lat="41.093300" lon="-4.235717">
        <ele>2006.0</ele>
        <time>2016-07-12T16:32:45Z</time>
      </trkpt>
      <trkpt lat="41.093217" lon="-4.235583">
        <ele>2007.0</ele>
        <time>2016-07-12T16:32:46Z</time>
      </trkpt>
      <trkpt lat="41.093150" lon="-4.235450">
        <ele>2006.0</ele>
        <time>2016-07-12T16:32:47Z</time>
      </trkpt>
      <trkpt lat="41.093067" lon="-4.235317">
        <ele>2005.0</ele>
        <time>2016-07-12T16:32:48Z</time>
      </trkpt>
      <trkpt lat="41.092983" lon="-4.235167">
        <ele>2003.0</ele>
        <time>2016-07-12T16:32:49Z</time>
      </trkpt>
      <trkpt lat="41.092883" lon="-4.235017">
        <ele>2001.0</ele>
        <time>2016-07-12T16:32:50Z</time>
      </trkpt>
      <trkpt lat="41.092783" lon="-4.234850">
        <ele>2000.0</ele>
        <time>2016-07-12T16:32:51Z</time>
      </trkpt>
      <trkpt lat="41.092683" lon="-4.234700">
        <ele>2000.0</ele>
        <time>2016-07-12T16:32:52Z</time>
      </trkpt>
      <trkpt lat="41.092600" lon="-4.234550">
        <ele>2000.0</ele>
        <time>2016-07-12T16:32:53Z</time>
      </trkpt>
      <trkpt lat="41.092500" lon="-4.234417">
        <ele>1999.0</ele>
        <time>2016-07-12T16:32:54Z</time>
      </trkpt>
      <trkpt lat="41.092417" lon="-4.234267">
        <ele>1997.0</ele>
        <time>2016-07-12T16:32:55Z</time>
      </trkpt>
      <trkpt lat="41.092317" lon="-4.234100">
        <ele>1995.0</ele>
        <time>2016-07-12T16:32:56Z</time>
      </trkpt>
      <trkpt lat="41.092217" lon="-4.233950">
        <ele>1994.0</ele>
        <time>2016-07-12T16:32:57Z</time>
      </trkpt>
      <trkpt lat="41.092117" lon="-4.233800">
        <ele>1993.0</ele>
        <time>2016-07-12T16:32:58Z</time>
      </trkpt>
      <trkpt lat="41.092000" lon="-4.233650">
        <ele>1992.0</ele>
        <time>2016-07-12T16:32:59Z</time>
      </trkpt>
      <trkpt lat="41.091900" lon="-4.233517">
        <ele>1991.0</ele>
        <time>2016-07-12T16:33:00Z</time>
      </trkpt>
      <trkpt lat="41.091817" lon="-4.233383">
        <ele>1990.0</ele>
        <time>2016-07-12T16:33:01Z</time>
      </trkpt>
      <trkpt lat="41.091717" lon="-4.233250">
        <ele>1988.0</ele>
        <time>2016-07-12T16:33:02Z</time>
      </trkpt>
      <trkpt lat="41.091600" lon="-4.233100">
        <ele>1986.0</ele>
        <time>2016-07-12T16:33:03Z</time>
      </trkpt>
      <trkpt lat="41.091500" lon="-4.232950">
        <ele>1984.0</ele>
        <time>2016-07-12T16:33:04Z</time>
      </trkpt>
      <trkpt lat="41.091383" lon="-4.232800">
        <ele>1983.0</ele>
        <time>2016-07-12T16:33:05Z</time>
      </trkpt>
      <trkpt lat="41.091267" lon="-4.232650">
        <ele>1982.0</ele>
        <time>2016-07-12T16:33:06Z</time>
      </trkpt>
      <trkpt lat="41.091167" lon="-4.232500">
        <ele>1981.0</ele>
        <time>2016-07-12T16:33:07Z</time>
      </trkpt>
      <trkpt lat="41.091050" lon="-4.232350">
        <ele>1980.0</ele>
        <time>2016-07-12T16:33:08Z</time>
      </trkpt>
      <trkpt lat="41.090950" lon="-4.232183">
        <ele>1979.0</ele>
        <time>2016-07-12T16:33:09Z</time>
      </trkpt>
      <trkpt lat="41.090833" lon="-4.232050">
        <ele>1978.0</ele>
        <time>2016-07-12T16:33:10Z</time>
      </trkpt>
      <trkpt lat="41.090717" lon="-4.231917">
        <ele>1978.0</ele>
        <time>2016-07-12T16:33:11Z</time>
      </trkpt>
      <trkpt lat="41.090617" lon="-4.231783">
        <ele>1977.0</ele>
        <time>2016-07-12T16:33:12Z</time>
      </trkpt>
      <trkpt lat="41.090500" lon="-4.231667">
        <ele>1976.0</ele>
        <time>2016-07-12T16:33:13Z</time>
      </trkpt>
      <trkpt lat="41.090383" lon="-4.231533">
        <ele>1975.0</ele>
        <time>2016-07-12T16:33:14Z</time>
      </trkpt>
      <trkpt lat="41.090267" lon="-4.231400">
        <ele>1976.0</ele>
        <time>2016-07-12T16:33:15Z</time>
      </trkpt>
      <trkpt lat="41.090150" lon="-4.231283">
        <ele>1976.0</ele>
        <time>2016-07-12T16:33:16Z</time>
      </trkpt>
      <trkpt lat="41.090050" lon="-4.231167">
        <ele>1977.0</ele>
        <time>2016-07-12T16:33:17Z</time>
      </trkpt>
      <trkpt lat="41.089950" lon="-4.231050">
        <ele>1977.0</ele>
        <time>2016-07-12T16:33:18Z</time>
      </trkpt>
      <trkpt lat="41.089833" lon="-4.230933">
        <ele>1976.0</ele>
        <time>2016-07-12T16:33:19Z</time>
      </trkpt>
      <trkpt lat="41.089733" lon="-4.230800">
        <ele>1974.0</ele>
        <time>2016-07-12T16:33:20Z</time>
      </trkpt>
      <trkpt lat="41.089633" lon="-4.230683">
        <ele>1972.0</ele>
        <time>2016-07-12T16:33:21Z</time>
      </trkpt>
      <trkpt lat="41.089517" lon="-4.230533">
        <ele>1970.0</ele>
        <time>2016-07-12T16:33:22Z</time>
      </trkpt>
      <trkpt lat="41.089400" lon="-4.230400">
        <ele>1969.0</ele>
        <time>2016-07-12T16:33:23Z</time>
      </trkpt>
      <trkpt lat="41.089283" lon="-4.230267">
        <ele>1969.0</ele>
        <time>2016-07-12T16:33:24Z</time>
      </trkpt>
      <trkpt lat="41.089183" lon="-4.230150">
        <ele>1969.0</ele>
        <time>2016-07-12T16:33:25Z</time>
      </trkpt>
      <trkpt lat="41.089083" lon="-4.230033">
        <ele>1968.0</ele>
        <time>2016-07-12T16:33:26Z</time>
      </trkpt>
      <trkpt lat="41.088983" lon="-4.229917">
        <ele>1966.0</ele>
        <time>2016-07-12T16:33:27Z</time>
      </trkpt>
      <trkpt lat="41.088867" lon="-4.229800">
        <ele>1964.0</ele>
        <time>2016-07-12T16:33:28Z</time>
      </trkpt>
      <trkpt lat="41.088750" lon="-4.229667">
        <ele>1962.0</ele>
        <time>2016-07-12T16:33:29Z</time>
      </trkpt>
      <trkpt lat="41.088633" lon="-4.229533">
        <ele>1960.0</ele>
        <time>2016-07-12T16:33:30Z</time>
      </trkpt>
      <trkpt lat="41.088533" lon="-4.229417">
        <ele>1959.0</ele>
        <time>2016-07-12T16:33:31Z</time>
      </trkpt>
      <trkpt lat="41.088417" lon="-4.229300">
        <ele>1957.0</ele>
        <time>2016-07-12T16:33:32Z</time>
      </trkpt>
      <trkpt lat="41.088283" lon="-4.229183">
        <ele>1955.0</ele>
        <time>2016-07-12T16:33:33Z</time>
      </trkpt>
      <trkpt lat="41.088167" lon="-4.229083">
        <ele>1953.0</ele>
        <time>2016-07-12T16:33:34Z</time>
      </trkpt>
      <trkpt lat="41.088033" lon="-4.228967">
        <ele>1951.0</ele>
        <time>2016-07-12T16:33:35Z</time>
      </trkpt>
      <trkpt lat="41.087917" lon="-4.228833">
        <ele>1949.0</ele>
        <time>2016-07-12T16:33:36Z</time>
      </trkpt>
      <trkpt lat="41.087783" lon="-4.228700">
        <ele>1947.0</ele>
        <time>2016-07-12T16:33:37Z</time>
      </trkpt>
      <trkpt lat="41.087650" lon="-4.228583">
        <ele>1946.0</ele>
        <time>2016-07-12T16:33:38Z</time>
      </trkpt>
      <trkpt lat="41.087517" lon="-4.228483">
        <ele>1946.0</ele>
        <time>2016-07-12T16:33:39Z</time>
      </trkpt>
      <trkpt lat="41.087400" lon="-4.228383">
        <ele>1946.0</ele>
        <time>2016-07-12T16:33:40Z</time>
      </trkpt>
      <trkpt lat="41.087283" lon="-4.228267">
        <ele>1945.0</ele>
        <time>2016-07-12T16:33:41Z</time>
      </trkpt>
      <trkpt lat="41.087167" lon="-4.228150">
        <ele>1943.0</ele>
        <time>2016-07-12T16:33:42Z</time>
      </trkpt>
      <trkpt lat="41.087050" lon="-4.228017">
        <ele>1941.0</ele>
        <time>2016-07-12T16:33:43Z</time>
      </trkpt>
      <trkpt lat="41.086933" lon="-4.227900">
        <ele>1939.0</ele>
        <time>2016-07-12T16:33:44Z</time>
      </trkpt>
      <trkpt lat="41.086800" lon="-4.227767">
        <ele>1938.0</ele>
        <time>2016-07-12T16:33:45Z</time>
      </trkpt>
      <trkpt lat="41.086683" lon="-4.227633">
        <ele>1937.0</ele>
        <time>2016-07-12T16:33:46Z</time>
      </trkpt>
      <trkpt lat="41.086583" lon="-4.227500">
        <ele>1936.0</ele>
        <time>2016-07-12T16:33:47Z</time>
      </trkpt>
      <trkpt lat="41.086467" lon="-4.227367">
        <ele>1935.0</ele>
        <time>2016-07-12T16:33:48Z</time>
      </trkpt>
      <trkpt lat="41.086350" lon="-4.227250">
        <ele>1934.0</ele>
        <time>2016-07-12T16:33:49Z</time>
      </trkpt>
      <trkpt lat="41.086233" lon="-4.227117">
        <ele>1932.0</ele>
        <time>2016-07-12T16:33:50Z</time>
      </trkpt>
      <trkpt lat="41.086117" lon="-4.227000">
        <ele>1930.0</ele>
        <time>2016-07-12T16:33:51Z</time>
      </trkpt>
      <trkpt lat="41.086000" lon="-4.226867">
        <ele>1929.0</ele>
        <time>2016-07-12T16:33:52Z</time>
      </trkpt>
      <trkpt lat="41.085883" lon="-4.226750">
        <ele>1929.0</ele>
        <time>2016-07-12T16:33:53Z</time>
      </trkpt>
      <trkpt lat="41.085767" lon="-4.226633">
        <ele>1928.0</ele>
        <time>2016-07-12T16:33:54Z</time>
      </trkpt>
      <trkpt lat="41.085650" lon="-4.226517">
        <ele>1927.0</ele>
        <time>2016-07-12T16:33:55Z</time>
      </trkpt>
      <trkpt lat="41.085533" lon="-4.226400">
        <ele>1925.0</ele>
        <time>2016-07-12T16:33:56Z</time>
      </trkpt>
      <trkpt lat="41.085417" lon="-4.226283">
        <ele>1923.0</ele>
        <time>2016-07-12T16:33:57Z</time>
      </trkpt>
      <trkpt lat="41.085300" lon="-4.226167">
        <ele>1922.0</ele>
        <time>2016-07-12T16:33:58Z</time>
      </trkpt>
      <trkpt lat="41.085183" lon="-4.226067">
        <ele>1922.0</ele>
        <time>2016-07-12T16:33:59Z</time>
      </trkpt>
      <trkpt lat="41.085067" lon="-4.225967">
        <ele>1920.0</ele>
        <time>2016-07-12T16:34:00Z</time>
      </trkpt>
      <trkpt lat="41.084950" lon="-4.225867">
        <ele>1918.0</ele>
        <time>2016-07-12T16:34:01Z</time>
      </trkpt>
      <trkpt lat="41.084817" lon="-4.225767">
        <ele>1915.0</ele>
        <time>2016-07-12T16:34:02Z</time>
      </trkpt>
      <trkpt lat="41.084683" lon="-4.225667">
        <ele>1913.0</ele>
        <time>2016-07-12T16:34:03Z</time>
      </trkpt>
      <trkpt lat="41.084567" lon="-4.225550">
        <ele>1913.0</ele>
        <time>2016-07-12T16:34:04Z</time>
      </trkpt>
      <trkpt lat="41.084450" lon="-4.225467">
        <ele>1912.0</ele>
        <time>2016-07-12T16:34:05Z</time>
      </trkpt>
      <trkpt lat="41.084333" lon="-4.225383">
        <ele>1911.0</ele>
        <time>2016-07-12T16:34:06Z</time>
      </trkpt>
      <trkpt lat="41.084217" lon="-4.225300">
        <ele>1909.0</ele>
        <time>2016-07-12T16:34:07Z</time>
      </trkpt>
      <trkpt lat="41.084100" lon="-4.225217">
        <ele>1906.0</ele>
        <time>2016-07-12T16:34:08Z</time>
      </trkpt>
      <trkpt lat="41.083967" lon="-4.225117">
        <ele>1902.0</ele>
        <time>2016-07-12T16:34:09Z</time>
      </trkpt>
      <trkpt lat="41.083850" lon="-4.225017">
        <ele>1900.0</ele>
        <time>2016-07-12T16:34:10Z</time>
      </trkpt>
      <trkpt lat="41.083717" lon="-4.224917">
        <ele>1898.0</ele>
        <time>2016-07-12T16:34:11Z</time>
      </trkpt>
      <trkpt lat="41.083583" lon="-4.224817">
        <ele>1896.0</ele>
        <time>2016-07-12T16:34:12Z</time>
      </trkpt>
      <trkpt lat="41.083450" lon="-4.224733">
        <ele>1894.0</ele>
        <time>2016-07-12T16:34:13Z</time>
      </trkpt>
      <trkpt lat="41.083300" lon="-4.224667">
        <ele>1891.0</ele>
        <time>2016-07-12T16:34:14Z</time>
      </trkpt>
      <trkpt lat="41.083167" lon="-4.224583">
        <ele>1889.0</ele>
        <time>2016-07-12T16:34:15Z</time>
      </trkpt>
      <trkpt lat="41.083033" lon="-4.224483">
        <ele>1887.0</ele>
        <time>2016-07-12T16:34:16Z</time>
      </trkpt>
      <trkpt lat="41.082917" lon="-4.224383">
        <ele>1885.0</ele>
        <time>2016-07-12T16:34:17Z</time>
      </trkpt>
      <trkpt lat="41.082783" lon="-4.224300">
        <ele>1883.0</ele>
        <time>2016-07-12T16:34:18Z</time>
      </trkpt>
      <trkpt lat="41.082650" lon="-4.224217">
        <ele>1881.0</ele>
        <time>2016-07-12T16:34:19Z</time>
      </trkpt>
      <trkpt lat="41.082533" lon="-4.224133">
        <ele>1878.0</ele>
        <time>2016-07-12T16:34:20Z</time>
      </trkpt>
      <trkpt lat="41.082400" lon="-4.224033">
        <ele>1876.0</ele>
        <time>2016-07-12T16:34:21Z</time>
      </trkpt>
      <trkpt lat="41.082283" lon="-4.223950">
        <ele>1873.0</ele>
        <time>2016-07-12T16:34:22Z</time>
      </trkpt>
      <trkpt lat="41.082150" lon="-4.223850">
        <ele>1870.0</ele>
        <time>2016-07-12T16:34:23Z</time>
      </trkpt>
      <trkpt lat="41.082017" lon="-4.223750">
        <ele>1868.0</ele>
        <time>2016-07-12T16:34:24Z</time>
      </trkpt>
      <trkpt lat="41.081900" lon="-4.223667">
        <ele>1866.0</ele>
        <time>2016-07-12T16:34:25Z</time>
      </trkpt>
      <trkpt lat="41.081767" lon="-4.223600">
        <ele>1864.0</ele>
        <time>2016-07-12T16:34:26Z</time>
      </trkpt>
      <trkpt lat="41.081650" lon="-4.223517">
        <ele>1861.0</ele>
        <time>2016-07-12T16:34:27Z</time>
      </trkpt>
      <trkpt lat="41.081533" lon="-4.223433">
        <ele>1858.0</ele>
        <time>2016-07-12T16:34:28Z</time>
      </trkpt>
      <trkpt lat="41.081417" lon="-4.223333">
        <ele>1856.0</ele>
        <time>2016-07-12T16:34:29Z</time>
      </trkpt>
      <trkpt lat="41.081283" lon="-4.223233">
        <ele>1855.0</ele>
        <time>2016-07-12T16:34:30Z</time>
      </trkpt>
      <trkpt lat="41.081167" lon="-4.223133">
        <ele>1854.0</ele>
        <time>2016-07-12T16:34:31Z</time>
      </trkpt>
      <trkpt lat="41.081050" lon="-4.223050">
        <ele>1853.0</ele>
        <time>2016-07-12T16:34:32Z</time>
      </trkpt>
      <trkpt lat="41.080933" lon="-4.222950">
        <ele>1850.0</ele>
        <time>2016-07-12T16:34:33Z</time>
      </trkpt>
      <trkpt lat="41.080817" lon="-4.222867">
        <ele>1848.0</ele>
        <time>2016-07-12T16:34:34Z</time>
      </trkpt>
      <trkpt lat="41.080700" lon="-4.222767">
        <ele>1846.0</ele>
        <time>2016-07-12T16:34:35Z</time>
      </trkpt>
      <trkpt lat="41.080583" lon="-4.222667">
        <ele>1844.0</ele>
        <time>2016-07-12T16:34:36Z</time>
      </trkpt>
      <trkpt lat="41.080450" lon="-4.222567">
        <ele>1843.0</ele>
        <time>2016-07-12T16:34:37Z</time>
      </trkpt>
      <trkpt lat="41.080333" lon="-4.222467">
        <ele>1842.0</ele>
        <time>2016-07-12T16:34:38Z</time>
      </trkpt>
      <trkpt lat="41.080217" lon="-4.222383">
        <ele>1840.0</ele>
        <time>2016-07-12T16:34:39Z</time>
      </trkpt>
      <trkpt lat="41.080100" lon="-4.222283">
        <ele>1839.0</ele>
        <time>2016-07-12T16:34:40Z</time>
      </trkpt>
      <trkpt lat="41.080000" lon="-4.222183">
        <ele>1837.0</ele>
        <time>2016-07-12T16:34:41Z</time>
      </trkpt>
      <trkpt lat="41.079883" lon="-4.222083">
        <ele>1835.0</ele>
        <time>2016-07-12T16:34:42Z</time>
      </trkpt>
      <trkpt lat="41.079767" lon="-4.222000">
        <ele>1832.0</ele>
        <time>2016-07-12T16:34:43Z</time>
      </trkpt>
      <trkpt lat="41.079633" lon="-4.221900">
        <ele>1829.0</ele>
        <time>2016-07-12T16:34:44Z</time>
      </trkpt>
      <trkpt lat="41.079500" lon="-4.221783">
        <ele>1826.0</ele>
        <time>2016-07-12T16:34:45Z</time>
      </trkpt>
      <trkpt lat="41.079383" lon="-4.221667">
        <ele>1824.0</ele>
        <time>2016-07-12T16:34:46Z</time>
      </trkpt>
      <trkpt lat="41.079250" lon="-4.221550">
        <ele>1822.0</ele>
        <time>2016-07-12T16:34:47Z</time>
      </trkpt>
      <trkpt lat="41.079117" lon="-4.221450">
        <ele>1820.0</ele>
        <time>2016-07-12T16:34:48Z</time>
      </trkpt>
      <trkpt lat="41.079000" lon="-4.221367">
        <ele>1818.0</ele>
        <time>2016-07-12T16:34:49Z</time>
      </trkpt>
      <trkpt lat="41.078900" lon="-4.221267">
        <ele>1816.0</ele>
        <time>2016-07-12T16:34:50Z</time>
      </trkpt>
      <trkpt lat="41.078783" lon="-4.221167">
        <ele>1813.0</ele>
        <time>2016-07-12T16:34:51Z</time>
      </trkpt>
      <trkpt lat="41.078667" lon="-4.221067">
        <ele>1808.0</ele>
        <time>2016-07-12T16:34:52Z</time>
      </trkpt>
      <trkpt lat="41.078533" lon="-4.221000">
        <ele>1804.0</ele>
        <time>2016-07-12T16:34:53Z</time>
      </trkpt>
      <trkpt lat="41.078400" lon="-4.220950">
        <ele>1801.0</ele>
        <time>2016-07-12T16:34:54Z</time>
      </trkpt>
      <trkpt lat="41.078267" lon="-4.220883">
        <ele>1800.0</ele>
        <time>2016-07-12T16:34:55Z</time>
      </trkpt>
      <trkpt lat="41.078150" lon="-4.220800">
        <ele>1798.0</ele>
        <time>2016-07-12T16:34:56Z</time>
      </trkpt>
      <trkpt lat="41.078033" lon="-4.220700">
        <ele>1797.0</ele>
        <time>2016-07-12T16:34:57Z</time>
      </trkpt>
      <trkpt lat="41.077933" lon="-4.220600">
        <ele>1794.0</ele>
        <time>2016-07-12T16:34:58Z</time>
      </trkpt>
      <trkpt lat="41.077817" lon="-4.220517">
        <ele>1791.0</ele>
        <time>2016-07-12T16:34:59Z</time>
      </trkpt>
      <trkpt lat="41.077700" lon="-4.220433">
        <ele>1787.0</ele>
        <time>2016-07-12T16:35:00Z</time>
      </trkpt>
      <trkpt lat="41.077583" lon="-4.220333">
        <ele>1783.0</ele>
        <time>2016-07-12T16:35:01Z</time>
      </trkpt>
      <trkpt lat="41.077450" lon="-4.220217">
        <ele>1779.0</ele>
        <time>2016-07-12T16:35:02Z</time>
      </trkpt>
      <trkpt lat="41.077333" lon="-4.220100">
        <ele>1777.0</ele>
        <time>2016-07-12T16:35:03Z</time>
      </trkpt>
      <trkpt lat="41.077217" lon="-4.220000">
        <ele>1775.0</ele>
        <time>2016-07-12T16:35:04Z</time>
      </trkpt>
      <trkpt lat="41.077100" lon="-4.219917">
        <ele>1773.0</ele>
        <time>2016-07-12T16:35:05Z</time>
      </trkpt>
      <trkpt lat="41.076983" lon="-4.219833">
        <ele>1769.0</ele>
        <time>2016-07-12T16:35:06Z</time>
      </trkpt>
      <trkpt lat="41.076867" lon="-4.219733">
        <ele>1764.0</ele>
        <time>2016-07-12T16:35:07Z</time>
      </trkpt>
      <trkpt lat="41.076750" lon="-4.219650">
        <ele>1759.0</ele>
        <time>2016-07-12T16:35:08Z</time>
      </trkpt>
      <trkpt lat="41.076617" lon="-4.219550">
        <ele>1754.0</ele>
        <time>2016-07-12T16:35:09Z</time>
      </trkpt>
      <trkpt lat="41.076467" lon="-4.219467">
        <ele>1751.0</ele>
        <time>2016-07-12T16:35:10Z</time>
      </trkpt>
      <trkpt lat="41.076350" lon="-4.219367">
        <ele>1750.0</ele>
        <time>2016-07-12T16:35:11Z</time>
      </trkpt>
      <trkpt lat="41.076233" lon="-4.219283">
        <ele>1749.0</ele>
        <time>2016-07-12T16:35:12Z</time>
      </trkpt>
      <trkpt lat="41.076133" lon="-4.219183">
        <ele>1748.0</ele>
        <time>2016-07-12T16:35:13Z</time>
      </trkpt>
      <trkpt lat="41.076033" lon="-4.219117">
        <ele>1746.0</ele>
        <time>2016-07-12T16:35:14Z</time>
      </trkpt>
      <trkpt lat="41.075917" lon="-4.219033">
        <ele>1743.0</ele>
        <time>2016-07-12T16:35:15Z</time>
      </trkpt>
      <trkpt lat="41.075800" lon="-4.218950">
        <ele>1739.0</ele>
        <time>2016-07-12T16:35:16Z</time>
      </trkpt>
      <trkpt lat="41.075683" lon="-4.218867">
        <ele>1735.0</ele>
        <time>2016-07-12T16:35:17Z</time>
      </trkpt>
      <trkpt lat="41.075567" lon="-4.218783">
        <ele>1733.0</ele>
        <time>2016-07-12T16:35:18Z</time>
      </trkpt>
      <trkpt lat="41.075433" lon="-4.218717">
        <ele>1732.0</ele>
        <time>2016-07-12T16:35:19Z</time>
      </trkpt>
      <trkpt lat="41.075317" lon="-4.218650">
        <ele>1730.0</ele>
        <time>2016-07-12T16:35:20Z</time>
      </trkpt>
      <trkpt lat="41.075183" lon="-4.218583">
        <ele>1727.0</ele>
        <time>2016-07-12T16:35:21Z</time>
      </trkpt>
      <trkpt lat="41.075067" lon="-4.218500">
        <ele>1724.0</ele>
        <time>2016-07-12T16:35:22Z</time>
      </trkpt>
      <trkpt lat="41.074933" lon="-4.218417">
        <ele>1719.0</ele>
        <time>2016-07-12T16:35:23Z</time>
      </trkpt>
      <trkpt lat="41.074783" lon="-4.218333">
        <ele>1715.0</ele>
        <time>2016-07-12T16:35:24Z</time>
      </trkpt>
      <trkpt lat="41.074650" lon="-4.218250">
        <ele>1712.0</ele>
        <time>2016-07-12T16:35:25Z</time>
      </trkpt>
      <trkpt lat="41.074500" lon="-4.218167">
        <ele>1709.0</ele>
        <time>2016-07-12T16:35:26Z</time>
      </trkpt>
      <trkpt lat="41.074383" lon="-4.218067">
        <ele>1707.0</ele>
        <time>2016-07-12T16:35:27Z</time>
      </trkpt>
      <trkpt lat="41.074267" lon="-4.217950">
        <ele>1704.0</ele>
        <time>2016-07-12T16:35:28Z</time>
      </trkpt>
      <trkpt lat="41.074150" lon="-4.217833">
        <ele>1702.0</ele>
        <time>2016-07-12T16:35:29Z</time>
      </trkpt>
      <trkpt lat="41.074017" lon="-4.217733">
        <ele>1699.0</ele>
        <time>2016-07-12T16:35:30Z</time>
      </trkpt>
      <trkpt lat="41.073900" lon="-4.217633">
        <ele>1696.0</ele>
        <time>2016-07-12T16:35:31Z</time>
      </trkpt>
      <trkpt lat="41.073767" lon="-4.217517">
        <ele>1693.0</ele>
        <time>2016-07-12T16:35:32Z</time>
      </trkpt>
      <trkpt lat="41.073650" lon="-4.217400">
        <ele>1689.0</ele>
        <time>2016-07-12T16:35:33Z</time>
      </trkpt>
      <trkpt lat="41.073517" lon="-4.217267">
        <ele>1687.0</ele>
        <time>2016-07-12T16:35:34Z</time>
      </trkpt>
      <trkpt lat="41.073400" lon="-4.217150">
        <ele>1685.0</ele>
        <time>2016-07-12T16:35:35Z</time>
      </trkpt>
      <trkpt lat="41.073300" lon="-4.217017">
        <ele>1683.0</ele>
        <time>2016-07-12T16:35:36Z</time>
      </trkpt>
      <trkpt lat="41.073200" lon="-4.216900">
        <ele>1680.0</ele>
        <time>2016-07-12T16:35:37Z</time>
      </trkpt>
      <trkpt lat="41.073100" lon="-4.216767">
        <ele>1676.0</ele>
        <time>2016-07-12T16:35:38Z</time>
      </trkpt>
      <trkpt lat="41.072983" lon="-4.216633">
        <ele>1673.0</ele>
        <time>2016-07-12T16:35:39Z</time>
      </trkpt>
      <trkpt lat="41.072867" lon="-4.216517">
        <ele>1670.0</ele>
        <time>2016-07-12T16:35:40Z</time>
      </trkpt>
      <trkpt lat="41.072750" lon="-4.216400">
        <ele>1669.0</ele>
        <time>2016-07-12T16:35:41Z</time>
      </trkpt>
      <trkpt lat="41.072650" lon="-4.216283">
        <ele>1669.0</ele>
        <time>2016-07-12T16:35:42Z</time>
      </trkpt>
      <trkpt lat="41.072583" lon="-4.216167">
        <ele>1667.0</ele>
        <time>2016-07-12T16:35:43Z</time>
      </trkpt>
      <trkpt lat="41.072500" lon="-4.216050">
        <ele>1665.0</ele>
        <time>2016-07-12T16:35:44Z</time>
      </trkpt>
      <trkpt lat="41.072417" lon="-4.215917">
        <ele>1661.0</ele>
        <time>2016-07-12T16:35:45Z</time>
      </trkpt>
      <trkpt lat="41.072317" lon="-4.215800">
        <ele>1658.0</ele>
        <time>2016-07-12T16:35:46Z</time>
      </trkpt>
      <trkpt lat="41.072200" lon="-4.215683">
        <ele>1656.0</ele>
        <time>2016-07-12T16:35:47Z</time>
      </trkpt>
      <trkpt lat="41.072117" lon="-4.215567">
        <ele>1656.0</ele>
        <time>2016-07-12T16:35:48Z</time>
      </trkpt>
      <trkpt lat="41.072033" lon="-4.215467">
        <ele>1654.0</ele>
        <time>2016-07-12T16:35:49Z</time>
      </trkpt>
      <trkpt lat="41.071950" lon="-4.215350">
        <ele>1652.0</ele>
        <time>2016-07-12T16:35:50Z</time>
      </trkpt>
      <trkpt lat="41.071867" lon="-4.215233">
        <ele>1650.0</ele>
        <time>2016-07-12T16:35:51Z</time>
      </trkpt>
      <trkpt lat="41.071750" lon="-4.215117">
        <ele>1647.0</ele>
        <time>2016-07-12T16:35:52Z</time>
      </trkpt>
      <trkpt lat="41.071650" lon="-4.215000">
        <ele>1645.0</ele>
        <time>2016-07-12T16:35:53Z</time>
      </trkpt>
      <trkpt lat="41.071550" lon="-4.214883">
        <ele>1644.0</ele>
        <time>2016-07-12T16:35:54Z</time>
      </trkpt>
      <trkpt lat="41.071450" lon="-4.214767">
        <ele>1642.0</ele>
        <time>2016-07-12T16:35:55Z</time>
      </trkpt>
      <trkpt lat="41.071350" lon="-4.214650">
        <ele>1641.0</ele>
        <time>2016-07-12T16:35:56Z</time>
      </trkpt>
      <trkpt lat="41.071250" lon="-4.214533">
        <ele>1639.0</ele>
        <time>2016-07-12T16:35:57Z</time>
      </trkpt>
      <trkpt lat="41.071133" lon="-4.214417">
        <ele>1637.0</ele>
        <time>2016-07-12T16:35:58Z</time>
      </trkpt>
      <trkpt lat="41.071033" lon="-4.214300">
        <ele>1635.0</ele>
        <time>2016-07-12T16:35:59Z</time>
      </trkpt>
      <trkpt lat="41.070917" lon="-4.214167">
        <ele>1633.0</ele>
        <time>2016-07-12T16:36:00Z</time>
      </trkpt>
      <trkpt lat="41.070800" lon="-4.214033">
        <ele>1631.0</ele>
        <time>2016-07-12T16:36:01Z</time>
      </trkpt>
      <trkpt lat="41.070667" lon="-4.213900">
        <ele>1629.0</ele>
        <time>2016-07-12T16:36:02Z</time>
      </trkpt>
      <trkpt lat="41.070550" lon="-4.213783">
        <ele>1628.0</ele>
        <time>2016-07-12T16:36:03Z</time>
      </trkpt>
      <trkpt lat="41.070433" lon="-4.213667">
        <ele>1627.0</ele>
        <time>2016-07-12T16:36:04Z</time>
      </trkpt>
      <trkpt lat="41.070317" lon="-4.213550">
        <ele>1626.0</ele>
        <time>2016-07-12T16:36:05Z</time>
      </trkpt>
      <trkpt lat="41.070200" lon="-4.213433">
        <ele>1624.0</ele>
        <time>2016-07-12T16:36:06Z</time>
      </trkpt>
      <trkpt lat="41.070083" lon="-4.213300">
        <ele>1623.0</ele>
        <time>2016-07-12T16:36:07Z</time>
      </trkpt>
      <trkpt lat="41.069950" lon="-4.213183">
        <ele>1622.0</ele>
        <time>2016-07-12T16:36:08Z</time>
      </trkpt>
      <trkpt lat="41.069833" lon="-4.213067">
        <ele>1621.0</ele>
        <time>2016-07-12T16:36:09Z</time>
      </trkpt>
      <trkpt lat="41.069717" lon="-4.212950">
        <ele>1621.0</ele>
        <time>2016-07-12T16:36:10Z</time>
      </trkpt>
      <trkpt lat="41.069617" lon="-4.212850">
        <ele>1620.0</ele>
        <time>2016-07-12T16:36:11Z</time>
      </trkpt>
      <trkpt lat="41.069500" lon="-4.212733">
        <ele>1618.0</ele>
        <time>2016-07-12T16:36:12Z</time>
      </trkpt>
      <trkpt lat="41.069367" lon="-4.212633">
        <ele>1617.0</ele>
        <time>2016-07-12T16:36:13Z</time>
      </trkpt>
      <trkpt lat="41.069250" lon="-4.212517">
        <ele>1615.0</ele>
        <time>2016-07-12T16:36:14Z</time>
      </trkpt>
      <trkpt lat="41.069133" lon="-4.212400">
        <ele>1613.0</ele>
        <time>2016-07-12T16:36:15Z</time>
      </trkpt>
      <trkpt lat="41.069017" lon="-4.212300">
        <ele>1612.0</ele>
        <time>2016-07-12T16:36:16Z</time>
      </trkpt>
      <trkpt lat="41.068900" lon="-4.212200">
        <ele>1610.0</ele>
        <time>2016-07-12T16:36:17Z</time>
      </trkpt>
      <trkpt lat="41.068783" lon="-4.212100">
        <ele>1608.0</ele>
        <time>2016-07-12T16:36:18Z</time>
      </trkpt>
      <trkpt lat="41.068667" lon="-4.211983">
        <ele>1607.0</ele>
        <time>2016-07-12T16:36:19Z</time>
      </trkpt>
      <trkpt lat="41.068533" lon="-4.211883">
        <ele>1605.0</ele>
        <time>2016-07-12T16:36:20Z</time>
      </trkpt>
      <trkpt lat="41.068417" lon="-4.211783">
        <ele>1604.0</ele>
        <time>2016-07-12T16:36:21Z</time>
      </trkpt>
      <trkpt lat="41.068300" lon="-4.211683">
        <ele>1602.0</ele>
        <time>2016-07-12T16:36:22Z</time>
      </trkpt>
      <trkpt lat="41.068183" lon="-4.211583">
        <ele>1600.0</ele>
        <time>2016-07-12T16:36:23Z</time>
      </trkpt>
      <trkpt lat="41.068067" lon="-4.211483">
        <ele>1597.0</ele>
        <time>2016-07-12T16:36:24Z</time>
      </trkpt>
      <trkpt lat="41.067950" lon="-4.211367">
        <ele>1593.0</ele>
        <time>2016-07-12T16:36:25Z</time>
      </trkpt>
      <trkpt lat="41.067817" lon="-4.211250">
        <ele>1589.0</ele>
        <time>2016-07-12T16:36:26Z</time>
      </trkpt>
      <trkpt lat="41.067700" lon="-4.211117">
        <ele>1586.0</ele>
        <time>2016-07-12T16:36:27Z</time>
      </trkpt>
      <trkpt lat="41.067583" lon="-4.211000">
        <ele>1584.0</ele>
        <time>2016-07-12T16:36:28Z</time>
      </trkpt>
      <trkpt lat="41.067467" lon="-4.210900">
        <ele>1583.0</ele>
        <time>2016-07-12T16:36:29Z</time>
      </trkpt>
      <trkpt lat="41.067350" lon="-4.210800">
        <ele>1581.0</ele>
        <time>2016-07-12T16:36:30Z</time>
      </trkpt>
      <trkpt lat="41.067233" lon="-4.210717">
        <ele>1578.0</ele>
        <time>2016-07-12T16:36:31Z</time>
      </trkpt>
      <trkpt lat="41.067117" lon="-4.210617">
        <ele>1574.0</ele>
        <time>2016-07-12T16:36:32Z</time>
      </trkpt>
      <trkpt lat="41.066983" lon="-4.210500">
        <ele>1569.0</ele>
        <time>2016-07-12T16:36:33Z</time>
      </trkpt>
      <trkpt lat="41.066850" lon="-4.210383">
        <ele>1565.0</ele>
        <time>2016-07-12T16:36:34Z</time>
      </trkpt>
      <trkpt lat="41.066717" lon="-4.210267">
        <ele>1563.0</ele>
        <time>2016-07-12T16:36:35Z</time>
      </trkpt>
      <trkpt lat="41.066600" lon="-4.210150">
        <ele>1562.0</ele>
        <time>2016-07-12T16:36:36Z</time>
      </trkpt>
      <trkpt lat="41.066467" lon="-4.210050">
        <ele>1561.0</ele>
        <time>2016-07-12T16:36:37Z</time>
      </trkpt>
      <trkpt lat="41.066350" lon="-4.209967">
        <ele>1559.0</ele>
        <time>2016-07-12T16:36:38Z</time>
      </trkpt>
      <trkpt lat="41.066233" lon="-4.209883">
        <ele>1557.0</ele>
        <time>2016-07-12T16:36:39Z</time>
      </trkpt>
      <trkpt lat="41.066117" lon="-4.209767">
        <ele>1553.0</ele>
        <time>2016-07-12T16:36:40Z</time>
      </trkpt>
      <trkpt lat="41.065983" lon="-4.209650">
        <ele>1550.0</ele>
        <time>2016-07-12T16:36:41Z</time>
      </trkpt>
      <trkpt lat="41.065850" lon="-4.209533">
        <ele>1548.0</ele>
        <time>2016-07-12T16:36:42Z</time>
      </trkpt>
      <trkpt lat="41.065717" lon="-4.209417">
        <ele>1546.0</ele>
        <time>2016-07-12T16:36:43Z</time>
      </trkpt>
      <trkpt lat="41.065600" lon="-4.209300">
        <ele>1545.0</ele>
        <time>2016-07-12T16:36:44Z</time>
      </trkpt>
      <trkpt lat="41.065500" lon="-4.209183">
        <ele>1541.0</ele>
        <time>2016-07-12T16:36:45Z</time>
      </trkpt>
      <trkpt lat="41.065383" lon="-4.209050">
        <ele>1537.0</ele>
        <time>2016-07-12T16:36:46Z</time>
      </trkpt>
      <trkpt lat="41.065283" lon="-4.208917">
        <ele>1532.0</ele>
        <time>2016-07-12T16:36:47Z</time>
      </trkpt>
      <trkpt lat="41.065150" lon="-4.208783">
        <ele>1528.0</ele>
        <time>2016-07-12T16:36:48Z</time>
      </trkpt>
      <trkpt lat="41.065033" lon="-4.208633">
        <ele>1524.0</ele>
        <time>2016-07-12T16:36:49Z</time>
      </trkpt>
      <trkpt lat="41.064933" lon="-4.208500">
        <ele>1522.0</ele>
        <time>2016-07-12T16:36:50Z</time>
      </trkpt>
      <trkpt lat="41.064833" lon="-4.208350">
        <ele>1519.0</ele>
        <time>2016-07-12T16:36:51Z</time>
      </trkpt>
      <trkpt lat="41.064750" lon="-4.208217">
        <ele>1516.0</ele>
        <time>2016-07-12T16:36:52Z</time>
      </trkpt>
      <trkpt lat="41.064650" lon="-4.208067">
        <ele>1512.0</ele>
        <time>2016-07-12T16:36:53Z</time>
      </trkpt>
      <trkpt lat="41.064533" lon="-4.207917">
        <ele>1508.0</ele>
        <time>2016-07-12T16:36:54Z</time>
      </trkpt>
      <trkpt lat="41.064417" lon="-4.207767">
        <ele>1504.0</ele>
        <time>2016-07-12T16:36:55Z</time>
      </trkpt>
      <trkpt lat="41.064317" lon="-4.207633">
        <ele>1503.0</ele>
        <time>2016-07-12T16:36:56Z</time>
      </trkpt>
      <trkpt lat="41.064200" lon="-4.207500">
        <ele>1502.0</ele>
        <time>2016-07-12T16:36:57Z</time>
      </trkpt>
      <trkpt lat="41.064100" lon="-4.207383">
        <ele>1500.0</ele>
        <time>2016-07-12T16:36:58Z</time>
      </trkpt>
      <trkpt lat="41.064000" lon="-4.207267">
        <ele>1497.0</ele>
        <time>2016-07-12T16:36:59Z</time>
      </trkpt>
      <trkpt lat="41.063883" lon="-4.207133">
        <ele>1492.0</ele>
        <time>2016-07-12T16:37:00Z</time>
      </trkpt>
      <trkpt lat="41.063767" lon="-4.207000">
        <ele>1487.0</ele>
        <time>2016-07-12T16:37:01Z</time>
      </trkpt>
      <trkpt lat="41.063650" lon="-4.206850">
        <ele>1482.0</ele>
        <time>2016-07-12T16:37:02Z</time>
      </trkpt>
      <trkpt lat="41.063517" lon="-4.206700">
        <ele>1479.0</ele>
        <time>2016-07-12T16:37:03Z</time>
      </trkpt>
      <trkpt lat="41.063400" lon="-4.206550">
        <ele>1477.0</ele>
        <time>2016-07-12T16:37:04Z</time>
      </trkpt>
      <trkpt lat="41.063300" lon="-4.206400">
        <ele>1475.0</ele>
        <time>2016-07-12T16:37:05Z</time>
      </trkpt>
      <trkpt lat="41.063183" lon="-4.206267">
        <ele>1472.0</ele>
        <time>2016-07-12T16:37:06Z</time>
      </trkpt>
      <trkpt lat="41.063067" lon="-4.206117">
        <ele>1469.0</ele>
        <time>2016-07-12T16:37:07Z</time>
      </trkpt>
      <trkpt lat="41.062967" lon="-4.205967">
        <ele>1465.0</ele>
        <time>2016-07-12T16:37:08Z</time>
      </trkpt>
      <trkpt lat="41.062833" lon="-4.205800">
        <ele>1460.0</ele>
        <time>2016-07-12T16:37:09Z</time>
      </trkpt>
      <trkpt lat="41.062717" lon="-4.205650">
        <ele>1457.0</ele>
        <time>2016-07-12T16:37:10Z</time>
      </trkpt>
      <trkpt lat="41.062583" lon="-4.205500">
        <ele>1454.0</ele>
        <time>2016-07-12T16:37:11Z</time>
      </trkpt>
      <trkpt lat="41.062467" lon="-4.205367">
        <ele>1451.0</ele>
        <time>2016-07-12T16:37:12Z</time>
      </trkpt>
      <trkpt lat="41.062333" lon="-4.205217">
        <ele>1448.0</ele>
        <time>2016-07-12T16:37:13Z</time>
      </trkpt>
      <trkpt lat="41.062217" lon="-4.205067">
        <ele>1445.0</ele>
        <time>2016-07-12T16:37:14Z</time>
      </trkpt>
      <trkpt lat="41.062083" lon="-4.204917">
        <ele>1443.0</ele>
        <time>2016-07-12T16:37:15Z</time>
      </trkpt>
      <trkpt lat="41.061967" lon="-4.204767">
        <ele>1440.0</ele>
        <time>2016-07-12T16:37:16Z</time>
      </trkpt>
      <trkpt lat="41.061833" lon="-4.204617">
        <ele>1437.0</ele>
        <time>2016-07-12T16:37:17Z</time>
      </trkpt>
      <trkpt lat="41.061717" lon="-4.204450">
        <ele>1435.0</ele>
        <time>2016-07-12T16:37:18Z</time>
      </trkpt>
      <trkpt lat="41.061600" lon="-4.204317">
        <ele>1433.0</ele>
        <time>2016-07-12T16:37:19Z</time>
      </trkpt>
      <trkpt lat="41.061500" lon="-4.204167">
        <ele>1431.0</ele>
        <time>2016-07-12T16:37:20Z</time>
      </trkpt>
      <trkpt lat="41.061383" lon="-4.204033">
        <ele>1428.0</ele>
        <time>2016-07-12T16:37:21Z</time>
      </trkpt>
      <trkpt lat="41.061267" lon="-4.203883">
        <ele>1425.0</ele>
        <time>2016-07-12T16:37:22Z</time>
      </trkpt>
      <trkpt lat="41.061133" lon="-4.203733">
        <ele>1421.0</ele>
        <time>2016-07-12T16:37:23Z</time>
      </trkpt>
      <trkpt lat="41.061000" lon="-4.203583">
        <ele>1419.0</ele>
        <time>2016-07-12T16:37:24Z</time>
      </trkpt>
      <trkpt lat="41.060883" lon="-4.203433">
        <ele>1417.0</ele>
        <time>2016-07-12T16:37:25Z</time>
      </trkpt>
      <trkpt lat="41.060767" lon="-4.203300">
        <ele>1415.0</ele>
        <time>2016-07-12T16:37:26Z</time>
      </trkpt>
      <trkpt lat="41.060650" lon="-4.203183">
        <ele>1412.0</ele>
        <time>2016-07-12T16:37:27Z</time>
      </trkpt>
      <trkpt lat="41.060533" lon="-4.203050">
        <ele>1408.0</ele>
        <time>2016-07-12T16:37:28Z</time>
      </trkpt>
      <trkpt lat="41.060400" lon="-4.202917">
        <ele>1403.0</ele>
        <time>2016-07-12T16:37:29Z</time>
      </trkpt>
      <trkpt lat="41.060283" lon="-4.202767">
        <ele>1398.0</ele>
        <time>2016-07-12T16:37:30Z</time>
      </trkpt>
      <trkpt lat="41.060150" lon="-4.202633">
        <ele>1394.0</ele>
        <time>2016-07-12T16:37:31Z</time>
      </trkpt>
      <trkpt lat="41.060017" lon="-4.202483">
        <ele>1391.0</ele>
        <time>2016-07-12T16:37:32Z</time>
      </trkpt>
      <trkpt lat="41.059900" lon="-4.202367">
        <ele>1388.0</ele>
        <time>2016-07-12T16:37:33Z</time>
      </trkpt>
      <trkpt lat="41.059783" lon="-4.202250">
        <ele>1384.0</ele>
        <time>2016-07-12T16:37:34Z</time>
      </trkpt>
      <trkpt lat="41.059650" lon="-4.202133">
        <ele>1380.0</ele>
        <time>2016-07-12T16:37:35Z</time>
      </trkpt>
      <trkpt lat="41.059533" lon="-4.202000">
        <ele>1376.0</ele>
        <time>2016-07-12T16:37:36Z</time>
      </trkpt>
      <trkpt lat="41.059417" lon="-4.201867">
        <ele>1372.0</ele>
        <time>2016-07-12T16:37:37Z</time>
      </trkpt>
      <trkpt lat="41.059283" lon="-4.201733">
        <ele>1369.0</ele>
        <time>2016-07-12T16:37:38Z</time>
      </trkpt>
      <trkpt lat="41.059150" lon="-4.201600">
        <ele>1367.0</ele>
        <time>2016-07-12T16:37:39Z</time>
      </trkpt>
      <trkpt lat="41.059033" lon="-4.201467">
        <ele>1366.0</ele>
        <time>2016-07-12T16:37:40Z</time>
      </trkpt>
      <trkpt lat="41.058900" lon="-4.201333">
        <ele>1364.0</ele>
        <time>2016-07-12T16:37:41Z</time>
      </trkpt>
      <trkpt lat="41.058783" lon="-4.201200">
        <ele>1363.0</ele>
        <time>2016-07-12T16:37:42Z</time>
      </trkpt>
      <trkpt lat="41.058667" lon="-4.201050">
        <ele>1362.0</ele>
        <time>2016-07-12T16:37:43Z</time>
      </trkpt>
      <trkpt lat="41.058550" lon="-4.200917">
        <ele>1359.0</ele>
        <time>2016-07-12T16:37:44Z</time>
      </trkpt>
      <trkpt lat="41.058433" lon="-4.200783">
        <ele>1357.0</ele>
        <time>2016-07-12T16:37:45Z</time>
      </trkpt>
      <trkpt lat="41.058317" lon="-4.200633">
        <ele>1354.0</ele>
        <time>2016-07-12T16:37:46Z</time>
      </trkpt>
      <trkpt lat="41.058200" lon="-4.200483">
        <ele>1352.0</ele>
        <time>2016-07-12T16:37:47Z</time>
      </trkpt>
      <trkpt lat="41.058083" lon="-4.200333">
        <ele>1349.0</ele>
        <time>2016-07-12T16:37:48Z</time>
      </trkpt>
      <trkpt lat="41.057967" lon="-4.200200">
        <ele>1345.0</ele>
        <time>2016-07-12T16:37:49Z</time>
      </trkpt>
      <trkpt lat="41.057850" lon="-4.200067">
        <ele>1341.0</ele>
        <time>2016-07-12T16:37:50Z</time>
      </trkpt>
      <trkpt lat="41.057733" lon="-4.199933">
        <ele>1337.0</ele>
        <time>2016-07-12T16:37:51Z</time>
      </trkpt>
      <trkpt lat="41.057617" lon="-4.199817">
        <ele>1332.0</ele>
        <time>2016-07-12T16:37:52Z</time>
      </trkpt>
      <trkpt lat="41.057500" lon="-4.199683">
        <ele>1328.0</ele>
        <time>2016-07-12T16:37:53Z</time>
      </trkpt>
      <trkpt lat="41.057383" lon="-4.199550">
        <ele>1323.0</ele>
        <time>2016-07-12T16:37:54Z</time>
      </trkpt>
      <trkpt lat="41.057267" lon="-4.199433">
        <ele>1318.0</ele>
        <time>2016-07-12T16:37:55Z</time>
      </trkpt>
      <trkpt lat="41.057133" lon="-4.199300">
        <ele>1313.0</ele>
        <time>2016-07-12T16:37:56Z</time>
      </trkpt>
      <trkpt lat="41.057000" lon="-4.199183">
        <ele>1308.0</ele>
        <time>2016-07-12T16:37:57Z</time>
      </trkpt>
      <trkpt lat="41.056867" lon="-4.199050">
        <ele>1303.0</ele>
        <time>2016-07-12T16:37:58Z</time>
      </trkpt>
      <trkpt lat="41.056733" lon="-4.198917">
        <ele>1299.0</ele>
        <time>2016-07-12T16:37:59Z</time>
      </trkpt>
      <trkpt lat="41.056600" lon="-4.198800">
        <ele>1296.0</ele>
        <time>2016-07-12T16:38:00Z</time>
      </trkpt>
      <trkpt lat="41.056467" lon="-4.198683">
        <ele>1293.0</ele>
        <time>2016-07-12T16:38:01Z</time>
      </trkpt>
      <trkpt lat="41.056333" lon="-4.198567">
        <ele>1289.0</ele>
        <time>2016-07-12T16:38:02Z</time>
      </trkpt>
      <trkpt lat="41.056200" lon="-4.198450">
        <ele>1285.0</ele>
        <time>2016-07-12T16:38:03Z</time>
      </trkpt>
      <trkpt lat="41.056083" lon="-4.198333">
        <ele>1281.0</ele>
        <time>2016-07-12T16:38:04Z</time>
      </trkpt>
      <trkpt lat="41.055950" lon="-4.198217">
        <ele>1277.0</ele>
        <time>2016-07-12T16:38:05Z</time>
      </trkpt>
      <trkpt lat="41.055817" lon="-4.198100">
        <ele>1273.0</ele>
        <time>2016-07-12T16:38:06Z</time>
      </trkpt>
      <trkpt lat="41.055683" lon="-4.197983">
        <ele>1269.0</ele>
        <time>2016-07-12T16:38:07Z</time>
      </trkpt>
      <trkpt lat="41.055550" lon="-4.197867">
        <ele>1265.0</ele>
        <time>2016-07-12T16:38:08Z</time>
      </trkpt>
      <trkpt lat="41.055417" lon="-4.197750">
        <ele>1261.0</ele>
        <time>2016-07-12T16:38:09Z</time>
      </trkpt>
      <trkpt lat="41.055283" lon="-4.197617">
        <ele>1257.0</ele>
        <time>2016-07-12T16:38:10Z</time>
      </trkpt>
      <trkpt lat="41.055150" lon="-4.197500">
        <ele>1253.0</ele>
        <time>2016-07-12T16:38:11Z</time>
      </trkpt>
      <trkpt lat="41.055017" lon="-4.197383">
        <ele>1250.0</ele>
        <time>2016-07-12T16:38:12Z</time>
      </trkpt>
      <trkpt lat="41.054867" lon="-4.197283">
        <ele>1247.0</ele>
        <time>2016-07-12T16:38:13Z</time>
      </trkpt>
      <trkpt lat="41.054733" lon="-4.197167">
        <ele>1243.0</ele>
        <time>2016-07-12T16:38:14Z</time>
      </trkpt>
      <trkpt lat="41.054600" lon="-4.197067">
        <ele>1240.0</ele>
        <time>2016-07-12T16:38:15Z</time>
      </trkpt>
      <trkpt lat="41.054483" lon="-4.196950">
        <ele>1236.0</ele>
        <time>2016-07-12T16:38:16Z</time>
      </trkpt>
      <trkpt lat="41.054350" lon="-4.196850">
        <ele>1232.0</ele>
        <time>2016-07-12T16:38:17Z</time>
      </trkpt>
      <trkpt lat="41.054217" lon="-4.196767">
        <ele>1228.0</ele>
        <time>2016-07-12T16:38:18Z</time>
      </trkpt>
      <trkpt lat="41.054083" lon="-4.196650">
        <ele>1224.0</ele>
        <time>2016-07-12T16:38:19Z</time>
      </trkpt>
      <trkpt lat="41.053950" lon="-4.196550">
        <ele>1220.0</ele>
        <time>2016-07-12T16:38:20Z</time>
      </trkpt>
      <trkpt lat="41.053817" lon="-4.196467">
        <ele>1217.0</ele>
        <time>2016-07-12T16:38:21Z</time>
      </trkpt>
      <trkpt lat="41.053683" lon="-4.196367">
        <ele>1214.0</ele>
        <time>2016-07-12T16:38:22Z</time>
      </trkpt>
      <trkpt lat="41.053567" lon="-4.196283">
        <ele>1210.0</ele>
        <time>2016-07-12T16:38:23Z</time>
      </trkpt>
      <trkpt lat="41.053433" lon="-4.196183">
        <ele>1207.0</ele>
        <time>2016-07-12T16:38:24Z</time>
      </trkpt>
      <trkpt lat="41.053300" lon="-4.196100">
        <ele>1203.0</ele>
        <time>2016-07-12T16:38:25Z</time>
      </trkpt>
      <trkpt lat="41.053167" lon="-4.196000">
        <ele>1199.0</ele>
        <time>2016-07-12T16:38:26Z</time>
      </trkpt>
      <trkpt lat="41.053017" lon="-4.195917">
        <ele>1195.0</ele>
        <time>2016-07-12T16:38:27Z</time>
      </trkpt>
      <trkpt lat="41.052867" lon="-4.195817">
        <ele>1191.0</ele>
        <time>2016-07-12T16:38:28Z</time>
      </trkpt>
      <trkpt lat="41.052717" lon="-4.195717">
        <ele>1188.0</ele>
        <time>2016-07-12T16:38:29Z</time>
      </trkpt>
      <trkpt lat="41.052550" lon="-4.195617">
        <ele>1186.0</ele>
        <time>2016-07-12T16:38:30Z</time>
      </trkpt>
      <trkpt lat="41.052400" lon="-4.195517">
        <ele>1184.0</ele>
        <time>2016-07-12T16:38:31Z</time>
      </trkpt>
      <trkpt lat="41.052250" lon="-4.195433">
        <ele>1182.0</ele>
        <time>2016-07-12T16:38:32Z</time>
      </trkpt>
      <trkpt lat="41.052100" lon="-4.195333">
        <ele>1181.0</ele>
        <time>2016-07-12T16:38:33Z</time>
      </trkpt>
      <trkpt lat="41.051950" lon="-4.195250">
        <ele>1181.0</ele>
        <time>2016-07-12T16:38:34Z</time>
      </trkpt>
      <trkpt lat="41.051833" lon="-4.195150">
        <ele>1182.0</ele>
        <time>2016-07-12T16:38:35Z</time>
      </trkpt>
      <trkpt lat="41.051717" lon="-4.195067">
        <ele>1181.0</ele>
        <time>2016-07-12T16:38:36Z</time>
      </trkpt>
      <trkpt lat="41.051600" lon="-4.194967">
        <ele>1178.0</ele>
        <time>2016-07-12T16:38:37Z</time>
      </trkpt>
      <trkpt lat="41.051467" lon="-4.194883">
        <ele>1175.0</ele>
        <time>2016-07-12T16:38:38Z</time>
      </trkpt>
      <trkpt lat="41.051333" lon="-4.194783">
        <ele>1172.0</ele>
        <time>2016-07-12T16:38:39Z</time>
      </trkpt>
      <trkpt lat="41.051183" lon="-4.194700">
        <ele>1171.0</ele>
        <time>2016-07-12T16:38:40Z</time>
      </trkpt>
      <trkpt lat="41.051067" lon="-4.194617">
        <ele>1171.0</ele>
        <time>2016-07-12T16:38:41Z</time>
      </trkpt>
      <trkpt lat="41.050933" lon="-4.194550">
        <ele>1170.0</ele>
        <time>2016-07-12T16:38:42Z</time>
      </trkpt>
      <trkpt lat="41.050817" lon="-4.194483">
        <ele>1168.0</ele>
        <time>2016-07-12T16:38:43Z</time>
      </trkpt>
      <trkpt lat="41.050700" lon="-4.194400">
        <ele>1165.0</ele>
        <time>2016-07-12T16:38:44Z</time>
      </trkpt>
      <trkpt lat="41.050583" lon="-4.194317">
        <ele>1162.0</ele>
        <time>2016-07-12T16:38:45Z</time>
      </trkpt>
      <trkpt lat="41.050450" lon="-4.194233">
        <ele>1159.0</ele>
        <time>2016-07-12T16:38:46Z</time>
      </trkpt>
      <trkpt lat="41.050317" lon="-4.194167">
        <ele>1159.0</ele>
        <time>2016-07-12T16:38:47Z</time>
      </trkpt>
      <trkpt lat="41.050183" lon="-4.194117">
        <ele>1159.0</ele>
        <time>2016-07-12T16:38:48Z</time>
      </trkpt>
      <trkpt lat="41.050083" lon="-4.194067">
        <ele>1159.0</ele>
        <time>2016-07-12T16:38:49Z</time>
      </trkpt>
      <trkpt lat="41.050000" lon="-4.194017">
        <ele>1156.0</ele>
        <time>2016-07-12T16:38:50Z</time>
      </trkpt>
      <trkpt lat="41.049883" lon="-4.193950">
        <ele>1152.0</ele>
        <time>2016-07-12T16:38:51Z</time>
      </trkpt>
      <trkpt lat="41.049767" lon="-4.193867">
        <ele>1147.0</ele>
        <time>2016-07-12T16:38:52Z</time>
      </trkpt>
      <trkpt lat="41.049617" lon="-4.193783">
        <ele>1143.0</ele>
        <time>2016-07-12T16:38:53Z</time>
      </trkpt>
      <trkpt lat="41.049483" lon="-4.193717">
        <ele>1142.0</ele>
        <time>2016-07-12T16:38:54Z</time>
      </trkpt>
      <trkpt lat="41.049367" lon="-4.193650">
        <ele>1142.0</ele>
        <time>2016-07-12T16:38:55Z</time>
      </trkpt>
      <trkpt lat="41.049267" lon="-4.193583">
        <ele>1141.0</ele>
        <time>2016-07-12T16:38:56Z</time>
      </trkpt>
      <trkpt lat="41.049167" lon="-4.193517">
        <ele>1138.0</ele>
        <time>2016-07-12T16:38:57Z</time>
      </trkpt>
      <trkpt lat="41.049050" lon="-4.193450">
        <ele>1135.0</ele>
        <time>2016-07-12T16:38:58Z</time>
      </trkpt>
      <trkpt lat="41.048933" lon="-4.193400">
        <ele>1130.0</ele>
        <time>2016-07-12T16:38:59Z</time>
      </trkpt>
      <trkpt lat="41.048783" lon="-4.193350">
        <ele>1127.0</ele>
        <time>2016-07-12T16:39:00Z</time>
      </trkpt>
      <trkpt lat="41.048650" lon="-4.193283">
        <ele>1124.0</ele>
        <time>2016-07-12T16:39:01Z</time>
      </trkpt>
      <trkpt lat="41.048533" lon="-4.193217">
        <ele>1122.0</ele>
        <time>2016-07-12T16:39:02Z</time>
      </trkpt>
      <trkpt lat="41.048400" lon="-4.193150">
        <ele>1120.0</ele>
        <time>2016-07-12T16:39:03Z</time>
      </trkpt>
      <trkpt lat="41.048267" lon="-4.193100">
        <ele>1118.0</ele>
        <time>2016-07-12T16:39:04Z</time>
      </trkpt>
      <trkpt lat="41.048150" lon="-4.193050">
        <ele>1117.0</ele>
        <time>2016-07-12T16:39:05Z</time>
      </trkpt>
      <trkpt lat="41.048017" lon="-4.193000">
        <ele>1115.0</ele>
        <time>2016-07-12T16:39:06Z</time>
      </trkpt>
      <trkpt lat="41.047900" lon="-4.192950">
        <ele>1114.0</ele>
        <time>2016-07-12T16:39:07Z</time>
      </trkpt>
      <trkpt lat="41.047783" lon="-4.192917">
        <ele>1113.0</ele>
        <time>2016-07-12T16:39:08Z</time>
      </trkpt>
      <trkpt lat="41.047667" lon="-4.192883">
        <ele>1111.0</ele>
        <time>2016-07-12T16:39:09Z</time>
      </trkpt>
      <trkpt lat="41.047550" lon="-4.192850">
        <ele>1108.0</ele>
        <time>2016-07-12T16:39:10Z</time>
      </trkpt>
      <trkpt lat="41.047433" lon="-4.192817">
        <ele>1105.0</ele>
        <time>2016-07-12T16:39:11Z</time>
      </trkpt>
      <trkpt lat="41.047317" lon="-4.192767">
        <ele>1102.0</ele>
        <time>2016-07-12T16:39:12Z</time>
      </trkpt>
      <trkpt lat="41.047183" lon="-4.192717">
        <ele>1100.0</ele>
        <time>2016-07-12T16:39:13Z</time>
      </trkpt>
      <trkpt lat="41.047050" lon="-4.192650">
        <ele>1098.0</ele>
        <time>2016-07-12T16:39:14Z</time>
      </trkpt>
      <trkpt lat="41.046933" lon="-4.192600">
        <ele>1097.0</ele>
        <time>2016-07-12T16:39:15Z</time>
      </trkpt>
      <trkpt lat="41.046800" lon="-4.192550">
        <ele>1095.0</ele>
        <time>2016-07-12T16:39:16Z</time>
      </trkpt>
      <trkpt lat="41.046683" lon="-4.192500">
        <ele>1093.0</ele>
        <time>2016-07-12T16:39:17Z</time>
      </trkpt>
      <trkpt lat="41.046550" lon="-4.192433">
        <ele>1090.0</ele>
        <time>2016-07-12T16:39:18Z</time>
      </trkpt>
      <trkpt lat="41.046417" lon="-4.192367">
        <ele>1088.0</ele>
        <time>2016-07-12T16:39:19Z</time>
      </trkpt>
      <trkpt lat="41.046283" lon="-4.192317">
        <ele>1086.0</ele>
        <time>2016-07-12T16:39:20Z</time>
      </trkpt>
      <trkpt lat="41.046167" lon="-4.192267">
        <ele>1084.0</ele>
        <time>2016-07-12T16:39:21Z</time>
      </trkpt>
      <trkpt lat="41.046033" lon="-4.192200">
        <ele>1082.0</ele>
        <time>2016-07-12T16:39:22Z</time>
      </trkpt>
      <trkpt lat="41.045900" lon="-4.192117">
        <ele>1080.0</ele>
        <time>2016-07-12T16:39:23Z</time>
      </trkpt>
      <trkpt lat="41.045767" lon="-4.192033">
        <ele>1079.0</ele>
        <time>2016-07-12T16:39:24Z</time>
      </trkpt>
      <trkpt lat="41.045633" lon="-4.191967">
        <ele>1078.0</ele>
        <time>2016-07-12T16:39:25Z</time>
      </trkpt>
      <trkpt lat="41.045500" lon="-4.191900">
        <ele>1078.0</ele>
        <time>2016-07-12T16:39:26Z</time>
      </trkpt>
      <trkpt lat="41.045367" lon="-4.191833">
        <ele>1077.0</ele>
        <time>2016-07-12T16:39:27Z</time>
      </trkpt>
      <trkpt lat="41.045233" lon="-4.191767">
        <ele>1076.0</ele>
        <time>2016-07-12T16:39:28Z</time>
      </trkpt>
      <trkpt lat="41.045083" lon="-4.191683">
        <ele>1076.0</ele>
        <time>2016-07-12T16:39:29Z</time>
      </trkpt>
      <trkpt lat="41.044950" lon="-4.191600">
        <ele>1075.0</ele>
        <time>2016-07-12T16:39:30Z</time>
      </trkpt>
      <trkpt lat="41.044800" lon="-4.191517">
        <ele>1075.0</ele>
        <time>2016-07-12T16:39:31Z</time>
      </trkpt>
      <trkpt lat="41.044650" lon="-4.191433">
        <ele>1076.0</ele>
        <time>2016-07-12T16:39:32Z</time>
      </trkpt>
      <trkpt lat="41.044517" lon="-4.191367">
        <ele>1079.0</ele>
        <time>2016-07-12T16:39:33Z</time>
      </trkpt>
      <trkpt lat="41.044417" lon="-4.191300">
        <ele>1082.0</ele>
        <time>2016-07-12T16:39:34Z</time>
      </trkpt>
      <trkpt lat="41.044333" lon="-4.191250">
        <ele>1083.0</ele>
        <time>2016-07-12T16:39:35Z</time>
      </trkpt>
      <trkpt lat="41.044250" lon="-4.191183">
        <ele>1083.0</ele>
        <time>2016-07-12T16:39:36Z</time>
      </trkpt>
      <trkpt lat="41.044133" lon="-4.191150">
        <ele>1082.0</ele>
        <time>2016-07-12T16:39:37Z</time>
      </trkpt>
      <trkpt lat="41.044017" lon="-4.191133">
        <ele>1081.0</ele>
        <time>2016-07-12T16:39:38Z</time>
      </trkpt>
      <trkpt lat="41.043900" lon="-4.191150">
        <ele>1080.0</ele>
        <time>2016-07-12T16:39:39Z</time>
      </trkpt>
      <trkpt lat="41.043833" lon="-4.191200">
        <ele>1080.0</ele>
        <time>2016-07-12T16:39:40Z</time>
      </trkpt>
      <trkpt lat="41.043800" lon="-4.191267">
        <ele>1079.0</ele>
        <time>2016-07-12T16:39:41Z</time>
      </trkpt>
      <trkpt lat="41.043800" lon="-4.191300">
        <ele>1079.0</ele>
        <time>2016-07-12T16:39:42Z</time>
      </trkpt>
      <trkpt lat="41.043833" lon="-4.191283">
        <ele>1079.0</ele>
        <time>2016-07-12T16:39:43Z</time>
      </trkpt>
      <trkpt lat="41.043867" lon="-4.191233">
        <ele>1079.0</ele>
        <time>2016-07-12T16:39:44Z</time>
      </trkpt>
      <trkpt lat="41.043900" lon="-4.191167">
        <ele>1080.0</ele>
        <time>2016-07-12T16:39:45Z</time>
      </trkpt>
      <trkpt lat="41.043917" lon="-4.191083">
        <ele>1081.0</ele>
        <time>2016-07-12T16:39:46Z</time>
      </trkpt>
      <trkpt lat="41.043933" lon="-4.191033">
        <ele>1081.0</ele>
        <time>2016-07-12T16:39:47Z</time>
      </trkpt>
      <trkpt lat="41.043950" lon="-4.190967">
        <ele>1081.0</ele>
        <time>2016-07-12T16:39:48Z</time>
      </trkpt>
      <trkpt lat="41.043967" lon="-4.190883">
        <ele>1081.0</ele>
        <time>2016-07-12T16:39:49Z</time>
      </trkpt>
      <trkpt lat="41.043967" lon="-4.190783">
        <ele>1081.0</ele>
        <time>2016-07-12T16:39:50Z</time>
      </trkpt>
      <trkpt lat="41.043967" lon="-4.190633">
        <ele>1081.0</ele>
        <time>2016-07-12T16:39:51Z</time>
      </trkpt>
      <trkpt lat="41.043933" lon="-4.190483">
        <ele>1082.0</ele>
        <time>2016-07-12T16:39:52Z</time>
      </trkpt>
      <trkpt lat="41.043900" lon="-4.190350">
        <ele>1084.0</ele>
        <time>2016-07-12T16:39:53Z</time>
      </trkpt>
      <trkpt lat="41.043833" lon="-4.190217">
        <ele>1085.0</ele>
        <time>2016-07-12T16:39:54Z</time>
      </trkpt>
      <trkpt lat="41.043750" lon="-4.190100">
        <ele>1086.0</ele>
        <time>2016-07-12T16:39:55Z</time>
      </trkpt>
      <trkpt lat="41.043650" lon="-4.190017">
        <ele>1087.0</ele>
        <time>2016-07-12T16:39:56Z</time>
      </trkpt>
      <trkpt lat="41.043533" lon="-4.189983">
        <ele>1087.0</ele>
        <time>2016-07-12T16:39:57Z</time>
      </trkpt>
      <trkpt lat="41.043417" lon="-4.189983">
        <ele>1087.0</ele>
        <time>2016-07-12T16:39:58Z</time>
      </trkpt>
      <trkpt lat="41.043317" lon="-4.190017">
        <ele>1087.0</ele>
        <time>2016-07-12T16:39:59Z</time>
      </trkpt>
      <trkpt lat="41.043250" lon="-4.190067">
        <ele>1088.0</ele>
        <time>2016-07-12T16:40:00Z</time>
      </trkpt>
      <trkpt lat="41.043217" lon="-4.190117">
        <ele>1087.0</ele>
        <time>2016-07-12T16:40:01Z</time>
      </trkpt>
      <trkpt lat="41.043233" lon="-4.190167">
        <ele>1085.0</ele>
        <time>2016-07-12T16:40:02Z</time>
      </trkpt>
      <trkpt lat="41.043267" lon="-4.190167">
        <ele>1084.0</ele>
        <time>2016-07-12T16:40:03Z</time>
      </trkpt>
      <trkpt lat="41.043317" lon="-4.190133">
        <ele>1084.0</ele>
        <time>2016-07-12T16:40:04Z</time>
      </trkpt>
      <trkpt lat="41.043350" lon="-4.190083">
        <ele>1086.0</ele>
        <time>2016-07-12T16:40:05Z</time>
      </trkpt>
      <trkpt lat="41.043367" lon="-4.190017">
        <ele>1088.0</ele>
        <time>2016-07-12T16:40:06Z</time>
      </trkpt>
      <trkpt lat="41.043383" lon="-4.189933">
        <ele>1089.0</ele>
        <time>2016-07-12T16:40:07Z</time>
      </trkpt>
      <trkpt lat="41.043400" lon="-4.189833">
        <ele>1089.0</ele>
        <time>2016-07-12T16:40:08Z</time>
      </trkpt>
      <trkpt lat="41.043417" lon="-4.189717">
        <ele>1089.0</ele>
        <time>2016-07-12T16:40:09Z</time>
      </trkpt>
      <trkpt lat="41.043417" lon="-4.189583">
        <ele>1090.0</ele>
        <time>2016-07-12T16:40:10Z</time>
      </trkpt>
      <trkpt lat="41.043400" lon="-4.189467">
        <ele>1091.0</ele>
        <time>2016-07-12T16:40:11Z</time>
      </trkpt>
      <trkpt lat="41.043367" lon="-4.189333">
        <ele>1093.0</ele>
        <time>2016-07-12T16:40:12Z</time>
      </trkpt>
      <trkpt lat="41.043317" lon="-4.189183">
        <ele>1094.0</ele>
        <time>2016-07-12T16:40:13Z</time>
      </trkpt>
      <trkpt lat="41.043267" lon="-4.189050">
        <ele>1095.0</ele>
        <time>2016-07-12T16:40:14Z</time>
      </trkpt>
      <trkpt lat="41.043200" lon="-4.188900">
        <ele>1096.0</ele>
        <time>2016-07-12T16:40:15Z</time>
      </trkpt>
      <trkpt lat="41.043117" lon="-4.188767">
        <ele>1096.0</ele>
        <time>2016-07-12T16:40:16Z</time>
      </trkpt>
      <trkpt lat="41.043000" lon="-4.188667">
        <ele>1096.0</ele>
        <time>2016-07-12T16:40:17Z</time>
      </trkpt>
      <trkpt lat="41.042867" lon="-4.188600">
        <ele>1096.0</ele>
        <time>2016-07-12T16:40:18Z</time>
      </trkpt>
      <trkpt lat="41.042750" lon="-4.188600">
        <ele>1097.0</ele>
        <time>2016-07-12T16:40:19Z</time>
      </trkpt>
      <trkpt lat="41.042650" lon="-4.188633">
        <ele>1097.0</ele>
        <time>2016-07-12T16:40:20Z</time>
      </trkpt>
      <trkpt lat="41.042600" lon="-4.188700">
        <ele>1098.0</ele>
        <time>2016-07-12T16:40:21Z</time>
      </trkpt>
      <trkpt lat="41.042550" lon="-4.188750">
        <ele>1100.0</ele>
        <time>2016-07-12T16:40:22Z</time>
      </trkpt>
      <trkpt lat="41.042500" lon="-4.188800">
        <ele>1101.0</ele>
        <time>2016-07-12T16:40:23Z</time>
      </trkpt>
      <trkpt lat="41.042467" lon="-4.188867">
        <ele>1101.0</ele>
        <time>2016-07-12T16:40:24Z</time>
      </trkpt>
      <trkpt lat="41.042450" lon="-4.188933">
        <ele>1102.0</ele>
        <time>2016-07-12T16:40:25Z</time>
      </trkpt>
      <trkpt lat="41.042450" lon="-4.188967">
        <ele>1103.0</ele>
        <time>2016-07-12T16:40:26Z</time>
      </trkpt>
      <trkpt lat="41.042500" lon="-4.188967">
        <ele>1104.0</ele>
        <time>2016-07-12T16:40:27Z</time>
      </trkpt>
      <trkpt lat="41.042533" lon="-4.188933">
        <ele>1105.0</ele>
        <time>2016-07-12T16:40:28Z</time>
      </trkpt>
      <trkpt lat="41.042550" lon="-4.188850">
        <ele>1108.0</ele>
        <time>2016-07-12T16:40:29Z</time>
      </trkpt>
      <trkpt lat="41.042567" lon="-4.188783">
        <ele>1110.0</ele>
        <time>2016-07-12T16:40:30Z</time>
      </trkpt>
      <trkpt lat="41.042567" lon="-4.188700">
        <ele>1112.0</ele>
        <time>2016-07-12T16:40:31Z</time>
      </trkpt>
      <trkpt lat="41.042567" lon="-4.188600">
        <ele>1113.0</ele>
        <time>2016-07-12T16:40:32Z</time>
      </trkpt>
      <trkpt lat="41.042550" lon="-4.188483">
        <ele>1113.0</ele>
        <time>2016-07-12T16:40:33Z</time>
      </trkpt>
      <trkpt lat="41.042517" lon="-4.188350">
        <ele>1112.0</ele>
        <time>2016-07-12T16:40:34Z</time>
      </trkpt>
      <trkpt lat="41.042467" lon="-4.188217">
        <ele>1112.0</ele>
        <time>2016-07-12T16:40:35Z</time>
      </trkpt>
      <trkpt lat="41.042400" lon="-4.188083">
        <ele>1113.0</ele>
        <time>2016-07-12T16:40:36Z</time>
      </trkpt>
      <trkpt lat="41.042283" lon="-4.187983">
        <ele>1112.0</ele>
        <time>2016-07-12T16:40:37Z</time>
      </trkpt>
      <trkpt lat="41.042150" lon="-4.187900">
        <ele>1111.0</ele>
        <time>2016-07-12T16:40:38Z</time>
      </trkpt>
      <trkpt lat="41.042000" lon="-4.187883">
        <ele>1111.0</ele>
        <time>2016-07-12T16:40:39Z</time>
      </trkpt>
      <trkpt lat="41.041883" lon="-4.187900">
        <ele>1113.0</ele>
        <time>2016-07-12T16:40:40Z</time>
      </trkpt>
      <trkpt lat="41.041800" lon="-4.187950">
        <ele>1114.0</ele>
        <time>2016-07-12T16:40:41Z</time>
      </trkpt>
      <trkpt lat="41.041750" lon="-4.188000">
        <ele>1114.0</ele>
        <time>2016-07-12T16:40:42Z</time>
      </trkpt>
      <trkpt lat="41.041700" lon="-4.188050">
        <ele>1115.0</ele>
        <time>2016-07-12T16:40:43Z</time>
      </trkpt>
      <trkpt lat="41.041667" lon="-4.188117">
        <ele>1115.0</ele>
        <time>2016-07-12T16:40:44Z</time>
      </trkpt>
      <trkpt lat="41.041667" lon="-4.188167">
        <ele>1116.0</ele>
        <time>2016-07-12T16:40:45Z</time>
      </trkpt>
      <trkpt lat="41.041683" lon="-4.188183">
        <ele>1118.0</ele>
        <time>2016-07-12T16:40:46Z</time>
      </trkpt>
      <trkpt lat="41.041700" lon="-4.188183">
        <ele>1119.0</ele>
        <time>2016-07-12T16:40:47Z</time>
      </trkpt>
      <trkpt lat="41.041733" lon="-4.188150">
        <ele>1120.0</ele>
        <time>2016-07-12T16:40:48Z</time>
      </trkpt>
      <trkpt lat="41.041750" lon="-4.188133">
        <ele>1121.0</ele>
        <time>2016-07-12T16:40:49Z</time>
      </trkpt>
      <trkpt lat="41.041783" lon="-4.188100">
        <ele>1122.0</ele>
        <time>2016-07-12T16:40:50Z</time>
      </trkpt>
      <trkpt lat="41.041800" lon="-4.188050">
        <ele>1123.0</ele>
        <time>2016-07-12T16:40:51Z</time>
      </trkpt>
      <trkpt lat="41.041817" lon="-4.187983">
        <ele>1123.0</ele>
        <time>2016-07-12T16:40:52Z</time>
      </trkpt>
      <trkpt lat="41.041833" lon="-4.187900">
        <ele>1123.0</ele>
        <time>2016-07-12T16:40:53Z</time>
      </trkpt>
      <trkpt lat="41.041850" lon="-4.187800">
        <ele>1123.0</ele>
        <time>2016-07-12T16:40:54Z</time>
      </trkpt>
      <trkpt lat="41.041850" lon="-4.187700">
        <ele>1124.0</ele>
        <time>2016-07-12T16:40:55Z</time>
      </trkpt>
      <trkpt lat="41.041833" lon="-4.187567">
        <ele>1125.0</ele>
        <time>2016-07-12T16:40:56Z</time>
      </trkpt>
      <trkpt lat="41.041783" lon="-4.187433">
        <ele>1126.0</ele>
        <time>2016-07-12T16:40:57Z</time>
      </trkpt>
      <trkpt lat="41.041717" lon="-4.187300">
        <ele>1127.0</ele>
        <time>2016-07-12T16:40:58Z</time>
      </trkpt>
      <trkpt lat="41.041633" lon="-4.187183">
        <ele>1129.0</ele>
        <time>2016-07-12T16:40:59Z</time>
      </trkpt>
      <trkpt lat="41.041517" lon="-4.187117">
        <ele>1130.0</ele>
        <time>2016-07-12T16:41:00Z</time>
      </trkpt>
      <trkpt lat="41.041400" lon="-4.187083">
        <ele>1130.0</ele>
        <time>2016-07-12T16:41:01Z</time>
      </trkpt>
      <trkpt lat="41.041300" lon="-4.187100">
        <ele>1131.0</ele>
        <time>2016-07-12T16:41:02Z</time>
      </trkpt>
      <trkpt lat="41.041200" lon="-4.187117">
        <ele>1131.0</ele>
        <time>2016-07-12T16:41:03Z</time>
      </trkpt>
      <trkpt lat="41.041133" lon="-4.187150">
        <ele>1132.0</ele>
        <time>2016-07-12T16:41:04Z</time>
      </trkpt>
      <trkpt lat="41.041067" lon="-4.187200">
        <ele>1133.0</ele>
        <time>2016-07-12T16:41:05Z</time>
      </trkpt>
      <trkpt lat="41.041017" lon="-4.187250">
        <ele>1133.0</ele>
        <time>2016-07-12T16:41:06Z</time>
      </trkpt>
      <trkpt lat="41.040983" lon="-4.187317">
        <ele>1132.0</ele>
        <time>2016-07-12T16:41:07Z</time>
      </trkpt>
      <trkpt lat="41.040983" lon="-4.187367">
        <ele>1132.0</ele>
        <time>2016-07-12T16:41:08Z</time>
      </trkpt>
      <trkpt lat="41.040983" lon="-4.187400">
        <ele>1132.0</ele>
        <time>2016-07-12T16:41:09Z</time>
      </trkpt>
      <trkpt lat="41.041000" lon="-4.187417">
        <ele>1132.0</ele>
        <time>2016-07-12T16:41:10Z</time>
      </trkpt>
      <trkpt lat="41.041033" lon="-4.187400">
        <ele>1131.0</ele>
        <time>2016-07-12T16:41:11Z</time>
      </trkpt>
      <trkpt lat="41.041067" lon="-4.187367">
        <ele>1130.0</ele>
        <time>2016-07-12T16:41:12Z</time>
      </trkpt>
      <trkpt lat="41.041100" lon="-4.187300">
        <ele>1130.0</ele>
        <time>2016-07-12T16:41:13Z</time>
      </trkpt>
      <trkpt lat="41.041133" lon="-4.187200">
        <ele>1130.0</ele>
        <time>2016-07-12T16:41:14Z</time>
      </trkpt>
      <trkpt lat="41.041133" lon="-4.187067">
        <ele>1129.0</ele>
        <time>2016-07-12T16:41:15Z</time>
      </trkpt>
      <trkpt lat="41.041133" lon="-4.186917">
        <ele>1129.0</ele>
        <time>2016-07-12T16:41:16Z</time>
      </trkpt>
      <trkpt lat="41.041100" lon="-4.186767">
        <ele>1129.0</ele>
        <time>2016-07-12T16:41:17Z</time>
      </trkpt>
      <trkpt lat="41.041050" lon="-4.186617">
        <ele>1130.0</ele>
        <time>2016-07-12T16:41:18Z</time>
      </trkpt>
      <trkpt lat="41.040967" lon="-4.186483">
        <ele>1130.0</ele>
        <time>2016-07-12T16:41:19Z</time>
      </trkpt>
      <trkpt lat="41.040867" lon="-4.186350">
        <ele>1130.0</ele>
        <time>2016-07-12T16:41:20Z</time>
      </trkpt>
      <trkpt lat="41.040733" lon="-4.186267">
        <ele>1131.0</ele>
        <time>2016-07-12T16:41:21Z</time>
      </trkpt>
      <trkpt lat="41.040617" lon="-4.186217">
        <ele>1132.0</ele>
        <time>2016-07-12T16:41:22Z</time>
      </trkpt>
      <trkpt lat="41.040483" lon="-4.186200">
        <ele>1133.0</ele>
        <time>2016-07-12T16:41:23Z</time>
      </trkpt>
      <trkpt lat="41.040383" lon="-4.186217">
        <ele>1134.0</ele>
        <time>2016-07-12T16:41:24Z</time>
      </trkpt>
      <trkpt lat="41.040267" lon="-4.186250">
        <ele>1135.0</ele>
        <time>2016-07-12T16:41:25Z</time>
      </trkpt>
      <trkpt lat="41.040183" lon="-4.186267">
        <ele>1136.0</ele>
        <time>2016-07-12T16:41:26Z</time>
      </trkpt>
      <trkpt lat="41.040100" lon="-4.186300">
        <ele>1137.0</ele>
        <time>2016-07-12T16:41:27Z</time>
      </trkpt>
      <trkpt lat="41.040033" lon="-4.186350">
        <ele>1136.0</ele>
        <time>2016-07-12T16:41:28Z</time>
      </trkpt>
      <trkpt lat="41.040000" lon="-4.186400">
        <ele>1135.0</ele>
        <time>2016-07-12T16:41:29Z</time>
      </trkpt>
      <trkpt lat="41.039950" lon="-4.186467">
        <ele>1135.0</ele>
        <time>2016-07-12T16:41:30Z</time>
      </trkpt>
      <trkpt lat="41.039933" lon="-4.186517">
        <ele>1135.0</ele>
        <time>2016-07-12T16:41:31Z</time>
      </trkpt>
      <trkpt lat="41.039917" lon="-4.186550">
        <ele>1136.0</ele>
        <time>2016-07-12T16:41:32Z</time>
      </trkpt>
      <trkpt lat="41.039917" lon="-4.186583">
        <ele>1136.0</ele>
        <time>2016-07-12T16:41:33Z</time>
      </trkpt>
      <trkpt lat="41.039917" lon="-4.186600">
        <ele>1137.0</ele>
        <time>2016-07-12T16:41:34Z</time>
      </trkpt>
      <trkpt lat="41.039933" lon="-4.186617">
        <ele>1138.0</ele>
        <time>2016-07-12T16:41:35Z</time>
      </trkpt>
      <trkpt lat="41.039967" lon="-4.186600">
        <ele>1138.0</ele>
        <time>2016-07-12T16:41:36Z</time>
      </trkpt>
      <trkpt lat="41.039983" lon="-4.186567">
        <ele>1139.0</ele>
        <time>2016-07-12T16:41:37Z</time>
      </trkpt>
      <trkpt lat="41.040017" lon="-4.186533">
        <ele>1141.0</ele>
        <time>2016-07-12T16:41:38Z</time>
      </trkpt>
      <trkpt lat="41.040033" lon="-4.186467">
        <ele>1141.0</ele>
        <time>2016-07-12T16:41:39Z</time>
      </trkpt>
      <trkpt lat="41.040050" lon="-4.186383">
        <ele>1142.0</ele>
        <time>2016-07-12T16:41:40Z</time>
      </trkpt>
      <trkpt lat="41.040067" lon="-4.186300">
        <ele>1142.0</ele>
        <time>2016-07-12T16:41:41Z</time>
      </trkpt>
      <trkpt lat="41.040100" lon="-4.186183">
        <ele>1141.0</ele>
        <time>2016-07-12T16:41:42Z</time>
      </trkpt>
      <trkpt lat="41.040100" lon="-4.186033">
        <ele>1141.0</ele>
        <time>2016-07-12T16:41:43Z</time>
      </trkpt>
      <trkpt lat="41.040067" lon="-4.185883">
        <ele>1140.0</ele>
        <time>2016-07-12T16:41:44Z</time>
      </trkpt>
      <trkpt lat="41.040033" lon="-4.185733">
        <ele>1139.0</ele>
        <time>2016-07-12T16:41:45Z</time>
      </trkpt>
      <trkpt lat="41.039950" lon="-4.185583">
        <ele>1138.0</ele>
        <time>2016-07-12T16:41:46Z</time>
      </trkpt>
      <trkpt lat="41.039867" lon="-4.185433">
        <ele>1137.0</ele>
        <time>2016-07-12T16:41:47Z</time>
      </trkpt>
      <trkpt lat="41.039750" lon="-4.185333">
        <ele>1137.0</ele>
        <time>2016-07-12T16:41:48Z</time>
      </trkpt>
      <trkpt lat="41.039650" lon="-4.185250">
        <ele>1137.0</ele>
        <time>2016-07-12T16:41:49Z</time>
      </trkpt>
      <trkpt lat="41.039517" lon="-4.185217">
        <ele>1136.0</ele>
        <time>2016-07-12T16:41:50Z</time>
      </trkpt>
      <trkpt lat="41.039417" lon="-4.185200">
        <ele>1135.0</ele>
        <time>2016-07-12T16:41:51Z</time>
      </trkpt>
      <trkpt lat="41.039300" lon="-4.185217">
        <ele>1134.0</ele>
        <time>2016-07-12T16:41:52Z</time>
      </trkpt>
      <trkpt lat="41.039217" lon="-4.185250">
        <ele>1134.0</ele>
        <time>2016-07-12T16:41:53Z</time>
      </trkpt>
      <trkpt lat="41.039133" lon="-4.185300">
        <ele>1134.0</ele>
        <time>2016-07-12T16:41:54Z</time>
      </trkpt>
      <trkpt lat="41.039083" lon="-4.185350">
        <ele>1135.0</ele>
        <time>2016-07-12T16:41:55Z</time>
      </trkpt>
      <trkpt lat="41.039067" lon="-4.185383">
        <ele>1136.0</ele>
        <time>2016-07-12T16:41:56Z</time>
      </trkpt>
      <trkpt lat="41.039050" lon="-4.185417">
        <ele>1137.0</ele>
        <time>2016-07-12T16:41:57Z</time>
      </trkpt>
      <trkpt lat="41.039050" lon="-4.185450">
        <ele>1137.0</ele>
        <time>2016-07-12T16:41:58Z</time>
      </trkpt>
      <trkpt lat="41.039017" lon="-4.185483">
        <ele>1136.0</ele>
        <time>2016-07-12T16:41:59Z</time>
      </trkpt>
      <trkpt lat="41.039000" lon="-4.185533">
        <ele>1136.0</ele>
        <time>2016-07-12T16:42:00Z</time>
      </trkpt>
      <trkpt lat="41.038983" lon="-4.185583">
        <ele>1136.0</ele>
        <time>2016-07-12T16:42:01Z</time>
      </trkpt>
      <trkpt lat="41.039000" lon="-4.185617">
        <ele>1137.0</ele>
        <time>2016-07-12T16:42:02Z</time>
      </trkpt>
      <trkpt lat="41.039033" lon="-4.185650">
        <ele>1138.0</ele>
        <time>2016-07-12T16:42:03Z</time>
      </trkpt>
      <trkpt lat="41.039050" lon="-4.185683">
        <ele>1140.0</ele>
        <time>2016-07-12T16:42:04Z</time>
      </trkpt>
      <trkpt lat="41.039067" lon="-4.185700">
        <ele>1142.0</ele>
        <time>2016-07-12T16:42:05Z</time>
      </trkpt>
      <trkpt lat="41.039083" lon="-4.185733">
        <ele>1144.0</ele>
        <time>2016-07-12T16:42:06Z</time>
      </trkpt>
      <trkpt lat="41.039083" lon="-4.185767">
        <ele>1146.0</ele>
        <time>2016-07-12T16:42:07Z</time>
      </trkpt>
      <trkpt lat="41.039100" lon="-4.185783">
        <ele>1147.0</ele>
        <time>2016-07-12T16:42:08Z</time>
      </trkpt>
      <trkpt lat="41.039117" lon="-4.185800">
        <ele>1147.0</ele>
        <time>2016-07-12T16:42:09Z</time>
      </trkpt>
      <trkpt lat="41.039117" lon="-4.185833">
        <ele>1146.0</ele>
        <time>2016-07-12T16:42:10Z</time>
      </trkpt>
      <trkpt lat="41.039133" lon="-4.185883">
        <ele>1146.0</ele>
        <time>2016-07-12T16:42:11Z</time>
      </trkpt>
      <trkpt lat="41.039133" lon="-4.185917">
        <ele>1146.0</ele>
        <time>2016-07-12T16:42:12Z</time>
      </trkpt>
      <trkpt lat="41.039150" lon="-4.185967">
        <ele>1147.0</ele>
        <time>2016-07-12T16:42:13Z</time>
      </trkpt>
      <trkpt lat="41.039167" lon="-4.186000">
        <ele>1147.0</ele>
        <time>2016-07-12T16:42:14Z</time>
      </trkpt>
      <trkpt lat="41.039200" lon="-4.186033">
        <ele>1146.0</ele>
        <time>2016-07-12T16:42:15Z</time>
      </trkpt>
      <trkpt lat="41.039233" lon="-4.186067">
        <ele>1146.0</ele>
        <time>2016-07-12T16:42:16Z</time>
      </trkpt>
      <trkpt lat="41.039250" lon="-4.186100">
        <ele>1145.0</ele>
        <time>2016-07-12T16:42:17Z</time>
      </trkpt>
      <trkpt lat="41.039267" lon="-4.186150">
        <ele>1145.0</ele>
        <time>2016-07-12T16:42:18Z</time>
      </trkpt>
      <trkpt lat="41.039283" lon="-4.186200">
        <ele>1145.0</ele>
        <time>2016-07-12T16:42:19Z</time>
      </trkpt>
      <trkpt lat="41.039317" lon="-4.186250">
        <ele>1144.0</ele>
        <time>2016-07-12T16:42:20Z</time>
      </trkpt>
      <trkpt lat="41.039333" lon="-4.186283">
        <ele>1144.0</ele>
        <time>2016-07-12T16:42:21Z</time>
      </trkpt>
      <trkpt lat="41.039350" lon="-4.186333">
        <ele>1142.0</ele>
        <time>2016-07-12T16:42:22Z</time>
      </trkpt>
      <trkpt lat="41.039367" lon="-4.186383">
        <ele>1141.0</ele>
        <time>2016-07-12T16:42:23Z</time>
      </trkpt>
      <trkpt lat="41.039400" lon="-4.186450">
        <ele>1140.0</ele>
        <time>2016-07-12T16:42:24Z</time>
      </trkpt>
      <trkpt lat="41.039417" lon="-4.186500">
        <ele>1139.0</ele>
        <time>2016-07-12T16:42:25Z</time>
      </trkpt>
      <trkpt lat="41.039417" lon="-4.186567">
        <ele>1139.0</ele>
        <time>2016-07-12T16:42:26Z</time>
      </trkpt>
      <trkpt lat="41.039433" lon="-4.186617">
        <ele>1138.0</ele>
        <time>2016-07-12T16:42:27Z</time>
      </trkpt>
      <trkpt lat="41.039450" lon="-4.186683">
        <ele>1137.0</ele>
        <time>2016-07-12T16:42:28Z</time>
      </trkpt>
      <trkpt lat="41.039483" lon="-4.186733">
        <ele>1136.0</ele>
        <time>2016-07-12T16:42:29Z</time>
      </trkpt>
      <trkpt lat="41.039517" lon="-4.186750">
        <ele>1136.0</ele>
        <time>2016-07-12T16:42:30Z</time>
      </trkpt>
      <trkpt lat="41.039550" lon="-4.186750">
        <ele>1135.0</ele>
        <time>2016-07-12T16:42:31Z</time>
      </trkpt>
      <trkpt lat="41.039600" lon="-4.186717">
        <ele>1134.0</ele>
        <time>2016-07-12T16:42:32Z</time>
      </trkpt>
      <trkpt lat="41.039633" lon="-4.186650">
        <ele>1133.0</ele>
        <time>2016-07-12T16:42:33Z</time>
      </trkpt>
      <trkpt lat="41.039667" lon="-4.186533">
        <ele>1131.0</ele>
        <time>2016-07-12T16:42:34Z</time>
      </trkpt>
      <trkpt lat="41.039700" lon="-4.186417">
        <ele>1131.0</ele>
        <time>2016-07-12T16:42:35Z</time>
      </trkpt>
      <trkpt lat="41.039700" lon="-4.186300">
        <ele>1131.0</ele>
        <time>2016-07-12T16:42:36Z</time>
      </trkpt>
      <trkpt lat="41.039700" lon="-4.186183">
        <ele>1131.0</ele>
        <time>2016-07-12T16:42:37Z</time>
      </trkpt>
      <trkpt lat="41.039700" lon="-4.186067">
        <ele>1131.0</ele>
        <time>2016-07-12T16:42:38Z</time>
      </trkpt>
      <trkpt lat="41.039683" lon="-4.185950">
        <ele>1129.0</ele>
        <time>2016-07-12T16:42:39Z</time>
      </trkpt>
      <trkpt lat="41.039683" lon="-4.185817">
        <ele>1129.0</ele>
        <time>2016-07-12T16:42:40Z</time>
      </trkpt>
      <trkpt lat="41.039667" lon="-4.185667">
        <ele>1128.0</ele>
        <time>2016-07-12T16:42:41Z</time>
      </trkpt>
      <trkpt lat="41.039667" lon="-4.185517">
        <ele>1128.0</ele>
        <time>2016-07-12T16:42:42Z</time>
      </trkpt>
      <trkpt lat="41.039633" lon="-4.185383">
        <ele>1128.0</ele>
        <time>2016-07-12T16:42:43Z</time>
      </trkpt>
      <trkpt lat="41.039600" lon="-4.185267">
        <ele>1127.0</ele>
        <time>2016-07-12T16:42:44Z</time>
      </trkpt>
      <trkpt lat="41.039550" lon="-4.185133">
        <ele>1126.0</ele>
        <time>2016-07-12T16:42:45Z</time>
      </trkpt>
      <trkpt lat="41.039483" lon="-4.185000">
        <ele>1124.0</ele>
        <time>2016-07-12T16:42:46Z</time>
      </trkpt>
      <trkpt lat="41.039417" lon="-4.184850">
        <ele>1122.0</ele>
        <time>2016-07-12T16:42:47Z</time>
      </trkpt>
      <trkpt lat="41.039317" lon="-4.184733">
        <ele>1122.0</ele>
        <time>2016-07-12T16:42:48Z</time>
      </trkpt>
      <trkpt lat="41.039217" lon="-4.184650">
        <ele>1121.0</ele>
        <time>2016-07-12T16:42:49Z</time>
      </trkpt>
      <trkpt lat="41.039100" lon="-4.184600">
        <ele>1120.0</ele>
        <time>2016-07-12T16:42:50Z</time>
      </trkpt>
      <trkpt lat="41.038983" lon="-4.184583">
        <ele>1118.0</ele>
        <time>2016-07-12T16:42:51Z</time>
      </trkpt>
      <trkpt lat="41.038867" lon="-4.184583">
        <ele>1117.0</ele>
        <time>2016-07-12T16:42:52Z</time>
      </trkpt>
      <trkpt lat="41.038767" lon="-4.184617">
        <ele>1116.0</ele>
        <time>2016-07-12T16:42:53Z</time>
      </trkpt>
      <trkpt lat="41.038667" lon="-4.184650">
        <ele>1115.0</ele>
        <time>2016-07-12T16:42:54Z</time>
      </trkpt>
      <trkpt lat="41.038583" lon="-4.184700">
        <ele>1114.0</ele>
        <time>2016-07-12T16:42:55Z</time>
      </trkpt>
      <trkpt lat="41.038517" lon="-4.184750">
        <ele>1113.0</ele>
        <time>2016-07-12T16:42:56Z</time>
      </trkpt>
      <trkpt lat="41.038450" lon="-4.184800">
        <ele>1112.0</ele>
        <time>2016-07-12T16:42:57Z</time>
      </trkpt>
      <trkpt lat="41.038400" lon="-4.184867">
        <ele>1110.0</ele>
        <time>2016-07-12T16:42:58Z</time>
      </trkpt>
      <trkpt lat="41.038333" lon="-4.184933">
        <ele>1109.0</ele>
        <time>2016-07-12T16:42:59Z</time>
      </trkpt>
      <trkpt lat="41.038300" lon="-4.185017">
        <ele>1107.0</ele>
        <time>2016-07-12T16:43:00Z</time>
      </trkpt>
      <trkpt lat="41.038250" lon="-4.185083">
        <ele>1107.0</ele>
        <time>2016-07-12T16:43:01Z</time>
      </trkpt>
      <trkpt lat="41.038233" lon="-4.185150">
        <ele>1108.0</ele>
        <time>2016-07-12T16:43:02Z</time>
      </trkpt>
      <trkpt lat="41.038233" lon="-4.185200">
        <ele>1107.0</ele>
        <time>2016-07-12T16:43:03Z</time>
      </trkpt>
      <trkpt lat="41.038233" lon="-4.185250">
        <ele>1106.0</ele>
        <time>2016-07-12T16:43:04Z</time>
      </trkpt>
      <trkpt lat="41.038250" lon="-4.185317">
        <ele>1104.0</ele>
        <time>2016-07-12T16:43:05Z</time>
      </trkpt>
      <trkpt lat="41.038250" lon="-4.185383">
        <ele>1104.0</ele>
        <time>2016-07-12T16:43:06Z</time>
      </trkpt>
      <trkpt lat="41.038233" lon="-4.185450">
        <ele>1104.0</ele>
        <time>2016-07-12T16:43:07Z</time>
      </trkpt>
      <trkpt lat="41.038233" lon="-4.185500">
        <ele>1104.0</ele>
        <time>2016-07-12T16:43:08Z</time>
      </trkpt>
      <trkpt lat="41.038250" lon="-4.185567">
        <ele>1103.0</ele>
        <time>2016-07-12T16:43:09Z</time>
      </trkpt>
      <trkpt lat="41.038267" lon="-4.185600">
        <ele>1103.0</ele>
        <time>2016-07-12T16:43:10Z</time>
      </trkpt>
      <trkpt lat="41.038283" lon="-4.185667">
        <ele>1102.0</ele>
        <time>2016-07-12T16:43:11Z</time>
      </trkpt>
      <trkpt lat="41.038300" lon="-4.185717">
        <ele>1102.0</ele>
        <time>2016-07-12T16:43:12Z</time>
      </trkpt>
      <trkpt lat="41.038317" lon="-4.185750">
        <ele>1102.0</ele>
        <time>2016-07-12T16:43:13Z</time>
      </trkpt>
      <trkpt lat="41.038333" lon="-4.185800">
        <ele>1102.0</ele>
        <time>2016-07-12T16:43:14Z</time>
      </trkpt>
      <trkpt lat="41.038367" lon="-4.185833">
        <ele>1102.0</ele>
        <time>2016-07-12T16:43:15Z</time>
      </trkpt>
      <trkpt lat="41.038400" lon="-4.185883">
        <ele>1102.0</ele>
        <time>2016-07-12T16:43:16Z</time>
      </trkpt>
      <trkpt lat="41.038417" lon="-4.185917">
        <ele>1103.0</ele>
        <time>2016-07-12T16:43:17Z</time>
      </trkpt>
      <trkpt lat="41.038417" lon="-4.185967">
        <ele>1103.0</ele>
        <time>2016-07-12T16:43:18Z</time>
      </trkpt>
      <trkpt lat="41.038433" lon="-4.186033">
        <ele>1102.0</ele>
        <time>2016-07-12T16:43:19Z</time>
      </trkpt>
      <trkpt lat="41.038450" lon="-4.186083">
        <ele>1100.0</ele>
        <time>2016-07-12T16:43:20Z</time>
      </trkpt>
      <trkpt lat="41.038467" lon="-4.186150">
        <ele>1098.0</ele>
        <time>2016-07-12T16:43:21Z</time>
      </trkpt>
      <trkpt lat="41.038500" lon="-4.186217">
        <ele>1097.0</ele>
        <time>2016-07-12T16:43:22Z</time>
      </trkpt>
      <trkpt lat="41.038517" lon="-4.186267">
        <ele>1097.0</ele>
        <time>2016-07-12T16:43:23Z</time>
      </trkpt>
      <trkpt lat="41.038533" lon="-4.186333">
        <ele>1098.0</ele>
        <time>2016-07-12T16:43:24Z</time>
      </trkpt>
      <trkpt lat="41.038533" lon="-4.186383">
        <ele>1097.0</ele>
        <time>2016-07-12T16:43:25Z</time>
      </trkpt>
      <trkpt lat="41.038550" lon="-4.186433">
        <ele>1095.0</ele>
        <time>2016-07-12T16:43:26Z</time>
      </trkpt>
      <trkpt lat="41.038567" lon="-4.186500">
        <ele>1093.0</ele>
        <time>2016-07-12T16:43:27Z</time>
      </trkpt>
      <trkpt lat="41.038583" lon="-4.186567">
        <ele>1092.0</ele>
        <time>2016-07-12T16:43:28Z</time>
      </trkpt>
      <trkpt lat="41.038617" lon="-4.186617">
        <ele>1093.0</ele>
        <time>2016-07-12T16:43:29Z</time>
      </trkpt>
      <trkpt lat="41.038633" lon="-4.186633">
        <ele>1093.0</ele>
        <time>2016-07-12T16:43:30Z</time>
      </trkpt>
      <trkpt lat="41.038667" lon="-4.186667">
        <ele>1091.0</ele>
        <time>2016-07-12T16:43:31Z</time>
      </trkpt>
      <trkpt lat="41.038700" lon="-4.186700">
        <ele>1090.0</ele>
        <time>2016-07-12T16:43:32Z</time>
      </trkpt>
      <trkpt lat="41.038733" lon="-4.186750">
        <ele>1088.0</ele>
        <time>2016-07-12T16:43:33Z</time>
      </trkpt>
      <trkpt lat="41.038767" lon="-4.186783">
        <ele>1087.0</ele>
        <time>2016-07-12T16:43:34Z</time>
      </trkpt>
      <trkpt lat="41.038817" lon="-4.186800">
        <ele>1087.0</ele>
        <time>2016-07-12T16:43:35Z</time>
      </trkpt>
      <trkpt lat="41.038850" lon="-4.186800">
        <ele>1087.0</ele>
        <time>2016-07-12T16:43:36Z</time>
      </trkpt>
      <trkpt lat="41.038900" lon="-4.186783">
        <ele>1085.0</ele>
        <time>2016-07-12T16:43:37Z</time>
      </trkpt>
      <trkpt lat="41.038950" lon="-4.186783">
        <ele>1084.0</ele>
        <time>2016-07-12T16:43:38Z</time>
      </trkpt>
      <trkpt lat="41.039000" lon="-4.186783">
        <ele>1083.0</ele>
        <time>2016-07-12T16:43:39Z</time>
      </trkpt>
      <trkpt lat="41.039033" lon="-4.186750">
        <ele>1082.0</ele>
        <time>2016-07-12T16:43:40Z</time>
      </trkpt>
      <trkpt lat="41.039083" lon="-4.186700">
        <ele>1081.0</ele>
        <time>2016-07-12T16:43:41Z</time>
      </trkpt>
      <trkpt lat="41.039117" lon="-4.186617">
        <ele>1080.0</ele>
        <time>2016-07-12T16:43:42Z</time>
      </trkpt>
      <trkpt lat="41.039150" lon="-4.186500">
        <ele>1078.0</ele>
        <time>2016-07-12T16:43:43Z</time>
      </trkpt>
      <trkpt lat="41.039200" lon="-4.186400">
        <ele>1076.0</ele>
        <time>2016-07-12T16:43:44Z</time>
      </trkpt>
      <trkpt lat="41.039217" lon="-4.186283">
        <ele>1075.0</ele>
        <time>2016-07-12T16:43:45Z</time>
      </trkpt>
      <trkpt lat="41.039250" lon="-4.186167">
        <ele>1074.0</ele>
        <time>2016-07-12T16:43:46Z</time>
      </trkpt>
      <trkpt lat="41.039250" lon="-4.186033">
        <ele>1073.0</ele>
        <time>2016-07-12T16:43:47Z</time>
      </trkpt>
      <trkpt lat="41.039250" lon="-4.185900">
        <ele>1071.0</ele>
        <time>2016-07-12T16:43:48Z</time>
      </trkpt>
      <trkpt lat="41.039233" lon="-4.185733">
        <ele>1069.0</ele>
        <time>2016-07-12T16:43:49Z</time>
      </trkpt>
      <trkpt lat="41.039217" lon="-4.185583">
        <ele>1067.0</ele>
        <time>2016-07-12T16:43:50Z</time>
      </trkpt>
      <trkpt lat="41.039183" lon="-4.185433">
        <ele>1066.0</ele>
        <time>2016-07-12T16:43:51Z</time>
      </trkpt>
      <trkpt lat="41.039183" lon="-4.185283">
        <ele>1064.0</ele>
        <time>2016-07-12T16:43:52Z</time>
      </trkpt>
      <trkpt lat="41.039167" lon="-4.185150">
        <ele>1063.0</ele>
        <time>2016-07-12T16:43:53Z</time>
      </trkpt>
      <trkpt lat="41.039133" lon="-4.185000">
        <ele>1061.0</ele>
        <time>2016-07-12T16:43:54Z</time>
      </trkpt>
      <trkpt lat="41.039100" lon="-4.184850">
        <ele>1058.0</ele>
        <time>2016-07-12T16:43:55Z</time>
      </trkpt>
      <trkpt lat="41.039050" lon="-4.184683">
        <ele>1057.0</ele>
        <time>2016-07-12T16:43:56Z</time>
      </trkpt>
      <trkpt lat="41.038983" lon="-4.184533">
        <ele>1057.0</ele>
        <time>2016-07-12T16:43:57Z</time>
      </trkpt>
      <trkpt lat="41.038933" lon="-4.184383">
        <ele>1057.0</ele>
        <time>2016-07-12T16:43:58Z</time>
      </trkpt>
      <trkpt lat="41.038900" lon="-4.184250">
        <ele>1057.0</ele>
        <time>2016-07-12T16:43:59Z</time>
      </trkpt>
      <trkpt lat="41.038867" lon="-4.184117">
        <ele>1055.0</ele>
        <time>2016-07-12T16:44:00Z</time>
      </trkpt>
      <trkpt lat="41.038833" lon="-4.183983">
        <ele>1053.0</ele>
        <time>2016-07-12T16:44:01Z</time>
      </trkpt>
      <trkpt lat="41.038800" lon="-4.183850">
        <ele>1050.0</ele>
        <time>2016-07-12T16:44:02Z</time>
      </trkpt>
      <trkpt lat="41.038750" lon="-4.183683">
        <ele>1048.0</ele>
        <time>2016-07-12T16:44:03Z</time>
      </trkpt>
      <trkpt lat="41.038700" lon="-4.183533">
        <ele>1047.0</ele>
        <time>2016-07-12T16:44:04Z</time>
      </trkpt>
      <trkpt lat="41.038650" lon="-4.183400">
        <ele>1047.0</ele>
        <time>2016-07-12T16:44:05Z</time>
      </trkpt>
      <trkpt lat="41.038583" lon="-4.183267">
        <ele>1046.0</ele>
        <time>2016-07-12T16:44:06Z</time>
      </trkpt>
      <trkpt lat="41.038500" lon="-4.183150">
        <ele>1045.0</ele>
        <time>2016-07-12T16:44:07Z</time>
      </trkpt>
      <trkpt lat="41.038400" lon="-4.183017">
        <ele>1044.0</ele>
        <time>2016-07-12T16:44:08Z</time>
      </trkpt>
      <trkpt lat="41.038300" lon="-4.182883">
        <ele>1043.0</ele>
        <time>2016-07-12T16:44:09Z</time>
      </trkpt>
      <trkpt lat="41.038183" lon="-4.182750">
        <ele>1043.0</ele>
        <time>2016-07-12T16:44:10Z</time>
      </trkpt>
      <trkpt lat="41.038067" lon="-4.182650">
        <ele>1042.0</ele>
        <time>2016-07-12T16:44:11Z</time>
      </trkpt>
      <trkpt lat="41.037950" lon="-4.182567">
        <ele>1041.0</ele>
        <time>2016-07-12T16:44:12Z</time>
      </trkpt>
      <trkpt lat="41.037850" lon="-4.182483">
        <ele>1040.0</ele>
        <time>2016-07-12T16:44:13Z</time>
      </trkpt>
      <trkpt lat="41.037717" lon="-4.182383">
        <ele>1038.0</ele>
        <time>2016-07-12T16:44:14Z</time>
      </trkpt>
      <trkpt lat="41.037600" lon="-4.182300">
        <ele>1036.0</ele>
        <time>2016-07-12T16:44:15Z</time>
      </trkpt>
      <trkpt lat="41.037467" lon="-4.182233">
        <ele>1034.0</ele>
        <time>2016-07-12T16:44:16Z</time>
      </trkpt>
      <trkpt lat="41.037333" lon="-4.182150">
        <ele>1035.0</ele>
        <time>2016-07-12T16:44:17Z</time>
      </trkpt>
      <trkpt lat="41.037200" lon="-4.182067">
        <ele>1035.0</ele>
        <time>2016-07-12T16:44:18Z</time>
      </trkpt>
      <trkpt lat="41.037100" lon="-4.181983">
        <ele>1035.0</ele>
        <time>2016-07-12T16:44:19Z</time>
      </trkpt>
      <trkpt lat="41.036967" lon="-4.181917">
        <ele>1035.0</ele>
        <time>2016-07-12T16:44:20Z</time>
      </trkpt>
      <trkpt lat="41.036833" lon="-4.181883">
        <ele>1034.0</ele>
        <time>2016-07-12T16:44:21Z</time>
      </trkpt>
      <trkpt lat="41.036700" lon="-4.181850">
        <ele>1036.0</ele>
        <time>2016-07-12T16:44:22Z</time>
      </trkpt>
      <trkpt lat="41.036583" lon="-4.181850">
        <ele>1038.0</ele>
        <time>2016-07-12T16:44:23Z</time>
      </trkpt>
      <trkpt lat="41.036483" lon="-4.181833">
        <ele>1040.0</ele>
        <time>2016-07-12T16:44:24Z</time>
      </trkpt>
      <trkpt lat="41.036383" lon="-4.181817">
        <ele>1040.0</ele>
        <time>2016-07-12T16:44:25Z</time>
      </trkpt>
      <trkpt lat="41.036267" lon="-4.181817">
        <ele>1039.0</ele>
        <time>2016-07-12T16:44:26Z</time>
      </trkpt>
      <trkpt lat="41.036167" lon="-4.181817">
        <ele>1038.0</ele>
        <time>2016-07-12T16:44:27Z</time>
      </trkpt>
      <trkpt lat="41.036050" lon="-4.181850">
        <ele>1037.0</ele>
        <time>2016-07-12T16:44:28Z</time>
      </trkpt>
      <trkpt lat="41.035967" lon="-4.181900">
        <ele>1036.0</ele>
        <time>2016-07-12T16:44:29Z</time>
      </trkpt>
      <trkpt lat="41.035933" lon="-4.181950">
        <ele>1036.0</ele>
        <time>2016-07-12T16:44:30Z</time>
      </trkpt>
      <trkpt lat="41.035933" lon="-4.181983">
        <ele>1034.0</ele>
        <time>2016-07-12T16:44:31Z</time>
      </trkpt>
      <trkpt lat="41.035950" lon="-4.182000">
        <ele>1031.0</ele>
        <time>2016-07-12T16:44:32Z</time>
      </trkpt>
      <trkpt lat="41.036000" lon="-4.181983">
        <ele>1029.0</ele>
        <time>2016-07-12T16:44:33Z</time>
      </trkpt>
      <trkpt lat="41.036033" lon="-4.181917">
        <ele>1028.0</ele>
        <time>2016-07-12T16:44:34Z</time>
      </trkpt>
      <trkpt lat="41.036067" lon="-4.181817">
        <ele>1027.0</ele>
        <time>2016-07-12T16:44:35Z</time>
      </trkpt>
      <trkpt lat="41.036100" lon="-4.181700">
        <ele>1026.0</ele>
        <time>2016-07-12T16:44:36Z</time>
      </trkpt>
      <trkpt lat="41.036100" lon="-4.181550">
        <ele>1026.0</ele>
        <time>2016-07-12T16:44:37Z</time>
      </trkpt>
      <trkpt lat="41.036100" lon="-4.181417">
        <ele>1026.0</ele>
        <time>2016-07-12T16:44:38Z</time>
      </trkpt>
      <trkpt lat="41.036100" lon="-4.181267">
        <ele>1028.0</ele>
        <time>2016-07-12T16:44:39Z</time>
      </trkpt>
      <trkpt lat="41.036100" lon="-4.181150">
        <ele>1028.0</ele>
        <time>2016-07-12T16:44:40Z</time>
      </trkpt>
      <trkpt lat="41.036100" lon="-4.181050">
        <ele>1029.0</ele>
        <time>2016-07-12T16:44:41Z</time>
      </trkpt>
      <trkpt lat="41.036100" lon="-4.180933">
        <ele>1029.0</ele>
        <time>2016-07-12T16:44:42Z</time>
      </trkpt>
      <trkpt lat="41.036100" lon="-4.180817">
        <ele>1029.0</ele>
        <time>2016-07-12T16:44:43Z</time>
      </trkpt>
      <trkpt lat="41.036117" lon="-4.180700">
        <ele>1030.0</ele>
        <time>2016-07-12T16:44:44Z</time>
      </trkpt>
      <trkpt lat="41.036117" lon="-4.180583">
        <ele>1032.0</ele>
        <time>2016-07-12T16:44:45Z</time>
      </trkpt>
      <trkpt lat="41.036117" lon="-4.180483">
        <ele>1033.0</ele>
        <time>2016-07-12T16:44:46Z</time>
      </trkpt>
      <trkpt lat="41.036133" lon="-4.180383">
        <ele>1033.0</ele>
        <time>2016-07-12T16:44:47Z</time>
      </trkpt>
      <trkpt lat="41.036150" lon="-4.180283">
        <ele>1033.0</ele>
        <time>2016-07-12T16:44:48Z</time>
      </trkpt>
      <trkpt lat="41.036167" lon="-4.180183">
        <ele>1033.0</ele>
        <time>2016-07-12T16:44:49Z</time>
      </trkpt>
      <trkpt lat="41.036183" lon="-4.180100">
        <ele>1032.0</ele>
        <time>2016-07-12T16:44:50Z</time>
      </trkpt>
      <trkpt lat="41.036200" lon="-4.180033">
        <ele>1031.0</ele>
        <time>2016-07-12T16:44:51Z</time>
      </trkpt>
      <trkpt lat="41.036217" lon="-4.180000">
        <ele>1029.0</ele>
        <time>2016-07-12T16:44:52Z</time>
      </trkpt>
      <trkpt lat="41.036233" lon="-4.180000">
        <ele>1027.0</ele>
        <time>2016-07-12T16:44:53Z</time>
      </trkpt>
      <trkpt lat="41.036233" lon="-4.180050">
        <ele>1025.0</ele>
        <time>2016-07-12T16:44:54Z</time>
      </trkpt>
      <trkpt lat="41.036183" lon="-4.180133">
        <ele>1023.0</ele>
        <time>2016-07-12T16:44:55Z</time>
      </trkpt>
      <trkpt lat="41.036100" lon="-4.180200">
        <ele>1022.0</ele>
        <time>2016-07-12T16:44:56Z</time>
      </trkpt>
      <trkpt lat="41.036000" lon="-4.180233">
        <ele>1022.0</ele>
        <time>2016-07-12T16:44:57Z</time>
      </trkpt>
      <trkpt lat="41.035867" lon="-4.180217">
        <ele>1021.0</ele>
        <time>2016-07-12T16:44:58Z</time>
      </trkpt>
      <trkpt lat="41.035750" lon="-4.180167">
        <ele>1021.0</ele>
        <time>2016-07-12T16:44:59Z</time>
      </trkpt>
      <trkpt lat="41.035650" lon="-4.180100">
        <ele>1021.0</ele>
        <time>2016-07-12T16:45:00Z</time>
      </trkpt>
      <trkpt lat="41.035533" lon="-4.180017">
        <ele>1022.0</ele>
        <time>2016-07-12T16:45:01Z</time>
      </trkpt>
      <trkpt lat="41.035433" lon="-4.179933">
        <ele>1024.0</ele>
        <time>2016-07-12T16:45:02Z</time>
      </trkpt>
      <trkpt lat="41.035333" lon="-4.179867">
        <ele>1026.0</ele>
        <time>2016-07-12T16:45:03Z</time>
      </trkpt>
      <trkpt lat="41.035233" lon="-4.179833">
        <ele>1028.0</ele>
        <time>2016-07-12T16:45:04Z</time>
      </trkpt>
      <trkpt lat="41.035133" lon="-4.179817">
        <ele>1029.0</ele>
        <time>2016-07-12T16:45:05Z</time>
      </trkpt>
      <trkpt lat="41.035050" lon="-4.179833">
        <ele>1030.0</ele>
        <time>2016-07-12T16:45:06Z</time>
      </trkpt>
      <trkpt lat="41.034983" lon="-4.179883">
        <ele>1030.0</ele>
        <time>2016-07-12T16:45:07Z</time>
      </trkpt>
      <trkpt lat="41.034950" lon="-4.179933">
        <ele>1031.0</ele>
        <time>2016-07-12T16:45:08Z</time>
      </trkpt>
      <trkpt lat="41.034950" lon="-4.179950">
        <ele>1031.0</ele>
        <time>2016-07-12T16:45:09Z</time>
      </trkpt>
      <trkpt lat="41.034950" lon="-4.179983">
        <ele>1031.0</ele>
        <time>2016-07-12T16:45:10Z</time>
      </trkpt>
      <trkpt lat="41.034950" lon="-4.179983">
        <ele>1031.0</ele>
        <time>2016-07-12T16:45:11Z</time>
      </trkpt>
      <trkpt lat="41.034983" lon="-4.179967">
        <ele>1030.0</ele>
        <time>2016-07-12T16:45:12Z</time>
      </trkpt>
      <trkpt lat="41.035017" lon="-4.179917">
        <ele>1029.0</ele>
        <time>2016-07-12T16:45:13Z</time>
      </trkpt>
      <trkpt lat="41.035033" lon="-4.179833">
        <ele>1028.0</ele>
        <time>2016-07-12T16:45:14Z</time>
      </trkpt>
      <trkpt lat="41.035050" lon="-4.179717">
        <ele>1028.0</ele>
        <time>2016-07-12T16:45:15Z</time>
      </trkpt>
      <trkpt lat="41.035033" lon="-4.179583">
        <ele>1027.0</ele>
        <time>2016-07-12T16:45:16Z</time>
      </trkpt>
      <trkpt lat="41.034983" lon="-4.179450">
        <ele>1027.0</ele>
        <time>2016-07-12T16:45:17Z</time>
      </trkpt>
      <trkpt lat="41.034933" lon="-4.179317">
        <ele>1029.0</ele>
        <time>2016-07-12T16:45:18Z</time>
      </trkpt>
      <trkpt lat="41.034883" lon="-4.179167">
        <ele>1031.0</ele>
        <time>2016-07-12T16:45:19Z</time>
      </trkpt>
      <trkpt lat="41.034833" lon="-4.179050">
        <ele>1032.0</ele>
        <time>2016-07-12T16:45:20Z</time>
      </trkpt>
      <trkpt lat="41.034783" lon="-4.178917">
        <ele>1032.0</ele>
        <time>2016-07-12T16:45:21Z</time>
      </trkpt>
      <trkpt lat="41.034717" lon="-4.178783">
        <ele>1030.0</ele>
        <time>2016-07-12T16:45:22Z</time>
      </trkpt>
      <trkpt lat="41.034633" lon="-4.178650">
        <ele>1028.0</ele>
        <time>2016-07-12T16:45:23Z</time>
      </trkpt>
      <trkpt lat="41.034517" lon="-4.178550">
        <ele>1026.0</ele>
        <time>2016-07-12T16:45:24Z</time>
      </trkpt>
      <trkpt lat="41.034383" lon="-4.178483">
        <ele>1025.0</ele>
        <time>2016-07-12T16:45:25Z</time>
      </trkpt>
      <trkpt lat="41.034267" lon="-4.178467">
        <ele>1026.0</ele>
        <time>2016-07-12T16:45:26Z</time>
      </trkpt>
      <trkpt lat="41.034167" lon="-4.178500">
        <ele>1026.0</ele>
        <time>2016-07-12T16:45:27Z</time>
      </trkpt>
      <trkpt lat="41.034083" lon="-4.178533">
        <ele>1026.0</ele>
        <time>2016-07-12T16:45:28Z</time>
      </trkpt>
      <trkpt lat="41.034017" lon="-4.178567">
        <ele>1026.0</ele>
        <time>2016-07-12T16:45:29Z</time>
      </trkpt>
      <trkpt lat="41.033950" lon="-4.178600">
        <ele>1026.0</ele>
        <time>2016-07-12T16:45:30Z</time>
      </trkpt>
      <trkpt lat="41.033867" lon="-4.178633">
        <ele>1026.0</ele>
        <time>2016-07-12T16:45:31Z</time>
      </trkpt>
      <trkpt lat="41.033800" lon="-4.178667">
        <ele>1025.0</ele>
        <time>2016-07-12T16:45:32Z</time>
      </trkpt>
      <trkpt lat="41.033750" lon="-4.178717">
        <ele>1023.0</ele>
        <time>2016-07-12T16:45:33Z</time>
      </trkpt>
      <trkpt lat="41.033717" lon="-4.178750">
        <ele>1021.0</ele>
        <time>2016-07-12T16:45:34Z</time>
      </trkpt>
      <trkpt lat="41.033717" lon="-4.178800">
        <ele>1019.0</ele>
        <time>2016-07-12T16:45:35Z</time>
      </trkpt>
      <trkpt lat="41.033750" lon="-4.178800">
        <ele>1018.0</ele>
        <time>2016-07-12T16:45:36Z</time>
      </trkpt>
      <trkpt lat="41.033783" lon="-4.178750">
        <ele>1016.0</ele>
        <time>2016-07-12T16:45:37Z</time>
      </trkpt>
      <trkpt lat="41.033800" lon="-4.178667">
        <ele>1015.0</ele>
        <time>2016-07-12T16:45:38Z</time>
      </trkpt>
      <trkpt lat="41.033817" lon="-4.178550">
        <ele>1014.0</ele>
        <time>2016-07-12T16:45:39Z</time>
      </trkpt>
      <trkpt lat="41.033833" lon="-4.178417">
        <ele>1012.0</ele>
        <time>2016-07-12T16:45:40Z</time>
      </trkpt>
      <trkpt lat="41.033850" lon="-4.178283">
        <ele>1011.0</ele>
        <time>2016-07-12T16:45:41Z</time>
      </trkpt>
      <trkpt lat="41.033867" lon="-4.178150">
        <ele>1011.0</ele>
        <time>2016-07-12T16:45:42Z</time>
      </trkpt>
      <trkpt lat="41.033867" lon="-4.178033">
        <ele>1012.0</ele>
        <time>2016-07-12T16:45:43Z</time>
      </trkpt>
      <trkpt lat="41.033850" lon="-4.177917">
        <ele>1012.0</ele>
        <time>2016-07-12T16:45:44Z</time>
      </trkpt>
      <trkpt lat="41.033800" lon="-4.177817">
        <ele>1012.0</ele>
        <time>2016-07-12T16:45:45Z</time>
      </trkpt>
      <trkpt lat="41.033750" lon="-4.177700">
        <ele>1010.0</ele>
        <time>2016-07-12T16:45:46Z</time>
      </trkpt>
      <trkpt lat="41.033683" lon="-4.177583">
        <ele>1007.0</ele>
        <time>2016-07-12T16:45:47Z</time>
      </trkpt>
      <trkpt lat="41.033600" lon="-4.177450">
        <ele>1005.0</ele>
        <time>2016-07-12T16:45:48Z</time>
      </trkpt>
      <trkpt lat="41.033483" lon="-4.177350">
        <ele>1003.0</ele>
        <time>2016-07-12T16:45:49Z</time>
      </trkpt>
      <trkpt lat="41.033350" lon="-4.177333">
        <ele>1002.0</ele>
        <time>2016-07-12T16:45:50Z</time>
      </trkpt>
      <trkpt lat="41.033217" lon="-4.177400">
        <ele>1001.0</ele>
        <time>2016-07-12T16:45:51Z</time>
      </trkpt>
      <trkpt lat="41.033133" lon="-4.177483">
        <ele>1001.0</ele>
        <time>2016-07-12T16:45:52Z</time>
      </trkpt>
      <trkpt lat="41.033083" lon="-4.177550">
        <ele>1001.0</ele>
        <time>2016-07-12T16:45:53Z</time>
      </trkpt>
      <trkpt lat="41.033033" lon="-4.177600">
        <ele>1002.0</ele>
        <time>2016-07-12T16:45:54Z</time>
      </trkpt>
      <trkpt lat="41.033000" lon="-4.177633">
        <ele>1002.0</ele>
        <time>2016-07-12T16:45:55Z</time>
      </trkpt>
      <trkpt lat="41.032950" lon="-4.177650">
        <ele>1001.0</ele>
        <time>2016-07-12T16:45:56Z</time>
      </trkpt>
      <trkpt lat="41.032933" lon="-4.177683">
        <ele>997.0</ele>
        <time>2016-07-12T16:45:57Z</time>
      </trkpt>
      <trkpt lat="41.032917" lon="-4.177717">
        <ele>995.0</ele>
        <time>2016-07-12T16:45:58Z</time>
      </trkpt>
      <trkpt lat="41.032900" lon="-4.177767">
        <ele>992.0</ele>
        <time>2016-07-12T16:45:59Z</time>
      </trkpt>
      <trkpt lat="41.032867" lon="-4.177817">
        <ele>990.0</ele>
        <time>2016-07-12T16:46:00Z</time>
      </trkpt>
      <trkpt lat="41.032850" lon="-4.177867">
        <ele>989.0</ele>
        <time>2016-07-12T16:46:01Z</time>
      </trkpt>
      <trkpt lat="41.032833" lon="-4.177917">
        <ele>988.0</ele>
        <time>2016-07-12T16:46:02Z</time>
      </trkpt>
      <trkpt lat="41.032833" lon="-4.177950">
        <ele>987.0</ele>
        <time>2016-07-12T16:46:03Z</time>
      </trkpt>
      <trkpt lat="41.032833" lon="-4.178000">
        <ele>985.0</ele>
        <time>2016-07-12T16:46:04Z</time>
      </trkpt>
      <trkpt lat="41.032850" lon="-4.178050">
        <ele>984.0</ele>
        <time>2016-07-12T16:46:05Z</time>
      </trkpt>
      <trkpt lat="41.032850" lon="-4.178117">
        <ele>984.0</ele>
        <time>2016-07-12T16:46:06Z</time>
      </trkpt>
      <trkpt lat="41.032850" lon="-4.178167">
        <ele>986.0</ele>
        <time>2016-07-12T16:46:07Z</time>
      </trkpt>
      <trkpt lat="41.032833" lon="-4.178200">
        <ele>988.0</ele>
        <time>2016-07-12T16:46:08Z</time>
      </trkpt>
      <trkpt lat="41.032817" lon="-4.178217">
        <ele>989.0</ele>
        <time>2016-07-12T16:46:09Z</time>
      </trkpt>
      <trkpt lat="41.032833" lon="-4.178233">
        <ele>989.0</ele>
        <time>2016-07-12T16:46:10Z</time>
      </trkpt>
      <trkpt lat="41.032883" lon="-4.178267">
        <ele>989.0</ele>
        <time>2016-07-12T16:46:11Z</time>
      </trkpt>
      <trkpt lat="41.032950" lon="-4.178283">
        <ele>991.0</ele>
        <time>2016-07-12T16:46:12Z</time>
      </trkpt>
      <trkpt lat="41.032967" lon="-4.178283">
        <ele>994.0</ele>
        <time>2016-07-12T16:46:13Z</time>
      </trkpt>
      <trkpt lat="41.032983" lon="-4.178250">
        <ele>995.0</ele>
        <time>2016-07-12T16:46:14Z</time>
      </trkpt>
      <trkpt lat="41.032983" lon="-4.178217">
        <ele>994.0</ele>
        <time>2016-07-12T16:46:15Z</time>
      </trkpt>
      <trkpt lat="41.033000" lon="-4.178150">
        <ele>991.0</ele>
        <time>2016-07-12T16:46:16Z</time>
      </trkpt>
      <trkpt lat="41.033017" lon="-4.178100">
        <ele>987.0</ele>
        <time>2016-07-12T16:46:17Z</time>
      </trkpt>
      <trkpt lat="41.033067" lon="-4.178050">
        <ele>983.0</ele>
        <time>2016-07-12T16:46:18Z</time>
      </trkpt>
      <trkpt lat="41.033117" lon="-4.178033">
        <ele>980.0</ele>
        <time>2016-07-12T16:46:19Z</time>
      </trkpt>
      <trkpt lat="41.033150" lon="-4.178017">
        <ele>977.0</ele>
        <time>2016-07-12T16:46:20Z</time>
      </trkpt>
      <trkpt lat="41.033167" lon="-4.178033">
        <ele>974.0</ele>
        <time>2016-07-12T16:46:21Z</time>
      </trkpt>
      <trkpt lat="41.033183" lon="-4.178050">
        <ele>971.0</ele>
        <time>2016-07-12T16:46:22Z</time>
      </trkpt>
      <trkpt lat="41.033183" lon="-4.178083">
        <ele>968.0</ele>
        <time>2016-07-12T16:46:23Z</time>
      </trkpt>
      <trkpt lat="41.033167" lon="-4.178133">
        <ele>965.0</ele>
        <time>2016-07-12T16:46:24Z</time>
      </trkpt>
      <trkpt lat="41.033133" lon="-4.178167">
        <ele>963.0</ele>
        <time>2016-07-12T16:46:25Z</time>
      </trkpt>
      <trkpt lat="41.033100" lon="-4.178200">
        <ele>962.0</ele>
        <time>2016-07-12T16:46:26Z</time>
      </trkpt>
      <trkpt lat="41.033050" lon="-4.178233">
        <ele>961.0</ele>
        <time>2016-07-12T16:46:27Z</time>
      </trkpt>
      <trkpt lat="41.033033" lon="-4.178283">
        <ele>959.0</ele>
        <time>2016-07-12T16:46:28Z</time>
      </trkpt>
      <trkpt lat="41.033033" lon="-4.178350">
        <ele>957.0</ele>
        <time>2016-07-12T16:46:29Z</time>
      </trkpt>
      <trkpt lat="41.033050" lon="-4.178400">
        <ele>955.0</ele>
        <time>2016-07-12T16:46:30Z</time>
      </trkpt>
      <trkpt lat="41.033050" lon="-4.178467">
        <ele>954.0</ele>
        <time>2016-07-12T16:46:31Z</time>
      </trkpt>
      <trkpt lat="41.033033" lon="-4.178517">
        <ele>953.0</ele>
        <time>2016-07-12T16:46:32Z</time>
      </trkpt>
      <trkpt lat="41.033033" lon="-4.178567">
        <ele>951.0</ele>
        <time>2016-07-12T16:46:33Z</time>
      </trkpt>
      <trkpt lat="41.033017" lon="-4.178567">
        <ele>951.0</ele>
        <time>2016-07-12T16:46:34Z</time>
      </trkpt>
      <trkpt lat="41.033017" lon="-4.178567">
        <ele>951.0</ele>
        <time>2016-07-12T16:46:35Z</time>
      </trkpt>
      <trkpt lat="41.033017" lon="-4.178567">
        <ele>950.0</ele>
        <time>2016-07-12T16:46:36Z</time>
      </trkpt>
      <trkpt lat="41.033017" lon="-4.178567">
        <ele>950.0</ele>
        <time>2016-07-12T16:46:37Z</time>
      </trkpt>
      <trkpt lat="41.033017" lon="-4.178567">
        <ele>950.0</ele>
        <time>2016-07-12T16:46:38Z</time>
      </trkpt>
      <trkpt lat="41.033017" lon="-4.178567">
        <ele>950.0</ele>
        <time>2016-07-12T16:46:39Z</time>
      </trkpt>
      <trkpt lat="41.033017" lon="-4.178567">
        <ele>950.0</ele>
        <time>2016-07-12T16:46:40Z</time>
      </trkpt>
      <trkpt lat="41.033017" lon="-4.178567">
        <ele>949.0</ele>
        <time>2016-07-12T16:46:41Z</time>
      </trkpt>
      <trkpt lat="41.033017" lon="-4.178567">
        <ele>949.0</ele>
        <time>2016-07-12T16:46:42Z</time>
      </trkpt>
      <trkpt lat="41.033017" lon="-4.178567">
        <ele>949.0</ele>
        <time>2016-07-12T16:46:43Z</time>
      </trkpt>
      <trkpt lat="41.033017" lon="-4.178567">
        <ele>949.0</ele>
        <time>2016-07-12T16:46:44Z</time>
      </trkpt>
      <trkpt lat="41.033017" lon="-4.178567">
        <ele>949.0</ele>
        <time>2016-07-12T16:46:45Z</time>
      </trkpt>
      <trkpt lat="41.033017" lon="-4.178567">
        <ele>948.0</ele>
        <time>2016-07-12T16:46:46Z</time>
      </trkpt>
      <trkpt lat="41.033017" lon="-4.178567">
        <ele>948.0</ele>
        <time>2016-07-12T16:46:47Z</time>
      </trkpt>
      <trkpt lat="41.033017" lon="-4.178567">
        <ele>948.0</ele>
        <time>2016-07-12T16:46:48Z</time>
      </trkpt>
      <trkpt lat="41.033017" lon="-4.178567">
        <ele>948.0</ele>
        <time>2016-07-12T16:46:49Z</time>
      </trkpt>
      <trkpt lat="41.033017" lon="-4.178567">
        <ele>948.0</ele>
        <time>2016-07-12T16:46:50Z</time>
      </trkpt>
      <trkpt lat="41.033017" lon="-4.178567">
        <ele>948.0</ele>
        <time>2016-07-12T16:46:51Z</time>
      </trkpt>
      <trkpt lat="41.033017" lon="-4.178567">
        <ele>948.0</ele>
        <time>2016-07-12T16:46:52Z</time>
      </trkpt>
      <trkpt lat="41.033017" lon="-4.178567">
        <ele>948.0</ele>
        <time>2016-07-12T16:46:53Z</time>
      </trkpt>
      <trkpt lat="41.033000" lon="-4.178550">
        <ele>949.0</ele>
        <time>2016-07-12T16:46:54Z</time>
      </trkpt>
      <trkpt lat="41.033000" lon="-4.178550">
        <ele>949.0</ele>
        <time>2016-07-12T16:46:55Z</time>
      </trkpt>
      <trkpt lat="41.033000" lon="-4.178550">
        <ele>949.0</ele>
        <time>2016-07-12T16:46:56Z</time>
      </trkpt>
      <trkpt lat="41.033000" lon="-4.178533">
        <ele>949.0</ele>
        <time>2016-07-12T16:46:57Z</time>
      </trkpt>
      <trkpt lat="41.032983" lon="-4.178533">
        <ele>950.0</ele>
        <time>2016-07-12T16:46:58Z</time>
      </trkpt>
      <trkpt lat="41.032983" lon="-4.178533">
        <ele>950.0</ele>
        <time>2016-07-12T16:46:59Z</time>
      </trkpt>
      <trkpt lat="41.032983" lon="-4.178533">
        <ele>949.0</ele>
        <time>2016-07-12T16:47:00Z</time>
      </trkpt>
      <trkpt lat="41.032983" lon="-4.178533">
        <ele>949.0</ele>
        <time>2016-07-12T16:47:01Z</time>
      </trkpt>
      <trkpt lat="41.032967" lon="-4.178533">
        <ele>950.0</ele>
        <time>2016-07-12T16:47:02Z</time>
      </trkpt>
      <trkpt lat="41.032967" lon="-4.178533">
        <ele>950.0</ele>
        <time>2016-07-12T16:47:03Z</time>
      </trkpt>
      <trkpt lat="41.032967" lon="-4.178533">
        <ele>950.0</ele>
        <time>2016-07-12T16:47:04Z</time>
      </trkpt>
      <trkpt lat="41.032950" lon="-4.178533">
        <ele>950.0</ele>
        <time>2016-07-12T16:47:05Z</time>
      </trkpt>
      <trkpt lat="41.032950" lon="-4.178533">
        <ele>950.0</ele>
        <time>2016-07-12T16:47:06Z</time>
      </trkpt>
      <trkpt lat="41.032950" lon="-4.178533">
        <ele>950.0</ele>
        <time>2016-07-12T16:47:07Z</time>
      </trkpt>
      <trkpt lat="41.032950" lon="-4.178533">
        <ele>950.0</ele>
        <time>2016-07-12T16:47:08Z</time>
      </trkpt>
      <trkpt lat="41.032950" lon="-4.178533">
        <ele>950.0</ele>
        <time>2016-07-12T16:47:09Z</time>
      </trkpt>
      <trkpt lat="41.032950" lon="-4.178533">
        <ele>950.0</ele>
        <time>2016-07-12T16:47:10Z</time>
      </trkpt>
      <trkpt lat="41.032967" lon="-4.178517">
        <ele>950.0</ele>
        <time>2016-07-12T16:47:11Z</time>
      </trkpt>
      <trkpt lat="41.032967" lon="-4.178517">
        <ele>950.0</ele>
        <time>2016-07-12T16:47:12Z</time>
      </trkpt>
      <trkpt lat="41.032967" lon="-4.178517">
        <ele>950.0</ele>
        <time>2016-07-12T16:47:13Z</time>
      </trkpt>
      <trkpt lat="41.032967" lon="-4.178517">
        <ele>950.0</ele>
        <time>2016-07-12T16:47:14Z</time>
      </trkpt>
      <trkpt lat="41.032967" lon="-4.178517">
        <ele>949.0</ele>
        <time>2016-07-12T16:47:15Z</time>
      </trkpt>
      <trkpt lat="41.032967" lon="-4.178533">
        <ele>950.0</ele>
        <time>2016-07-12T16:47:16Z</time>
      </trkpt>
      <trkpt lat="41.032967" lon="-4.178533">
        <ele>950.0</ele>
        <time>2016-07-12T16:47:17Z</time>
      </trkpt>
      <trkpt lat="41.032967" lon="-4.178533">
        <ele>950.0</ele>
        <time>2016-07-12T16:47:18Z</time>
      </trkpt>
      <trkpt lat="41.032967" lon="-4.178533">
        <ele>950.0</ele>
        <time>2016-07-12T16:47:19Z</time>
      </trkpt>
      <trkpt lat="41.032967" lon="-4.178533">
        <ele>950.0</ele>
        <time>2016-07-12T16:47:20Z</time>
      </trkpt>
      <trkpt lat="41.032967" lon="-4.178533">
        <ele>950.0</ele>
        <time>2016-07-12T16:47:21Z</time>
      </trkpt>
      <trkpt lat="41.032967" lon="-4.178533">
        <ele>950.0</ele>
        <time>2016-07-12T16:47:22Z</time>
      </trkpt>
      <trkpt lat="41.032967" lon="-4.178533">
        <ele>950.0</ele>
        <time>2016-07-12T16:47:23Z</time>
      </trkpt>
      <trkpt lat="41.032967" lon="-4.178533">
        <ele>950.0</ele>
        <time>2016-07-12T16:47:24Z</time>
      </trkpt>
      <trkpt lat="41.032967" lon="-4.178533">
        <ele>950.0</ele>
        <time>2016-07-12T16:47:25Z</time>
      </trkpt>
      <trkpt lat="41.032967" lon="-4.178533">
        <ele>950.0</ele>
        <time>2016-07-12T16:47:26Z</time>
      </trkpt>
      <trkpt lat="41.032967" lon="-4.178533">
        <ele>950.0</ele>
        <time>2016-07-12T16:47:27Z</time>
      </trkpt>
      <trkpt lat="41.032967" lon="-4.178533">
        <ele>950.0</ele>
        <time>2016-07-12T16:47:28Z</time>
      </trkpt>
      <trkpt lat="41.032967" lon="-4.178533">
        <ele>951.0</ele>
        <time>2016-07-12T16:47:29Z</time>
      </trkpt>
      <trkpt lat="41.032967" lon="-4.178533">
        <ele>951.0</ele>
        <time>2016-07-12T16:47:30Z</time>
      </trkpt>
      <trkpt lat="41.032983" lon="-4.178533">
        <ele>950.0</ele>
        <time>2016-07-12T16:47:31Z</time>
      </trkpt>
      <trkpt lat="41.032983" lon="-4.178517">
        <ele>949.0</ele>
        <time>2016-07-12T16:47:32Z</time>
      </trkpt>
      <trkpt lat="41.032983" lon="-4.178517">
        <ele>949.0</ele>
        <time>2016-07-12T16:47:33Z</time>
      </trkpt>
      <trkpt lat="41.032983" lon="-4.178517">
        <ele>949.0</ele>
        <time>2016-07-12T16:47:34Z</time>
      </trkpt>
      <trkpt lat="41.032983" lon="-4.178517">
        <ele>949.0</ele>
        <time>2016-07-12T16:47:35Z</time>
      </trkpt>
      <trkpt lat="41.032983" lon="-4.178517">
        <ele>948.0</ele>
        <time>2016-07-12T16:47:36Z</time>
      </trkpt>
      <trkpt lat="41.032983" lon="-4.178517">
        <ele>948.0</ele>
        <time>2016-07-12T16:47:37Z</time>
      </trkpt>
      <trkpt lat="41.032983" lon="-4.178517">
        <ele>948.0</ele>
        <time>2016-07-12T16:47:38Z</time>
      </trkpt>
      <trkpt lat="41.032983" lon="-4.178517">
        <ele>949.0</ele>
        <time>2016-07-12T16:47:39Z</time>
      </trkpt>
      <trkpt lat="41.032967" lon="-4.178517">
        <ele>949.0</ele>
        <time>2016-07-12T16:47:40Z</time>
      </trkpt>
      <trkpt lat="41.032967" lon="-4.178517">
        <ele>949.0</ele>
        <time>2016-07-12T16:47:41Z</time>
      </trkpt>
      <trkpt lat="41.032967" lon="-4.178517">
        <ele>948.0</ele>
        <time>2016-07-12T16:47:42Z</time>
      </trkpt>
      <trkpt lat="41.032967" lon="-4.178500">
        <ele>949.0</ele>
        <time>2016-07-12T16:47:43Z</time>
      </trkpt>
      <trkpt lat="41.032950" lon="-4.178500">
        <ele>948.0</ele>
        <time>2016-07-12T16:47:44Z</time>
      </trkpt>
      <trkpt lat="41.032950" lon="-4.178483">
        <ele>948.0</ele>
        <time>2016-07-12T16:47:45Z</time>
      </trkpt>
      <trkpt lat="41.032950" lon="-4.178483">
        <ele>948.0</ele>
        <time>2016-07-12T16:47:46Z</time>
      </trkpt>
      <trkpt lat="41.032950" lon="-4.178483">
        <ele>948.0</ele>
        <time>2016-07-12T16:47:47Z</time>
      </trkpt>
      <trkpt lat="41.032950" lon="-4.178467">
        <ele>947.0</ele>
        <time>2016-07-12T16:47:48Z</time>
      </trkpt>
      <trkpt lat="41.032950" lon="-4.178467">
        <ele>948.0</ele>
        <time>2016-07-12T16:47:49Z</time>
      </trkpt>
      <trkpt lat="41.032950" lon="-4.178467">
        <ele>947.0</ele>
        <time>2016-07-12T16:47:50Z</time>
      </trkpt>
      <trkpt lat="41.032950" lon="-4.178467">
        <ele>946.0</ele>
        <time>2016-07-12T16:47:51Z</time>
      </trkpt>
      <trkpt lat="41.032950" lon="-4.178467">
        <ele>946.0</ele>
        <time>2016-07-12T16:47:52Z</time>
      </trkpt>
      <trkpt lat="41.032933" lon="-4.178467">
        <ele>946.0</ele>
        <time>2016-07-12T16:47:53Z</time>
      </trkpt>
      <trkpt lat="41.032917" lon="-4.178467">
        <ele>946.0</ele>
        <time>2016-07-12T16:47:54Z</time>
      </trkpt>
      <trkpt lat="41.032917" lon="-4.178467">
        <ele>946.0</ele>
        <time>2016-07-12T16:47:55Z</time>
      </trkpt>
      <trkpt lat="41.032917" lon="-4.178467">
        <ele>946.0</ele>
        <time>2016-07-12T16:47:56Z</time>
      </trkpt>
      <trkpt lat="41.032900" lon="-4.178467">
        <ele>946.0</ele>
        <time>2016-07-12T16:47:57Z</time>
      </trkpt>
      <trkpt lat="41.032900" lon="-4.178467">
        <ele>946.0</ele>
        <time>2016-07-12T16:47:58Z</time>
      </trkpt>
      <trkpt lat="41.032883" lon="-4.178467">
        <ele>946.0</ele>
        <time>2016-07-12T16:47:59Z</time>
      </trkpt>
      <trkpt lat="41.032883" lon="-4.178467">
        <ele>946.0</ele>
        <time>2016-07-12T16:48:00Z</time>
      </trkpt>
      <trkpt lat="41.032867" lon="-4.178450">
        <ele>946.0</ele>
        <time>2016-07-12T16:48:01Z</time>
      </trkpt>
      <trkpt lat="41.032850" lon="-4.178450">
        <ele>946.0</ele>
        <time>2016-07-12T16:48:02Z</time>
      </trkpt>
      <trkpt lat="41.032850" lon="-4.178450">
        <ele>946.0</ele>
        <time>2016-07-12T16:48:03Z</time>
      </trkpt>
      <trkpt lat="41.032833" lon="-4.178450">
        <ele>947.0</ele>
        <time>2016-07-12T16:48:04Z</time>
      </trkpt>
      <trkpt lat="41.032833" lon="-4.178450">
        <ele>947.0</ele>
        <time>2016-07-12T16:48:05Z</time>
      </trkpt>
      <trkpt lat="41.032817" lon="-4.178433">
        <ele>947.0</ele>
        <time>2016-07-12T16:48:06Z</time>
      </trkpt>
      <trkpt lat="41.032817" lon="-4.178433">
        <ele>947.0</ele>
        <time>2016-07-12T16:48:07Z</time>
      </trkpt>
      <trkpt lat="41.032817" lon="-4.178433">
        <ele>947.0</ele>
        <time>2016-07-12T16:48:08Z</time>
      </trkpt>
      <trkpt lat="41.032817" lon="-4.178433">
        <ele>947.0</ele>
        <time>2016-07-12T16:48:09Z</time>
      </trkpt>
      <trkpt lat="41.032817" lon="-4.178433">
        <ele>947.0</ele>
        <time>2016-07-12T16:48:10Z</time>
      </trkpt>
      <trkpt lat="41.032817" lon="-4.178433">
        <ele>948.0</ele>
        <time>2016-07-12T16:48:11Z</time>
      </trkpt>
      <trkpt lat="41.032817" lon="-4.178433">
        <ele>948.0</ele>
        <time>2016-07-12T16:48:12Z</time>
      </trkpt>
      <trkpt lat="41.032817" lon="-4.178433">
        <ele>949.0</ele>
        <time>2016-07-12T16:48:13Z</time>
      </trkpt>
      <trkpt lat="41.032817" lon="-4.178433">
        <ele>949.0</ele>
        <time>2016-07-12T16:48:14Z</time>
      </trkpt>
      <trkpt lat="41.032817" lon="-4.178433">
        <ele>949.0</ele>
        <time>2016-07-12T16:48:15Z</time>
      </trkpt>
      <trkpt lat="41.032817" lon="-4.178433">
        <ele>949.0</ele>
        <time>2016-07-12T16:48:16Z</time>
      </trkpt>
      <trkpt lat="41.032817" lon="-4.178433">
        <ele>948.0</ele>
        <time>2016-07-12T16:48:17Z</time>
      </trkpt>
      <trkpt lat="41.032817" lon="-4.178433">
        <ele>947.0</ele>
        <time>2016-07-12T16:48:18Z</time>
      </trkpt>
      <trkpt lat="41.032817" lon="-4.178433">
        <ele>947.0</ele>
        <time>2016-07-12T16:48:19Z</time>
      </trkpt>
    </trkseg>
  </trk>
</gpx>
